<?xml version="1.0" encoding="UTF-8"?>
<gpx version="1.1" creator="https://www.youtrack.es" xsi:schemaLocation="http://www.topografix.com/GPX/1/1 http://www.topografix.com/GPX/1/1/gpx.xsd http://www.garmin.com/xmlschemas/GpxExtensions/v3 http://www.garmin.com/xmlschemas/GpxExtensionsv3.xsd http://www.garmin.com/xmlschemas/TrackPointExtension/v1 http://www.garmin.com/xmlschemas/TrackPointExtensionv1.xsd" xmlns:gpxtpx="http://www.garmin.com/xmlschemas/TrackPointExtension/v1" xmlns:gpxx="http://www.garmin.com/xmlschemas/GpxExtensions/v3" xmlns:xsi="http://www.w3.org/2001/XMLSchema-instance">
  <metadata>
    <link href="https://www.youtrack.es">
      <text>YouTrack.es</text>
    </link>
    <time>2026-05-08T22:45:28Z</time>
  </metadata>
  <trk>
    <src>https://www.youtrack.es</src>
    <link href="https://www.youtrack.es/ruta/36875-trevino-gravel">
      <text>YouTrack.es</text>
    </link>
    <trkseg>
      <trkpt lat="42.731514" lon="-2.753297">
        <ele>527.227</ele>
        <time>2022-07-03T15:05:05Z</time>
      </trkpt>
      <trkpt lat="42.731481" lon="-2.753345">
        <ele>527.768</ele>
        <time>2022-07-03T15:05:48Z</time>
      </trkpt>
      <trkpt lat="42.731445" lon="-2.753390">
        <ele>528.114</ele>
        <time>2022-07-03T15:06:39Z</time>
      </trkpt>
      <trkpt lat="42.731518" lon="-2.753405">
        <ele>528.109</ele>
        <time>2022-07-03T15:07:39Z</time>
      </trkpt>
      <trkpt lat="42.731492" lon="-2.753339">
        <ele>528.143</ele>
        <time>2022-07-03T15:07:50Z</time>
      </trkpt>
      <trkpt lat="42.731483" lon="-2.753264">
        <ele>528.582</ele>
        <time>2022-07-03T15:08:45Z</time>
      </trkpt>
      <trkpt lat="42.731505" lon="-2.753187">
        <ele>529.279</ele>
        <time>2022-07-03T15:08:48Z</time>
      </trkpt>
      <trkpt lat="42.731528" lon="-2.753098">
        <ele>529.292</ele>
        <time>2022-07-03T15:08:50Z</time>
      </trkpt>
      <trkpt lat="42.731545" lon="-2.753001">
        <ele>529.673</ele>
        <time>2022-07-03T15:08:52Z</time>
      </trkpt>
      <trkpt lat="42.731552" lon="-2.752903">
        <ele>530.269</ele>
        <time>2022-07-03T15:08:54Z</time>
      </trkpt>
      <trkpt lat="42.731570" lon="-2.752805">
        <ele>530.532</ele>
        <time>2022-07-03T15:08:56Z</time>
      </trkpt>
      <trkpt lat="42.731598" lon="-2.752709">
        <ele>530.871</ele>
        <time>2022-07-03T15:08:58Z</time>
      </trkpt>
      <trkpt lat="42.731619" lon="-2.752614">
        <ele>531.121</ele>
        <time>2022-07-03T15:09:00Z</time>
      </trkpt>
      <trkpt lat="42.731651" lon="-2.752557">
        <ele>531.316</ele>
        <time>2022-07-03T15:09:02Z</time>
      </trkpt>
      <trkpt lat="42.731712" lon="-2.752517">
        <ele>531.476</ele>
        <time>2022-07-03T15:09:04Z</time>
      </trkpt>
      <trkpt lat="42.731773" lon="-2.752471">
        <ele>531.913</ele>
        <time>2022-07-03T15:09:06Z</time>
      </trkpt>
      <trkpt lat="42.731820" lon="-2.752402">
        <ele>532.409</ele>
        <time>2022-07-03T15:09:08Z</time>
      </trkpt>
      <trkpt lat="42.731866" lon="-2.752329">
        <ele>533.382</ele>
        <time>2022-07-03T15:09:10Z</time>
      </trkpt>
      <trkpt lat="42.731913" lon="-2.752256">
        <ele>533.751</ele>
        <time>2022-07-03T15:09:12Z</time>
      </trkpt>
      <trkpt lat="42.731961" lon="-2.752178">
        <ele>534.018</ele>
        <time>2022-07-03T15:09:14Z</time>
      </trkpt>
      <trkpt lat="42.732011" lon="-2.752098">
        <ele>534.261</ele>
        <time>2022-07-03T15:09:16Z</time>
      </trkpt>
      <trkpt lat="42.732065" lon="-2.752012">
        <ele>534.282</ele>
        <time>2022-07-03T15:09:18Z</time>
      </trkpt>
      <trkpt lat="42.732093" lon="-2.751961">
        <ele>534.278</ele>
        <time>2022-07-03T15:09:19Z</time>
      </trkpt>
      <trkpt lat="42.732124" lon="-2.751905">
        <ele>534.121</ele>
        <time>2022-07-03T15:09:20Z</time>
      </trkpt>
      <trkpt lat="42.732159" lon="-2.751859">
        <ele>533.910</ele>
        <time>2022-07-03T15:09:21Z</time>
      </trkpt>
      <trkpt lat="42.732192" lon="-2.751806">
        <ele>533.720</ele>
        <time>2022-07-03T15:09:22Z</time>
      </trkpt>
      <trkpt lat="42.732228" lon="-2.751751">
        <ele>533.764</ele>
        <time>2022-07-03T15:09:23Z</time>
      </trkpt>
      <trkpt lat="42.732263" lon="-2.751700">
        <ele>533.706</ele>
        <time>2022-07-03T15:09:24Z</time>
      </trkpt>
      <trkpt lat="42.732298" lon="-2.751648">
        <ele>533.716</ele>
        <time>2022-07-03T15:09:25Z</time>
      </trkpt>
      <trkpt lat="42.732344" lon="-2.751580">
        <ele>533.709</ele>
        <time>2022-07-03T15:09:26Z</time>
      </trkpt>
      <trkpt lat="42.732388" lon="-2.751518">
        <ele>533.797</ele>
        <time>2022-07-03T15:09:27Z</time>
      </trkpt>
      <trkpt lat="42.732427" lon="-2.751463">
        <ele>533.656</ele>
        <time>2022-07-03T15:09:28Z</time>
      </trkpt>
      <trkpt lat="42.732471" lon="-2.751423">
        <ele>533.653</ele>
        <time>2022-07-03T15:09:29Z</time>
      </trkpt>
      <trkpt lat="42.732505" lon="-2.751375">
        <ele>533.616</ele>
        <time>2022-07-03T15:09:30Z</time>
      </trkpt>
      <trkpt lat="42.732543" lon="-2.751313">
        <ele>533.647</ele>
        <time>2022-07-03T15:09:31Z</time>
      </trkpt>
      <trkpt lat="42.732575" lon="-2.751264">
        <ele>533.673</ele>
        <time>2022-07-03T15:09:32Z</time>
      </trkpt>
      <trkpt lat="42.732624" lon="-2.751210">
        <ele>533.586</ele>
        <time>2022-07-03T15:09:33Z</time>
      </trkpt>
      <trkpt lat="42.732661" lon="-2.751144">
        <ele>533.475</ele>
        <time>2022-07-03T15:09:34Z</time>
      </trkpt>
      <trkpt lat="42.732691" lon="-2.751087">
        <ele>533.275</ele>
        <time>2022-07-03T15:09:35Z</time>
      </trkpt>
      <trkpt lat="42.732732" lon="-2.751036">
        <ele>533.023</ele>
        <time>2022-07-03T15:09:36Z</time>
      </trkpt>
      <trkpt lat="42.732768" lon="-2.750981">
        <ele>532.983</ele>
        <time>2022-07-03T15:09:37Z</time>
      </trkpt>
      <trkpt lat="42.732812" lon="-2.750929">
        <ele>532.711</ele>
        <time>2022-07-03T15:09:38Z</time>
      </trkpt>
      <trkpt lat="42.732856" lon="-2.750891">
        <ele>532.609</ele>
        <time>2022-07-03T15:09:39Z</time>
      </trkpt>
      <trkpt lat="42.732897" lon="-2.750837">
        <ele>532.623</ele>
        <time>2022-07-03T15:09:40Z</time>
      </trkpt>
      <trkpt lat="42.732933" lon="-2.750777">
        <ele>532.592</ele>
        <time>2022-07-03T15:09:41Z</time>
      </trkpt>
      <trkpt lat="42.732967" lon="-2.750728">
        <ele>532.479</ele>
        <time>2022-07-03T15:09:42Z</time>
      </trkpt>
      <trkpt lat="42.733006" lon="-2.750685">
        <ele>532.462</ele>
        <time>2022-07-03T15:09:43Z</time>
      </trkpt>
      <trkpt lat="42.733032" lon="-2.750631">
        <ele>532.433</ele>
        <time>2022-07-03T15:09:44Z</time>
      </trkpt>
      <trkpt lat="42.733068" lon="-2.750575">
        <ele>532.499</ele>
        <time>2022-07-03T15:09:45Z</time>
      </trkpt>
      <trkpt lat="42.733099" lon="-2.750515">
        <ele>532.412</ele>
        <time>2022-07-03T15:09:46Z</time>
      </trkpt>
      <trkpt lat="42.733137" lon="-2.750460">
        <ele>532.381</ele>
        <time>2022-07-03T15:09:47Z</time>
      </trkpt>
      <trkpt lat="42.733172" lon="-2.750405">
        <ele>532.391</ele>
        <time>2022-07-03T15:09:48Z</time>
      </trkpt>
      <trkpt lat="42.733200" lon="-2.750356">
        <ele>532.399</ele>
        <time>2022-07-03T15:09:49Z</time>
      </trkpt>
      <trkpt lat="42.733234" lon="-2.750313">
        <ele>532.307</ele>
        <time>2022-07-03T15:09:50Z</time>
      </trkpt>
      <trkpt lat="42.733268" lon="-2.750251">
        <ele>532.327</ele>
        <time>2022-07-03T15:09:51Z</time>
      </trkpt>
      <trkpt lat="42.733296" lon="-2.750197">
        <ele>532.309</ele>
        <time>2022-07-03T15:09:52Z</time>
      </trkpt>
      <trkpt lat="42.733328" lon="-2.750153">
        <ele>532.380</ele>
        <time>2022-07-03T15:09:53Z</time>
      </trkpt>
      <trkpt lat="42.733363" lon="-2.750109">
        <ele>532.389</ele>
        <time>2022-07-03T15:09:54Z</time>
      </trkpt>
      <trkpt lat="42.733401" lon="-2.750059">
        <ele>532.386</ele>
        <time>2022-07-03T15:09:55Z</time>
      </trkpt>
      <trkpt lat="42.733466" lon="-2.749991">
        <ele>532.569</ele>
        <time>2022-07-03T15:09:57Z</time>
      </trkpt>
      <trkpt lat="42.733507" lon="-2.749950">
        <ele>532.540</ele>
        <time>2022-07-03T15:09:58Z</time>
      </trkpt>
      <trkpt lat="42.733554" lon="-2.749884">
        <ele>532.956</ele>
        <time>2022-07-03T15:10:00Z</time>
      </trkpt>
      <trkpt lat="42.733580" lon="-2.749832">
        <ele>533.089</ele>
        <time>2022-07-03T15:10:01Z</time>
      </trkpt>
      <trkpt lat="42.733633" lon="-2.749750">
        <ele>533.398</ele>
        <time>2022-07-03T15:10:03Z</time>
      </trkpt>
      <trkpt lat="42.733687" lon="-2.749673">
        <ele>533.868</ele>
        <time>2022-07-03T15:10:05Z</time>
      </trkpt>
      <trkpt lat="42.733739" lon="-2.749602">
        <ele>534.431</ele>
        <time>2022-07-03T15:10:07Z</time>
      </trkpt>
      <trkpt lat="42.733788" lon="-2.749526">
        <ele>535.061</ele>
        <time>2022-07-03T15:10:09Z</time>
      </trkpt>
      <trkpt lat="42.733835" lon="-2.749459">
        <ele>535.507</ele>
        <time>2022-07-03T15:10:11Z</time>
      </trkpt>
      <trkpt lat="42.733875" lon="-2.749403">
        <ele>536.009</ele>
        <time>2022-07-03T15:10:13Z</time>
      </trkpt>
      <trkpt lat="42.733907" lon="-2.749356">
        <ele>536.344</ele>
        <time>2022-07-03T15:10:15Z</time>
      </trkpt>
      <trkpt lat="42.733939" lon="-2.749305">
        <ele>536.573</ele>
        <time>2022-07-03T15:10:18Z</time>
      </trkpt>
      <trkpt lat="42.733975" lon="-2.749344">
        <ele>536.780</ele>
        <time>2022-07-03T15:10:22Z</time>
      </trkpt>
      <trkpt lat="42.733922" lon="-2.749416">
        <ele>537.123</ele>
        <time>2022-07-03T15:10:24Z</time>
      </trkpt>
      <trkpt lat="42.733854" lon="-2.749497">
        <ele>537.794</ele>
        <time>2022-07-03T15:10:26Z</time>
      </trkpt>
      <trkpt lat="42.733821" lon="-2.749541">
        <ele>537.750</ele>
        <time>2022-07-03T15:10:27Z</time>
      </trkpt>
      <trkpt lat="42.733788" lon="-2.749586">
        <ele>537.773</ele>
        <time>2022-07-03T15:10:28Z</time>
      </trkpt>
      <trkpt lat="42.733733" lon="-2.749668">
        <ele>537.782</ele>
        <time>2022-07-03T15:10:30Z</time>
      </trkpt>
      <trkpt lat="42.733714" lon="-2.749740">
        <ele>537.522</ele>
        <time>2022-07-03T15:10:32Z</time>
      </trkpt>
      <trkpt lat="42.733718" lon="-2.749807">
        <ele>536.971</ele>
        <time>2022-07-03T15:10:34Z</time>
      </trkpt>
      <trkpt lat="42.733741" lon="-2.749750">
        <ele>536.241</ele>
        <time>2022-07-03T15:12:42Z</time>
      </trkpt>
      <trkpt lat="42.733757" lon="-2.749682">
        <ele>535.615</ele>
        <time>2022-07-03T15:12:44Z</time>
      </trkpt>
      <trkpt lat="42.733770" lon="-2.749598">
        <ele>535.809</ele>
        <time>2022-07-03T15:12:46Z</time>
      </trkpt>
      <trkpt lat="42.733806" lon="-2.749515">
        <ele>535.698</ele>
        <time>2022-07-03T15:12:48Z</time>
      </trkpt>
      <trkpt lat="42.733858" lon="-2.749442">
        <ele>536.197</ele>
        <time>2022-07-03T15:12:50Z</time>
      </trkpt>
      <trkpt lat="42.733911" lon="-2.749373">
        <ele>536.854</ele>
        <time>2022-07-03T15:12:52Z</time>
      </trkpt>
      <trkpt lat="42.733959" lon="-2.749299">
        <ele>537.247</ele>
        <time>2022-07-03T15:12:54Z</time>
      </trkpt>
      <trkpt lat="42.734000" lon="-2.749219">
        <ele>537.788</ele>
        <time>2022-07-03T15:12:56Z</time>
      </trkpt>
      <trkpt lat="42.734035" lon="-2.749137">
        <ele>538.284</ele>
        <time>2022-07-03T15:12:58Z</time>
      </trkpt>
      <trkpt lat="42.734066" lon="-2.749044">
        <ele>538.737</ele>
        <time>2022-07-03T15:13:00Z</time>
      </trkpt>
      <trkpt lat="42.734099" lon="-2.748946">
        <ele>539.266</ele>
        <time>2022-07-03T15:13:02Z</time>
      </trkpt>
      <trkpt lat="42.734115" lon="-2.748862">
        <ele>539.836</ele>
        <time>2022-07-03T15:13:04Z</time>
      </trkpt>
      <trkpt lat="42.734131" lon="-2.748783">
        <ele>540.449</ele>
        <time>2022-07-03T15:13:06Z</time>
      </trkpt>
      <trkpt lat="42.734162" lon="-2.748738">
        <ele>540.702</ele>
        <time>2022-07-03T15:13:08Z</time>
      </trkpt>
      <trkpt lat="42.734204" lon="-2.748708">
        <ele>541.122</ele>
        <time>2022-07-03T15:13:10Z</time>
      </trkpt>
      <trkpt lat="42.734259" lon="-2.748704">
        <ele>541.409</ele>
        <time>2022-07-03T15:13:13Z</time>
      </trkpt>
      <trkpt lat="42.734304" lon="-2.748713">
        <ele>541.635</ele>
        <time>2022-07-03T15:13:16Z</time>
      </trkpt>
      <trkpt lat="42.734354" lon="-2.748763">
        <ele>542.154</ele>
        <time>2022-07-03T15:13:19Z</time>
      </trkpt>
      <trkpt lat="42.734394" lon="-2.748803">
        <ele>542.731</ele>
        <time>2022-07-03T15:13:21Z</time>
      </trkpt>
      <trkpt lat="42.734448" lon="-2.748830">
        <ele>543.934</ele>
        <time>2022-07-03T15:13:24Z</time>
      </trkpt>
      <trkpt lat="42.734483" lon="-2.748868">
        <ele>544.275</ele>
        <time>2022-07-03T15:13:27Z</time>
      </trkpt>
      <trkpt lat="42.734508" lon="-2.748919">
        <ele>545.131</ele>
        <time>2022-07-03T15:13:29Z</time>
      </trkpt>
      <trkpt lat="42.734545" lon="-2.748983">
        <ele>546.134</ele>
        <time>2022-07-03T15:13:32Z</time>
      </trkpt>
      <trkpt lat="42.734596" lon="-2.748999">
        <ele>546.893</ele>
        <time>2022-07-03T15:13:35Z</time>
      </trkpt>
      <trkpt lat="42.734652" lon="-2.749004">
        <ele>547.513</ele>
        <time>2022-07-03T15:13:38Z</time>
      </trkpt>
      <trkpt lat="42.734709" lon="-2.749031">
        <ele>548.654</ele>
        <time>2022-07-03T15:13:41Z</time>
      </trkpt>
      <trkpt lat="42.734766" lon="-2.749038">
        <ele>549.556</ele>
        <time>2022-07-03T15:13:44Z</time>
      </trkpt>
      <trkpt lat="42.734820" lon="-2.749054">
        <ele>550.511</ele>
        <time>2022-07-03T15:13:47Z</time>
      </trkpt>
      <trkpt lat="42.734867" lon="-2.749030">
        <ele>551.909</ele>
        <time>2022-07-03T15:13:50Z</time>
      </trkpt>
      <trkpt lat="42.734924" lon="-2.749043">
        <ele>552.866</ele>
        <time>2022-07-03T15:13:53Z</time>
      </trkpt>
      <trkpt lat="42.734979" lon="-2.749067">
        <ele>553.845</ele>
        <time>2022-07-03T15:13:56Z</time>
      </trkpt>
      <trkpt lat="42.735023" lon="-2.749031">
        <ele>554.522</ele>
        <time>2022-07-03T15:14:00Z</time>
      </trkpt>
      <trkpt lat="42.735039" lon="-2.748946">
        <ele>555.085</ele>
        <time>2022-07-03T15:14:03Z</time>
      </trkpt>
      <trkpt lat="42.735038" lon="-2.748883">
        <ele>555.736</ele>
        <time>2022-07-03T15:14:05Z</time>
      </trkpt>
      <trkpt lat="42.735038" lon="-2.748822">
        <ele>555.922</ele>
        <time>2022-07-03T15:14:07Z</time>
      </trkpt>
      <trkpt lat="42.735030" lon="-2.748738">
        <ele>556.255</ele>
        <time>2022-07-03T15:14:10Z</time>
      </trkpt>
      <trkpt lat="42.735018" lon="-2.748655">
        <ele>556.954</ele>
        <time>2022-07-03T15:14:13Z</time>
      </trkpt>
      <trkpt lat="42.734997" lon="-2.748571">
        <ele>557.854</ele>
        <time>2022-07-03T15:14:16Z</time>
      </trkpt>
      <trkpt lat="42.734986" lon="-2.748511">
        <ele>558.388</ele>
        <time>2022-07-03T15:14:18Z</time>
      </trkpt>
      <trkpt lat="42.734980" lon="-2.748444">
        <ele>558.724</ele>
        <time>2022-07-03T15:14:20Z</time>
      </trkpt>
      <trkpt lat="42.734970" lon="-2.748370">
        <ele>559.026</ele>
        <time>2022-07-03T15:14:22Z</time>
      </trkpt>
      <trkpt lat="42.734953" lon="-2.748311">
        <ele>559.109</ele>
        <time>2022-07-03T15:14:24Z</time>
      </trkpt>
      <trkpt lat="42.734929" lon="-2.748258">
        <ele>559.329</ele>
        <time>2022-07-03T15:14:27Z</time>
      </trkpt>
      <trkpt lat="42.734912" lon="-2.748178">
        <ele>559.528</ele>
        <time>2022-07-03T15:14:30Z</time>
      </trkpt>
      <trkpt lat="42.734909" lon="-2.748107">
        <ele>559.775</ele>
        <time>2022-07-03T15:14:32Z</time>
      </trkpt>
      <trkpt lat="42.734904" lon="-2.748030">
        <ele>559.918</ele>
        <time>2022-07-03T15:14:34Z</time>
      </trkpt>
      <trkpt lat="42.734890" lon="-2.747943">
        <ele>560.179</ele>
        <time>2022-07-03T15:14:37Z</time>
      </trkpt>
      <trkpt lat="42.734891" lon="-2.747875">
        <ele>560.265</ele>
        <time>2022-07-03T15:14:39Z</time>
      </trkpt>
      <trkpt lat="42.734894" lon="-2.747806">
        <ele>560.318</ele>
        <time>2022-07-03T15:14:41Z</time>
      </trkpt>
      <trkpt lat="42.734893" lon="-2.747726">
        <ele>560.547</ele>
        <time>2022-07-03T15:14:43Z</time>
      </trkpt>
      <trkpt lat="42.734887" lon="-2.747652">
        <ele>560.717</ele>
        <time>2022-07-03T15:14:45Z</time>
      </trkpt>
      <trkpt lat="42.734862" lon="-2.747595">
        <ele>560.859</ele>
        <time>2022-07-03T15:14:47Z</time>
      </trkpt>
      <trkpt lat="42.734834" lon="-2.747546">
        <ele>561.003</ele>
        <time>2022-07-03T15:14:50Z</time>
      </trkpt>
      <trkpt lat="42.734828" lon="-2.747467">
        <ele>561.323</ele>
        <time>2022-07-03T15:14:55Z</time>
      </trkpt>
      <trkpt lat="42.734820" lon="-2.747380">
        <ele>562.109</ele>
        <time>2022-07-03T15:14:57Z</time>
      </trkpt>
      <trkpt lat="42.734826" lon="-2.747303">
        <ele>562.416</ele>
        <time>2022-07-03T15:14:59Z</time>
      </trkpt>
      <trkpt lat="42.734839" lon="-2.747223">
        <ele>562.645</ele>
        <time>2022-07-03T15:15:02Z</time>
      </trkpt>
      <trkpt lat="42.734869" lon="-2.747149">
        <ele>562.782</ele>
        <time>2022-07-03T15:15:06Z</time>
      </trkpt>
      <trkpt lat="42.734880" lon="-2.747089">
        <ele>562.825</ele>
        <time>2022-07-03T15:15:09Z</time>
      </trkpt>
      <trkpt lat="42.734873" lon="-2.747027">
        <ele>562.876</ele>
        <time>2022-07-03T15:15:12Z</time>
      </trkpt>
      <trkpt lat="42.734850" lon="-2.746973">
        <ele>562.862</ele>
        <time>2022-07-03T15:15:27Z</time>
      </trkpt>
      <trkpt lat="42.734828" lon="-2.746908">
        <ele>562.935</ele>
        <time>2022-07-03T15:15:32Z</time>
      </trkpt>
      <trkpt lat="42.734815" lon="-2.746834">
        <ele>563.224</ele>
        <time>2022-07-03T15:15:36Z</time>
      </trkpt>
      <trkpt lat="42.734806" lon="-2.746772">
        <ele>563.594</ele>
        <time>2022-07-03T15:15:39Z</time>
      </trkpt>
      <trkpt lat="42.734794" lon="-2.746712">
        <ele>563.875</ele>
        <time>2022-07-03T15:15:41Z</time>
      </trkpt>
      <trkpt lat="42.734780" lon="-2.746649">
        <ele>564.228</ele>
        <time>2022-07-03T15:15:43Z</time>
      </trkpt>
      <trkpt lat="42.734771" lon="-2.746540">
        <ele>564.920</ele>
        <time>2022-07-03T15:15:45Z</time>
      </trkpt>
      <trkpt lat="42.734781" lon="-2.746477">
        <ele>565.009</ele>
        <time>2022-07-03T15:15:46Z</time>
      </trkpt>
      <trkpt lat="42.734787" lon="-2.746412">
        <ele>565.548</ele>
        <time>2022-07-03T15:15:47Z</time>
      </trkpt>
      <trkpt lat="42.734805" lon="-2.746356">
        <ele>565.697</ele>
        <time>2022-07-03T15:15:48Z</time>
      </trkpt>
      <trkpt lat="42.734844" lon="-2.746299">
        <ele>565.764</ele>
        <time>2022-07-03T15:15:50Z</time>
      </trkpt>
      <trkpt lat="42.734877" lon="-2.746242">
        <ele>565.857</ele>
        <time>2022-07-03T15:15:52Z</time>
      </trkpt>
      <trkpt lat="42.734895" lon="-2.746157">
        <ele>566.018</ele>
        <time>2022-07-03T15:15:54Z</time>
      </trkpt>
      <trkpt lat="42.734916" lon="-2.746061">
        <ele>566.064</ele>
        <time>2022-07-03T15:15:56Z</time>
      </trkpt>
      <trkpt lat="42.734946" lon="-2.745954">
        <ele>566.337</ele>
        <time>2022-07-03T15:15:58Z</time>
      </trkpt>
      <trkpt lat="42.734981" lon="-2.745854">
        <ele>566.796</ele>
        <time>2022-07-03T15:16:00Z</time>
      </trkpt>
      <trkpt lat="42.735019" lon="-2.745765">
        <ele>567.256</ele>
        <time>2022-07-03T15:16:02Z</time>
      </trkpt>
      <trkpt lat="42.735046" lon="-2.745683">
        <ele>567.967</ele>
        <time>2022-07-03T15:16:04Z</time>
      </trkpt>
      <trkpt lat="42.735051" lon="-2.745591">
        <ele>568.681</ele>
        <time>2022-07-03T15:16:06Z</time>
      </trkpt>
      <trkpt lat="42.735030" lon="-2.745500">
        <ele>569.019</ele>
        <time>2022-07-03T15:16:08Z</time>
      </trkpt>
      <trkpt lat="42.734994" lon="-2.745413">
        <ele>569.109</ele>
        <time>2022-07-03T15:16:10Z</time>
      </trkpt>
      <trkpt lat="42.734975" lon="-2.745332">
        <ele>569.147</ele>
        <time>2022-07-03T15:16:12Z</time>
      </trkpt>
      <trkpt lat="42.734971" lon="-2.745258">
        <ele>569.186</ele>
        <time>2022-07-03T15:16:14Z</time>
      </trkpt>
      <trkpt lat="42.734957" lon="-2.745171">
        <ele>568.893</ele>
        <time>2022-07-03T15:16:16Z</time>
      </trkpt>
      <trkpt lat="42.734943" lon="-2.745062">
        <ele>568.866</ele>
        <time>2022-07-03T15:16:18Z</time>
      </trkpt>
      <trkpt lat="42.734940" lon="-2.744987">
        <ele>568.837</ele>
        <time>2022-07-03T15:16:20Z</time>
      </trkpt>
      <trkpt lat="42.734950" lon="-2.744891">
        <ele>569.643</ele>
        <time>2022-07-03T15:16:23Z</time>
      </trkpt>
      <trkpt lat="42.734994" lon="-2.744802">
        <ele>570.236</ele>
        <time>2022-07-03T15:16:25Z</time>
      </trkpt>
      <trkpt lat="42.735035" lon="-2.744759">
        <ele>570.515</ele>
        <time>2022-07-03T15:16:27Z</time>
      </trkpt>
      <trkpt lat="42.735060" lon="-2.744698">
        <ele>570.535</ele>
        <time>2022-07-03T15:16:29Z</time>
      </trkpt>
      <trkpt lat="42.735057" lon="-2.744631">
        <ele>570.791</ele>
        <time>2022-07-03T15:16:31Z</time>
      </trkpt>
      <trkpt lat="42.735077" lon="-2.744564">
        <ele>571.081</ele>
        <time>2022-07-03T15:16:33Z</time>
      </trkpt>
      <trkpt lat="42.735143" lon="-2.744537">
        <ele>571.319</ele>
        <time>2022-07-03T15:16:35Z</time>
      </trkpt>
      <trkpt lat="42.735209" lon="-2.744527">
        <ele>571.509</ele>
        <time>2022-07-03T15:16:37Z</time>
      </trkpt>
      <trkpt lat="42.735255" lon="-2.744507">
        <ele>571.610</ele>
        <time>2022-07-03T15:16:39Z</time>
      </trkpt>
      <trkpt lat="42.735299" lon="-2.744481">
        <ele>571.979</ele>
        <time>2022-07-03T15:16:41Z</time>
      </trkpt>
      <trkpt lat="42.735343" lon="-2.744436">
        <ele>572.566</ele>
        <time>2022-07-03T15:16:44Z</time>
      </trkpt>
      <trkpt lat="42.735385" lon="-2.744383">
        <ele>573.029</ele>
        <time>2022-07-03T15:16:47Z</time>
      </trkpt>
      <trkpt lat="42.735423" lon="-2.744319">
        <ele>573.370</ele>
        <time>2022-07-03T15:16:50Z</time>
      </trkpt>
      <trkpt lat="42.735460" lon="-2.744254">
        <ele>574.726</ele>
        <time>2022-07-03T15:16:53Z</time>
      </trkpt>
      <trkpt lat="42.735499" lon="-2.744190">
        <ele>576.049</ele>
        <time>2022-07-03T15:16:57Z</time>
      </trkpt>
      <trkpt lat="42.735524" lon="-2.744133">
        <ele>576.938</ele>
        <time>2022-07-03T15:16:59Z</time>
      </trkpt>
      <trkpt lat="42.735564" lon="-2.744061">
        <ele>577.778</ele>
        <time>2022-07-03T15:17:02Z</time>
      </trkpt>
      <trkpt lat="42.735604" lon="-2.743995">
        <ele>578.467</ele>
        <time>2022-07-03T15:17:05Z</time>
      </trkpt>
      <trkpt lat="42.735642" lon="-2.743929">
        <ele>579.881</ele>
        <time>2022-07-03T15:17:08Z</time>
      </trkpt>
      <trkpt lat="42.735683" lon="-2.743859">
        <ele>581.019</ele>
        <time>2022-07-03T15:17:11Z</time>
      </trkpt>
      <trkpt lat="42.735732" lon="-2.743806">
        <ele>582.009</ele>
        <time>2022-07-03T15:17:14Z</time>
      </trkpt>
      <trkpt lat="42.735787" lon="-2.743762">
        <ele>583.237</ele>
        <time>2022-07-03T15:17:17Z</time>
      </trkpt>
      <trkpt lat="42.735843" lon="-2.743725">
        <ele>584.386</ele>
        <time>2022-07-03T15:17:20Z</time>
      </trkpt>
      <trkpt lat="42.735895" lon="-2.743706">
        <ele>585.233</ele>
        <time>2022-07-03T15:17:23Z</time>
      </trkpt>
      <trkpt lat="42.735948" lon="-2.743668">
        <ele>585.916</ele>
        <time>2022-07-03T15:17:26Z</time>
      </trkpt>
      <trkpt lat="42.736000" lon="-2.743617">
        <ele>586.777</ele>
        <time>2022-07-03T15:17:29Z</time>
      </trkpt>
      <trkpt lat="42.736050" lon="-2.743582">
        <ele>587.843</ele>
        <time>2022-07-03T15:17:32Z</time>
      </trkpt>
      <trkpt lat="42.736094" lon="-2.743563">
        <ele>588.476</ele>
        <time>2022-07-03T15:17:35Z</time>
      </trkpt>
      <trkpt lat="42.736142" lon="-2.743519">
        <ele>589.465</ele>
        <time>2022-07-03T15:17:38Z</time>
      </trkpt>
      <trkpt lat="42.736193" lon="-2.743481">
        <ele>590.265</ele>
        <time>2022-07-03T15:17:41Z</time>
      </trkpt>
      <trkpt lat="42.736249" lon="-2.743431">
        <ele>590.768</ele>
        <time>2022-07-03T15:17:44Z</time>
      </trkpt>
      <trkpt lat="42.736289" lon="-2.743399">
        <ele>590.842</ele>
        <time>2022-07-03T15:17:46Z</time>
      </trkpt>
      <trkpt lat="42.736338" lon="-2.743368">
        <ele>591.226</ele>
        <time>2022-07-03T15:17:49Z</time>
      </trkpt>
      <trkpt lat="42.736394" lon="-2.743327">
        <ele>591.809</ele>
        <time>2022-07-03T15:17:52Z</time>
      </trkpt>
      <trkpt lat="42.736458" lon="-2.743298">
        <ele>592.427</ele>
        <time>2022-07-03T15:17:55Z</time>
      </trkpt>
      <trkpt lat="42.736502" lon="-2.743285">
        <ele>593.176</ele>
        <time>2022-07-03T15:17:57Z</time>
      </trkpt>
      <trkpt lat="42.736568" lon="-2.743307">
        <ele>593.843</ele>
        <time>2022-07-03T15:18:00Z</time>
      </trkpt>
      <trkpt lat="42.736612" lon="-2.743333">
        <ele>594.286</ele>
        <time>2022-07-03T15:18:02Z</time>
      </trkpt>
      <trkpt lat="42.736676" lon="-2.743359">
        <ele>594.637</ele>
        <time>2022-07-03T15:18:05Z</time>
      </trkpt>
      <trkpt lat="42.736719" lon="-2.743377">
        <ele>594.943</ele>
        <time>2022-07-03T15:18:07Z</time>
      </trkpt>
      <trkpt lat="42.736763" lon="-2.743393">
        <ele>595.166</ele>
        <time>2022-07-03T15:18:09Z</time>
      </trkpt>
      <trkpt lat="42.736830" lon="-2.743408">
        <ele>595.185</ele>
        <time>2022-07-03T15:18:12Z</time>
      </trkpt>
      <trkpt lat="42.736876" lon="-2.743414">
        <ele>595.295</ele>
        <time>2022-07-03T15:18:14Z</time>
      </trkpt>
      <trkpt lat="42.736928" lon="-2.743419">
        <ele>595.351</ele>
        <time>2022-07-03T15:18:16Z</time>
      </trkpt>
      <trkpt lat="42.736978" lon="-2.743424">
        <ele>595.501</ele>
        <time>2022-07-03T15:18:18Z</time>
      </trkpt>
      <trkpt lat="42.737032" lon="-2.743428">
        <ele>595.811</ele>
        <time>2022-07-03T15:18:20Z</time>
      </trkpt>
      <trkpt lat="42.737090" lon="-2.743438">
        <ele>596.009</ele>
        <time>2022-07-03T15:18:22Z</time>
      </trkpt>
      <trkpt lat="42.737156" lon="-2.743442">
        <ele>596.436</ele>
        <time>2022-07-03T15:18:24Z</time>
      </trkpt>
      <trkpt lat="42.737232" lon="-2.743443">
        <ele>596.675</ele>
        <time>2022-07-03T15:18:26Z</time>
      </trkpt>
      <trkpt lat="42.737312" lon="-2.743434">
        <ele>596.662</ele>
        <time>2022-07-03T15:18:28Z</time>
      </trkpt>
      <trkpt lat="42.737385" lon="-2.743417">
        <ele>596.615</ele>
        <time>2022-07-03T15:18:30Z</time>
      </trkpt>
      <trkpt lat="42.737452" lon="-2.743418">
        <ele>596.736</ele>
        <time>2022-07-03T15:18:32Z</time>
      </trkpt>
      <trkpt lat="42.737512" lon="-2.743431">
        <ele>596.892</ele>
        <time>2022-07-03T15:18:34Z</time>
      </trkpt>
      <trkpt lat="42.737569" lon="-2.743443">
        <ele>596.845</ele>
        <time>2022-07-03T15:18:36Z</time>
      </trkpt>
      <trkpt lat="42.737628" lon="-2.743454">
        <ele>596.974</ele>
        <time>2022-07-03T15:18:38Z</time>
      </trkpt>
      <trkpt lat="42.737690" lon="-2.743468">
        <ele>597.024</ele>
        <time>2022-07-03T15:18:40Z</time>
      </trkpt>
      <trkpt lat="42.737751" lon="-2.743484">
        <ele>597.221</ele>
        <time>2022-07-03T15:18:42Z</time>
      </trkpt>
      <trkpt lat="42.737808" lon="-2.743499">
        <ele>597.641</ele>
        <time>2022-07-03T15:18:44Z</time>
      </trkpt>
      <trkpt lat="42.737864" lon="-2.743513">
        <ele>598.105</ele>
        <time>2022-07-03T15:18:46Z</time>
      </trkpt>
      <trkpt lat="42.737917" lon="-2.743534">
        <ele>598.209</ele>
        <time>2022-07-03T15:18:48Z</time>
      </trkpt>
      <trkpt lat="42.737973" lon="-2.743558">
        <ele>598.243</ele>
        <time>2022-07-03T15:18:50Z</time>
      </trkpt>
      <trkpt lat="42.738033" lon="-2.743572">
        <ele>598.422</ele>
        <time>2022-07-03T15:18:52Z</time>
      </trkpt>
      <trkpt lat="42.738099" lon="-2.743571">
        <ele>598.699</ele>
        <time>2022-07-03T15:18:54Z</time>
      </trkpt>
      <trkpt lat="42.738175" lon="-2.743556">
        <ele>598.712</ele>
        <time>2022-07-03T15:18:56Z</time>
      </trkpt>
      <trkpt lat="42.738257" lon="-2.743517">
        <ele>598.823</ele>
        <time>2022-07-03T15:18:58Z</time>
      </trkpt>
      <trkpt lat="42.738292" lon="-2.743457">
        <ele>598.869</ele>
        <time>2022-07-03T15:18:59Z</time>
      </trkpt>
      <trkpt lat="42.738371" lon="-2.743402">
        <ele>598.892</ele>
        <time>2022-07-03T15:19:01Z</time>
      </trkpt>
      <trkpt lat="42.738413" lon="-2.743378">
        <ele>598.741</ele>
        <time>2022-07-03T15:19:02Z</time>
      </trkpt>
      <trkpt lat="42.738499" lon="-2.743347">
        <ele>598.761</ele>
        <time>2022-07-03T15:19:04Z</time>
      </trkpt>
      <trkpt lat="42.738586" lon="-2.743340">
        <ele>598.576</ele>
        <time>2022-07-03T15:19:06Z</time>
      </trkpt>
      <trkpt lat="42.738667" lon="-2.743345">
        <ele>598.290</ele>
        <time>2022-07-03T15:19:08Z</time>
      </trkpt>
      <trkpt lat="42.738754" lon="-2.743343">
        <ele>597.819</ele>
        <time>2022-07-03T15:19:10Z</time>
      </trkpt>
      <trkpt lat="42.738840" lon="-2.743344">
        <ele>597.309</ele>
        <time>2022-07-03T15:19:12Z</time>
      </trkpt>
      <trkpt lat="42.738885" lon="-2.743340">
        <ele>596.848</ele>
        <time>2022-07-03T15:19:13Z</time>
      </trkpt>
      <trkpt lat="42.738973" lon="-2.743338">
        <ele>596.467</ele>
        <time>2022-07-03T15:19:15Z</time>
      </trkpt>
      <trkpt lat="42.739061" lon="-2.743334">
        <ele>596.074</ele>
        <time>2022-07-03T15:19:17Z</time>
      </trkpt>
      <trkpt lat="42.739145" lon="-2.743321">
        <ele>595.877</ele>
        <time>2022-07-03T15:19:19Z</time>
      </trkpt>
      <trkpt lat="42.739225" lon="-2.743293">
        <ele>595.878</ele>
        <time>2022-07-03T15:19:21Z</time>
      </trkpt>
      <trkpt lat="42.739297" lon="-2.743249">
        <ele>595.694</ele>
        <time>2022-07-03T15:19:23Z</time>
      </trkpt>
      <trkpt lat="42.739364" lon="-2.743193">
        <ele>595.417</ele>
        <time>2022-07-03T15:19:25Z</time>
      </trkpt>
      <trkpt lat="42.739430" lon="-2.743120">
        <ele>595.286</ele>
        <time>2022-07-03T15:19:27Z</time>
      </trkpt>
      <trkpt lat="42.739493" lon="-2.743035">
        <ele>595.276</ele>
        <time>2022-07-03T15:19:29Z</time>
      </trkpt>
      <trkpt lat="42.739554" lon="-2.742958">
        <ele>595.223</ele>
        <time>2022-07-03T15:19:31Z</time>
      </trkpt>
      <trkpt lat="42.739618" lon="-2.742898">
        <ele>595.483</ele>
        <time>2022-07-03T15:19:33Z</time>
      </trkpt>
      <trkpt lat="42.739682" lon="-2.742858">
        <ele>595.811</ele>
        <time>2022-07-03T15:19:35Z</time>
      </trkpt>
      <trkpt lat="42.739747" lon="-2.742840">
        <ele>596.409</ele>
        <time>2022-07-03T15:19:37Z</time>
      </trkpt>
      <trkpt lat="42.739811" lon="-2.742835">
        <ele>597.013</ele>
        <time>2022-07-03T15:19:39Z</time>
      </trkpt>
      <trkpt lat="42.739875" lon="-2.742825">
        <ele>597.352</ele>
        <time>2022-07-03T15:19:41Z</time>
      </trkpt>
      <trkpt lat="42.739938" lon="-2.742809">
        <ele>597.699</ele>
        <time>2022-07-03T15:19:43Z</time>
      </trkpt>
      <trkpt lat="42.740004" lon="-2.742788">
        <ele>597.692</ele>
        <time>2022-07-03T15:19:45Z</time>
      </trkpt>
      <trkpt lat="42.740074" lon="-2.742770">
        <ele>597.633</ele>
        <time>2022-07-03T15:19:47Z</time>
      </trkpt>
      <trkpt lat="42.740144" lon="-2.742742">
        <ele>597.549</ele>
        <time>2022-07-03T15:19:49Z</time>
      </trkpt>
      <trkpt lat="42.740210" lon="-2.742690">
        <ele>597.512</ele>
        <time>2022-07-03T15:19:51Z</time>
      </trkpt>
      <trkpt lat="42.740269" lon="-2.742615">
        <ele>597.531</ele>
        <time>2022-07-03T15:19:53Z</time>
      </trkpt>
      <trkpt lat="42.740311" lon="-2.742526">
        <ele>597.531</ele>
        <time>2022-07-03T15:19:55Z</time>
      </trkpt>
      <trkpt lat="42.740342" lon="-2.742429">
        <ele>597.537</ele>
        <time>2022-07-03T15:19:57Z</time>
      </trkpt>
      <trkpt lat="42.740371" lon="-2.742334">
        <ele>597.649</ele>
        <time>2022-07-03T15:19:59Z</time>
      </trkpt>
      <trkpt lat="42.740406" lon="-2.742248">
        <ele>597.713</ele>
        <time>2022-07-03T15:20:01Z</time>
      </trkpt>
      <trkpt lat="42.740448" lon="-2.742166">
        <ele>597.909</ele>
        <time>2022-07-03T15:20:03Z</time>
      </trkpt>
      <trkpt lat="42.740499" lon="-2.742090">
        <ele>598.264</ele>
        <time>2022-07-03T15:20:05Z</time>
      </trkpt>
      <trkpt lat="42.740559" lon="-2.742021">
        <ele>598.733</ele>
        <time>2022-07-03T15:20:07Z</time>
      </trkpt>
      <trkpt lat="42.740618" lon="-2.741949">
        <ele>599.040</ele>
        <time>2022-07-03T15:20:09Z</time>
      </trkpt>
      <trkpt lat="42.740677" lon="-2.741877">
        <ele>599.193</ele>
        <time>2022-07-03T15:20:11Z</time>
      </trkpt>
      <trkpt lat="42.740739" lon="-2.741813">
        <ele>599.144</ele>
        <time>2022-07-03T15:20:13Z</time>
      </trkpt>
      <trkpt lat="42.740800" lon="-2.741755">
        <ele>599.280</ele>
        <time>2022-07-03T15:20:15Z</time>
      </trkpt>
      <trkpt lat="42.740862" lon="-2.741699">
        <ele>599.513</ele>
        <time>2022-07-03T15:20:17Z</time>
      </trkpt>
      <trkpt lat="42.740928" lon="-2.741649">
        <ele>599.772</ele>
        <time>2022-07-03T15:20:19Z</time>
      </trkpt>
      <trkpt lat="42.740995" lon="-2.741602">
        <ele>599.742</ele>
        <time>2022-07-03T15:20:21Z</time>
      </trkpt>
      <trkpt lat="42.741059" lon="-2.741552">
        <ele>599.752</ele>
        <time>2022-07-03T15:20:23Z</time>
      </trkpt>
      <trkpt lat="42.741118" lon="-2.741500">
        <ele>599.753</ele>
        <time>2022-07-03T15:20:25Z</time>
      </trkpt>
      <trkpt lat="42.741177" lon="-2.741453">
        <ele>599.708</ele>
        <time>2022-07-03T15:20:27Z</time>
      </trkpt>
      <trkpt lat="42.741234" lon="-2.741411">
        <ele>599.909</ele>
        <time>2022-07-03T15:20:29Z</time>
      </trkpt>
      <trkpt lat="42.741286" lon="-2.741368">
        <ele>600.076</ele>
        <time>2022-07-03T15:20:31Z</time>
      </trkpt>
      <trkpt lat="42.741332" lon="-2.741317">
        <ele>600.265</ele>
        <time>2022-07-03T15:20:33Z</time>
      </trkpt>
      <trkpt lat="42.741380" lon="-2.741260">
        <ele>600.552</ele>
        <time>2022-07-03T15:20:35Z</time>
      </trkpt>
      <trkpt lat="42.741429" lon="-2.741209">
        <ele>600.825</ele>
        <time>2022-07-03T15:20:37Z</time>
      </trkpt>
      <trkpt lat="42.741478" lon="-2.741162">
        <ele>601.096</ele>
        <time>2022-07-03T15:20:39Z</time>
      </trkpt>
      <trkpt lat="42.741512" lon="-2.741119">
        <ele>601.232</ele>
        <time>2022-07-03T15:20:41Z</time>
      </trkpt>
      <trkpt lat="42.741562" lon="-2.741139">
        <ele>601.285</ele>
        <time>2022-07-03T15:22:37Z</time>
      </trkpt>
      <trkpt lat="42.741622" lon="-2.741152">
        <ele>601.234</ele>
        <time>2022-07-03T15:22:40Z</time>
      </trkpt>
      <trkpt lat="42.741681" lon="-2.741140">
        <ele>600.884</ele>
        <time>2022-07-03T15:22:42Z</time>
      </trkpt>
      <trkpt lat="42.741746" lon="-2.741138">
        <ele>600.864</ele>
        <time>2022-07-03T15:22:44Z</time>
      </trkpt>
      <trkpt lat="42.741814" lon="-2.741141">
        <ele>600.806</ele>
        <time>2022-07-03T15:22:46Z</time>
      </trkpt>
      <trkpt lat="42.741889" lon="-2.741145">
        <ele>601.116</ele>
        <time>2022-07-03T15:22:48Z</time>
      </trkpt>
      <trkpt lat="42.741968" lon="-2.741147">
        <ele>601.309</ele>
        <time>2022-07-03T15:22:50Z</time>
      </trkpt>
      <trkpt lat="42.742042" lon="-2.741139">
        <ele>601.537</ele>
        <time>2022-07-03T15:22:52Z</time>
      </trkpt>
      <trkpt lat="42.742103" lon="-2.741128">
        <ele>601.896</ele>
        <time>2022-07-03T15:22:54Z</time>
      </trkpt>
      <trkpt lat="42.742193" lon="-2.741100">
        <ele>602.313</ele>
        <time>2022-07-03T15:22:56Z</time>
      </trkpt>
      <trkpt lat="42.742237" lon="-2.741079">
        <ele>602.876</ele>
        <time>2022-07-03T15:22:57Z</time>
      </trkpt>
      <trkpt lat="42.742303" lon="-2.741045">
        <ele>602.947</ele>
        <time>2022-07-03T15:22:58Z</time>
      </trkpt>
      <trkpt lat="42.742362" lon="-2.741037">
        <ele>602.923</ele>
        <time>2022-07-03T15:22:59Z</time>
      </trkpt>
      <trkpt lat="42.742431" lon="-2.741036">
        <ele>602.926</ele>
        <time>2022-07-03T15:23:00Z</time>
      </trkpt>
      <trkpt lat="42.742496" lon="-2.741038">
        <ele>602.945</ele>
        <time>2022-07-03T15:23:01Z</time>
      </trkpt>
      <trkpt lat="42.742544" lon="-2.741031">
        <ele>602.975</ele>
        <time>2022-07-03T15:23:02Z</time>
      </trkpt>
      <trkpt lat="42.742593" lon="-2.741020">
        <ele>602.995</ele>
        <time>2022-07-03T15:23:03Z</time>
      </trkpt>
      <trkpt lat="42.742660" lon="-2.741012">
        <ele>602.949</ele>
        <time>2022-07-03T15:23:04Z</time>
      </trkpt>
      <trkpt lat="42.742718" lon="-2.741001">
        <ele>602.823</ele>
        <time>2022-07-03T15:23:05Z</time>
      </trkpt>
      <trkpt lat="42.742786" lon="-2.740982">
        <ele>602.509</ele>
        <time>2022-07-03T15:23:06Z</time>
      </trkpt>
      <trkpt lat="42.742855" lon="-2.740960">
        <ele>601.950</ele>
        <time>2022-07-03T15:23:07Z</time>
      </trkpt>
      <trkpt lat="42.742926" lon="-2.740930">
        <ele>601.249</ele>
        <time>2022-07-03T15:23:08Z</time>
      </trkpt>
      <trkpt lat="42.743003" lon="-2.740886">
        <ele>600.666</ele>
        <time>2022-07-03T15:23:09Z</time>
      </trkpt>
      <trkpt lat="42.743070" lon="-2.740835">
        <ele>599.949</ele>
        <time>2022-07-03T15:23:10Z</time>
      </trkpt>
      <trkpt lat="42.743139" lon="-2.740800">
        <ele>599.280</ele>
        <time>2022-07-03T15:23:11Z</time>
      </trkpt>
      <trkpt lat="42.743207" lon="-2.740752">
        <ele>598.676</ele>
        <time>2022-07-03T15:23:12Z</time>
      </trkpt>
      <trkpt lat="42.743279" lon="-2.740715">
        <ele>598.219</ele>
        <time>2022-07-03T15:23:13Z</time>
      </trkpt>
      <trkpt lat="42.743352" lon="-2.740653">
        <ele>597.768</ele>
        <time>2022-07-03T15:23:14Z</time>
      </trkpt>
      <trkpt lat="42.743433" lon="-2.740597">
        <ele>597.238</ele>
        <time>2022-07-03T15:23:15Z</time>
      </trkpt>
      <trkpt lat="42.743509" lon="-2.740548">
        <ele>596.965</ele>
        <time>2022-07-03T15:23:16Z</time>
      </trkpt>
      <trkpt lat="42.743585" lon="-2.740501">
        <ele>596.268</ele>
        <time>2022-07-03T15:23:17Z</time>
      </trkpt>
      <trkpt lat="42.743657" lon="-2.740410">
        <ele>595.314</ele>
        <time>2022-07-03T15:23:18Z</time>
      </trkpt>
      <trkpt lat="42.743722" lon="-2.740361">
        <ele>594.409</ele>
        <time>2022-07-03T15:23:19Z</time>
      </trkpt>
      <trkpt lat="42.743801" lon="-2.740311">
        <ele>593.327</ele>
        <time>2022-07-03T15:23:20Z</time>
      </trkpt>
      <trkpt lat="42.743863" lon="-2.740280">
        <ele>592.376</ele>
        <time>2022-07-03T15:23:21Z</time>
      </trkpt>
      <trkpt lat="42.743943" lon="-2.740257">
        <ele>591.693</ele>
        <time>2022-07-03T15:23:22Z</time>
      </trkpt>
      <trkpt lat="42.744017" lon="-2.740244">
        <ele>591.126</ele>
        <time>2022-07-03T15:23:23Z</time>
      </trkpt>
      <trkpt lat="42.744092" lon="-2.740239">
        <ele>590.797</ele>
        <time>2022-07-03T15:23:24Z</time>
      </trkpt>
      <trkpt lat="42.744148" lon="-2.740235">
        <ele>590.353</ele>
        <time>2022-07-03T15:23:25Z</time>
      </trkpt>
      <trkpt lat="42.744209" lon="-2.740243">
        <ele>590.196</ele>
        <time>2022-07-03T15:23:26Z</time>
      </trkpt>
      <trkpt lat="42.744266" lon="-2.740221">
        <ele>590.025</ele>
        <time>2022-07-03T15:23:27Z</time>
      </trkpt>
      <trkpt lat="42.744327" lon="-2.740202">
        <ele>590.085</ele>
        <time>2022-07-03T15:23:28Z</time>
      </trkpt>
      <trkpt lat="42.744381" lon="-2.740180">
        <ele>589.754</ele>
        <time>2022-07-03T15:23:29Z</time>
      </trkpt>
      <trkpt lat="42.744437" lon="-2.740155">
        <ele>589.556</ele>
        <time>2022-07-03T15:23:30Z</time>
      </trkpt>
      <trkpt lat="42.744504" lon="-2.740129">
        <ele>589.211</ele>
        <time>2022-07-03T15:23:31Z</time>
      </trkpt>
      <trkpt lat="42.744559" lon="-2.740032">
        <ele>589.209</ele>
        <time>2022-07-03T15:23:33Z</time>
      </trkpt>
      <trkpt lat="42.744573" lon="-2.739964">
        <ele>589.216</ele>
        <time>2022-07-03T15:23:34Z</time>
      </trkpt>
      <trkpt lat="42.744581" lon="-2.739898">
        <ele>589.235</ele>
        <time>2022-07-03T15:23:35Z</time>
      </trkpt>
      <trkpt lat="42.744562" lon="-2.739834">
        <ele>589.332</ele>
        <time>2022-07-03T15:23:36Z</time>
      </trkpt>
      <trkpt lat="42.744551" lon="-2.739772">
        <ele>589.495</ele>
        <time>2022-07-03T15:23:37Z</time>
      </trkpt>
      <trkpt lat="42.744521" lon="-2.739654">
        <ele>589.496</ele>
        <time>2022-07-03T15:23:39Z</time>
      </trkpt>
      <trkpt lat="42.744506" lon="-2.739591">
        <ele>589.582</ele>
        <time>2022-07-03T15:23:40Z</time>
      </trkpt>
      <trkpt lat="42.744491" lon="-2.739530">
        <ele>589.545</ele>
        <time>2022-07-03T15:23:41Z</time>
      </trkpt>
      <trkpt lat="42.744461" lon="-2.739408">
        <ele>589.554</ele>
        <time>2022-07-03T15:23:43Z</time>
      </trkpt>
      <trkpt lat="42.744460" lon="-2.739337">
        <ele>589.584</ele>
        <time>2022-07-03T15:23:44Z</time>
      </trkpt>
      <trkpt lat="42.744444" lon="-2.739273">
        <ele>589.836</ele>
        <time>2022-07-03T15:23:45Z</time>
      </trkpt>
      <trkpt lat="42.744427" lon="-2.739207">
        <ele>590.017</ele>
        <time>2022-07-03T15:23:46Z</time>
      </trkpt>
      <trkpt lat="42.744414" lon="-2.739138">
        <ele>590.018</ele>
        <time>2022-07-03T15:23:47Z</time>
      </trkpt>
      <trkpt lat="42.744399" lon="-2.739075">
        <ele>590.009</ele>
        <time>2022-07-03T15:23:48Z</time>
      </trkpt>
      <trkpt lat="42.744386" lon="-2.739008">
        <ele>590.154</ele>
        <time>2022-07-03T15:23:49Z</time>
      </trkpt>
      <trkpt lat="42.744373" lon="-2.738944">
        <ele>590.373</ele>
        <time>2022-07-03T15:23:50Z</time>
      </trkpt>
      <trkpt lat="42.744358" lon="-2.738861">
        <ele>590.430</ele>
        <time>2022-07-03T15:23:51Z</time>
      </trkpt>
      <trkpt lat="42.744345" lon="-2.738790">
        <ele>590.433</ele>
        <time>2022-07-03T15:23:52Z</time>
      </trkpt>
      <trkpt lat="42.744326" lon="-2.738733">
        <ele>590.414</ele>
        <time>2022-07-03T15:23:53Z</time>
      </trkpt>
      <trkpt lat="42.744313" lon="-2.738660">
        <ele>590.450</ele>
        <time>2022-07-03T15:23:54Z</time>
      </trkpt>
      <trkpt lat="42.744298" lon="-2.738578">
        <ele>590.413</ele>
        <time>2022-07-03T15:23:55Z</time>
      </trkpt>
      <trkpt lat="42.744282" lon="-2.738516">
        <ele>590.572</ele>
        <time>2022-07-03T15:23:56Z</time>
      </trkpt>
      <trkpt lat="42.744257" lon="-2.738401">
        <ele>590.892</ele>
        <time>2022-07-03T15:23:58Z</time>
      </trkpt>
      <trkpt lat="42.744253" lon="-2.738330">
        <ele>590.937</ele>
        <time>2022-07-03T15:23:59Z</time>
      </trkpt>
      <trkpt lat="42.744240" lon="-2.738259">
        <ele>590.949</ele>
        <time>2022-07-03T15:24:00Z</time>
      </trkpt>
      <trkpt lat="42.744219" lon="-2.738187">
        <ele>590.913</ele>
        <time>2022-07-03T15:24:01Z</time>
      </trkpt>
      <trkpt lat="42.744204" lon="-2.738112">
        <ele>591.009</ele>
        <time>2022-07-03T15:24:02Z</time>
      </trkpt>
      <trkpt lat="42.744176" lon="-2.737990">
        <ele>591.344</ele>
        <time>2022-07-03T15:24:04Z</time>
      </trkpt>
      <trkpt lat="42.744158" lon="-2.737926">
        <ele>591.823</ele>
        <time>2022-07-03T15:24:05Z</time>
      </trkpt>
      <trkpt lat="42.744143" lon="-2.737861">
        <ele>592.490</ele>
        <time>2022-07-03T15:24:06Z</time>
      </trkpt>
      <trkpt lat="42.744136" lon="-2.737790">
        <ele>592.673</ele>
        <time>2022-07-03T15:24:07Z</time>
      </trkpt>
      <trkpt lat="42.744123" lon="-2.737723">
        <ele>592.844</ele>
        <time>2022-07-03T15:24:08Z</time>
      </trkpt>
      <trkpt lat="42.744098" lon="-2.737623">
        <ele>592.810</ele>
        <time>2022-07-03T15:24:10Z</time>
      </trkpt>
      <trkpt lat="42.744085" lon="-2.737537">
        <ele>592.853</ele>
        <time>2022-07-03T15:24:11Z</time>
      </trkpt>
      <trkpt lat="42.744066" lon="-2.737480">
        <ele>592.992</ele>
        <time>2022-07-03T15:24:12Z</time>
      </trkpt>
      <trkpt lat="42.744026" lon="-2.737408">
        <ele>592.992</ele>
        <time>2022-07-03T15:24:15Z</time>
      </trkpt>
      <trkpt lat="42.744004" lon="-2.737315">
        <ele>592.981</ele>
        <time>2022-07-03T15:24:17Z</time>
      </trkpt>
      <trkpt lat="42.743985" lon="-2.737225">
        <ele>593.061</ele>
        <time>2022-07-03T15:24:19Z</time>
      </trkpt>
      <trkpt lat="42.743969" lon="-2.737121">
        <ele>593.317</ele>
        <time>2022-07-03T15:24:21Z</time>
      </trkpt>
      <trkpt lat="42.743935" lon="-2.737038">
        <ele>593.709</ele>
        <time>2022-07-03T15:24:23Z</time>
      </trkpt>
      <trkpt lat="42.743912" lon="-2.736979">
        <ele>593.969</ele>
        <time>2022-07-03T15:24:24Z</time>
      </trkpt>
      <trkpt lat="42.743893" lon="-2.736919">
        <ele>594.248</ele>
        <time>2022-07-03T15:24:25Z</time>
      </trkpt>
      <trkpt lat="42.743879" lon="-2.736857">
        <ele>594.495</ele>
        <time>2022-07-03T15:24:26Z</time>
      </trkpt>
      <trkpt lat="42.743864" lon="-2.736745">
        <ele>594.628</ele>
        <time>2022-07-03T15:24:28Z</time>
      </trkpt>
      <trkpt lat="42.743856" lon="-2.736646">
        <ele>594.999</ele>
        <time>2022-07-03T15:24:30Z</time>
      </trkpt>
      <trkpt lat="42.743836" lon="-2.736548">
        <ele>595.585</ele>
        <time>2022-07-03T15:24:32Z</time>
      </trkpt>
      <trkpt lat="42.743816" lon="-2.736493">
        <ele>595.928</ele>
        <time>2022-07-03T15:24:33Z</time>
      </trkpt>
      <trkpt lat="42.743764" lon="-2.736416">
        <ele>596.197</ele>
        <time>2022-07-03T15:24:35Z</time>
      </trkpt>
      <trkpt lat="42.743710" lon="-2.736334">
        <ele>596.327</ele>
        <time>2022-07-03T15:24:37Z</time>
      </trkpt>
      <trkpt lat="42.743708" lon="-2.736254">
        <ele>596.425</ele>
        <time>2022-07-03T15:24:38Z</time>
      </trkpt>
      <trkpt lat="42.743755" lon="-2.736178">
        <ele>596.526</ele>
        <time>2022-07-03T15:24:40Z</time>
      </trkpt>
      <trkpt lat="42.743770" lon="-2.736118">
        <ele>596.508</ele>
        <time>2022-07-03T15:24:41Z</time>
      </trkpt>
      <trkpt lat="42.743819" lon="-2.736028">
        <ele>596.609</ele>
        <time>2022-07-03T15:24:43Z</time>
      </trkpt>
      <trkpt lat="42.743849" lon="-2.735973">
        <ele>596.823</ele>
        <time>2022-07-03T15:24:44Z</time>
      </trkpt>
      <trkpt lat="42.743922" lon="-2.735888">
        <ele>597.272</ele>
        <time>2022-07-03T15:24:46Z</time>
      </trkpt>
      <trkpt lat="42.743953" lon="-2.735842">
        <ele>597.499</ele>
        <time>2022-07-03T15:24:47Z</time>
      </trkpt>
      <trkpt lat="42.744048" lon="-2.735767">
        <ele>597.552</ele>
        <time>2022-07-03T15:24:48Z</time>
      </trkpt>
      <trkpt lat="42.744092" lon="-2.735716">
        <ele>597.543</ele>
        <time>2022-07-03T15:24:49Z</time>
      </trkpt>
      <trkpt lat="42.744133" lon="-2.735636">
        <ele>597.569</ele>
        <time>2022-07-03T15:24:51Z</time>
      </trkpt>
      <trkpt lat="42.744163" lon="-2.735587">
        <ele>597.482</ele>
        <time>2022-07-03T15:24:52Z</time>
      </trkpt>
      <trkpt lat="42.744196" lon="-2.735540">
        <ele>597.341</ele>
        <time>2022-07-03T15:24:53Z</time>
      </trkpt>
      <trkpt lat="42.744235" lon="-2.735481">
        <ele>597.361</ele>
        <time>2022-07-03T15:24:55Z</time>
      </trkpt>
      <trkpt lat="42.744271" lon="-2.735441">
        <ele>597.364</ele>
        <time>2022-07-03T15:24:56Z</time>
      </trkpt>
      <trkpt lat="42.744332" lon="-2.735412">
        <ele>597.306</ele>
        <time>2022-07-03T15:24:58Z</time>
      </trkpt>
      <trkpt lat="42.744386" lon="-2.735395">
        <ele>597.316</ele>
        <time>2022-07-03T15:25:00Z</time>
      </trkpt>
      <trkpt lat="42.744493" lon="-2.735346">
        <ele>597.509</ele>
        <time>2022-07-03T15:25:02Z</time>
      </trkpt>
      <trkpt lat="42.744580" lon="-2.735345">
        <ele>597.647</ele>
        <time>2022-07-03T15:25:04Z</time>
      </trkpt>
      <trkpt lat="42.744632" lon="-2.735342">
        <ele>597.686</ele>
        <time>2022-07-03T15:25:05Z</time>
      </trkpt>
      <trkpt lat="42.744705" lon="-2.735335">
        <ele>597.643</ele>
        <time>2022-07-03T15:25:07Z</time>
      </trkpt>
      <trkpt lat="42.744782" lon="-2.735339">
        <ele>597.656</ele>
        <time>2022-07-03T15:25:09Z</time>
      </trkpt>
      <trkpt lat="42.744841" lon="-2.735339">
        <ele>597.687</ele>
        <time>2022-07-03T15:25:10Z</time>
      </trkpt>
      <trkpt lat="42.744893" lon="-2.735333">
        <ele>597.793</ele>
        <time>2022-07-03T15:25:12Z</time>
      </trkpt>
      <trkpt lat="42.744954" lon="-2.735357">
        <ele>597.846</ele>
        <time>2022-07-03T15:25:14Z</time>
      </trkpt>
      <trkpt lat="42.745006" lon="-2.735361">
        <ele>598.155</ele>
        <time>2022-07-03T15:25:16Z</time>
      </trkpt>
      <trkpt lat="42.745057" lon="-2.735360">
        <ele>598.595</ele>
        <time>2022-07-03T15:25:18Z</time>
      </trkpt>
      <trkpt lat="42.745110" lon="-2.735357">
        <ele>599.282</ele>
        <time>2022-07-03T15:25:20Z</time>
      </trkpt>
      <trkpt lat="42.745180" lon="-2.735372">
        <ele>599.843</ele>
        <time>2022-07-03T15:25:22Z</time>
      </trkpt>
      <trkpt lat="42.745240" lon="-2.735377">
        <ele>600.417</ele>
        <time>2022-07-03T15:25:24Z</time>
      </trkpt>
      <trkpt lat="42.745295" lon="-2.735372">
        <ele>601.109</ele>
        <time>2022-07-03T15:25:26Z</time>
      </trkpt>
      <trkpt lat="42.745342" lon="-2.735360">
        <ele>601.939</ele>
        <time>2022-07-03T15:25:28Z</time>
      </trkpt>
      <trkpt lat="42.745395" lon="-2.735333">
        <ele>602.778</ele>
        <time>2022-07-03T15:25:31Z</time>
      </trkpt>
      <trkpt lat="42.745442" lon="-2.735291">
        <ele>603.425</ele>
        <time>2022-07-03T15:25:34Z</time>
      </trkpt>
      <trkpt lat="42.745502" lon="-2.735254">
        <ele>604.148</ele>
        <time>2022-07-03T15:25:37Z</time>
      </trkpt>
      <trkpt lat="42.745549" lon="-2.735229">
        <ele>604.979</ele>
        <time>2022-07-03T15:25:39Z</time>
      </trkpt>
      <trkpt lat="42.745611" lon="-2.735210">
        <ele>605.525</ele>
        <time>2022-07-03T15:25:41Z</time>
      </trkpt>
      <trkpt lat="42.745670" lon="-2.735194">
        <ele>605.828</ele>
        <time>2022-07-03T15:25:43Z</time>
      </trkpt>
      <trkpt lat="42.745727" lon="-2.735169">
        <ele>605.817</ele>
        <time>2022-07-03T15:25:45Z</time>
      </trkpt>
      <trkpt lat="42.745795" lon="-2.735143">
        <ele>605.997</ele>
        <time>2022-07-03T15:25:47Z</time>
      </trkpt>
      <trkpt lat="42.745860" lon="-2.735111">
        <ele>605.971</ele>
        <time>2022-07-03T15:25:49Z</time>
      </trkpt>
      <trkpt lat="42.745903" lon="-2.735079">
        <ele>605.941</ele>
        <time>2022-07-03T15:25:51Z</time>
      </trkpt>
      <trkpt lat="42.745940" lon="-2.735043">
        <ele>605.715</ele>
        <time>2022-07-03T15:25:53Z</time>
      </trkpt>
      <trkpt lat="42.745981" lon="-2.734986">
        <ele>605.609</ele>
        <time>2022-07-03T15:25:55Z</time>
      </trkpt>
      <trkpt lat="42.746018" lon="-2.734935">
        <ele>605.678</ele>
        <time>2022-07-03T15:25:57Z</time>
      </trkpt>
      <trkpt lat="42.746062" lon="-2.734899">
        <ele>605.677</ele>
        <time>2022-07-03T15:25:59Z</time>
      </trkpt>
      <trkpt lat="42.746114" lon="-2.734868">
        <ele>605.794</ele>
        <time>2022-07-03T15:26:01Z</time>
      </trkpt>
      <trkpt lat="42.746185" lon="-2.734827">
        <ele>606.047</ele>
        <time>2022-07-03T15:26:04Z</time>
      </trkpt>
      <trkpt lat="42.746364" lon="-2.734758">
        <ele>606.228</ele>
        <time>2022-07-03T15:26:06Z</time>
      </trkpt>
      <trkpt lat="42.746426" lon="-2.734721">
        <ele>606.394</ele>
        <time>2022-07-03T15:26:08Z</time>
      </trkpt>
      <trkpt lat="42.746488" lon="-2.734673">
        <ele>606.317</ele>
        <time>2022-07-03T15:26:10Z</time>
      </trkpt>
      <trkpt lat="42.746533" lon="-2.734656">
        <ele>606.396</ele>
        <time>2022-07-03T15:26:11Z</time>
      </trkpt>
      <trkpt lat="42.746589" lon="-2.734596">
        <ele>606.376</ele>
        <time>2022-07-03T15:26:13Z</time>
      </trkpt>
      <trkpt lat="42.746641" lon="-2.734548">
        <ele>606.483</ele>
        <time>2022-07-03T15:26:15Z</time>
      </trkpt>
      <trkpt lat="42.746681" lon="-2.734506">
        <ele>606.625</ele>
        <time>2022-07-03T15:26:17Z</time>
      </trkpt>
      <trkpt lat="42.746757" lon="-2.734447">
        <ele>607.217</ele>
        <time>2022-07-03T15:26:19Z</time>
      </trkpt>
      <trkpt lat="42.746806" lon="-2.734399">
        <ele>607.409</ele>
        <time>2022-07-03T15:26:21Z</time>
      </trkpt>
      <trkpt lat="42.746830" lon="-2.734342">
        <ele>607.539</ele>
        <time>2022-07-03T15:26:24Z</time>
      </trkpt>
      <trkpt lat="42.746892" lon="-2.734295">
        <ele>607.858</ele>
        <time>2022-07-03T15:26:26Z</time>
      </trkpt>
      <trkpt lat="42.746951" lon="-2.734252">
        <ele>608.455</ele>
        <time>2022-07-03T15:26:28Z</time>
      </trkpt>
      <trkpt lat="42.747003" lon="-2.734198">
        <ele>608.788</ele>
        <time>2022-07-03T15:26:30Z</time>
      </trkpt>
      <trkpt lat="42.747044" lon="-2.734154">
        <ele>608.869</ele>
        <time>2022-07-03T15:26:32Z</time>
      </trkpt>
      <trkpt lat="42.747076" lon="-2.734102">
        <ele>609.285</ele>
        <time>2022-07-03T15:26:35Z</time>
      </trkpt>
      <trkpt lat="42.747109" lon="-2.734043">
        <ele>609.498</ele>
        <time>2022-07-03T15:26:38Z</time>
      </trkpt>
      <trkpt lat="42.747141" lon="-2.733979">
        <ele>610.117</ele>
        <time>2022-07-03T15:26:41Z</time>
      </trkpt>
      <trkpt lat="42.747174" lon="-2.733929">
        <ele>610.497</ele>
        <time>2022-07-03T15:26:43Z</time>
      </trkpt>
      <trkpt lat="42.747206" lon="-2.733879">
        <ele>610.982</ele>
        <time>2022-07-03T15:26:45Z</time>
      </trkpt>
      <trkpt lat="42.747250" lon="-2.733809">
        <ele>611.443</ele>
        <time>2022-07-03T15:26:48Z</time>
      </trkpt>
      <trkpt lat="42.747281" lon="-2.733750">
        <ele>611.817</ele>
        <time>2022-07-03T15:26:50Z</time>
      </trkpt>
      <trkpt lat="42.747315" lon="-2.733700">
        <ele>612.209</ele>
        <time>2022-07-03T15:26:52Z</time>
      </trkpt>
      <trkpt lat="42.747360" lon="-2.733645">
        <ele>613.249</ele>
        <time>2022-07-03T15:26:54Z</time>
      </trkpt>
      <trkpt lat="42.747393" lon="-2.733597">
        <ele>614.288</ele>
        <time>2022-07-03T15:26:56Z</time>
      </trkpt>
      <trkpt lat="42.747421" lon="-2.733544">
        <ele>614.515</ele>
        <time>2022-07-03T15:26:58Z</time>
      </trkpt>
      <trkpt lat="42.747448" lon="-2.733491">
        <ele>614.968</ele>
        <time>2022-07-03T15:27:00Z</time>
      </trkpt>
      <trkpt lat="42.747470" lon="-2.733430">
        <ele>615.189</ele>
        <time>2022-07-03T15:27:02Z</time>
      </trkpt>
      <trkpt lat="42.747493" lon="-2.733366">
        <ele>615.215</ele>
        <time>2022-07-03T15:27:04Z</time>
      </trkpt>
      <trkpt lat="42.747537" lon="-2.733291">
        <ele>615.428</ele>
        <time>2022-07-03T15:27:07Z</time>
      </trkpt>
      <trkpt lat="42.747593" lon="-2.733245">
        <ele>615.837</ele>
        <time>2022-07-03T15:27:10Z</time>
      </trkpt>
      <trkpt lat="42.747643" lon="-2.733242">
        <ele>616.447</ele>
        <time>2022-07-03T15:27:12Z</time>
      </trkpt>
      <trkpt lat="42.747715" lon="-2.733239">
        <ele>616.944</ele>
        <time>2022-07-03T15:27:16Z</time>
      </trkpt>
      <trkpt lat="42.747778" lon="-2.733227">
        <ele>617.605</ele>
        <time>2022-07-03T15:27:19Z</time>
      </trkpt>
      <trkpt lat="42.747831" lon="-2.733219">
        <ele>618.715</ele>
        <time>2022-07-03T15:27:22Z</time>
      </trkpt>
      <trkpt lat="42.747883" lon="-2.733177">
        <ele>619.609</ele>
        <time>2022-07-03T15:27:27Z</time>
      </trkpt>
      <trkpt lat="42.747906" lon="-2.733120">
        <ele>620.125</ele>
        <time>2022-07-03T15:27:31Z</time>
      </trkpt>
      <trkpt lat="42.747946" lon="-2.733058">
        <ele>622.014</ele>
        <time>2022-07-03T15:27:34Z</time>
      </trkpt>
      <trkpt lat="42.747982" lon="-2.732979">
        <ele>623.141</ele>
        <time>2022-07-03T15:27:37Z</time>
      </trkpt>
      <trkpt lat="42.748000" lon="-2.732913">
        <ele>623.674</ele>
        <time>2022-07-03T15:27:39Z</time>
      </trkpt>
      <trkpt lat="42.748013" lon="-2.732841">
        <ele>624.385</ele>
        <time>2022-07-03T15:27:41Z</time>
      </trkpt>
      <trkpt lat="42.748016" lon="-2.732779">
        <ele>624.761</ele>
        <time>2022-07-03T15:27:43Z</time>
      </trkpt>
      <trkpt lat="42.748015" lon="-2.732709">
        <ele>624.854</ele>
        <time>2022-07-03T15:27:45Z</time>
      </trkpt>
      <trkpt lat="42.748017" lon="-2.732634">
        <ele>625.053</ele>
        <time>2022-07-03T15:27:47Z</time>
      </trkpt>
      <trkpt lat="42.748021" lon="-2.732548">
        <ele>625.533</ele>
        <time>2022-07-03T15:27:50Z</time>
      </trkpt>
      <trkpt lat="42.748028" lon="-2.732459">
        <ele>626.346</ele>
        <time>2022-07-03T15:27:53Z</time>
      </trkpt>
      <trkpt lat="42.748036" lon="-2.732366">
        <ele>626.588</ele>
        <time>2022-07-03T15:27:56Z</time>
      </trkpt>
      <trkpt lat="42.748046" lon="-2.732297">
        <ele>627.016</ele>
        <time>2022-07-03T15:27:58Z</time>
      </trkpt>
      <trkpt lat="42.748053" lon="-2.732229">
        <ele>627.409</ele>
        <time>2022-07-03T15:28:00Z</time>
      </trkpt>
      <trkpt lat="42.748055" lon="-2.732166">
        <ele>627.435</ele>
        <time>2022-07-03T15:28:02Z</time>
      </trkpt>
      <trkpt lat="42.748059" lon="-2.732086">
        <ele>627.784</ele>
        <time>2022-07-03T15:28:04Z</time>
      </trkpt>
      <trkpt lat="42.748064" lon="-2.731997">
        <ele>627.911</ele>
        <time>2022-07-03T15:28:06Z</time>
      </trkpt>
      <trkpt lat="42.748062" lon="-2.731917">
        <ele>628.324</ele>
        <time>2022-07-03T15:28:08Z</time>
      </trkpt>
      <trkpt lat="42.748059" lon="-2.731843">
        <ele>628.595</ele>
        <time>2022-07-03T15:28:10Z</time>
      </trkpt>
      <trkpt lat="42.748060" lon="-2.731772">
        <ele>628.791</ele>
        <time>2022-07-03T15:28:12Z</time>
      </trkpt>
      <trkpt lat="42.748060" lon="-2.731704">
        <ele>628.764</ele>
        <time>2022-07-03T15:28:14Z</time>
      </trkpt>
      <trkpt lat="42.748061" lon="-2.731638">
        <ele>628.963</ele>
        <time>2022-07-03T15:28:16Z</time>
      </trkpt>
      <trkpt lat="42.748064" lon="-2.731566">
        <ele>629.233</ele>
        <time>2022-07-03T15:28:18Z</time>
      </trkpt>
      <trkpt lat="42.748063" lon="-2.731498">
        <ele>629.322</ele>
        <time>2022-07-03T15:28:20Z</time>
      </trkpt>
      <trkpt lat="42.748062" lon="-2.731428">
        <ele>629.562</ele>
        <time>2022-07-03T15:28:22Z</time>
      </trkpt>
      <trkpt lat="42.748063" lon="-2.731363">
        <ele>629.808</ele>
        <time>2022-07-03T15:28:24Z</time>
      </trkpt>
      <trkpt lat="42.748063" lon="-2.731275">
        <ele>630.009</ele>
        <time>2022-07-03T15:28:27Z</time>
      </trkpt>
      <trkpt lat="42.748064" lon="-2.731186">
        <ele>630.183</ele>
        <time>2022-07-03T15:28:30Z</time>
      </trkpt>
      <trkpt lat="42.748065" lon="-2.731124">
        <ele>630.512</ele>
        <time>2022-07-03T15:28:32Z</time>
      </trkpt>
      <trkpt lat="42.748065" lon="-2.731033">
        <ele>631.279</ele>
        <time>2022-07-03T15:28:35Z</time>
      </trkpt>
      <trkpt lat="42.748067" lon="-2.730971">
        <ele>631.762</ele>
        <time>2022-07-03T15:28:37Z</time>
      </trkpt>
      <trkpt lat="42.748069" lon="-2.730905">
        <ele>632.383</ele>
        <time>2022-07-03T15:28:39Z</time>
      </trkpt>
      <trkpt lat="42.748070" lon="-2.730842">
        <ele>632.649</ele>
        <time>2022-07-03T15:28:41Z</time>
      </trkpt>
      <trkpt lat="42.748072" lon="-2.730779">
        <ele>633.182</ele>
        <time>2022-07-03T15:28:43Z</time>
      </trkpt>
      <trkpt lat="42.748080" lon="-2.730711">
        <ele>633.541</ele>
        <time>2022-07-03T15:28:45Z</time>
      </trkpt>
      <trkpt lat="42.748101" lon="-2.730626">
        <ele>633.911</ele>
        <time>2022-07-03T15:28:48Z</time>
      </trkpt>
      <trkpt lat="42.748136" lon="-2.730557">
        <ele>634.437</ele>
        <time>2022-07-03T15:28:51Z</time>
      </trkpt>
      <trkpt lat="42.748180" lon="-2.730489">
        <ele>634.449</ele>
        <time>2022-07-03T15:28:54Z</time>
      </trkpt>
      <trkpt lat="42.748207" lon="-2.730438">
        <ele>635.213</ele>
        <time>2022-07-03T15:28:56Z</time>
      </trkpt>
      <trkpt lat="42.748232" lon="-2.730381">
        <ele>636.609</ele>
        <time>2022-07-03T15:28:58Z</time>
      </trkpt>
      <trkpt lat="42.748265" lon="-2.730305">
        <ele>637.084</ele>
        <time>2022-07-03T15:29:01Z</time>
      </trkpt>
      <trkpt lat="42.748291" lon="-2.730247">
        <ele>637.393</ele>
        <time>2022-07-03T15:29:03Z</time>
      </trkpt>
      <trkpt lat="42.748320" lon="-2.730181">
        <ele>637.330</ele>
        <time>2022-07-03T15:29:05Z</time>
      </trkpt>
      <trkpt lat="42.748356" lon="-2.730111">
        <ele>637.593</ele>
        <time>2022-07-03T15:29:07Z</time>
      </trkpt>
      <trkpt lat="42.748402" lon="-2.730038">
        <ele>637.714</ele>
        <time>2022-07-03T15:29:09Z</time>
      </trkpt>
      <trkpt lat="42.748452" lon="-2.729972">
        <ele>637.710</ele>
        <time>2022-07-03T15:29:11Z</time>
      </trkpt>
      <trkpt lat="42.748508" lon="-2.729904">
        <ele>637.813</ele>
        <time>2022-07-03T15:29:13Z</time>
      </trkpt>
      <trkpt lat="42.748562" lon="-2.729840">
        <ele>638.022</ele>
        <time>2022-07-03T15:29:15Z</time>
      </trkpt>
      <trkpt lat="42.748614" lon="-2.729768">
        <ele>638.292</ele>
        <time>2022-07-03T15:29:17Z</time>
      </trkpt>
      <trkpt lat="42.748663" lon="-2.729698">
        <ele>638.329</ele>
        <time>2022-07-03T15:29:19Z</time>
      </trkpt>
      <trkpt lat="42.748709" lon="-2.729628">
        <ele>638.400</ele>
        <time>2022-07-03T15:29:21Z</time>
      </trkpt>
      <trkpt lat="42.748751" lon="-2.729557">
        <ele>638.620</ele>
        <time>2022-07-03T15:29:23Z</time>
      </trkpt>
      <trkpt lat="42.748798" lon="-2.729485">
        <ele>639.009</ele>
        <time>2022-07-03T15:29:25Z</time>
      </trkpt>
      <trkpt lat="42.748848" lon="-2.729415">
        <ele>639.433</ele>
        <time>2022-07-03T15:29:27Z</time>
      </trkpt>
      <trkpt lat="42.748941" lon="-2.729333">
        <ele>639.422</ele>
        <time>2022-07-03T15:29:29Z</time>
      </trkpt>
      <trkpt lat="42.748980" lon="-2.729291">
        <ele>639.339</ele>
        <time>2022-07-03T15:29:30Z</time>
      </trkpt>
      <trkpt lat="42.749027" lon="-2.729248">
        <ele>639.142</ele>
        <time>2022-07-03T15:29:31Z</time>
      </trkpt>
      <trkpt lat="42.749077" lon="-2.729206">
        <ele>639.173</ele>
        <time>2022-07-03T15:29:32Z</time>
      </trkpt>
      <trkpt lat="42.749129" lon="-2.729156">
        <ele>639.159</ele>
        <time>2022-07-03T15:29:33Z</time>
      </trkpt>
      <trkpt lat="42.749187" lon="-2.729099">
        <ele>639.162</ele>
        <time>2022-07-03T15:29:34Z</time>
      </trkpt>
      <trkpt lat="42.749243" lon="-2.729039">
        <ele>638.371</ele>
        <time>2022-07-03T15:29:35Z</time>
      </trkpt>
      <trkpt lat="42.749294" lon="-2.728969">
        <ele>638.181</ele>
        <time>2022-07-03T15:29:36Z</time>
      </trkpt>
      <trkpt lat="42.749325" lon="-2.728886">
        <ele>637.625</ele>
        <time>2022-07-03T15:29:37Z</time>
      </trkpt>
      <trkpt lat="42.749349" lon="-2.728798">
        <ele>637.226</ele>
        <time>2022-07-03T15:29:38Z</time>
      </trkpt>
      <trkpt lat="42.749350" lon="-2.728721">
        <ele>637.208</ele>
        <time>2022-07-03T15:29:39Z</time>
      </trkpt>
      <trkpt lat="42.749346" lon="-2.728656">
        <ele>636.509</ele>
        <time>2022-07-03T15:29:40Z</time>
      </trkpt>
      <trkpt lat="42.749339" lon="-2.728582">
        <ele>636.363</ele>
        <time>2022-07-03T15:29:41Z</time>
      </trkpt>
      <trkpt lat="42.749336" lon="-2.728514">
        <ele>636.082</ele>
        <time>2022-07-03T15:29:42Z</time>
      </trkpt>
      <trkpt lat="42.749343" lon="-2.728451">
        <ele>635.939</ele>
        <time>2022-07-03T15:29:43Z</time>
      </trkpt>
      <trkpt lat="42.749354" lon="-2.728390">
        <ele>635.832</ele>
        <time>2022-07-03T15:29:44Z</time>
      </trkpt>
      <trkpt lat="42.749364" lon="-2.728277">
        <ele>635.763</ele>
        <time>2022-07-03T15:29:46Z</time>
      </trkpt>
      <trkpt lat="42.749368" lon="-2.728169">
        <ele>635.749</ele>
        <time>2022-07-03T15:29:48Z</time>
      </trkpt>
      <trkpt lat="42.749374" lon="-2.728067">
        <ele>635.262</ele>
        <time>2022-07-03T15:29:50Z</time>
      </trkpt>
      <trkpt lat="42.749377" lon="-2.727958">
        <ele>634.511</ele>
        <time>2022-07-03T15:29:52Z</time>
      </trkpt>
      <trkpt lat="42.749385" lon="-2.727858">
        <ele>634.371</ele>
        <time>2022-07-03T15:29:54Z</time>
      </trkpt>
      <trkpt lat="42.749391" lon="-2.727741">
        <ele>634.387</ele>
        <time>2022-07-03T15:29:56Z</time>
      </trkpt>
      <trkpt lat="42.749398" lon="-2.727629">
        <ele>634.442</ele>
        <time>2022-07-03T15:29:58Z</time>
      </trkpt>
      <trkpt lat="42.749405" lon="-2.727525">
        <ele>634.626</ele>
        <time>2022-07-03T15:30:00Z</time>
      </trkpt>
      <trkpt lat="42.749409" lon="-2.727417">
        <ele>635.109</ele>
        <time>2022-07-03T15:30:02Z</time>
      </trkpt>
      <trkpt lat="42.749412" lon="-2.727312">
        <ele>635.559</ele>
        <time>2022-07-03T15:30:04Z</time>
      </trkpt>
      <trkpt lat="42.749417" lon="-2.727210">
        <ele>635.748</ele>
        <time>2022-07-03T15:30:06Z</time>
      </trkpt>
      <trkpt lat="42.749421" lon="-2.727112">
        <ele>635.855</ele>
        <time>2022-07-03T15:30:08Z</time>
      </trkpt>
      <trkpt lat="42.749424" lon="-2.727011">
        <ele>635.988</ele>
        <time>2022-07-03T15:30:10Z</time>
      </trkpt>
      <trkpt lat="42.749424" lon="-2.726916">
        <ele>636.159</ele>
        <time>2022-07-03T15:30:12Z</time>
      </trkpt>
      <trkpt lat="42.749420" lon="-2.726820">
        <ele>636.345</ele>
        <time>2022-07-03T15:30:14Z</time>
      </trkpt>
      <trkpt lat="42.749422" lon="-2.726734">
        <ele>636.448</ele>
        <time>2022-07-03T15:30:16Z</time>
      </trkpt>
      <trkpt lat="42.749428" lon="-2.726656">
        <ele>636.597</ele>
        <time>2022-07-03T15:30:18Z</time>
      </trkpt>
      <trkpt lat="42.749424" lon="-2.726581">
        <ele>637.047</ele>
        <time>2022-07-03T15:30:20Z</time>
      </trkpt>
      <trkpt lat="42.749412" lon="-2.726505">
        <ele>637.456</ele>
        <time>2022-07-03T15:30:22Z</time>
      </trkpt>
      <trkpt lat="42.749390" lon="-2.726409">
        <ele>638.259</ele>
        <time>2022-07-03T15:30:24Z</time>
      </trkpt>
      <trkpt lat="42.749364" lon="-2.726327">
        <ele>638.414</ele>
        <time>2022-07-03T15:30:26Z</time>
      </trkpt>
      <trkpt lat="42.749334" lon="-2.726261">
        <ele>638.409</ele>
        <time>2022-07-03T15:30:27Z</time>
      </trkpt>
      <trkpt lat="42.749324" lon="-2.726201">
        <ele>638.456</ele>
        <time>2022-07-03T15:30:28Z</time>
      </trkpt>
      <trkpt lat="42.749299" lon="-2.726121">
        <ele>638.475</ele>
        <time>2022-07-03T15:30:30Z</time>
      </trkpt>
      <trkpt lat="42.749286" lon="-2.726030">
        <ele>638.412</ele>
        <time>2022-07-03T15:30:31Z</time>
      </trkpt>
      <trkpt lat="42.749274" lon="-2.725956">
        <ele>638.425</ele>
        <time>2022-07-03T15:30:33Z</time>
      </trkpt>
      <trkpt lat="42.749267" lon="-2.725891">
        <ele>638.416</ele>
        <time>2022-07-03T15:30:35Z</time>
      </trkpt>
      <trkpt lat="42.749257" lon="-2.725817">
        <ele>638.562</ele>
        <time>2022-07-03T15:30:37Z</time>
      </trkpt>
      <trkpt lat="42.749239" lon="-2.725748">
        <ele>638.755</ele>
        <time>2022-07-03T15:30:39Z</time>
      </trkpt>
      <trkpt lat="42.749224" lon="-2.725667">
        <ele>639.034</ele>
        <time>2022-07-03T15:30:42Z</time>
      </trkpt>
      <trkpt lat="42.749207" lon="-2.725585">
        <ele>639.694</ele>
        <time>2022-07-03T15:30:45Z</time>
      </trkpt>
      <trkpt lat="42.749184" lon="-2.725502">
        <ele>640.478</ele>
        <time>2022-07-03T15:30:48Z</time>
      </trkpt>
      <trkpt lat="42.749160" lon="-2.725415">
        <ele>641.433</ele>
        <time>2022-07-03T15:30:51Z</time>
      </trkpt>
      <trkpt lat="42.749142" lon="-2.725353">
        <ele>641.826</ele>
        <time>2022-07-03T15:30:53Z</time>
      </trkpt>
      <trkpt lat="42.749122" lon="-2.725296">
        <ele>642.509</ele>
        <time>2022-07-03T15:30:55Z</time>
      </trkpt>
      <trkpt lat="42.749090" lon="-2.725215">
        <ele>642.848</ele>
        <time>2022-07-03T15:30:58Z</time>
      </trkpt>
      <trkpt lat="42.749054" lon="-2.725154">
        <ele>643.067</ele>
        <time>2022-07-03T15:31:01Z</time>
      </trkpt>
      <trkpt lat="42.749018" lon="-2.725095">
        <ele>643.454</ele>
        <time>2022-07-03T15:31:04Z</time>
      </trkpt>
      <trkpt lat="42.748993" lon="-2.725032">
        <ele>643.927</ele>
        <time>2022-07-03T15:31:07Z</time>
      </trkpt>
      <trkpt lat="42.748979" lon="-2.724958">
        <ele>644.988</ele>
        <time>2022-07-03T15:31:10Z</time>
      </trkpt>
      <trkpt lat="42.748970" lon="-2.724881">
        <ele>645.664</ele>
        <time>2022-07-03T15:31:13Z</time>
      </trkpt>
      <trkpt lat="42.748965" lon="-2.724812">
        <ele>645.917</ele>
        <time>2022-07-03T15:31:16Z</time>
      </trkpt>
      <trkpt lat="42.748958" lon="-2.724740">
        <ele>646.616</ele>
        <time>2022-07-03T15:31:19Z</time>
      </trkpt>
      <trkpt lat="42.748952" lon="-2.724676">
        <ele>646.826</ele>
        <time>2022-07-03T15:31:22Z</time>
      </trkpt>
      <trkpt lat="42.748944" lon="-2.724613">
        <ele>647.462</ele>
        <time>2022-07-03T15:31:25Z</time>
      </trkpt>
      <trkpt lat="42.748940" lon="-2.724537">
        <ele>648.183</ele>
        <time>2022-07-03T15:31:29Z</time>
      </trkpt>
      <trkpt lat="42.748939" lon="-2.724461">
        <ele>648.711</ele>
        <time>2022-07-03T15:31:33Z</time>
      </trkpt>
      <trkpt lat="42.748946" lon="-2.724382">
        <ele>649.609</ele>
        <time>2022-07-03T15:31:37Z</time>
      </trkpt>
      <trkpt lat="42.748951" lon="-2.724317">
        <ele>650.817</ele>
        <time>2022-07-03T15:31:40Z</time>
      </trkpt>
      <trkpt lat="42.748952" lon="-2.724256">
        <ele>652.126</ele>
        <time>2022-07-03T15:31:43Z</time>
      </trkpt>
      <trkpt lat="42.748954" lon="-2.724182">
        <ele>653.123</ele>
        <time>2022-07-03T15:31:47Z</time>
      </trkpt>
      <trkpt lat="42.748949" lon="-2.724101">
        <ele>653.876</ele>
        <time>2022-07-03T15:31:51Z</time>
      </trkpt>
      <trkpt lat="42.748944" lon="-2.724024">
        <ele>654.637</ele>
        <time>2022-07-03T15:31:55Z</time>
      </trkpt>
      <trkpt lat="42.748931" lon="-2.723952">
        <ele>656.453</ele>
        <time>2022-07-03T15:31:59Z</time>
      </trkpt>
      <trkpt lat="42.748908" lon="-2.723894">
        <ele>657.436</ele>
        <time>2022-07-03T15:32:03Z</time>
      </trkpt>
      <trkpt lat="42.748878" lon="-2.723829">
        <ele>658.875</ele>
        <time>2022-07-03T15:32:07Z</time>
      </trkpt>
      <trkpt lat="42.748856" lon="-2.723767">
        <ele>659.375</ele>
        <time>2022-07-03T15:32:10Z</time>
      </trkpt>
      <trkpt lat="42.748828" lon="-2.723704">
        <ele>660.293</ele>
        <time>2022-07-03T15:32:14Z</time>
      </trkpt>
      <trkpt lat="42.748802" lon="-2.723637">
        <ele>660.965</ele>
        <time>2022-07-03T15:32:18Z</time>
      </trkpt>
      <trkpt lat="42.748778" lon="-2.723584">
        <ele>661.621</ele>
        <time>2022-07-03T15:32:21Z</time>
      </trkpt>
      <trkpt lat="42.748750" lon="-2.723519">
        <ele>662.609</ele>
        <time>2022-07-03T15:32:25Z</time>
      </trkpt>
      <trkpt lat="42.748718" lon="-2.723461">
        <ele>663.510</ele>
        <time>2022-07-03T15:32:29Z</time>
      </trkpt>
      <trkpt lat="42.748685" lon="-2.723413">
        <ele>664.329</ele>
        <time>2022-07-03T15:32:33Z</time>
      </trkpt>
      <trkpt lat="42.748644" lon="-2.723365">
        <ele>665.036</ele>
        <time>2022-07-03T15:32:37Z</time>
      </trkpt>
      <trkpt lat="42.748614" lon="-2.723318">
        <ele>665.569</ele>
        <time>2022-07-03T15:32:40Z</time>
      </trkpt>
      <trkpt lat="42.748578" lon="-2.723264">
        <ele>666.120</ele>
        <time>2022-07-03T15:32:44Z</time>
      </trkpt>
      <trkpt lat="42.748541" lon="-2.723223">
        <ele>666.926</ele>
        <time>2022-07-03T15:32:48Z</time>
      </trkpt>
      <trkpt lat="42.748492" lon="-2.723183">
        <ele>667.939</ele>
        <time>2022-07-03T15:32:53Z</time>
      </trkpt>
      <trkpt lat="42.748466" lon="-2.723133">
        <ele>668.858</ele>
        <time>2022-07-03T15:32:56Z</time>
      </trkpt>
      <trkpt lat="42.748443" lon="-2.723077">
        <ele>669.638</ele>
        <time>2022-07-03T15:32:59Z</time>
      </trkpt>
      <trkpt lat="42.748437" lon="-2.723004">
        <ele>670.121</ele>
        <time>2022-07-03T15:33:03Z</time>
      </trkpt>
      <trkpt lat="42.748475" lon="-2.722938">
        <ele>670.241</ele>
        <time>2022-07-03T15:33:07Z</time>
      </trkpt>
      <trkpt lat="42.748515" lon="-2.722899">
        <ele>670.505</ele>
        <time>2022-07-03T15:33:10Z</time>
      </trkpt>
      <trkpt lat="42.748560" lon="-2.722876">
        <ele>671.009</ele>
        <time>2022-07-03T15:33:12Z</time>
      </trkpt>
      <trkpt lat="42.748617" lon="-2.722862">
        <ele>671.243</ele>
        <time>2022-07-03T15:33:15Z</time>
      </trkpt>
      <trkpt lat="42.748668" lon="-2.722904">
        <ele>671.282</ele>
        <time>2022-07-03T15:33:18Z</time>
      </trkpt>
      <trkpt lat="42.748685" lon="-2.722966">
        <ele>671.199</ele>
        <time>2022-07-03T15:33:20Z</time>
      </trkpt>
      <trkpt lat="42.748711" lon="-2.723021">
        <ele>670.822</ele>
        <time>2022-07-03T15:33:22Z</time>
      </trkpt>
      <trkpt lat="42.748744" lon="-2.723068">
        <ele>670.593</ele>
        <time>2022-07-03T15:33:25Z</time>
      </trkpt>
      <trkpt lat="42.748743" lon="-2.722991">
        <ele>670.569</ele>
        <time>2022-07-03T15:33:39Z</time>
      </trkpt>
      <trkpt lat="42.748692" lon="-2.722976">
        <ele>670.562</ele>
        <time>2022-07-03T15:34:09Z</time>
      </trkpt>
      <trkpt lat="42.748666" lon="-2.722919">
        <ele>670.691</ele>
        <time>2022-07-03T15:34:23Z</time>
      </trkpt>
      <trkpt lat="42.748650" lon="-2.722859">
        <ele>670.981</ele>
        <time>2022-07-03T15:34:25Z</time>
      </trkpt>
      <trkpt lat="42.748638" lon="-2.722795">
        <ele>671.152</ele>
        <time>2022-07-03T15:34:27Z</time>
      </trkpt>
      <trkpt lat="42.748646" lon="-2.722729">
        <ele>671.153</ele>
        <time>2022-07-03T15:34:29Z</time>
      </trkpt>
      <trkpt lat="42.748675" lon="-2.722675">
        <ele>671.208</ele>
        <time>2022-07-03T15:34:31Z</time>
      </trkpt>
      <trkpt lat="42.748716" lon="-2.722633">
        <ele>671.409</ele>
        <time>2022-07-03T15:34:33Z</time>
      </trkpt>
      <trkpt lat="42.748761" lon="-2.722595">
        <ele>671.576</ele>
        <time>2022-07-03T15:34:35Z</time>
      </trkpt>
      <trkpt lat="42.748800" lon="-2.722550">
        <ele>671.515</ele>
        <time>2022-07-03T15:34:37Z</time>
      </trkpt>
      <trkpt lat="42.748835" lon="-2.722503">
        <ele>671.562</ele>
        <time>2022-07-03T15:34:39Z</time>
      </trkpt>
      <trkpt lat="42.748873" lon="-2.722458">
        <ele>671.565</ele>
        <time>2022-07-03T15:34:41Z</time>
      </trkpt>
      <trkpt lat="42.748912" lon="-2.722408">
        <ele>671.416</ele>
        <time>2022-07-03T15:34:43Z</time>
      </trkpt>
      <trkpt lat="42.748949" lon="-2.722361">
        <ele>671.382</ele>
        <time>2022-07-03T15:34:45Z</time>
      </trkpt>
      <trkpt lat="42.748997" lon="-2.722302">
        <ele>671.245</ele>
        <time>2022-07-03T15:34:48Z</time>
      </trkpt>
      <trkpt lat="42.749043" lon="-2.722275">
        <ele>671.274</ele>
        <time>2022-07-03T15:34:51Z</time>
      </trkpt>
      <trkpt lat="42.749096" lon="-2.722284">
        <ele>671.184</ele>
        <time>2022-07-03T15:35:45Z</time>
      </trkpt>
      <trkpt lat="42.749042" lon="-2.722318">
        <ele>671.348</ele>
        <time>2022-07-03T15:35:55Z</time>
      </trkpt>
      <trkpt lat="42.748995" lon="-2.722372">
        <ele>671.661</ele>
        <time>2022-07-03T15:35:57Z</time>
      </trkpt>
      <trkpt lat="42.748942" lon="-2.722432">
        <ele>671.617</ele>
        <time>2022-07-03T15:35:59Z</time>
      </trkpt>
      <trkpt lat="42.748891" lon="-2.722503">
        <ele>671.609</ele>
        <time>2022-07-03T15:36:01Z</time>
      </trkpt>
      <trkpt lat="42.748836" lon="-2.722582">
        <ele>671.145</ele>
        <time>2022-07-03T15:36:03Z</time>
      </trkpt>
      <trkpt lat="42.748790" lon="-2.722659">
        <ele>670.874</ele>
        <time>2022-07-03T15:36:05Z</time>
      </trkpt>
      <trkpt lat="42.748754" lon="-2.722735">
        <ele>670.571</ele>
        <time>2022-07-03T15:36:07Z</time>
      </trkpt>
      <trkpt lat="42.748710" lon="-2.722806">
        <ele>670.394</ele>
        <time>2022-07-03T15:36:09Z</time>
      </trkpt>
      <trkpt lat="42.748644" lon="-2.722860">
        <ele>670.395</ele>
        <time>2022-07-03T15:36:11Z</time>
      </trkpt>
      <trkpt lat="42.748577" lon="-2.722866">
        <ele>670.631</ele>
        <time>2022-07-03T15:36:13Z</time>
      </trkpt>
      <trkpt lat="42.748520" lon="-2.722854">
        <ele>671.174</ele>
        <time>2022-07-03T15:36:15Z</time>
      </trkpt>
      <trkpt lat="42.748472" lon="-2.722856">
        <ele>671.443</ele>
        <time>2022-07-03T15:36:17Z</time>
      </trkpt>
      <trkpt lat="42.748425" lon="-2.722861">
        <ele>671.693</ele>
        <time>2022-07-03T15:36:19Z</time>
      </trkpt>
      <trkpt lat="42.748365" lon="-2.722851">
        <ele>671.764</ele>
        <time>2022-07-03T15:36:21Z</time>
      </trkpt>
      <trkpt lat="42.748309" lon="-2.722817">
        <ele>671.706</ele>
        <time>2022-07-03T15:36:23Z</time>
      </trkpt>
      <trkpt lat="42.748269" lon="-2.722783">
        <ele>671.716</ele>
        <time>2022-07-03T15:36:24Z</time>
      </trkpt>
      <trkpt lat="42.748228" lon="-2.722747">
        <ele>671.609</ele>
        <time>2022-07-03T15:36:25Z</time>
      </trkpt>
      <trkpt lat="42.748161" lon="-2.722684">
        <ele>671.467</ele>
        <time>2022-07-03T15:36:27Z</time>
      </trkpt>
      <trkpt lat="42.748096" lon="-2.722616">
        <ele>671.446</ele>
        <time>2022-07-03T15:36:29Z</time>
      </trkpt>
      <trkpt lat="42.748045" lon="-2.722555">
        <ele>671.453</ele>
        <time>2022-07-03T15:36:31Z</time>
      </trkpt>
      <trkpt lat="42.747997" lon="-2.722506">
        <ele>671.626</ele>
        <time>2022-07-03T15:36:33Z</time>
      </trkpt>
      <trkpt lat="42.747942" lon="-2.722455">
        <ele>671.647</ele>
        <time>2022-07-03T15:36:35Z</time>
      </trkpt>
      <trkpt lat="42.747885" lon="-2.722409">
        <ele>671.613</ele>
        <time>2022-07-03T15:36:37Z</time>
      </trkpt>
      <trkpt lat="42.747825" lon="-2.722378">
        <ele>670.896</ele>
        <time>2022-07-03T15:36:39Z</time>
      </trkpt>
      <trkpt lat="42.747767" lon="-2.722318">
        <ele>670.365</ele>
        <time>2022-07-03T15:36:41Z</time>
      </trkpt>
      <trkpt lat="42.747740" lon="-2.722231">
        <ele>670.325</ele>
        <time>2022-07-03T15:36:42Z</time>
      </trkpt>
      <trkpt lat="42.747707" lon="-2.722163">
        <ele>670.332</ele>
        <time>2022-07-03T15:36:43Z</time>
      </trkpt>
      <trkpt lat="42.747657" lon="-2.722096">
        <ele>670.292</ele>
        <time>2022-07-03T15:36:44Z</time>
      </trkpt>
      <trkpt lat="42.747610" lon="-2.722039">
        <ele>670.111</ele>
        <time>2022-07-03T15:36:45Z</time>
      </trkpt>
      <trkpt lat="42.747582" lon="-2.721976">
        <ele>669.409</ele>
        <time>2022-07-03T15:36:46Z</time>
      </trkpt>
      <trkpt lat="42.747534" lon="-2.721925">
        <ele>668.664</ele>
        <time>2022-07-03T15:36:48Z</time>
      </trkpt>
      <trkpt lat="42.747522" lon="-2.721851">
        <ele>667.583</ele>
        <time>2022-07-03T15:36:51Z</time>
      </trkpt>
      <trkpt lat="42.747503" lon="-2.721788">
        <ele>665.360</ele>
        <time>2022-07-03T15:36:54Z</time>
      </trkpt>
      <trkpt lat="42.747503" lon="-2.721714">
        <ele>664.663</ele>
        <time>2022-07-03T15:36:57Z</time>
      </trkpt>
      <trkpt lat="42.747531" lon="-2.721656">
        <ele>664.584</ele>
        <time>2022-07-03T15:37:00Z</time>
      </trkpt>
      <trkpt lat="42.747564" lon="-2.721601">
        <ele>664.120</ele>
        <time>2022-07-03T15:37:03Z</time>
      </trkpt>
      <trkpt lat="42.747597" lon="-2.721548">
        <ele>662.893</ele>
        <time>2022-07-03T15:37:05Z</time>
      </trkpt>
      <trkpt lat="42.747640" lon="-2.721485">
        <ele>660.872</ele>
        <time>2022-07-03T15:37:07Z</time>
      </trkpt>
      <trkpt lat="42.747689" lon="-2.721428">
        <ele>659.812</ele>
        <time>2022-07-03T15:37:09Z</time>
      </trkpt>
      <trkpt lat="42.747743" lon="-2.721381">
        <ele>658.752</ele>
        <time>2022-07-03T15:37:11Z</time>
      </trkpt>
      <trkpt lat="42.747795" lon="-2.721336">
        <ele>657.053</ele>
        <time>2022-07-03T15:37:13Z</time>
      </trkpt>
      <trkpt lat="42.747846" lon="-2.721278">
        <ele>655.408</ele>
        <time>2022-07-03T15:37:15Z</time>
      </trkpt>
      <trkpt lat="42.747922" lon="-2.721192">
        <ele>653.509</ele>
        <time>2022-07-03T15:37:17Z</time>
      </trkpt>
      <trkpt lat="42.747958" lon="-2.721154">
        <ele>652.736</ele>
        <time>2022-07-03T15:37:18Z</time>
      </trkpt>
      <trkpt lat="42.747989" lon="-2.721109">
        <ele>652.425</ele>
        <time>2022-07-03T15:37:19Z</time>
      </trkpt>
      <trkpt lat="42.748047" lon="-2.721053">
        <ele>651.912</ele>
        <time>2022-07-03T15:37:21Z</time>
      </trkpt>
      <trkpt lat="42.748085" lon="-2.721021">
        <ele>651.735</ele>
        <time>2022-07-03T15:37:22Z</time>
      </trkpt>
      <trkpt lat="42.748114" lon="-2.720963">
        <ele>651.636</ele>
        <time>2022-07-03T15:37:24Z</time>
      </trkpt>
      <trkpt lat="42.748099" lon="-2.720880">
        <ele>651.592</ele>
        <time>2022-07-03T15:37:27Z</time>
      </trkpt>
      <trkpt lat="42.748064" lon="-2.720800">
        <ele>651.555</ele>
        <time>2022-07-03T15:37:29Z</time>
      </trkpt>
      <trkpt lat="42.748022" lon="-2.720717">
        <ele>651.554</ele>
        <time>2022-07-03T15:37:31Z</time>
      </trkpt>
      <trkpt lat="42.747986" lon="-2.720620">
        <ele>651.684</ele>
        <time>2022-07-03T15:37:33Z</time>
      </trkpt>
      <trkpt lat="42.747964" lon="-2.720508">
        <ele>650.944</ele>
        <time>2022-07-03T15:37:35Z</time>
      </trkpt>
      <trkpt lat="42.747962" lon="-2.720400">
        <ele>649.905</ele>
        <time>2022-07-03T15:37:37Z</time>
      </trkpt>
      <trkpt lat="42.747970" lon="-2.720317">
        <ele>649.115</ele>
        <time>2022-07-03T15:37:39Z</time>
      </trkpt>
      <trkpt lat="42.747987" lon="-2.720214">
        <ele>648.409</ele>
        <time>2022-07-03T15:37:41Z</time>
      </trkpt>
      <trkpt lat="42.747992" lon="-2.720149">
        <ele>648.045</ele>
        <time>2022-07-03T15:37:42Z</time>
      </trkpt>
      <trkpt lat="42.748013" lon="-2.720040">
        <ele>646.914</ele>
        <time>2022-07-03T15:37:44Z</time>
      </trkpt>
      <trkpt lat="42.748037" lon="-2.719974">
        <ele>646.861</ele>
        <time>2022-07-03T15:37:45Z</time>
      </trkpt>
      <trkpt lat="42.748065" lon="-2.719918">
        <ele>645.874</ele>
        <time>2022-07-03T15:37:46Z</time>
      </trkpt>
      <trkpt lat="42.748091" lon="-2.719859">
        <ele>645.875</ele>
        <time>2022-07-03T15:37:47Z</time>
      </trkpt>
      <trkpt lat="42.748116" lon="-2.719808">
        <ele>645.051</ele>
        <time>2022-07-03T15:37:48Z</time>
      </trkpt>
      <trkpt lat="42.748156" lon="-2.719745">
        <ele>644.794</ele>
        <time>2022-07-03T15:37:50Z</time>
      </trkpt>
      <trkpt lat="42.748183" lon="-2.719691">
        <ele>644.083</ele>
        <time>2022-07-03T15:37:52Z</time>
      </trkpt>
      <trkpt lat="42.748219" lon="-2.719648">
        <ele>643.353</ele>
        <time>2022-07-03T15:37:54Z</time>
      </trkpt>
      <trkpt lat="42.748274" lon="-2.719568">
        <ele>642.971</ele>
        <time>2022-07-03T15:37:56Z</time>
      </trkpt>
      <trkpt lat="42.748314" lon="-2.719497">
        <ele>642.941</ele>
        <time>2022-07-03T15:37:58Z</time>
      </trkpt>
      <trkpt lat="42.748361" lon="-2.719395">
        <ele>642.815</ele>
        <time>2022-07-03T15:38:00Z</time>
      </trkpt>
      <trkpt lat="42.748411" lon="-2.719297">
        <ele>642.709</ele>
        <time>2022-07-03T15:38:02Z</time>
      </trkpt>
      <trkpt lat="42.748442" lon="-2.719232">
        <ele>642.428</ele>
        <time>2022-07-03T15:38:03Z</time>
      </trkpt>
      <trkpt lat="42.748467" lon="-2.719171">
        <ele>642.037</ele>
        <time>2022-07-03T15:38:04Z</time>
      </trkpt>
      <trkpt lat="42.748501" lon="-2.719105">
        <ele>641.954</ele>
        <time>2022-07-03T15:38:05Z</time>
      </trkpt>
      <trkpt lat="42.748534" lon="-2.719046">
        <ele>641.617</ele>
        <time>2022-07-03T15:38:06Z</time>
      </trkpt>
      <trkpt lat="42.748566" lon="-2.718985">
        <ele>641.338</ele>
        <time>2022-07-03T15:38:07Z</time>
      </trkpt>
      <trkpt lat="42.748605" lon="-2.718929">
        <ele>640.624</ele>
        <time>2022-07-03T15:38:08Z</time>
      </trkpt>
      <trkpt lat="42.748637" lon="-2.718861">
        <ele>640.447</ele>
        <time>2022-07-03T15:38:09Z</time>
      </trkpt>
      <trkpt lat="42.748680" lon="-2.718776">
        <ele>639.816</ele>
        <time>2022-07-03T15:38:10Z</time>
      </trkpt>
      <trkpt lat="42.748713" lon="-2.718702">
        <ele>638.856</ele>
        <time>2022-07-03T15:38:11Z</time>
      </trkpt>
      <trkpt lat="42.748741" lon="-2.718635">
        <ele>638.851</ele>
        <time>2022-07-03T15:38:12Z</time>
      </trkpt>
      <trkpt lat="42.748767" lon="-2.718570">
        <ele>637.801</ele>
        <time>2022-07-03T15:38:13Z</time>
      </trkpt>
      <trkpt lat="42.748787" lon="-2.718505">
        <ele>637.811</ele>
        <time>2022-07-03T15:38:14Z</time>
      </trkpt>
      <trkpt lat="42.748808" lon="-2.718445">
        <ele>637.109</ele>
        <time>2022-07-03T15:38:15Z</time>
      </trkpt>
      <trkpt lat="42.748827" lon="-2.718374">
        <ele>637.036</ele>
        <time>2022-07-03T15:38:16Z</time>
      </trkpt>
      <trkpt lat="42.748847" lon="-2.718307">
        <ele>636.875</ele>
        <time>2022-07-03T15:38:17Z</time>
      </trkpt>
      <trkpt lat="42.748878" lon="-2.718236">
        <ele>636.532</ele>
        <time>2022-07-03T15:38:18Z</time>
      </trkpt>
      <trkpt lat="42.748895" lon="-2.718169">
        <ele>636.225</ele>
        <time>2022-07-03T15:38:19Z</time>
      </trkpt>
      <trkpt lat="42.748916" lon="-2.718099">
        <ele>635.656</ele>
        <time>2022-07-03T15:38:20Z</time>
      </trkpt>
      <trkpt lat="42.748935" lon="-2.718031">
        <ele>635.022</ele>
        <time>2022-07-03T15:38:21Z</time>
      </trkpt>
      <trkpt lat="42.748954" lon="-2.717955">
        <ele>634.045</ele>
        <time>2022-07-03T15:38:22Z</time>
      </trkpt>
      <trkpt lat="42.748967" lon="-2.717878">
        <ele>633.574</ele>
        <time>2022-07-03T15:38:23Z</time>
      </trkpt>
      <trkpt lat="42.748981" lon="-2.717802">
        <ele>632.874</ele>
        <time>2022-07-03T15:38:24Z</time>
      </trkpt>
      <trkpt lat="42.748992" lon="-2.717735">
        <ele>632.334</ele>
        <time>2022-07-03T15:38:25Z</time>
      </trkpt>
      <trkpt lat="42.748999" lon="-2.717652">
        <ele>631.655</ele>
        <time>2022-07-03T15:38:26Z</time>
      </trkpt>
      <trkpt lat="42.749008" lon="-2.717568">
        <ele>631.410</ele>
        <time>2022-07-03T15:38:27Z</time>
      </trkpt>
      <trkpt lat="42.749016" lon="-2.717498">
        <ele>630.809</ele>
        <time>2022-07-03T15:38:28Z</time>
      </trkpt>
      <trkpt lat="42.749024" lon="-2.717427">
        <ele>630.394</ele>
        <time>2022-07-03T15:38:29Z</time>
      </trkpt>
      <trkpt lat="42.749019" lon="-2.717365">
        <ele>629.573</ele>
        <time>2022-07-03T15:38:30Z</time>
      </trkpt>
      <trkpt lat="42.749008" lon="-2.717289">
        <ele>628.610</ele>
        <time>2022-07-03T15:38:32Z</time>
      </trkpt>
      <trkpt lat="42.748993" lon="-2.717195">
        <ele>627.953</ele>
        <time>2022-07-03T15:38:34Z</time>
      </trkpt>
      <trkpt lat="42.748958" lon="-2.717139">
        <ele>626.814</ele>
        <time>2022-07-03T15:38:36Z</time>
      </trkpt>
      <trkpt lat="42.748908" lon="-2.717126">
        <ele>626.460</ele>
        <time>2022-07-03T15:38:47Z</time>
      </trkpt>
      <trkpt lat="42.748842" lon="-2.717154">
        <ele>625.813</ele>
        <time>2022-07-03T15:38:49Z</time>
      </trkpt>
      <trkpt lat="42.748768" lon="-2.717182">
        <ele>623.292</ele>
        <time>2022-07-03T15:38:51Z</time>
      </trkpt>
      <trkpt lat="42.748680" lon="-2.717186">
        <ele>623.272</ele>
        <time>2022-07-03T15:38:53Z</time>
      </trkpt>
      <trkpt lat="42.748601" lon="-2.717176">
        <ele>623.011</ele>
        <time>2022-07-03T15:38:55Z</time>
      </trkpt>
      <trkpt lat="42.748547" lon="-2.717158">
        <ele>622.421</ele>
        <time>2022-07-03T15:38:56Z</time>
      </trkpt>
      <trkpt lat="42.748492" lon="-2.717145">
        <ele>621.903</ele>
        <time>2022-07-03T15:38:57Z</time>
      </trkpt>
      <trkpt lat="42.748404" lon="-2.717125">
        <ele>621.409</ele>
        <time>2022-07-03T15:38:59Z</time>
      </trkpt>
      <trkpt lat="42.748332" lon="-2.717117">
        <ele>620.962</ele>
        <time>2022-07-03T15:39:00Z</time>
      </trkpt>
      <trkpt lat="42.748261" lon="-2.717113">
        <ele>620.711</ele>
        <time>2022-07-03T15:39:01Z</time>
      </trkpt>
      <trkpt lat="42.748203" lon="-2.717101">
        <ele>620.428</ele>
        <time>2022-07-03T15:39:02Z</time>
      </trkpt>
      <trkpt lat="42.748128" lon="-2.717078">
        <ele>620.291</ele>
        <time>2022-07-03T15:39:03Z</time>
      </trkpt>
      <trkpt lat="42.748053" lon="-2.717064">
        <ele>620.282</ele>
        <time>2022-07-03T15:39:04Z</time>
      </trkpt>
      <trkpt lat="42.747995" lon="-2.717051">
        <ele>620.228</ele>
        <time>2022-07-03T15:39:05Z</time>
      </trkpt>
      <trkpt lat="42.747936" lon="-2.717031">
        <ele>620.221</ele>
        <time>2022-07-03T15:39:06Z</time>
      </trkpt>
      <trkpt lat="42.747831" lon="-2.717000">
        <ele>620.060</ele>
        <time>2022-07-03T15:39:07Z</time>
      </trkpt>
      <trkpt lat="42.747769" lon="-2.716963">
        <ele>619.730</ele>
        <time>2022-07-03T15:39:08Z</time>
      </trkpt>
      <trkpt lat="42.747720" lon="-2.716932">
        <ele>619.487</ele>
        <time>2022-07-03T15:39:09Z</time>
      </trkpt>
      <trkpt lat="42.747676" lon="-2.716847">
        <ele>619.142</ele>
        <time>2022-07-03T15:39:11Z</time>
      </trkpt>
      <trkpt lat="42.747645" lon="-2.716780">
        <ele>619.026</ele>
        <time>2022-07-03T15:39:12Z</time>
      </trkpt>
      <trkpt lat="42.747599" lon="-2.716711">
        <ele>618.609</ele>
        <time>2022-07-03T15:39:13Z</time>
      </trkpt>
      <trkpt lat="42.747563" lon="-2.716642">
        <ele>618.519</ele>
        <time>2022-07-03T15:39:14Z</time>
      </trkpt>
      <trkpt lat="42.747530" lon="-2.716568">
        <ele>618.368</ele>
        <time>2022-07-03T15:39:15Z</time>
      </trkpt>
      <trkpt lat="42.747508" lon="-2.716496">
        <ele>618.365</ele>
        <time>2022-07-03T15:39:16Z</time>
      </trkpt>
      <trkpt lat="42.747488" lon="-2.716424">
        <ele>618.318</ele>
        <time>2022-07-03T15:39:17Z</time>
      </trkpt>
      <trkpt lat="42.747468" lon="-2.716349">
        <ele>618.579</ele>
        <time>2022-07-03T15:39:18Z</time>
      </trkpt>
      <trkpt lat="42.747454" lon="-2.716275">
        <ele>618.895</ele>
        <time>2022-07-03T15:39:19Z</time>
      </trkpt>
      <trkpt lat="42.747440" lon="-2.716199">
        <ele>618.868</ele>
        <time>2022-07-03T15:39:20Z</time>
      </trkpt>
      <trkpt lat="42.747428" lon="-2.716098">
        <ele>618.847</ele>
        <time>2022-07-03T15:39:21Z</time>
      </trkpt>
      <trkpt lat="42.747427" lon="-2.715992">
        <ele>618.717</ele>
        <time>2022-07-03T15:39:22Z</time>
      </trkpt>
      <trkpt lat="42.747419" lon="-2.715889">
        <ele>617.391</ele>
        <time>2022-07-03T15:39:23Z</time>
      </trkpt>
      <trkpt lat="42.747408" lon="-2.715788">
        <ele>616.581</ele>
        <time>2022-07-03T15:39:24Z</time>
      </trkpt>
      <trkpt lat="42.747404" lon="-2.715678">
        <ele>615.719</ele>
        <time>2022-07-03T15:39:25Z</time>
      </trkpt>
      <trkpt lat="42.747403" lon="-2.715567">
        <ele>614.909</ele>
        <time>2022-07-03T15:39:26Z</time>
      </trkpt>
      <trkpt lat="42.747400" lon="-2.715451">
        <ele>614.620</ele>
        <time>2022-07-03T15:39:27Z</time>
      </trkpt>
      <trkpt lat="42.747398" lon="-2.715328">
        <ele>614.459</ele>
        <time>2022-07-03T15:39:28Z</time>
      </trkpt>
      <trkpt lat="42.747403" lon="-2.715215">
        <ele>614.166</ele>
        <time>2022-07-03T15:39:29Z</time>
      </trkpt>
      <trkpt lat="42.747398" lon="-2.715097">
        <ele>613.769</ele>
        <time>2022-07-03T15:39:30Z</time>
      </trkpt>
      <trkpt lat="42.747400" lon="-2.714990">
        <ele>613.250</ele>
        <time>2022-07-03T15:39:31Z</time>
      </trkpt>
      <trkpt lat="42.747394" lon="-2.714847">
        <ele>612.446</ele>
        <time>2022-07-03T15:39:32Z</time>
      </trkpt>
      <trkpt lat="42.747400" lon="-2.714740">
        <ele>612.219</ele>
        <time>2022-07-03T15:39:33Z</time>
      </trkpt>
      <trkpt lat="42.747400" lon="-2.714625">
        <ele>611.548</ele>
        <time>2022-07-03T15:39:34Z</time>
      </trkpt>
      <trkpt lat="42.747385" lon="-2.714519">
        <ele>611.168</ele>
        <time>2022-07-03T15:39:35Z</time>
      </trkpt>
      <trkpt lat="42.747359" lon="-2.714432">
        <ele>610.331</ele>
        <time>2022-07-03T15:39:36Z</time>
      </trkpt>
      <trkpt lat="42.747324" lon="-2.714359">
        <ele>609.861</ele>
        <time>2022-07-03T15:39:37Z</time>
      </trkpt>
      <trkpt lat="42.747277" lon="-2.714295">
        <ele>609.407</ele>
        <time>2022-07-03T15:39:38Z</time>
      </trkpt>
      <trkpt lat="42.747222" lon="-2.714238">
        <ele>609.209</ele>
        <time>2022-07-03T15:39:39Z</time>
      </trkpt>
      <trkpt lat="42.747167" lon="-2.714167">
        <ele>609.064</ele>
        <time>2022-07-03T15:39:40Z</time>
      </trkpt>
      <trkpt lat="42.747107" lon="-2.714097">
        <ele>609.083</ele>
        <time>2022-07-03T15:39:41Z</time>
      </trkpt>
      <trkpt lat="42.747050" lon="-2.714042">
        <ele>608.960</ele>
        <time>2022-07-03T15:39:42Z</time>
      </trkpt>
      <trkpt lat="42.746982" lon="-2.713997">
        <ele>608.523</ele>
        <time>2022-07-03T15:39:43Z</time>
      </trkpt>
      <trkpt lat="42.746912" lon="-2.713957">
        <ele>607.914</ele>
        <time>2022-07-03T15:39:44Z</time>
      </trkpt>
      <trkpt lat="42.746839" lon="-2.713918">
        <ele>607.110</ele>
        <time>2022-07-03T15:39:45Z</time>
      </trkpt>
      <trkpt lat="42.746773" lon="-2.713864">
        <ele>606.143</ele>
        <time>2022-07-03T15:39:46Z</time>
      </trkpt>
      <trkpt lat="42.746706" lon="-2.713807">
        <ele>605.292</ele>
        <time>2022-07-03T15:39:47Z</time>
      </trkpt>
      <trkpt lat="42.746643" lon="-2.713751">
        <ele>604.682</ele>
        <time>2022-07-03T15:39:48Z</time>
      </trkpt>
      <trkpt lat="42.746577" lon="-2.713683">
        <ele>604.465</ele>
        <time>2022-07-03T15:39:49Z</time>
      </trkpt>
      <trkpt lat="42.746521" lon="-2.713612">
        <ele>604.168</ele>
        <time>2022-07-03T15:39:50Z</time>
      </trkpt>
      <trkpt lat="42.746464" lon="-2.713534">
        <ele>603.614</ele>
        <time>2022-07-03T15:39:51Z</time>
      </trkpt>
      <trkpt lat="42.746408" lon="-2.713457">
        <ele>603.309</ele>
        <time>2022-07-03T15:39:52Z</time>
      </trkpt>
      <trkpt lat="42.746347" lon="-2.713378">
        <ele>602.957</ele>
        <time>2022-07-03T15:39:53Z</time>
      </trkpt>
      <trkpt lat="42.746294" lon="-2.713295">
        <ele>602.546</ele>
        <time>2022-07-03T15:39:54Z</time>
      </trkpt>
      <trkpt lat="42.746242" lon="-2.713218">
        <ele>602.093</ele>
        <time>2022-07-03T15:39:55Z</time>
      </trkpt>
      <trkpt lat="42.746187" lon="-2.713110">
        <ele>601.616</ele>
        <time>2022-07-03T15:39:56Z</time>
      </trkpt>
      <trkpt lat="42.746130" lon="-2.713032">
        <ele>601.377</ele>
        <time>2022-07-03T15:39:57Z</time>
      </trkpt>
      <trkpt lat="42.746076" lon="-2.712960">
        <ele>600.993</ele>
        <time>2022-07-03T15:39:58Z</time>
      </trkpt>
      <trkpt lat="42.746023" lon="-2.712875">
        <ele>600.476</ele>
        <time>2022-07-03T15:39:59Z</time>
      </trkpt>
      <trkpt lat="42.745967" lon="-2.712808">
        <ele>600.065</ele>
        <time>2022-07-03T15:40:00Z</time>
      </trkpt>
      <trkpt lat="42.745912" lon="-2.712733">
        <ele>599.525</ele>
        <time>2022-07-03T15:40:01Z</time>
      </trkpt>
      <trkpt lat="42.745856" lon="-2.712656">
        <ele>599.036</ele>
        <time>2022-07-03T15:40:02Z</time>
      </trkpt>
      <trkpt lat="42.745812" lon="-2.712577">
        <ele>598.817</ele>
        <time>2022-07-03T15:40:03Z</time>
      </trkpt>
      <trkpt lat="42.745772" lon="-2.712470">
        <ele>598.618</ele>
        <time>2022-07-03T15:40:04Z</time>
      </trkpt>
      <trkpt lat="42.745724" lon="-2.712376">
        <ele>598.309</ele>
        <time>2022-07-03T15:40:05Z</time>
      </trkpt>
      <trkpt lat="42.745683" lon="-2.712272">
        <ele>597.954</ele>
        <time>2022-07-03T15:40:06Z</time>
      </trkpt>
      <trkpt lat="42.745639" lon="-2.712178">
        <ele>597.473</ele>
        <time>2022-07-03T15:40:07Z</time>
      </trkpt>
      <trkpt lat="42.745599" lon="-2.712085">
        <ele>596.810</ele>
        <time>2022-07-03T15:40:08Z</time>
      </trkpt>
      <trkpt lat="42.745548" lon="-2.711992">
        <ele>596.283</ele>
        <time>2022-07-03T15:40:09Z</time>
      </trkpt>
      <trkpt lat="42.745499" lon="-2.711875">
        <ele>595.684</ele>
        <time>2022-07-03T15:40:10Z</time>
      </trkpt>
      <trkpt lat="42.745457" lon="-2.711791">
        <ele>595.190</ele>
        <time>2022-07-03T15:40:11Z</time>
      </trkpt>
      <trkpt lat="42.745416" lon="-2.711690">
        <ele>594.683</ele>
        <time>2022-07-03T15:40:12Z</time>
      </trkpt>
      <trkpt lat="42.745382" lon="-2.711583">
        <ele>594.042</ele>
        <time>2022-07-03T15:40:13Z</time>
      </trkpt>
      <trkpt lat="42.745346" lon="-2.711491">
        <ele>593.512</ele>
        <time>2022-07-03T15:40:14Z</time>
      </trkpt>
      <trkpt lat="42.745327" lon="-2.711429">
        <ele>593.354</ele>
        <time>2022-07-03T15:40:15Z</time>
      </trkpt>
      <trkpt lat="42.745289" lon="-2.711358">
        <ele>593.056</ele>
        <time>2022-07-03T15:40:16Z</time>
      </trkpt>
      <trkpt lat="42.745250" lon="-2.711286">
        <ele>592.711</ele>
        <time>2022-07-03T15:40:17Z</time>
      </trkpt>
      <trkpt lat="42.745206" lon="-2.711214">
        <ele>592.109</ele>
        <time>2022-07-03T15:40:18Z</time>
      </trkpt>
      <trkpt lat="42.745159" lon="-2.711155">
        <ele>591.846</ele>
        <time>2022-07-03T15:40:19Z</time>
      </trkpt>
      <trkpt lat="42.745100" lon="-2.711091">
        <ele>591.145</ele>
        <time>2022-07-03T15:40:20Z</time>
      </trkpt>
      <trkpt lat="42.745037" lon="-2.711020">
        <ele>590.782</ele>
        <time>2022-07-03T15:40:21Z</time>
      </trkpt>
      <trkpt lat="42.744964" lon="-2.710959">
        <ele>590.345</ele>
        <time>2022-07-03T15:40:22Z</time>
      </trkpt>
      <trkpt lat="42.744893" lon="-2.710883">
        <ele>590.016</ele>
        <time>2022-07-03T15:40:23Z</time>
      </trkpt>
      <trkpt lat="42.744824" lon="-2.710824">
        <ele>589.812</ele>
        <time>2022-07-03T15:40:24Z</time>
      </trkpt>
      <trkpt lat="42.744754" lon="-2.710755">
        <ele>589.665</ele>
        <time>2022-07-03T15:40:25Z</time>
      </trkpt>
      <trkpt lat="42.744684" lon="-2.710687">
        <ele>589.364</ele>
        <time>2022-07-03T15:40:26Z</time>
      </trkpt>
      <trkpt lat="42.744609" lon="-2.710625">
        <ele>588.984</ele>
        <time>2022-07-03T15:40:27Z</time>
      </trkpt>
      <trkpt lat="42.744538" lon="-2.710555">
        <ele>588.437</ele>
        <time>2022-07-03T15:40:28Z</time>
      </trkpt>
      <trkpt lat="42.744472" lon="-2.710490">
        <ele>587.849</ele>
        <time>2022-07-03T15:40:29Z</time>
      </trkpt>
      <trkpt lat="42.744405" lon="-2.710428">
        <ele>587.213</ele>
        <time>2022-07-03T15:40:30Z</time>
      </trkpt>
      <trkpt lat="42.744332" lon="-2.710362">
        <ele>586.609</ele>
        <time>2022-07-03T15:40:31Z</time>
      </trkpt>
      <trkpt lat="42.744267" lon="-2.710305">
        <ele>586.234</ele>
        <time>2022-07-03T15:40:32Z</time>
      </trkpt>
      <trkpt lat="42.744197" lon="-2.710230">
        <ele>585.643</ele>
        <time>2022-07-03T15:40:33Z</time>
      </trkpt>
      <trkpt lat="42.744124" lon="-2.710154">
        <ele>584.970</ele>
        <time>2022-07-03T15:40:34Z</time>
      </trkpt>
      <trkpt lat="42.744054" lon="-2.710096">
        <ele>584.133</ele>
        <time>2022-07-03T15:40:35Z</time>
      </trkpt>
      <trkpt lat="42.743987" lon="-2.710033">
        <ele>583.394</ele>
        <time>2022-07-03T15:40:36Z</time>
      </trkpt>
      <trkpt lat="42.743922" lon="-2.709964">
        <ele>582.660</ele>
        <time>2022-07-03T15:40:37Z</time>
      </trkpt>
      <trkpt lat="42.743859" lon="-2.709901">
        <ele>582.223</ele>
        <time>2022-07-03T15:40:38Z</time>
      </trkpt>
      <trkpt lat="42.743809" lon="-2.709841">
        <ele>582.172</ele>
        <time>2022-07-03T15:40:39Z</time>
      </trkpt>
      <trkpt lat="42.743761" lon="-2.709792">
        <ele>582.192</ele>
        <time>2022-07-03T15:40:40Z</time>
      </trkpt>
      <trkpt lat="42.743729" lon="-2.709743">
        <ele>582.175</ele>
        <time>2022-07-03T15:40:41Z</time>
      </trkpt>
      <trkpt lat="42.743659" lon="-2.709693">
        <ele>582.028</ele>
        <time>2022-07-03T15:40:43Z</time>
      </trkpt>
      <trkpt lat="42.743582" lon="-2.709702">
        <ele>581.920</ele>
        <time>2022-07-03T15:40:45Z</time>
      </trkpt>
      <trkpt lat="42.743507" lon="-2.709739">
        <ele>581.009</ele>
        <time>2022-07-03T15:40:47Z</time>
      </trkpt>
      <trkpt lat="42.743434" lon="-2.709769">
        <ele>580.438</ele>
        <time>2022-07-03T15:40:49Z</time>
      </trkpt>
      <trkpt lat="42.743352" lon="-2.709815">
        <ele>580.037</ele>
        <time>2022-07-03T15:40:51Z</time>
      </trkpt>
      <trkpt lat="42.743272" lon="-2.709851">
        <ele>579.714</ele>
        <time>2022-07-03T15:40:53Z</time>
      </trkpt>
      <trkpt lat="42.743224" lon="-2.709869">
        <ele>579.757</ele>
        <time>2022-07-03T15:40:54Z</time>
      </trkpt>
      <trkpt lat="42.743178" lon="-2.709893">
        <ele>579.758</ele>
        <time>2022-07-03T15:40:55Z</time>
      </trkpt>
      <trkpt lat="42.743129" lon="-2.709909">
        <ele>579.774</ele>
        <time>2022-07-03T15:40:56Z</time>
      </trkpt>
      <trkpt lat="42.743080" lon="-2.709916">
        <ele>579.767</ele>
        <time>2022-07-03T15:40:57Z</time>
      </trkpt>
      <trkpt lat="42.743019" lon="-2.709929">
        <ele>579.636</ele>
        <time>2022-07-03T15:40:58Z</time>
      </trkpt>
      <trkpt lat="42.742965" lon="-2.709942">
        <ele>579.586</ele>
        <time>2022-07-03T15:40:59Z</time>
      </trkpt>
      <trkpt lat="42.742908" lon="-2.709948">
        <ele>579.477</ele>
        <time>2022-07-03T15:41:00Z</time>
      </trkpt>
      <trkpt lat="42.742861" lon="-2.709949">
        <ele>579.261</ele>
        <time>2022-07-03T15:41:01Z</time>
      </trkpt>
      <trkpt lat="42.742804" lon="-2.709949">
        <ele>579.127</ele>
        <time>2022-07-03T15:41:02Z</time>
      </trkpt>
      <trkpt lat="42.742735" lon="-2.709952">
        <ele>579.109</ele>
        <time>2022-07-03T15:41:03Z</time>
      </trkpt>
      <trkpt lat="42.742677" lon="-2.709944">
        <ele>579.078</ele>
        <time>2022-07-03T15:41:04Z</time>
      </trkpt>
      <trkpt lat="42.742619" lon="-2.709938">
        <ele>579.027</ele>
        <time>2022-07-03T15:41:05Z</time>
      </trkpt>
      <trkpt lat="42.742555" lon="-2.709932">
        <ele>579.014</ele>
        <time>2022-07-03T15:41:06Z</time>
      </trkpt>
      <trkpt lat="42.742490" lon="-2.709926">
        <ele>579.097</ele>
        <time>2022-07-03T15:41:07Z</time>
      </trkpt>
      <trkpt lat="42.742432" lon="-2.709920">
        <ele>578.988</ele>
        <time>2022-07-03T15:41:08Z</time>
      </trkpt>
      <trkpt lat="42.742362" lon="-2.709912">
        <ele>578.624</ele>
        <time>2022-07-03T15:41:09Z</time>
      </trkpt>
      <trkpt lat="42.742298" lon="-2.709906">
        <ele>578.547</ele>
        <time>2022-07-03T15:41:10Z</time>
      </trkpt>
      <trkpt lat="42.742227" lon="-2.709904">
        <ele>578.376</ele>
        <time>2022-07-03T15:41:11Z</time>
      </trkpt>
      <trkpt lat="42.742165" lon="-2.709901">
        <ele>578.086</ele>
        <time>2022-07-03T15:41:12Z</time>
      </trkpt>
      <trkpt lat="42.742096" lon="-2.709890">
        <ele>577.629</ele>
        <time>2022-07-03T15:41:13Z</time>
      </trkpt>
      <trkpt lat="42.742043" lon="-2.709884">
        <ele>577.400</ele>
        <time>2022-07-03T15:41:14Z</time>
      </trkpt>
      <trkpt lat="42.741975" lon="-2.709875">
        <ele>577.020</ele>
        <time>2022-07-03T15:41:15Z</time>
      </trkpt>
      <trkpt lat="42.741893" lon="-2.709873">
        <ele>576.809</ele>
        <time>2022-07-03T15:41:16Z</time>
      </trkpt>
      <trkpt lat="42.741831" lon="-2.709863">
        <ele>576.843</ele>
        <time>2022-07-03T15:41:17Z</time>
      </trkpt>
      <trkpt lat="42.741752" lon="-2.709859">
        <ele>576.722</ele>
        <time>2022-07-03T15:41:18Z</time>
      </trkpt>
      <trkpt lat="42.741677" lon="-2.709853">
        <ele>576.739</ele>
        <time>2022-07-03T15:41:19Z</time>
      </trkpt>
      <trkpt lat="42.741608" lon="-2.709847">
        <ele>576.662</ele>
        <time>2022-07-03T15:41:20Z</time>
      </trkpt>
      <trkpt lat="42.741544" lon="-2.709839">
        <ele>576.453</ele>
        <time>2022-07-03T15:41:21Z</time>
      </trkpt>
      <trkpt lat="42.741487" lon="-2.709832">
        <ele>576.359</ele>
        <time>2022-07-03T15:41:22Z</time>
      </trkpt>
      <trkpt lat="42.741427" lon="-2.709832">
        <ele>576.192</ele>
        <time>2022-07-03T15:41:23Z</time>
      </trkpt>
      <trkpt lat="42.741369" lon="-2.709819">
        <ele>575.681</ele>
        <time>2022-07-03T15:41:24Z</time>
      </trkpt>
      <trkpt lat="42.741305" lon="-2.709804">
        <ele>575.551</ele>
        <time>2022-07-03T15:41:25Z</time>
      </trkpt>
      <trkpt lat="42.741240" lon="-2.709787">
        <ele>575.418</ele>
        <time>2022-07-03T15:41:26Z</time>
      </trkpt>
      <trkpt lat="42.741184" lon="-2.709778">
        <ele>575.398</ele>
        <time>2022-07-03T15:41:27Z</time>
      </trkpt>
      <trkpt lat="42.741137" lon="-2.709773">
        <ele>575.317</ele>
        <time>2022-07-03T15:41:28Z</time>
      </trkpt>
      <trkpt lat="42.741080" lon="-2.709781">
        <ele>575.309</ele>
        <time>2022-07-03T15:41:29Z</time>
      </trkpt>
      <trkpt lat="42.741029" lon="-2.709785">
        <ele>575.372</ele>
        <time>2022-07-03T15:41:30Z</time>
      </trkpt>
      <trkpt lat="42.740981" lon="-2.709784">
        <ele>575.331</ele>
        <time>2022-07-03T15:41:31Z</time>
      </trkpt>
      <trkpt lat="42.740922" lon="-2.709781">
        <ele>575.388</ele>
        <time>2022-07-03T15:41:32Z</time>
      </trkpt>
      <trkpt lat="42.740872" lon="-2.709783">
        <ele>575.331</ele>
        <time>2022-07-03T15:41:33Z</time>
      </trkpt>
      <trkpt lat="42.740826" lon="-2.709789">
        <ele>575.312</ele>
        <time>2022-07-03T15:41:34Z</time>
      </trkpt>
      <trkpt lat="42.740780" lon="-2.709801">
        <ele>575.368</ele>
        <time>2022-07-03T15:41:35Z</time>
      </trkpt>
      <trkpt lat="42.740733" lon="-2.709798">
        <ele>575.231</ele>
        <time>2022-07-03T15:41:36Z</time>
      </trkpt>
      <trkpt lat="42.740671" lon="-2.709733">
        <ele>575.060</ele>
        <time>2022-07-03T15:41:38Z</time>
      </trkpt>
      <trkpt lat="42.740653" lon="-2.709666">
        <ele>574.960</ele>
        <time>2022-07-03T15:41:39Z</time>
      </trkpt>
      <trkpt lat="42.740680" lon="-2.709550">
        <ele>574.974</ele>
        <time>2022-07-03T15:41:41Z</time>
      </trkpt>
      <trkpt lat="42.740706" lon="-2.709426">
        <ele>575.056</ele>
        <time>2022-07-03T15:41:43Z</time>
      </trkpt>
      <trkpt lat="42.740719" lon="-2.709364">
        <ele>575.221</ele>
        <time>2022-07-03T15:41:44Z</time>
      </trkpt>
      <trkpt lat="42.740744" lon="-2.709300">
        <ele>575.209</ele>
        <time>2022-07-03T15:41:45Z</time>
      </trkpt>
      <trkpt lat="42.740749" lon="-2.709235">
        <ele>575.268</ele>
        <time>2022-07-03T15:41:46Z</time>
      </trkpt>
      <trkpt lat="42.740764" lon="-2.709169">
        <ele>575.127</ele>
        <time>2022-07-03T15:41:47Z</time>
      </trkpt>
      <trkpt lat="42.740787" lon="-2.709113">
        <ele>575.094</ele>
        <time>2022-07-03T15:41:48Z</time>
      </trkpt>
      <trkpt lat="42.740796" lon="-2.709047">
        <ele>574.887</ele>
        <time>2022-07-03T15:41:49Z</time>
      </trkpt>
      <trkpt lat="42.740805" lon="-2.708975">
        <ele>574.748</ele>
        <time>2022-07-03T15:41:50Z</time>
      </trkpt>
      <trkpt lat="42.740822" lon="-2.708912">
        <ele>574.744</ele>
        <time>2022-07-03T15:41:51Z</time>
      </trkpt>
      <trkpt lat="42.740837" lon="-2.708845">
        <ele>574.777</ele>
        <time>2022-07-03T15:41:52Z</time>
      </trkpt>
      <trkpt lat="42.740869" lon="-2.708772">
        <ele>574.736</ele>
        <time>2022-07-03T15:41:53Z</time>
      </trkpt>
      <trkpt lat="42.740882" lon="-2.708709">
        <ele>574.776</ele>
        <time>2022-07-03T15:41:54Z</time>
      </trkpt>
      <trkpt lat="42.740888" lon="-2.708637">
        <ele>574.744</ele>
        <time>2022-07-03T15:41:55Z</time>
      </trkpt>
      <trkpt lat="42.740920" lon="-2.708507">
        <ele>574.705</ele>
        <time>2022-07-03T15:41:57Z</time>
      </trkpt>
      <trkpt lat="42.740948" lon="-2.708388">
        <ele>574.815</ele>
        <time>2022-07-03T15:41:59Z</time>
      </trkpt>
      <trkpt lat="42.740968" lon="-2.708333">
        <ele>574.909</ele>
        <time>2022-07-03T15:42:00Z</time>
      </trkpt>
      <trkpt lat="42.740975" lon="-2.708214">
        <ele>575.125</ele>
        <time>2022-07-03T15:42:02Z</time>
      </trkpt>
      <trkpt lat="42.740991" lon="-2.708150">
        <ele>575.254</ele>
        <time>2022-07-03T15:42:03Z</time>
      </trkpt>
      <trkpt lat="42.741006" lon="-2.708046">
        <ele>575.321</ele>
        <time>2022-07-03T15:42:05Z</time>
      </trkpt>
      <trkpt lat="42.741045" lon="-2.707953">
        <ele>575.584</ele>
        <time>2022-07-03T15:42:07Z</time>
      </trkpt>
      <trkpt lat="42.741071" lon="-2.707842">
        <ele>575.985</ele>
        <time>2022-07-03T15:42:09Z</time>
      </trkpt>
      <trkpt lat="42.741077" lon="-2.707748">
        <ele>576.411</ele>
        <time>2022-07-03T15:42:11Z</time>
      </trkpt>
      <trkpt lat="42.741079" lon="-2.707668">
        <ele>576.754</ele>
        <time>2022-07-03T15:42:13Z</time>
      </trkpt>
      <trkpt lat="42.741106" lon="-2.707578">
        <ele>576.713</ele>
        <time>2022-07-03T15:42:15Z</time>
      </trkpt>
      <trkpt lat="42.741135" lon="-2.707494">
        <ele>576.723</ele>
        <time>2022-07-03T15:42:17Z</time>
      </trkpt>
      <trkpt lat="42.741160" lon="-2.707401">
        <ele>576.745</ele>
        <time>2022-07-03T15:42:19Z</time>
      </trkpt>
      <trkpt lat="42.741186" lon="-2.707317">
        <ele>576.947</ele>
        <time>2022-07-03T15:42:21Z</time>
      </trkpt>
      <trkpt lat="42.741218" lon="-2.707247">
        <ele>577.111</ele>
        <time>2022-07-03T15:42:23Z</time>
      </trkpt>
      <trkpt lat="42.741260" lon="-2.707165">
        <ele>577.509</ele>
        <time>2022-07-03T15:42:25Z</time>
      </trkpt>
      <trkpt lat="42.741298" lon="-2.707086">
        <ele>577.895</ele>
        <time>2022-07-03T15:42:27Z</time>
      </trkpt>
      <trkpt lat="42.741338" lon="-2.707008">
        <ele>578.244</ele>
        <time>2022-07-03T15:42:29Z</time>
      </trkpt>
      <trkpt lat="42.741389" lon="-2.706941">
        <ele>578.681</ele>
        <time>2022-07-03T15:42:31Z</time>
      </trkpt>
      <trkpt lat="42.741446" lon="-2.706879">
        <ele>579.084</ele>
        <time>2022-07-03T15:42:33Z</time>
      </trkpt>
      <trkpt lat="42.741487" lon="-2.706801">
        <ele>579.445</ele>
        <time>2022-07-03T15:42:35Z</time>
      </trkpt>
      <trkpt lat="42.741529" lon="-2.706720">
        <ele>579.841</ele>
        <time>2022-07-03T15:42:37Z</time>
      </trkpt>
      <trkpt lat="42.741584" lon="-2.706652">
        <ele>580.184</ele>
        <time>2022-07-03T15:42:39Z</time>
      </trkpt>
      <trkpt lat="42.741631" lon="-2.706581">
        <ele>580.433</ele>
        <time>2022-07-03T15:42:41Z</time>
      </trkpt>
      <trkpt lat="42.741668" lon="-2.706493">
        <ele>580.683</ele>
        <time>2022-07-03T15:42:43Z</time>
      </trkpt>
      <trkpt lat="42.741708" lon="-2.706415">
        <ele>580.786</ele>
        <time>2022-07-03T15:42:45Z</time>
      </trkpt>
      <trkpt lat="42.741763" lon="-2.706341">
        <ele>580.860</ele>
        <time>2022-07-03T15:42:47Z</time>
      </trkpt>
      <trkpt lat="42.741812" lon="-2.706271">
        <ele>580.926</ele>
        <time>2022-07-03T15:42:49Z</time>
      </trkpt>
      <trkpt lat="42.741850" lon="-2.706201">
        <ele>581.009</ele>
        <time>2022-07-03T15:42:51Z</time>
      </trkpt>
      <trkpt lat="42.741888" lon="-2.706115">
        <ele>581.119</ele>
        <time>2022-07-03T15:42:53Z</time>
      </trkpt>
      <trkpt lat="42.741936" lon="-2.706030">
        <ele>581.348</ele>
        <time>2022-07-03T15:42:55Z</time>
      </trkpt>
      <trkpt lat="42.741986" lon="-2.705953">
        <ele>581.535</ele>
        <time>2022-07-03T15:42:57Z</time>
      </trkpt>
      <trkpt lat="42.742027" lon="-2.705877">
        <ele>581.848</ele>
        <time>2022-07-03T15:42:59Z</time>
      </trkpt>
      <trkpt lat="42.742064" lon="-2.705800">
        <ele>582.159</ele>
        <time>2022-07-03T15:43:01Z</time>
      </trkpt>
      <trkpt lat="42.742099" lon="-2.705717">
        <ele>582.465</ele>
        <time>2022-07-03T15:43:03Z</time>
      </trkpt>
      <trkpt lat="42.742134" lon="-2.705625">
        <ele>582.658</ele>
        <time>2022-07-03T15:43:05Z</time>
      </trkpt>
      <trkpt lat="42.742164" lon="-2.705536">
        <ele>582.857</ele>
        <time>2022-07-03T15:43:07Z</time>
      </trkpt>
      <trkpt lat="42.742182" lon="-2.705444">
        <ele>583.167</ele>
        <time>2022-07-03T15:43:09Z</time>
      </trkpt>
      <trkpt lat="42.742189" lon="-2.705343">
        <ele>583.539</ele>
        <time>2022-07-03T15:43:11Z</time>
      </trkpt>
      <trkpt lat="42.742193" lon="-2.705240">
        <ele>583.701</ele>
        <time>2022-07-03T15:43:13Z</time>
      </trkpt>
      <trkpt lat="42.742197" lon="-2.705137">
        <ele>583.721</ele>
        <time>2022-07-03T15:43:15Z</time>
      </trkpt>
      <trkpt lat="42.742202" lon="-2.705031">
        <ele>583.609</ele>
        <time>2022-07-03T15:43:17Z</time>
      </trkpt>
      <trkpt lat="42.742205" lon="-2.704920">
        <ele>583.624</ele>
        <time>2022-07-03T15:43:19Z</time>
      </trkpt>
      <trkpt lat="42.742210" lon="-2.704812">
        <ele>583.673</ele>
        <time>2022-07-03T15:43:21Z</time>
      </trkpt>
      <trkpt lat="42.742218" lon="-2.704712">
        <ele>583.740</ele>
        <time>2022-07-03T15:43:23Z</time>
      </trkpt>
      <trkpt lat="42.742227" lon="-2.704610">
        <ele>583.923</ele>
        <time>2022-07-03T15:43:25Z</time>
      </trkpt>
      <trkpt lat="42.742238" lon="-2.704515">
        <ele>584.274</ele>
        <time>2022-07-03T15:43:27Z</time>
      </trkpt>
      <trkpt lat="42.742253" lon="-2.704426">
        <ele>584.510</ele>
        <time>2022-07-03T15:43:29Z</time>
      </trkpt>
      <trkpt lat="42.742275" lon="-2.704331">
        <ele>584.993</ele>
        <time>2022-07-03T15:43:31Z</time>
      </trkpt>
      <trkpt lat="42.742288" lon="-2.704229">
        <ele>585.172</ele>
        <time>2022-07-03T15:43:33Z</time>
      </trkpt>
      <trkpt lat="42.742294" lon="-2.704132">
        <ele>585.252</ele>
        <time>2022-07-03T15:43:35Z</time>
      </trkpt>
      <trkpt lat="42.742292" lon="-2.704037">
        <ele>585.477</ele>
        <time>2022-07-03T15:43:37Z</time>
      </trkpt>
      <trkpt lat="42.742292" lon="-2.703948">
        <ele>585.861</ele>
        <time>2022-07-03T15:43:39Z</time>
      </trkpt>
      <trkpt lat="42.742294" lon="-2.703867">
        <ele>586.027</ele>
        <time>2022-07-03T15:43:41Z</time>
      </trkpt>
      <trkpt lat="42.742300" lon="-2.703789">
        <ele>586.409</ele>
        <time>2022-07-03T15:43:43Z</time>
      </trkpt>
      <trkpt lat="42.742311" lon="-2.703712">
        <ele>586.898</ele>
        <time>2022-07-03T15:43:45Z</time>
      </trkpt>
      <trkpt lat="42.742318" lon="-2.703635">
        <ele>587.197</ele>
        <time>2022-07-03T15:43:47Z</time>
      </trkpt>
      <trkpt lat="42.742337" lon="-2.703561">
        <ele>587.684</ele>
        <time>2022-07-03T15:43:49Z</time>
      </trkpt>
      <trkpt lat="42.742365" lon="-2.703489">
        <ele>588.247</ele>
        <time>2022-07-03T15:43:51Z</time>
      </trkpt>
      <trkpt lat="42.742389" lon="-2.703418">
        <ele>588.948</ele>
        <time>2022-07-03T15:43:53Z</time>
      </trkpt>
      <trkpt lat="42.742416" lon="-2.703343">
        <ele>589.494</ele>
        <time>2022-07-03T15:43:55Z</time>
      </trkpt>
      <trkpt lat="42.742451" lon="-2.703267">
        <ele>589.947</ele>
        <time>2022-07-03T15:43:57Z</time>
      </trkpt>
      <trkpt lat="42.742483" lon="-2.703198">
        <ele>590.576</ele>
        <time>2022-07-03T15:43:59Z</time>
      </trkpt>
      <trkpt lat="42.742517" lon="-2.703140">
        <ele>590.736</ele>
        <time>2022-07-03T15:44:01Z</time>
      </trkpt>
      <trkpt lat="42.742551" lon="-2.703088">
        <ele>591.041</ele>
        <time>2022-07-03T15:44:03Z</time>
      </trkpt>
      <trkpt lat="42.742589" lon="-2.703038">
        <ele>591.581</ele>
        <time>2022-07-03T15:44:05Z</time>
      </trkpt>
      <trkpt lat="42.742624" lon="-2.702992">
        <ele>591.909</ele>
        <time>2022-07-03T15:44:07Z</time>
      </trkpt>
      <trkpt lat="42.742658" lon="-2.702941">
        <ele>592.609</ele>
        <time>2022-07-03T15:44:09Z</time>
      </trkpt>
      <trkpt lat="42.742699" lon="-2.702885">
        <ele>593.195</ele>
        <time>2022-07-03T15:44:11Z</time>
      </trkpt>
      <trkpt lat="42.742741" lon="-2.702831">
        <ele>593.424</ele>
        <time>2022-07-03T15:44:13Z</time>
      </trkpt>
      <trkpt lat="42.742783" lon="-2.702785">
        <ele>593.781</ele>
        <time>2022-07-03T15:44:15Z</time>
      </trkpt>
      <trkpt lat="42.742822" lon="-2.702734">
        <ele>594.144</ele>
        <time>2022-07-03T15:44:17Z</time>
      </trkpt>
      <trkpt lat="42.742850" lon="-2.702669">
        <ele>594.445</ele>
        <time>2022-07-03T15:44:19Z</time>
      </trkpt>
      <trkpt lat="42.742876" lon="-2.702600">
        <ele>594.911</ele>
        <time>2022-07-03T15:44:21Z</time>
      </trkpt>
      <trkpt lat="42.742910" lon="-2.702532">
        <ele>595.764</ele>
        <time>2022-07-03T15:44:23Z</time>
      </trkpt>
      <trkpt lat="42.742949" lon="-2.702465">
        <ele>596.133</ele>
        <time>2022-07-03T15:44:25Z</time>
      </trkpt>
      <trkpt lat="42.742983" lon="-2.702390">
        <ele>596.563</ele>
        <time>2022-07-03T15:44:27Z</time>
      </trkpt>
      <trkpt lat="42.743016" lon="-2.702316">
        <ele>596.796</ele>
        <time>2022-07-03T15:44:29Z</time>
      </trkpt>
      <trkpt lat="42.743047" lon="-2.702241">
        <ele>597.131</ele>
        <time>2022-07-03T15:44:31Z</time>
      </trkpt>
      <trkpt lat="42.743082" lon="-2.702164">
        <ele>597.624</ele>
        <time>2022-07-03T15:44:33Z</time>
      </trkpt>
      <trkpt lat="42.743116" lon="-2.702090">
        <ele>597.809</ele>
        <time>2022-07-03T15:44:35Z</time>
      </trkpt>
      <trkpt lat="42.743150" lon="-2.702015">
        <ele>598.060</ele>
        <time>2022-07-03T15:44:37Z</time>
      </trkpt>
      <trkpt lat="42.743183" lon="-2.701943">
        <ele>598.879</ele>
        <time>2022-07-03T15:44:39Z</time>
      </trkpt>
      <trkpt lat="42.743216" lon="-2.701867">
        <ele>599.776</ele>
        <time>2022-07-03T15:44:41Z</time>
      </trkpt>
      <trkpt lat="42.743258" lon="-2.701783">
        <ele>599.779</ele>
        <time>2022-07-03T15:44:43Z</time>
      </trkpt>
      <trkpt lat="42.743299" lon="-2.701701">
        <ele>599.720</ele>
        <time>2022-07-03T15:44:45Z</time>
      </trkpt>
      <trkpt lat="42.743351" lon="-2.701615">
        <ele>599.576</ele>
        <time>2022-07-03T15:44:47Z</time>
      </trkpt>
      <trkpt lat="42.743391" lon="-2.701541">
        <ele>599.539</ele>
        <time>2022-07-03T15:44:49Z</time>
      </trkpt>
      <trkpt lat="42.743422" lon="-2.701473">
        <ele>599.688</ele>
        <time>2022-07-03T15:44:52Z</time>
      </trkpt>
      <trkpt lat="42.743442" lon="-2.701413">
        <ele>599.758</ele>
        <time>2022-07-03T15:44:54Z</time>
      </trkpt>
      <trkpt lat="42.743459" lon="-2.701337">
        <ele>600.126</ele>
        <time>2022-07-03T15:44:56Z</time>
      </trkpt>
      <trkpt lat="42.743485" lon="-2.701262">
        <ele>600.347</ele>
        <time>2022-07-03T15:44:58Z</time>
      </trkpt>
      <trkpt lat="42.743513" lon="-2.701195">
        <ele>600.611</ele>
        <time>2022-07-03T15:45:00Z</time>
      </trkpt>
      <trkpt lat="42.743541" lon="-2.701124">
        <ele>600.809</ele>
        <time>2022-07-03T15:45:02Z</time>
      </trkpt>
      <trkpt lat="42.743572" lon="-2.701050">
        <ele>601.273</ele>
        <time>2022-07-03T15:45:04Z</time>
      </trkpt>
      <trkpt lat="42.743607" lon="-2.700976">
        <ele>601.362</ele>
        <time>2022-07-03T15:45:06Z</time>
      </trkpt>
      <trkpt lat="42.743653" lon="-2.700882">
        <ele>601.649</ele>
        <time>2022-07-03T15:45:08Z</time>
      </trkpt>
      <trkpt lat="42.743693" lon="-2.700786">
        <ele>601.892</ele>
        <time>2022-07-03T15:45:10Z</time>
      </trkpt>
      <trkpt lat="42.743718" lon="-2.700705">
        <ele>601.933</ele>
        <time>2022-07-03T15:45:12Z</time>
      </trkpt>
      <trkpt lat="42.743742" lon="-2.700619">
        <ele>602.159</ele>
        <time>2022-07-03T15:45:14Z</time>
      </trkpt>
      <trkpt lat="42.743802" lon="-2.700513">
        <ele>602.412</ele>
        <time>2022-07-03T15:45:15Z</time>
      </trkpt>
      <trkpt lat="42.743803" lon="-2.700432">
        <ele>602.761</ele>
        <time>2022-07-03T15:45:17Z</time>
      </trkpt>
      <trkpt lat="42.743772" lon="-2.700368">
        <ele>602.731</ele>
        <time>2022-07-03T15:45:18Z</time>
      </trkpt>
      <trkpt lat="42.743785" lon="-2.700281">
        <ele>602.752</ele>
        <time>2022-07-03T15:45:20Z</time>
      </trkpt>
      <trkpt lat="42.743794" lon="-2.700175">
        <ele>602.753</ele>
        <time>2022-07-03T15:45:22Z</time>
      </trkpt>
      <trkpt lat="42.743792" lon="-2.700113">
        <ele>602.708</ele>
        <time>2022-07-03T15:45:23Z</time>
      </trkpt>
      <trkpt lat="42.743798" lon="-2.700019">
        <ele>602.809</ele>
        <time>2022-07-03T15:45:25Z</time>
      </trkpt>
      <trkpt lat="42.743800" lon="-2.699917">
        <ele>603.046</ele>
        <time>2022-07-03T15:45:27Z</time>
      </trkpt>
      <trkpt lat="42.743798" lon="-2.699825">
        <ele>603.485</ele>
        <time>2022-07-03T15:45:29Z</time>
      </trkpt>
      <trkpt lat="42.743793" lon="-2.699732">
        <ele>603.842</ele>
        <time>2022-07-03T15:45:31Z</time>
      </trkpt>
      <trkpt lat="42.743793" lon="-2.699638">
        <ele>603.835</ele>
        <time>2022-07-03T15:45:33Z</time>
      </trkpt>
      <trkpt lat="42.743798" lon="-2.699546">
        <ele>603.816</ele>
        <time>2022-07-03T15:45:35Z</time>
      </trkpt>
      <trkpt lat="42.743791" lon="-2.699450">
        <ele>603.812</ele>
        <time>2022-07-03T15:45:37Z</time>
      </trkpt>
      <trkpt lat="42.743782" lon="-2.699354">
        <ele>603.845</ele>
        <time>2022-07-03T15:45:39Z</time>
      </trkpt>
      <trkpt lat="42.743771" lon="-2.699252">
        <ele>603.964</ele>
        <time>2022-07-03T15:45:41Z</time>
      </trkpt>
      <trkpt lat="42.743752" lon="-2.699150">
        <ele>604.284</ele>
        <time>2022-07-03T15:45:43Z</time>
      </trkpt>
      <trkpt lat="42.743732" lon="-2.699039">
        <ele>604.542</ele>
        <time>2022-07-03T15:45:45Z</time>
      </trkpt>
      <trkpt lat="42.743701" lon="-2.698949">
        <ele>604.822</ele>
        <time>2022-07-03T15:45:47Z</time>
      </trkpt>
      <trkpt lat="42.743664" lon="-2.698853">
        <ele>605.114</ele>
        <time>2022-07-03T15:45:49Z</time>
      </trkpt>
      <trkpt lat="42.743643" lon="-2.698794">
        <ele>605.409</ele>
        <time>2022-07-03T15:45:50Z</time>
      </trkpt>
      <trkpt lat="42.743621" lon="-2.698736">
        <ele>605.515</ele>
        <time>2022-07-03T15:45:51Z</time>
      </trkpt>
      <trkpt lat="42.743582" lon="-2.698639">
        <ele>605.734</ele>
        <time>2022-07-03T15:45:53Z</time>
      </trkpt>
      <trkpt lat="42.743540" lon="-2.698546">
        <ele>605.891</ele>
        <time>2022-07-03T15:45:55Z</time>
      </trkpt>
      <trkpt lat="42.743497" lon="-2.698450">
        <ele>606.114</ele>
        <time>2022-07-03T15:45:57Z</time>
      </trkpt>
      <trkpt lat="42.743451" lon="-2.698354">
        <ele>606.145</ele>
        <time>2022-07-03T15:45:59Z</time>
      </trkpt>
      <trkpt lat="42.743395" lon="-2.698264">
        <ele>606.121</ele>
        <time>2022-07-03T15:46:01Z</time>
      </trkpt>
      <trkpt lat="42.743336" lon="-2.698193">
        <ele>606.174</ele>
        <time>2022-07-03T15:46:03Z</time>
      </trkpt>
      <trkpt lat="42.743269" lon="-2.698145">
        <ele>606.113</ele>
        <time>2022-07-03T15:46:05Z</time>
      </trkpt>
      <trkpt lat="42.743195" lon="-2.698105">
        <ele>606.293</ele>
        <time>2022-07-03T15:46:07Z</time>
      </trkpt>
      <trkpt lat="42.743125" lon="-2.698083">
        <ele>606.324</ele>
        <time>2022-07-03T15:46:09Z</time>
      </trkpt>
      <trkpt lat="42.743056" lon="-2.698050">
        <ele>606.504</ele>
        <time>2022-07-03T15:46:11Z</time>
      </trkpt>
      <trkpt lat="42.742991" lon="-2.698013">
        <ele>606.914</ele>
        <time>2022-07-03T15:46:13Z</time>
      </trkpt>
      <trkpt lat="42.742922" lon="-2.697967">
        <ele>607.309</ele>
        <time>2022-07-03T15:46:15Z</time>
      </trkpt>
      <trkpt lat="42.742865" lon="-2.697927">
        <ele>607.733</ele>
        <time>2022-07-03T15:46:17Z</time>
      </trkpt>
      <trkpt lat="42.742804" lon="-2.697890">
        <ele>607.912</ele>
        <time>2022-07-03T15:46:19Z</time>
      </trkpt>
      <trkpt lat="42.742736" lon="-2.697848">
        <ele>608.179</ele>
        <time>2022-07-03T15:46:21Z</time>
      </trkpt>
      <trkpt lat="42.742665" lon="-2.697807">
        <ele>608.352</ele>
        <time>2022-07-03T15:46:23Z</time>
      </trkpt>
      <trkpt lat="42.742594" lon="-2.697767">
        <ele>608.633</ele>
        <time>2022-07-03T15:46:25Z</time>
      </trkpt>
      <trkpt lat="42.742529" lon="-2.697715">
        <ele>608.949</ele>
        <time>2022-07-03T15:46:27Z</time>
      </trkpt>
      <trkpt lat="42.742485" lon="-2.697668">
        <ele>609.242</ele>
        <time>2022-07-03T15:46:29Z</time>
      </trkpt>
      <trkpt lat="42.742452" lon="-2.697609">
        <ele>609.311</ele>
        <time>2022-07-03T15:46:31Z</time>
      </trkpt>
      <trkpt lat="42.742408" lon="-2.697536">
        <ele>609.611</ele>
        <time>2022-07-03T15:46:33Z</time>
      </trkpt>
      <trkpt lat="42.742369" lon="-2.697495">
        <ele>609.848</ele>
        <time>2022-07-03T15:46:34Z</time>
      </trkpt>
      <trkpt lat="42.742332" lon="-2.697458">
        <ele>610.161</ele>
        <time>2022-07-03T15:46:35Z</time>
      </trkpt>
      <trkpt lat="42.742267" lon="-2.697406">
        <ele>610.317</ele>
        <time>2022-07-03T15:46:37Z</time>
      </trkpt>
      <trkpt lat="42.742204" lon="-2.697364">
        <ele>610.609</ele>
        <time>2022-07-03T15:46:39Z</time>
      </trkpt>
      <trkpt lat="42.742153" lon="-2.697312">
        <ele>611.375</ele>
        <time>2022-07-03T15:46:41Z</time>
      </trkpt>
      <trkpt lat="42.742108" lon="-2.697255">
        <ele>612.164</ele>
        <time>2022-07-03T15:46:43Z</time>
      </trkpt>
      <trkpt lat="42.742082" lon="-2.697185">
        <ele>612.471</ele>
        <time>2022-07-03T15:46:45Z</time>
      </trkpt>
      <trkpt lat="42.742039" lon="-2.697081">
        <ele>613.474</ele>
        <time>2022-07-03T15:46:47Z</time>
      </trkpt>
      <trkpt lat="42.741996" lon="-2.696994">
        <ele>614.045</ele>
        <time>2022-07-03T15:46:49Z</time>
      </trkpt>
      <trkpt lat="42.741971" lon="-2.696913">
        <ele>614.771</ele>
        <time>2022-07-03T15:46:51Z</time>
      </trkpt>
      <trkpt lat="42.741948" lon="-2.696834">
        <ele>615.264</ele>
        <time>2022-07-03T15:46:53Z</time>
      </trkpt>
      <trkpt lat="42.741922" lon="-2.696754">
        <ele>615.323</ele>
        <time>2022-07-03T15:46:55Z</time>
      </trkpt>
      <trkpt lat="42.741905" lon="-2.696675">
        <ele>616.143</ele>
        <time>2022-07-03T15:46:57Z</time>
      </trkpt>
      <trkpt lat="42.741897" lon="-2.696593">
        <ele>616.761</ele>
        <time>2022-07-03T15:46:59Z</time>
      </trkpt>
      <trkpt lat="42.741886" lon="-2.696514">
        <ele>617.221</ele>
        <time>2022-07-03T15:47:01Z</time>
      </trkpt>
      <trkpt lat="42.741873" lon="-2.696433">
        <ele>617.613</ele>
        <time>2022-07-03T15:47:03Z</time>
      </trkpt>
      <trkpt lat="42.741864" lon="-2.696353">
        <ele>618.309</ele>
        <time>2022-07-03T15:47:05Z</time>
      </trkpt>
      <trkpt lat="42.741856" lon="-2.696273">
        <ele>618.977</ele>
        <time>2022-07-03T15:47:07Z</time>
      </trkpt>
      <trkpt lat="42.741846" lon="-2.696187">
        <ele>619.456</ele>
        <time>2022-07-03T15:47:09Z</time>
      </trkpt>
      <trkpt lat="42.741836" lon="-2.696098">
        <ele>620.063</ele>
        <time>2022-07-03T15:47:11Z</time>
      </trkpt>
      <trkpt lat="42.741828" lon="-2.696014">
        <ele>620.576</ele>
        <time>2022-07-03T15:47:13Z</time>
      </trkpt>
      <trkpt lat="42.741820" lon="-2.695929">
        <ele>620.997</ele>
        <time>2022-07-03T15:47:15Z</time>
      </trkpt>
      <trkpt lat="42.741804" lon="-2.695835">
        <ele>621.213</ele>
        <time>2022-07-03T15:47:17Z</time>
      </trkpt>
      <trkpt lat="42.741782" lon="-2.695735">
        <ele>621.626</ele>
        <time>2022-07-03T15:47:19Z</time>
      </trkpt>
      <trkpt lat="42.741767" lon="-2.695634">
        <ele>622.055</ele>
        <time>2022-07-03T15:47:21Z</time>
      </trkpt>
      <trkpt lat="42.741752" lon="-2.695534">
        <ele>622.125</ele>
        <time>2022-07-03T15:47:23Z</time>
      </trkpt>
      <trkpt lat="42.741736" lon="-2.695437">
        <ele>622.134</ele>
        <time>2022-07-03T15:47:25Z</time>
      </trkpt>
      <trkpt lat="42.741724" lon="-2.695338">
        <ele>622.155</ele>
        <time>2022-07-03T15:47:27Z</time>
      </trkpt>
      <trkpt lat="42.741714" lon="-2.695241">
        <ele>622.210</ele>
        <time>2022-07-03T15:47:29Z</time>
      </trkpt>
      <trkpt lat="42.741705" lon="-2.695156">
        <ele>622.509</ele>
        <time>2022-07-03T15:47:31Z</time>
      </trkpt>
      <trkpt lat="42.741690" lon="-2.695074">
        <ele>622.974</ele>
        <time>2022-07-03T15:47:33Z</time>
      </trkpt>
      <trkpt lat="42.741670" lon="-2.694992">
        <ele>623.233</ele>
        <time>2022-07-03T15:47:35Z</time>
      </trkpt>
      <trkpt lat="42.741661" lon="-2.694910">
        <ele>623.520</ele>
        <time>2022-07-03T15:47:37Z</time>
      </trkpt>
      <trkpt lat="42.741658" lon="-2.694822">
        <ele>623.983</ele>
        <time>2022-07-03T15:47:39Z</time>
      </trkpt>
      <trkpt lat="42.741658" lon="-2.694733">
        <ele>624.694</ele>
        <time>2022-07-03T15:47:41Z</time>
      </trkpt>
      <trkpt lat="42.741661" lon="-2.694645">
        <ele>625.280</ele>
        <time>2022-07-03T15:47:43Z</time>
      </trkpt>
      <trkpt lat="42.741668" lon="-2.694558">
        <ele>625.473</ele>
        <time>2022-07-03T15:47:45Z</time>
      </trkpt>
      <trkpt lat="42.741677" lon="-2.694474">
        <ele>625.622</ele>
        <time>2022-07-03T15:47:47Z</time>
      </trkpt>
      <trkpt lat="42.741694" lon="-2.694394">
        <ele>626.132</ele>
        <time>2022-07-03T15:47:49Z</time>
      </trkpt>
      <trkpt lat="42.741715" lon="-2.694319">
        <ele>626.775</ele>
        <time>2022-07-03T15:47:51Z</time>
      </trkpt>
      <trkpt lat="42.741718" lon="-2.694235">
        <ele>627.228</ele>
        <time>2022-07-03T15:47:53Z</time>
      </trkpt>
      <trkpt lat="42.741711" lon="-2.694142">
        <ele>627.620</ele>
        <time>2022-07-03T15:47:55Z</time>
      </trkpt>
      <trkpt lat="42.741716" lon="-2.694052">
        <ele>627.909</ele>
        <time>2022-07-03T15:47:57Z</time>
      </trkpt>
      <trkpt lat="42.741725" lon="-2.693959">
        <ele>628.178</ele>
        <time>2022-07-03T15:47:59Z</time>
      </trkpt>
      <trkpt lat="42.741734" lon="-2.693867">
        <ele>628.777</ele>
        <time>2022-07-03T15:48:01Z</time>
      </trkpt>
      <trkpt lat="42.741744" lon="-2.693777">
        <ele>629.144</ele>
        <time>2022-07-03T15:48:03Z</time>
      </trkpt>
      <trkpt lat="42.741753" lon="-2.693688">
        <ele>629.587</ele>
        <time>2022-07-03T15:48:05Z</time>
      </trkpt>
      <trkpt lat="42.741761" lon="-2.693596">
        <ele>630.038</ele>
        <time>2022-07-03T15:48:07Z</time>
      </trkpt>
      <trkpt lat="42.741770" lon="-2.693502">
        <ele>630.374</ele>
        <time>2022-07-03T15:48:09Z</time>
      </trkpt>
      <trkpt lat="42.741779" lon="-2.693404">
        <ele>630.557</ele>
        <time>2022-07-03T15:48:11Z</time>
      </trkpt>
      <trkpt lat="42.741786" lon="-2.693302">
        <ele>630.836</ele>
        <time>2022-07-03T15:48:13Z</time>
      </trkpt>
      <trkpt lat="42.741797" lon="-2.693195">
        <ele>631.026</ele>
        <time>2022-07-03T15:48:15Z</time>
      </trkpt>
      <trkpt lat="42.741808" lon="-2.693089">
        <ele>631.082</ele>
        <time>2022-07-03T15:48:17Z</time>
      </trkpt>
      <trkpt lat="42.741823" lon="-2.692988">
        <ele>631.043</ele>
        <time>2022-07-03T15:48:19Z</time>
      </trkpt>
      <trkpt lat="42.741833" lon="-2.692881">
        <ele>631.117</ele>
        <time>2022-07-03T15:48:21Z</time>
      </trkpt>
      <trkpt lat="42.741837" lon="-2.692771">
        <ele>631.309</ele>
        <time>2022-07-03T15:48:23Z</time>
      </trkpt>
      <trkpt lat="42.741842" lon="-2.692661">
        <ele>631.429</ele>
        <time>2022-07-03T15:48:25Z</time>
      </trkpt>
      <trkpt lat="42.741853" lon="-2.692546">
        <ele>631.428</ele>
        <time>2022-07-03T15:48:27Z</time>
      </trkpt>
      <trkpt lat="42.741859" lon="-2.692411">
        <ele>631.615</ele>
        <time>2022-07-03T15:48:29Z</time>
      </trkpt>
      <trkpt lat="42.741859" lon="-2.692290">
        <ele>631.878</ele>
        <time>2022-07-03T15:48:31Z</time>
      </trkpt>
      <trkpt lat="42.741859" lon="-2.692168">
        <ele>631.859</ele>
        <time>2022-07-03T15:48:33Z</time>
      </trkpt>
      <trkpt lat="42.741848" lon="-2.692103">
        <ele>631.825</ele>
        <time>2022-07-03T15:48:34Z</time>
      </trkpt>
      <trkpt lat="42.741835" lon="-2.692032">
        <ele>631.928</ele>
        <time>2022-07-03T15:48:35Z</time>
      </trkpt>
      <trkpt lat="42.741820" lon="-2.691960">
        <ele>632.037</ele>
        <time>2022-07-03T15:48:36Z</time>
      </trkpt>
      <trkpt lat="42.741810" lon="-2.691870">
        <ele>632.147</ele>
        <time>2022-07-03T15:48:37Z</time>
      </trkpt>
      <trkpt lat="42.741794" lon="-2.691780">
        <ele>632.175</ele>
        <time>2022-07-03T15:48:38Z</time>
      </trkpt>
      <trkpt lat="42.741784" lon="-2.691683">
        <ele>632.128</ele>
        <time>2022-07-03T15:48:39Z</time>
      </trkpt>
      <trkpt lat="42.741762" lon="-2.691585">
        <ele>631.420</ele>
        <time>2022-07-03T15:48:40Z</time>
      </trkpt>
      <trkpt lat="42.741746" lon="-2.691476">
        <ele>630.809</ele>
        <time>2022-07-03T15:48:41Z</time>
      </trkpt>
      <trkpt lat="42.741724" lon="-2.691368">
        <ele>630.158</ele>
        <time>2022-07-03T15:48:42Z</time>
      </trkpt>
      <trkpt lat="42.741699" lon="-2.691249">
        <ele>629.457</ele>
        <time>2022-07-03T15:48:43Z</time>
      </trkpt>
      <trkpt lat="42.741676" lon="-2.691132">
        <ele>628.994</ele>
        <time>2022-07-03T15:48:44Z</time>
      </trkpt>
      <trkpt lat="42.741652" lon="-2.691015">
        <ele>628.587</ele>
        <time>2022-07-03T15:48:45Z</time>
      </trkpt>
      <trkpt lat="42.741626" lon="-2.690888">
        <ele>627.928</ele>
        <time>2022-07-03T15:48:46Z</time>
      </trkpt>
      <trkpt lat="42.741596" lon="-2.690754">
        <ele>627.384</ele>
        <time>2022-07-03T15:48:47Z</time>
      </trkpt>
      <trkpt lat="42.741576" lon="-2.690620">
        <ele>626.797</ele>
        <time>2022-07-03T15:48:48Z</time>
      </trkpt>
      <trkpt lat="42.741557" lon="-2.690487">
        <ele>626.256</ele>
        <time>2022-07-03T15:48:49Z</time>
      </trkpt>
      <trkpt lat="42.741550" lon="-2.690348">
        <ele>625.686</ele>
        <time>2022-07-03T15:48:50Z</time>
      </trkpt>
      <trkpt lat="42.741557" lon="-2.690211">
        <ele>625.016</ele>
        <time>2022-07-03T15:48:51Z</time>
      </trkpt>
      <trkpt lat="42.741576" lon="-2.690072">
        <ele>624.576</ele>
        <time>2022-07-03T15:48:52Z</time>
      </trkpt>
      <trkpt lat="42.741606" lon="-2.689934">
        <ele>624.013</ele>
        <time>2022-07-03T15:48:53Z</time>
      </trkpt>
      <trkpt lat="42.741633" lon="-2.689799">
        <ele>623.409</ele>
        <time>2022-07-03T15:48:54Z</time>
      </trkpt>
      <trkpt lat="42.741665" lon="-2.689656">
        <ele>622.852</ele>
        <time>2022-07-03T15:48:55Z</time>
      </trkpt>
      <trkpt lat="42.741692" lon="-2.689521">
        <ele>622.871</ele>
        <time>2022-07-03T15:48:56Z</time>
      </trkpt>
      <trkpt lat="42.741720" lon="-2.689380">
        <ele>622.188</ele>
        <time>2022-07-03T15:48:57Z</time>
      </trkpt>
      <trkpt lat="42.741750" lon="-2.689239">
        <ele>621.421</ele>
        <time>2022-07-03T15:48:58Z</time>
      </trkpt>
      <trkpt lat="42.741770" lon="-2.689099">
        <ele>620.522</ele>
        <time>2022-07-03T15:48:59Z</time>
      </trkpt>
      <trkpt lat="42.741778" lon="-2.688956">
        <ele>619.638</ele>
        <time>2022-07-03T15:49:00Z</time>
      </trkpt>
      <trkpt lat="42.741793" lon="-2.688809">
        <ele>618.841</ele>
        <time>2022-07-03T15:49:01Z</time>
      </trkpt>
      <trkpt lat="42.741789" lon="-2.688654">
        <ele>618.020</ele>
        <time>2022-07-03T15:49:02Z</time>
      </trkpt>
      <trkpt lat="42.741786" lon="-2.688510">
        <ele>617.010</ele>
        <time>2022-07-03T15:49:03Z</time>
      </trkpt>
      <trkpt lat="42.741779" lon="-2.688372">
        <ele>616.151</ele>
        <time>2022-07-03T15:49:04Z</time>
      </trkpt>
      <trkpt lat="42.741770" lon="-2.688215">
        <ele>615.301</ele>
        <time>2022-07-03T15:49:05Z</time>
      </trkpt>
      <trkpt lat="42.741763" lon="-2.688062">
        <ele>614.311</ele>
        <time>2022-07-03T15:49:06Z</time>
      </trkpt>
      <trkpt lat="42.741747" lon="-2.687905">
        <ele>613.409</ele>
        <time>2022-07-03T15:49:07Z</time>
      </trkpt>
      <trkpt lat="42.741746" lon="-2.687759">
        <ele>612.936</ele>
        <time>2022-07-03T15:49:08Z</time>
      </trkpt>
      <trkpt lat="42.741734" lon="-2.687610">
        <ele>612.595</ele>
        <time>2022-07-03T15:49:09Z</time>
      </trkpt>
      <trkpt lat="42.741716" lon="-2.687476">
        <ele>612.192</ele>
        <time>2022-07-03T15:49:10Z</time>
      </trkpt>
      <trkpt lat="42.741693" lon="-2.687340">
        <ele>611.725</ele>
        <time>2022-07-03T15:49:11Z</time>
      </trkpt>
      <trkpt lat="42.741661" lon="-2.687208">
        <ele>611.576</ele>
        <time>2022-07-03T15:49:12Z</time>
      </trkpt>
      <trkpt lat="42.741618" lon="-2.687100">
        <ele>611.282</ele>
        <time>2022-07-03T15:49:13Z</time>
      </trkpt>
      <trkpt lat="42.741572" lon="-2.687009">
        <ele>610.885</ele>
        <time>2022-07-03T15:49:14Z</time>
      </trkpt>
      <trkpt lat="42.741523" lon="-2.686912">
        <ele>610.674</ele>
        <time>2022-07-03T15:49:15Z</time>
      </trkpt>
      <trkpt lat="42.741473" lon="-2.686823">
        <ele>610.464</ele>
        <time>2022-07-03T15:49:16Z</time>
      </trkpt>
      <trkpt lat="42.741427" lon="-2.686744">
        <ele>610.212</ele>
        <time>2022-07-03T15:49:17Z</time>
      </trkpt>
      <trkpt lat="42.741386" lon="-2.686668">
        <ele>610.132</ele>
        <time>2022-07-03T15:49:18Z</time>
      </trkpt>
      <trkpt lat="42.741348" lon="-2.686598">
        <ele>610.105</ele>
        <time>2022-07-03T15:49:19Z</time>
      </trkpt>
      <trkpt lat="42.741311" lon="-2.686534">
        <ele>610.209</ele>
        <time>2022-07-03T15:49:20Z</time>
      </trkpt>
      <trkpt lat="42.741276" lon="-2.686466">
        <ele>610.242</ele>
        <time>2022-07-03T15:49:21Z</time>
      </trkpt>
      <trkpt lat="42.741236" lon="-2.686401">
        <ele>610.231</ele>
        <time>2022-07-03T15:49:22Z</time>
      </trkpt>
      <trkpt lat="42.741199" lon="-2.686347">
        <ele>610.368</ele>
        <time>2022-07-03T15:49:23Z</time>
      </trkpt>
      <trkpt lat="42.741157" lon="-2.686267">
        <ele>610.491</ele>
        <time>2022-07-03T15:49:25Z</time>
      </trkpt>
      <trkpt lat="42.741155" lon="-2.686205">
        <ele>610.492</ele>
        <time>2022-07-03T15:49:27Z</time>
      </trkpt>
      <trkpt lat="42.741108" lon="-2.686185">
        <ele>610.458</ele>
        <time>2022-07-03T15:49:32Z</time>
      </trkpt>
      <trkpt lat="42.741053" lon="-2.686133">
        <ele>610.341</ele>
        <time>2022-07-03T15:49:34Z</time>
      </trkpt>
      <trkpt lat="42.740989" lon="-2.686078">
        <ele>609.850</ele>
        <time>2022-07-03T15:49:36Z</time>
      </trkpt>
      <trkpt lat="42.740937" lon="-2.686034">
        <ele>609.720</ele>
        <time>2022-07-03T15:49:37Z</time>
      </trkpt>
      <trkpt lat="42.740899" lon="-2.686001">
        <ele>609.765</ele>
        <time>2022-07-03T15:49:38Z</time>
      </trkpt>
      <trkpt lat="42.740837" lon="-2.685910">
        <ele>609.768</ele>
        <time>2022-07-03T15:49:40Z</time>
      </trkpt>
      <trkpt lat="42.740783" lon="-2.685882">
        <ele>609.714</ele>
        <time>2022-07-03T15:49:41Z</time>
      </trkpt>
      <trkpt lat="42.740720" lon="-2.685808">
        <ele>609.609</ele>
        <time>2022-07-03T15:49:43Z</time>
      </trkpt>
      <trkpt lat="42.740648" lon="-2.685733">
        <ele>609.527</ele>
        <time>2022-07-03T15:49:45Z</time>
      </trkpt>
      <trkpt lat="42.740581" lon="-2.685703">
        <ele>609.366</ele>
        <time>2022-07-03T15:49:47Z</time>
      </trkpt>
      <trkpt lat="42.740588" lon="-2.685576">
        <ele>608.713</ele>
        <time>2022-07-03T15:49:50Z</time>
      </trkpt>
      <trkpt lat="42.740644" lon="-2.685580">
        <ele>608.116</ele>
        <time>2022-07-03T15:49:52Z</time>
      </trkpt>
      <trkpt lat="42.740720" lon="-2.685556">
        <ele>608.137</ele>
        <time>2022-07-03T15:49:54Z</time>
      </trkpt>
      <trkpt lat="42.740807" lon="-2.685535">
        <ele>608.193</ele>
        <time>2022-07-03T15:49:56Z</time>
      </trkpt>
      <trkpt lat="42.740858" lon="-2.685526">
        <ele>608.296</ele>
        <time>2022-07-03T15:49:57Z</time>
      </trkpt>
      <trkpt lat="42.740908" lon="-2.685523">
        <ele>608.275</ele>
        <time>2022-07-03T15:49:58Z</time>
      </trkpt>
      <trkpt lat="42.740968" lon="-2.685510">
        <ele>608.245</ele>
        <time>2022-07-03T15:49:59Z</time>
      </trkpt>
      <trkpt lat="42.741061" lon="-2.685507">
        <ele>608.048</ele>
        <time>2022-07-03T15:50:01Z</time>
      </trkpt>
      <trkpt lat="42.741131" lon="-2.685492">
        <ele>607.661</ele>
        <time>2022-07-03T15:50:02Z</time>
      </trkpt>
      <trkpt lat="42.741198" lon="-2.685481">
        <ele>607.217</ele>
        <time>2022-07-03T15:50:03Z</time>
      </trkpt>
      <trkpt lat="42.741260" lon="-2.685470">
        <ele>606.809</ele>
        <time>2022-07-03T15:50:04Z</time>
      </trkpt>
      <trkpt lat="42.741328" lon="-2.685459">
        <ele>606.695</ele>
        <time>2022-07-03T15:50:05Z</time>
      </trkpt>
      <trkpt lat="42.741412" lon="-2.685446">
        <ele>605.864</ele>
        <time>2022-07-03T15:50:06Z</time>
      </trkpt>
      <trkpt lat="42.741485" lon="-2.685443">
        <ele>605.221</ele>
        <time>2022-07-03T15:50:07Z</time>
      </trkpt>
      <trkpt lat="42.741560" lon="-2.685428">
        <ele>604.744</ele>
        <time>2022-07-03T15:50:08Z</time>
      </trkpt>
      <trkpt lat="42.741642" lon="-2.685409">
        <ele>604.375</ele>
        <time>2022-07-03T15:50:09Z</time>
      </trkpt>
      <trkpt lat="42.741702" lon="-2.685410">
        <ele>604.291</ele>
        <time>2022-07-03T15:50:10Z</time>
      </trkpt>
      <trkpt lat="42.741765" lon="-2.685406">
        <ele>604.174</ele>
        <time>2022-07-03T15:50:11Z</time>
      </trkpt>
      <trkpt lat="42.741834" lon="-2.685405">
        <ele>603.953</ele>
        <time>2022-07-03T15:50:12Z</time>
      </trkpt>
      <trkpt lat="42.741898" lon="-2.685402">
        <ele>603.843</ele>
        <time>2022-07-03T15:50:13Z</time>
      </trkpt>
      <trkpt lat="42.741961" lon="-2.685402">
        <ele>603.675</ele>
        <time>2022-07-03T15:50:14Z</time>
      </trkpt>
      <trkpt lat="42.742021" lon="-2.685393">
        <ele>603.528</ele>
        <time>2022-07-03T15:50:15Z</time>
      </trkpt>
      <trkpt lat="42.742079" lon="-2.685383">
        <ele>603.220</ele>
        <time>2022-07-03T15:50:16Z</time>
      </trkpt>
      <trkpt lat="42.742139" lon="-2.685372">
        <ele>603.009</ele>
        <time>2022-07-03T15:50:17Z</time>
      </trkpt>
      <trkpt lat="42.742197" lon="-2.685364">
        <ele>602.898</ele>
        <time>2022-07-03T15:50:18Z</time>
      </trkpt>
      <trkpt lat="42.742254" lon="-2.685354">
        <ele>602.837</ele>
        <time>2022-07-03T15:50:19Z</time>
      </trkpt>
      <trkpt lat="42.742307" lon="-2.685348">
        <ele>602.844</ele>
        <time>2022-07-03T15:50:20Z</time>
      </trkpt>
      <trkpt lat="42.742358" lon="-2.685335">
        <ele>602.877</ele>
        <time>2022-07-03T15:50:21Z</time>
      </trkpt>
      <trkpt lat="42.742411" lon="-2.685322">
        <ele>602.978</ele>
        <time>2022-07-03T15:50:22Z</time>
      </trkpt>
      <trkpt lat="42.742461" lon="-2.685311">
        <ele>603.074</ele>
        <time>2022-07-03T15:50:23Z</time>
      </trkpt>
      <trkpt lat="42.742508" lon="-2.685299">
        <ele>603.277</ele>
        <time>2022-07-03T15:50:24Z</time>
      </trkpt>
      <trkpt lat="42.742557" lon="-2.685287">
        <ele>603.446</ele>
        <time>2022-07-03T15:50:25Z</time>
      </trkpt>
      <trkpt lat="42.742601" lon="-2.685270">
        <ele>603.476</ele>
        <time>2022-07-03T15:50:26Z</time>
      </trkpt>
      <trkpt lat="42.742658" lon="-2.685250">
        <ele>603.433</ele>
        <time>2022-07-03T15:50:27Z</time>
      </trkpt>
      <trkpt lat="42.742713" lon="-2.685237">
        <ele>603.423</ele>
        <time>2022-07-03T15:50:28Z</time>
      </trkpt>
      <trkpt lat="42.742760" lon="-2.685230">
        <ele>603.415</ele>
        <time>2022-07-03T15:50:29Z</time>
      </trkpt>
      <trkpt lat="42.742808" lon="-2.685207">
        <ele>603.409</ele>
        <time>2022-07-03T15:50:30Z</time>
      </trkpt>
      <trkpt lat="42.742930" lon="-2.685185">
        <ele>603.754</ele>
        <time>2022-07-03T15:50:32Z</time>
      </trkpt>
      <trkpt lat="42.742975" lon="-2.685161">
        <ele>603.763</ele>
        <time>2022-07-03T15:50:33Z</time>
      </trkpt>
      <trkpt lat="42.743059" lon="-2.685114">
        <ele>603.710</ele>
        <time>2022-07-03T15:50:35Z</time>
      </trkpt>
      <trkpt lat="42.743126" lon="-2.685032">
        <ele>603.583</ele>
        <time>2022-07-03T15:50:37Z</time>
      </trkpt>
      <trkpt lat="42.743151" lon="-2.684963">
        <ele>603.324</ele>
        <time>2022-07-03T15:50:38Z</time>
      </trkpt>
      <trkpt lat="42.743163" lon="-2.684877">
        <ele>603.120</ele>
        <time>2022-07-03T15:50:39Z</time>
      </trkpt>
      <trkpt lat="42.743165" lon="-2.684791">
        <ele>602.833</ele>
        <time>2022-07-03T15:50:40Z</time>
      </trkpt>
      <trkpt lat="42.743149" lon="-2.684700">
        <ele>602.692</ele>
        <time>2022-07-03T15:50:41Z</time>
      </trkpt>
      <trkpt lat="42.743137" lon="-2.684601">
        <ele>601.662</ele>
        <time>2022-07-03T15:50:42Z</time>
      </trkpt>
      <trkpt lat="42.743122" lon="-2.684496">
        <ele>601.062</ele>
        <time>2022-07-03T15:50:43Z</time>
      </trkpt>
      <trkpt lat="42.743111" lon="-2.684389">
        <ele>600.483</ele>
        <time>2022-07-03T15:50:44Z</time>
      </trkpt>
      <trkpt lat="42.743095" lon="-2.684278">
        <ele>599.811</ele>
        <time>2022-07-03T15:50:45Z</time>
      </trkpt>
      <trkpt lat="42.743082" lon="-2.684170">
        <ele>599.409</ele>
        <time>2022-07-03T15:50:46Z</time>
      </trkpt>
      <trkpt lat="42.743064" lon="-2.684058">
        <ele>599.187</ele>
        <time>2022-07-03T15:50:47Z</time>
      </trkpt>
      <trkpt lat="42.743050" lon="-2.683946">
        <ele>598.856</ele>
        <time>2022-07-03T15:50:48Z</time>
      </trkpt>
      <trkpt lat="42.743032" lon="-2.683820">
        <ele>598.473</ele>
        <time>2022-07-03T15:50:49Z</time>
      </trkpt>
      <trkpt lat="42.743020" lon="-2.683699">
        <ele>598.196</ele>
        <time>2022-07-03T15:50:50Z</time>
      </trkpt>
      <trkpt lat="42.743008" lon="-2.683595">
        <ele>597.857</ele>
        <time>2022-07-03T15:50:51Z</time>
      </trkpt>
      <trkpt lat="42.742990" lon="-2.683481">
        <ele>597.623</ele>
        <time>2022-07-03T15:50:52Z</time>
      </trkpt>
      <trkpt lat="42.742970" lon="-2.683380">
        <ele>597.516</ele>
        <time>2022-07-03T15:50:53Z</time>
      </trkpt>
      <trkpt lat="42.742955" lon="-2.683273">
        <ele>597.485</ele>
        <time>2022-07-03T15:50:54Z</time>
      </trkpt>
      <trkpt lat="42.742943" lon="-2.683165">
        <ele>597.335</ele>
        <time>2022-07-03T15:50:55Z</time>
      </trkpt>
      <trkpt lat="42.742935" lon="-2.683065">
        <ele>597.245</ele>
        <time>2022-07-03T15:50:56Z</time>
      </trkpt>
      <trkpt lat="42.742918" lon="-2.682981">
        <ele>597.147</ele>
        <time>2022-07-03T15:50:57Z</time>
      </trkpt>
      <trkpt lat="42.742906" lon="-2.682887">
        <ele>597.111</ele>
        <time>2022-07-03T15:50:58Z</time>
      </trkpt>
      <trkpt lat="42.742884" lon="-2.682777">
        <ele>597.109</ele>
        <time>2022-07-03T15:50:59Z</time>
      </trkpt>
      <trkpt lat="42.742872" lon="-2.682700">
        <ele>597.115</ele>
        <time>2022-07-03T15:51:00Z</time>
      </trkpt>
      <trkpt lat="42.742863" lon="-2.682611">
        <ele>597.154</ele>
        <time>2022-07-03T15:51:01Z</time>
      </trkpt>
      <trkpt lat="42.742860" lon="-2.682528">
        <ele>597.181</ele>
        <time>2022-07-03T15:51:02Z</time>
      </trkpt>
      <trkpt lat="42.742844" lon="-2.682443">
        <ele>597.214</ele>
        <time>2022-07-03T15:51:03Z</time>
      </trkpt>
      <trkpt lat="42.742830" lon="-2.682370">
        <ele>597.375</ele>
        <time>2022-07-03T15:51:04Z</time>
      </trkpt>
      <trkpt lat="42.742821" lon="-2.682292">
        <ele>597.321</ele>
        <time>2022-07-03T15:51:05Z</time>
      </trkpt>
      <trkpt lat="42.742814" lon="-2.682224">
        <ele>597.434</ele>
        <time>2022-07-03T15:51:06Z</time>
      </trkpt>
      <trkpt lat="42.742809" lon="-2.682148">
        <ele>597.613</ele>
        <time>2022-07-03T15:51:07Z</time>
      </trkpt>
      <trkpt lat="42.742799" lon="-2.682082">
        <ele>597.733</ele>
        <time>2022-07-03T15:51:08Z</time>
      </trkpt>
      <trkpt lat="42.742794" lon="-2.682010">
        <ele>597.764</ele>
        <time>2022-07-03T15:51:09Z</time>
      </trkpt>
      <trkpt lat="42.742786" lon="-2.681946">
        <ele>597.706</ele>
        <time>2022-07-03T15:51:10Z</time>
      </trkpt>
      <trkpt lat="42.742778" lon="-2.681883">
        <ele>597.716</ele>
        <time>2022-07-03T15:51:11Z</time>
      </trkpt>
      <trkpt lat="42.742769" lon="-2.681815">
        <ele>597.309</ele>
        <time>2022-07-03T15:51:12Z</time>
      </trkpt>
      <trkpt lat="42.742760" lon="-2.681748">
        <ele>596.777</ele>
        <time>2022-07-03T15:51:13Z</time>
      </trkpt>
      <trkpt lat="42.742753" lon="-2.681684">
        <ele>596.186</ele>
        <time>2022-07-03T15:51:14Z</time>
      </trkpt>
      <trkpt lat="42.742747" lon="-2.681620">
        <ele>595.723</ele>
        <time>2022-07-03T15:51:15Z</time>
      </trkpt>
      <trkpt lat="42.742737" lon="-2.681507">
        <ele>595.646</ele>
        <time>2022-07-03T15:51:17Z</time>
      </trkpt>
      <trkpt lat="42.742731" lon="-2.681414">
        <ele>595.697</ele>
        <time>2022-07-03T15:51:19Z</time>
      </trkpt>
      <trkpt lat="42.742714" lon="-2.681333">
        <ele>596.143</ele>
        <time>2022-07-03T15:51:21Z</time>
      </trkpt>
      <trkpt lat="42.742704" lon="-2.681270">
        <ele>596.976</ele>
        <time>2022-07-03T15:51:22Z</time>
      </trkpt>
      <trkpt lat="42.742698" lon="-2.681183">
        <ele>597.935</ele>
        <time>2022-07-03T15:51:24Z</time>
      </trkpt>
      <trkpt lat="42.742695" lon="-2.681078">
        <ele>598.385</ele>
        <time>2022-07-03T15:51:26Z</time>
      </trkpt>
      <trkpt lat="42.742687" lon="-2.680970">
        <ele>598.623</ele>
        <time>2022-07-03T15:51:28Z</time>
      </trkpt>
      <trkpt lat="42.742658" lon="-2.680853">
        <ele>599.483</ele>
        <time>2022-07-03T15:51:30Z</time>
      </trkpt>
      <trkpt lat="42.742642" lon="-2.680790">
        <ele>599.711</ele>
        <time>2022-07-03T15:51:31Z</time>
      </trkpt>
      <trkpt lat="42.742630" lon="-2.680726">
        <ele>599.809</ele>
        <time>2022-07-03T15:51:32Z</time>
      </trkpt>
      <trkpt lat="42.742619" lon="-2.680645">
        <ele>600.093</ele>
        <time>2022-07-03T15:51:33Z</time>
      </trkpt>
      <trkpt lat="42.742611" lon="-2.680574">
        <ele>600.112</ele>
        <time>2022-07-03T15:51:34Z</time>
      </trkpt>
      <trkpt lat="42.742603" lon="-2.680509">
        <ele>600.139</ele>
        <time>2022-07-03T15:51:35Z</time>
      </trkpt>
      <trkpt lat="42.742595" lon="-2.680443">
        <ele>600.192</ele>
        <time>2022-07-03T15:51:36Z</time>
      </trkpt>
      <trkpt lat="42.742580" lon="-2.680323">
        <ele>600.223</ele>
        <time>2022-07-03T15:51:38Z</time>
      </trkpt>
      <trkpt lat="42.742576" lon="-2.680244">
        <ele>600.329</ele>
        <time>2022-07-03T15:51:39Z</time>
      </trkpt>
      <trkpt lat="42.742555" lon="-2.680169">
        <ele>600.322</ele>
        <time>2022-07-03T15:51:40Z</time>
      </trkpt>
      <trkpt lat="42.742547" lon="-2.680105">
        <ele>600.351</ele>
        <time>2022-07-03T15:51:41Z</time>
      </trkpt>
      <trkpt lat="42.742541" lon="-2.680029">
        <ele>600.381</ele>
        <time>2022-07-03T15:51:42Z</time>
      </trkpt>
      <trkpt lat="42.742538" lon="-2.679967">
        <ele>600.342</ele>
        <time>2022-07-03T15:51:43Z</time>
      </trkpt>
      <trkpt lat="42.742535" lon="-2.679895">
        <ele>600.222</ele>
        <time>2022-07-03T15:51:44Z</time>
      </trkpt>
      <trkpt lat="42.742527" lon="-2.679755">
        <ele>600.114</ele>
        <time>2022-07-03T15:51:46Z</time>
      </trkpt>
      <trkpt lat="42.742529" lon="-2.679682">
        <ele>600.109</ele>
        <time>2022-07-03T15:51:47Z</time>
      </trkpt>
      <trkpt lat="42.742536" lon="-2.679607">
        <ele>600.145</ele>
        <time>2022-07-03T15:51:48Z</time>
      </trkpt>
      <trkpt lat="42.742541" lon="-2.679527">
        <ele>600.294</ele>
        <time>2022-07-03T15:51:49Z</time>
      </trkpt>
      <trkpt lat="42.742542" lon="-2.679450">
        <ele>600.261</ele>
        <time>2022-07-03T15:51:50Z</time>
      </trkpt>
      <trkpt lat="42.742550" lon="-2.679380">
        <ele>600.244</ele>
        <time>2022-07-03T15:51:51Z</time>
      </trkpt>
      <trkpt lat="42.742549" lon="-2.679308">
        <ele>600.245</ele>
        <time>2022-07-03T15:51:52Z</time>
      </trkpt>
      <trkpt lat="42.742551" lon="-2.679232">
        <ele>600.281</ele>
        <time>2022-07-03T15:51:53Z</time>
      </trkpt>
      <trkpt lat="42.742552" lon="-2.679158">
        <ele>600.174</ele>
        <time>2022-07-03T15:51:54Z</time>
      </trkpt>
      <trkpt lat="42.742556" lon="-2.679090">
        <ele>600.033</ele>
        <time>2022-07-03T15:51:55Z</time>
      </trkpt>
      <trkpt lat="42.742559" lon="-2.679025">
        <ele>599.813</ele>
        <time>2022-07-03T15:51:56Z</time>
      </trkpt>
      <trkpt lat="42.742563" lon="-2.678951">
        <ele>599.646</ele>
        <time>2022-07-03T15:51:57Z</time>
      </trkpt>
      <trkpt lat="42.742569" lon="-2.678879">
        <ele>599.588</ele>
        <time>2022-07-03T15:51:58Z</time>
      </trkpt>
      <trkpt lat="42.742575" lon="-2.678805">
        <ele>599.316</ele>
        <time>2022-07-03T15:51:59Z</time>
      </trkpt>
      <trkpt lat="42.742583" lon="-2.678744">
        <ele>599.109</ele>
        <time>2022-07-03T15:52:00Z</time>
      </trkpt>
      <trkpt lat="42.742597" lon="-2.678649">
        <ele>598.965</ele>
        <time>2022-07-03T15:52:01Z</time>
      </trkpt>
      <trkpt lat="42.742603" lon="-2.678581">
        <ele>598.874</ele>
        <time>2022-07-03T15:52:02Z</time>
      </trkpt>
      <trkpt lat="42.742607" lon="-2.678504">
        <ele>598.891</ele>
        <time>2022-07-03T15:52:03Z</time>
      </trkpt>
      <trkpt lat="42.742601" lon="-2.678420">
        <ele>598.824</ele>
        <time>2022-07-03T15:52:04Z</time>
      </trkpt>
      <trkpt lat="42.742609" lon="-2.678337">
        <ele>598.815</ele>
        <time>2022-07-03T15:52:05Z</time>
      </trkpt>
      <trkpt lat="42.742609" lon="-2.678252">
        <ele>598.891</ele>
        <time>2022-07-03T15:52:06Z</time>
      </trkpt>
      <trkpt lat="42.742617" lon="-2.678180">
        <ele>598.824</ele>
        <time>2022-07-03T15:52:07Z</time>
      </trkpt>
      <trkpt lat="42.742626" lon="-2.678110">
        <ele>598.963</ele>
        <time>2022-07-03T15:52:08Z</time>
      </trkpt>
      <trkpt lat="42.742647" lon="-2.678009">
        <ele>598.973</ele>
        <time>2022-07-03T15:52:10Z</time>
      </trkpt>
      <trkpt lat="42.742682" lon="-2.677909">
        <ele>598.969</ele>
        <time>2022-07-03T15:52:12Z</time>
      </trkpt>
      <trkpt lat="42.742710" lon="-2.677845">
        <ele>598.804</ele>
        <time>2022-07-03T15:52:14Z</time>
      </trkpt>
      <trkpt lat="42.742740" lon="-2.677768">
        <ele>598.824</ele>
        <time>2022-07-03T15:52:16Z</time>
      </trkpt>
      <trkpt lat="42.742764" lon="-2.677689">
        <ele>598.809</ele>
        <time>2022-07-03T15:52:18Z</time>
      </trkpt>
      <trkpt lat="42.742807" lon="-2.677616">
        <ele>599.277</ele>
        <time>2022-07-03T15:52:20Z</time>
      </trkpt>
      <trkpt lat="42.742841" lon="-2.677550">
        <ele>599.886</ele>
        <time>2022-07-03T15:52:22Z</time>
      </trkpt>
      <trkpt lat="42.742879" lon="-2.677488">
        <ele>600.193</ele>
        <time>2022-07-03T15:52:24Z</time>
      </trkpt>
      <trkpt lat="42.742925" lon="-2.677423">
        <ele>600.846</ele>
        <time>2022-07-03T15:52:26Z</time>
      </trkpt>
      <trkpt lat="42.742972" lon="-2.677359">
        <ele>601.517</ele>
        <time>2022-07-03T15:52:28Z</time>
      </trkpt>
      <trkpt lat="42.743026" lon="-2.677286">
        <ele>601.823</ele>
        <time>2022-07-03T15:52:30Z</time>
      </trkpt>
      <trkpt lat="42.743083" lon="-2.677207">
        <ele>602.066</ele>
        <time>2022-07-03T15:52:32Z</time>
      </trkpt>
      <trkpt lat="42.743138" lon="-2.677136">
        <ele>602.345</ele>
        <time>2022-07-03T15:52:34Z</time>
      </trkpt>
      <trkpt lat="42.743186" lon="-2.677075">
        <ele>602.585</ele>
        <time>2022-07-03T15:52:36Z</time>
      </trkpt>
      <trkpt lat="42.743231" lon="-2.677012">
        <ele>602.697</ele>
        <time>2022-07-03T15:52:38Z</time>
      </trkpt>
      <trkpt lat="42.743277" lon="-2.676946">
        <ele>602.623</ele>
        <time>2022-07-03T15:52:40Z</time>
      </trkpt>
      <trkpt lat="42.743321" lon="-2.676887">
        <ele>602.625</ele>
        <time>2022-07-03T15:52:42Z</time>
      </trkpt>
      <trkpt lat="42.743356" lon="-2.676840">
        <ele>602.809</ele>
        <time>2022-07-03T15:52:44Z</time>
      </trkpt>
      <trkpt lat="42.743397" lon="-2.676771">
        <ele>603.430</ele>
        <time>2022-07-03T15:52:48Z</time>
      </trkpt>
      <trkpt lat="42.743442" lon="-2.676703">
        <ele>603.699</ele>
        <time>2022-07-03T15:52:50Z</time>
      </trkpt>
      <trkpt lat="42.743502" lon="-2.676614">
        <ele>603.876</ele>
        <time>2022-07-03T15:52:52Z</time>
      </trkpt>
      <trkpt lat="42.743552" lon="-2.676554">
        <ele>603.979</ele>
        <time>2022-07-03T15:52:54Z</time>
      </trkpt>
      <trkpt lat="42.743599" lon="-2.676497">
        <ele>604.320</ele>
        <time>2022-07-03T15:52:56Z</time>
      </trkpt>
      <trkpt lat="42.743642" lon="-2.676419">
        <ele>604.736</ele>
        <time>2022-07-03T15:52:58Z</time>
      </trkpt>
      <trkpt lat="42.743640" lon="-2.676333">
        <ele>604.999</ele>
        <time>2022-07-03T15:53:00Z</time>
      </trkpt>
      <trkpt lat="42.743587" lon="-2.676239">
        <ele>605.588</ele>
        <time>2022-07-03T15:53:02Z</time>
      </trkpt>
      <trkpt lat="42.743531" lon="-2.676159">
        <ele>605.738</ele>
        <time>2022-07-03T15:53:04Z</time>
      </trkpt>
      <trkpt lat="42.743482" lon="-2.676078">
        <ele>605.733</ele>
        <time>2022-07-03T15:53:06Z</time>
      </trkpt>
      <trkpt lat="42.743437" lon="-2.676011">
        <ele>605.723</ele>
        <time>2022-07-03T15:53:08Z</time>
      </trkpt>
      <trkpt lat="42.743390" lon="-2.675954">
        <ele>605.715</ele>
        <time>2022-07-03T15:53:10Z</time>
      </trkpt>
      <trkpt lat="42.743344" lon="-2.675889">
        <ele>605.909</ele>
        <time>2022-07-03T15:53:12Z</time>
      </trkpt>
      <trkpt lat="42.743293" lon="-2.675811">
        <ele>606.484</ele>
        <time>2022-07-03T15:53:14Z</time>
      </trkpt>
      <trkpt lat="42.743219" lon="-2.675698">
        <ele>606.983</ele>
        <time>2022-07-03T15:53:16Z</time>
      </trkpt>
      <trkpt lat="42.743181" lon="-2.675635">
        <ele>607.370</ele>
        <time>2022-07-03T15:53:17Z</time>
      </trkpt>
      <trkpt lat="42.743137" lon="-2.675585">
        <ele>607.453</ele>
        <time>2022-07-03T15:53:18Z</time>
      </trkpt>
      <trkpt lat="42.743090" lon="-2.675509">
        <ele>607.424</ele>
        <time>2022-07-03T15:53:19Z</time>
      </trkpt>
      <trkpt lat="42.743043" lon="-2.675454">
        <ele>607.450</ele>
        <time>2022-07-03T15:53:20Z</time>
      </trkpt>
      <trkpt lat="42.742991" lon="-2.675377">
        <ele>607.353</ele>
        <time>2022-07-03T15:53:21Z</time>
      </trkpt>
      <trkpt lat="42.742925" lon="-2.675307">
        <ele>607.182</ele>
        <time>2022-07-03T15:53:22Z</time>
      </trkpt>
      <trkpt lat="42.742860" lon="-2.675236">
        <ele>606.942</ele>
        <time>2022-07-03T15:53:23Z</time>
      </trkpt>
      <trkpt lat="42.742799" lon="-2.675168">
        <ele>606.747</ele>
        <time>2022-07-03T15:53:24Z</time>
      </trkpt>
      <trkpt lat="42.742741" lon="-2.675109">
        <ele>606.529</ele>
        <time>2022-07-03T15:53:25Z</time>
      </trkpt>
      <trkpt lat="42.742684" lon="-2.675044">
        <ele>606.221</ele>
        <time>2022-07-03T15:53:26Z</time>
      </trkpt>
      <trkpt lat="42.742637" lon="-2.674994">
        <ele>605.809</ele>
        <time>2022-07-03T15:53:27Z</time>
      </trkpt>
      <trkpt lat="42.742580" lon="-2.674935">
        <ele>605.645</ele>
        <time>2022-07-03T15:53:28Z</time>
      </trkpt>
      <trkpt lat="42.742545" lon="-2.674880">
        <ele>605.624</ele>
        <time>2022-07-03T15:53:29Z</time>
      </trkpt>
      <trkpt lat="42.742501" lon="-2.674830">
        <ele>605.121</ele>
        <time>2022-07-03T15:53:30Z</time>
      </trkpt>
      <trkpt lat="42.742465" lon="-2.674777">
        <ele>604.834</ele>
        <time>2022-07-03T15:53:31Z</time>
      </trkpt>
      <trkpt lat="42.742427" lon="-2.674737">
        <ele>604.845</ele>
        <time>2022-07-03T15:53:32Z</time>
      </trkpt>
      <trkpt lat="42.742387" lon="-2.674693">
        <ele>604.971</ele>
        <time>2022-07-03T15:53:33Z</time>
      </trkpt>
      <trkpt lat="42.742314" lon="-2.674618">
        <ele>605.034</ele>
        <time>2022-07-03T15:53:35Z</time>
      </trkpt>
      <trkpt lat="42.742257" lon="-2.674555">
        <ele>605.273</ele>
        <time>2022-07-03T15:53:37Z</time>
      </trkpt>
      <trkpt lat="42.742215" lon="-2.674511">
        <ele>605.723</ele>
        <time>2022-07-03T15:53:38Z</time>
      </trkpt>
      <trkpt lat="42.742181" lon="-2.674465">
        <ele>606.398</ele>
        <time>2022-07-03T15:53:39Z</time>
      </trkpt>
      <trkpt lat="42.742139" lon="-2.674410">
        <ele>606.615</ele>
        <time>2022-07-03T15:53:40Z</time>
      </trkpt>
      <trkpt lat="42.742092" lon="-2.674368">
        <ele>606.826</ele>
        <time>2022-07-03T15:53:41Z</time>
      </trkpt>
      <trkpt lat="42.742042" lon="-2.674314">
        <ele>606.909</ele>
        <time>2022-07-03T15:53:42Z</time>
      </trkpt>
      <trkpt lat="42.741977" lon="-2.674218">
        <ele>607.090</ele>
        <time>2022-07-03T15:53:44Z</time>
      </trkpt>
      <trkpt lat="42.741931" lon="-2.674163">
        <ele>607.269</ele>
        <time>2022-07-03T15:53:45Z</time>
      </trkpt>
      <trkpt lat="42.741880" lon="-2.674111">
        <ele>607.416</ele>
        <time>2022-07-03T15:53:46Z</time>
      </trkpt>
      <trkpt lat="42.741841" lon="-2.674063">
        <ele>607.699</ele>
        <time>2022-07-03T15:53:47Z</time>
      </trkpt>
      <trkpt lat="42.741771" lon="-2.673939">
        <ele>607.730</ele>
        <time>2022-07-03T15:53:48Z</time>
      </trkpt>
      <trkpt lat="42.741728" lon="-2.673890">
        <ele>607.716</ele>
        <time>2022-07-03T15:53:49Z</time>
      </trkpt>
      <trkpt lat="42.741661" lon="-2.673766">
        <ele>607.689</ele>
        <time>2022-07-03T15:53:50Z</time>
      </trkpt>
      <trkpt lat="42.741615" lon="-2.673709">
        <ele>607.638</ele>
        <time>2022-07-03T15:53:51Z</time>
      </trkpt>
      <trkpt lat="42.741566" lon="-2.673644">
        <ele>607.538</ele>
        <time>2022-07-03T15:53:52Z</time>
      </trkpt>
      <trkpt lat="42.741510" lon="-2.673578">
        <ele>607.476</ele>
        <time>2022-07-03T15:53:53Z</time>
      </trkpt>
      <trkpt lat="42.741433" lon="-2.673499">
        <ele>607.390</ele>
        <time>2022-07-03T15:53:54Z</time>
      </trkpt>
      <trkpt lat="42.741369" lon="-2.673417">
        <ele>607.119</ele>
        <time>2022-07-03T15:53:55Z</time>
      </trkpt>
      <trkpt lat="42.741304" lon="-2.673332">
        <ele>606.709</ele>
        <time>2022-07-03T15:53:56Z</time>
      </trkpt>
      <trkpt lat="42.741235" lon="-2.673254">
        <ele>606.578</ele>
        <time>2022-07-03T15:53:57Z</time>
      </trkpt>
      <trkpt lat="42.741163" lon="-2.673153">
        <ele>605.857</ele>
        <time>2022-07-03T15:53:58Z</time>
      </trkpt>
      <trkpt lat="42.741090" lon="-2.673078">
        <ele>605.284</ele>
        <time>2022-07-03T15:53:59Z</time>
      </trkpt>
      <trkpt lat="42.741018" lon="-2.672997">
        <ele>604.557</ele>
        <time>2022-07-03T15:54:00Z</time>
      </trkpt>
      <trkpt lat="42.740950" lon="-2.672891">
        <ele>603.948</ele>
        <time>2022-07-03T15:54:01Z</time>
      </trkpt>
      <trkpt lat="42.740881" lon="-2.672805">
        <ele>603.364</ele>
        <time>2022-07-03T15:54:02Z</time>
      </trkpt>
      <trkpt lat="42.740815" lon="-2.672723">
        <ele>602.857</ele>
        <time>2022-07-03T15:54:03Z</time>
      </trkpt>
      <trkpt lat="42.740754" lon="-2.672669">
        <ele>602.686</ele>
        <time>2022-07-03T15:54:04Z</time>
      </trkpt>
      <trkpt lat="42.740665" lon="-2.672673">
        <ele>602.226</ele>
        <time>2022-07-03T15:54:05Z</time>
      </trkpt>
      <trkpt lat="42.740600" lon="-2.672682">
        <ele>601.818</ele>
        <time>2022-07-03T15:54:07Z</time>
      </trkpt>
      <trkpt lat="42.740538" lon="-2.672722">
        <ele>601.398</ele>
        <time>2022-07-03T15:54:08Z</time>
      </trkpt>
      <trkpt lat="42.740477" lon="-2.672762">
        <ele>600.817</ele>
        <time>2022-07-03T15:54:09Z</time>
      </trkpt>
      <trkpt lat="42.740415" lon="-2.672801">
        <ele>600.409</ele>
        <time>2022-07-03T15:54:10Z</time>
      </trkpt>
      <trkpt lat="42.740355" lon="-2.672839">
        <ele>600.172</ele>
        <time>2022-07-03T15:54:11Z</time>
      </trkpt>
      <trkpt lat="42.740289" lon="-2.672881">
        <ele>599.871</ele>
        <time>2022-07-03T15:54:12Z</time>
      </trkpt>
      <trkpt lat="42.740232" lon="-2.672917">
        <ele>599.418</ele>
        <time>2022-07-03T15:54:13Z</time>
      </trkpt>
      <trkpt lat="42.740165" lon="-2.672959">
        <ele>599.171</ele>
        <time>2022-07-03T15:54:14Z</time>
      </trkpt>
      <trkpt lat="42.740100" lon="-2.672980">
        <ele>598.922</ele>
        <time>2022-07-03T15:54:15Z</time>
      </trkpt>
      <trkpt lat="42.740037" lon="-2.673021">
        <ele>598.688</ele>
        <time>2022-07-03T15:54:16Z</time>
      </trkpt>
      <trkpt lat="42.739972" lon="-2.673062">
        <ele>598.321</ele>
        <time>2022-07-03T15:54:17Z</time>
      </trkpt>
      <trkpt lat="42.739905" lon="-2.673115">
        <ele>598.290</ele>
        <time>2022-07-03T15:54:18Z</time>
      </trkpt>
      <trkpt lat="42.739844" lon="-2.673156">
        <ele>597.930</ele>
        <time>2022-07-03T15:54:19Z</time>
      </trkpt>
      <trkpt lat="42.739782" lon="-2.673196">
        <ele>597.642</ele>
        <time>2022-07-03T15:54:20Z</time>
      </trkpt>
      <trkpt lat="42.739708" lon="-2.673241">
        <ele>597.322</ele>
        <time>2022-07-03T15:54:21Z</time>
      </trkpt>
      <trkpt lat="42.739633" lon="-2.673289">
        <ele>596.814</ele>
        <time>2022-07-03T15:54:22Z</time>
      </trkpt>
      <trkpt lat="42.739562" lon="-2.673334">
        <ele>596.509</ele>
        <time>2022-07-03T15:54:23Z</time>
      </trkpt>
      <trkpt lat="42.739500" lon="-2.673376">
        <ele>596.435</ele>
        <time>2022-07-03T15:54:24Z</time>
      </trkpt>
      <trkpt lat="42.739423" lon="-2.673426">
        <ele>596.254</ele>
        <time>2022-07-03T15:54:25Z</time>
      </trkpt>
      <trkpt lat="42.739346" lon="-2.673478">
        <ele>596.091</ele>
        <time>2022-07-03T15:54:26Z</time>
      </trkpt>
      <trkpt lat="42.739280" lon="-2.673520">
        <ele>595.924</ele>
        <time>2022-07-03T15:54:27Z</time>
      </trkpt>
      <trkpt lat="42.739209" lon="-2.673566">
        <ele>595.885</ele>
        <time>2022-07-03T15:54:28Z</time>
      </trkpt>
      <trkpt lat="42.739139" lon="-2.673612">
        <ele>595.651</ele>
        <time>2022-07-03T15:54:29Z</time>
      </trkpt>
      <trkpt lat="42.739075" lon="-2.673650">
        <ele>595.414</ele>
        <time>2022-07-03T15:54:30Z</time>
      </trkpt>
      <trkpt lat="42.739002" lon="-2.673695">
        <ele>595.293</ele>
        <time>2022-07-03T15:54:31Z</time>
      </trkpt>
      <trkpt lat="42.738930" lon="-2.673736">
        <ele>594.953</ele>
        <time>2022-07-03T15:54:32Z</time>
      </trkpt>
      <trkpt lat="42.738856" lon="-2.673785">
        <ele>594.617</ele>
        <time>2022-07-03T15:54:33Z</time>
      </trkpt>
      <trkpt lat="42.738789" lon="-2.673831">
        <ele>594.487</ele>
        <time>2022-07-03T15:54:34Z</time>
      </trkpt>
      <trkpt lat="42.738719" lon="-2.673875">
        <ele>594.215</ele>
        <time>2022-07-03T15:54:35Z</time>
      </trkpt>
      <trkpt lat="42.738650" lon="-2.673912">
        <ele>594.009</ele>
        <time>2022-07-03T15:54:36Z</time>
      </trkpt>
      <trkpt lat="42.738583" lon="-2.673955">
        <ele>593.952</ele>
        <time>2022-07-03T15:54:37Z</time>
      </trkpt>
      <trkpt lat="42.738520" lon="-2.673996">
        <ele>593.851</ele>
        <time>2022-07-03T15:54:38Z</time>
      </trkpt>
      <trkpt lat="42.738460" lon="-2.674031">
        <ele>593.798</ele>
        <time>2022-07-03T15:54:39Z</time>
      </trkpt>
      <trkpt lat="42.738396" lon="-2.674074">
        <ele>593.671</ele>
        <time>2022-07-03T15:54:40Z</time>
      </trkpt>
      <trkpt lat="42.738336" lon="-2.674118">
        <ele>593.542</ele>
        <time>2022-07-03T15:54:41Z</time>
      </trkpt>
      <trkpt lat="42.738280" lon="-2.674166">
        <ele>593.428</ele>
        <time>2022-07-03T15:54:42Z</time>
      </trkpt>
      <trkpt lat="42.738230" lon="-2.674211">
        <ele>593.461</ele>
        <time>2022-07-03T15:54:43Z</time>
      </trkpt>
      <trkpt lat="42.738175" lon="-2.674242">
        <ele>593.470</ele>
        <time>2022-07-03T15:54:44Z</time>
      </trkpt>
      <trkpt lat="42.738120" lon="-2.674300">
        <ele>593.470</ele>
        <time>2022-07-03T15:54:45Z</time>
      </trkpt>
      <trkpt lat="42.738081" lon="-2.674362">
        <ele>593.452</ele>
        <time>2022-07-03T15:54:46Z</time>
      </trkpt>
      <trkpt lat="42.738044" lon="-2.674480">
        <ele>593.753</ele>
        <time>2022-07-03T15:54:48Z</time>
      </trkpt>
      <trkpt lat="42.738011" lon="-2.674524">
        <ele>593.808</ele>
        <time>2022-07-03T15:55:34Z</time>
      </trkpt>
      <trkpt lat="42.738017" lon="-2.674609">
        <ele>593.809</ele>
        <time>2022-07-03T15:56:00Z</time>
      </trkpt>
      <trkpt lat="42.738014" lon="-2.674681">
        <ele>593.886</ele>
        <time>2022-07-03T15:56:02Z</time>
      </trkpt>
      <trkpt lat="42.738004" lon="-2.674765">
        <ele>593.175</ele>
        <time>2022-07-03T15:56:04Z</time>
      </trkpt>
      <trkpt lat="42.737997" lon="-2.674862">
        <ele>593.172</ele>
        <time>2022-07-03T15:56:06Z</time>
      </trkpt>
      <trkpt lat="42.737990" lon="-2.674966">
        <ele>593.145</ele>
        <time>2022-07-03T15:56:08Z</time>
      </trkpt>
      <trkpt lat="42.737984" lon="-2.675076">
        <ele>593.056</ele>
        <time>2022-07-03T15:56:10Z</time>
      </trkpt>
      <trkpt lat="42.737976" lon="-2.675190">
        <ele>593.082</ele>
        <time>2022-07-03T15:56:12Z</time>
      </trkpt>
      <trkpt lat="42.737965" lon="-2.675299">
        <ele>593.185</ele>
        <time>2022-07-03T15:56:14Z</time>
      </trkpt>
      <trkpt lat="42.737949" lon="-2.675417">
        <ele>593.254</ele>
        <time>2022-07-03T15:56:16Z</time>
      </trkpt>
      <trkpt lat="42.737935" lon="-2.675532">
        <ele>593.354</ele>
        <time>2022-07-03T15:56:18Z</time>
      </trkpt>
      <trkpt lat="42.737917" lon="-2.675631">
        <ele>593.784</ele>
        <time>2022-07-03T15:56:20Z</time>
      </trkpt>
      <trkpt lat="42.737892" lon="-2.675728">
        <ele>594.307</ele>
        <time>2022-07-03T15:56:22Z</time>
      </trkpt>
      <trkpt lat="42.737857" lon="-2.675809">
        <ele>594.917</ele>
        <time>2022-07-03T15:56:24Z</time>
      </trkpt>
      <trkpt lat="42.737813" lon="-2.675894">
        <ele>595.409</ele>
        <time>2022-07-03T15:56:26Z</time>
      </trkpt>
      <trkpt lat="42.737756" lon="-2.675970">
        <ele>595.869</ele>
        <time>2022-07-03T15:56:28Z</time>
      </trkpt>
      <trkpt lat="42.737688" lon="-2.676021">
        <ele>596.238</ele>
        <time>2022-07-03T15:56:30Z</time>
      </trkpt>
      <trkpt lat="42.737632" lon="-2.676044">
        <ele>596.625</ele>
        <time>2022-07-03T15:56:32Z</time>
      </trkpt>
      <trkpt lat="42.737560" lon="-2.676051">
        <ele>597.058</ele>
        <time>2022-07-03T15:56:34Z</time>
      </trkpt>
      <trkpt lat="42.737486" lon="-2.676039">
        <ele>597.749</ele>
        <time>2022-07-03T15:56:36Z</time>
      </trkpt>
      <trkpt lat="42.737418" lon="-2.676014">
        <ele>598.645</ele>
        <time>2022-07-03T15:56:38Z</time>
      </trkpt>
      <trkpt lat="42.737359" lon="-2.675997">
        <ele>599.568</ele>
        <time>2022-07-03T15:56:40Z</time>
      </trkpt>
      <trkpt lat="42.737307" lon="-2.675984">
        <ele>599.997</ele>
        <time>2022-07-03T15:56:42Z</time>
      </trkpt>
      <trkpt lat="42.737252" lon="-2.675969">
        <ele>600.357</ele>
        <time>2022-07-03T15:56:44Z</time>
      </trkpt>
      <trkpt lat="42.737209" lon="-2.675946">
        <ele>600.848</ele>
        <time>2022-07-03T15:56:46Z</time>
      </trkpt>
      <trkpt lat="42.737164" lon="-2.675913">
        <ele>601.061</ele>
        <time>2022-07-03T15:56:48Z</time>
      </trkpt>
      <trkpt lat="42.737123" lon="-2.675884">
        <ele>601.517</ele>
        <time>2022-07-03T15:56:50Z</time>
      </trkpt>
      <trkpt lat="42.737077" lon="-2.675848">
        <ele>602.109</ele>
        <time>2022-07-03T15:56:52Z</time>
      </trkpt>
      <trkpt lat="42.737035" lon="-2.675810">
        <ele>602.845</ele>
        <time>2022-07-03T15:56:54Z</time>
      </trkpt>
      <trkpt lat="42.736992" lon="-2.675773">
        <ele>603.434</ele>
        <time>2022-07-03T15:56:56Z</time>
      </trkpt>
      <trkpt lat="42.736954" lon="-2.675731">
        <ele>603.761</ele>
        <time>2022-07-03T15:56:58Z</time>
      </trkpt>
      <trkpt lat="42.736919" lon="-2.675691">
        <ele>604.044</ele>
        <time>2022-07-03T15:57:00Z</time>
      </trkpt>
      <trkpt lat="42.736864" lon="-2.675645">
        <ele>604.425</ele>
        <time>2022-07-03T15:57:03Z</time>
      </trkpt>
      <trkpt lat="42.736822" lon="-2.675605">
        <ele>604.791</ele>
        <time>2022-07-03T15:57:05Z</time>
      </trkpt>
      <trkpt lat="42.736783" lon="-2.675561">
        <ele>605.364</ele>
        <time>2022-07-03T15:57:07Z</time>
      </trkpt>
      <trkpt lat="42.736738" lon="-2.675517">
        <ele>606.163</ele>
        <time>2022-07-03T15:57:10Z</time>
      </trkpt>
      <trkpt lat="42.736698" lon="-2.675482">
        <ele>606.673</ele>
        <time>2022-07-03T15:57:12Z</time>
      </trkpt>
      <trkpt lat="42.736657" lon="-2.675454">
        <ele>607.226</ele>
        <time>2022-07-03T15:57:14Z</time>
      </trkpt>
      <trkpt lat="42.736602" lon="-2.675416">
        <ele>607.947</ele>
        <time>2022-07-03T15:57:17Z</time>
      </trkpt>
      <trkpt lat="42.736566" lon="-2.675371">
        <ele>608.511</ele>
        <time>2022-07-03T15:57:21Z</time>
      </trkpt>
      <trkpt lat="42.736519" lon="-2.675318">
        <ele>609.209</ele>
        <time>2022-07-03T15:57:26Z</time>
      </trkpt>
      <trkpt lat="42.736472" lon="-2.675253">
        <ele>610.743</ele>
        <time>2022-07-03T15:57:29Z</time>
      </trkpt>
      <trkpt lat="42.736426" lon="-2.675194">
        <ele>612.172</ele>
        <time>2022-07-03T15:57:32Z</time>
      </trkpt>
      <trkpt lat="42.736376" lon="-2.675147">
        <ele>612.419</ele>
        <time>2022-07-03T15:57:35Z</time>
      </trkpt>
      <trkpt lat="42.736344" lon="-2.675102">
        <ele>612.812</ele>
        <time>2022-07-03T15:57:37Z</time>
      </trkpt>
      <trkpt lat="42.736308" lon="-2.675058">
        <ele>613.333</ele>
        <time>2022-07-03T15:57:39Z</time>
      </trkpt>
      <trkpt lat="42.736262" lon="-2.674996">
        <ele>613.929</ele>
        <time>2022-07-03T15:57:41Z</time>
      </trkpt>
      <trkpt lat="42.736228" lon="-2.674955">
        <ele>614.182</ele>
        <time>2022-07-03T15:57:43Z</time>
      </trkpt>
      <trkpt lat="42.736192" lon="-2.674911">
        <ele>614.511</ele>
        <time>2022-07-03T15:57:45Z</time>
      </trkpt>
      <trkpt lat="42.736158" lon="-2.674870">
        <ele>614.731</ele>
        <time>2022-07-03T15:57:47Z</time>
      </trkpt>
      <trkpt lat="42.736107" lon="-2.674819">
        <ele>615.047</ele>
        <time>2022-07-03T15:57:50Z</time>
      </trkpt>
      <trkpt lat="42.736061" lon="-2.674760">
        <ele>615.329</ele>
        <time>2022-07-03T15:57:53Z</time>
      </trkpt>
      <trkpt lat="42.736023" lon="-2.674714">
        <ele>616.121</ele>
        <time>2022-07-03T15:57:55Z</time>
      </trkpt>
      <trkpt lat="42.735981" lon="-2.674675">
        <ele>616.909</ele>
        <time>2022-07-03T15:57:57Z</time>
      </trkpt>
      <trkpt lat="42.735939" lon="-2.674626">
        <ele>617.335</ele>
        <time>2022-07-03T15:57:59Z</time>
      </trkpt>
      <trkpt lat="42.735905" lon="-2.674577">
        <ele>617.924</ele>
        <time>2022-07-03T15:58:01Z</time>
      </trkpt>
      <trkpt lat="42.735868" lon="-2.674531">
        <ele>618.241</ele>
        <time>2022-07-03T15:58:03Z</time>
      </trkpt>
      <trkpt lat="42.735832" lon="-2.674492">
        <ele>618.814</ele>
        <time>2022-07-03T15:58:05Z</time>
      </trkpt>
      <trkpt lat="42.735794" lon="-2.674424">
        <ele>619.355</ele>
        <time>2022-07-03T15:58:08Z</time>
      </trkpt>
      <trkpt lat="42.735757" lon="-2.674349">
        <ele>620.131</ele>
        <time>2022-07-03T15:58:11Z</time>
      </trkpt>
      <trkpt lat="42.735721" lon="-2.674292">
        <ele>620.714</ele>
        <time>2022-07-03T15:58:14Z</time>
      </trkpt>
      <trkpt lat="42.735682" lon="-2.674238">
        <ele>621.563</ele>
        <time>2022-07-03T15:58:17Z</time>
      </trkpt>
      <trkpt lat="42.735645" lon="-2.674200">
        <ele>621.993</ele>
        <time>2022-07-03T15:58:20Z</time>
      </trkpt>
      <trkpt lat="42.735602" lon="-2.674161">
        <ele>622.747</ele>
        <time>2022-07-03T15:58:23Z</time>
      </trkpt>
      <trkpt lat="42.735556" lon="-2.674115">
        <ele>623.129</ele>
        <time>2022-07-03T15:58:26Z</time>
      </trkpt>
      <trkpt lat="42.735513" lon="-2.674060">
        <ele>624.221</ele>
        <time>2022-07-03T15:58:29Z</time>
      </trkpt>
      <trkpt lat="42.735470" lon="-2.674009">
        <ele>625.309</ele>
        <time>2022-07-03T15:58:32Z</time>
      </trkpt>
      <trkpt lat="42.735433" lon="-2.673972">
        <ele>625.845</ele>
        <time>2022-07-03T15:58:35Z</time>
      </trkpt>
      <trkpt lat="42.735384" lon="-2.673938">
        <ele>626.234</ele>
        <time>2022-07-03T15:58:38Z</time>
      </trkpt>
      <trkpt lat="42.735351" lon="-2.673888">
        <ele>626.611</ele>
        <time>2022-07-03T15:58:42Z</time>
      </trkpt>
      <trkpt lat="42.735304" lon="-2.673836">
        <ele>627.244</ele>
        <time>2022-07-03T15:58:46Z</time>
      </trkpt>
      <trkpt lat="42.735267" lon="-2.673776">
        <ele>628.135</ele>
        <time>2022-07-03T15:58:50Z</time>
      </trkpt>
      <trkpt lat="42.735225" lon="-2.673730">
        <ele>630.041</ele>
        <time>2022-07-03T15:58:53Z</time>
      </trkpt>
      <trkpt lat="42.735188" lon="-2.673678">
        <ele>631.094</ele>
        <time>2022-07-03T15:58:56Z</time>
      </trkpt>
      <trkpt lat="42.735156" lon="-2.673631">
        <ele>631.863</ele>
        <time>2022-07-03T15:58:58Z</time>
      </trkpt>
      <trkpt lat="42.735121" lon="-2.673588">
        <ele>632.143</ele>
        <time>2022-07-03T15:59:00Z</time>
      </trkpt>
      <trkpt lat="42.735088" lon="-2.673546">
        <ele>632.451</ele>
        <time>2022-07-03T15:59:02Z</time>
      </trkpt>
      <trkpt lat="42.735057" lon="-2.673493">
        <ele>632.401</ele>
        <time>2022-07-03T15:59:04Z</time>
      </trkpt>
      <trkpt lat="42.735034" lon="-2.673436">
        <ele>632.511</ele>
        <time>2022-07-03T15:59:06Z</time>
      </trkpt>
      <trkpt lat="42.735029" lon="-2.673369">
        <ele>632.809</ele>
        <time>2022-07-03T15:59:08Z</time>
      </trkpt>
      <trkpt lat="42.735033" lon="-2.673293">
        <ele>633.176</ele>
        <time>2022-07-03T15:59:10Z</time>
      </trkpt>
      <trkpt lat="42.735045" lon="-2.673222">
        <ele>633.485</ele>
        <time>2022-07-03T15:59:12Z</time>
      </trkpt>
      <trkpt lat="42.735058" lon="-2.673152">
        <ele>633.842</ele>
        <time>2022-07-03T15:59:14Z</time>
      </trkpt>
      <trkpt lat="42.735071" lon="-2.673080">
        <ele>634.185</ele>
        <time>2022-07-03T15:59:16Z</time>
      </trkpt>
      <trkpt lat="42.735081" lon="-2.673008">
        <ele>634.236</ele>
        <time>2022-07-03T15:59:18Z</time>
      </trkpt>
      <trkpt lat="42.735097" lon="-2.672941">
        <ele>634.272</ele>
        <time>2022-07-03T15:59:20Z</time>
      </trkpt>
      <trkpt lat="42.735118" lon="-2.672878">
        <ele>634.365</ele>
        <time>2022-07-03T15:59:22Z</time>
      </trkpt>
      <trkpt lat="42.735140" lon="-2.672812">
        <ele>634.444</ele>
        <time>2022-07-03T15:59:24Z</time>
      </trkpt>
      <trkpt lat="42.735164" lon="-2.672742">
        <ele>634.624</ele>
        <time>2022-07-03T15:59:26Z</time>
      </trkpt>
      <trkpt lat="42.735185" lon="-2.672665">
        <ele>635.181</ele>
        <time>2022-07-03T15:59:28Z</time>
      </trkpt>
      <trkpt lat="42.735204" lon="-2.672582">
        <ele>635.161</ele>
        <time>2022-07-03T15:59:30Z</time>
      </trkpt>
      <trkpt lat="42.735219" lon="-2.672486">
        <ele>635.317</ele>
        <time>2022-07-03T15:59:32Z</time>
      </trkpt>
      <trkpt lat="42.735223" lon="-2.672381">
        <ele>635.609</ele>
        <time>2022-07-03T15:59:34Z</time>
      </trkpt>
      <trkpt lat="42.735219" lon="-2.672273">
        <ele>635.879</ele>
        <time>2022-07-03T15:59:36Z</time>
      </trkpt>
      <trkpt lat="42.735219" lon="-2.672173">
        <ele>636.198</ele>
        <time>2022-07-03T15:59:38Z</time>
      </trkpt>
      <trkpt lat="42.735226" lon="-2.672080">
        <ele>636.545</ele>
        <time>2022-07-03T15:59:40Z</time>
      </trkpt>
      <trkpt lat="42.735237" lon="-2.671994">
        <ele>636.718</ele>
        <time>2022-07-03T15:59:42Z</time>
      </trkpt>
      <trkpt lat="42.735251" lon="-2.671908">
        <ele>636.729</ele>
        <time>2022-07-03T15:59:44Z</time>
      </trkpt>
      <trkpt lat="42.735263" lon="-2.671824">
        <ele>636.765</ele>
        <time>2022-07-03T15:59:46Z</time>
      </trkpt>
      <trkpt lat="42.735261" lon="-2.671753">
        <ele>637.118</ele>
        <time>2022-07-03T15:59:48Z</time>
      </trkpt>
      <trkpt lat="42.735246" lon="-2.671688">
        <ele>637.347</ele>
        <time>2022-07-03T15:59:50Z</time>
      </trkpt>
      <trkpt lat="42.735228" lon="-2.671617">
        <ele>637.837</ele>
        <time>2022-07-03T15:59:52Z</time>
      </trkpt>
      <trkpt lat="42.735206" lon="-2.671541">
        <ele>638.453</ele>
        <time>2022-07-03T15:59:54Z</time>
      </trkpt>
      <trkpt lat="42.735178" lon="-2.671470">
        <ele>639.004</ele>
        <time>2022-07-03T15:59:56Z</time>
      </trkpt>
      <trkpt lat="42.735150" lon="-2.671394">
        <ele>639.014</ele>
        <time>2022-07-03T15:59:58Z</time>
      </trkpt>
      <trkpt lat="42.735127" lon="-2.671328">
        <ele>639.109</ele>
        <time>2022-07-03T16:00:00Z</time>
      </trkpt>
      <trkpt lat="42.735114" lon="-2.671267">
        <ele>639.216</ele>
        <time>2022-07-03T16:00:02Z</time>
      </trkpt>
      <trkpt lat="42.735108" lon="-2.671206">
        <ele>639.455</ele>
        <time>2022-07-03T16:00:04Z</time>
      </trkpt>
      <trkpt lat="42.735121" lon="-2.671130">
        <ele>639.912</ele>
        <time>2022-07-03T16:00:07Z</time>
      </trkpt>
      <trkpt lat="42.735139" lon="-2.671052">
        <ele>640.565</ele>
        <time>2022-07-03T16:00:10Z</time>
      </trkpt>
      <trkpt lat="42.735148" lon="-2.670984">
        <ele>641.326</ele>
        <time>2022-07-03T16:00:12Z</time>
      </trkpt>
      <trkpt lat="42.735147" lon="-2.670919">
        <ele>642.232</ele>
        <time>2022-07-03T16:00:14Z</time>
      </trkpt>
      <trkpt lat="42.735146" lon="-2.670855">
        <ele>642.735</ele>
        <time>2022-07-03T16:00:16Z</time>
      </trkpt>
      <trkpt lat="42.735154" lon="-2.670790">
        <ele>643.194</ele>
        <time>2022-07-03T16:00:18Z</time>
      </trkpt>
      <trkpt lat="42.735152" lon="-2.670724">
        <ele>643.424</ele>
        <time>2022-07-03T16:00:20Z</time>
      </trkpt>
      <trkpt lat="42.735143" lon="-2.670635">
        <ele>643.511</ele>
        <time>2022-07-03T16:00:23Z</time>
      </trkpt>
      <trkpt lat="42.735139" lon="-2.670572">
        <ele>643.621</ele>
        <time>2022-07-03T16:00:25Z</time>
      </trkpt>
      <trkpt lat="42.735132" lon="-2.670505">
        <ele>644.003</ele>
        <time>2022-07-03T16:00:27Z</time>
      </trkpt>
      <trkpt lat="42.735123" lon="-2.670438">
        <ele>644.409</ele>
        <time>2022-07-03T16:00:29Z</time>
      </trkpt>
      <trkpt lat="42.735116" lon="-2.670373">
        <ele>644.522</ele>
        <time>2022-07-03T16:00:31Z</time>
      </trkpt>
      <trkpt lat="42.735109" lon="-2.670309">
        <ele>644.631</ele>
        <time>2022-07-03T16:00:33Z</time>
      </trkpt>
      <trkpt lat="42.735103" lon="-2.670245">
        <ele>644.758</ele>
        <time>2022-07-03T16:00:35Z</time>
      </trkpt>
      <trkpt lat="42.735095" lon="-2.670175">
        <ele>645.031</ele>
        <time>2022-07-03T16:00:37Z</time>
      </trkpt>
      <trkpt lat="42.735085" lon="-2.670102">
        <ele>645.252</ele>
        <time>2022-07-03T16:00:39Z</time>
      </trkpt>
      <trkpt lat="42.735073" lon="-2.670012">
        <ele>645.428</ele>
        <time>2022-07-03T16:00:41Z</time>
      </trkpt>
      <trkpt lat="42.735052" lon="-2.669903">
        <ele>645.811</ele>
        <time>2022-07-03T16:00:43Z</time>
      </trkpt>
      <trkpt lat="42.735032" lon="-2.669848">
        <ele>645.930</ele>
        <time>2022-07-03T16:00:44Z</time>
      </trkpt>
      <trkpt lat="42.735003" lon="-2.669795">
        <ele>645.950</ele>
        <time>2022-07-03T16:00:45Z</time>
      </trkpt>
      <trkpt lat="42.734947" lon="-2.669754">
        <ele>645.944</ele>
        <time>2022-07-03T16:00:46Z</time>
      </trkpt>
      <trkpt lat="42.734888" lon="-2.669669">
        <ele>645.905</ele>
        <time>2022-07-03T16:00:48Z</time>
      </trkpt>
      <trkpt lat="42.734857" lon="-2.669614">
        <ele>645.915</ele>
        <time>2022-07-03T16:00:49Z</time>
      </trkpt>
      <trkpt lat="42.734808" lon="-2.669535">
        <ele>645.909</ele>
        <time>2022-07-03T16:00:51Z</time>
      </trkpt>
      <trkpt lat="42.734773" lon="-2.669469">
        <ele>645.895</ele>
        <time>2022-07-03T16:00:53Z</time>
      </trkpt>
      <trkpt lat="42.734732" lon="-2.669406">
        <ele>645.784</ele>
        <time>2022-07-03T16:00:55Z</time>
      </trkpt>
      <trkpt lat="42.734691" lon="-2.669356">
        <ele>645.731</ele>
        <time>2022-07-03T16:00:57Z</time>
      </trkpt>
      <trkpt lat="42.734634" lon="-2.669341">
        <ele>645.734</ele>
        <time>2022-07-03T16:00:59Z</time>
      </trkpt>
      <trkpt lat="42.734578" lon="-2.669350">
        <ele>645.875</ele>
        <time>2022-07-03T16:01:01Z</time>
      </trkpt>
      <trkpt lat="42.734528" lon="-2.669385">
        <ele>645.961</ele>
        <time>2022-07-03T16:01:03Z</time>
      </trkpt>
      <trkpt lat="42.734479" lon="-2.669430">
        <ele>645.994</ele>
        <time>2022-07-03T16:01:05Z</time>
      </trkpt>
      <trkpt lat="42.734430" lon="-2.669488">
        <ele>645.983</ele>
        <time>2022-07-03T16:01:07Z</time>
      </trkpt>
      <trkpt lat="42.734396" lon="-2.669549">
        <ele>645.933</ele>
        <time>2022-07-03T16:01:09Z</time>
      </trkpt>
      <trkpt lat="42.734363" lon="-2.669596">
        <ele>645.892</ele>
        <time>2022-07-03T16:01:11Z</time>
      </trkpt>
      <trkpt lat="42.734322" lon="-2.669626">
        <ele>645.873</ele>
        <time>2022-07-03T16:01:13Z</time>
      </trkpt>
      <trkpt lat="42.734255" lon="-2.669630">
        <ele>645.820</ele>
        <time>2022-07-03T16:01:16Z</time>
      </trkpt>
      <trkpt lat="42.734212" lon="-2.669599">
        <ele>646.109</ele>
        <time>2022-07-03T16:01:18Z</time>
      </trkpt>
      <trkpt lat="42.734176" lon="-2.669558">
        <ele>646.980</ele>
        <time>2022-07-03T16:01:20Z</time>
      </trkpt>
      <trkpt lat="42.734141" lon="-2.669519">
        <ele>647.789</ele>
        <time>2022-07-03T16:01:22Z</time>
      </trkpt>
      <trkpt lat="42.734095" lon="-2.669483">
        <ele>648.486</ele>
        <time>2022-07-03T16:01:24Z</time>
      </trkpt>
      <trkpt lat="42.734040" lon="-2.669449">
        <ele>649.199</ele>
        <time>2022-07-03T16:01:26Z</time>
      </trkpt>
      <trkpt lat="42.733981" lon="-2.669417">
        <ele>649.670</ele>
        <time>2022-07-03T16:01:28Z</time>
      </trkpt>
      <trkpt lat="42.733915" lon="-2.669390">
        <ele>649.656</ele>
        <time>2022-07-03T16:01:30Z</time>
      </trkpt>
      <trkpt lat="42.733848" lon="-2.669375">
        <ele>649.629</ele>
        <time>2022-07-03T16:01:32Z</time>
      </trkpt>
      <trkpt lat="42.733782" lon="-2.669375">
        <ele>649.318</ele>
        <time>2022-07-03T16:01:34Z</time>
      </trkpt>
      <trkpt lat="42.733721" lon="-2.669392">
        <ele>648.768</ele>
        <time>2022-07-03T16:01:36Z</time>
      </trkpt>
      <trkpt lat="42.733663" lon="-2.669421">
        <ele>648.794</ele>
        <time>2022-07-03T16:01:38Z</time>
      </trkpt>
      <trkpt lat="42.733605" lon="-2.669454">
        <ele>648.757</ele>
        <time>2022-07-03T16:01:40Z</time>
      </trkpt>
      <trkpt lat="42.733546" lon="-2.669486">
        <ele>648.822</ele>
        <time>2022-07-03T16:01:42Z</time>
      </trkpt>
      <trkpt lat="42.733501" lon="-2.669512">
        <ele>648.909</ele>
        <time>2022-07-03T16:01:44Z</time>
      </trkpt>
      <trkpt lat="42.733445" lon="-2.669545">
        <ele>649.010</ele>
        <time>2022-07-03T16:01:47Z</time>
      </trkpt>
      <trkpt lat="42.733401" lon="-2.669572">
        <ele>649.529</ele>
        <time>2022-07-03T16:01:49Z</time>
      </trkpt>
      <trkpt lat="42.733354" lon="-2.669599">
        <ele>650.686</ele>
        <time>2022-07-03T16:01:51Z</time>
      </trkpt>
      <trkpt lat="42.733307" lon="-2.669613">
        <ele>650.859</ele>
        <time>2022-07-03T16:01:53Z</time>
      </trkpt>
      <trkpt lat="42.733257" lon="-2.669617">
        <ele>651.060</ele>
        <time>2022-07-03T16:01:55Z</time>
      </trkpt>
      <trkpt lat="42.733200" lon="-2.669618">
        <ele>651.166</ele>
        <time>2022-07-03T16:01:58Z</time>
      </trkpt>
      <trkpt lat="42.733144" lon="-2.669619">
        <ele>651.319</ele>
        <time>2022-07-03T16:02:01Z</time>
      </trkpt>
      <trkpt lat="42.733077" lon="-2.669619">
        <ele>651.958</ele>
        <time>2022-07-03T16:02:04Z</time>
      </trkpt>
      <trkpt lat="42.733013" lon="-2.669613">
        <ele>653.758</ele>
        <time>2022-07-03T16:02:07Z</time>
      </trkpt>
      <trkpt lat="42.732949" lon="-2.669608">
        <ele>654.689</ele>
        <time>2022-07-03T16:02:10Z</time>
      </trkpt>
      <trkpt lat="42.732889" lon="-2.669610">
        <ele>655.006</ele>
        <time>2022-07-03T16:02:13Z</time>
      </trkpt>
      <trkpt lat="42.732833" lon="-2.669626">
        <ele>655.126</ele>
        <time>2022-07-03T16:02:16Z</time>
      </trkpt>
      <trkpt lat="42.732777" lon="-2.669660">
        <ele>655.909</ele>
        <time>2022-07-03T16:02:19Z</time>
      </trkpt>
      <trkpt lat="42.732729" lon="-2.669689">
        <ele>656.219</ele>
        <time>2022-07-03T16:02:22Z</time>
      </trkpt>
      <trkpt lat="42.732686" lon="-2.669719">
        <ele>656.388</ele>
        <time>2022-07-03T16:03:04Z</time>
      </trkpt>
      <trkpt lat="42.732630" lon="-2.669754">
        <ele>656.385</ele>
        <time>2022-07-03T16:03:07Z</time>
      </trkpt>
      <trkpt lat="42.732579" lon="-2.669780">
        <ele>656.778</ele>
        <time>2022-07-03T16:03:09Z</time>
      </trkpt>
      <trkpt lat="42.732523" lon="-2.669809">
        <ele>658.029</ele>
        <time>2022-07-03T16:03:11Z</time>
      </trkpt>
      <trkpt lat="42.732446" lon="-2.669846">
        <ele>658.035</ele>
        <time>2022-07-03T16:03:13Z</time>
      </trkpt>
      <trkpt lat="42.732389" lon="-2.669894">
        <ele>658.088</ele>
        <time>2022-07-03T16:03:14Z</time>
      </trkpt>
      <trkpt lat="42.732343" lon="-2.669958">
        <ele>657.897</ele>
        <time>2022-07-03T16:03:15Z</time>
      </trkpt>
      <trkpt lat="42.732302" lon="-2.670028">
        <ele>657.587</ele>
        <time>2022-07-03T16:03:16Z</time>
      </trkpt>
      <trkpt lat="42.732278" lon="-2.670098">
        <ele>657.433</ele>
        <time>2022-07-03T16:03:17Z</time>
      </trkpt>
      <trkpt lat="42.732250" lon="-2.670166">
        <ele>657.023</ele>
        <time>2022-07-03T16:03:18Z</time>
      </trkpt>
      <trkpt lat="42.732214" lon="-2.670228">
        <ele>657.015</ele>
        <time>2022-07-03T16:03:19Z</time>
      </trkpt>
      <trkpt lat="42.732179" lon="-2.670289">
        <ele>656.809</ele>
        <time>2022-07-03T16:03:20Z</time>
      </trkpt>
      <trkpt lat="42.732129" lon="-2.670338">
        <ele>656.234</ele>
        <time>2022-07-03T16:03:21Z</time>
      </trkpt>
      <trkpt lat="42.732082" lon="-2.670401">
        <ele>655.643</ele>
        <time>2022-07-03T16:03:22Z</time>
      </trkpt>
      <trkpt lat="42.732027" lon="-2.670452">
        <ele>655.110</ele>
        <time>2022-07-03T16:03:23Z</time>
      </trkpt>
      <trkpt lat="42.731983" lon="-2.670514">
        <ele>655.123</ele>
        <time>2022-07-03T16:03:24Z</time>
      </trkpt>
      <trkpt lat="42.731949" lon="-2.670584">
        <ele>653.824</ele>
        <time>2022-07-03T16:03:25Z</time>
      </trkpt>
      <trkpt lat="42.731921" lon="-2.670672">
        <ele>652.870</ele>
        <time>2022-07-03T16:03:26Z</time>
      </trkpt>
      <trkpt lat="42.731891" lon="-2.670767">
        <ele>651.643</ele>
        <time>2022-07-03T16:03:27Z</time>
      </trkpt>
      <trkpt lat="42.731870" lon="-2.670862">
        <ele>650.322</ele>
        <time>2022-07-03T16:03:28Z</time>
      </trkpt>
      <trkpt lat="42.731846" lon="-2.670966">
        <ele>649.252</ele>
        <time>2022-07-03T16:03:29Z</time>
      </trkpt>
      <trkpt lat="42.731846" lon="-2.671070">
        <ele>648.511</ele>
        <time>2022-07-03T16:03:30Z</time>
      </trkpt>
      <trkpt lat="42.731853" lon="-2.671167">
        <ele>647.821</ele>
        <time>2022-07-03T16:03:31Z</time>
      </trkpt>
      <trkpt lat="42.731864" lon="-2.671262">
        <ele>647.103</ele>
        <time>2022-07-03T16:03:32Z</time>
      </trkpt>
      <trkpt lat="42.731878" lon="-2.671356">
        <ele>646.709</ele>
        <time>2022-07-03T16:03:33Z</time>
      </trkpt>
      <trkpt lat="42.731858" lon="-2.671450">
        <ele>646.572</ele>
        <time>2022-07-03T16:03:34Z</time>
      </trkpt>
      <trkpt lat="42.731855" lon="-2.671554">
        <ele>646.421</ele>
        <time>2022-07-03T16:03:35Z</time>
      </trkpt>
      <trkpt lat="42.731843" lon="-2.671651">
        <ele>646.488</ele>
        <time>2022-07-03T16:03:36Z</time>
      </trkpt>
      <trkpt lat="42.731824" lon="-2.671755">
        <ele>646.421</ele>
        <time>2022-07-03T16:03:37Z</time>
      </trkpt>
      <trkpt lat="42.731803" lon="-2.671848">
        <ele>646.342</ele>
        <time>2022-07-03T16:03:38Z</time>
      </trkpt>
      <trkpt lat="42.731791" lon="-2.671939">
        <ele>646.138</ele>
        <time>2022-07-03T16:03:39Z</time>
      </trkpt>
      <trkpt lat="42.731788" lon="-2.672027">
        <ele>645.721</ele>
        <time>2022-07-03T16:03:40Z</time>
      </trkpt>
      <trkpt lat="42.731778" lon="-2.672114">
        <ele>645.440</ele>
        <time>2022-07-03T16:03:41Z</time>
      </trkpt>
      <trkpt lat="42.731762" lon="-2.672193">
        <ele>644.930</ele>
        <time>2022-07-03T16:03:42Z</time>
      </trkpt>
      <trkpt lat="42.731741" lon="-2.672276">
        <ele>644.944</ele>
        <time>2022-07-03T16:03:43Z</time>
      </trkpt>
      <trkpt lat="42.731720" lon="-2.672358">
        <ele>644.905</ele>
        <time>2022-07-03T16:03:44Z</time>
      </trkpt>
      <trkpt lat="42.731699" lon="-2.672449">
        <ele>644.715</ele>
        <time>2022-07-03T16:03:45Z</time>
      </trkpt>
      <trkpt lat="42.731674" lon="-2.672532">
        <ele>644.709</ele>
        <time>2022-07-03T16:03:46Z</time>
      </trkpt>
      <trkpt lat="42.731649" lon="-2.672622">
        <ele>644.765</ele>
        <time>2022-07-03T16:03:47Z</time>
      </trkpt>
      <trkpt lat="42.731618" lon="-2.672713">
        <ele>644.384</ele>
        <time>2022-07-03T16:03:48Z</time>
      </trkpt>
      <trkpt lat="42.731592" lon="-2.672795">
        <ele>643.841</ele>
        <time>2022-07-03T16:03:49Z</time>
      </trkpt>
      <trkpt lat="42.731571" lon="-2.672891">
        <ele>643.454</ele>
        <time>2022-07-03T16:03:50Z</time>
      </trkpt>
      <trkpt lat="42.731549" lon="-2.672985">
        <ele>642.975</ele>
        <time>2022-07-03T16:03:51Z</time>
      </trkpt>
      <trkpt lat="42.731523" lon="-2.673069">
        <ele>642.861</ele>
        <time>2022-07-03T16:03:52Z</time>
      </trkpt>
      <trkpt lat="42.731500" lon="-2.673153">
        <ele>642.894</ele>
        <time>2022-07-03T16:03:53Z</time>
      </trkpt>
      <trkpt lat="42.731494" lon="-2.673243">
        <ele>642.963</ele>
        <time>2022-07-03T16:03:54Z</time>
      </trkpt>
      <trkpt lat="42.731482" lon="-2.673333">
        <ele>642.953</ele>
        <time>2022-07-03T16:03:55Z</time>
      </trkpt>
      <trkpt lat="42.731466" lon="-2.673415">
        <ele>642.969</ele>
        <time>2022-07-03T16:03:56Z</time>
      </trkpt>
      <trkpt lat="42.731441" lon="-2.673466">
        <ele>642.904</ele>
        <time>2022-07-03T16:03:57Z</time>
      </trkpt>
      <trkpt lat="42.731373" lon="-2.673477">
        <ele>642.924</ele>
        <time>2022-07-03T16:03:59Z</time>
      </trkpt>
      <trkpt lat="42.731312" lon="-2.673465">
        <ele>643.009</ele>
        <time>2022-07-03T16:04:00Z</time>
      </trkpt>
      <trkpt lat="42.731226" lon="-2.673450">
        <ele>643.047</ele>
        <time>2022-07-03T16:04:03Z</time>
      </trkpt>
      <trkpt lat="42.731146" lon="-2.673488">
        <ele>643.076</ele>
        <time>2022-07-03T16:04:05Z</time>
      </trkpt>
      <trkpt lat="42.731080" lon="-2.673545">
        <ele>641.913</ele>
        <time>2022-07-03T16:04:07Z</time>
      </trkpt>
      <trkpt lat="42.731025" lon="-2.673638">
        <ele>641.136</ele>
        <time>2022-07-03T16:04:09Z</time>
      </trkpt>
      <trkpt lat="42.730971" lon="-2.673738">
        <ele>640.137</ele>
        <time>2022-07-03T16:04:11Z</time>
      </trkpt>
      <trkpt lat="42.730876" lon="-2.673781">
        <ele>638.223</ele>
        <time>2022-07-03T16:04:13Z</time>
      </trkpt>
      <trkpt lat="42.730805" lon="-2.673784">
        <ele>637.796</ele>
        <time>2022-07-03T16:04:14Z</time>
      </trkpt>
      <trkpt lat="42.730719" lon="-2.673801">
        <ele>637.025</ele>
        <time>2022-07-03T16:04:15Z</time>
      </trkpt>
      <trkpt lat="42.730641" lon="-2.673806">
        <ele>636.515</ele>
        <time>2022-07-03T16:04:16Z</time>
      </trkpt>
      <trkpt lat="42.730578" lon="-2.673817">
        <ele>636.128</ele>
        <time>2022-07-03T16:04:17Z</time>
      </trkpt>
      <trkpt lat="42.730501" lon="-2.673849">
        <ele>635.489</ele>
        <time>2022-07-03T16:04:18Z</time>
      </trkpt>
      <trkpt lat="42.730425" lon="-2.673880">
        <ele>634.617</ele>
        <time>2022-07-03T16:04:19Z</time>
      </trkpt>
      <trkpt lat="42.730357" lon="-2.673889">
        <ele>633.709</ele>
        <time>2022-07-03T16:04:20Z</time>
      </trkpt>
      <trkpt lat="42.730284" lon="-2.673903">
        <ele>632.613</ele>
        <time>2022-07-03T16:04:21Z</time>
      </trkpt>
      <trkpt lat="42.730215" lon="-2.673925">
        <ele>631.622</ele>
        <time>2022-07-03T16:04:22Z</time>
      </trkpt>
      <trkpt lat="42.730141" lon="-2.673930">
        <ele>630.779</ele>
        <time>2022-07-03T16:04:23Z</time>
      </trkpt>
      <trkpt lat="42.730074" lon="-2.673936">
        <ele>629.992</ele>
        <time>2022-07-03T16:04:24Z</time>
      </trkpt>
      <trkpt lat="42.730008" lon="-2.673970">
        <ele>629.283</ele>
        <time>2022-07-03T16:04:25Z</time>
      </trkpt>
      <trkpt lat="42.729959" lon="-2.674015">
        <ele>628.789</ele>
        <time>2022-07-03T16:04:26Z</time>
      </trkpt>
      <trkpt lat="42.729918" lon="-2.674062">
        <ele>628.482</ele>
        <time>2022-07-03T16:04:27Z</time>
      </trkpt>
      <trkpt lat="42.729894" lon="-2.674124">
        <ele>628.071</ele>
        <time>2022-07-03T16:04:28Z</time>
      </trkpt>
      <trkpt lat="42.729876" lon="-2.674230">
        <ele>627.321</ele>
        <time>2022-07-03T16:04:30Z</time>
      </trkpt>
      <trkpt lat="42.729833" lon="-2.674327">
        <ele>626.843</ele>
        <time>2022-07-03T16:04:32Z</time>
      </trkpt>
      <trkpt lat="42.729786" lon="-2.674393">
        <ele>625.764</ele>
        <time>2022-07-03T16:04:34Z</time>
      </trkpt>
      <trkpt lat="42.729748" lon="-2.674432">
        <ele>625.710</ele>
        <time>2022-07-03T16:04:35Z</time>
      </trkpt>
      <trkpt lat="42.729681" lon="-2.674479">
        <ele>625.709</ele>
        <time>2022-07-03T16:04:37Z</time>
      </trkpt>
      <trkpt lat="42.729636" lon="-2.674509">
        <ele>625.885</ele>
        <time>2022-07-03T16:04:38Z</time>
      </trkpt>
      <trkpt lat="42.729596" lon="-2.674540">
        <ele>626.174</ele>
        <time>2022-07-03T16:04:39Z</time>
      </trkpt>
      <trkpt lat="42.729523" lon="-2.674572">
        <ele>626.181</ele>
        <time>2022-07-03T16:04:41Z</time>
      </trkpt>
      <trkpt lat="42.729479" lon="-2.674609">
        <ele>626.264</ele>
        <time>2022-07-03T16:04:42Z</time>
      </trkpt>
      <trkpt lat="42.729427" lon="-2.674690">
        <ele>626.295</ele>
        <time>2022-07-03T16:04:44Z</time>
      </trkpt>
      <trkpt lat="42.729406" lon="-2.674746">
        <ele>626.271</ele>
        <time>2022-07-03T16:04:45Z</time>
      </trkpt>
      <trkpt lat="42.729364" lon="-2.674847">
        <ele>626.294</ele>
        <time>2022-07-03T16:04:47Z</time>
      </trkpt>
      <trkpt lat="42.729333" lon="-2.674951">
        <ele>626.263</ele>
        <time>2022-07-03T16:04:49Z</time>
      </trkpt>
      <trkpt lat="42.729322" lon="-2.675015">
        <ele>626.263</ele>
        <time>2022-07-03T16:04:50Z</time>
      </trkpt>
      <trkpt lat="42.729299" lon="-2.675084">
        <ele>626.296</ele>
        <time>2022-07-03T16:04:51Z</time>
      </trkpt>
      <trkpt lat="42.729270" lon="-2.675154">
        <ele>626.231</ele>
        <time>2022-07-03T16:04:52Z</time>
      </trkpt>
      <trkpt lat="42.729251" lon="-2.675232">
        <ele>626.224</ele>
        <time>2022-07-03T16:04:53Z</time>
      </trkpt>
      <trkpt lat="42.729226" lon="-2.675304">
        <ele>626.309</ele>
        <time>2022-07-03T16:04:54Z</time>
      </trkpt>
      <trkpt lat="42.729209" lon="-2.675378">
        <ele>626.390</ele>
        <time>2022-07-03T16:04:55Z</time>
      </trkpt>
      <trkpt lat="42.729194" lon="-2.675451">
        <ele>626.379</ele>
        <time>2022-07-03T16:04:56Z</time>
      </trkpt>
      <trkpt lat="42.729178" lon="-2.675520">
        <ele>626.226</ele>
        <time>2022-07-03T16:04:57Z</time>
      </trkpt>
      <trkpt lat="42.729113" lon="-2.675577">
        <ele>626.279</ele>
        <time>2022-07-03T16:04:58Z</time>
      </trkpt>
      <trkpt lat="42.729069" lon="-2.675610">
        <ele>626.190</ele>
        <time>2022-07-03T16:04:59Z</time>
      </trkpt>
      <trkpt lat="42.729026" lon="-2.675671">
        <ele>626.136</ele>
        <time>2022-07-03T16:05:00Z</time>
      </trkpt>
      <trkpt lat="42.728970" lon="-2.675717">
        <ele>625.779</ele>
        <time>2022-07-03T16:05:01Z</time>
      </trkpt>
      <trkpt lat="42.728930" lon="-2.675764">
        <ele>625.588</ele>
        <time>2022-07-03T16:05:02Z</time>
      </trkpt>
      <trkpt lat="42.728892" lon="-2.675808">
        <ele>625.058</ele>
        <time>2022-07-03T16:05:03Z</time>
      </trkpt>
      <trkpt lat="42.728845" lon="-2.675846">
        <ele>624.638</ele>
        <time>2022-07-03T16:05:04Z</time>
      </trkpt>
      <trkpt lat="42.728792" lon="-2.675870">
        <ele>624.470</ele>
        <time>2022-07-03T16:05:05Z</time>
      </trkpt>
      <trkpt lat="42.728741" lon="-2.675892">
        <ele>624.317</ele>
        <time>2022-07-03T16:05:06Z</time>
      </trkpt>
      <trkpt lat="42.728683" lon="-2.675911">
        <ele>624.009</ele>
        <time>2022-07-03T16:05:07Z</time>
      </trkpt>
      <trkpt lat="42.728631" lon="-2.675941">
        <ele>623.914</ele>
        <time>2022-07-03T16:05:08Z</time>
      </trkpt>
      <trkpt lat="42.728586" lon="-2.675977">
        <ele>623.823</ele>
        <time>2022-07-03T16:05:09Z</time>
      </trkpt>
      <trkpt lat="42.728541" lon="-2.676019">
        <ele>623.540</ele>
        <time>2022-07-03T16:05:10Z</time>
      </trkpt>
      <trkpt lat="42.728496" lon="-2.676072">
        <ele>623.593</ele>
        <time>2022-07-03T16:05:11Z</time>
      </trkpt>
      <trkpt lat="42.728445" lon="-2.676121">
        <ele>623.584</ele>
        <time>2022-07-03T16:05:12Z</time>
      </trkpt>
      <trkpt lat="42.728414" lon="-2.676166">
        <ele>623.570</ele>
        <time>2022-07-03T16:05:13Z</time>
      </trkpt>
      <trkpt lat="42.728377" lon="-2.676215">
        <ele>623.523</ele>
        <time>2022-07-03T16:05:14Z</time>
      </trkpt>
      <trkpt lat="42.728279" lon="-2.676249">
        <ele>623.642</ele>
        <time>2022-07-03T16:05:15Z</time>
      </trkpt>
      <trkpt lat="42.728179" lon="-2.676279">
        <ele>623.692</ele>
        <time>2022-07-03T16:05:16Z</time>
      </trkpt>
      <trkpt lat="42.728099" lon="-2.676303">
        <ele>623.617</ele>
        <time>2022-07-03T16:05:17Z</time>
      </trkpt>
      <trkpt lat="42.728032" lon="-2.676328">
        <ele>623.687</ele>
        <time>2022-07-03T16:05:18Z</time>
      </trkpt>
      <trkpt lat="42.727974" lon="-2.676360">
        <ele>623.415</ele>
        <time>2022-07-03T16:05:19Z</time>
      </trkpt>
      <trkpt lat="42.727905" lon="-2.676409">
        <ele>622.909</ele>
        <time>2022-07-03T16:05:20Z</time>
      </trkpt>
      <trkpt lat="42.727847" lon="-2.676469">
        <ele>622.622</ele>
        <time>2022-07-03T16:05:21Z</time>
      </trkpt>
      <trkpt lat="42.727799" lon="-2.676542">
        <ele>622.361</ele>
        <time>2022-07-03T16:05:22Z</time>
      </trkpt>
      <trkpt lat="42.727748" lon="-2.676604">
        <ele>621.728</ele>
        <time>2022-07-03T16:05:23Z</time>
      </trkpt>
      <trkpt lat="42.727699" lon="-2.676672">
        <ele>621.131</ele>
        <time>2022-07-03T16:05:24Z</time>
      </trkpt>
      <trkpt lat="42.727646" lon="-2.676727">
        <ele>620.672</ele>
        <time>2022-07-03T16:05:25Z</time>
      </trkpt>
      <trkpt lat="42.727589" lon="-2.676792">
        <ele>620.428</ele>
        <time>2022-07-03T16:05:26Z</time>
      </trkpt>
      <trkpt lat="42.727530" lon="-2.676857">
        <ele>620.441</ele>
        <time>2022-07-03T16:05:27Z</time>
      </trkpt>
      <trkpt lat="42.727463" lon="-2.676906">
        <ele>620.320</ele>
        <time>2022-07-03T16:05:28Z</time>
      </trkpt>
      <trkpt lat="42.727416" lon="-2.676956">
        <ele>620.270</ele>
        <time>2022-07-03T16:05:29Z</time>
      </trkpt>
      <trkpt lat="42.727357" lon="-2.677018">
        <ele>620.162</ele>
        <time>2022-07-03T16:05:30Z</time>
      </trkpt>
      <trkpt lat="42.727297" lon="-2.677064">
        <ele>619.883</ele>
        <time>2022-07-03T16:05:31Z</time>
      </trkpt>
      <trkpt lat="42.727246" lon="-2.677113">
        <ele>619.711</ele>
        <time>2022-07-03T16:05:32Z</time>
      </trkpt>
      <trkpt lat="42.727199" lon="-2.677162">
        <ele>619.209</ele>
        <time>2022-07-03T16:05:33Z</time>
      </trkpt>
      <trkpt lat="42.727154" lon="-2.677218">
        <ele>618.917</ele>
        <time>2022-07-03T16:05:34Z</time>
      </trkpt>
      <trkpt lat="42.727115" lon="-2.677269">
        <ele>618.656</ele>
        <time>2022-07-03T16:05:35Z</time>
      </trkpt>
      <trkpt lat="42.727069" lon="-2.677314">
        <ele>618.583</ele>
        <time>2022-07-03T16:05:36Z</time>
      </trkpt>
      <trkpt lat="42.727023" lon="-2.677356">
        <ele>618.576</ele>
        <time>2022-07-03T16:05:37Z</time>
      </trkpt>
      <trkpt lat="42.726942" lon="-2.677420">
        <ele>618.547</ele>
        <time>2022-07-03T16:05:39Z</time>
      </trkpt>
      <trkpt lat="42.726871" lon="-2.677493">
        <ele>619.093</ele>
        <time>2022-07-03T16:05:41Z</time>
      </trkpt>
      <trkpt lat="42.726819" lon="-2.677542">
        <ele>619.496</ele>
        <time>2022-07-03T16:05:43Z</time>
      </trkpt>
      <trkpt lat="42.726755" lon="-2.677612">
        <ele>619.425</ele>
        <time>2022-07-03T16:05:45Z</time>
      </trkpt>
      <trkpt lat="42.726719" lon="-2.677654">
        <ele>619.415</ele>
        <time>2022-07-03T16:05:46Z</time>
      </trkpt>
      <trkpt lat="42.726691" lon="-2.677704">
        <ele>619.211</ele>
        <time>2022-07-03T16:05:47Z</time>
      </trkpt>
      <trkpt lat="42.726698" lon="-2.677817">
        <ele>619.221</ele>
        <time>2022-07-03T16:05:49Z</time>
      </trkpt>
      <trkpt lat="42.726726" lon="-2.677905">
        <ele>619.003</ele>
        <time>2022-07-03T16:05:51Z</time>
      </trkpt>
      <trkpt lat="42.726774" lon="-2.678010">
        <ele>618.509</ele>
        <time>2022-07-03T16:05:53Z</time>
      </trkpt>
      <trkpt lat="42.726785" lon="-2.678137">
        <ele>617.652</ele>
        <time>2022-07-03T16:05:55Z</time>
      </trkpt>
      <trkpt lat="42.726800" lon="-2.678219">
        <ele>616.691</ele>
        <time>2022-07-03T16:05:56Z</time>
      </trkpt>
      <trkpt lat="42.726821" lon="-2.678307">
        <ele>615.968</ele>
        <time>2022-07-03T16:05:57Z</time>
      </trkpt>
      <trkpt lat="42.726832" lon="-2.678396">
        <ele>615.371</ele>
        <time>2022-07-03T16:05:58Z</time>
      </trkpt>
      <trkpt lat="42.726828" lon="-2.678494">
        <ele>614.922</ele>
        <time>2022-07-03T16:05:59Z</time>
      </trkpt>
      <trkpt lat="42.726828" lon="-2.678582">
        <ele>613.688</ele>
        <time>2022-07-03T16:06:00Z</time>
      </trkpt>
      <trkpt lat="42.726822" lon="-2.678645">
        <ele>613.211</ele>
        <time>2022-07-03T16:06:01Z</time>
      </trkpt>
      <trkpt lat="42.726798" lon="-2.678700">
        <ele>612.490</ele>
        <time>2022-07-03T16:06:02Z</time>
      </trkpt>
      <trkpt lat="42.726791" lon="-2.678785">
        <ele>611.540</ele>
        <time>2022-07-03T16:06:04Z</time>
      </trkpt>
      <trkpt lat="42.726739" lon="-2.678761">
        <ele>611.092</ele>
        <time>2022-07-03T16:06:25Z</time>
      </trkpt>
      <trkpt lat="42.726684" lon="-2.678783">
        <ele>610.673</ele>
        <time>2022-07-03T16:06:29Z</time>
      </trkpt>
      <trkpt lat="42.726638" lon="-2.678835">
        <ele>608.820</ele>
        <time>2022-07-03T16:06:32Z</time>
      </trkpt>
      <trkpt lat="42.726608" lon="-2.678882">
        <ele>608.609</ele>
        <time>2022-07-03T16:06:34Z</time>
      </trkpt>
      <trkpt lat="42.726550" lon="-2.678884">
        <ele>608.420</ele>
        <time>2022-07-03T16:06:37Z</time>
      </trkpt>
      <trkpt lat="42.726506" lon="-2.678858">
        <ele>608.389</ele>
        <time>2022-07-03T16:06:39Z</time>
      </trkpt>
      <trkpt lat="42.726452" lon="-2.678830">
        <ele>608.096</ele>
        <time>2022-07-03T16:06:41Z</time>
      </trkpt>
      <trkpt lat="42.726395" lon="-2.678799">
        <ele>607.669</ele>
        <time>2022-07-03T16:06:43Z</time>
      </trkpt>
      <trkpt lat="42.726341" lon="-2.678759">
        <ele>607.670</ele>
        <time>2022-07-03T16:06:46Z</time>
      </trkpt>
      <trkpt lat="42.726303" lon="-2.678718">
        <ele>607.656</ele>
        <time>2022-07-03T16:06:48Z</time>
      </trkpt>
      <trkpt lat="42.726247" lon="-2.678669">
        <ele>607.949</ele>
        <time>2022-07-03T16:06:50Z</time>
      </trkpt>
      <trkpt lat="42.726172" lon="-2.678629">
        <ele>607.938</ele>
        <time>2022-07-03T16:06:52Z</time>
      </trkpt>
      <trkpt lat="42.726090" lon="-2.678598">
        <ele>608.048</ele>
        <time>2022-07-03T16:06:54Z</time>
      </trkpt>
      <trkpt lat="42.726015" lon="-2.678578">
        <ele>608.258</ele>
        <time>2022-07-03T16:06:56Z</time>
      </trkpt>
      <trkpt lat="42.725947" lon="-2.678567">
        <ele>608.552</ele>
        <time>2022-07-03T16:06:58Z</time>
      </trkpt>
      <trkpt lat="42.725881" lon="-2.678572">
        <ele>608.917</ele>
        <time>2022-07-03T16:07:00Z</time>
      </trkpt>
      <trkpt lat="42.725813" lon="-2.678589">
        <ele>609.209</ele>
        <time>2022-07-03T16:07:02Z</time>
      </trkpt>
      <trkpt lat="42.725765" lon="-2.678586">
        <ele>609.256</ele>
        <time>2022-07-03T16:07:04Z</time>
      </trkpt>
      <trkpt lat="42.725715" lon="-2.678589">
        <ele>609.745</ele>
        <time>2022-07-03T16:07:06Z</time>
      </trkpt>
      <trkpt lat="42.725658" lon="-2.678590">
        <ele>610.062</ele>
        <time>2022-07-03T16:07:08Z</time>
      </trkpt>
      <trkpt lat="42.725582" lon="-2.678596">
        <ele>610.765</ele>
        <time>2022-07-03T16:07:10Z</time>
      </trkpt>
      <trkpt lat="42.725515" lon="-2.678653">
        <ele>610.736</ele>
        <time>2022-07-03T16:07:12Z</time>
      </trkpt>
      <trkpt lat="42.725468" lon="-2.678661">
        <ele>610.792</ele>
        <time>2022-07-03T16:07:13Z</time>
      </trkpt>
      <trkpt lat="42.725375" lon="-2.678653">
        <ele>610.135</ele>
        <time>2022-07-03T16:07:15Z</time>
      </trkpt>
      <trkpt lat="42.725306" lon="-2.678646">
        <ele>609.934</ele>
        <time>2022-07-03T16:07:16Z</time>
      </trkpt>
      <trkpt lat="42.725208" lon="-2.678621">
        <ele>609.794</ele>
        <time>2022-07-03T16:07:18Z</time>
      </trkpt>
      <trkpt lat="42.725159" lon="-2.678605">
        <ele>609.498</ele>
        <time>2022-07-03T16:07:19Z</time>
      </trkpt>
      <trkpt lat="42.725102" lon="-2.678577">
        <ele>609.015</ele>
        <time>2022-07-03T16:07:20Z</time>
      </trkpt>
      <trkpt lat="42.725043" lon="-2.678563">
        <ele>608.726</ele>
        <time>2022-07-03T16:07:21Z</time>
      </trkpt>
      <trkpt lat="42.724989" lon="-2.678574">
        <ele>608.509</ele>
        <time>2022-07-03T16:07:22Z</time>
      </trkpt>
      <trkpt lat="42.724887" lon="-2.678565">
        <ele>607.930</ele>
        <time>2022-07-03T16:07:24Z</time>
      </trkpt>
      <trkpt lat="42.724836" lon="-2.678549">
        <ele>607.869</ele>
        <time>2022-07-03T16:07:25Z</time>
      </trkpt>
      <trkpt lat="42.724786" lon="-2.678529">
        <ele>607.596</ele>
        <time>2022-07-03T16:07:26Z</time>
      </trkpt>
      <trkpt lat="42.724726" lon="-2.678526">
        <ele>607.559</ele>
        <time>2022-07-03T16:07:27Z</time>
      </trkpt>
      <trkpt lat="42.724669" lon="-2.678517">
        <ele>607.190</ele>
        <time>2022-07-03T16:07:28Z</time>
      </trkpt>
      <trkpt lat="42.724618" lon="-2.678503">
        <ele>606.886</ele>
        <time>2022-07-03T16:07:29Z</time>
      </trkpt>
      <trkpt lat="42.724572" lon="-2.678499">
        <ele>606.739</ele>
        <time>2022-07-03T16:07:30Z</time>
      </trkpt>
      <trkpt lat="42.724519" lon="-2.678509">
        <ele>606.598</ele>
        <time>2022-07-03T16:07:32Z</time>
      </trkpt>
      <trkpt lat="42.724454" lon="-2.678520">
        <ele>606.198</ele>
        <time>2022-07-03T16:07:40Z</time>
      </trkpt>
      <trkpt lat="42.724412" lon="-2.678543">
        <ele>606.073</ele>
        <time>2022-07-03T16:07:41Z</time>
      </trkpt>
      <trkpt lat="42.724363" lon="-2.678607">
        <ele>604.685</ele>
        <time>2022-07-03T16:07:43Z</time>
      </trkpt>
      <trkpt lat="42.724332" lon="-2.678721">
        <ele>604.613</ele>
        <time>2022-07-03T16:07:45Z</time>
      </trkpt>
      <trkpt lat="42.724305" lon="-2.678777">
        <ele>604.409</ele>
        <time>2022-07-03T16:07:46Z</time>
      </trkpt>
      <trkpt lat="42.724262" lon="-2.678817">
        <ele>604.458</ele>
        <time>2022-07-03T16:07:47Z</time>
      </trkpt>
      <trkpt lat="42.724197" lon="-2.678880">
        <ele>604.217</ele>
        <time>2022-07-03T16:07:49Z</time>
      </trkpt>
      <trkpt lat="42.724155" lon="-2.678907">
        <ele>604.024</ele>
        <time>2022-07-03T16:07:50Z</time>
      </trkpt>
      <trkpt lat="42.724105" lon="-2.678934">
        <ele>603.827</ele>
        <time>2022-07-03T16:07:51Z</time>
      </trkpt>
      <trkpt lat="42.724057" lon="-2.678961">
        <ele>603.738</ele>
        <time>2022-07-03T16:07:52Z</time>
      </trkpt>
      <trkpt lat="42.724011" lon="-2.678986">
        <ele>603.294</ele>
        <time>2022-07-03T16:07:53Z</time>
      </trkpt>
      <trkpt lat="42.723911" lon="-2.679040">
        <ele>603.217</ele>
        <time>2022-07-03T16:07:55Z</time>
      </trkpt>
      <trkpt lat="42.723841" lon="-2.679066">
        <ele>602.736</ele>
        <time>2022-07-03T16:07:56Z</time>
      </trkpt>
      <trkpt lat="42.723794" lon="-2.679082">
        <ele>602.576</ele>
        <time>2022-07-03T16:07:57Z</time>
      </trkpt>
      <trkpt lat="42.723732" lon="-2.679113">
        <ele>602.376</ele>
        <time>2022-07-03T16:07:58Z</time>
      </trkpt>
      <trkpt lat="42.723658" lon="-2.679150">
        <ele>602.190</ele>
        <time>2022-07-03T16:08:00Z</time>
      </trkpt>
      <trkpt lat="42.723591" lon="-2.679194">
        <ele>602.119</ele>
        <time>2022-07-03T16:08:02Z</time>
      </trkpt>
      <trkpt lat="42.723508" lon="-2.679234">
        <ele>602.109</ele>
        <time>2022-07-03T16:08:04Z</time>
      </trkpt>
      <trkpt lat="42.723443" lon="-2.679299">
        <ele>602.268</ele>
        <time>2022-07-03T16:08:06Z</time>
      </trkpt>
      <trkpt lat="42.723365" lon="-2.679350">
        <ele>602.287</ele>
        <time>2022-07-03T16:08:08Z</time>
      </trkpt>
      <trkpt lat="42.723299" lon="-2.679410">
        <ele>602.254</ele>
        <time>2022-07-03T16:08:10Z</time>
      </trkpt>
      <trkpt lat="42.723256" lon="-2.679453">
        <ele>602.217</ele>
        <time>2022-07-03T16:08:12Z</time>
      </trkpt>
      <trkpt lat="42.723208" lon="-2.679491">
        <ele>602.498</ele>
        <time>2022-07-03T16:08:14Z</time>
      </trkpt>
      <trkpt lat="42.723157" lon="-2.679525">
        <ele>602.644</ele>
        <time>2022-07-03T16:08:16Z</time>
      </trkpt>
      <trkpt lat="42.723102" lon="-2.679566">
        <ele>602.957</ele>
        <time>2022-07-03T16:08:18Z</time>
      </trkpt>
      <trkpt lat="42.723048" lon="-2.679598">
        <ele>603.336</ele>
        <time>2022-07-03T16:08:20Z</time>
      </trkpt>
      <trkpt lat="42.722978" lon="-2.679622">
        <ele>603.366</ele>
        <time>2022-07-03T16:08:22Z</time>
      </trkpt>
      <trkpt lat="42.722904" lon="-2.679628">
        <ele>603.368</ele>
        <time>2022-07-03T16:08:24Z</time>
      </trkpt>
      <trkpt lat="42.722820" lon="-2.679607">
        <ele>603.142</ele>
        <time>2022-07-03T16:08:26Z</time>
      </trkpt>
      <trkpt lat="42.722763" lon="-2.679609">
        <ele>602.726</ele>
        <time>2022-07-03T16:08:27Z</time>
      </trkpt>
      <trkpt lat="42.722688" lon="-2.679614">
        <ele>602.209</ele>
        <time>2022-07-03T16:08:28Z</time>
      </trkpt>
      <trkpt lat="42.722622" lon="-2.679621">
        <ele>601.987</ele>
        <time>2022-07-03T16:08:29Z</time>
      </trkpt>
      <trkpt lat="42.722564" lon="-2.679608">
        <ele>601.876</ele>
        <time>2022-07-03T16:08:30Z</time>
      </trkpt>
      <trkpt lat="42.722500" lon="-2.679588">
        <ele>601.553</ele>
        <time>2022-07-03T16:08:31Z</time>
      </trkpt>
      <trkpt lat="42.722435" lon="-2.679580">
        <ele>601.476</ele>
        <time>2022-07-03T16:08:32Z</time>
      </trkpt>
      <trkpt lat="42.722344" lon="-2.679540">
        <ele>600.847</ele>
        <time>2022-07-03T16:08:34Z</time>
      </trkpt>
      <trkpt lat="42.722302" lon="-2.679493">
        <ele>600.223</ele>
        <time>2022-07-03T16:08:35Z</time>
      </trkpt>
      <trkpt lat="42.722257" lon="-2.679450">
        <ele>599.646</ele>
        <time>2022-07-03T16:08:36Z</time>
      </trkpt>
      <trkpt lat="42.722191" lon="-2.679391">
        <ele>599.695</ele>
        <time>2022-07-03T16:08:38Z</time>
      </trkpt>
      <trkpt lat="42.722128" lon="-2.679357">
        <ele>599.755</ele>
        <time>2022-07-03T16:08:40Z</time>
      </trkpt>
      <trkpt lat="42.722080" lon="-2.679343">
        <ele>599.765</ele>
        <time>2022-07-03T16:08:42Z</time>
      </trkpt>
      <trkpt lat="42.722031" lon="-2.679333">
        <ele>600.168</ele>
        <time>2022-07-03T16:08:44Z</time>
      </trkpt>
      <trkpt lat="42.721981" lon="-2.679341">
        <ele>600.114</ele>
        <time>2022-07-03T16:08:48Z</time>
      </trkpt>
      <trkpt lat="42.721922" lon="-2.679323">
        <ele>600.109</ele>
        <time>2022-07-03T16:09:40Z</time>
      </trkpt>
      <trkpt lat="42.721875" lon="-2.679347">
        <ele>600.147</ele>
        <time>2022-07-03T16:09:42Z</time>
      </trkpt>
      <trkpt lat="42.721824" lon="-2.679399">
        <ele>600.226</ele>
        <time>2022-07-03T16:09:45Z</time>
      </trkpt>
      <trkpt lat="42.721771" lon="-2.679451">
        <ele>600.393</ele>
        <time>2022-07-03T16:09:47Z</time>
      </trkpt>
      <trkpt lat="42.721723" lon="-2.679511">
        <ele>600.366</ele>
        <time>2022-07-03T16:09:49Z</time>
      </trkpt>
      <trkpt lat="42.721679" lon="-2.679567">
        <ele>600.317</ele>
        <time>2022-07-03T16:09:51Z</time>
      </trkpt>
      <trkpt lat="42.721602" lon="-2.679622">
        <ele>600.383</ele>
        <time>2022-07-03T16:09:53Z</time>
      </trkpt>
      <trkpt lat="42.721551" lon="-2.679652">
        <ele>600.326</ele>
        <time>2022-07-03T16:09:54Z</time>
      </trkpt>
      <trkpt lat="42.721499" lon="-2.679684">
        <ele>599.775</ele>
        <time>2022-07-03T16:09:55Z</time>
      </trkpt>
      <trkpt lat="42.721447" lon="-2.679716">
        <ele>599.685</ele>
        <time>2022-07-03T16:09:56Z</time>
      </trkpt>
      <trkpt lat="42.721394" lon="-2.679748">
        <ele>599.065</ele>
        <time>2022-07-03T16:09:57Z</time>
      </trkpt>
      <trkpt lat="42.721338" lon="-2.679781">
        <ele>599.068</ele>
        <time>2022-07-03T16:09:58Z</time>
      </trkpt>
      <trkpt lat="42.721280" lon="-2.679818">
        <ele>598.714</ele>
        <time>2022-07-03T16:09:59Z</time>
      </trkpt>
      <trkpt lat="42.721225" lon="-2.679857">
        <ele>598.309</ele>
        <time>2022-07-03T16:10:00Z</time>
      </trkpt>
      <trkpt lat="42.721161" lon="-2.679900">
        <ele>597.917</ele>
        <time>2022-07-03T16:10:01Z</time>
      </trkpt>
      <trkpt lat="42.721107" lon="-2.679939">
        <ele>597.836</ele>
        <time>2022-07-03T16:10:02Z</time>
      </trkpt>
      <trkpt lat="42.721065" lon="-2.679975">
        <ele>597.793</ele>
        <time>2022-07-03T16:10:03Z</time>
      </trkpt>
      <trkpt lat="42.721014" lon="-2.680017">
        <ele>597.586</ele>
        <time>2022-07-03T16:10:04Z</time>
      </trkpt>
      <trkpt lat="42.720973" lon="-2.680052">
        <ele>597.237</ele>
        <time>2022-07-03T16:10:05Z</time>
      </trkpt>
      <trkpt lat="42.720933" lon="-2.680093">
        <ele>597.233</ele>
        <time>2022-07-03T16:10:06Z</time>
      </trkpt>
      <trkpt lat="42.720873" lon="-2.680157">
        <ele>596.976</ele>
        <time>2022-07-03T16:10:08Z</time>
      </trkpt>
      <trkpt lat="42.720828" lon="-2.680200">
        <ele>596.745</ele>
        <time>2022-07-03T16:10:10Z</time>
      </trkpt>
      <trkpt lat="42.720759" lon="-2.680252">
        <ele>596.755</ele>
        <time>2022-07-03T16:10:12Z</time>
      </trkpt>
      <trkpt lat="42.720713" lon="-2.680265">
        <ele>596.758</ele>
        <time>2022-07-03T16:10:13Z</time>
      </trkpt>
      <trkpt lat="42.720646" lon="-2.680299">
        <ele>597.052</ele>
        <time>2022-07-03T16:10:15Z</time>
      </trkpt>
      <trkpt lat="42.720595" lon="-2.680338">
        <ele>597.217</ele>
        <time>2022-07-03T16:10:17Z</time>
      </trkpt>
      <trkpt lat="42.720547" lon="-2.680375">
        <ele>597.209</ele>
        <time>2022-07-03T16:10:19Z</time>
      </trkpt>
      <trkpt lat="42.720498" lon="-2.680417">
        <ele>597.346</ele>
        <time>2022-07-03T16:10:21Z</time>
      </trkpt>
      <trkpt lat="42.720450" lon="-2.680461">
        <ele>597.385</ele>
        <time>2022-07-03T16:10:23Z</time>
      </trkpt>
      <trkpt lat="42.720396" lon="-2.680510">
        <ele>597.762</ele>
        <time>2022-07-03T16:10:25Z</time>
      </trkpt>
      <trkpt lat="42.720342" lon="-2.680555">
        <ele>598.025</ele>
        <time>2022-07-03T16:10:27Z</time>
      </trkpt>
      <trkpt lat="42.720292" lon="-2.680609">
        <ele>598.566</ele>
        <time>2022-07-03T16:10:29Z</time>
      </trkpt>
      <trkpt lat="42.720238" lon="-2.680663">
        <ele>598.942</ele>
        <time>2022-07-03T16:10:31Z</time>
      </trkpt>
      <trkpt lat="42.720186" lon="-2.680716">
        <ele>599.245</ele>
        <time>2022-07-03T16:10:33Z</time>
      </trkpt>
      <trkpt lat="42.720147" lon="-2.680762">
        <ele>599.824</ele>
        <time>2022-07-03T16:10:35Z</time>
      </trkpt>
      <trkpt lat="42.720109" lon="-2.680806">
        <ele>600.694</ele>
        <time>2022-07-03T16:10:37Z</time>
      </trkpt>
      <trkpt lat="42.720058" lon="-2.680857">
        <ele>601.729</ele>
        <time>2022-07-03T16:10:40Z</time>
      </trkpt>
      <trkpt lat="42.720017" lon="-2.680888">
        <ele>602.300</ele>
        <time>2022-07-03T16:10:43Z</time>
      </trkpt>
      <trkpt lat="42.719987" lon="-2.680965">
        <ele>602.920</ele>
        <time>2022-07-03T16:11:16Z</time>
      </trkpt>
      <trkpt lat="42.719947" lon="-2.681001">
        <ele>603.009</ele>
        <time>2022-07-03T16:11:17Z</time>
      </trkpt>
      <trkpt lat="42.719899" lon="-2.681048">
        <ele>603.093</ele>
        <time>2022-07-03T16:11:18Z</time>
      </trkpt>
      <trkpt lat="42.719847" lon="-2.681109">
        <ele>603.092</ele>
        <time>2022-07-03T16:11:19Z</time>
      </trkpt>
      <trkpt lat="42.719801" lon="-2.681182">
        <ele>603.069</ele>
        <time>2022-07-03T16:11:20Z</time>
      </trkpt>
      <trkpt lat="42.719781" lon="-2.681284">
        <ele>602.742</ele>
        <time>2022-07-03T16:11:21Z</time>
      </trkpt>
      <trkpt lat="42.719716" lon="-2.681370">
        <ele>602.173</ele>
        <time>2022-07-03T16:11:22Z</time>
      </trkpt>
      <trkpt lat="42.719669" lon="-2.681443">
        <ele>601.519</ele>
        <time>2022-07-03T16:11:23Z</time>
      </trkpt>
      <trkpt lat="42.719648" lon="-2.681505">
        <ele>601.052</ele>
        <time>2022-07-03T16:11:24Z</time>
      </trkpt>
      <trkpt lat="42.719629" lon="-2.681565">
        <ele>600.951</ele>
        <time>2022-07-03T16:11:25Z</time>
      </trkpt>
      <trkpt lat="42.719602" lon="-2.681668">
        <ele>600.941</ele>
        <time>2022-07-03T16:11:27Z</time>
      </trkpt>
      <trkpt lat="42.719560" lon="-2.681736">
        <ele>600.982</ele>
        <time>2022-07-03T16:11:29Z</time>
      </trkpt>
      <trkpt lat="42.719495" lon="-2.681753">
        <ele>601.643</ele>
        <time>2022-07-03T16:11:31Z</time>
      </trkpt>
      <trkpt lat="42.719449" lon="-2.681746">
        <ele>602.117</ele>
        <time>2022-07-03T16:11:32Z</time>
      </trkpt>
      <trkpt lat="42.719407" lon="-2.681703">
        <ele>602.609</ele>
        <time>2022-07-03T16:11:33Z</time>
      </trkpt>
      <trkpt lat="42.719386" lon="-2.681637">
        <ele>602.619</ele>
        <time>2022-07-03T16:11:34Z</time>
      </trkpt>
      <trkpt lat="42.719380" lon="-2.681566">
        <ele>602.638</ele>
        <time>2022-07-03T16:11:35Z</time>
      </trkpt>
      <trkpt lat="42.719383" lon="-2.681494">
        <ele>602.695</ele>
        <time>2022-07-03T16:11:36Z</time>
      </trkpt>
      <trkpt lat="42.719384" lon="-2.681420">
        <ele>602.618</ele>
        <time>2022-07-03T16:11:37Z</time>
      </trkpt>
      <trkpt lat="42.719389" lon="-2.681349">
        <ele>602.599</ele>
        <time>2022-07-03T16:11:38Z</time>
      </trkpt>
      <trkpt lat="42.719393" lon="-2.681279">
        <ele>602.155</ele>
        <time>2022-07-03T16:11:39Z</time>
      </trkpt>
      <trkpt lat="42.719381" lon="-2.681188">
        <ele>601.618</ele>
        <time>2022-07-03T16:11:41Z</time>
      </trkpt>
      <trkpt lat="42.719343" lon="-2.681098">
        <ele>601.247</ele>
        <time>2022-07-03T16:11:43Z</time>
      </trkpt>
      <trkpt lat="42.719305" lon="-2.681041">
        <ele>600.097</ele>
        <time>2022-07-03T16:11:44Z</time>
      </trkpt>
      <trkpt lat="42.719262" lon="-2.680968">
        <ele>598.441</ele>
        <time>2022-07-03T16:11:45Z</time>
      </trkpt>
      <trkpt lat="42.719224" lon="-2.680883">
        <ele>597.781</ele>
        <time>2022-07-03T16:11:46Z</time>
      </trkpt>
      <trkpt lat="42.719196" lon="-2.680795">
        <ele>597.309</ele>
        <time>2022-07-03T16:11:47Z</time>
      </trkpt>
      <trkpt lat="42.719170" lon="-2.680703">
        <ele>596.609</ele>
        <time>2022-07-03T16:11:48Z</time>
      </trkpt>
      <trkpt lat="42.719151" lon="-2.680607">
        <ele>595.995</ele>
        <time>2022-07-03T16:11:49Z</time>
      </trkpt>
      <trkpt lat="42.719112" lon="-2.680523">
        <ele>595.074</ele>
        <time>2022-07-03T16:11:50Z</time>
      </trkpt>
      <trkpt lat="42.719091" lon="-2.680436">
        <ele>594.391</ele>
        <time>2022-07-03T16:11:51Z</time>
      </trkpt>
      <trkpt lat="42.719073" lon="-2.680336">
        <ele>593.864</ele>
        <time>2022-07-03T16:11:52Z</time>
      </trkpt>
      <trkpt lat="42.719045" lon="-2.680267">
        <ele>593.485</ele>
        <time>2022-07-03T16:11:53Z</time>
      </trkpt>
      <trkpt lat="42.719021" lon="-2.680181">
        <ele>593.221</ele>
        <time>2022-07-03T16:11:54Z</time>
      </trkpt>
      <trkpt lat="42.718991" lon="-2.680109">
        <ele>593.074</ele>
        <time>2022-07-03T16:11:55Z</time>
      </trkpt>
      <trkpt lat="42.718967" lon="-2.680034">
        <ele>592.993</ele>
        <time>2022-07-03T16:11:56Z</time>
      </trkpt>
      <trkpt lat="42.718941" lon="-2.679965">
        <ele>592.893</ele>
        <time>2022-07-03T16:11:57Z</time>
      </trkpt>
      <trkpt lat="42.718930" lon="-2.679892">
        <ele>592.877</ele>
        <time>2022-07-03T16:11:58Z</time>
      </trkpt>
      <trkpt lat="42.718915" lon="-2.679816">
        <ele>592.861</ele>
        <time>2022-07-03T16:11:59Z</time>
      </trkpt>
      <trkpt lat="42.718859" lon="-2.679709">
        <ele>592.527</ele>
        <time>2022-07-03T16:12:01Z</time>
      </trkpt>
      <trkpt lat="42.718837" lon="-2.679653">
        <ele>592.509</ele>
        <time>2022-07-03T16:12:02Z</time>
      </trkpt>
      <trkpt lat="42.718779" lon="-2.679538">
        <ele>592.378</ele>
        <time>2022-07-03T16:12:04Z</time>
      </trkpt>
      <trkpt lat="42.718755" lon="-2.679480">
        <ele>592.267</ele>
        <time>2022-07-03T16:12:05Z</time>
      </trkpt>
      <trkpt lat="42.718708" lon="-2.679347">
        <ele>592.134</ele>
        <time>2022-07-03T16:12:07Z</time>
      </trkpt>
      <trkpt lat="42.718694" lon="-2.679260">
        <ele>591.917</ele>
        <time>2022-07-03T16:12:08Z</time>
      </trkpt>
      <trkpt lat="42.718649" lon="-2.679155">
        <ele>591.738</ele>
        <time>2022-07-03T16:12:09Z</time>
      </trkpt>
      <trkpt lat="42.718626" lon="-2.679086">
        <ele>591.684</ele>
        <time>2022-07-03T16:12:10Z</time>
      </trkpt>
      <trkpt lat="42.718588" lon="-2.678945">
        <ele>591.667</ele>
        <time>2022-07-03T16:12:12Z</time>
      </trkpt>
      <trkpt lat="42.718572" lon="-2.678885">
        <ele>591.636</ele>
        <time>2022-07-03T16:12:13Z</time>
      </trkpt>
      <trkpt lat="42.718545" lon="-2.678818">
        <ele>591.516</ele>
        <time>2022-07-03T16:12:14Z</time>
      </trkpt>
      <trkpt lat="42.718509" lon="-2.678725">
        <ele>591.424</ele>
        <time>2022-07-03T16:12:16Z</time>
      </trkpt>
      <trkpt lat="42.718470" lon="-2.678593">
        <ele>591.404</ele>
        <time>2022-07-03T16:12:18Z</time>
      </trkpt>
      <trkpt lat="42.718450" lon="-2.678518">
        <ele>591.414</ele>
        <time>2022-07-03T16:12:19Z</time>
      </trkpt>
      <trkpt lat="42.718434" lon="-2.678447">
        <ele>591.409</ele>
        <time>2022-07-03T16:12:20Z</time>
      </trkpt>
      <trkpt lat="42.718410" lon="-2.678368">
        <ele>591.343</ele>
        <time>2022-07-03T16:12:21Z</time>
      </trkpt>
      <trkpt lat="42.718387" lon="-2.678310">
        <ele>591.162</ele>
        <time>2022-07-03T16:12:22Z</time>
      </trkpt>
      <trkpt lat="42.718373" lon="-2.678237">
        <ele>590.689</ele>
        <time>2022-07-03T16:12:23Z</time>
      </trkpt>
      <trkpt lat="42.718364" lon="-2.678174">
        <ele>590.672</ele>
        <time>2022-07-03T16:12:24Z</time>
      </trkpt>
      <trkpt lat="42.718325" lon="-2.678074">
        <ele>590.483</ele>
        <time>2022-07-03T16:12:26Z</time>
      </trkpt>
      <trkpt lat="42.718270" lon="-2.678031">
        <ele>590.079</ele>
        <time>2022-07-03T16:12:28Z</time>
      </trkpt>
      <trkpt lat="42.718197" lon="-2.678029">
        <ele>589.922</ele>
        <time>2022-07-03T16:12:30Z</time>
      </trkpt>
      <trkpt lat="42.718151" lon="-2.678046">
        <ele>589.631</ele>
        <time>2022-07-03T16:12:31Z</time>
      </trkpt>
      <trkpt lat="42.718096" lon="-2.678070">
        <ele>588.671</ele>
        <time>2022-07-03T16:12:32Z</time>
      </trkpt>
      <trkpt lat="42.718036" lon="-2.678087">
        <ele>588.126</ele>
        <time>2022-07-03T16:12:33Z</time>
      </trkpt>
      <trkpt lat="42.717973" lon="-2.678089">
        <ele>587.647</ele>
        <time>2022-07-03T16:12:34Z</time>
      </trkpt>
      <trkpt lat="42.717919" lon="-2.678111">
        <ele>586.811</ele>
        <time>2022-07-03T16:12:35Z</time>
      </trkpt>
      <trkpt lat="42.717863" lon="-2.678129">
        <ele>586.309</ele>
        <time>2022-07-03T16:12:36Z</time>
      </trkpt>
      <trkpt lat="42.717815" lon="-2.678151">
        <ele>585.943</ele>
        <time>2022-07-03T16:12:37Z</time>
      </trkpt>
      <trkpt lat="42.717750" lon="-2.678170">
        <ele>585.542</ele>
        <time>2022-07-03T16:12:39Z</time>
      </trkpt>
      <trkpt lat="42.717684" lon="-2.678208">
        <ele>585.439</ele>
        <time>2022-07-03T16:12:41Z</time>
      </trkpt>
      <trkpt lat="42.717620" lon="-2.678211">
        <ele>585.262</ele>
        <time>2022-07-03T16:12:43Z</time>
      </trkpt>
      <trkpt lat="42.717565" lon="-2.678251">
        <ele>585.063</ele>
        <time>2022-07-03T16:12:45Z</time>
      </trkpt>
      <trkpt lat="42.717520" lon="-2.678309">
        <ele>584.189</ele>
        <time>2022-07-03T16:12:47Z</time>
      </trkpt>
      <trkpt lat="42.717477" lon="-2.678382">
        <ele>583.272</ele>
        <time>2022-07-03T16:12:49Z</time>
      </trkpt>
      <trkpt lat="42.717442" lon="-2.678434">
        <ele>582.781</ele>
        <time>2022-07-03T16:12:51Z</time>
      </trkpt>
      <trkpt lat="42.717476" lon="-2.678475">
        <ele>581.821</ele>
        <time>2022-07-03T16:13:00Z</time>
      </trkpt>
      <trkpt lat="42.717513" lon="-2.678429">
        <ele>580.245</ele>
        <time>2022-07-03T16:13:09Z</time>
      </trkpt>
      <trkpt lat="42.717498" lon="-2.678494">
        <ele>580.147</ele>
        <time>2022-07-03T16:13:14Z</time>
      </trkpt>
      <trkpt lat="42.717448" lon="-2.678536">
        <ele>579.911</ele>
        <time>2022-07-03T16:13:17Z</time>
      </trkpt>
      <trkpt lat="42.717405" lon="-2.678597">
        <ele>579.609</ele>
        <time>2022-07-03T16:13:19Z</time>
      </trkpt>
      <trkpt lat="42.717353" lon="-2.678683">
        <ele>579.495</ele>
        <time>2022-07-03T16:13:21Z</time>
      </trkpt>
      <trkpt lat="42.717288" lon="-2.678792">
        <ele>579.014</ele>
        <time>2022-07-03T16:13:23Z</time>
      </trkpt>
      <trkpt lat="42.717231" lon="-2.678886">
        <ele>577.291</ele>
        <time>2022-07-03T16:13:25Z</time>
      </trkpt>
      <trkpt lat="42.717195" lon="-2.678935">
        <ele>576.624</ele>
        <time>2022-07-03T16:13:26Z</time>
      </trkpt>
      <trkpt lat="42.717151" lon="-2.678980">
        <ele>575.875</ele>
        <time>2022-07-03T16:13:27Z</time>
      </trkpt>
      <trkpt lat="42.717106" lon="-2.679031">
        <ele>575.651</ele>
        <time>2022-07-03T16:13:28Z</time>
      </trkpt>
      <trkpt lat="42.717058" lon="-2.679063">
        <ele>575.154</ele>
        <time>2022-07-03T16:13:29Z</time>
      </trkpt>
      <trkpt lat="42.717002" lon="-2.679107">
        <ele>574.733</ele>
        <time>2022-07-03T16:13:30Z</time>
      </trkpt>
      <trkpt lat="42.716944" lon="-2.679155">
        <ele>574.183</ele>
        <time>2022-07-03T16:13:31Z</time>
      </trkpt>
      <trkpt lat="42.716885" lon="-2.679195">
        <ele>573.411</ele>
        <time>2022-07-03T16:13:32Z</time>
      </trkpt>
      <trkpt lat="42.716828" lon="-2.679243">
        <ele>572.721</ele>
        <time>2022-07-03T16:13:33Z</time>
      </trkpt>
      <trkpt lat="42.716766" lon="-2.679302">
        <ele>571.403</ele>
        <time>2022-07-03T16:13:34Z</time>
      </trkpt>
      <trkpt lat="42.716703" lon="-2.679364">
        <ele>570.909</ele>
        <time>2022-07-03T16:13:35Z</time>
      </trkpt>
      <trkpt lat="42.716647" lon="-2.679414">
        <ele>570.672</ele>
        <time>2022-07-03T16:13:36Z</time>
      </trkpt>
      <trkpt lat="42.716581" lon="-2.679468">
        <ele>570.581</ele>
        <time>2022-07-03T16:13:37Z</time>
      </trkpt>
      <trkpt lat="42.716520" lon="-2.679517">
        <ele>570.358</ele>
        <time>2022-07-03T16:13:38Z</time>
      </trkpt>
      <trkpt lat="42.716462" lon="-2.679560">
        <ele>570.041</ele>
        <time>2022-07-03T16:13:39Z</time>
      </trkpt>
      <trkpt lat="42.716406" lon="-2.679613">
        <ele>569.832</ele>
        <time>2022-07-03T16:13:40Z</time>
      </trkpt>
      <trkpt lat="42.716343" lon="-2.679660">
        <ele>569.558</ele>
        <time>2022-07-03T16:13:41Z</time>
      </trkpt>
      <trkpt lat="42.716276" lon="-2.679710">
        <ele>569.381</ele>
        <time>2022-07-03T16:13:42Z</time>
      </trkpt>
      <trkpt lat="42.716231" lon="-2.679756">
        <ele>569.230</ele>
        <time>2022-07-03T16:13:43Z</time>
      </trkpt>
      <trkpt lat="42.716171" lon="-2.679804">
        <ele>569.170</ele>
        <time>2022-07-03T16:13:44Z</time>
      </trkpt>
      <trkpt lat="42.716124" lon="-2.679841">
        <ele>569.096</ele>
        <time>2022-07-03T16:13:45Z</time>
      </trkpt>
      <trkpt lat="42.716077" lon="-2.679883">
        <ele>569.031</ele>
        <time>2022-07-03T16:13:46Z</time>
      </trkpt>
      <trkpt lat="42.716017" lon="-2.679931">
        <ele>568.924</ele>
        <time>2022-07-03T16:13:47Z</time>
      </trkpt>
      <trkpt lat="42.715957" lon="-2.679986">
        <ele>568.809</ele>
        <time>2022-07-03T16:13:48Z</time>
      </trkpt>
      <trkpt lat="42.715892" lon="-2.680046">
        <ele>568.330</ele>
        <time>2022-07-03T16:13:49Z</time>
      </trkpt>
      <trkpt lat="42.715827" lon="-2.680094">
        <ele>567.929</ele>
        <time>2022-07-03T16:13:50Z</time>
      </trkpt>
      <trkpt lat="42.715770" lon="-2.680142">
        <ele>567.596</ele>
        <time>2022-07-03T16:13:51Z</time>
      </trkpt>
      <trkpt lat="42.715720" lon="-2.680196">
        <ele>567.289</ele>
        <time>2022-07-03T16:13:52Z</time>
      </trkpt>
      <trkpt lat="42.715668" lon="-2.680237">
        <ele>567.170</ele>
        <time>2022-07-03T16:13:53Z</time>
      </trkpt>
      <trkpt lat="42.715608" lon="-2.680289">
        <ele>567.196</ele>
        <time>2022-07-03T16:13:54Z</time>
      </trkpt>
      <trkpt lat="42.715528" lon="-2.680331">
        <ele>567.259</ele>
        <time>2022-07-03T16:13:55Z</time>
      </trkpt>
      <trkpt lat="42.715460" lon="-2.680374">
        <ele>567.448</ele>
        <time>2022-07-03T16:13:56Z</time>
      </trkpt>
      <trkpt lat="42.715400" lon="-2.680419">
        <ele>567.538</ele>
        <time>2022-07-03T16:13:57Z</time>
      </trkpt>
      <trkpt lat="42.715351" lon="-2.680463">
        <ele>567.573</ele>
        <time>2022-07-03T16:13:58Z</time>
      </trkpt>
      <trkpt lat="42.715288" lon="-2.680515">
        <ele>567.585</ele>
        <time>2022-07-03T16:13:59Z</time>
      </trkpt>
      <trkpt lat="42.715253" lon="-2.680560">
        <ele>567.413</ele>
        <time>2022-07-03T16:14:00Z</time>
      </trkpt>
      <trkpt lat="42.715193" lon="-2.680608">
        <ele>567.009</ele>
        <time>2022-07-03T16:14:01Z</time>
      </trkpt>
      <trkpt lat="42.715128" lon="-2.680663">
        <ele>566.848</ele>
        <time>2022-07-03T16:14:02Z</time>
      </trkpt>
      <trkpt lat="42.715067" lon="-2.680739">
        <ele>566.637</ele>
        <time>2022-07-03T16:14:04Z</time>
      </trkpt>
      <trkpt lat="42.715005" lon="-2.680793">
        <ele>566.294</ele>
        <time>2022-07-03T16:14:05Z</time>
      </trkpt>
      <trkpt lat="42.714943" lon="-2.680849">
        <ele>566.027</ele>
        <time>2022-07-03T16:14:06Z</time>
      </trkpt>
      <trkpt lat="42.714877" lon="-2.680895">
        <ele>566.018</ele>
        <time>2022-07-03T16:14:07Z</time>
      </trkpt>
      <trkpt lat="42.714815" lon="-2.680922">
        <ele>566.034</ele>
        <time>2022-07-03T16:14:08Z</time>
      </trkpt>
      <trkpt lat="42.714765" lon="-2.680932">
        <ele>566.027</ele>
        <time>2022-07-03T16:14:09Z</time>
      </trkpt>
      <trkpt lat="42.714685" lon="-2.680929">
        <ele>565.536</ele>
        <time>2022-07-03T16:14:10Z</time>
      </trkpt>
      <trkpt lat="42.714622" lon="-2.680916">
        <ele>565.326</ele>
        <time>2022-07-03T16:14:11Z</time>
      </trkpt>
      <trkpt lat="42.714569" lon="-2.680873">
        <ele>565.056</ele>
        <time>2022-07-03T16:14:12Z</time>
      </trkpt>
      <trkpt lat="42.714511" lon="-2.680840">
        <ele>564.759</ele>
        <time>2022-07-03T16:14:13Z</time>
      </trkpt>
      <trkpt lat="42.714443" lon="-2.680817">
        <ele>564.414</ele>
        <time>2022-07-03T16:14:14Z</time>
      </trkpt>
      <trkpt lat="42.714383" lon="-2.680805">
        <ele>564.409</ele>
        <time>2022-07-03T16:14:15Z</time>
      </trkpt>
      <trkpt lat="42.714324" lon="-2.680803">
        <ele>564.416</ele>
        <time>2022-07-03T16:14:16Z</time>
      </trkpt>
      <trkpt lat="42.714273" lon="-2.680824">
        <ele>565.095</ele>
        <time>2022-07-03T16:14:17Z</time>
      </trkpt>
      <trkpt lat="42.714222" lon="-2.680850">
        <ele>565.162</ele>
        <time>2022-07-03T16:14:18Z</time>
      </trkpt>
      <trkpt lat="42.714184" lon="-2.680906">
        <ele>565.235</ele>
        <time>2022-07-03T16:14:19Z</time>
      </trkpt>
      <trkpt lat="42.714115" lon="-2.680986">
        <ele>565.256</ele>
        <time>2022-07-03T16:14:21Z</time>
      </trkpt>
      <trkpt lat="42.714090" lon="-2.681044">
        <ele>565.212</ele>
        <time>2022-07-03T16:14:22Z</time>
      </trkpt>
      <trkpt lat="42.714070" lon="-2.681099">
        <ele>565.585</ele>
        <time>2022-07-03T16:14:23Z</time>
      </trkpt>
      <trkpt lat="42.714016" lon="-2.681177">
        <ele>565.774</ele>
        <time>2022-07-03T16:14:25Z</time>
      </trkpt>
      <trkpt lat="42.713969" lon="-2.681259">
        <ele>566.234</ele>
        <time>2022-07-03T16:14:27Z</time>
      </trkpt>
      <trkpt lat="42.713929" lon="-2.681317">
        <ele>566.514</ele>
        <time>2022-07-03T16:14:28Z</time>
      </trkpt>
      <trkpt lat="42.713886" lon="-2.681365">
        <ele>566.554</ele>
        <time>2022-07-03T16:14:29Z</time>
      </trkpt>
      <trkpt lat="42.713854" lon="-2.681423">
        <ele>566.509</ele>
        <time>2022-07-03T16:14:30Z</time>
      </trkpt>
      <trkpt lat="42.713819" lon="-2.681508">
        <ele>566.309</ele>
        <time>2022-07-03T16:14:32Z</time>
      </trkpt>
      <trkpt lat="42.713825" lon="-2.681606">
        <ele>565.912</ele>
        <time>2022-07-03T16:14:34Z</time>
      </trkpt>
      <trkpt lat="42.713844" lon="-2.681725">
        <ele>565.031</ele>
        <time>2022-07-03T16:14:36Z</time>
      </trkpt>
      <trkpt lat="42.713852" lon="-2.681789">
        <ele>564.628</ele>
        <time>2022-07-03T16:14:37Z</time>
      </trkpt>
      <trkpt lat="42.713882" lon="-2.681911">
        <ele>564.491</ele>
        <time>2022-07-03T16:14:39Z</time>
      </trkpt>
      <trkpt lat="42.713897" lon="-2.681983">
        <ele>564.392</ele>
        <time>2022-07-03T16:14:40Z</time>
      </trkpt>
      <trkpt lat="42.713909" lon="-2.682048">
        <ele>564.238</ele>
        <time>2022-07-03T16:14:41Z</time>
      </trkpt>
      <trkpt lat="42.713920" lon="-2.682109">
        <ele>564.131</ele>
        <time>2022-07-03T16:14:42Z</time>
      </trkpt>
      <trkpt lat="42.713937" lon="-2.682173">
        <ele>564.140</ele>
        <time>2022-07-03T16:14:43Z</time>
      </trkpt>
      <trkpt lat="42.713950" lon="-2.682249">
        <ele>564.130</ele>
        <time>2022-07-03T16:14:44Z</time>
      </trkpt>
      <trkpt lat="42.713969" lon="-2.682317">
        <ele>564.167</ele>
        <time>2022-07-03T16:14:45Z</time>
      </trkpt>
      <trkpt lat="42.713989" lon="-2.682383">
        <ele>564.181</ele>
        <time>2022-07-03T16:14:46Z</time>
      </trkpt>
      <trkpt lat="42.714007" lon="-2.682456">
        <ele>564.319</ele>
        <time>2022-07-03T16:14:47Z</time>
      </trkpt>
      <trkpt lat="42.714026" lon="-2.682517">
        <ele>564.409</ele>
        <time>2022-07-03T16:14:48Z</time>
      </trkpt>
      <trkpt lat="42.714043" lon="-2.682584">
        <ele>564.557</ele>
        <time>2022-07-03T16:14:49Z</time>
      </trkpt>
      <trkpt lat="42.714086" lon="-2.682737">
        <ele>564.696</ele>
        <time>2022-07-03T16:14:51Z</time>
      </trkpt>
      <trkpt lat="42.714106" lon="-2.682819">
        <ele>564.543</ele>
        <time>2022-07-03T16:14:52Z</time>
      </trkpt>
      <trkpt lat="42.714124" lon="-2.682893">
        <ele>564.476</ele>
        <time>2022-07-03T16:14:53Z</time>
      </trkpt>
      <trkpt lat="42.714141" lon="-2.682963">
        <ele>564.297</ele>
        <time>2022-07-03T16:14:54Z</time>
      </trkpt>
      <trkpt lat="42.714163" lon="-2.683046">
        <ele>564.153</ele>
        <time>2022-07-03T16:14:55Z</time>
      </trkpt>
      <trkpt lat="42.714184" lon="-2.683121">
        <ele>564.026</ele>
        <time>2022-07-03T16:14:56Z</time>
      </trkpt>
      <trkpt lat="42.714210" lon="-2.683205">
        <ele>563.955</ele>
        <time>2022-07-03T16:14:57Z</time>
      </trkpt>
      <trkpt lat="42.714229" lon="-2.683293">
        <ele>563.865</ele>
        <time>2022-07-03T16:14:58Z</time>
      </trkpt>
      <trkpt lat="42.714250" lon="-2.683368">
        <ele>563.868</ele>
        <time>2022-07-03T16:14:59Z</time>
      </trkpt>
      <trkpt lat="42.714269" lon="-2.683432">
        <ele>563.842</ele>
        <time>2022-07-03T16:15:00Z</time>
      </trkpt>
      <trkpt lat="42.714286" lon="-2.683500">
        <ele>563.826</ele>
        <time>2022-07-03T16:15:01Z</time>
      </trkpt>
      <trkpt lat="42.714303" lon="-2.683580">
        <ele>563.809</ele>
        <time>2022-07-03T16:15:02Z</time>
      </trkpt>
      <trkpt lat="42.714339" lon="-2.683718">
        <ele>563.747</ele>
        <time>2022-07-03T16:15:04Z</time>
      </trkpt>
      <trkpt lat="42.714361" lon="-2.683796">
        <ele>563.446</ele>
        <time>2022-07-03T16:15:05Z</time>
      </trkpt>
      <trkpt lat="42.714376" lon="-2.683859">
        <ele>563.193</ele>
        <time>2022-07-03T16:15:06Z</time>
      </trkpt>
      <trkpt lat="42.714395" lon="-2.683931">
        <ele>563.086</ele>
        <time>2022-07-03T16:15:07Z</time>
      </trkpt>
      <trkpt lat="42.714418" lon="-2.684023">
        <ele>563.047</ele>
        <time>2022-07-03T16:15:08Z</time>
      </trkpt>
      <trkpt lat="42.714442" lon="-2.684097">
        <ele>562.963</ele>
        <time>2022-07-03T16:15:09Z</time>
      </trkpt>
      <trkpt lat="42.714464" lon="-2.684172">
        <ele>562.866</ele>
        <time>2022-07-03T16:15:10Z</time>
      </trkpt>
      <trkpt lat="42.714488" lon="-2.684253">
        <ele>562.815</ele>
        <time>2022-07-03T16:15:11Z</time>
      </trkpt>
      <trkpt lat="42.714506" lon="-2.684330">
        <ele>562.815</ele>
        <time>2022-07-03T16:15:12Z</time>
      </trkpt>
      <trkpt lat="42.714525" lon="-2.684403">
        <ele>562.716</ele>
        <time>2022-07-03T16:15:13Z</time>
      </trkpt>
      <trkpt lat="42.714545" lon="-2.684483">
        <ele>562.676</ele>
        <time>2022-07-03T16:15:14Z</time>
      </trkpt>
      <trkpt lat="42.714564" lon="-2.684554">
        <ele>562.513</ele>
        <time>2022-07-03T16:15:15Z</time>
      </trkpt>
      <trkpt lat="42.714581" lon="-2.684632">
        <ele>562.509</ele>
        <time>2022-07-03T16:15:16Z</time>
      </trkpt>
      <trkpt lat="42.714603" lon="-2.684708">
        <ele>562.432</ele>
        <time>2022-07-03T16:15:17Z</time>
      </trkpt>
      <trkpt lat="42.714628" lon="-2.684807">
        <ele>562.411</ele>
        <time>2022-07-03T16:15:18Z</time>
      </trkpt>
      <trkpt lat="42.714657" lon="-2.684937">
        <ele>562.398</ele>
        <time>2022-07-03T16:15:19Z</time>
      </trkpt>
      <trkpt lat="42.714679" lon="-2.685016">
        <ele>562.311</ele>
        <time>2022-07-03T16:15:20Z</time>
      </trkpt>
      <trkpt lat="42.714700" lon="-2.685087">
        <ele>562.232</ele>
        <time>2022-07-03T16:15:21Z</time>
      </trkpt>
      <trkpt lat="42.714722" lon="-2.685161">
        <ele>562.178</ele>
        <time>2022-07-03T16:15:22Z</time>
      </trkpt>
      <trkpt lat="42.714743" lon="-2.685253">
        <ele>562.131</ele>
        <time>2022-07-03T16:15:23Z</time>
      </trkpt>
      <trkpt lat="42.714771" lon="-2.685346">
        <ele>562.050</ele>
        <time>2022-07-03T16:15:24Z</time>
      </trkpt>
      <trkpt lat="42.714791" lon="-2.685418">
        <ele>562.040</ele>
        <time>2022-07-03T16:15:25Z</time>
      </trkpt>
      <trkpt lat="42.714815" lon="-2.685495">
        <ele>562.016</ele>
        <time>2022-07-03T16:15:26Z</time>
      </trkpt>
      <trkpt lat="42.714839" lon="-2.685583">
        <ele>562.176</ele>
        <time>2022-07-03T16:15:27Z</time>
      </trkpt>
      <trkpt lat="42.714860" lon="-2.685664">
        <ele>562.213</ele>
        <time>2022-07-03T16:15:28Z</time>
      </trkpt>
      <trkpt lat="42.714877" lon="-2.685733">
        <ele>562.309</ele>
        <time>2022-07-03T16:15:29Z</time>
      </trkpt>
      <trkpt lat="42.714897" lon="-2.685809">
        <ele>562.312</ele>
        <time>2022-07-03T16:15:30Z</time>
      </trkpt>
      <trkpt lat="42.714920" lon="-2.685882">
        <ele>562.411</ele>
        <time>2022-07-03T16:15:31Z</time>
      </trkpt>
      <trkpt lat="42.714943" lon="-2.685964">
        <ele>562.468</ele>
        <time>2022-07-03T16:15:32Z</time>
      </trkpt>
      <trkpt lat="42.714962" lon="-2.686057">
        <ele>562.441</ele>
        <time>2022-07-03T16:15:33Z</time>
      </trkpt>
      <trkpt lat="42.715005" lon="-2.686156">
        <ele>562.572</ele>
        <time>2022-07-03T16:15:34Z</time>
      </trkpt>
      <trkpt lat="42.715019" lon="-2.686229">
        <ele>562.548</ele>
        <time>2022-07-03T16:15:35Z</time>
      </trkpt>
      <trkpt lat="42.715039" lon="-2.686300">
        <ele>562.511</ele>
        <time>2022-07-03T16:15:36Z</time>
      </trkpt>
      <trkpt lat="42.715064" lon="-2.686359">
        <ele>562.590</ele>
        <time>2022-07-03T16:15:37Z</time>
      </trkpt>
      <trkpt lat="42.715095" lon="-2.686421">
        <ele>562.560</ele>
        <time>2022-07-03T16:15:38Z</time>
      </trkpt>
      <trkpt lat="42.715133" lon="-2.686491">
        <ele>562.564</ele>
        <time>2022-07-03T16:15:39Z</time>
      </trkpt>
      <trkpt lat="42.715203" lon="-2.686561">
        <ele>562.506</ele>
        <time>2022-07-03T16:15:41Z</time>
      </trkpt>
      <trkpt lat="42.715280" lon="-2.686612">
        <ele>562.616</ele>
        <time>2022-07-03T16:15:43Z</time>
      </trkpt>
      <trkpt lat="42.715353" lon="-2.686651">
        <ele>562.709</ele>
        <time>2022-07-03T16:15:45Z</time>
      </trkpt>
      <trkpt lat="42.715402" lon="-2.686659">
        <ele>563.057</ele>
        <time>2022-07-03T16:15:46Z</time>
      </trkpt>
      <trkpt lat="42.715446" lon="-2.686692">
        <ele>563.176</ele>
        <time>2022-07-03T16:15:47Z</time>
      </trkpt>
      <trkpt lat="42.715500" lon="-2.686735">
        <ele>563.173</ele>
        <time>2022-07-03T16:15:48Z</time>
      </trkpt>
      <trkpt lat="42.715545" lon="-2.686786">
        <ele>563.186</ele>
        <time>2022-07-03T16:15:49Z</time>
      </trkpt>
      <trkpt lat="42.715583" lon="-2.686834">
        <ele>563.157</ele>
        <time>2022-07-03T16:15:50Z</time>
      </trkpt>
      <trkpt lat="42.715639" lon="-2.686876">
        <ele>563.063</ele>
        <time>2022-07-03T16:15:51Z</time>
      </trkpt>
      <trkpt lat="42.715685" lon="-2.686906">
        <ele>562.976</ele>
        <time>2022-07-03T16:15:52Z</time>
      </trkpt>
      <trkpt lat="42.715732" lon="-2.686970">
        <ele>562.845</ele>
        <time>2022-07-03T16:15:53Z</time>
      </trkpt>
      <trkpt lat="42.715784" lon="-2.687024">
        <ele>562.865</ele>
        <time>2022-07-03T16:15:54Z</time>
      </trkpt>
      <trkpt lat="42.715832" lon="-2.687082">
        <ele>562.873</ele>
        <time>2022-07-03T16:15:55Z</time>
      </trkpt>
      <trkpt lat="42.715890" lon="-2.687111">
        <ele>562.885</ele>
        <time>2022-07-03T16:15:56Z</time>
      </trkpt>
      <trkpt lat="42.715950" lon="-2.687121">
        <ele>562.813</ele>
        <time>2022-07-03T16:15:57Z</time>
      </trkpt>
      <trkpt lat="42.716007" lon="-2.687154">
        <ele>562.809</ele>
        <time>2022-07-03T16:15:58Z</time>
      </trkpt>
      <trkpt lat="42.716063" lon="-2.687184">
        <ele>562.838</ele>
        <time>2022-07-03T16:15:59Z</time>
      </trkpt>
      <trkpt lat="42.716111" lon="-2.687224">
        <ele>562.837</ele>
        <time>2022-07-03T16:16:00Z</time>
      </trkpt>
      <trkpt lat="42.716167" lon="-2.687262">
        <ele>562.844</ele>
        <time>2022-07-03T16:16:01Z</time>
      </trkpt>
      <trkpt lat="42.716208" lon="-2.687296">
        <ele>562.857</ele>
        <time>2022-07-03T16:16:02Z</time>
      </trkpt>
      <trkpt lat="42.716263" lon="-2.687330">
        <ele>562.828</ele>
        <time>2022-07-03T16:16:03Z</time>
      </trkpt>
      <trkpt lat="42.716315" lon="-2.687380">
        <ele>562.964</ele>
        <time>2022-07-03T16:16:04Z</time>
      </trkpt>
      <trkpt lat="42.716378" lon="-2.687422">
        <ele>563.047</ele>
        <time>2022-07-03T16:16:05Z</time>
      </trkpt>
      <trkpt lat="42.716433" lon="-2.687456">
        <ele>563.126</ele>
        <time>2022-07-03T16:16:06Z</time>
      </trkpt>
      <trkpt lat="42.716475" lon="-2.687487">
        <ele>563.156</ele>
        <time>2022-07-03T16:16:07Z</time>
      </trkpt>
      <trkpt lat="42.716517" lon="-2.687523">
        <ele>563.151</ele>
        <time>2022-07-03T16:16:08Z</time>
      </trkpt>
      <trkpt lat="42.716557" lon="-2.687559">
        <ele>563.001</ele>
        <time>2022-07-03T16:16:09Z</time>
      </trkpt>
      <trkpt lat="42.716634" lon="-2.687620">
        <ele>562.811</ele>
        <time>2022-07-03T16:16:11Z</time>
      </trkpt>
      <trkpt lat="42.716698" lon="-2.687662">
        <ele>562.609</ele>
        <time>2022-07-03T16:16:12Z</time>
      </trkpt>
      <trkpt lat="42.716760" lon="-2.687715">
        <ele>562.076</ele>
        <time>2022-07-03T16:16:13Z</time>
      </trkpt>
      <trkpt lat="42.716825" lon="-2.687764">
        <ele>562.085</ele>
        <time>2022-07-03T16:16:14Z</time>
      </trkpt>
      <trkpt lat="42.716884" lon="-2.687807">
        <ele>561.912</ele>
        <time>2022-07-03T16:16:15Z</time>
      </trkpt>
      <trkpt lat="42.716947" lon="-2.687856">
        <ele>561.835</ele>
        <time>2022-07-03T16:16:16Z</time>
      </trkpt>
      <trkpt lat="42.716999" lon="-2.687890">
        <ele>561.786</ele>
        <time>2022-07-03T16:16:17Z</time>
      </trkpt>
      <trkpt lat="42.717056" lon="-2.687942">
        <ele>561.722</ele>
        <time>2022-07-03T16:16:18Z</time>
      </trkpt>
      <trkpt lat="42.717121" lon="-2.687990">
        <ele>561.685</ele>
        <time>2022-07-03T16:16:19Z</time>
      </trkpt>
      <trkpt lat="42.717184" lon="-2.688046">
        <ele>561.614</ele>
        <time>2022-07-03T16:16:20Z</time>
      </trkpt>
      <trkpt lat="42.717247" lon="-2.688091">
        <ele>561.634</ele>
        <time>2022-07-03T16:16:21Z</time>
      </trkpt>
      <trkpt lat="42.717322" lon="-2.688156">
        <ele>561.559</ele>
        <time>2022-07-03T16:16:22Z</time>
      </trkpt>
      <trkpt lat="42.717385" lon="-2.688195">
        <ele>561.203</ele>
        <time>2022-07-03T16:16:23Z</time>
      </trkpt>
      <trkpt lat="42.717436" lon="-2.688207">
        <ele>560.823</ele>
        <time>2022-07-03T16:16:24Z</time>
      </trkpt>
      <trkpt lat="42.717490" lon="-2.688246">
        <ele>560.209</ele>
        <time>2022-07-03T16:16:25Z</time>
      </trkpt>
      <trkpt lat="42.717533" lon="-2.688316">
        <ele>559.866</ele>
        <time>2022-07-03T16:16:26Z</time>
      </trkpt>
      <trkpt lat="42.717564" lon="-2.688381">
        <ele>559.765</ele>
        <time>2022-07-03T16:16:27Z</time>
      </trkpt>
      <trkpt lat="42.717562" lon="-2.688522">
        <ele>559.532</ele>
        <time>2022-07-03T16:16:28Z</time>
      </trkpt>
      <trkpt lat="42.717554" lon="-2.688606">
        <ele>559.325</ele>
        <time>2022-07-03T16:16:29Z</time>
      </trkpt>
      <trkpt lat="42.717545" lon="-2.688694">
        <ele>559.166</ele>
        <time>2022-07-03T16:16:30Z</time>
      </trkpt>
      <trkpt lat="42.717495" lon="-2.688712">
        <ele>559.132</ele>
        <time>2022-07-03T16:16:31Z</time>
      </trkpt>
      <trkpt lat="42.717438" lon="-2.688740">
        <ele>559.155</ele>
        <time>2022-07-03T16:16:32Z</time>
      </trkpt>
      <trkpt lat="42.717398" lon="-2.688788">
        <ele>558.974</ele>
        <time>2022-07-03T16:16:33Z</time>
      </trkpt>
      <trkpt lat="42.717364" lon="-2.688861">
        <ele>558.354</ele>
        <time>2022-07-03T16:16:34Z</time>
      </trkpt>
      <trkpt lat="42.717322" lon="-2.688919">
        <ele>558.195</ele>
        <time>2022-07-03T16:16:35Z</time>
      </trkpt>
      <trkpt lat="42.717290" lon="-2.688994">
        <ele>557.949</ele>
        <time>2022-07-03T16:16:36Z</time>
      </trkpt>
      <trkpt lat="42.717235" lon="-2.689030">
        <ele>557.823</ele>
        <time>2022-07-03T16:16:37Z</time>
      </trkpt>
      <trkpt lat="42.717192" lon="-2.689074">
        <ele>557.609</ele>
        <time>2022-07-03T16:16:38Z</time>
      </trkpt>
      <trkpt lat="42.717154" lon="-2.689117">
        <ele>557.510</ele>
        <time>2022-07-03T16:16:39Z</time>
      </trkpt>
      <trkpt lat="42.717104" lon="-2.689160">
        <ele>557.559</ele>
        <time>2022-07-03T16:16:40Z</time>
      </trkpt>
      <trkpt lat="42.717056" lon="-2.689196">
        <ele>557.516</ele>
        <time>2022-07-03T16:16:41Z</time>
      </trkpt>
      <trkpt lat="42.716969" lon="-2.689272">
        <ele>557.559</ele>
        <time>2022-07-03T16:16:43Z</time>
      </trkpt>
      <trkpt lat="42.716911" lon="-2.689308">
        <ele>557.570</ele>
        <time>2022-07-03T16:16:44Z</time>
      </trkpt>
      <trkpt lat="42.716860" lon="-2.689342">
        <ele>557.516</ele>
        <time>2022-07-03T16:16:45Z</time>
      </trkpt>
      <trkpt lat="42.716805" lon="-2.689383">
        <ele>557.579</ele>
        <time>2022-07-03T16:16:46Z</time>
      </trkpt>
      <trkpt lat="42.716754" lon="-2.689410">
        <ele>557.558</ele>
        <time>2022-07-03T16:16:47Z</time>
      </trkpt>
      <trkpt lat="42.716708" lon="-2.689437">
        <ele>557.598</ele>
        <time>2022-07-03T16:16:48Z</time>
      </trkpt>
      <trkpt lat="42.716633" lon="-2.689489">
        <ele>557.639</ele>
        <time>2022-07-03T16:16:50Z</time>
      </trkpt>
      <trkpt lat="42.716573" lon="-2.689514">
        <ele>557.601</ele>
        <time>2022-07-03T16:16:51Z</time>
      </trkpt>
      <trkpt lat="42.716517" lon="-2.689538">
        <ele>557.621</ele>
        <time>2022-07-03T16:16:52Z</time>
      </trkpt>
      <trkpt lat="42.716464" lon="-2.689546">
        <ele>557.609</ele>
        <time>2022-07-03T16:16:53Z</time>
      </trkpt>
      <trkpt lat="42.716386" lon="-2.689574">
        <ele>557.524</ele>
        <time>2022-07-03T16:16:55Z</time>
      </trkpt>
      <trkpt lat="42.716308" lon="-2.689632">
        <ele>557.523</ele>
        <time>2022-07-03T16:16:57Z</time>
      </trkpt>
      <trkpt lat="42.716247" lon="-2.689709">
        <ele>557.770</ele>
        <time>2022-07-03T16:16:59Z</time>
      </trkpt>
      <trkpt lat="42.716214" lon="-2.689768">
        <ele>558.273</ele>
        <time>2022-07-03T16:17:01Z</time>
      </trkpt>
      <trkpt lat="42.716167" lon="-2.689810">
        <ele>558.924</ele>
        <time>2022-07-03T16:17:04Z</time>
      </trkpt>
      <trkpt lat="42.716142" lon="-2.689861">
        <ele>559.330</ele>
        <time>2022-07-03T16:17:08Z</time>
      </trkpt>
      <trkpt lat="42.716116" lon="-2.689923">
        <ele>560.183</ele>
        <time>2022-07-03T16:17:17Z</time>
      </trkpt>
      <trkpt lat="42.716086" lon="-2.690010">
        <ele>560.712</ele>
        <time>2022-07-03T16:17:19Z</time>
      </trkpt>
      <trkpt lat="42.716047" lon="-2.690113">
        <ele>560.932</ele>
        <time>2022-07-03T16:17:21Z</time>
      </trkpt>
      <trkpt lat="42.716017" lon="-2.690228">
        <ele>561.045</ele>
        <time>2022-07-03T16:17:23Z</time>
      </trkpt>
      <trkpt lat="42.715999" lon="-2.690285">
        <ele>560.947</ele>
        <time>2022-07-03T16:17:24Z</time>
      </trkpt>
      <trkpt lat="42.715983" lon="-2.690346">
        <ele>560.711</ele>
        <time>2022-07-03T16:17:25Z</time>
      </trkpt>
      <trkpt lat="42.715964" lon="-2.690404">
        <ele>560.509</ele>
        <time>2022-07-03T16:17:26Z</time>
      </trkpt>
      <trkpt lat="42.715959" lon="-2.690512">
        <ele>560.475</ele>
        <time>2022-07-03T16:17:28Z</time>
      </trkpt>
      <trkpt lat="42.715858" lon="-2.690641">
        <ele>560.364</ele>
        <time>2022-07-03T16:17:30Z</time>
      </trkpt>
      <trkpt lat="42.715872" lon="-2.690733">
        <ele>560.871</ele>
        <time>2022-07-03T16:17:32Z</time>
      </trkpt>
      <trkpt lat="42.715869" lon="-2.690830">
        <ele>561.444</ele>
        <time>2022-07-03T16:17:34Z</time>
      </trkpt>
      <trkpt lat="42.715894" lon="-2.690911">
        <ele>561.515</ele>
        <time>2022-07-03T16:17:36Z</time>
      </trkpt>
      <trkpt lat="42.715907" lon="-2.690970">
        <ele>561.641</ele>
        <time>2022-07-03T16:17:40Z</time>
      </trkpt>
      <trkpt lat="42.715874" lon="-2.691014">
        <ele>561.674</ele>
        <time>2022-07-03T16:17:48Z</time>
      </trkpt>
      <trkpt lat="42.715886" lon="-2.691099">
        <ele>561.713</ele>
        <time>2022-07-03T16:17:51Z</time>
      </trkpt>
      <trkpt lat="42.715891" lon="-2.691196">
        <ele>563.243</ele>
        <time>2022-07-03T16:17:53Z</time>
      </trkpt>
      <trkpt lat="42.715873" lon="-2.691278">
        <ele>564.292</ele>
        <time>2022-07-03T16:17:55Z</time>
      </trkpt>
      <trkpt lat="42.715867" lon="-2.691362">
        <ele>565.273</ele>
        <time>2022-07-03T16:17:57Z</time>
      </trkpt>
      <trkpt lat="42.715871" lon="-2.691434">
        <ele>566.120</ele>
        <time>2022-07-03T16:17:59Z</time>
      </trkpt>
      <trkpt lat="42.715852" lon="-2.691505">
        <ele>566.809</ele>
        <time>2022-07-03T16:18:01Z</time>
      </trkpt>
      <trkpt lat="42.715828" lon="-2.691581">
        <ele>567.370</ele>
        <time>2022-07-03T16:18:03Z</time>
      </trkpt>
      <trkpt lat="42.715810" lon="-2.691670">
        <ele>567.939</ele>
        <time>2022-07-03T16:18:06Z</time>
      </trkpt>
      <trkpt lat="42.715783" lon="-2.691730">
        <ele>568.566</ele>
        <time>2022-07-03T16:18:08Z</time>
      </trkpt>
      <trkpt lat="42.715751" lon="-2.691785">
        <ele>569.359</ele>
        <time>2022-07-03T16:18:10Z</time>
      </trkpt>
      <trkpt lat="42.715711" lon="-2.691838">
        <ele>569.850</ele>
        <time>2022-07-03T16:18:12Z</time>
      </trkpt>
      <trkpt lat="42.715672" lon="-2.691888">
        <ele>570.146</ele>
        <time>2022-07-03T16:18:14Z</time>
      </trkpt>
      <trkpt lat="42.715642" lon="-2.691939">
        <ele>570.429</ele>
        <time>2022-07-03T16:18:16Z</time>
      </trkpt>
      <trkpt lat="42.715602" lon="-2.691981">
        <ele>571.078</ele>
        <time>2022-07-03T16:18:18Z</time>
      </trkpt>
      <trkpt lat="42.715554" lon="-2.692004">
        <ele>571.418</ele>
        <time>2022-07-03T16:18:20Z</time>
      </trkpt>
      <trkpt lat="42.715502" lon="-2.692033">
        <ele>571.869</ele>
        <time>2022-07-03T16:18:22Z</time>
      </trkpt>
      <trkpt lat="42.715460" lon="-2.692069">
        <ele>572.204</ele>
        <time>2022-07-03T16:18:24Z</time>
      </trkpt>
      <trkpt lat="42.715418" lon="-2.692099">
        <ele>572.624</ele>
        <time>2022-07-03T16:18:27Z</time>
      </trkpt>
      <trkpt lat="42.715375" lon="-2.692134">
        <ele>573.009</ele>
        <time>2022-07-03T16:18:31Z</time>
      </trkpt>
      <trkpt lat="42.715332" lon="-2.692165">
        <ele>573.677</ele>
        <time>2022-07-03T16:18:34Z</time>
      </trkpt>
      <trkpt lat="42.715283" lon="-2.692189">
        <ele>574.476</ele>
        <time>2022-07-03T16:18:36Z</time>
      </trkpt>
      <trkpt lat="42.715237" lon="-2.692205">
        <ele>575.093</ele>
        <time>2022-07-03T16:18:38Z</time>
      </trkpt>
      <trkpt lat="42.715192" lon="-2.692217">
        <ele>575.436</ele>
        <time>2022-07-03T16:18:40Z</time>
      </trkpt>
      <trkpt lat="42.715127" lon="-2.692236">
        <ele>575.917</ele>
        <time>2022-07-03T16:18:43Z</time>
      </trkpt>
      <trkpt lat="42.715078" lon="-2.692270">
        <ele>576.553</ele>
        <time>2022-07-03T16:18:46Z</time>
      </trkpt>
      <trkpt lat="42.715034" lon="-2.692288">
        <ele>577.356</ele>
        <time>2022-07-03T16:18:49Z</time>
      </trkpt>
      <trkpt lat="42.714994" lon="-2.692318">
        <ele>578.175</ele>
        <time>2022-07-03T16:18:51Z</time>
      </trkpt>
      <trkpt lat="42.714949" lon="-2.692338">
        <ele>578.795</ele>
        <time>2022-07-03T16:18:53Z</time>
      </trkpt>
      <trkpt lat="42.714916" lon="-2.692393">
        <ele>579.387</ele>
        <time>2022-07-03T16:18:56Z</time>
      </trkpt>
      <trkpt lat="42.714883" lon="-2.692443">
        <ele>579.942</ele>
        <time>2022-07-03T16:18:58Z</time>
      </trkpt>
      <trkpt lat="42.714844" lon="-2.692489">
        <ele>580.526</ele>
        <time>2022-07-03T16:19:00Z</time>
      </trkpt>
      <trkpt lat="42.714792" lon="-2.692523">
        <ele>581.009</ele>
        <time>2022-07-03T16:19:02Z</time>
      </trkpt>
      <trkpt lat="42.714739" lon="-2.692560">
        <ele>581.379</ele>
        <time>2022-07-03T16:19:04Z</time>
      </trkpt>
      <trkpt lat="42.714700" lon="-2.692625">
        <ele>581.718</ele>
        <time>2022-07-03T16:19:07Z</time>
      </trkpt>
      <trkpt lat="42.714664" lon="-2.692678">
        <ele>582.215</ele>
        <time>2022-07-03T16:19:10Z</time>
      </trkpt>
      <trkpt lat="42.714629" lon="-2.692726">
        <ele>582.638</ele>
        <time>2022-07-03T16:19:13Z</time>
      </trkpt>
      <trkpt lat="42.714578" lon="-2.692760">
        <ele>583.029</ele>
        <time>2022-07-03T16:19:16Z</time>
      </trkpt>
      <trkpt lat="42.714542" lon="-2.692807">
        <ele>583.615</ele>
        <time>2022-07-03T16:19:19Z</time>
      </trkpt>
      <trkpt lat="42.714494" lon="-2.692854">
        <ele>584.078</ele>
        <time>2022-07-03T16:19:23Z</time>
      </trkpt>
      <trkpt lat="42.714445" lon="-2.692908">
        <ele>585.127</ele>
        <time>2022-07-03T16:19:26Z</time>
      </trkpt>
      <trkpt lat="42.714447" lon="-2.692992">
        <ele>586.027</ele>
        <time>2022-07-03T16:19:29Z</time>
      </trkpt>
      <trkpt lat="42.714440" lon="-2.693073">
        <ele>586.223</ele>
        <time>2022-07-03T16:19:32Z</time>
      </trkpt>
      <trkpt lat="42.714418" lon="-2.693141">
        <ele>586.583</ele>
        <time>2022-07-03T16:19:36Z</time>
      </trkpt>
      <trkpt lat="42.714376" lon="-2.693194">
        <ele>586.811</ele>
        <time>2022-07-03T16:19:40Z</time>
      </trkpt>
      <trkpt lat="42.714334" lon="-2.693243">
        <ele>587.909</ele>
        <time>2022-07-03T16:19:43Z</time>
      </trkpt>
      <trkpt lat="42.714290" lon="-2.693296">
        <ele>588.933</ele>
        <time>2022-07-03T16:19:46Z</time>
      </trkpt>
      <trkpt lat="42.714252" lon="-2.693359">
        <ele>589.762</ele>
        <time>2022-07-03T16:19:49Z</time>
      </trkpt>
      <trkpt lat="42.714227" lon="-2.693429">
        <ele>590.289</ele>
        <time>2022-07-03T16:19:52Z</time>
      </trkpt>
      <trkpt lat="42.714193" lon="-2.693505">
        <ele>590.522</ele>
        <time>2022-07-03T16:19:55Z</time>
      </trkpt>
      <trkpt lat="42.714157" lon="-2.693577">
        <ele>591.633</ele>
        <time>2022-07-03T16:19:58Z</time>
      </trkpt>
      <trkpt lat="42.714127" lon="-2.693648">
        <ele>592.339</ele>
        <time>2022-07-03T16:20:01Z</time>
      </trkpt>
      <trkpt lat="42.714154" lon="-2.693722">
        <ele>592.852</ele>
        <time>2022-07-03T16:20:04Z</time>
      </trkpt>
      <trkpt lat="42.714201" lon="-2.693772">
        <ele>593.041</ele>
        <time>2022-07-03T16:20:08Z</time>
      </trkpt>
      <trkpt lat="42.714254" lon="-2.693813">
        <ele>593.551</ele>
        <time>2022-07-03T16:20:11Z</time>
      </trkpt>
      <trkpt lat="42.714316" lon="-2.693797">
        <ele>594.092</ele>
        <time>2022-07-03T16:20:13Z</time>
      </trkpt>
      <trkpt lat="42.714411" lon="-2.693804">
        <ele>594.673</ele>
        <time>2022-07-03T16:20:15Z</time>
      </trkpt>
      <trkpt lat="42.714507" lon="-2.693815">
        <ele>594.620</ele>
        <time>2022-07-03T16:20:16Z</time>
      </trkpt>
      <trkpt lat="42.714569" lon="-2.693847">
        <ele>594.409</ele>
        <time>2022-07-03T16:20:17Z</time>
      </trkpt>
      <trkpt lat="42.714631" lon="-2.693880">
        <ele>594.150</ele>
        <time>2022-07-03T16:20:18Z</time>
      </trkpt>
      <trkpt lat="42.714695" lon="-2.693939">
        <ele>593.999</ele>
        <time>2022-07-03T16:20:19Z</time>
      </trkpt>
      <trkpt lat="42.714755" lon="-2.693987">
        <ele>593.556</ele>
        <time>2022-07-03T16:20:20Z</time>
      </trkpt>
      <trkpt lat="42.714817" lon="-2.694033">
        <ele>593.139</ele>
        <time>2022-07-03T16:20:21Z</time>
      </trkpt>
      <trkpt lat="42.714884" lon="-2.694075">
        <ele>592.820</ele>
        <time>2022-07-03T16:20:22Z</time>
      </trkpt>
      <trkpt lat="42.714952" lon="-2.694124">
        <ele>592.496</ele>
        <time>2022-07-03T16:20:23Z</time>
      </trkpt>
      <trkpt lat="42.715029" lon="-2.694181">
        <ele>591.989</ele>
        <time>2022-07-03T16:20:24Z</time>
      </trkpt>
      <trkpt lat="42.715102" lon="-2.694236">
        <ele>591.458</ele>
        <time>2022-07-03T16:20:25Z</time>
      </trkpt>
      <trkpt lat="42.715195" lon="-2.694267">
        <ele>590.918</ele>
        <time>2022-07-03T16:20:26Z</time>
      </trkpt>
      <trkpt lat="42.715279" lon="-2.694329">
        <ele>589.791</ele>
        <time>2022-07-03T16:20:27Z</time>
      </trkpt>
      <trkpt lat="42.715360" lon="-2.694383">
        <ele>589.081</ele>
        <time>2022-07-03T16:20:28Z</time>
      </trkpt>
      <trkpt lat="42.715446" lon="-2.694441">
        <ele>588.319</ele>
        <time>2022-07-03T16:20:29Z</time>
      </trkpt>
      <trkpt lat="42.715530" lon="-2.694484">
        <ele>587.609</ele>
        <time>2022-07-03T16:20:30Z</time>
      </trkpt>
      <trkpt lat="42.715607" lon="-2.694521">
        <ele>587.150</ele>
        <time>2022-07-03T16:20:31Z</time>
      </trkpt>
      <trkpt lat="42.715684" lon="-2.694554">
        <ele>586.369</ele>
        <time>2022-07-03T16:20:32Z</time>
      </trkpt>
      <trkpt lat="42.715761" lon="-2.694575">
        <ele>585.866</ele>
        <time>2022-07-03T16:20:33Z</time>
      </trkpt>
      <trkpt lat="42.715842" lon="-2.694586">
        <ele>585.059</ele>
        <time>2022-07-03T16:20:34Z</time>
      </trkpt>
      <trkpt lat="42.715923" lon="-2.694597">
        <ele>584.060</ele>
        <time>2022-07-03T16:20:35Z</time>
      </trkpt>
      <trkpt lat="42.716001" lon="-2.694601">
        <ele>583.146</ele>
        <time>2022-07-03T16:20:36Z</time>
      </trkpt>
      <trkpt lat="42.716081" lon="-2.694607">
        <ele>582.329</ele>
        <time>2022-07-03T16:20:37Z</time>
      </trkpt>
      <trkpt lat="42.716154" lon="-2.694614">
        <ele>581.398</ele>
        <time>2022-07-03T16:20:38Z</time>
      </trkpt>
      <trkpt lat="42.716221" lon="-2.694636">
        <ele>580.838</ele>
        <time>2022-07-03T16:20:39Z</time>
      </trkpt>
      <trkpt lat="42.716299" lon="-2.694647">
        <ele>580.755</ele>
        <time>2022-07-03T16:20:40Z</time>
      </trkpt>
      <trkpt lat="42.716371" lon="-2.694697">
        <ele>580.407</ele>
        <time>2022-07-03T16:20:41Z</time>
      </trkpt>
      <trkpt lat="42.716436" lon="-2.694733">
        <ele>580.217</ele>
        <time>2022-07-03T16:20:42Z</time>
      </trkpt>
      <trkpt lat="42.716503" lon="-2.694776">
        <ele>580.109</ele>
        <time>2022-07-03T16:20:43Z</time>
      </trkpt>
      <trkpt lat="42.716558" lon="-2.694817">
        <ele>579.816</ele>
        <time>2022-07-03T16:20:44Z</time>
      </trkpt>
      <trkpt lat="42.716619" lon="-2.694857">
        <ele>579.515</ele>
        <time>2022-07-03T16:20:45Z</time>
      </trkpt>
      <trkpt lat="42.716664" lon="-2.694911">
        <ele>579.442</ele>
        <time>2022-07-03T16:20:46Z</time>
      </trkpt>
      <trkpt lat="42.716725" lon="-2.694963">
        <ele>579.135</ele>
        <time>2022-07-03T16:20:47Z</time>
      </trkpt>
      <trkpt lat="42.716786" lon="-2.695014">
        <ele>578.746</ele>
        <time>2022-07-03T16:20:48Z</time>
      </trkpt>
      <trkpt lat="42.716832" lon="-2.695053">
        <ele>578.762</ele>
        <time>2022-07-03T16:20:49Z</time>
      </trkpt>
      <trkpt lat="42.716872" lon="-2.695117">
        <ele>578.665</ele>
        <time>2022-07-03T16:20:50Z</time>
      </trkpt>
      <trkpt lat="42.716925" lon="-2.695187">
        <ele>578.424</ele>
        <time>2022-07-03T16:20:51Z</time>
      </trkpt>
      <trkpt lat="42.716978" lon="-2.695260">
        <ele>578.424</ele>
        <time>2022-07-03T16:20:52Z</time>
      </trkpt>
      <trkpt lat="42.717030" lon="-2.695319">
        <ele>578.462</ele>
        <time>2022-07-03T16:20:53Z</time>
      </trkpt>
      <trkpt lat="42.717083" lon="-2.695360">
        <ele>578.183</ele>
        <time>2022-07-03T16:20:54Z</time>
      </trkpt>
      <trkpt lat="42.717136" lon="-2.695412">
        <ele>577.911</ele>
        <time>2022-07-03T16:20:55Z</time>
      </trkpt>
      <trkpt lat="42.717191" lon="-2.695488">
        <ele>577.409</ele>
        <time>2022-07-03T16:20:56Z</time>
      </trkpt>
      <trkpt lat="42.717240" lon="-2.695555">
        <ele>577.227</ele>
        <time>2022-07-03T16:20:57Z</time>
      </trkpt>
      <trkpt lat="42.717278" lon="-2.695601">
        <ele>577.076</ele>
        <time>2022-07-03T16:20:58Z</time>
      </trkpt>
      <trkpt lat="42.717328" lon="-2.695636">
        <ele>576.973</ele>
        <time>2022-07-03T16:20:59Z</time>
      </trkpt>
      <trkpt lat="42.717386" lon="-2.695688">
        <ele>576.916</ele>
        <time>2022-07-03T16:21:00Z</time>
      </trkpt>
      <trkpt lat="42.717426" lon="-2.695724">
        <ele>576.937</ele>
        <time>2022-07-03T16:21:01Z</time>
      </trkpt>
      <trkpt lat="42.717487" lon="-2.695783">
        <ele>576.933</ele>
        <time>2022-07-03T16:21:02Z</time>
      </trkpt>
      <trkpt lat="42.717532" lon="-2.695831">
        <ele>576.336</ele>
        <time>2022-07-03T16:21:03Z</time>
      </trkpt>
      <trkpt lat="42.717577" lon="-2.695865">
        <ele>576.215</ele>
        <time>2022-07-03T16:21:04Z</time>
      </trkpt>
      <trkpt lat="42.717630" lon="-2.695918">
        <ele>576.165</ele>
        <time>2022-07-03T16:21:05Z</time>
      </trkpt>
      <trkpt lat="42.717673" lon="-2.695952">
        <ele>576.124</ele>
        <time>2022-07-03T16:21:06Z</time>
      </trkpt>
      <trkpt lat="42.717730" lon="-2.695992">
        <ele>575.604</ele>
        <time>2022-07-03T16:21:07Z</time>
      </trkpt>
      <trkpt lat="42.717787" lon="-2.696049">
        <ele>575.114</ele>
        <time>2022-07-03T16:21:08Z</time>
      </trkpt>
      <trkpt lat="42.717830" lon="-2.696101">
        <ele>574.909</ele>
        <time>2022-07-03T16:21:09Z</time>
      </trkpt>
      <trkpt lat="42.717875" lon="-2.696152">
        <ele>574.523</ele>
        <time>2022-07-03T16:21:10Z</time>
      </trkpt>
      <trkpt lat="42.717927" lon="-2.696201">
        <ele>574.092</ele>
        <time>2022-07-03T16:21:11Z</time>
      </trkpt>
      <trkpt lat="42.717981" lon="-2.696245">
        <ele>573.849</ele>
        <time>2022-07-03T16:21:12Z</time>
      </trkpt>
      <trkpt lat="42.718035" lon="-2.696316">
        <ele>573.842</ele>
        <time>2022-07-03T16:21:13Z</time>
      </trkpt>
      <trkpt lat="42.718116" lon="-2.696377">
        <ele>573.623</ele>
        <time>2022-07-03T16:21:15Z</time>
      </trkpt>
      <trkpt lat="42.718195" lon="-2.696424">
        <ele>573.359</ele>
        <time>2022-07-03T16:21:17Z</time>
      </trkpt>
      <trkpt lat="42.718246" lon="-2.696484">
        <ele>572.822</ele>
        <time>2022-07-03T16:21:18Z</time>
      </trkpt>
      <trkpt lat="42.718305" lon="-2.696542">
        <ele>572.461</ele>
        <time>2022-07-03T16:21:19Z</time>
      </trkpt>
      <trkpt lat="42.718359" lon="-2.696592">
        <ele>572.261</ele>
        <time>2022-07-03T16:21:20Z</time>
      </trkpt>
      <trkpt lat="42.718421" lon="-2.696656">
        <ele>571.949</ele>
        <time>2022-07-03T16:21:22Z</time>
      </trkpt>
      <trkpt lat="42.718459" lon="-2.696692">
        <ele>571.702</ele>
        <time>2022-07-03T16:21:23Z</time>
      </trkpt>
      <trkpt lat="42.718515" lon="-2.696719">
        <ele>571.322</ele>
        <time>2022-07-03T16:21:25Z</time>
      </trkpt>
      <trkpt lat="42.718547" lon="-2.696772">
        <ele>571.009</ele>
        <time>2022-07-03T16:21:26Z</time>
      </trkpt>
      <trkpt lat="42.718624" lon="-2.696838">
        <ele>570.155</ele>
        <time>2022-07-03T16:21:28Z</time>
      </trkpt>
      <trkpt lat="42.718669" lon="-2.696888">
        <ele>569.944</ele>
        <time>2022-07-03T16:21:29Z</time>
      </trkpt>
      <trkpt lat="42.718712" lon="-2.696918">
        <ele>569.611</ele>
        <time>2022-07-03T16:21:30Z</time>
      </trkpt>
      <trkpt lat="42.718758" lon="-2.696964">
        <ele>569.694</ele>
        <time>2022-07-03T16:21:31Z</time>
      </trkpt>
      <trkpt lat="42.718819" lon="-2.697027">
        <ele>569.635</ele>
        <time>2022-07-03T16:21:32Z</time>
      </trkpt>
      <trkpt lat="42.718862" lon="-2.697084">
        <ele>569.611</ele>
        <time>2022-07-03T16:21:33Z</time>
      </trkpt>
      <trkpt lat="42.718907" lon="-2.697143">
        <ele>569.694</ele>
        <time>2022-07-03T16:21:34Z</time>
      </trkpt>
      <trkpt lat="42.718938" lon="-2.697205">
        <ele>569.563</ele>
        <time>2022-07-03T16:21:35Z</time>
      </trkpt>
      <trkpt lat="42.718977" lon="-2.697281">
        <ele>569.263</ele>
        <time>2022-07-03T16:21:36Z</time>
      </trkpt>
      <trkpt lat="42.719017" lon="-2.697348">
        <ele>568.933</ele>
        <time>2022-07-03T16:21:37Z</time>
      </trkpt>
      <trkpt lat="42.719053" lon="-2.697412">
        <ele>568.623</ele>
        <time>2022-07-03T16:21:38Z</time>
      </trkpt>
      <trkpt lat="42.719085" lon="-2.697487">
        <ele>568.115</ele>
        <time>2022-07-03T16:21:39Z</time>
      </trkpt>
      <trkpt lat="42.719121" lon="-2.697561">
        <ele>567.709</ele>
        <time>2022-07-03T16:21:40Z</time>
      </trkpt>
      <trkpt lat="42.719158" lon="-2.697648">
        <ele>567.164</ele>
        <time>2022-07-03T16:21:41Z</time>
      </trkpt>
      <trkpt lat="42.719198" lon="-2.697735">
        <ele>566.613</ele>
        <time>2022-07-03T16:21:42Z</time>
      </trkpt>
      <trkpt lat="42.719236" lon="-2.697802">
        <ele>566.060</ele>
        <time>2022-07-03T16:21:43Z</time>
      </trkpt>
      <trkpt lat="42.719272" lon="-2.697885">
        <ele>565.463</ele>
        <time>2022-07-03T16:21:44Z</time>
      </trkpt>
      <trkpt lat="42.719310" lon="-2.697958">
        <ele>565.154</ele>
        <time>2022-07-03T16:21:45Z</time>
      </trkpt>
      <trkpt lat="42.719351" lon="-2.698028">
        <ele>565.120</ele>
        <time>2022-07-03T16:21:46Z</time>
      </trkpt>
      <trkpt lat="42.719390" lon="-2.698107">
        <ele>564.533</ele>
        <time>2022-07-03T16:21:47Z</time>
      </trkpt>
      <trkpt lat="42.719427" lon="-2.698182">
        <ele>564.322</ele>
        <time>2022-07-03T16:21:48Z</time>
      </trkpt>
      <trkpt lat="42.719467" lon="-2.698260">
        <ele>563.822</ele>
        <time>2022-07-03T16:21:49Z</time>
      </trkpt>
      <trkpt lat="42.719512" lon="-2.698336">
        <ele>563.487</ele>
        <time>2022-07-03T16:21:50Z</time>
      </trkpt>
      <trkpt lat="42.719558" lon="-2.698403">
        <ele>563.042</ele>
        <time>2022-07-03T16:21:51Z</time>
      </trkpt>
      <trkpt lat="42.719612" lon="-2.698470">
        <ele>562.426</ele>
        <time>2022-07-03T16:21:52Z</time>
      </trkpt>
      <trkpt lat="42.719672" lon="-2.698516">
        <ele>562.109</ele>
        <time>2022-07-03T16:21:53Z</time>
      </trkpt>
      <trkpt lat="42.719739" lon="-2.698548">
        <ele>561.959</ele>
        <time>2022-07-03T16:21:54Z</time>
      </trkpt>
      <trkpt lat="42.719813" lon="-2.698563">
        <ele>561.558</ele>
        <time>2022-07-03T16:21:55Z</time>
      </trkpt>
      <trkpt lat="42.719885" lon="-2.698560">
        <ele>560.985</ele>
        <time>2022-07-03T16:21:56Z</time>
      </trkpt>
      <trkpt lat="42.719959" lon="-2.698549">
        <ele>560.478</ele>
        <time>2022-07-03T16:21:57Z</time>
      </trkpt>
      <trkpt lat="42.720027" lon="-2.698533">
        <ele>560.129</ele>
        <time>2022-07-03T16:21:58Z</time>
      </trkpt>
      <trkpt lat="42.720094" lon="-2.698520">
        <ele>559.715</ele>
        <time>2022-07-03T16:21:59Z</time>
      </trkpt>
      <trkpt lat="42.720165" lon="-2.698493">
        <ele>559.328</ele>
        <time>2022-07-03T16:22:00Z</time>
      </trkpt>
      <trkpt lat="42.720232" lon="-2.698477">
        <ele>559.187</ele>
        <time>2022-07-03T16:22:01Z</time>
      </trkpt>
      <trkpt lat="42.720300" lon="-2.698468">
        <ele>558.917</ele>
        <time>2022-07-03T16:22:02Z</time>
      </trkpt>
      <trkpt lat="42.720366" lon="-2.698454">
        <ele>558.669</ele>
        <time>2022-07-03T16:22:03Z</time>
      </trkpt>
      <trkpt lat="42.720438" lon="-2.698436">
        <ele>558.204</ele>
        <time>2022-07-03T16:22:04Z</time>
      </trkpt>
      <trkpt lat="42.720509" lon="-2.698423">
        <ele>557.724</ele>
        <time>2022-07-03T16:22:05Z</time>
      </trkpt>
      <trkpt lat="42.720580" lon="-2.698415">
        <ele>557.209</ele>
        <time>2022-07-03T16:22:06Z</time>
      </trkpt>
      <trkpt lat="42.720670" lon="-2.698369">
        <ele>556.737</ele>
        <time>2022-07-03T16:22:07Z</time>
      </trkpt>
      <trkpt lat="42.720733" lon="-2.698353">
        <ele>556.226</ele>
        <time>2022-07-03T16:22:08Z</time>
      </trkpt>
      <trkpt lat="42.720809" lon="-2.698318">
        <ele>555.863</ele>
        <time>2022-07-03T16:22:09Z</time>
      </trkpt>
      <trkpt lat="42.720875" lon="-2.698292">
        <ele>555.646</ele>
        <time>2022-07-03T16:22:10Z</time>
      </trkpt>
      <trkpt lat="42.720928" lon="-2.698288">
        <ele>555.527</ele>
        <time>2022-07-03T16:22:11Z</time>
      </trkpt>
      <trkpt lat="42.720976" lon="-2.698285">
        <ele>555.333</ele>
        <time>2022-07-03T16:22:12Z</time>
      </trkpt>
      <trkpt lat="42.721050" lon="-2.698249">
        <ele>555.256</ele>
        <time>2022-07-03T16:22:13Z</time>
      </trkpt>
      <trkpt lat="42.721126" lon="-2.698298">
        <ele>555.185</ele>
        <time>2022-07-03T16:22:15Z</time>
      </trkpt>
      <trkpt lat="42.721167" lon="-2.698378">
        <ele>555.055</ele>
        <time>2022-07-03T16:22:17Z</time>
      </trkpt>
      <trkpt lat="42.721197" lon="-2.698452">
        <ele>554.834</ele>
        <time>2022-07-03T16:22:19Z</time>
      </trkpt>
      <trkpt lat="42.721207" lon="-2.698526">
        <ele>554.355</ele>
        <time>2022-07-03T16:22:21Z</time>
      </trkpt>
      <trkpt lat="42.721206" lon="-2.698611">
        <ele>554.010</ele>
        <time>2022-07-03T16:22:23Z</time>
      </trkpt>
      <trkpt lat="42.721211" lon="-2.698674">
        <ele>554.009</ele>
        <time>2022-07-03T16:22:24Z</time>
      </trkpt>
      <trkpt lat="42.721217" lon="-2.698735">
        <ele>554.044</ele>
        <time>2022-07-03T16:22:25Z</time>
      </trkpt>
      <trkpt lat="42.721203" lon="-2.698804">
        <ele>554.063</ele>
        <time>2022-07-03T16:22:28Z</time>
      </trkpt>
      <trkpt lat="42.721180" lon="-2.698874">
        <ele>554.050</ele>
        <time>2022-07-03T16:22:30Z</time>
      </trkpt>
      <trkpt lat="42.721187" lon="-2.699016">
        <ele>554.023</ele>
        <time>2022-07-03T16:22:31Z</time>
      </trkpt>
      <trkpt lat="42.721183" lon="-2.699080">
        <ele>553.964</ele>
        <time>2022-07-03T16:22:32Z</time>
      </trkpt>
      <trkpt lat="42.721183" lon="-2.699155">
        <ele>553.810</ele>
        <time>2022-07-03T16:22:33Z</time>
      </trkpt>
      <trkpt lat="42.721180" lon="-2.699228">
        <ele>553.683</ele>
        <time>2022-07-03T16:22:34Z</time>
      </trkpt>
      <trkpt lat="42.721173" lon="-2.699303">
        <ele>553.552</ele>
        <time>2022-07-03T16:22:35Z</time>
      </trkpt>
      <trkpt lat="42.721175" lon="-2.699385">
        <ele>553.532</ele>
        <time>2022-07-03T16:22:36Z</time>
      </trkpt>
      <trkpt lat="42.721176" lon="-2.699458">
        <ele>553.488</ele>
        <time>2022-07-03T16:22:37Z</time>
      </trkpt>
      <trkpt lat="42.721187" lon="-2.699543">
        <ele>553.424</ele>
        <time>2022-07-03T16:22:38Z</time>
      </trkpt>
      <trkpt lat="42.721187" lon="-2.699609">
        <ele>553.426</ele>
        <time>2022-07-03T16:22:39Z</time>
      </trkpt>
      <trkpt lat="42.721200" lon="-2.699699">
        <ele>553.309</ele>
        <time>2022-07-03T16:22:40Z</time>
      </trkpt>
      <trkpt lat="42.721223" lon="-2.699817">
        <ele>553.149</ele>
        <time>2022-07-03T16:22:41Z</time>
      </trkpt>
      <trkpt lat="42.721230" lon="-2.699880">
        <ele>553.048</ele>
        <time>2022-07-03T16:22:42Z</time>
      </trkpt>
      <trkpt lat="42.721230" lon="-2.700021">
        <ele>552.825</ele>
        <time>2022-07-03T16:22:44Z</time>
      </trkpt>
      <trkpt lat="42.721222" lon="-2.700108">
        <ele>552.828</ele>
        <time>2022-07-03T16:22:46Z</time>
      </trkpt>
      <trkpt lat="42.721197" lon="-2.700250">
        <ele>552.939</ele>
        <time>2022-07-03T16:22:48Z</time>
      </trkpt>
      <trkpt lat="42.721131" lon="-2.700282">
        <ele>553.045</ele>
        <time>2022-07-03T16:22:50Z</time>
      </trkpt>
      <trkpt lat="42.721081" lon="-2.700345">
        <ele>553.188</ele>
        <time>2022-07-03T16:22:52Z</time>
      </trkpt>
      <trkpt lat="42.721054" lon="-2.700395">
        <ele>553.267</ele>
        <time>2022-07-03T16:22:53Z</time>
      </trkpt>
      <trkpt lat="42.721003" lon="-2.700473">
        <ele>553.317</ele>
        <time>2022-07-03T16:22:55Z</time>
      </trkpt>
      <trkpt lat="42.720952" lon="-2.700541">
        <ele>553.459</ele>
        <time>2022-07-03T16:22:57Z</time>
      </trkpt>
      <trkpt lat="42.720893" lon="-2.700608">
        <ele>553.703</ele>
        <time>2022-07-03T16:22:59Z</time>
      </trkpt>
      <trkpt lat="42.720834" lon="-2.700672">
        <ele>554.023</ele>
        <time>2022-07-03T16:23:01Z</time>
      </trkpt>
      <trkpt lat="42.720777" lon="-2.700739">
        <ele>554.309</ele>
        <time>2022-07-03T16:23:03Z</time>
      </trkpt>
      <trkpt lat="42.720719" lon="-2.700804">
        <ele>554.686</ele>
        <time>2022-07-03T16:23:05Z</time>
      </trkpt>
      <trkpt lat="42.720664" lon="-2.700858">
        <ele>554.935</ele>
        <time>2022-07-03T16:23:07Z</time>
      </trkpt>
      <trkpt lat="42.720619" lon="-2.700903">
        <ele>555.122</ele>
        <time>2022-07-03T16:23:09Z</time>
      </trkpt>
      <trkpt lat="42.720578" lon="-2.700958">
        <ele>555.175</ele>
        <time>2022-07-03T16:23:11Z</time>
      </trkpt>
      <trkpt lat="42.720537" lon="-2.701015">
        <ele>555.416</ele>
        <time>2022-07-03T16:23:13Z</time>
      </trkpt>
      <trkpt lat="42.720493" lon="-2.701074">
        <ele>555.792</ele>
        <time>2022-07-03T16:23:15Z</time>
      </trkpt>
      <trkpt lat="42.720443" lon="-2.701137">
        <ele>555.945</ele>
        <time>2022-07-03T16:23:17Z</time>
      </trkpt>
      <trkpt lat="42.720392" lon="-2.701198">
        <ele>556.394</ele>
        <time>2022-07-03T16:23:19Z</time>
      </trkpt>
      <trkpt lat="42.720341" lon="-2.701258">
        <ele>556.744</ele>
        <time>2022-07-03T16:23:21Z</time>
      </trkpt>
      <trkpt lat="42.720296" lon="-2.701315">
        <ele>557.231</ele>
        <time>2022-07-03T16:23:23Z</time>
      </trkpt>
      <trkpt lat="42.720279" lon="-2.701381">
        <ele>557.761</ele>
        <time>2022-07-03T16:23:25Z</time>
      </trkpt>
      <trkpt lat="42.720312" lon="-2.701470">
        <ele>558.107</ele>
        <time>2022-07-03T16:23:27Z</time>
      </trkpt>
      <trkpt lat="42.720340" lon="-2.701519">
        <ele>558.509</ele>
        <time>2022-07-03T16:23:28Z</time>
      </trkpt>
      <trkpt lat="42.720393" lon="-2.701581">
        <ele>559.074</ele>
        <time>2022-07-03T16:23:29Z</time>
      </trkpt>
      <trkpt lat="42.720425" lon="-2.701639">
        <ele>559.163</ele>
        <time>2022-07-03T16:23:30Z</time>
      </trkpt>
      <trkpt lat="42.720442" lon="-2.701706">
        <ele>559.360</ele>
        <time>2022-07-03T16:23:31Z</time>
      </trkpt>
      <trkpt lat="42.720462" lon="-2.701764">
        <ele>559.483</ele>
        <time>2022-07-03T16:23:32Z</time>
      </trkpt>
      <trkpt lat="42.720484" lon="-2.701827">
        <ele>559.594</ele>
        <time>2022-07-03T16:23:33Z</time>
      </trkpt>
      <trkpt lat="42.720501" lon="-2.701893">
        <ele>559.470</ele>
        <time>2022-07-03T16:23:34Z</time>
      </trkpt>
      <trkpt lat="42.720514" lon="-2.701964">
        <ele>559.373</ele>
        <time>2022-07-03T16:23:35Z</time>
      </trkpt>
      <trkpt lat="42.720535" lon="-2.702093">
        <ele>558.852</ele>
        <time>2022-07-03T16:23:37Z</time>
      </trkpt>
      <trkpt lat="42.720545" lon="-2.702160">
        <ele>558.622</ele>
        <time>2022-07-03T16:23:38Z</time>
      </trkpt>
      <trkpt lat="42.720574" lon="-2.702286">
        <ele>557.784</ele>
        <time>2022-07-03T16:23:39Z</time>
      </trkpt>
      <trkpt lat="42.720589" lon="-2.702354">
        <ele>557.507</ele>
        <time>2022-07-03T16:23:40Z</time>
      </trkpt>
      <trkpt lat="42.720616" lon="-2.702452">
        <ele>557.217</ele>
        <time>2022-07-03T16:23:41Z</time>
      </trkpt>
      <trkpt lat="42.720647" lon="-2.702523">
        <ele>556.809</ele>
        <time>2022-07-03T16:23:42Z</time>
      </trkpt>
      <trkpt lat="42.720673" lon="-2.702590">
        <ele>556.659</ele>
        <time>2022-07-03T16:23:43Z</time>
      </trkpt>
      <trkpt lat="42.720701" lon="-2.702674">
        <ele>556.358</ele>
        <time>2022-07-03T16:23:44Z</time>
      </trkpt>
      <trkpt lat="42.720724" lon="-2.702734">
        <ele>556.355</ele>
        <time>2022-07-03T16:23:45Z</time>
      </trkpt>
      <trkpt lat="42.720742" lon="-2.702796">
        <ele>556.128</ele>
        <time>2022-07-03T16:23:46Z</time>
      </trkpt>
      <trkpt lat="42.720763" lon="-2.702863">
        <ele>556.199</ele>
        <time>2022-07-03T16:23:47Z</time>
      </trkpt>
      <trkpt lat="42.720799" lon="-2.702932">
        <ele>556.115</ele>
        <time>2022-07-03T16:23:48Z</time>
      </trkpt>
      <trkpt lat="42.720815" lon="-2.703005">
        <ele>556.198</ele>
        <time>2022-07-03T16:23:49Z</time>
      </trkpt>
      <trkpt lat="42.720824" lon="-2.703096">
        <ele>556.017</ele>
        <time>2022-07-03T16:23:50Z</time>
      </trkpt>
      <trkpt lat="42.720843" lon="-2.703178">
        <ele>555.947</ele>
        <time>2022-07-03T16:23:51Z</time>
      </trkpt>
      <trkpt lat="42.720866" lon="-2.703301">
        <ele>555.826</ele>
        <time>2022-07-03T16:23:52Z</time>
      </trkpt>
      <trkpt lat="42.720873" lon="-2.703376">
        <ele>555.747</ele>
        <time>2022-07-03T16:23:53Z</time>
      </trkpt>
      <trkpt lat="42.720886" lon="-2.703470">
        <ele>555.711</ele>
        <time>2022-07-03T16:23:54Z</time>
      </trkpt>
      <trkpt lat="42.720898" lon="-2.703558">
        <ele>555.709</ele>
        <time>2022-07-03T16:23:55Z</time>
      </trkpt>
      <trkpt lat="42.720910" lon="-2.703620">
        <ele>555.793</ele>
        <time>2022-07-03T16:23:56Z</time>
      </trkpt>
      <trkpt lat="42.720927" lon="-2.703691">
        <ele>555.742</ele>
        <time>2022-07-03T16:23:57Z</time>
      </trkpt>
      <trkpt lat="42.720939" lon="-2.703757">
        <ele>555.789</ele>
        <time>2022-07-03T16:23:58Z</time>
      </trkpt>
      <trkpt lat="42.720958" lon="-2.703882">
        <ele>555.742</ele>
        <time>2022-07-03T16:24:00Z</time>
      </trkpt>
      <trkpt lat="42.720964" lon="-2.703947">
        <ele>555.533</ele>
        <time>2022-07-03T16:24:01Z</time>
      </trkpt>
      <trkpt lat="42.720977" lon="-2.704047">
        <ele>554.849</ele>
        <time>2022-07-03T16:24:02Z</time>
      </trkpt>
      <trkpt lat="42.720989" lon="-2.704139">
        <ele>554.742</ele>
        <time>2022-07-03T16:24:04Z</time>
      </trkpt>
      <trkpt lat="42.720996" lon="-2.704209">
        <ele>554.831</ele>
        <time>2022-07-03T16:24:05Z</time>
      </trkpt>
      <trkpt lat="42.721006" lon="-2.704287">
        <ele>554.961</ele>
        <time>2022-07-03T16:24:06Z</time>
      </trkpt>
      <trkpt lat="42.721008" lon="-2.704372">
        <ele>555.091</ele>
        <time>2022-07-03T16:24:07Z</time>
      </trkpt>
      <trkpt lat="42.721022" lon="-2.704494">
        <ele>555.181</ele>
        <time>2022-07-03T16:24:09Z</time>
      </trkpt>
      <trkpt lat="42.721005" lon="-2.704636">
        <ele>555.219</ele>
        <time>2022-07-03T16:24:11Z</time>
      </trkpt>
      <trkpt lat="42.721015" lon="-2.704756">
        <ele>555.309</ele>
        <time>2022-07-03T16:24:12Z</time>
      </trkpt>
      <trkpt lat="42.720997" lon="-2.704813">
        <ele>555.330</ele>
        <time>2022-07-03T16:24:13Z</time>
      </trkpt>
      <trkpt lat="42.720983" lon="-2.704894">
        <ele>555.349</ele>
        <time>2022-07-03T16:24:14Z</time>
      </trkpt>
      <trkpt lat="42.720960" lon="-2.704957">
        <ele>555.356</ele>
        <time>2022-07-03T16:24:16Z</time>
      </trkpt>
      <trkpt lat="42.720947" lon="-2.705088">
        <ele>555.329</ele>
        <time>2022-07-03T16:24:18Z</time>
      </trkpt>
      <trkpt lat="42.720952" lon="-2.705165">
        <ele>555.350</ele>
        <time>2022-07-03T16:24:19Z</time>
      </trkpt>
      <trkpt lat="42.720979" lon="-2.705277">
        <ele>555.336</ele>
        <time>2022-07-03T16:24:21Z</time>
      </trkpt>
      <trkpt lat="42.720999" lon="-2.705351">
        <ele>555.369</ele>
        <time>2022-07-03T16:24:22Z</time>
      </trkpt>
      <trkpt lat="42.721042" lon="-2.705469">
        <ele>555.358</ele>
        <time>2022-07-03T16:24:24Z</time>
      </trkpt>
      <trkpt lat="42.721083" lon="-2.705573">
        <ele>555.298</ele>
        <time>2022-07-03T16:24:26Z</time>
      </trkpt>
      <trkpt lat="42.721125" lon="-2.705687">
        <ele>554.657</ele>
        <time>2022-07-03T16:24:27Z</time>
      </trkpt>
      <trkpt lat="42.721153" lon="-2.705770">
        <ele>554.400</ele>
        <time>2022-07-03T16:24:28Z</time>
      </trkpt>
      <trkpt lat="42.721180" lon="-2.705850">
        <ele>554.020</ele>
        <time>2022-07-03T16:24:29Z</time>
      </trkpt>
      <trkpt lat="42.721206" lon="-2.706027">
        <ele>553.709</ele>
        <time>2022-07-03T16:24:30Z</time>
      </trkpt>
      <trkpt lat="42.721229" lon="-2.706116">
        <ele>553.576</ele>
        <time>2022-07-03T16:24:31Z</time>
      </trkpt>
      <trkpt lat="42.721250" lon="-2.706187">
        <ele>553.535</ele>
        <time>2022-07-03T16:24:32Z</time>
      </trkpt>
      <trkpt lat="42.721258" lon="-2.706263">
        <ele>553.582</ele>
        <time>2022-07-03T16:24:33Z</time>
      </trkpt>
      <trkpt lat="42.721265" lon="-2.706331">
        <ele>553.645</ele>
        <time>2022-07-03T16:24:34Z</time>
      </trkpt>
      <trkpt lat="42.721265" lon="-2.706403">
        <ele>553.636</ele>
        <time>2022-07-03T16:24:35Z</time>
      </trkpt>
      <trkpt lat="42.721278" lon="-2.706518">
        <ele>553.662</ele>
        <time>2022-07-03T16:24:37Z</time>
      </trkpt>
      <trkpt lat="42.721290" lon="-2.706593">
        <ele>553.535</ele>
        <time>2022-07-03T16:24:38Z</time>
      </trkpt>
      <trkpt lat="42.721299" lon="-2.706663">
        <ele>553.154</ele>
        <time>2022-07-03T16:24:39Z</time>
      </trkpt>
      <trkpt lat="42.721299" lon="-2.706729">
        <ele>552.814</ele>
        <time>2022-07-03T16:24:40Z</time>
      </trkpt>
      <trkpt lat="42.721318" lon="-2.706843">
        <ele>552.483</ele>
        <time>2022-07-03T16:24:41Z</time>
      </trkpt>
      <trkpt lat="42.721331" lon="-2.706941">
        <ele>552.325</ele>
        <time>2022-07-03T16:24:42Z</time>
      </trkpt>
      <trkpt lat="42.721348" lon="-2.707019">
        <ele>552.117</ele>
        <time>2022-07-03T16:24:43Z</time>
      </trkpt>
      <trkpt lat="42.721354" lon="-2.707092">
        <ele>552.109</ele>
        <time>2022-07-03T16:24:44Z</time>
      </trkpt>
      <trkpt lat="42.721369" lon="-2.707181">
        <ele>552.199</ele>
        <time>2022-07-03T16:24:45Z</time>
      </trkpt>
      <trkpt lat="42.721397" lon="-2.707319">
        <ele>552.348</ele>
        <time>2022-07-03T16:24:46Z</time>
      </trkpt>
      <trkpt lat="42.721436" lon="-2.707473">
        <ele>552.425</ele>
        <time>2022-07-03T16:24:47Z</time>
      </trkpt>
      <trkpt lat="42.721463" lon="-2.707555">
        <ele>552.438</ele>
        <time>2022-07-03T16:24:48Z</time>
      </trkpt>
      <trkpt lat="42.721494" lon="-2.707606">
        <ele>552.449</ele>
        <time>2022-07-03T16:24:49Z</time>
      </trkpt>
      <trkpt lat="42.721519" lon="-2.707681">
        <ele>552.545</ele>
        <time>2022-07-03T16:24:50Z</time>
      </trkpt>
      <trkpt lat="42.721557" lon="-2.707769">
        <ele>552.578</ele>
        <time>2022-07-03T16:24:52Z</time>
      </trkpt>
      <trkpt lat="42.721591" lon="-2.707841">
        <ele>552.587</ele>
        <time>2022-07-03T16:24:53Z</time>
      </trkpt>
      <trkpt lat="42.721624" lon="-2.707958">
        <ele>552.617</ele>
        <time>2022-07-03T16:24:55Z</time>
      </trkpt>
      <trkpt lat="42.721636" lon="-2.708051">
        <ele>552.726</ele>
        <time>2022-07-03T16:24:56Z</time>
      </trkpt>
      <trkpt lat="42.721654" lon="-2.708179">
        <ele>552.747</ele>
        <time>2022-07-03T16:24:58Z</time>
      </trkpt>
      <trkpt lat="42.721678" lon="-2.708257">
        <ele>552.711</ele>
        <time>2022-07-03T16:24:59Z</time>
      </trkpt>
      <trkpt lat="42.721689" lon="-2.708321">
        <ele>553.009</ele>
        <time>2022-07-03T16:25:00Z</time>
      </trkpt>
      <trkpt lat="42.721701" lon="-2.708391">
        <ele>553.343</ele>
        <time>2022-07-03T16:25:01Z</time>
      </trkpt>
      <trkpt lat="42.721709" lon="-2.708452">
        <ele>553.372</ele>
        <time>2022-07-03T16:25:02Z</time>
      </trkpt>
      <trkpt lat="42.721717" lon="-2.708569">
        <ele>553.319</ele>
        <time>2022-07-03T16:25:04Z</time>
      </trkpt>
      <trkpt lat="42.721726" lon="-2.708632">
        <ele>553.312</ele>
        <time>2022-07-03T16:25:05Z</time>
      </trkpt>
      <trkpt lat="42.721740" lon="-2.708752">
        <ele>552.583</ele>
        <time>2022-07-03T16:25:07Z</time>
      </trkpt>
      <trkpt lat="42.721736" lon="-2.708819">
        <ele>552.029</ele>
        <time>2022-07-03T16:25:08Z</time>
      </trkpt>
      <trkpt lat="42.721710" lon="-2.708920">
        <ele>551.792</ele>
        <time>2022-07-03T16:25:10Z</time>
      </trkpt>
      <trkpt lat="42.721690" lon="-2.709030">
        <ele>551.741</ele>
        <time>2022-07-03T16:25:12Z</time>
      </trkpt>
      <trkpt lat="42.721685" lon="-2.709127">
        <ele>551.831</ele>
        <time>2022-07-03T16:25:14Z</time>
      </trkpt>
      <trkpt lat="42.721685" lon="-2.709208">
        <ele>552.086</ele>
        <time>2022-07-03T16:25:16Z</time>
      </trkpt>
      <trkpt lat="42.721688" lon="-2.709289">
        <ele>552.460</ele>
        <time>2022-07-03T16:25:17Z</time>
      </trkpt>
      <trkpt lat="42.721674" lon="-2.709408">
        <ele>552.726</ele>
        <time>2022-07-03T16:25:19Z</time>
      </trkpt>
      <trkpt lat="42.721655" lon="-2.709508">
        <ele>553.209</ele>
        <time>2022-07-03T16:25:21Z</time>
      </trkpt>
      <trkpt lat="42.721645" lon="-2.709578">
        <ele>553.989</ele>
        <time>2022-07-03T16:25:23Z</time>
      </trkpt>
      <trkpt lat="42.721680" lon="-2.709650">
        <ele>554.428</ele>
        <time>2022-07-03T16:25:26Z</time>
      </trkpt>
      <trkpt lat="42.721722" lon="-2.709691">
        <ele>554.695</ele>
        <time>2022-07-03T16:25:28Z</time>
      </trkpt>
      <trkpt lat="42.721767" lon="-2.709727">
        <ele>555.238</ele>
        <time>2022-07-03T16:25:30Z</time>
      </trkpt>
      <trkpt lat="42.721816" lon="-2.709794">
        <ele>555.599</ele>
        <time>2022-07-03T16:25:33Z</time>
      </trkpt>
      <trkpt lat="42.721850" lon="-2.709869">
        <ele>555.725</ele>
        <time>2022-07-03T16:25:35Z</time>
      </trkpt>
      <trkpt lat="42.721889" lon="-2.709956">
        <ele>556.048</ele>
        <time>2022-07-03T16:25:37Z</time>
      </trkpt>
      <trkpt lat="42.721937" lon="-2.710036">
        <ele>556.377</ele>
        <time>2022-07-03T16:25:39Z</time>
      </trkpt>
      <trkpt lat="42.722022" lon="-2.710174">
        <ele>556.647</ele>
        <time>2022-07-03T16:25:41Z</time>
      </trkpt>
      <trkpt lat="42.722065" lon="-2.710259">
        <ele>556.953</ele>
        <time>2022-07-03T16:25:43Z</time>
      </trkpt>
      <trkpt lat="42.722072" lon="-2.710339">
        <ele>557.004</ele>
        <time>2022-07-03T16:25:44Z</time>
      </trkpt>
      <trkpt lat="42.722082" lon="-2.710400">
        <ele>557.214</ele>
        <time>2022-07-03T16:25:45Z</time>
      </trkpt>
      <trkpt lat="42.722082" lon="-2.710495">
        <ele>557.209</ele>
        <time>2022-07-03T16:25:47Z</time>
      </trkpt>
      <trkpt lat="42.722090" lon="-2.710592">
        <ele>557.326</ele>
        <time>2022-07-03T16:25:50Z</time>
      </trkpt>
      <trkpt lat="42.722115" lon="-2.710680">
        <ele>557.585</ele>
        <time>2022-07-03T16:25:52Z</time>
      </trkpt>
      <trkpt lat="42.722132" lon="-2.710752">
        <ele>558.112</ele>
        <time>2022-07-03T16:25:54Z</time>
      </trkpt>
      <trkpt lat="42.722155" lon="-2.710830">
        <ele>558.685</ele>
        <time>2022-07-03T16:25:56Z</time>
      </trkpt>
      <trkpt lat="42.722170" lon="-2.710949">
        <ele>558.786</ele>
        <time>2022-07-03T16:25:58Z</time>
      </trkpt>
      <trkpt lat="42.722175" lon="-2.711071">
        <ele>558.642</ele>
        <time>2022-07-03T16:25:59Z</time>
      </trkpt>
      <trkpt lat="42.722176" lon="-2.711134">
        <ele>558.365</ele>
        <time>2022-07-03T16:26:00Z</time>
      </trkpt>
      <trkpt lat="42.722177" lon="-2.711196">
        <ele>558.094</ele>
        <time>2022-07-03T16:26:01Z</time>
      </trkpt>
      <trkpt lat="42.722175" lon="-2.711281">
        <ele>557.894</ele>
        <time>2022-07-03T16:26:02Z</time>
      </trkpt>
      <trkpt lat="42.722169" lon="-2.711352">
        <ele>557.888</ele>
        <time>2022-07-03T16:26:03Z</time>
      </trkpt>
      <trkpt lat="42.722170" lon="-2.711417">
        <ele>557.724</ele>
        <time>2022-07-03T16:26:04Z</time>
      </trkpt>
      <trkpt lat="42.722189" lon="-2.711474">
        <ele>557.526</ele>
        <time>2022-07-03T16:26:05Z</time>
      </trkpt>
      <trkpt lat="42.722224" lon="-2.711587">
        <ele>557.109</ele>
        <time>2022-07-03T16:26:07Z</time>
      </trkpt>
      <trkpt lat="42.722260" lon="-2.711645">
        <ele>556.729</ele>
        <time>2022-07-03T16:26:08Z</time>
      </trkpt>
      <trkpt lat="42.722306" lon="-2.711701">
        <ele>555.768</ele>
        <time>2022-07-03T16:26:09Z</time>
      </trkpt>
      <trkpt lat="42.722355" lon="-2.711758">
        <ele>555.275</ele>
        <time>2022-07-03T16:26:10Z</time>
      </trkpt>
      <trkpt lat="42.722401" lon="-2.711807">
        <ele>555.028</ele>
        <time>2022-07-03T16:26:11Z</time>
      </trkpt>
      <trkpt lat="42.722470" lon="-2.711852">
        <ele>554.639</ele>
        <time>2022-07-03T16:26:12Z</time>
      </trkpt>
      <trkpt lat="42.722535" lon="-2.711863">
        <ele>554.365</ele>
        <time>2022-07-03T16:26:13Z</time>
      </trkpt>
      <trkpt lat="42.722605" lon="-2.711882">
        <ele>553.548</ele>
        <time>2022-07-03T16:26:14Z</time>
      </trkpt>
      <trkpt lat="42.722677" lon="-2.711891">
        <ele>552.997</ele>
        <time>2022-07-03T16:26:15Z</time>
      </trkpt>
      <trkpt lat="42.722744" lon="-2.711914">
        <ele>552.247</ele>
        <time>2022-07-03T16:26:16Z</time>
      </trkpt>
      <trkpt lat="42.722810" lon="-2.711939">
        <ele>551.658</ele>
        <time>2022-07-03T16:26:17Z</time>
      </trkpt>
      <trkpt lat="42.722872" lon="-2.711966">
        <ele>551.152</ele>
        <time>2022-07-03T16:26:18Z</time>
      </trkpt>
      <trkpt lat="42.722936" lon="-2.712009">
        <ele>550.817</ele>
        <time>2022-07-03T16:26:19Z</time>
      </trkpt>
      <trkpt lat="42.722995" lon="-2.712036">
        <ele>550.709</ele>
        <time>2022-07-03T16:26:20Z</time>
      </trkpt>
      <trkpt lat="42.723061" lon="-2.712031">
        <ele>550.426</ele>
        <time>2022-07-03T16:26:21Z</time>
      </trkpt>
      <trkpt lat="42.723127" lon="-2.712028">
        <ele>550.355</ele>
        <time>2022-07-03T16:26:22Z</time>
      </trkpt>
      <trkpt lat="42.723185" lon="-2.711968">
        <ele>550.282</ele>
        <time>2022-07-03T16:26:23Z</time>
      </trkpt>
      <trkpt lat="42.723256" lon="-2.711898">
        <ele>549.765</ele>
        <time>2022-07-03T16:26:24Z</time>
      </trkpt>
      <trkpt lat="42.723312" lon="-2.711846">
        <ele>549.426</ele>
        <time>2022-07-03T16:26:25Z</time>
      </trkpt>
      <trkpt lat="42.723365" lon="-2.711813">
        <ele>549.292</ele>
        <time>2022-07-03T16:26:26Z</time>
      </trkpt>
      <trkpt lat="42.723426" lon="-2.711772">
        <ele>548.895</ele>
        <time>2022-07-03T16:26:27Z</time>
      </trkpt>
      <trkpt lat="42.723491" lon="-2.711739">
        <ele>548.424</ele>
        <time>2022-07-03T16:26:28Z</time>
      </trkpt>
      <trkpt lat="42.723559" lon="-2.711736">
        <ele>547.844</ele>
        <time>2022-07-03T16:26:29Z</time>
      </trkpt>
      <trkpt lat="42.723639" lon="-2.711718">
        <ele>547.021</ele>
        <time>2022-07-03T16:26:30Z</time>
      </trkpt>
      <trkpt lat="42.723708" lon="-2.711697">
        <ele>546.741</ele>
        <time>2022-07-03T16:26:31Z</time>
      </trkpt>
      <trkpt lat="42.723787" lon="-2.711688">
        <ele>546.505</ele>
        <time>2022-07-03T16:26:32Z</time>
      </trkpt>
      <trkpt lat="42.723851" lon="-2.711682">
        <ele>546.309</ele>
        <time>2022-07-03T16:26:33Z</time>
      </trkpt>
      <trkpt lat="42.723909" lon="-2.711698">
        <ele>546.123</ele>
        <time>2022-07-03T16:26:34Z</time>
      </trkpt>
      <trkpt lat="42.723965" lon="-2.711727">
        <ele>546.062</ele>
        <time>2022-07-03T16:26:35Z</time>
      </trkpt>
      <trkpt lat="42.724027" lon="-2.711742">
        <ele>545.599</ele>
        <time>2022-07-03T16:26:36Z</time>
      </trkpt>
      <trkpt lat="42.724090" lon="-2.711773">
        <ele>545.072</ele>
        <time>2022-07-03T16:26:37Z</time>
      </trkpt>
      <trkpt lat="42.724182" lon="-2.711788">
        <ele>544.593</ele>
        <time>2022-07-03T16:26:38Z</time>
      </trkpt>
      <trkpt lat="42.724244" lon="-2.711813">
        <ele>544.419</ele>
        <time>2022-07-03T16:26:39Z</time>
      </trkpt>
      <trkpt lat="42.724293" lon="-2.711814">
        <ele>544.392</ele>
        <time>2022-07-03T16:26:40Z</time>
      </trkpt>
      <trkpt lat="42.724373" lon="-2.711853">
        <ele>544.271</ele>
        <time>2022-07-03T16:26:42Z</time>
      </trkpt>
      <trkpt lat="42.724431" lon="-2.711860">
        <ele>544.241</ele>
        <time>2022-07-03T16:26:43Z</time>
      </trkpt>
      <trkpt lat="42.724482" lon="-2.711886">
        <ele>544.237</ele>
        <time>2022-07-03T16:26:44Z</time>
      </trkpt>
      <trkpt lat="42.724533" lon="-2.711903">
        <ele>544.249</ele>
        <time>2022-07-03T16:26:45Z</time>
      </trkpt>
      <trkpt lat="42.724582" lon="-2.711921">
        <ele>544.113</ele>
        <time>2022-07-03T16:26:46Z</time>
      </trkpt>
      <trkpt lat="42.724632" lon="-2.711934">
        <ele>544.109</ele>
        <time>2022-07-03T16:26:47Z</time>
      </trkpt>
      <trkpt lat="42.724682" lon="-2.711955">
        <ele>544.044</ele>
        <time>2022-07-03T16:26:48Z</time>
      </trkpt>
      <trkpt lat="42.724732" lon="-2.711960">
        <ele>544.093</ele>
        <time>2022-07-03T16:26:49Z</time>
      </trkpt>
      <trkpt lat="42.724783" lon="-2.711973">
        <ele>544.010</ele>
        <time>2022-07-03T16:26:50Z</time>
      </trkpt>
      <trkpt lat="42.724841" lon="-2.711971">
        <ele>544.033</ele>
        <time>2022-07-03T16:26:51Z</time>
      </trkpt>
      <trkpt lat="42.724899" lon="-2.711982">
        <ele>544.064</ele>
        <time>2022-07-03T16:26:52Z</time>
      </trkpt>
      <trkpt lat="42.724945" lon="-2.711968">
        <ele>544.170</ele>
        <time>2022-07-03T16:26:53Z</time>
      </trkpt>
      <trkpt lat="42.724997" lon="-2.711951">
        <ele>544.223</ele>
        <time>2022-07-03T16:26:54Z</time>
      </trkpt>
      <trkpt lat="42.725046" lon="-2.711925">
        <ele>544.212</ele>
        <time>2022-07-03T16:26:55Z</time>
      </trkpt>
      <trkpt lat="42.725133" lon="-2.711897">
        <ele>544.242</ele>
        <time>2022-07-03T16:26:57Z</time>
      </trkpt>
      <trkpt lat="42.725217" lon="-2.711880">
        <ele>544.289</ele>
        <time>2022-07-03T16:26:59Z</time>
      </trkpt>
      <trkpt lat="42.725291" lon="-2.711867">
        <ele>544.206</ele>
        <time>2022-07-03T16:27:01Z</time>
      </trkpt>
      <trkpt lat="42.725368" lon="-2.711848">
        <ele>544.326</ele>
        <time>2022-07-03T16:27:03Z</time>
      </trkpt>
      <trkpt lat="42.725445" lon="-2.711830">
        <ele>544.309</ele>
        <time>2022-07-03T16:27:05Z</time>
      </trkpt>
      <trkpt lat="42.725526" lon="-2.711821">
        <ele>544.219</ele>
        <time>2022-07-03T16:27:07Z</time>
      </trkpt>
      <trkpt lat="42.725608" lon="-2.711813">
        <ele>544.178</ele>
        <time>2022-07-03T16:27:09Z</time>
      </trkpt>
      <trkpt lat="42.725688" lon="-2.711804">
        <ele>544.135</ele>
        <time>2022-07-03T16:27:11Z</time>
      </trkpt>
      <trkpt lat="42.725754" lon="-2.711808">
        <ele>544.178</ele>
        <time>2022-07-03T16:27:13Z</time>
      </trkpt>
      <trkpt lat="42.725802" lon="-2.711823">
        <ele>544.189</ele>
        <time>2022-07-03T16:27:15Z</time>
      </trkpt>
      <trkpt lat="42.725836" lon="-2.711780">
        <ele>544.165</ele>
        <time>2022-07-03T16:27:59Z</time>
      </trkpt>
      <trkpt lat="42.725868" lon="-2.711838">
        <ele>544.168</ele>
        <time>2022-07-03T16:28:40Z</time>
      </trkpt>
      <trkpt lat="42.725934" lon="-2.711881">
        <ele>544.147</ele>
        <time>2022-07-03T16:28:43Z</time>
      </trkpt>
      <trkpt lat="42.725998" lon="-2.711930">
        <ele>543.927</ele>
        <time>2022-07-03T16:28:45Z</time>
      </trkpt>
      <trkpt lat="42.726046" lon="-2.712019">
        <ele>543.891</ele>
        <time>2022-07-03T16:28:47Z</time>
      </trkpt>
      <trkpt lat="42.726089" lon="-2.712115">
        <ele>543.681</ele>
        <time>2022-07-03T16:28:49Z</time>
      </trkpt>
      <trkpt lat="42.726137" lon="-2.712225">
        <ele>543.319</ele>
        <time>2022-07-03T16:28:51Z</time>
      </trkpt>
      <trkpt lat="42.726181" lon="-2.712288">
        <ele>543.109</ele>
        <time>2022-07-03T16:28:52Z</time>
      </trkpt>
      <trkpt lat="42.726241" lon="-2.712395">
        <ele>543.050</ele>
        <time>2022-07-03T16:28:54Z</time>
      </trkpt>
      <trkpt lat="42.726278" lon="-2.712461">
        <ele>543.069</ele>
        <time>2022-07-03T16:28:55Z</time>
      </trkpt>
      <trkpt lat="42.726310" lon="-2.712511">
        <ele>543.056</ele>
        <time>2022-07-03T16:28:56Z</time>
      </trkpt>
      <trkpt lat="42.726354" lon="-2.712610">
        <ele>543.089</ele>
        <time>2022-07-03T16:28:58Z</time>
      </trkpt>
      <trkpt lat="42.726379" lon="-2.712665">
        <ele>543.090</ele>
        <time>2022-07-03T16:28:59Z</time>
      </trkpt>
      <trkpt lat="42.726416" lon="-2.712772">
        <ele>543.096</ele>
        <time>2022-07-03T16:29:01Z</time>
      </trkpt>
      <trkpt lat="42.726444" lon="-2.712892">
        <ele>542.639</ele>
        <time>2022-07-03T16:29:03Z</time>
      </trkpt>
      <trkpt lat="42.726467" lon="-2.712962">
        <ele>542.488</ele>
        <time>2022-07-03T16:29:04Z</time>
      </trkpt>
      <trkpt lat="42.726486" lon="-2.713034">
        <ele>542.428</ele>
        <time>2022-07-03T16:29:05Z</time>
      </trkpt>
      <trkpt lat="42.726503" lon="-2.713101">
        <ele>542.429</ele>
        <time>2022-07-03T16:29:06Z</time>
      </trkpt>
      <trkpt lat="42.726516" lon="-2.713172">
        <ele>542.400</ele>
        <time>2022-07-03T16:29:07Z</time>
      </trkpt>
      <trkpt lat="42.726537" lon="-2.713241">
        <ele>542.520</ele>
        <time>2022-07-03T16:29:08Z</time>
      </trkpt>
      <trkpt lat="42.726557" lon="-2.713307">
        <ele>542.509</ele>
        <time>2022-07-03T16:29:09Z</time>
      </trkpt>
      <trkpt lat="42.726577" lon="-2.713374">
        <ele>542.543</ele>
        <time>2022-07-03T16:29:10Z</time>
      </trkpt>
      <trkpt lat="42.726600" lon="-2.713450">
        <ele>542.592</ele>
        <time>2022-07-03T16:29:11Z</time>
      </trkpt>
      <trkpt lat="42.726619" lon="-2.713516">
        <ele>542.459</ele>
        <time>2022-07-03T16:29:12Z</time>
      </trkpt>
      <trkpt lat="42.726640" lon="-2.713590">
        <ele>542.462</ele>
        <time>2022-07-03T16:29:13Z</time>
      </trkpt>
      <trkpt lat="42.726659" lon="-2.713661">
        <ele>542.443</ele>
        <time>2022-07-03T16:29:14Z</time>
      </trkpt>
      <trkpt lat="42.726682" lon="-2.713735">
        <ele>542.599</ele>
        <time>2022-07-03T16:29:15Z</time>
      </trkpt>
      <trkpt lat="42.726703" lon="-2.713810">
        <ele>542.652</ele>
        <time>2022-07-03T16:29:16Z</time>
      </trkpt>
      <trkpt lat="42.726723" lon="-2.713877">
        <ele>542.791</ele>
        <time>2022-07-03T16:29:17Z</time>
      </trkpt>
      <trkpt lat="42.726742" lon="-2.713946">
        <ele>542.751</ele>
        <time>2022-07-03T16:29:18Z</time>
      </trkpt>
      <trkpt lat="42.726760" lon="-2.714022">
        <ele>542.747</ele>
        <time>2022-07-03T16:29:19Z</time>
      </trkpt>
      <trkpt lat="42.726786" lon="-2.714093">
        <ele>542.729</ele>
        <time>2022-07-03T16:29:20Z</time>
      </trkpt>
      <trkpt lat="42.726800" lon="-2.714165">
        <ele>542.721</ele>
        <time>2022-07-03T16:29:21Z</time>
      </trkpt>
      <trkpt lat="42.726823" lon="-2.714243">
        <ele>542.909</ele>
        <time>2022-07-03T16:29:22Z</time>
      </trkpt>
      <trkpt lat="42.726838" lon="-2.714322">
        <ele>543.045</ele>
        <time>2022-07-03T16:29:23Z</time>
      </trkpt>
      <trkpt lat="42.726860" lon="-2.714419">
        <ele>543.184</ele>
        <time>2022-07-03T16:29:24Z</time>
      </trkpt>
      <trkpt lat="42.726878" lon="-2.714495">
        <ele>543.281</ele>
        <time>2022-07-03T16:29:25Z</time>
      </trkpt>
      <trkpt lat="42.726898" lon="-2.714574">
        <ele>543.264</ele>
        <time>2022-07-03T16:29:26Z</time>
      </trkpt>
      <trkpt lat="42.726926" lon="-2.714657">
        <ele>543.275</ele>
        <time>2022-07-03T16:29:27Z</time>
      </trkpt>
      <trkpt lat="42.726956" lon="-2.714738">
        <ele>543.161</ele>
        <time>2022-07-03T16:29:28Z</time>
      </trkpt>
      <trkpt lat="42.726977" lon="-2.714825">
        <ele>543.064</ele>
        <time>2022-07-03T16:29:29Z</time>
      </trkpt>
      <trkpt lat="42.727002" lon="-2.714907">
        <ele>543.043</ele>
        <time>2022-07-03T16:29:30Z</time>
      </trkpt>
      <trkpt lat="42.727026" lon="-2.714992">
        <ele>542.923</ele>
        <time>2022-07-03T16:29:31Z</time>
      </trkpt>
      <trkpt lat="42.727054" lon="-2.715087">
        <ele>542.884</ele>
        <time>2022-07-03T16:29:32Z</time>
      </trkpt>
      <trkpt lat="42.727081" lon="-2.715170">
        <ele>542.807</ele>
        <time>2022-07-03T16:29:33Z</time>
      </trkpt>
      <trkpt lat="42.727105" lon="-2.715252">
        <ele>542.817</ele>
        <time>2022-07-03T16:29:34Z</time>
      </trkpt>
      <trkpt lat="42.727133" lon="-2.715350">
        <ele>542.809</ele>
        <time>2022-07-03T16:29:35Z</time>
      </trkpt>
      <trkpt lat="42.727155" lon="-2.715437">
        <ele>542.799</ele>
        <time>2022-07-03T16:29:36Z</time>
      </trkpt>
      <trkpt lat="42.727182" lon="-2.715529">
        <ele>542.568</ele>
        <time>2022-07-03T16:29:37Z</time>
      </trkpt>
      <trkpt lat="42.727204" lon="-2.715621">
        <ele>542.445</ele>
        <time>2022-07-03T16:29:38Z</time>
      </trkpt>
      <trkpt lat="42.727228" lon="-2.715713">
        <ele>542.318</ele>
        <time>2022-07-03T16:29:39Z</time>
      </trkpt>
      <trkpt lat="42.727256" lon="-2.715798">
        <ele>542.389</ele>
        <time>2022-07-03T16:29:40Z</time>
      </trkpt>
      <trkpt lat="42.727279" lon="-2.715877">
        <ele>542.345</ele>
        <time>2022-07-03T16:29:41Z</time>
      </trkpt>
      <trkpt lat="42.727307" lon="-2.715979">
        <ele>542.398</ele>
        <time>2022-07-03T16:29:42Z</time>
      </trkpt>
      <trkpt lat="42.727335" lon="-2.716064">
        <ele>542.317</ele>
        <time>2022-07-03T16:29:43Z</time>
      </trkpt>
      <trkpt lat="42.727358" lon="-2.716147">
        <ele>542.347</ele>
        <time>2022-07-03T16:29:44Z</time>
      </trkpt>
      <trkpt lat="42.727381" lon="-2.716221">
        <ele>542.287</ele>
        <time>2022-07-03T16:29:45Z</time>
      </trkpt>
      <trkpt lat="42.727408" lon="-2.716314">
        <ele>542.142</ele>
        <time>2022-07-03T16:29:46Z</time>
      </trkpt>
      <trkpt lat="42.727430" lon="-2.716412">
        <ele>541.926</ele>
        <time>2022-07-03T16:29:47Z</time>
      </trkpt>
      <trkpt lat="42.727461" lon="-2.716502">
        <ele>541.709</ele>
        <time>2022-07-03T16:29:48Z</time>
      </trkpt>
      <trkpt lat="42.727488" lon="-2.716590">
        <ele>541.539</ele>
        <time>2022-07-03T16:29:49Z</time>
      </trkpt>
      <trkpt lat="42.727512" lon="-2.716684">
        <ele>541.448</ele>
        <time>2022-07-03T16:29:50Z</time>
      </trkpt>
      <trkpt lat="42.727544" lon="-2.716772">
        <ele>541.215</ele>
        <time>2022-07-03T16:29:51Z</time>
      </trkpt>
      <trkpt lat="42.727571" lon="-2.716855">
        <ele>541.198</ele>
        <time>2022-07-03T16:29:52Z</time>
      </trkpt>
      <trkpt lat="42.727594" lon="-2.716938">
        <ele>541.139</ele>
        <time>2022-07-03T16:29:53Z</time>
      </trkpt>
      <trkpt lat="42.727623" lon="-2.717027">
        <ele>541.165</ele>
        <time>2022-07-03T16:29:54Z</time>
      </trkpt>
      <trkpt lat="42.727655" lon="-2.717101">
        <ele>541.188</ele>
        <time>2022-07-03T16:29:55Z</time>
      </trkpt>
      <trkpt lat="42.727687" lon="-2.717180">
        <ele>541.197</ele>
        <time>2022-07-03T16:29:56Z</time>
      </trkpt>
      <trkpt lat="42.727718" lon="-2.717247">
        <ele>541.127</ele>
        <time>2022-07-03T16:29:57Z</time>
      </trkpt>
      <trkpt lat="42.727751" lon="-2.717335">
        <ele>541.138</ele>
        <time>2022-07-03T16:29:58Z</time>
      </trkpt>
      <trkpt lat="42.727774" lon="-2.717414">
        <ele>541.070</ele>
        <time>2022-07-03T16:29:59Z</time>
      </trkpt>
      <trkpt lat="42.727802" lon="-2.717506">
        <ele>541.017</ele>
        <time>2022-07-03T16:30:00Z</time>
      </trkpt>
      <trkpt lat="42.727844" lon="-2.717584">
        <ele>540.709</ele>
        <time>2022-07-03T16:30:01Z</time>
      </trkpt>
      <trkpt lat="42.727888" lon="-2.717661">
        <ele>540.544</ele>
        <time>2022-07-03T16:30:02Z</time>
      </trkpt>
      <trkpt lat="42.727932" lon="-2.717728">
        <ele>540.333</ele>
        <time>2022-07-03T16:30:03Z</time>
      </trkpt>
      <trkpt lat="42.727980" lon="-2.717797">
        <ele>540.210</ele>
        <time>2022-07-03T16:30:04Z</time>
      </trkpt>
      <trkpt lat="42.728035" lon="-2.717869">
        <ele>540.193</ele>
        <time>2022-07-03T16:30:05Z</time>
      </trkpt>
      <trkpt lat="42.728076" lon="-2.717939">
        <ele>540.154</ele>
        <time>2022-07-03T16:30:06Z</time>
      </trkpt>
      <trkpt lat="42.728119" lon="-2.718008">
        <ele>540.110</ele>
        <time>2022-07-03T16:30:07Z</time>
      </trkpt>
      <trkpt lat="42.728165" lon="-2.718065">
        <ele>540.123</ele>
        <time>2022-07-03T16:30:08Z</time>
      </trkpt>
      <trkpt lat="42.728205" lon="-2.718132">
        <ele>540.142</ele>
        <time>2022-07-03T16:30:09Z</time>
      </trkpt>
      <trkpt lat="42.728244" lon="-2.718202">
        <ele>540.232</ele>
        <time>2022-07-03T16:30:10Z</time>
      </trkpt>
      <trkpt lat="42.728283" lon="-2.718266">
        <ele>540.364</ele>
        <time>2022-07-03T16:30:11Z</time>
      </trkpt>
      <trkpt lat="42.728329" lon="-2.718339">
        <ele>540.406</ele>
        <time>2022-07-03T16:30:12Z</time>
      </trkpt>
      <trkpt lat="42.728368" lon="-2.718403">
        <ele>540.416</ele>
        <time>2022-07-03T16:30:13Z</time>
      </trkpt>
      <trkpt lat="42.728409" lon="-2.718470">
        <ele>540.409</ele>
        <time>2022-07-03T16:30:14Z</time>
      </trkpt>
      <trkpt lat="42.728486" lon="-2.718592">
        <ele>540.327</ele>
        <time>2022-07-03T16:30:15Z</time>
      </trkpt>
      <trkpt lat="42.728527" lon="-2.718661">
        <ele>540.296</ele>
        <time>2022-07-03T16:30:16Z</time>
      </trkpt>
      <trkpt lat="42.728566" lon="-2.718734">
        <ele>540.263</ele>
        <time>2022-07-03T16:30:17Z</time>
      </trkpt>
      <trkpt lat="42.728604" lon="-2.718794">
        <ele>540.196</ele>
        <time>2022-07-03T16:30:18Z</time>
      </trkpt>
      <trkpt lat="42.728648" lon="-2.718861">
        <ele>540.067</ele>
        <time>2022-07-03T16:30:19Z</time>
      </trkpt>
      <trkpt lat="42.728691" lon="-2.718928">
        <ele>540.083</ele>
        <time>2022-07-03T16:30:20Z</time>
      </trkpt>
      <trkpt lat="42.728747" lon="-2.719023">
        <ele>540.036</ele>
        <time>2022-07-03T16:30:21Z</time>
      </trkpt>
      <trkpt lat="42.728789" lon="-2.719096">
        <ele>539.915</ele>
        <time>2022-07-03T16:30:22Z</time>
      </trkpt>
      <trkpt lat="42.728832" lon="-2.719177">
        <ele>539.815</ele>
        <time>2022-07-03T16:30:23Z</time>
      </trkpt>
      <trkpt lat="42.728885" lon="-2.719306">
        <ele>539.883</ele>
        <time>2022-07-03T16:30:24Z</time>
      </trkpt>
      <trkpt lat="42.728929" lon="-2.719381">
        <ele>539.725</ele>
        <time>2022-07-03T16:30:25Z</time>
      </trkpt>
      <trkpt lat="42.728963" lon="-2.719454">
        <ele>539.517</ele>
        <time>2022-07-03T16:30:26Z</time>
      </trkpt>
      <trkpt lat="42.729004" lon="-2.719510">
        <ele>539.409</ele>
        <time>2022-07-03T16:30:27Z</time>
      </trkpt>
      <trkpt lat="42.729038" lon="-2.719580">
        <ele>539.439</ele>
        <time>2022-07-03T16:30:28Z</time>
      </trkpt>
      <trkpt lat="42.729089" lon="-2.719702">
        <ele>539.438</ele>
        <time>2022-07-03T16:30:29Z</time>
      </trkpt>
      <trkpt lat="42.729123" lon="-2.719770">
        <ele>539.465</ele>
        <time>2022-07-03T16:30:30Z</time>
      </trkpt>
      <trkpt lat="42.729160" lon="-2.719833">
        <ele>539.498</ele>
        <time>2022-07-03T16:30:31Z</time>
      </trkpt>
      <trkpt lat="42.729195" lon="-2.719918">
        <ele>539.499</ele>
        <time>2022-07-03T16:30:32Z</time>
      </trkpt>
      <trkpt lat="42.729232" lon="-2.719991">
        <ele>539.465</ele>
        <time>2022-07-03T16:30:33Z</time>
      </trkpt>
      <trkpt lat="42.729270" lon="-2.720077">
        <ele>539.568</ele>
        <time>2022-07-03T16:30:34Z</time>
      </trkpt>
      <trkpt lat="42.729301" lon="-2.720150">
        <ele>539.897</ele>
        <time>2022-07-03T16:30:35Z</time>
      </trkpt>
      <trkpt lat="42.729331" lon="-2.720213">
        <ele>540.037</ele>
        <time>2022-07-03T16:30:36Z</time>
      </trkpt>
      <trkpt lat="42.729358" lon="-2.720268">
        <ele>540.629</ele>
        <time>2022-07-03T16:30:37Z</time>
      </trkpt>
      <trkpt lat="42.729391" lon="-2.720339">
        <ele>541.000</ele>
        <time>2022-07-03T16:30:38Z</time>
      </trkpt>
      <trkpt lat="42.729421" lon="-2.720412">
        <ele>541.020</ele>
        <time>2022-07-03T16:30:39Z</time>
      </trkpt>
      <trkpt lat="42.729450" lon="-2.720486">
        <ele>541.009</ele>
        <time>2022-07-03T16:30:40Z</time>
      </trkpt>
      <trkpt lat="42.729483" lon="-2.720551">
        <ele>540.493</ele>
        <time>2022-07-03T16:30:41Z</time>
      </trkpt>
      <trkpt lat="42.729504" lon="-2.720605">
        <ele>539.852</ele>
        <time>2022-07-03T16:30:42Z</time>
      </trkpt>
      <trkpt lat="42.729528" lon="-2.720688">
        <ele>539.029</ele>
        <time>2022-07-03T16:30:43Z</time>
      </trkpt>
      <trkpt lat="42.729557" lon="-2.720762">
        <ele>538.582</ele>
        <time>2022-07-03T16:30:44Z</time>
      </trkpt>
      <trkpt lat="42.729591" lon="-2.720837">
        <ele>538.343</ele>
        <time>2022-07-03T16:30:45Z</time>
      </trkpt>
      <trkpt lat="42.729615" lon="-2.720891">
        <ele>538.359</ele>
        <time>2022-07-03T16:30:46Z</time>
      </trkpt>
      <trkpt lat="42.729636" lon="-2.720951">
        <ele>538.332</ele>
        <time>2022-07-03T16:30:47Z</time>
      </trkpt>
      <trkpt lat="42.729661" lon="-2.721008">
        <ele>538.451</ele>
        <time>2022-07-03T16:30:48Z</time>
      </trkpt>
      <trkpt lat="42.729685" lon="-2.721071">
        <ele>538.471</ele>
        <time>2022-07-03T16:30:49Z</time>
      </trkpt>
      <trkpt lat="42.729714" lon="-2.721131">
        <ele>538.552</ele>
        <time>2022-07-03T16:30:50Z</time>
      </trkpt>
      <trkpt lat="42.729735" lon="-2.721194">
        <ele>538.553</ele>
        <time>2022-07-03T16:30:51Z</time>
      </trkpt>
      <trkpt lat="42.729767" lon="-2.721267">
        <ele>538.508</ele>
        <time>2022-07-03T16:30:52Z</time>
      </trkpt>
      <trkpt lat="42.729793" lon="-2.721341">
        <ele>538.409</ele>
        <time>2022-07-03T16:30:53Z</time>
      </trkpt>
      <trkpt lat="42.729821" lon="-2.721416">
        <ele>538.326</ele>
        <time>2022-07-03T16:30:54Z</time>
      </trkpt>
      <trkpt lat="42.729853" lon="-2.721477">
        <ele>538.235</ele>
        <time>2022-07-03T16:30:55Z</time>
      </trkpt>
      <trkpt lat="42.729874" lon="-2.721543">
        <ele>538.112</ele>
        <time>2022-07-03T16:30:56Z</time>
      </trkpt>
      <trkpt lat="42.729909" lon="-2.721625">
        <ele>538.135</ele>
        <time>2022-07-03T16:30:57Z</time>
      </trkpt>
      <trkpt lat="42.729937" lon="-2.721689">
        <ele>538.026</ele>
        <time>2022-07-03T16:30:58Z</time>
      </trkpt>
      <trkpt lat="42.729963" lon="-2.721749">
        <ele>537.922</ele>
        <time>2022-07-03T16:30:59Z</time>
      </trkpt>
      <trkpt lat="42.729987" lon="-2.721811">
        <ele>537.945</ele>
        <time>2022-07-03T16:31:00Z</time>
      </trkpt>
      <trkpt lat="42.730022" lon="-2.721877">
        <ele>537.884</ele>
        <time>2022-07-03T16:31:01Z</time>
      </trkpt>
      <trkpt lat="42.730044" lon="-2.721954">
        <ele>537.774</ele>
        <time>2022-07-03T16:31:02Z</time>
      </trkpt>
      <trkpt lat="42.730070" lon="-2.722024">
        <ele>537.666</ele>
        <time>2022-07-03T16:31:03Z</time>
      </trkpt>
      <trkpt lat="42.730104" lon="-2.722091">
        <ele>537.529</ele>
        <time>2022-07-03T16:31:04Z</time>
      </trkpt>
      <trkpt lat="42.730131" lon="-2.722162">
        <ele>537.421</ele>
        <time>2022-07-03T16:31:05Z</time>
      </trkpt>
      <trkpt lat="42.730157" lon="-2.722224">
        <ele>537.409</ele>
        <time>2022-07-03T16:31:06Z</time>
      </trkpt>
      <trkpt lat="42.730183" lon="-2.722301">
        <ele>537.417</ele>
        <time>2022-07-03T16:31:07Z</time>
      </trkpt>
      <trkpt lat="42.730219" lon="-2.722362">
        <ele>537.416</ele>
        <time>2022-07-03T16:31:08Z</time>
      </trkpt>
      <trkpt lat="42.730249" lon="-2.722425">
        <ele>537.443</ele>
        <time>2022-07-03T16:31:09Z</time>
      </trkpt>
      <trkpt lat="42.730269" lon="-2.722505">
        <ele>537.496</ele>
        <time>2022-07-03T16:31:10Z</time>
      </trkpt>
      <trkpt lat="42.730295" lon="-2.722572">
        <ele>537.447</ele>
        <time>2022-07-03T16:31:11Z</time>
      </trkpt>
      <trkpt lat="42.730323" lon="-2.722651">
        <ele>537.483</ele>
        <time>2022-07-03T16:31:12Z</time>
      </trkpt>
      <trkpt lat="42.730350" lon="-2.722726">
        <ele>537.466</ele>
        <time>2022-07-03T16:31:13Z</time>
      </trkpt>
      <trkpt lat="42.730376" lon="-2.722788">
        <ele>537.345</ele>
        <time>2022-07-03T16:31:14Z</time>
      </trkpt>
      <trkpt lat="42.730410" lon="-2.722857">
        <ele>537.365</ele>
        <time>2022-07-03T16:31:15Z</time>
      </trkpt>
      <trkpt lat="42.730441" lon="-2.722913">
        <ele>537.341</ele>
        <time>2022-07-03T16:31:16Z</time>
      </trkpt>
      <trkpt lat="42.730498" lon="-2.723041">
        <ele>537.381</ele>
        <time>2022-07-03T16:31:18Z</time>
      </trkpt>
      <trkpt lat="42.730528" lon="-2.723114">
        <ele>537.409</ele>
        <time>2022-07-03T16:31:19Z</time>
      </trkpt>
      <trkpt lat="42.730556" lon="-2.723182">
        <ele>537.409</ele>
        <time>2022-07-03T16:31:20Z</time>
      </trkpt>
      <trkpt lat="42.730590" lon="-2.723254">
        <ele>537.485</ele>
        <time>2022-07-03T16:31:21Z</time>
      </trkpt>
      <trkpt lat="42.730620" lon="-2.723314">
        <ele>537.354</ele>
        <time>2022-07-03T16:31:22Z</time>
      </trkpt>
      <trkpt lat="42.730655" lon="-2.723366">
        <ele>537.151</ele>
        <time>2022-07-03T16:31:23Z</time>
      </trkpt>
      <trkpt lat="42.730689" lon="-2.723418">
        <ele>537.064</ele>
        <time>2022-07-03T16:31:24Z</time>
      </trkpt>
      <trkpt lat="42.730721" lon="-2.723478">
        <ele>536.925</ele>
        <time>2022-07-03T16:31:25Z</time>
      </trkpt>
      <trkpt lat="42.730752" lon="-2.723531">
        <ele>536.941</ele>
        <time>2022-07-03T16:31:26Z</time>
      </trkpt>
      <trkpt lat="42.730803" lon="-2.723597">
        <ele>536.864</ele>
        <time>2022-07-03T16:31:27Z</time>
      </trkpt>
      <trkpt lat="42.730871" lon="-2.723658">
        <ele>536.553</ele>
        <time>2022-07-03T16:31:28Z</time>
      </trkpt>
      <trkpt lat="42.730902" lon="-2.723713">
        <ele>536.343</ele>
        <time>2022-07-03T16:31:29Z</time>
      </trkpt>
      <trkpt lat="42.730944" lon="-2.723762">
        <ele>536.174</ele>
        <time>2022-07-03T16:31:30Z</time>
      </trkpt>
      <trkpt lat="42.730986" lon="-2.723798">
        <ele>535.956</ele>
        <time>2022-07-03T16:31:31Z</time>
      </trkpt>
      <trkpt lat="42.731023" lon="-2.723833">
        <ele>535.821</ele>
        <time>2022-07-03T16:31:32Z</time>
      </trkpt>
      <trkpt lat="42.731071" lon="-2.723885">
        <ele>535.809</ele>
        <time>2022-07-03T16:31:33Z</time>
      </trkpt>
      <trkpt lat="42.731109" lon="-2.723940">
        <ele>535.888</ele>
        <time>2022-07-03T16:31:34Z</time>
      </trkpt>
      <trkpt lat="42.731170" lon="-2.724054">
        <ele>535.867</ele>
        <time>2022-07-03T16:31:35Z</time>
      </trkpt>
      <trkpt lat="42.731209" lon="-2.724120">
        <ele>535.844</ele>
        <time>2022-07-03T16:31:36Z</time>
      </trkpt>
      <trkpt lat="42.731242" lon="-2.724168">
        <ele>535.837</ele>
        <time>2022-07-03T16:31:37Z</time>
      </trkpt>
      <trkpt lat="42.731289" lon="-2.724218">
        <ele>535.788</ele>
        <time>2022-07-03T16:31:38Z</time>
      </trkpt>
      <trkpt lat="42.731333" lon="-2.724275">
        <ele>535.764</ele>
        <time>2022-07-03T16:31:39Z</time>
      </trkpt>
      <trkpt lat="42.731380" lon="-2.724314">
        <ele>535.797</ele>
        <time>2022-07-03T16:31:40Z</time>
      </trkpt>
      <trkpt lat="42.731431" lon="-2.724380">
        <ele>535.886</ele>
        <time>2022-07-03T16:31:41Z</time>
      </trkpt>
      <trkpt lat="42.731479" lon="-2.724431">
        <ele>535.956</ele>
        <time>2022-07-03T16:31:42Z</time>
      </trkpt>
      <trkpt lat="42.731530" lon="-2.724468">
        <ele>536.036</ele>
        <time>2022-07-03T16:31:43Z</time>
      </trkpt>
      <trkpt lat="42.731580" lon="-2.724496">
        <ele>536.017</ele>
        <time>2022-07-03T16:31:44Z</time>
      </trkpt>
      <trkpt lat="42.731631" lon="-2.724542">
        <ele>536.018</ele>
        <time>2022-07-03T16:31:45Z</time>
      </trkpt>
      <trkpt lat="42.731681" lon="-2.724561">
        <ele>536.009</ele>
        <time>2022-07-03T16:31:46Z</time>
      </trkpt>
      <trkpt lat="42.731730" lon="-2.724581">
        <ele>536.034</ele>
        <time>2022-07-03T16:31:47Z</time>
      </trkpt>
      <trkpt lat="42.731779" lon="-2.724611">
        <ele>536.043</ele>
        <time>2022-07-03T16:31:48Z</time>
      </trkpt>
      <trkpt lat="42.731836" lon="-2.724636">
        <ele>536.020</ele>
        <time>2022-07-03T16:31:49Z</time>
      </trkpt>
      <trkpt lat="42.731884" lon="-2.724672">
        <ele>536.093</ele>
        <time>2022-07-03T16:31:50Z</time>
      </trkpt>
      <trkpt lat="42.731936" lon="-2.724680">
        <ele>536.034</ele>
        <time>2022-07-03T16:31:51Z</time>
      </trkpt>
      <trkpt lat="42.731981" lon="-2.724691">
        <ele>536.190</ele>
        <time>2022-07-03T16:31:52Z</time>
      </trkpt>
      <trkpt lat="42.732031" lon="-2.724720">
        <ele>536.213</ele>
        <time>2022-07-03T16:31:53Z</time>
      </trkpt>
      <trkpt lat="42.732082" lon="-2.724733">
        <ele>536.222</ele>
        <time>2022-07-03T16:31:54Z</time>
      </trkpt>
      <trkpt lat="42.732135" lon="-2.724757">
        <ele>536.242</ele>
        <time>2022-07-03T16:31:55Z</time>
      </trkpt>
      <trkpt lat="42.732188" lon="-2.724771">
        <ele>536.229</ele>
        <time>2022-07-03T16:31:56Z</time>
      </trkpt>
      <trkpt lat="42.732275" lon="-2.724804">
        <ele>536.000</ele>
        <time>2022-07-03T16:31:58Z</time>
      </trkpt>
      <trkpt lat="42.732325" lon="-2.724823">
        <ele>535.820</ele>
        <time>2022-07-03T16:31:59Z</time>
      </trkpt>
      <trkpt lat="42.732386" lon="-2.724864">
        <ele>535.809</ele>
        <time>2022-07-03T16:32:00Z</time>
      </trkpt>
      <trkpt lat="42.732429" lon="-2.724895">
        <ele>535.853</ele>
        <time>2022-07-03T16:32:01Z</time>
      </trkpt>
      <trkpt lat="42.732481" lon="-2.724926">
        <ele>535.832</ele>
        <time>2022-07-03T16:32:02Z</time>
      </trkpt>
      <trkpt lat="42.732534" lon="-2.724980">
        <ele>535.839</ele>
        <time>2022-07-03T16:32:04Z</time>
      </trkpt>
      <trkpt lat="42.732566" lon="-2.725039">
        <ele>535.882</ele>
        <time>2022-07-03T16:32:05Z</time>
      </trkpt>
      <trkpt lat="42.732597" lon="-2.725099">
        <ele>535.813</ele>
        <time>2022-07-03T16:32:06Z</time>
      </trkpt>
      <trkpt lat="42.732630" lon="-2.725169">
        <ele>535.459</ele>
        <time>2022-07-03T16:32:07Z</time>
      </trkpt>
      <trkpt lat="42.732651" lon="-2.725248">
        <ele>535.122</ele>
        <time>2022-07-03T16:32:08Z</time>
      </trkpt>
      <trkpt lat="42.732677" lon="-2.725320">
        <ele>534.931</ele>
        <time>2022-07-03T16:32:09Z</time>
      </trkpt>
      <trkpt lat="42.732696" lon="-2.725392">
        <ele>534.741</ele>
        <time>2022-07-03T16:32:10Z</time>
      </trkpt>
      <trkpt lat="42.732713" lon="-2.725469">
        <ele>534.667</ele>
        <time>2022-07-03T16:32:11Z</time>
      </trkpt>
      <trkpt lat="42.732733" lon="-2.725552">
        <ele>534.581</ele>
        <time>2022-07-03T16:32:12Z</time>
      </trkpt>
      <trkpt lat="42.732749" lon="-2.725626">
        <ele>534.519</ele>
        <time>2022-07-03T16:32:13Z</time>
      </trkpt>
      <trkpt lat="42.732770" lon="-2.725694">
        <ele>534.509</ele>
        <time>2022-07-03T16:32:14Z</time>
      </trkpt>
      <trkpt lat="42.732793" lon="-2.725773">
        <ele>534.577</ele>
        <time>2022-07-03T16:32:15Z</time>
      </trkpt>
      <trkpt lat="42.732810" lon="-2.725862">
        <ele>534.586</ele>
        <time>2022-07-03T16:32:16Z</time>
      </trkpt>
      <trkpt lat="42.732825" lon="-2.725940">
        <ele>534.433</ele>
        <time>2022-07-03T16:32:17Z</time>
      </trkpt>
      <trkpt lat="42.732842" lon="-2.726022">
        <ele>534.336</ele>
        <time>2022-07-03T16:32:18Z</time>
      </trkpt>
      <trkpt lat="42.732863" lon="-2.726095">
        <ele>534.267</ele>
        <time>2022-07-03T16:32:19Z</time>
      </trkpt>
      <trkpt lat="42.732870" lon="-2.726171">
        <ele>534.163</ele>
        <time>2022-07-03T16:32:20Z</time>
      </trkpt>
      <trkpt lat="42.732884" lon="-2.726247">
        <ele>534.126</ele>
        <time>2022-07-03T16:32:21Z</time>
      </trkpt>
      <trkpt lat="42.732902" lon="-2.726324">
        <ele>534.185</ele>
        <time>2022-07-03T16:32:22Z</time>
      </trkpt>
      <trkpt lat="42.732921" lon="-2.726426">
        <ele>534.155</ele>
        <time>2022-07-03T16:32:23Z</time>
      </trkpt>
      <trkpt lat="42.732939" lon="-2.726491">
        <ele>534.069</ele>
        <time>2022-07-03T16:32:24Z</time>
      </trkpt>
      <trkpt lat="42.732961" lon="-2.726574">
        <ele>534.004</ele>
        <time>2022-07-03T16:32:25Z</time>
      </trkpt>
      <trkpt lat="42.732972" lon="-2.726640">
        <ele>533.924</ele>
        <time>2022-07-03T16:32:26Z</time>
      </trkpt>
      <trkpt lat="42.732990" lon="-2.726704">
        <ele>533.809</ele>
        <time>2022-07-03T16:32:27Z</time>
      </trkpt>
      <trkpt lat="42.733013" lon="-2.726778">
        <ele>533.827</ele>
        <time>2022-07-03T16:32:28Z</time>
      </trkpt>
      <trkpt lat="42.733027" lon="-2.726870">
        <ele>533.826</ele>
        <time>2022-07-03T16:32:29Z</time>
      </trkpt>
      <trkpt lat="42.733046" lon="-2.726929">
        <ele>533.853</ele>
        <time>2022-07-03T16:32:30Z</time>
      </trkpt>
      <trkpt lat="42.733075" lon="-2.727010">
        <ele>533.896</ele>
        <time>2022-07-03T16:32:31Z</time>
      </trkpt>
      <trkpt lat="42.733110" lon="-2.727084">
        <ele>533.787</ele>
        <time>2022-07-03T16:32:32Z</time>
      </trkpt>
      <trkpt lat="42.733149" lon="-2.727146">
        <ele>533.733</ele>
        <time>2022-07-03T16:32:33Z</time>
      </trkpt>
      <trkpt lat="42.733168" lon="-2.727293">
        <ele>533.636</ele>
        <time>2022-07-03T16:32:34Z</time>
      </trkpt>
      <trkpt lat="42.733219" lon="-2.727355">
        <ele>533.655</ele>
        <time>2022-07-03T16:32:35Z</time>
      </trkpt>
      <trkpt lat="42.733263" lon="-2.727439">
        <ele>533.635</ele>
        <time>2022-07-03T16:32:36Z</time>
      </trkpt>
      <trkpt lat="42.733305" lon="-2.727485">
        <ele>533.757</ele>
        <time>2022-07-03T16:32:37Z</time>
      </trkpt>
      <trkpt lat="42.733349" lon="-2.727529">
        <ele>533.800</ele>
        <time>2022-07-03T16:32:38Z</time>
      </trkpt>
      <trkpt lat="42.733393" lon="-2.727577">
        <ele>534.020</ele>
        <time>2022-07-03T16:32:39Z</time>
      </trkpt>
      <trkpt lat="42.733436" lon="-2.727617">
        <ele>534.309</ele>
        <time>2022-07-03T16:32:40Z</time>
      </trkpt>
      <trkpt lat="42.733489" lon="-2.727675">
        <ele>534.466</ele>
        <time>2022-07-03T16:32:41Z</time>
      </trkpt>
      <trkpt lat="42.733528" lon="-2.727719">
        <ele>534.565</ele>
        <time>2022-07-03T16:32:42Z</time>
      </trkpt>
      <trkpt lat="42.733579" lon="-2.727763">
        <ele>534.622</ele>
        <time>2022-07-03T16:32:43Z</time>
      </trkpt>
      <trkpt lat="42.733623" lon="-2.727820">
        <ele>534.755</ele>
        <time>2022-07-03T16:32:44Z</time>
      </trkpt>
      <trkpt lat="42.733670" lon="-2.727863">
        <ele>534.766</ele>
        <time>2022-07-03T16:32:45Z</time>
      </trkpt>
      <trkpt lat="42.733712" lon="-2.727903">
        <ele>534.732</ele>
        <time>2022-07-03T16:32:46Z</time>
      </trkpt>
      <trkpt lat="42.733747" lon="-2.727954">
        <ele>534.745</ele>
        <time>2022-07-03T16:32:47Z</time>
      </trkpt>
      <trkpt lat="42.733781" lon="-2.728009">
        <ele>534.854</ele>
        <time>2022-07-03T16:32:48Z</time>
      </trkpt>
      <trkpt lat="42.733849" lon="-2.728112">
        <ele>534.884</ele>
        <time>2022-07-03T16:32:50Z</time>
      </trkpt>
      <trkpt lat="42.733870" lon="-2.728168">
        <ele>534.894</ele>
        <time>2022-07-03T16:32:51Z</time>
      </trkpt>
      <trkpt lat="42.733896" lon="-2.728233">
        <ele>535.357</ele>
        <time>2022-07-03T16:32:52Z</time>
      </trkpt>
      <trkpt lat="42.733926" lon="-2.728299">
        <ele>535.522</ele>
        <time>2022-07-03T16:32:53Z</time>
      </trkpt>
      <trkpt lat="42.733955" lon="-2.728371">
        <ele>535.509</ele>
        <time>2022-07-03T16:32:54Z</time>
      </trkpt>
      <trkpt lat="42.733976" lon="-2.728445">
        <ele>535.650</ele>
        <time>2022-07-03T16:32:55Z</time>
      </trkpt>
      <trkpt lat="42.734006" lon="-2.728512">
        <ele>535.759</ele>
        <time>2022-07-03T16:32:56Z</time>
      </trkpt>
      <trkpt lat="42.734025" lon="-2.728573">
        <ele>535.766</ele>
        <time>2022-07-03T16:32:57Z</time>
      </trkpt>
      <trkpt lat="42.734047" lon="-2.728630">
        <ele>535.779</ele>
        <time>2022-07-03T16:32:58Z</time>
      </trkpt>
      <trkpt lat="42.734065" lon="-2.728695">
        <ele>535.610</ele>
        <time>2022-07-03T16:32:59Z</time>
      </trkpt>
      <trkpt lat="42.734096" lon="-2.728812">
        <ele>535.576</ele>
        <time>2022-07-03T16:33:01Z</time>
      </trkpt>
      <trkpt lat="42.734117" lon="-2.728874">
        <ele>535.599</ele>
        <time>2022-07-03T16:33:02Z</time>
      </trkpt>
      <trkpt lat="42.734132" lon="-2.728944">
        <ele>535.538</ele>
        <time>2022-07-03T16:33:03Z</time>
      </trkpt>
      <trkpt lat="42.734156" lon="-2.729007">
        <ele>535.538</ele>
        <time>2022-07-03T16:33:04Z</time>
      </trkpt>
      <trkpt lat="42.734172" lon="-2.729082">
        <ele>535.573</ele>
        <time>2022-07-03T16:33:05Z</time>
      </trkpt>
      <trkpt lat="42.734187" lon="-2.729149">
        <ele>535.585</ele>
        <time>2022-07-03T16:33:06Z</time>
      </trkpt>
      <trkpt lat="42.734197" lon="-2.729214">
        <ele>535.613</ele>
        <time>2022-07-03T16:33:07Z</time>
      </trkpt>
      <trkpt lat="42.734209" lon="-2.729284">
        <ele>535.709</ele>
        <time>2022-07-03T16:33:08Z</time>
      </trkpt>
      <trkpt lat="42.734216" lon="-2.729356">
        <ele>535.968</ele>
        <time>2022-07-03T16:33:09Z</time>
      </trkpt>
      <trkpt lat="42.734220" lon="-2.729470">
        <ele>536.217</ele>
        <time>2022-07-03T16:33:11Z</time>
      </trkpt>
      <trkpt lat="42.734224" lon="-2.729534">
        <ele>536.454</ele>
        <time>2022-07-03T16:33:12Z</time>
      </trkpt>
      <trkpt lat="42.734234" lon="-2.729594">
        <ele>536.427</ele>
        <time>2022-07-03T16:33:13Z</time>
      </trkpt>
      <trkpt lat="42.734251" lon="-2.729679">
        <ele>536.458</ele>
        <time>2022-07-03T16:33:14Z</time>
      </trkpt>
      <trkpt lat="42.734254" lon="-2.729750">
        <ele>536.494</ele>
        <time>2022-07-03T16:33:15Z</time>
      </trkpt>
      <trkpt lat="42.734252" lon="-2.729816">
        <ele>536.397</ele>
        <time>2022-07-03T16:33:16Z</time>
      </trkpt>
      <trkpt lat="42.734260" lon="-2.729892">
        <ele>536.136</ele>
        <time>2022-07-03T16:33:17Z</time>
      </trkpt>
      <trkpt lat="42.734262" lon="-2.729960">
        <ele>536.056</ele>
        <time>2022-07-03T16:33:18Z</time>
      </trkpt>
      <trkpt lat="42.734259" lon="-2.730101">
        <ele>536.096</ele>
        <time>2022-07-03T16:33:20Z</time>
      </trkpt>
      <trkpt lat="42.734260" lon="-2.730169">
        <ele>536.031</ele>
        <time>2022-07-03T16:33:21Z</time>
      </trkpt>
      <trkpt lat="42.734262" lon="-2.730243">
        <ele>536.024</ele>
        <time>2022-07-03T16:33:22Z</time>
      </trkpt>
      <trkpt lat="42.734263" lon="-2.730315">
        <ele>536.009</ele>
        <time>2022-07-03T16:33:23Z</time>
      </trkpt>
      <trkpt lat="42.734265" lon="-2.730388">
        <ele>536.030</ele>
        <time>2022-07-03T16:33:24Z</time>
      </trkpt>
      <trkpt lat="42.734268" lon="-2.730461">
        <ele>536.079</ele>
        <time>2022-07-03T16:33:25Z</time>
      </trkpt>
      <trkpt lat="42.734280" lon="-2.730574">
        <ele>536.086</ele>
        <time>2022-07-03T16:33:27Z</time>
      </trkpt>
      <trkpt lat="42.734300" lon="-2.730657">
        <ele>536.059</ele>
        <time>2022-07-03T16:33:28Z</time>
      </trkpt>
      <trkpt lat="42.734297" lon="-2.730730">
        <ele>536.140</ele>
        <time>2022-07-03T16:33:29Z</time>
      </trkpt>
      <trkpt lat="42.734302" lon="-2.730801">
        <ele>536.126</ele>
        <time>2022-07-03T16:33:30Z</time>
      </trkpt>
      <trkpt lat="42.734303" lon="-2.730884">
        <ele>536.199</ele>
        <time>2022-07-03T16:33:31Z</time>
      </trkpt>
      <trkpt lat="42.734299" lon="-2.730968">
        <ele>536.148</ele>
        <time>2022-07-03T16:33:32Z</time>
      </trkpt>
      <trkpt lat="42.734309" lon="-2.731055">
        <ele>536.158</ele>
        <time>2022-07-03T16:33:33Z</time>
      </trkpt>
      <trkpt lat="42.734319" lon="-2.731137">
        <ele>536.188</ele>
        <time>2022-07-03T16:33:34Z</time>
      </trkpt>
      <trkpt lat="42.734314" lon="-2.731206">
        <ele>536.124</ele>
        <time>2022-07-03T16:33:35Z</time>
      </trkpt>
      <trkpt lat="42.734323" lon="-2.731291">
        <ele>536.126</ele>
        <time>2022-07-03T16:33:36Z</time>
      </trkpt>
      <trkpt lat="42.734331" lon="-2.731376">
        <ele>536.209</ele>
        <time>2022-07-03T16:33:37Z</time>
      </trkpt>
      <trkpt lat="42.734335" lon="-2.731457">
        <ele>536.349</ele>
        <time>2022-07-03T16:33:38Z</time>
      </trkpt>
      <trkpt lat="42.734338" lon="-2.731541">
        <ele>536.358</ele>
        <time>2022-07-03T16:33:39Z</time>
      </trkpt>
      <trkpt lat="42.734336" lon="-2.731626">
        <ele>536.395</ele>
        <time>2022-07-03T16:33:40Z</time>
      </trkpt>
      <trkpt lat="42.734342" lon="-2.731705">
        <ele>536.388</ele>
        <time>2022-07-03T16:33:41Z</time>
      </trkpt>
      <trkpt lat="42.734346" lon="-2.731787">
        <ele>536.369</ele>
        <time>2022-07-03T16:33:42Z</time>
      </trkpt>
      <trkpt lat="42.734349" lon="-2.731862">
        <ele>536.355</ele>
        <time>2022-07-03T16:33:43Z</time>
      </trkpt>
      <trkpt lat="42.734351" lon="-2.731929">
        <ele>536.348</ele>
        <time>2022-07-03T16:33:44Z</time>
      </trkpt>
      <trkpt lat="42.734359" lon="-2.732013">
        <ele>536.337</ele>
        <time>2022-07-03T16:33:45Z</time>
      </trkpt>
      <trkpt lat="42.734352" lon="-2.732083">
        <ele>536.387</ele>
        <time>2022-07-03T16:33:46Z</time>
      </trkpt>
      <trkpt lat="42.734344" lon="-2.732153">
        <ele>536.332</ele>
        <time>2022-07-03T16:33:47Z</time>
      </trkpt>
      <trkpt lat="42.734352" lon="-2.732232">
        <ele>536.492</ele>
        <time>2022-07-03T16:33:48Z</time>
      </trkpt>
      <trkpt lat="42.734354" lon="-2.732316">
        <ele>536.411</ele>
        <time>2022-07-03T16:33:49Z</time>
      </trkpt>
      <trkpt lat="42.734361" lon="-2.732399">
        <ele>536.409</ele>
        <time>2022-07-03T16:33:50Z</time>
      </trkpt>
      <trkpt lat="42.734364" lon="-2.732475">
        <ele>536.474</ele>
        <time>2022-07-03T16:33:51Z</time>
      </trkpt>
      <trkpt lat="42.734368" lon="-2.732549">
        <ele>536.573</ele>
        <time>2022-07-03T16:33:52Z</time>
      </trkpt>
      <trkpt lat="42.734369" lon="-2.732683">
        <ele>536.870</ele>
        <time>2022-07-03T16:33:54Z</time>
      </trkpt>
      <trkpt lat="42.734364" lon="-2.732749">
        <ele>536.853</ele>
        <time>2022-07-03T16:33:55Z</time>
      </trkpt>
      <trkpt lat="42.734369" lon="-2.732830">
        <ele>537.134</ele>
        <time>2022-07-03T16:33:56Z</time>
      </trkpt>
      <trkpt lat="42.734373" lon="-2.732903">
        <ele>537.290</ele>
        <time>2022-07-03T16:33:57Z</time>
      </trkpt>
      <trkpt lat="42.734380" lon="-2.732977">
        <ele>537.383</ele>
        <time>2022-07-03T16:33:58Z</time>
      </trkpt>
      <trkpt lat="42.734386" lon="-2.733053">
        <ele>537.352</ele>
        <time>2022-07-03T16:33:59Z</time>
      </trkpt>
      <trkpt lat="42.734394" lon="-2.733135">
        <ele>537.442</ele>
        <time>2022-07-03T16:34:00Z</time>
      </trkpt>
      <trkpt lat="42.734400" lon="-2.733212">
        <ele>537.566</ele>
        <time>2022-07-03T16:34:01Z</time>
      </trkpt>
      <trkpt lat="42.734397" lon="-2.733295">
        <ele>537.629</ele>
        <time>2022-07-03T16:34:02Z</time>
      </trkpt>
      <trkpt lat="42.734402" lon="-2.733372">
        <ele>537.821</ele>
        <time>2022-07-03T16:34:03Z</time>
      </trkpt>
      <trkpt lat="42.734399" lon="-2.733440">
        <ele>538.109</ele>
        <time>2022-07-03T16:34:04Z</time>
      </trkpt>
      <trkpt lat="42.734401" lon="-2.733518">
        <ele>538.427</ele>
        <time>2022-07-03T16:34:05Z</time>
      </trkpt>
      <trkpt lat="42.734412" lon="-2.733590">
        <ele>538.686</ele>
        <time>2022-07-03T16:34:06Z</time>
      </trkpt>
      <trkpt lat="42.734412" lon="-2.733694">
        <ele>538.643</ele>
        <time>2022-07-03T16:34:07Z</time>
      </trkpt>
      <trkpt lat="42.734409" lon="-2.733790">
        <ele>538.676</ele>
        <time>2022-07-03T16:34:08Z</time>
      </trkpt>
      <trkpt lat="42.734413" lon="-2.733886">
        <ele>538.627</ele>
        <time>2022-07-03T16:34:09Z</time>
      </trkpt>
      <trkpt lat="42.734435" lon="-2.733996">
        <ele>538.623</ele>
        <time>2022-07-03T16:34:11Z</time>
      </trkpt>
      <trkpt lat="42.734452" lon="-2.734060">
        <ele>538.786</ele>
        <time>2022-07-03T16:34:12Z</time>
      </trkpt>
      <trkpt lat="42.734462" lon="-2.734136">
        <ele>538.815</ele>
        <time>2022-07-03T16:34:13Z</time>
      </trkpt>
      <trkpt lat="42.734463" lon="-2.734217">
        <ele>538.995</ele>
        <time>2022-07-03T16:34:14Z</time>
      </trkpt>
      <trkpt lat="42.734471" lon="-2.734296">
        <ele>539.021</ele>
        <time>2022-07-03T16:34:15Z</time>
      </trkpt>
      <trkpt lat="42.734458" lon="-2.734387">
        <ele>539.141</ele>
        <time>2022-07-03T16:34:16Z</time>
      </trkpt>
      <trkpt lat="42.734457" lon="-2.734480">
        <ele>539.105</ele>
        <time>2022-07-03T16:34:17Z</time>
      </trkpt>
      <trkpt lat="42.734471" lon="-2.734548">
        <ele>539.109</ele>
        <time>2022-07-03T16:34:18Z</time>
      </trkpt>
      <trkpt lat="42.734476" lon="-2.734640">
        <ele>539.153</ele>
        <time>2022-07-03T16:34:19Z</time>
      </trkpt>
      <trkpt lat="42.734487" lon="-2.734743">
        <ele>539.072</ele>
        <time>2022-07-03T16:34:20Z</time>
      </trkpt>
      <trkpt lat="42.734494" lon="-2.734849">
        <ele>539.099</ele>
        <time>2022-07-03T16:34:21Z</time>
      </trkpt>
      <trkpt lat="42.734488" lon="-2.734938">
        <ele>539.042</ele>
        <time>2022-07-03T16:34:22Z</time>
      </trkpt>
      <trkpt lat="42.734500" lon="-2.735020">
        <ele>539.093</ele>
        <time>2022-07-03T16:34:23Z</time>
      </trkpt>
      <trkpt lat="42.734499" lon="-2.735099">
        <ele>539.099</ele>
        <time>2022-07-03T16:34:24Z</time>
      </trkpt>
      <trkpt lat="42.734502" lon="-2.735177">
        <ele>539.082</ele>
        <time>2022-07-03T16:34:25Z</time>
      </trkpt>
      <trkpt lat="42.734490" lon="-2.735266">
        <ele>539.091</ele>
        <time>2022-07-03T16:34:26Z</time>
      </trkpt>
      <trkpt lat="42.734496" lon="-2.735345">
        <ele>539.181</ele>
        <time>2022-07-03T16:34:27Z</time>
      </trkpt>
      <trkpt lat="42.734501" lon="-2.735432">
        <ele>539.241</ele>
        <time>2022-07-03T16:34:28Z</time>
      </trkpt>
      <trkpt lat="42.734503" lon="-2.735504">
        <ele>539.381</ele>
        <time>2022-07-03T16:34:29Z</time>
      </trkpt>
      <trkpt lat="42.734510" lon="-2.735612">
        <ele>539.509</ele>
        <time>2022-07-03T16:34:30Z</time>
      </trkpt>
      <trkpt lat="42.734517" lon="-2.735721">
        <ele>539.809</ele>
        <time>2022-07-03T16:34:31Z</time>
      </trkpt>
      <trkpt lat="42.734516" lon="-2.735821">
        <ele>539.945</ele>
        <time>2022-07-03T16:34:32Z</time>
      </trkpt>
      <trkpt lat="42.734507" lon="-2.735910">
        <ele>540.234</ele>
        <time>2022-07-03T16:34:33Z</time>
      </trkpt>
      <trkpt lat="42.734512" lon="-2.735995">
        <ele>540.281</ele>
        <time>2022-07-03T16:34:34Z</time>
      </trkpt>
      <trkpt lat="42.734520" lon="-2.736078">
        <ele>540.184</ele>
        <time>2022-07-03T16:34:35Z</time>
      </trkpt>
      <trkpt lat="42.734532" lon="-2.736174">
        <ele>540.135</ele>
        <time>2022-07-03T16:34:36Z</time>
      </trkpt>
      <trkpt lat="42.734531" lon="-2.736257">
        <ele>539.941</ele>
        <time>2022-07-03T16:34:37Z</time>
      </trkpt>
      <trkpt lat="42.734529" lon="-2.736352">
        <ele>539.584</ele>
        <time>2022-07-03T16:34:38Z</time>
      </trkpt>
      <trkpt lat="42.734530" lon="-2.736440">
        <ele>539.563</ele>
        <time>2022-07-03T16:34:39Z</time>
      </trkpt>
      <trkpt lat="42.734534" lon="-2.736531">
        <ele>539.543</ele>
        <time>2022-07-03T16:34:40Z</time>
      </trkpt>
      <trkpt lat="42.734532" lon="-2.736619">
        <ele>539.569</ele>
        <time>2022-07-03T16:34:41Z</time>
      </trkpt>
      <trkpt lat="42.734539" lon="-2.736730">
        <ele>539.604</ele>
        <time>2022-07-03T16:34:42Z</time>
      </trkpt>
      <trkpt lat="42.734542" lon="-2.736815">
        <ele>539.524</ele>
        <time>2022-07-03T16:34:43Z</time>
      </trkpt>
      <trkpt lat="42.734545" lon="-2.736913">
        <ele>539.109</ele>
        <time>2022-07-03T16:34:44Z</time>
      </trkpt>
      <trkpt lat="42.734547" lon="-2.737011">
        <ele>538.717</ele>
        <time>2022-07-03T16:34:45Z</time>
      </trkpt>
      <trkpt lat="42.734549" lon="-2.737107">
        <ele>538.266</ele>
        <time>2022-07-03T16:34:46Z</time>
      </trkpt>
      <trkpt lat="42.734546" lon="-2.737192">
        <ele>537.743</ele>
        <time>2022-07-03T16:34:47Z</time>
      </trkpt>
      <trkpt lat="42.734546" lon="-2.737299">
        <ele>537.336</ele>
        <time>2022-07-03T16:34:48Z</time>
      </trkpt>
      <trkpt lat="42.734554" lon="-2.737418">
        <ele>537.037</ele>
        <time>2022-07-03T16:34:49Z</time>
      </trkpt>
      <trkpt lat="42.734555" lon="-2.737521">
        <ele>536.793</ele>
        <time>2022-07-03T16:34:50Z</time>
      </trkpt>
      <trkpt lat="42.734546" lon="-2.737614">
        <ele>536.486</ele>
        <time>2022-07-03T16:34:51Z</time>
      </trkpt>
      <trkpt lat="42.734552" lon="-2.737716">
        <ele>536.295</ele>
        <time>2022-07-03T16:34:52Z</time>
      </trkpt>
      <trkpt lat="42.734551" lon="-2.737816">
        <ele>536.175</ele>
        <time>2022-07-03T16:34:53Z</time>
      </trkpt>
      <trkpt lat="42.734554" lon="-2.737930">
        <ele>535.923</ele>
        <time>2022-07-03T16:34:54Z</time>
      </trkpt>
      <trkpt lat="42.734560" lon="-2.738041">
        <ele>535.683</ele>
        <time>2022-07-03T16:34:55Z</time>
      </trkpt>
      <trkpt lat="42.734559" lon="-2.738147">
        <ele>535.411</ele>
        <time>2022-07-03T16:34:56Z</time>
      </trkpt>
      <trkpt lat="42.734563" lon="-2.738255">
        <ele>535.309</ele>
        <time>2022-07-03T16:34:57Z</time>
      </trkpt>
      <trkpt lat="42.734546" lon="-2.738364">
        <ele>535.193</ele>
        <time>2022-07-03T16:34:58Z</time>
      </trkpt>
      <trkpt lat="42.734545" lon="-2.738477">
        <ele>534.832</ele>
        <time>2022-07-03T16:34:59Z</time>
      </trkpt>
      <trkpt lat="42.734534" lon="-2.738587">
        <ele>534.659</ele>
        <time>2022-07-03T16:35:00Z</time>
      </trkpt>
      <trkpt lat="42.734541" lon="-2.738711">
        <ele>534.472</ele>
        <time>2022-07-03T16:35:01Z</time>
      </trkpt>
      <trkpt lat="42.734541" lon="-2.738835">
        <ele>534.263</ele>
        <time>2022-07-03T16:35:02Z</time>
      </trkpt>
      <trkpt lat="42.734534" lon="-2.738948">
        <ele>534.059</ele>
        <time>2022-07-03T16:35:03Z</time>
      </trkpt>
      <trkpt lat="42.734512" lon="-2.739056">
        <ele>533.892</ele>
        <time>2022-07-03T16:35:04Z</time>
      </trkpt>
      <trkpt lat="42.734503" lon="-2.739173">
        <ele>533.571</ele>
        <time>2022-07-03T16:35:05Z</time>
      </trkpt>
      <trkpt lat="42.734491" lon="-2.739305">
        <ele>533.361</ele>
        <time>2022-07-03T16:35:06Z</time>
      </trkpt>
      <trkpt lat="42.734482" lon="-2.739410">
        <ele>533.251</ele>
        <time>2022-07-03T16:35:07Z</time>
      </trkpt>
      <trkpt lat="42.734478" lon="-2.739529">
        <ele>533.001</ele>
        <time>2022-07-03T16:35:08Z</time>
      </trkpt>
      <trkpt lat="42.734457" lon="-2.739636">
        <ele>532.811</ele>
        <time>2022-07-03T16:35:09Z</time>
      </trkpt>
      <trkpt lat="42.734439" lon="-2.739743">
        <ele>532.609</ele>
        <time>2022-07-03T16:35:10Z</time>
      </trkpt>
      <trkpt lat="42.734425" lon="-2.739862">
        <ele>532.496</ele>
        <time>2022-07-03T16:35:11Z</time>
      </trkpt>
      <trkpt lat="42.734412" lon="-2.739981">
        <ele>532.295</ele>
        <time>2022-07-03T16:35:12Z</time>
      </trkpt>
      <trkpt lat="42.734389" lon="-2.740109">
        <ele>532.082</ele>
        <time>2022-07-03T16:35:13Z</time>
      </trkpt>
      <trkpt lat="42.734373" lon="-2.740231">
        <ele>531.925</ele>
        <time>2022-07-03T16:35:14Z</time>
      </trkpt>
      <trkpt lat="42.734355" lon="-2.740334">
        <ele>531.976</ele>
        <time>2022-07-03T16:35:15Z</time>
      </trkpt>
      <trkpt lat="42.734339" lon="-2.740446">
        <ele>531.972</ele>
        <time>2022-07-03T16:35:16Z</time>
      </trkpt>
      <trkpt lat="42.734320" lon="-2.740537">
        <ele>531.915</ele>
        <time>2022-07-03T16:35:17Z</time>
      </trkpt>
      <trkpt lat="42.734314" lon="-2.740647">
        <ele>531.944</ele>
        <time>2022-07-03T16:35:18Z</time>
      </trkpt>
      <trkpt lat="42.734304" lon="-2.740735">
        <ele>532.074</ele>
        <time>2022-07-03T16:35:19Z</time>
      </trkpt>
      <trkpt lat="42.734295" lon="-2.740832">
        <ele>532.127</ele>
        <time>2022-07-03T16:35:20Z</time>
      </trkpt>
      <trkpt lat="42.734277" lon="-2.740916">
        <ele>532.168</ele>
        <time>2022-07-03T16:35:21Z</time>
      </trkpt>
      <trkpt lat="42.734268" lon="-2.741006">
        <ele>532.114</ele>
        <time>2022-07-03T16:35:22Z</time>
      </trkpt>
      <trkpt lat="42.734257" lon="-2.741113">
        <ele>532.109</ele>
        <time>2022-07-03T16:35:23Z</time>
      </trkpt>
      <trkpt lat="42.734243" lon="-2.741210">
        <ele>532.133</ele>
        <time>2022-07-03T16:35:24Z</time>
      </trkpt>
      <trkpt lat="42.734247" lon="-2.741296">
        <ele>532.152</ele>
        <time>2022-07-03T16:35:25Z</time>
      </trkpt>
      <trkpt lat="42.734237" lon="-2.741380">
        <ele>532.089</ele>
        <time>2022-07-03T16:35:26Z</time>
      </trkpt>
      <trkpt lat="42.734226" lon="-2.741478">
        <ele>531.842</ele>
        <time>2022-07-03T16:35:27Z</time>
      </trkpt>
      <trkpt lat="42.734198" lon="-2.741580">
        <ele>531.633</ele>
        <time>2022-07-03T16:35:28Z</time>
      </trkpt>
      <trkpt lat="42.734193" lon="-2.741676">
        <ele>531.579</ele>
        <time>2022-07-03T16:35:29Z</time>
      </trkpt>
      <trkpt lat="42.734188" lon="-2.741772">
        <ele>531.522</ele>
        <time>2022-07-03T16:35:30Z</time>
      </trkpt>
      <trkpt lat="42.734184" lon="-2.741855">
        <ele>531.691</ele>
        <time>2022-07-03T16:35:31Z</time>
      </trkpt>
      <trkpt lat="42.734180" lon="-2.741934">
        <ele>531.751</ele>
        <time>2022-07-03T16:35:32Z</time>
      </trkpt>
      <trkpt lat="42.734176" lon="-2.742007">
        <ele>531.912</ele>
        <time>2022-07-03T16:35:33Z</time>
      </trkpt>
      <trkpt lat="42.734177" lon="-2.742096">
        <ele>532.132</ele>
        <time>2022-07-03T16:35:34Z</time>
      </trkpt>
      <trkpt lat="42.734180" lon="-2.742182">
        <ele>532.205</ele>
        <time>2022-07-03T16:35:35Z</time>
      </trkpt>
      <trkpt lat="42.734186" lon="-2.742267">
        <ele>532.409</ele>
        <time>2022-07-03T16:35:36Z</time>
      </trkpt>
      <trkpt lat="42.734158" lon="-2.742337">
        <ele>532.662</ele>
        <time>2022-07-03T16:35:37Z</time>
      </trkpt>
      <trkpt lat="42.734149" lon="-2.742418">
        <ele>532.681</ele>
        <time>2022-07-03T16:35:38Z</time>
      </trkpt>
      <trkpt lat="42.734138" lon="-2.742499">
        <ele>532.838</ele>
        <time>2022-07-03T16:35:39Z</time>
      </trkpt>
      <trkpt lat="42.734126" lon="-2.742564">
        <ele>532.911</ele>
        <time>2022-07-03T16:35:40Z</time>
      </trkpt>
      <trkpt lat="42.734113" lon="-2.742634">
        <ele>533.062</ele>
        <time>2022-07-03T16:35:41Z</time>
      </trkpt>
      <trkpt lat="42.734111" lon="-2.742710">
        <ele>533.138</ele>
        <time>2022-07-03T16:35:42Z</time>
      </trkpt>
      <trkpt lat="42.734101" lon="-2.742791">
        <ele>533.391</ele>
        <time>2022-07-03T16:35:43Z</time>
      </trkpt>
      <trkpt lat="42.734093" lon="-2.742873">
        <ele>533.420</ele>
        <time>2022-07-03T16:35:44Z</time>
      </trkpt>
      <trkpt lat="42.734087" lon="-2.742962">
        <ele>533.550</ele>
        <time>2022-07-03T16:35:45Z</time>
      </trkpt>
      <trkpt lat="42.734069" lon="-2.743044">
        <ele>533.586</ele>
        <time>2022-07-03T16:35:46Z</time>
      </trkpt>
      <trkpt lat="42.734057" lon="-2.743137">
        <ele>533.560</ele>
        <time>2022-07-03T16:35:47Z</time>
      </trkpt>
      <trkpt lat="42.734045" lon="-2.743235">
        <ele>533.426</ele>
        <time>2022-07-03T16:35:48Z</time>
      </trkpt>
      <trkpt lat="42.734035" lon="-2.743333">
        <ele>533.209</ele>
        <time>2022-07-03T16:35:49Z</time>
      </trkpt>
      <trkpt lat="42.734021" lon="-2.743442">
        <ele>533.029</ele>
        <time>2022-07-03T16:35:50Z</time>
      </trkpt>
      <trkpt lat="42.734009" lon="-2.743553">
        <ele>532.828</ele>
        <time>2022-07-03T16:35:51Z</time>
      </trkpt>
      <trkpt lat="42.733995" lon="-2.743654">
        <ele>532.615</ele>
        <time>2022-07-03T16:35:52Z</time>
      </trkpt>
      <trkpt lat="42.733977" lon="-2.743767">
        <ele>532.458</ele>
        <time>2022-07-03T16:35:53Z</time>
      </trkpt>
      <trkpt lat="42.733958" lon="-2.743881">
        <ele>532.279</ele>
        <time>2022-07-03T16:35:54Z</time>
      </trkpt>
      <trkpt lat="42.733945" lon="-2.743989">
        <ele>532.075</ele>
        <time>2022-07-03T16:35:55Z</time>
      </trkpt>
      <trkpt lat="42.733937" lon="-2.744105">
        <ele>531.718</ele>
        <time>2022-07-03T16:35:56Z</time>
      </trkpt>
      <trkpt lat="42.733925" lon="-2.744227">
        <ele>531.377</ele>
        <time>2022-07-03T16:35:57Z</time>
      </trkpt>
      <trkpt lat="42.733914" lon="-2.744350">
        <ele>530.827</ele>
        <time>2022-07-03T16:35:58Z</time>
      </trkpt>
      <trkpt lat="42.733904" lon="-2.744473">
        <ele>530.138</ele>
        <time>2022-07-03T16:35:59Z</time>
      </trkpt>
      <trkpt lat="42.733891" lon="-2.744588">
        <ele>529.970</ele>
        <time>2022-07-03T16:36:00Z</time>
      </trkpt>
      <trkpt lat="42.733885" lon="-2.744707">
        <ele>529.517</ele>
        <time>2022-07-03T16:36:01Z</time>
      </trkpt>
      <trkpt lat="42.733881" lon="-2.744819">
        <ele>529.209</ele>
        <time>2022-07-03T16:36:02Z</time>
      </trkpt>
      <trkpt lat="42.733886" lon="-2.744932">
        <ele>528.984</ele>
        <time>2022-07-03T16:36:03Z</time>
      </trkpt>
      <trkpt lat="42.733903" lon="-2.745038">
        <ele>528.623</ele>
        <time>2022-07-03T16:36:04Z</time>
      </trkpt>
      <trkpt lat="42.733925" lon="-2.745133">
        <ele>528.330</ele>
        <time>2022-07-03T16:36:05Z</time>
      </trkpt>
      <trkpt lat="42.733955" lon="-2.745224">
        <ele>528.143</ele>
        <time>2022-07-03T16:36:06Z</time>
      </trkpt>
      <trkpt lat="42.733981" lon="-2.745309">
        <ele>528.194</ele>
        <time>2022-07-03T16:36:07Z</time>
      </trkpt>
      <trkpt lat="42.734006" lon="-2.745387">
        <ele>528.150</ele>
        <time>2022-07-03T16:36:08Z</time>
      </trkpt>
      <trkpt lat="42.734029" lon="-2.745457">
        <ele>528.223</ele>
        <time>2022-07-03T16:36:09Z</time>
      </trkpt>
      <trkpt lat="42.734048" lon="-2.745528">
        <ele>528.562</ele>
        <time>2022-07-03T16:36:10Z</time>
      </trkpt>
      <trkpt lat="42.734061" lon="-2.745610">
        <ele>528.512</ele>
        <time>2022-07-03T16:36:11Z</time>
      </trkpt>
      <trkpt lat="42.734075" lon="-2.745682">
        <ele>528.841</ele>
        <time>2022-07-03T16:36:12Z</time>
      </trkpt>
      <trkpt lat="42.734080" lon="-2.745753">
        <ele>529.181</ele>
        <time>2022-07-03T16:36:13Z</time>
      </trkpt>
      <trkpt lat="42.734087" lon="-2.745826">
        <ele>529.309</ele>
        <time>2022-07-03T16:36:14Z</time>
      </trkpt>
      <trkpt lat="42.734084" lon="-2.745897">
        <ele>529.509</ele>
        <time>2022-07-03T16:36:15Z</time>
      </trkpt>
      <trkpt lat="42.734085" lon="-2.745967">
        <ele>529.655</ele>
        <time>2022-07-03T16:36:16Z</time>
      </trkpt>
      <trkpt lat="42.734091" lon="-2.746039">
        <ele>529.714</ele>
        <time>2022-07-03T16:36:17Z</time>
      </trkpt>
      <trkpt lat="42.734096" lon="-2.746109">
        <ele>529.891</ele>
        <time>2022-07-03T16:36:18Z</time>
      </trkpt>
      <trkpt lat="42.734090" lon="-2.746177">
        <ele>529.934</ele>
        <time>2022-07-03T16:36:19Z</time>
      </trkpt>
      <trkpt lat="42.734090" lon="-2.746252">
        <ele>529.955</ele>
        <time>2022-07-03T16:36:20Z</time>
      </trkpt>
      <trkpt lat="42.734083" lon="-2.746320">
        <ele>529.941</ele>
        <time>2022-07-03T16:36:21Z</time>
      </trkpt>
      <trkpt lat="42.734083" lon="-2.746396">
        <ele>529.984</ele>
        <time>2022-07-03T16:36:22Z</time>
      </trkpt>
      <trkpt lat="42.734084" lon="-2.746497">
        <ele>530.063</ele>
        <time>2022-07-03T16:36:23Z</time>
      </trkpt>
      <trkpt lat="42.734080" lon="-2.746578">
        <ele>530.273</ele>
        <time>2022-07-03T16:36:24Z</time>
      </trkpt>
      <trkpt lat="42.734081" lon="-2.746658">
        <ele>530.487</ele>
        <time>2022-07-03T16:36:25Z</time>
      </trkpt>
      <trkpt lat="42.734086" lon="-2.746739">
        <ele>530.642</ele>
        <time>2022-07-03T16:36:26Z</time>
      </trkpt>
      <trkpt lat="42.734086" lon="-2.746815">
        <ele>530.826</ele>
        <time>2022-07-03T16:36:27Z</time>
      </trkpt>
      <trkpt lat="42.734083" lon="-2.746882">
        <ele>531.009</ele>
        <time>2022-07-03T16:36:28Z</time>
      </trkpt>
      <trkpt lat="42.734080" lon="-2.746961">
        <ele>531.229</ele>
        <time>2022-07-03T16:36:29Z</time>
      </trkpt>
      <trkpt lat="42.734085" lon="-2.747029">
        <ele>531.368</ele>
        <time>2022-07-03T16:36:30Z</time>
      </trkpt>
      <trkpt lat="42.734090" lon="-2.747094">
        <ele>531.495</ele>
        <time>2022-07-03T16:36:31Z</time>
      </trkpt>
      <trkpt lat="42.734096" lon="-2.747244">
        <ele>531.798</ele>
        <time>2022-07-03T16:36:33Z</time>
      </trkpt>
      <trkpt lat="42.734102" lon="-2.747313">
        <ele>531.959</ele>
        <time>2022-07-03T16:36:34Z</time>
      </trkpt>
      <trkpt lat="42.734108" lon="-2.747429">
        <ele>532.225</ele>
        <time>2022-07-03T16:36:36Z</time>
      </trkpt>
      <trkpt lat="42.734112" lon="-2.747495">
        <ele>532.368</ele>
        <time>2022-07-03T16:36:37Z</time>
      </trkpt>
      <trkpt lat="42.734121" lon="-2.747562">
        <ele>532.427</ele>
        <time>2022-07-03T16:36:38Z</time>
      </trkpt>
      <trkpt lat="42.734131" lon="-2.747684">
        <ele>532.547</ele>
        <time>2022-07-03T16:36:40Z</time>
      </trkpt>
      <trkpt lat="42.734136" lon="-2.747751">
        <ele>532.541</ele>
        <time>2022-07-03T16:36:41Z</time>
      </trkpt>
      <trkpt lat="42.734142" lon="-2.747817">
        <ele>532.981</ele>
        <time>2022-07-03T16:36:42Z</time>
      </trkpt>
      <trkpt lat="42.734147" lon="-2.747894">
        <ele>533.109</ele>
        <time>2022-07-03T16:36:43Z</time>
      </trkpt>
      <trkpt lat="42.734144" lon="-2.747967">
        <ele>533.209</ele>
        <time>2022-07-03T16:36:44Z</time>
      </trkpt>
      <trkpt lat="42.734142" lon="-2.748040">
        <ele>533.225</ele>
        <time>2022-07-03T16:36:45Z</time>
      </trkpt>
      <trkpt lat="42.734141" lon="-2.748120">
        <ele>533.314</ele>
        <time>2022-07-03T16:36:46Z</time>
      </trkpt>
      <trkpt lat="42.734111" lon="-2.748216">
        <ele>533.361</ele>
        <time>2022-07-03T16:36:48Z</time>
      </trkpt>
      <trkpt lat="42.734104" lon="-2.748288">
        <ele>533.394</ele>
        <time>2022-07-03T16:36:49Z</time>
      </trkpt>
      <trkpt lat="42.734098" lon="-2.748367">
        <ele>533.375</ele>
        <time>2022-07-03T16:36:50Z</time>
      </trkpt>
      <trkpt lat="42.734100" lon="-2.748455">
        <ele>533.291</ele>
        <time>2022-07-03T16:36:51Z</time>
      </trkpt>
      <trkpt lat="42.734098" lon="-2.748532">
        <ele>533.084</ele>
        <time>2022-07-03T16:36:52Z</time>
      </trkpt>
      <trkpt lat="42.734105" lon="-2.748602">
        <ele>532.743</ele>
        <time>2022-07-03T16:36:53Z</time>
      </trkpt>
      <trkpt lat="42.734088" lon="-2.748685">
        <ele>532.363</ele>
        <time>2022-07-03T16:36:54Z</time>
      </trkpt>
      <trkpt lat="42.734087" lon="-2.748750">
        <ele>532.198</ele>
        <time>2022-07-03T16:36:55Z</time>
      </trkpt>
      <trkpt lat="42.734094" lon="-2.748870">
        <ele>532.115</ele>
        <time>2022-07-03T16:36:57Z</time>
      </trkpt>
      <trkpt lat="42.734082" lon="-2.748936">
        <ele>532.126</ele>
        <time>2022-07-03T16:36:58Z</time>
      </trkpt>
      <trkpt lat="42.734058" lon="-2.749005">
        <ele>532.409</ele>
        <time>2022-07-03T16:36:59Z</time>
      </trkpt>
      <trkpt lat="42.734022" lon="-2.749062">
        <ele>532.490</ele>
        <time>2022-07-03T16:37:00Z</time>
      </trkpt>
      <trkpt lat="42.733982" lon="-2.749153">
        <ele>532.459</ele>
        <time>2022-07-03T16:37:01Z</time>
      </trkpt>
      <trkpt lat="42.733947" lon="-2.749259">
        <ele>532.416</ele>
        <time>2022-07-03T16:37:02Z</time>
      </trkpt>
      <trkpt lat="42.733904" lon="-2.749327">
        <ele>532.199</ele>
        <time>2022-07-03T16:37:03Z</time>
      </trkpt>
      <trkpt lat="42.733856" lon="-2.749410">
        <ele>531.720</ele>
        <time>2022-07-03T16:37:04Z</time>
      </trkpt>
      <trkpt lat="42.733816" lon="-2.749491">
        <ele>531.376</ele>
        <time>2022-07-03T16:37:05Z</time>
      </trkpt>
      <trkpt lat="42.733759" lon="-2.749571">
        <ele>530.849</ele>
        <time>2022-07-03T16:37:06Z</time>
      </trkpt>
      <trkpt lat="42.733702" lon="-2.749655">
        <ele>530.128</ele>
        <time>2022-07-03T16:37:07Z</time>
      </trkpt>
      <trkpt lat="42.733638" lon="-2.749741">
        <ele>529.488</ele>
        <time>2022-07-03T16:37:08Z</time>
      </trkpt>
      <trkpt lat="42.733579" lon="-2.749845">
        <ele>528.379</ele>
        <time>2022-07-03T16:37:09Z</time>
      </trkpt>
      <trkpt lat="42.733512" lon="-2.749938">
        <ele>527.605</ele>
        <time>2022-07-03T16:37:10Z</time>
      </trkpt>
      <trkpt lat="42.733443" lon="-2.750029">
        <ele>527.025</ele>
        <time>2022-07-03T16:37:11Z</time>
      </trkpt>
      <trkpt lat="42.733379" lon="-2.750136">
        <ele>526.509</ele>
        <time>2022-07-03T16:37:12Z</time>
      </trkpt>
      <trkpt lat="42.733308" lon="-2.750225">
        <ele>526.188</ele>
        <time>2022-07-03T16:37:13Z</time>
      </trkpt>
      <trkpt lat="42.733252" lon="-2.750336">
        <ele>525.887</ele>
        <time>2022-07-03T16:37:14Z</time>
      </trkpt>
      <trkpt lat="42.733189" lon="-2.750428">
        <ele>525.334</ele>
        <time>2022-07-03T16:37:15Z</time>
      </trkpt>
      <trkpt lat="42.733131" lon="-2.750514">
        <ele>525.017</ele>
        <time>2022-07-03T16:37:16Z</time>
      </trkpt>
      <trkpt lat="42.733072" lon="-2.750600">
        <ele>524.818</ele>
        <time>2022-07-03T16:37:17Z</time>
      </trkpt>
      <trkpt lat="42.733013" lon="-2.750687">
        <ele>524.674</ele>
        <time>2022-07-03T16:37:18Z</time>
      </trkpt>
      <trkpt lat="42.732952" lon="-2.750777">
        <ele>524.487</ele>
        <time>2022-07-03T16:37:19Z</time>
      </trkpt>
      <trkpt lat="42.732869" lon="-2.750837">
        <ele>524.166</ele>
        <time>2022-07-03T16:37:20Z</time>
      </trkpt>
      <trkpt lat="42.732817" lon="-2.750930">
        <ele>523.966</ele>
        <time>2022-07-03T16:37:21Z</time>
      </trkpt>
      <trkpt lat="42.732757" lon="-2.751018">
        <ele>523.891</ele>
        <time>2022-07-03T16:37:22Z</time>
      </trkpt>
      <trkpt lat="42.732704" lon="-2.751096">
        <ele>523.581</ele>
        <time>2022-07-03T16:37:23Z</time>
      </trkpt>
      <trkpt lat="42.732659" lon="-2.751177">
        <ele>523.319</ele>
        <time>2022-07-03T16:37:24Z</time>
      </trkpt>
      <trkpt lat="42.732613" lon="-2.751247">
        <ele>523.109</ele>
        <time>2022-07-03T16:37:25Z</time>
      </trkpt>
      <trkpt lat="42.732568" lon="-2.751318">
        <ele>522.990</ele>
        <time>2022-07-03T16:37:26Z</time>
      </trkpt>
      <trkpt lat="42.732521" lon="-2.751400">
        <ele>522.719</ele>
        <time>2022-07-03T16:37:27Z</time>
      </trkpt>
      <trkpt lat="42.732472" lon="-2.751468">
        <ele>522.596</ele>
        <time>2022-07-03T16:37:28Z</time>
      </trkpt>
      <trkpt lat="42.732412" lon="-2.751536">
        <ele>522.569</ele>
        <time>2022-07-03T16:37:29Z</time>
      </trkpt>
      <trkpt lat="42.732365" lon="-2.751618">
        <ele>522.570</ele>
        <time>2022-07-03T16:37:30Z</time>
      </trkpt>
      <trkpt lat="42.732326" lon="-2.751691">
        <ele>522.536</ele>
        <time>2022-07-03T16:37:31Z</time>
      </trkpt>
      <trkpt lat="42.732281" lon="-2.751743">
        <ele>522.519</ele>
        <time>2022-07-03T16:37:32Z</time>
      </trkpt>
      <trkpt lat="42.732247" lon="-2.751790">
        <ele>522.578</ele>
        <time>2022-07-03T16:37:33Z</time>
      </trkpt>
      <trkpt lat="42.732219" lon="-2.751862">
        <ele>522.518</ele>
        <time>2022-07-03T16:37:34Z</time>
      </trkpt>
      <trkpt lat="42.732179" lon="-2.751920">
        <ele>522.528</ele>
        <time>2022-07-03T16:37:35Z</time>
      </trkpt>
      <trkpt lat="42.732141" lon="-2.751980">
        <ele>522.589</ele>
        <time>2022-07-03T16:37:36Z</time>
      </trkpt>
      <trkpt lat="42.732110" lon="-2.752030">
        <ele>522.517</ele>
        <time>2022-07-03T16:37:37Z</time>
      </trkpt>
      <trkpt lat="42.732077" lon="-2.752083">
        <ele>522.609</ele>
        <time>2022-07-03T16:37:38Z</time>
      </trkpt>
      <trkpt lat="42.732042" lon="-2.752140">
        <ele>522.863</ele>
        <time>2022-07-03T16:37:39Z</time>
      </trkpt>
      <trkpt lat="42.732008" lon="-2.752195">
        <ele>522.992</ele>
        <time>2022-07-03T16:37:40Z</time>
      </trkpt>
      <trkpt lat="42.731975" lon="-2.752247">
        <ele>523.069</ele>
        <time>2022-07-03T16:37:41Z</time>
      </trkpt>
      <trkpt lat="42.731945" lon="-2.752297">
        <ele>523.212</ele>
        <time>2022-07-03T16:37:42Z</time>
      </trkpt>
      <trkpt lat="42.731914" lon="-2.752348">
        <ele>523.423</ele>
        <time>2022-07-03T16:37:43Z</time>
      </trkpt>
      <trkpt lat="42.731870" lon="-2.752420">
        <ele>523.579</ele>
        <time>2022-07-03T16:37:45Z</time>
      </trkpt>
      <trkpt lat="42.731768" lon="-2.752384">
        <ele>523.982</ele>
        <time>2022-07-03T16:37:46Z</time>
      </trkpt>
      <trkpt lat="42.731722" lon="-2.752491">
        <ele>524.181</ele>
        <time>2022-07-03T16:37:48Z</time>
      </trkpt>
      <trkpt lat="42.731658" lon="-2.752578">
        <ele>524.161</ele>
        <time>2022-07-03T16:37:50Z</time>
      </trkpt>
      <trkpt lat="42.731618" lon="-2.752614">
        <ele>524.187</ele>
        <time>2022-07-03T16:37:51Z</time>
      </trkpt>
      <trkpt lat="42.731590" lon="-2.752670">
        <ele>524.142</ele>
        <time>2022-07-03T16:37:52Z</time>
      </trkpt>
      <trkpt lat="42.731569" lon="-2.752740">
        <ele>524.126</ele>
        <time>2022-07-03T16:37:53Z</time>
      </trkpt>
      <trkpt lat="42.731550" lon="-2.752811">
        <ele>524.009</ele>
        <time>2022-07-03T16:37:54Z</time>
      </trkpt>
      <trkpt lat="42.731528" lon="-2.752882">
        <ele>524.069</ele>
        <time>2022-07-03T16:37:55Z</time>
      </trkpt>
      <trkpt lat="42.731518" lon="-2.752951">
        <ele>523.838</ele>
        <time>2022-07-03T16:37:56Z</time>
      </trkpt>
      <trkpt lat="42.731507" lon="-2.753017">
        <ele>523.525</ele>
        <time>2022-07-03T16:37:57Z</time>
      </trkpt>
      <trkpt lat="42.731488" lon="-2.753128">
        <ele>523.078</ele>
        <time>2022-07-03T16:37:59Z</time>
      </trkpt>
      <trkpt lat="42.731485" lon="-2.753218">
        <ele>522.569</ele>
        <time>2022-07-03T16:38:01Z</time>
      </trkpt>
      <trkpt lat="42.731477" lon="-2.753297">
        <ele>521.875</ele>
        <time>2022-07-03T16:38:03Z</time>
      </trkpt>
      <trkpt lat="42.731460" lon="-2.753362">
        <ele>521.278</ele>
        <time>2022-07-03T16:38:05Z</time>
      </trkpt>
      <trkpt lat="42.731419" lon="-2.753337">
        <ele>520.797</ele>
        <time>2022-07-03T16:38:58Z</time>
      </trkpt>
      <trkpt lat="42.731542" lon="-2.753377">
        <ele>528.182</ele>
        <time>2022-07-08T17:37:07Z</time>
      </trkpt>
      <trkpt lat="42.731499" lon="-2.753350">
        <ele>527.943</ele>
        <time>2022-07-08T17:37:16Z</time>
      </trkpt>
      <trkpt lat="42.731481" lon="-2.753294">
        <ele>527.717</ele>
        <time>2022-07-08T17:38:05Z</time>
      </trkpt>
      <trkpt lat="42.731526" lon="-2.753284">
        <ele>527.609</ele>
        <time>2022-07-08T17:39:26Z</time>
      </trkpt>
      <trkpt lat="42.731553" lon="-2.753234">
        <ele>527.559</ele>
        <time>2022-07-08T17:39:32Z</time>
      </trkpt>
      <trkpt lat="42.731504" lon="-2.753274">
        <ele>527.598</ele>
        <time>2022-07-08T17:39:51Z</time>
      </trkpt>
      <trkpt lat="42.731478" lon="-2.753210">
        <ele>527.595</ele>
        <time>2022-07-08T17:39:57Z</time>
      </trkpt>
      <trkpt lat="42.731500" lon="-2.753139">
        <ele>527.551</ele>
        <time>2022-07-08T17:40:00Z</time>
      </trkpt>
      <trkpt lat="42.731527" lon="-2.753056">
        <ele>527.657</ele>
        <time>2022-07-08T17:40:03Z</time>
      </trkpt>
      <trkpt lat="42.731532" lon="-2.752987">
        <ele>527.823</ele>
        <time>2022-07-08T17:40:05Z</time>
      </trkpt>
      <trkpt lat="42.731546" lon="-2.752913">
        <ele>528.383</ele>
        <time>2022-07-08T17:40:07Z</time>
      </trkpt>
      <trkpt lat="42.731556" lon="-2.752844">
        <ele>528.820</ele>
        <time>2022-07-08T17:40:09Z</time>
      </trkpt>
      <trkpt lat="42.731569" lon="-2.752759">
        <ele>529.432</ele>
        <time>2022-07-08T17:40:12Z</time>
      </trkpt>
      <trkpt lat="42.731594" lon="-2.752694">
        <ele>529.794</ele>
        <time>2022-07-08T17:40:14Z</time>
      </trkpt>
      <trkpt lat="42.731640" lon="-2.752645">
        <ele>529.857</ele>
        <time>2022-07-08T17:40:16Z</time>
      </trkpt>
      <trkpt lat="42.731688" lon="-2.752596">
        <ele>529.922</ele>
        <time>2022-07-08T17:40:18Z</time>
      </trkpt>
      <trkpt lat="42.731736" lon="-2.752529">
        <ele>530.109</ele>
        <time>2022-07-08T17:40:20Z</time>
      </trkpt>
      <trkpt lat="42.731787" lon="-2.752456">
        <ele>530.740</ele>
        <time>2022-07-08T17:40:22Z</time>
      </trkpt>
      <trkpt lat="42.731836" lon="-2.752391">
        <ele>531.559</ele>
        <time>2022-07-08T17:40:24Z</time>
      </trkpt>
      <trkpt lat="42.731876" lon="-2.752321">
        <ele>531.826</ele>
        <time>2022-07-08T17:40:26Z</time>
      </trkpt>
      <trkpt lat="42.731911" lon="-2.752253">
        <ele>531.992</ele>
        <time>2022-07-08T17:40:28Z</time>
      </trkpt>
      <trkpt lat="42.731949" lon="-2.752196">
        <ele>532.258</ele>
        <time>2022-07-08T17:40:30Z</time>
      </trkpt>
      <trkpt lat="42.731992" lon="-2.752132">
        <ele>532.214</ele>
        <time>2022-07-08T17:40:32Z</time>
      </trkpt>
      <trkpt lat="42.732042" lon="-2.752059">
        <ele>532.274</ele>
        <time>2022-07-08T17:40:34Z</time>
      </trkpt>
      <trkpt lat="42.732100" lon="-2.751978">
        <ele>532.091</ele>
        <time>2022-07-08T17:40:36Z</time>
      </trkpt>
      <trkpt lat="42.732161" lon="-2.751884">
        <ele>531.843</ele>
        <time>2022-07-08T17:40:38Z</time>
      </trkpt>
      <trkpt lat="42.732190" lon="-2.751833">
        <ele>531.711</ele>
        <time>2022-07-08T17:40:39Z</time>
      </trkpt>
      <trkpt lat="42.732223" lon="-2.751785">
        <ele>531.621</ele>
        <time>2022-07-08T17:40:40Z</time>
      </trkpt>
      <trkpt lat="42.732256" lon="-2.751738">
        <ele>531.603</ele>
        <time>2022-07-08T17:40:41Z</time>
      </trkpt>
      <trkpt lat="42.732289" lon="-2.751690">
        <ele>531.509</ele>
        <time>2022-07-08T17:40:42Z</time>
      </trkpt>
      <trkpt lat="42.732324" lon="-2.751640">
        <ele>531.452</ele>
        <time>2022-07-08T17:40:43Z</time>
      </trkpt>
      <trkpt lat="42.732357" lon="-2.751588">
        <ele>531.371</ele>
        <time>2022-07-08T17:40:44Z</time>
      </trkpt>
      <trkpt lat="42.732391" lon="-2.751541">
        <ele>531.358</ele>
        <time>2022-07-08T17:40:45Z</time>
      </trkpt>
      <trkpt lat="42.732422" lon="-2.751496">
        <ele>531.364</ele>
        <time>2022-07-08T17:40:46Z</time>
      </trkpt>
      <trkpt lat="42.732453" lon="-2.751451">
        <ele>531.350</ele>
        <time>2022-07-08T17:40:47Z</time>
      </trkpt>
      <trkpt lat="42.732487" lon="-2.751409">
        <ele>531.326</ele>
        <time>2022-07-08T17:40:48Z</time>
      </trkpt>
      <trkpt lat="42.732524" lon="-2.751357">
        <ele>531.436</ele>
        <time>2022-07-08T17:40:49Z</time>
      </trkpt>
      <trkpt lat="42.732574" lon="-2.751306">
        <ele>531.543</ele>
        <time>2022-07-08T17:40:51Z</time>
      </trkpt>
      <trkpt lat="42.732638" lon="-2.751208">
        <ele>531.595</ele>
        <time>2022-07-08T17:40:53Z</time>
      </trkpt>
      <trkpt lat="42.732676" lon="-2.751141">
        <ele>531.463</ele>
        <time>2022-07-08T17:40:54Z</time>
      </trkpt>
      <trkpt lat="42.732710" lon="-2.751095">
        <ele>531.244</ele>
        <time>2022-07-08T17:40:55Z</time>
      </trkpt>
      <trkpt lat="42.732743" lon="-2.751041">
        <ele>530.818</ele>
        <time>2022-07-08T17:40:56Z</time>
      </trkpt>
      <trkpt lat="42.732780" lon="-2.750982">
        <ele>530.509</ele>
        <time>2022-07-08T17:40:57Z</time>
      </trkpt>
      <trkpt lat="42.732814" lon="-2.750928">
        <ele>530.447</ele>
        <time>2022-07-08T17:40:58Z</time>
      </trkpt>
      <trkpt lat="42.732847" lon="-2.750878">
        <ele>530.456</ele>
        <time>2022-07-08T17:40:59Z</time>
      </trkpt>
      <trkpt lat="42.732879" lon="-2.750825">
        <ele>530.453</ele>
        <time>2022-07-08T17:41:00Z</time>
      </trkpt>
      <trkpt lat="42.732907" lon="-2.750776">
        <ele>530.499</ele>
        <time>2022-07-08T17:41:01Z</time>
      </trkpt>
      <trkpt lat="42.732971" lon="-2.750686">
        <ele>530.585</ele>
        <time>2022-07-08T17:41:03Z</time>
      </trkpt>
      <trkpt lat="42.733002" lon="-2.750639">
        <ele>530.531</ele>
        <time>2022-07-08T17:41:04Z</time>
      </trkpt>
      <trkpt lat="42.733064" lon="-2.750549">
        <ele>530.611</ele>
        <time>2022-07-08T17:41:06Z</time>
      </trkpt>
      <trkpt lat="42.733096" lon="-2.750503">
        <ele>530.588</ele>
        <time>2022-07-08T17:41:07Z</time>
      </trkpt>
      <trkpt lat="42.733151" lon="-2.750414">
        <ele>530.460</ele>
        <time>2022-07-08T17:41:09Z</time>
      </trkpt>
      <trkpt lat="42.733185" lon="-2.750365">
        <ele>530.235</ele>
        <time>2022-07-08T17:41:10Z</time>
      </trkpt>
      <trkpt lat="42.733219" lon="-2.750309">
        <ele>530.286</ele>
        <time>2022-07-08T17:41:11Z</time>
      </trkpt>
      <trkpt lat="42.733255" lon="-2.750259">
        <ele>530.214</ele>
        <time>2022-07-08T17:41:12Z</time>
      </trkpt>
      <trkpt lat="42.733288" lon="-2.750214">
        <ele>530.309</ele>
        <time>2022-07-08T17:41:13Z</time>
      </trkpt>
      <trkpt lat="42.733344" lon="-2.750131">
        <ele>530.474</ele>
        <time>2022-07-08T17:41:15Z</time>
      </trkpt>
      <trkpt lat="42.733397" lon="-2.750047">
        <ele>530.433</ele>
        <time>2022-07-08T17:41:17Z</time>
      </trkpt>
      <trkpt lat="42.733451" lon="-2.749969">
        <ele>531.090</ele>
        <time>2022-07-08T17:41:19Z</time>
      </trkpt>
      <trkpt lat="42.733506" lon="-2.749898">
        <ele>531.396</ele>
        <time>2022-07-08T17:41:21Z</time>
      </trkpt>
      <trkpt lat="42.733556" lon="-2.749821">
        <ele>531.652</ele>
        <time>2022-07-08T17:41:23Z</time>
      </trkpt>
      <trkpt lat="42.733607" lon="-2.749749">
        <ele>532.068</ele>
        <time>2022-07-08T17:41:25Z</time>
      </trkpt>
      <trkpt lat="42.733656" lon="-2.749679">
        <ele>532.348</ele>
        <time>2022-07-08T17:41:27Z</time>
      </trkpt>
      <trkpt lat="42.733704" lon="-2.749609">
        <ele>532.685</ele>
        <time>2022-07-08T17:41:29Z</time>
      </trkpt>
      <trkpt lat="42.733749" lon="-2.749535">
        <ele>533.147</ele>
        <time>2022-07-08T17:41:31Z</time>
      </trkpt>
      <trkpt lat="42.733792" lon="-2.749468">
        <ele>533.671</ele>
        <time>2022-07-08T17:41:33Z</time>
      </trkpt>
      <trkpt lat="42.733838" lon="-2.749400">
        <ele>534.141</ele>
        <time>2022-07-08T17:41:35Z</time>
      </trkpt>
      <trkpt lat="42.733883" lon="-2.749330">
        <ele>534.615</ele>
        <time>2022-07-08T17:41:37Z</time>
      </trkpt>
      <trkpt lat="42.733924" lon="-2.749258">
        <ele>534.809</ele>
        <time>2022-07-08T17:41:39Z</time>
      </trkpt>
      <trkpt lat="42.733961" lon="-2.749180">
        <ele>535.468</ele>
        <time>2022-07-08T17:41:41Z</time>
      </trkpt>
      <trkpt lat="42.733989" lon="-2.749095">
        <ele>535.817</ele>
        <time>2022-07-08T17:41:43Z</time>
      </trkpt>
      <trkpt lat="42.734008" lon="-2.749014">
        <ele>536.044</ele>
        <time>2022-07-08T17:41:45Z</time>
      </trkpt>
      <trkpt lat="42.734023" lon="-2.748934">
        <ele>536.440</ele>
        <time>2022-07-08T17:41:47Z</time>
      </trkpt>
      <trkpt lat="42.734031" lon="-2.748846">
        <ele>536.786</ele>
        <time>2022-07-08T17:41:49Z</time>
      </trkpt>
      <trkpt lat="42.734038" lon="-2.748754">
        <ele>537.152</ele>
        <time>2022-07-08T17:41:51Z</time>
      </trkpt>
      <trkpt lat="42.734042" lon="-2.748655">
        <ele>537.752</ele>
        <time>2022-07-08T17:41:53Z</time>
      </trkpt>
      <trkpt lat="42.734042" lon="-2.748553">
        <ele>538.579</ele>
        <time>2022-07-08T17:41:55Z</time>
      </trkpt>
      <trkpt lat="42.734052" lon="-2.748426">
        <ele>538.831</ele>
        <time>2022-07-08T17:41:57Z</time>
      </trkpt>
      <trkpt lat="42.734061" lon="-2.748356">
        <ele>538.972</ele>
        <time>2022-07-08T17:41:58Z</time>
      </trkpt>
      <trkpt lat="42.734072" lon="-2.748290">
        <ele>538.913</ele>
        <time>2022-07-08T17:41:59Z</time>
      </trkpt>
      <trkpt lat="42.734078" lon="-2.748230">
        <ele>538.914</ele>
        <time>2022-07-08T17:42:00Z</time>
      </trkpt>
      <trkpt lat="42.734090" lon="-2.748113">
        <ele>538.809</ele>
        <time>2022-07-08T17:42:02Z</time>
      </trkpt>
      <trkpt lat="42.734096" lon="-2.748006">
        <ele>538.738</ele>
        <time>2022-07-08T17:42:04Z</time>
      </trkpt>
      <trkpt lat="42.734092" lon="-2.747900">
        <ele>538.797</ele>
        <time>2022-07-08T17:42:06Z</time>
      </trkpt>
      <trkpt lat="42.734089" lon="-2.747803">
        <ele>538.874</ele>
        <time>2022-07-08T17:42:08Z</time>
      </trkpt>
      <trkpt lat="42.734082" lon="-2.747695">
        <ele>539.170</ele>
        <time>2022-07-08T17:42:10Z</time>
      </trkpt>
      <trkpt lat="42.734073" lon="-2.747582">
        <ele>539.376</ele>
        <time>2022-07-08T17:42:12Z</time>
      </trkpt>
      <trkpt lat="42.734065" lon="-2.747464">
        <ele>539.592</ele>
        <time>2022-07-08T17:42:14Z</time>
      </trkpt>
      <trkpt lat="42.734054" lon="-2.747362">
        <ele>539.662</ele>
        <time>2022-07-08T17:42:16Z</time>
      </trkpt>
      <trkpt lat="42.734038" lon="-2.747260">
        <ele>539.619</ele>
        <time>2022-07-08T17:42:18Z</time>
      </trkpt>
      <trkpt lat="42.734035" lon="-2.747199">
        <ele>539.661</ele>
        <time>2022-07-08T17:42:19Z</time>
      </trkpt>
      <trkpt lat="42.734034" lon="-2.747138">
        <ele>539.662</ele>
        <time>2022-07-08T17:42:20Z</time>
      </trkpt>
      <trkpt lat="42.734032" lon="-2.746993">
        <ele>539.683</ele>
        <time>2022-07-08T17:42:22Z</time>
      </trkpt>
      <trkpt lat="42.734035" lon="-2.746915">
        <ele>539.611</ele>
        <time>2022-07-08T17:42:23Z</time>
      </trkpt>
      <trkpt lat="42.734036" lon="-2.746836">
        <ele>539.609</ele>
        <time>2022-07-08T17:42:24Z</time>
      </trkpt>
      <trkpt lat="42.734020" lon="-2.746772">
        <ele>539.637</ele>
        <time>2022-07-08T17:42:25Z</time>
      </trkpt>
      <trkpt lat="42.733995" lon="-2.746670">
        <ele>539.676</ele>
        <time>2022-07-08T17:42:27Z</time>
      </trkpt>
      <trkpt lat="42.734000" lon="-2.746601">
        <ele>539.683</ele>
        <time>2022-07-08T17:42:28Z</time>
      </trkpt>
      <trkpt lat="42.733987" lon="-2.746492">
        <ele>538.939</ele>
        <time>2022-07-08T17:42:30Z</time>
      </trkpt>
      <trkpt lat="42.733925" lon="-2.746411">
        <ele>538.655</ele>
        <time>2022-07-08T17:42:32Z</time>
      </trkpt>
      <trkpt lat="42.733861" lon="-2.746372">
        <ele>537.851</ele>
        <time>2022-07-08T17:42:34Z</time>
      </trkpt>
      <trkpt lat="42.733811" lon="-2.746375">
        <ele>536.681</ele>
        <time>2022-07-08T17:42:35Z</time>
      </trkpt>
      <trkpt lat="42.733761" lon="-2.746374">
        <ele>535.918</ele>
        <time>2022-07-08T17:42:36Z</time>
      </trkpt>
      <trkpt lat="42.733699" lon="-2.746384">
        <ele>535.260</ele>
        <time>2022-07-08T17:42:37Z</time>
      </trkpt>
      <trkpt lat="42.733650" lon="-2.746396">
        <ele>534.459</ele>
        <time>2022-07-08T17:42:38Z</time>
      </trkpt>
      <trkpt lat="42.733603" lon="-2.746403">
        <ele>534.103</ele>
        <time>2022-07-08T17:42:39Z</time>
      </trkpt>
      <trkpt lat="42.733521" lon="-2.746396">
        <ele>533.223</ele>
        <time>2022-07-08T17:42:41Z</time>
      </trkpt>
      <trkpt lat="42.733461" lon="-2.746372">
        <ele>532.909</ele>
        <time>2022-07-08T17:42:43Z</time>
      </trkpt>
      <trkpt lat="42.733407" lon="-2.746392">
        <ele>532.026</ele>
        <time>2022-07-08T17:43:09Z</time>
      </trkpt>
      <trkpt lat="42.733345" lon="-2.746388">
        <ele>531.615</ele>
        <time>2022-07-08T17:43:11Z</time>
      </trkpt>
      <trkpt lat="42.733267" lon="-2.746343">
        <ele>531.692</ele>
        <time>2022-07-08T17:43:13Z</time>
      </trkpt>
      <trkpt lat="42.733201" lon="-2.746254">
        <ele>531.568</ele>
        <time>2022-07-08T17:43:15Z</time>
      </trkpt>
      <trkpt lat="42.733145" lon="-2.746162">
        <ele>531.384</ele>
        <time>2022-07-08T17:43:17Z</time>
      </trkpt>
      <trkpt lat="42.733078" lon="-2.746080">
        <ele>531.160</ele>
        <time>2022-07-08T17:43:19Z</time>
      </trkpt>
      <trkpt lat="42.733042" lon="-2.746042">
        <ele>531.010</ele>
        <time>2022-07-08T17:43:20Z</time>
      </trkpt>
      <trkpt lat="42.733008" lon="-2.746001">
        <ele>530.967</ele>
        <time>2022-07-08T17:43:21Z</time>
      </trkpt>
      <trkpt lat="42.732952" lon="-2.745921">
        <ele>530.919</ele>
        <time>2022-07-08T17:43:23Z</time>
      </trkpt>
      <trkpt lat="42.732900" lon="-2.745831">
        <ele>530.962</ele>
        <time>2022-07-08T17:43:25Z</time>
      </trkpt>
      <trkpt lat="42.732847" lon="-2.745738">
        <ele>531.083</ele>
        <time>2022-07-08T17:43:27Z</time>
      </trkpt>
      <trkpt lat="42.732796" lon="-2.745681">
        <ele>531.211</ele>
        <time>2022-07-08T17:43:29Z</time>
      </trkpt>
      <trkpt lat="42.732805" lon="-2.745608">
        <ele>531.209</ele>
        <time>2022-07-08T17:44:07Z</time>
      </trkpt>
      <trkpt lat="42.732757" lon="-2.745549">
        <ele>531.117</ele>
        <time>2022-07-08T17:44:09Z</time>
      </trkpt>
      <trkpt lat="42.732696" lon="-2.745494">
        <ele>531.156</ele>
        <time>2022-07-08T17:44:11Z</time>
      </trkpt>
      <trkpt lat="42.732634" lon="-2.745433">
        <ele>531.163</ele>
        <time>2022-07-08T17:44:13Z</time>
      </trkpt>
      <trkpt lat="42.732570" lon="-2.745372">
        <ele>531.369</ele>
        <time>2022-07-08T17:44:15Z</time>
      </trkpt>
      <trkpt lat="42.732511" lon="-2.745305">
        <ele>531.645</ele>
        <time>2022-07-08T17:44:17Z</time>
      </trkpt>
      <trkpt lat="42.732448" lon="-2.745238">
        <ele>531.891</ele>
        <time>2022-07-08T17:44:19Z</time>
      </trkpt>
      <trkpt lat="42.732385" lon="-2.745174">
        <ele>531.881</ele>
        <time>2022-07-08T17:44:21Z</time>
      </trkpt>
      <trkpt lat="42.732324" lon="-2.745112">
        <ele>531.838</ele>
        <time>2022-07-08T17:44:23Z</time>
      </trkpt>
      <trkpt lat="42.732263" lon="-2.745052">
        <ele>531.910</ele>
        <time>2022-07-08T17:44:25Z</time>
      </trkpt>
      <trkpt lat="42.732197" lon="-2.744992">
        <ele>532.141</ele>
        <time>2022-07-08T17:44:27Z</time>
      </trkpt>
      <trkpt lat="42.732132" lon="-2.744940">
        <ele>532.481</ele>
        <time>2022-07-08T17:44:29Z</time>
      </trkpt>
      <trkpt lat="42.732066" lon="-2.744894">
        <ele>532.709</ele>
        <time>2022-07-08T17:44:31Z</time>
      </trkpt>
      <trkpt lat="42.732004" lon="-2.744839">
        <ele>533.109</ele>
        <time>2022-07-08T17:44:33Z</time>
      </trkpt>
      <trkpt lat="42.731945" lon="-2.744777">
        <ele>533.455</ele>
        <time>2022-07-08T17:44:35Z</time>
      </trkpt>
      <trkpt lat="42.731885" lon="-2.744713">
        <ele>533.724</ele>
        <time>2022-07-08T17:44:37Z</time>
      </trkpt>
      <trkpt lat="42.731824" lon="-2.744654">
        <ele>534.051</ele>
        <time>2022-07-08T17:44:39Z</time>
      </trkpt>
      <trkpt lat="42.731768" lon="-2.744592">
        <ele>534.387</ele>
        <time>2022-07-08T17:44:41Z</time>
      </trkpt>
      <trkpt lat="42.731712" lon="-2.744524">
        <ele>534.613</ele>
        <time>2022-07-08T17:44:43Z</time>
      </trkpt>
      <trkpt lat="42.731654" lon="-2.744449">
        <ele>534.829</ele>
        <time>2022-07-08T17:44:45Z</time>
      </trkpt>
      <trkpt lat="42.731602" lon="-2.744373">
        <ele>535.039</ele>
        <time>2022-07-08T17:44:47Z</time>
      </trkpt>
      <trkpt lat="42.731557" lon="-2.744302">
        <ele>535.446</ele>
        <time>2022-07-08T17:44:49Z</time>
      </trkpt>
      <trkpt lat="42.731514" lon="-2.744233">
        <ele>535.968</ele>
        <time>2022-07-08T17:44:51Z</time>
      </trkpt>
      <trkpt lat="42.731471" lon="-2.744167">
        <ele>536.497</ele>
        <time>2022-07-08T17:44:53Z</time>
      </trkpt>
      <trkpt lat="42.731433" lon="-2.744106">
        <ele>536.723</ele>
        <time>2022-07-08T17:44:55Z</time>
      </trkpt>
      <trkpt lat="42.731391" lon="-2.744047">
        <ele>537.125</ele>
        <time>2022-07-08T17:44:57Z</time>
      </trkpt>
      <trkpt lat="42.731351" lon="-2.743990">
        <ele>537.609</ele>
        <time>2022-07-08T17:44:59Z</time>
      </trkpt>
      <trkpt lat="42.731313" lon="-2.743928">
        <ele>538.030</ele>
        <time>2022-07-08T17:45:01Z</time>
      </trkpt>
      <trkpt lat="42.731268" lon="-2.743862">
        <ele>538.379</ele>
        <time>2022-07-08T17:45:03Z</time>
      </trkpt>
      <trkpt lat="42.731223" lon="-2.743803">
        <ele>538.936</ele>
        <time>2022-07-08T17:45:05Z</time>
      </trkpt>
      <trkpt lat="42.731181" lon="-2.743741">
        <ele>539.382</ele>
        <time>2022-07-08T17:45:07Z</time>
      </trkpt>
      <trkpt lat="42.731144" lon="-2.743675">
        <ele>539.758</ele>
        <time>2022-07-08T17:45:09Z</time>
      </trkpt>
      <trkpt lat="42.731110" lon="-2.743607">
        <ele>540.044</ele>
        <time>2022-07-08T17:45:11Z</time>
      </trkpt>
      <trkpt lat="42.731074" lon="-2.743541">
        <ele>540.134</ele>
        <time>2022-07-08T17:45:13Z</time>
      </trkpt>
      <trkpt lat="42.731035" lon="-2.743471">
        <ele>540.191</ele>
        <time>2022-07-08T17:45:15Z</time>
      </trkpt>
      <trkpt lat="42.730996" lon="-2.743403">
        <ele>540.213</ele>
        <time>2022-07-08T17:45:17Z</time>
      </trkpt>
      <trkpt lat="42.730960" lon="-2.743340">
        <ele>540.681</ele>
        <time>2022-07-08T17:45:19Z</time>
      </trkpt>
      <trkpt lat="42.730930" lon="-2.743280">
        <ele>541.261</ele>
        <time>2022-07-08T17:45:21Z</time>
      </trkpt>
      <trkpt lat="42.730901" lon="-2.743225">
        <ele>541.717</ele>
        <time>2022-07-08T17:45:23Z</time>
      </trkpt>
      <trkpt lat="42.730873" lon="-2.743177">
        <ele>542.209</ele>
        <time>2022-07-08T17:45:25Z</time>
      </trkpt>
      <trkpt lat="42.730838" lon="-2.743125">
        <ele>542.399</ele>
        <time>2022-07-08T17:45:27Z</time>
      </trkpt>
      <trkpt lat="42.730798" lon="-2.743062">
        <ele>542.728</ele>
        <time>2022-07-08T17:45:29Z</time>
      </trkpt>
      <trkpt lat="42.730767" lon="-2.743008">
        <ele>543.335</ele>
        <time>2022-07-08T17:45:31Z</time>
      </trkpt>
      <trkpt lat="42.730736" lon="-2.742963">
        <ele>543.941</ele>
        <time>2022-07-08T17:45:33Z</time>
      </trkpt>
      <trkpt lat="42.730702" lon="-2.742917">
        <ele>544.537</ele>
        <time>2022-07-08T17:45:35Z</time>
      </trkpt>
      <trkpt lat="42.730678" lon="-2.742861">
        <ele>545.173</ele>
        <time>2022-07-08T17:45:37Z</time>
      </trkpt>
      <trkpt lat="42.730651" lon="-2.742799">
        <ele>545.663</ele>
        <time>2022-07-08T17:45:39Z</time>
      </trkpt>
      <trkpt lat="42.730615" lon="-2.742749">
        <ele>546.190</ele>
        <time>2022-07-08T17:45:41Z</time>
      </trkpt>
      <trkpt lat="42.730573" lon="-2.742700">
        <ele>546.682</ele>
        <time>2022-07-08T17:45:43Z</time>
      </trkpt>
      <trkpt lat="42.730545" lon="-2.742628">
        <ele>547.262</ele>
        <time>2022-07-08T17:45:45Z</time>
      </trkpt>
      <trkpt lat="42.730512" lon="-2.742565">
        <ele>548.083</ele>
        <time>2022-07-08T17:45:47Z</time>
      </trkpt>
      <trkpt lat="42.730448" lon="-2.742509">
        <ele>548.311</ele>
        <time>2022-07-08T17:45:49Z</time>
      </trkpt>
      <trkpt lat="42.730395" lon="-2.742462">
        <ele>548.609</ele>
        <time>2022-07-08T17:45:51Z</time>
      </trkpt>
      <trkpt lat="42.730353" lon="-2.742411">
        <ele>548.727</ele>
        <time>2022-07-08T17:45:53Z</time>
      </trkpt>
      <trkpt lat="42.730315" lon="-2.742358">
        <ele>549.116</ele>
        <time>2022-07-08T17:45:55Z</time>
      </trkpt>
      <trkpt lat="42.730268" lon="-2.742307">
        <ele>549.393</ele>
        <time>2022-07-08T17:45:57Z</time>
      </trkpt>
      <trkpt lat="42.730225" lon="-2.742260">
        <ele>549.599</ele>
        <time>2022-07-08T17:45:59Z</time>
      </trkpt>
      <trkpt lat="42.730183" lon="-2.742213">
        <ele>549.615</ele>
        <time>2022-07-08T17:46:01Z</time>
      </trkpt>
      <trkpt lat="42.730145" lon="-2.742169">
        <ele>549.941</ele>
        <time>2022-07-08T17:46:03Z</time>
      </trkpt>
      <trkpt lat="42.730094" lon="-2.742123">
        <ele>550.171</ele>
        <time>2022-07-08T17:46:05Z</time>
      </trkpt>
      <trkpt lat="42.730042" lon="-2.742084">
        <ele>550.588</ele>
        <time>2022-07-08T17:46:07Z</time>
      </trkpt>
      <trkpt lat="42.729996" lon="-2.742043">
        <ele>550.770</ele>
        <time>2022-07-08T17:46:09Z</time>
      </trkpt>
      <trkpt lat="42.729948" lon="-2.742000">
        <ele>551.011</ele>
        <time>2022-07-08T17:46:11Z</time>
      </trkpt>
      <trkpt lat="42.729897" lon="-2.741953">
        <ele>551.321</ele>
        <time>2022-07-08T17:46:13Z</time>
      </trkpt>
      <trkpt lat="42.729850" lon="-2.741907">
        <ele>551.703</ele>
        <time>2022-07-08T17:46:15Z</time>
      </trkpt>
      <trkpt lat="42.729808" lon="-2.741864">
        <ele>551.909</ele>
        <time>2022-07-08T17:46:17Z</time>
      </trkpt>
      <trkpt lat="42.729761" lon="-2.741827">
        <ele>552.352</ele>
        <time>2022-07-08T17:46:19Z</time>
      </trkpt>
      <trkpt lat="42.729710" lon="-2.741784">
        <ele>552.931</ele>
        <time>2022-07-08T17:46:21Z</time>
      </trkpt>
      <trkpt lat="42.729661" lon="-2.741743">
        <ele>553.398</ele>
        <time>2022-07-08T17:46:23Z</time>
      </trkpt>
      <trkpt lat="42.729606" lon="-2.741708">
        <ele>553.824</ele>
        <time>2022-07-08T17:46:25Z</time>
      </trkpt>
      <trkpt lat="42.729550" lon="-2.741676">
        <ele>554.040</ele>
        <time>2022-07-08T17:46:27Z</time>
      </trkpt>
      <trkpt lat="42.729500" lon="-2.741652">
        <ele>554.226</ele>
        <time>2022-07-08T17:46:29Z</time>
      </trkpt>
      <trkpt lat="42.729446" lon="-2.741627">
        <ele>554.546</ele>
        <time>2022-07-08T17:46:31Z</time>
      </trkpt>
      <trkpt lat="42.729391" lon="-2.741608">
        <ele>554.653</ele>
        <time>2022-07-08T17:46:33Z</time>
      </trkpt>
      <trkpt lat="42.729334" lon="-2.741595">
        <ele>554.815</ele>
        <time>2022-07-08T17:46:35Z</time>
      </trkpt>
      <trkpt lat="42.729285" lon="-2.741586">
        <ele>555.133</ele>
        <time>2022-07-08T17:46:37Z</time>
      </trkpt>
      <trkpt lat="42.729220" lon="-2.741585">
        <ele>555.423</ele>
        <time>2022-07-08T17:46:40Z</time>
      </trkpt>
      <trkpt lat="42.729168" lon="-2.741595">
        <ele>555.615</ele>
        <time>2022-07-08T17:46:42Z</time>
      </trkpt>
      <trkpt lat="42.729117" lon="-2.741609">
        <ele>555.809</ele>
        <time>2022-07-08T17:46:44Z</time>
      </trkpt>
      <trkpt lat="42.729065" lon="-2.741628">
        <ele>556.024</ele>
        <time>2022-07-08T17:46:46Z</time>
      </trkpt>
      <trkpt lat="42.729017" lon="-2.741642">
        <ele>556.583</ele>
        <time>2022-07-08T17:46:49Z</time>
      </trkpt>
      <trkpt lat="42.728953" lon="-2.741645">
        <ele>556.750</ele>
        <time>2022-07-08T17:46:52Z</time>
      </trkpt>
      <trkpt lat="42.728891" lon="-2.741629">
        <ele>557.326</ele>
        <time>2022-07-08T17:46:54Z</time>
      </trkpt>
      <trkpt lat="42.728833" lon="-2.741609">
        <ele>558.162</ele>
        <time>2022-07-08T17:46:56Z</time>
      </trkpt>
      <trkpt lat="42.728771" lon="-2.741583">
        <ele>558.528</ele>
        <time>2022-07-08T17:46:58Z</time>
      </trkpt>
      <trkpt lat="42.728717" lon="-2.741556">
        <ele>559.038</ele>
        <time>2022-07-08T17:47:00Z</time>
      </trkpt>
      <trkpt lat="42.728662" lon="-2.741528">
        <ele>559.685</ele>
        <time>2022-07-08T17:47:02Z</time>
      </trkpt>
      <trkpt lat="42.728610" lon="-2.741496">
        <ele>560.147</ele>
        <time>2022-07-08T17:47:04Z</time>
      </trkpt>
      <trkpt lat="42.728559" lon="-2.741469">
        <ele>560.467</ele>
        <time>2022-07-08T17:47:06Z</time>
      </trkpt>
      <trkpt lat="42.728508" lon="-2.741450">
        <ele>560.481</ele>
        <time>2022-07-08T17:47:08Z</time>
      </trkpt>
      <trkpt lat="42.728446" lon="-2.741433">
        <ele>560.619</ele>
        <time>2022-07-08T17:47:10Z</time>
      </trkpt>
      <trkpt lat="42.728383" lon="-2.741428">
        <ele>560.809</ele>
        <time>2022-07-08T17:47:12Z</time>
      </trkpt>
      <trkpt lat="42.728327" lon="-2.741426">
        <ele>561.157</ele>
        <time>2022-07-08T17:47:14Z</time>
      </trkpt>
      <trkpt lat="42.728268" lon="-2.741432">
        <ele>561.646</ele>
        <time>2022-07-08T17:47:16Z</time>
      </trkpt>
      <trkpt lat="42.728209" lon="-2.741442">
        <ele>562.083</ele>
        <time>2022-07-08T17:47:18Z</time>
      </trkpt>
      <trkpt lat="42.728159" lon="-2.741447">
        <ele>562.489</ele>
        <time>2022-07-08T17:47:20Z</time>
      </trkpt>
      <trkpt lat="42.728107" lon="-2.741448">
        <ele>562.835</ele>
        <time>2022-07-08T17:47:22Z</time>
      </trkpt>
      <trkpt lat="42.728057" lon="-2.741456">
        <ele>563.261</ele>
        <time>2022-07-08T17:47:24Z</time>
      </trkpt>
      <trkpt lat="42.728008" lon="-2.741466">
        <ele>563.451</ele>
        <time>2022-07-08T17:47:26Z</time>
      </trkpt>
      <trkpt lat="42.727946" lon="-2.741466">
        <ele>563.948</ele>
        <time>2022-07-08T17:47:28Z</time>
      </trkpt>
      <trkpt lat="42.727880" lon="-2.741454">
        <ele>564.650</ele>
        <time>2022-07-08T17:47:30Z</time>
      </trkpt>
      <trkpt lat="42.727816" lon="-2.741424">
        <ele>564.947</ele>
        <time>2022-07-08T17:47:32Z</time>
      </trkpt>
      <trkpt lat="42.727768" lon="-2.741393">
        <ele>565.229</ele>
        <time>2022-07-08T17:47:34Z</time>
      </trkpt>
      <trkpt lat="42.727707" lon="-2.741356">
        <ele>565.621</ele>
        <time>2022-07-08T17:47:37Z</time>
      </trkpt>
      <trkpt lat="42.727660" lon="-2.741321">
        <ele>566.009</ele>
        <time>2022-07-08T17:47:39Z</time>
      </trkpt>
      <trkpt lat="42.727620" lon="-2.741290">
        <ele>566.635</ele>
        <time>2022-07-08T17:47:41Z</time>
      </trkpt>
      <trkpt lat="42.727575" lon="-2.741270">
        <ele>566.854</ele>
        <time>2022-07-08T17:47:43Z</time>
      </trkpt>
      <trkpt lat="42.727514" lon="-2.741243">
        <ele>567.421</ele>
        <time>2022-07-08T17:47:46Z</time>
      </trkpt>
      <trkpt lat="42.727468" lon="-2.741226">
        <ele>567.537</ele>
        <time>2022-07-08T17:47:48Z</time>
      </trkpt>
      <trkpt lat="42.727413" lon="-2.741214">
        <ele>567.983</ele>
        <time>2022-07-08T17:47:50Z</time>
      </trkpt>
      <trkpt lat="42.727357" lon="-2.741203">
        <ele>568.769</ele>
        <time>2022-07-08T17:47:52Z</time>
      </trkpt>
      <trkpt lat="42.727308" lon="-2.741191">
        <ele>569.279</ele>
        <time>2022-07-08T17:47:54Z</time>
      </trkpt>
      <trkpt lat="42.727257" lon="-2.741185">
        <ele>569.426</ele>
        <time>2022-07-08T17:47:57Z</time>
      </trkpt>
      <trkpt lat="42.727210" lon="-2.741187">
        <ele>569.748</ele>
        <time>2022-07-08T17:47:59Z</time>
      </trkpt>
      <trkpt lat="42.727165" lon="-2.741193">
        <ele>570.189</ele>
        <time>2022-07-08T17:48:01Z</time>
      </trkpt>
      <trkpt lat="42.727102" lon="-2.741194">
        <ele>570.506</ele>
        <time>2022-07-08T17:48:04Z</time>
      </trkpt>
      <trkpt lat="42.727052" lon="-2.741191">
        <ele>571.026</ele>
        <time>2022-07-08T17:48:07Z</time>
      </trkpt>
      <trkpt lat="42.726990" lon="-2.741173">
        <ele>571.609</ele>
        <time>2022-07-08T17:48:10Z</time>
      </trkpt>
      <trkpt lat="42.726928" lon="-2.741158">
        <ele>572.419</ele>
        <time>2022-07-08T17:48:13Z</time>
      </trkpt>
      <trkpt lat="42.726862" lon="-2.741145">
        <ele>573.288</ele>
        <time>2022-07-08T17:48:17Z</time>
      </trkpt>
      <trkpt lat="42.726798" lon="-2.741118">
        <ele>573.915</ele>
        <time>2022-07-08T17:48:20Z</time>
      </trkpt>
      <trkpt lat="42.726734" lon="-2.741094">
        <ele>574.791</ele>
        <time>2022-07-08T17:48:23Z</time>
      </trkpt>
      <trkpt lat="42.726677" lon="-2.741065">
        <ele>575.857</ele>
        <time>2022-07-08T17:48:25Z</time>
      </trkpt>
      <trkpt lat="42.726622" lon="-2.741034">
        <ele>576.833</ele>
        <time>2022-07-08T17:48:28Z</time>
      </trkpt>
      <trkpt lat="42.726567" lon="-2.741007">
        <ele>577.323</ele>
        <time>2022-07-08T17:48:32Z</time>
      </trkpt>
      <trkpt lat="42.726518" lon="-2.740991">
        <ele>578.110</ele>
        <time>2022-07-08T17:48:35Z</time>
      </trkpt>
      <trkpt lat="42.726468" lon="-2.740968">
        <ele>578.942</ele>
        <time>2022-07-08T17:48:39Z</time>
      </trkpt>
      <trkpt lat="42.726421" lon="-2.740950">
        <ele>579.247</ele>
        <time>2022-07-08T17:48:42Z</time>
      </trkpt>
      <trkpt lat="42.726371" lon="-2.740957">
        <ele>579.629</ele>
        <time>2022-07-08T17:48:45Z</time>
      </trkpt>
      <trkpt lat="42.726324" lon="-2.740961">
        <ele>580.221</ele>
        <time>2022-07-08T17:48:48Z</time>
      </trkpt>
      <trkpt lat="42.726267" lon="-2.740950">
        <ele>580.709</ele>
        <time>2022-07-08T17:48:51Z</time>
      </trkpt>
      <trkpt lat="42.726207" lon="-2.740932">
        <ele>581.315</ele>
        <time>2022-07-08T17:48:54Z</time>
      </trkpt>
      <trkpt lat="42.726155" lon="-2.740909">
        <ele>581.944</ele>
        <time>2022-07-08T17:48:57Z</time>
      </trkpt>
      <trkpt lat="42.726110" lon="-2.740879">
        <ele>582.611</ele>
        <time>2022-07-08T17:49:00Z</time>
      </trkpt>
      <trkpt lat="42.726054" lon="-2.740861">
        <ele>583.247</ele>
        <time>2022-07-08T17:49:03Z</time>
      </trkpt>
      <trkpt lat="42.726000" lon="-2.740847">
        <ele>584.293</ele>
        <time>2022-07-08T17:49:05Z</time>
      </trkpt>
      <trkpt lat="42.725938" lon="-2.740817">
        <ele>585.129</ele>
        <time>2022-07-08T17:49:08Z</time>
      </trkpt>
      <trkpt lat="42.725884" lon="-2.740780">
        <ele>585.549</ele>
        <time>2022-07-08T17:49:11Z</time>
      </trkpt>
      <trkpt lat="42.725830" lon="-2.740762">
        <ele>585.826</ele>
        <time>2022-07-08T17:49:14Z</time>
      </trkpt>
      <trkpt lat="42.725773" lon="-2.740735">
        <ele>586.428</ele>
        <time>2022-07-08T17:49:17Z</time>
      </trkpt>
      <trkpt lat="42.725710" lon="-2.740726">
        <ele>587.049</ele>
        <time>2022-07-08T17:49:20Z</time>
      </trkpt>
      <trkpt lat="42.725649" lon="-2.740724">
        <ele>587.202</ele>
        <time>2022-07-08T17:49:23Z</time>
      </trkpt>
      <trkpt lat="42.725601" lon="-2.740735">
        <ele>587.622</ele>
        <time>2022-07-08T17:49:26Z</time>
      </trkpt>
      <trkpt lat="42.725552" lon="-2.740717">
        <ele>588.009</ele>
        <time>2022-07-08T17:49:29Z</time>
      </trkpt>
      <trkpt lat="42.725495" lon="-2.740704">
        <ele>588.485</ele>
        <time>2022-07-08T17:49:32Z</time>
      </trkpt>
      <trkpt lat="42.725443" lon="-2.740694">
        <ele>588.954</ele>
        <time>2022-07-08T17:49:35Z</time>
      </trkpt>
      <trkpt lat="42.725379" lon="-2.740670">
        <ele>589.421</ele>
        <time>2022-07-08T17:49:38Z</time>
      </trkpt>
      <trkpt lat="42.725334" lon="-2.740653">
        <ele>590.117</ele>
        <time>2022-07-08T17:49:40Z</time>
      </trkpt>
      <trkpt lat="42.725269" lon="-2.740632">
        <ele>590.593</ele>
        <time>2022-07-08T17:49:43Z</time>
      </trkpt>
      <trkpt lat="42.725223" lon="-2.740617">
        <ele>590.939</ele>
        <time>2022-07-08T17:49:45Z</time>
      </trkpt>
      <trkpt lat="42.725177" lon="-2.740600">
        <ele>591.389</ele>
        <time>2022-07-08T17:49:47Z</time>
      </trkpt>
      <trkpt lat="42.725121" lon="-2.740584">
        <ele>591.446</ele>
        <time>2022-07-08T17:49:50Z</time>
      </trkpt>
      <trkpt lat="42.725065" lon="-2.740573">
        <ele>591.688</ele>
        <time>2022-07-08T17:49:53Z</time>
      </trkpt>
      <trkpt lat="42.725015" lon="-2.740563">
        <ele>591.995</ele>
        <time>2022-07-08T17:49:55Z</time>
      </trkpt>
      <trkpt lat="42.724967" lon="-2.740553">
        <ele>592.549</ele>
        <time>2022-07-08T17:49:57Z</time>
      </trkpt>
      <trkpt lat="42.724923" lon="-2.740540">
        <ele>592.923</ele>
        <time>2022-07-08T17:49:59Z</time>
      </trkpt>
      <trkpt lat="42.724857" lon="-2.740513">
        <ele>593.209</ele>
        <time>2022-07-08T17:50:02Z</time>
      </trkpt>
      <trkpt lat="42.724805" lon="-2.740494">
        <ele>593.390</ele>
        <time>2022-07-08T17:50:04Z</time>
      </trkpt>
      <trkpt lat="42.724762" lon="-2.740472">
        <ele>593.679</ele>
        <time>2022-07-08T17:50:07Z</time>
      </trkpt>
      <trkpt lat="42.724706" lon="-2.740451">
        <ele>594.066</ele>
        <time>2022-07-08T17:50:10Z</time>
      </trkpt>
      <trkpt lat="42.724643" lon="-2.740435">
        <ele>594.212</ele>
        <time>2022-07-08T17:50:13Z</time>
      </trkpt>
      <trkpt lat="42.724581" lon="-2.740412">
        <ele>594.738</ele>
        <time>2022-07-08T17:50:16Z</time>
      </trkpt>
      <trkpt lat="42.724521" lon="-2.740390">
        <ele>595.074</ele>
        <time>2022-07-08T17:50:19Z</time>
      </trkpt>
      <trkpt lat="42.724457" lon="-2.740369">
        <ele>595.274</ele>
        <time>2022-07-08T17:50:22Z</time>
      </trkpt>
      <trkpt lat="42.724416" lon="-2.740337">
        <ele>595.731</ele>
        <time>2022-07-08T17:50:24Z</time>
      </trkpt>
      <trkpt lat="42.724363" lon="-2.740315">
        <ele>596.253</ele>
        <time>2022-07-08T17:50:27Z</time>
      </trkpt>
      <trkpt lat="42.724308" lon="-2.740309">
        <ele>596.529</ele>
        <time>2022-07-08T17:50:30Z</time>
      </trkpt>
      <trkpt lat="42.724244" lon="-2.740303">
        <ele>596.900</ele>
        <time>2022-07-08T17:50:33Z</time>
      </trkpt>
      <trkpt lat="42.724184" lon="-2.740284">
        <ele>597.520</ele>
        <time>2022-07-08T17:50:36Z</time>
      </trkpt>
      <trkpt lat="42.724122" lon="-2.740290">
        <ele>598.009</ele>
        <time>2022-07-08T17:50:39Z</time>
      </trkpt>
      <trkpt lat="42.724072" lon="-2.740306">
        <ele>598.553</ele>
        <time>2022-07-08T17:50:42Z</time>
      </trkpt>
      <trkpt lat="42.724029" lon="-2.740337">
        <ele>599.112</ele>
        <time>2022-07-08T17:50:45Z</time>
      </trkpt>
      <trkpt lat="42.723979" lon="-2.740359">
        <ele>599.439</ele>
        <time>2022-07-08T17:50:48Z</time>
      </trkpt>
      <trkpt lat="42.723937" lon="-2.740397">
        <ele>599.725</ele>
        <time>2022-07-08T17:50:51Z</time>
      </trkpt>
      <trkpt lat="42.723881" lon="-2.740437">
        <ele>600.251</ele>
        <time>2022-07-08T17:50:54Z</time>
      </trkpt>
      <trkpt lat="42.723838" lon="-2.740461">
        <ele>600.677</ele>
        <time>2022-07-08T17:50:56Z</time>
      </trkpt>
      <trkpt lat="42.723783" lon="-2.740492">
        <ele>601.457</ele>
        <time>2022-07-08T17:50:59Z</time>
      </trkpt>
      <trkpt lat="42.723727" lon="-2.740497">
        <ele>601.854</ele>
        <time>2022-07-08T17:51:02Z</time>
      </trkpt>
      <trkpt lat="42.723672" lon="-2.740480">
        <ele>602.766</ele>
        <time>2022-07-08T17:51:05Z</time>
      </trkpt>
      <trkpt lat="42.723626" lon="-2.740468">
        <ele>603.013</ele>
        <time>2022-07-08T17:51:07Z</time>
      </trkpt>
      <trkpt lat="42.723564" lon="-2.740442">
        <ele>604.143</ele>
        <time>2022-07-08T17:51:10Z</time>
      </trkpt>
      <trkpt lat="42.723520" lon="-2.740399">
        <ele>604.607</ele>
        <time>2022-07-08T17:51:13Z</time>
      </trkpt>
      <trkpt lat="42.723491" lon="-2.740342">
        <ele>605.209</ele>
        <time>2022-07-08T17:51:17Z</time>
      </trkpt>
      <trkpt lat="42.723464" lon="-2.740292">
        <ele>605.412</ele>
        <time>2022-07-08T17:51:20Z</time>
      </trkpt>
      <trkpt lat="42.723434" lon="-2.740220">
        <ele>606.811</ele>
        <time>2022-07-08T17:51:23Z</time>
      </trkpt>
      <trkpt lat="42.723396" lon="-2.740160">
        <ele>607.618</ele>
        <time>2022-07-08T17:51:25Z</time>
      </trkpt>
      <trkpt lat="42.723350" lon="-2.740081">
        <ele>608.134</ele>
        <time>2022-07-08T17:51:27Z</time>
      </trkpt>
      <trkpt lat="42.723307" lon="-2.739980">
        <ele>608.170</ele>
        <time>2022-07-08T17:51:29Z</time>
      </trkpt>
      <trkpt lat="42.723276" lon="-2.739910">
        <ele>608.186</ele>
        <time>2022-07-08T17:51:30Z</time>
      </trkpt>
      <trkpt lat="42.723260" lon="-2.739850">
        <ele>608.156</ele>
        <time>2022-07-08T17:51:31Z</time>
      </trkpt>
      <trkpt lat="42.723240" lon="-2.739781">
        <ele>608.023</ele>
        <time>2022-07-08T17:51:32Z</time>
      </trkpt>
      <trkpt lat="42.723223" lon="-2.739716">
        <ele>607.815</ele>
        <time>2022-07-08T17:51:33Z</time>
      </trkpt>
      <trkpt lat="42.723201" lon="-2.739644">
        <ele>607.753</ele>
        <time>2022-07-08T17:51:34Z</time>
      </trkpt>
      <trkpt lat="42.723174" lon="-2.739592">
        <ele>607.604</ele>
        <time>2022-07-08T17:51:35Z</time>
      </trkpt>
      <trkpt lat="42.723147" lon="-2.739533">
        <ele>607.414</ele>
        <time>2022-07-08T17:51:36Z</time>
      </trkpt>
      <trkpt lat="42.723082" lon="-2.739436">
        <ele>607.109</ele>
        <time>2022-07-08T17:51:38Z</time>
      </trkpt>
      <trkpt lat="42.723045" lon="-2.739394">
        <ele>607.156</ele>
        <time>2022-07-08T17:51:39Z</time>
      </trkpt>
      <trkpt lat="42.723004" lon="-2.739338">
        <ele>606.915</ele>
        <time>2022-07-08T17:51:40Z</time>
      </trkpt>
      <trkpt lat="42.722962" lon="-2.739299">
        <ele>606.892</ele>
        <time>2022-07-08T17:51:41Z</time>
      </trkpt>
      <trkpt lat="42.722916" lon="-2.739259">
        <ele>606.588</ele>
        <time>2022-07-08T17:51:42Z</time>
      </trkpt>
      <trkpt lat="42.722872" lon="-2.739212">
        <ele>606.564</ele>
        <time>2022-07-08T17:51:43Z</time>
      </trkpt>
      <trkpt lat="42.722827" lon="-2.739165">
        <ele>606.510</ele>
        <time>2022-07-08T17:51:44Z</time>
      </trkpt>
      <trkpt lat="42.722781" lon="-2.739127">
        <ele>606.410</ele>
        <time>2022-07-08T17:51:45Z</time>
      </trkpt>
      <trkpt lat="42.722734" lon="-2.739092">
        <ele>606.457</ele>
        <time>2022-07-08T17:51:46Z</time>
      </trkpt>
      <trkpt lat="42.722687" lon="-2.739055">
        <ele>606.079</ele>
        <time>2022-07-08T17:51:47Z</time>
      </trkpt>
      <trkpt lat="42.722638" lon="-2.739021">
        <ele>605.915</ele>
        <time>2022-07-08T17:51:48Z</time>
      </trkpt>
      <trkpt lat="42.722584" lon="-2.738987">
        <ele>605.165</ele>
        <time>2022-07-08T17:51:49Z</time>
      </trkpt>
      <trkpt lat="42.722531" lon="-2.738946">
        <ele>604.811</ele>
        <time>2022-07-08T17:51:50Z</time>
      </trkpt>
      <trkpt lat="42.722485" lon="-2.738912">
        <ele>604.509</ele>
        <time>2022-07-08T17:51:51Z</time>
      </trkpt>
      <trkpt lat="42.722439" lon="-2.738878">
        <ele>604.322</ele>
        <time>2022-07-08T17:51:52Z</time>
      </trkpt>
      <trkpt lat="42.722389" lon="-2.738838">
        <ele>604.361</ele>
        <time>2022-07-08T17:51:53Z</time>
      </trkpt>
      <trkpt lat="42.722344" lon="-2.738789">
        <ele>604.278</ele>
        <time>2022-07-08T17:51:54Z</time>
      </trkpt>
      <trkpt lat="42.722299" lon="-2.738733">
        <ele>603.844</ele>
        <time>2022-07-08T17:51:55Z</time>
      </trkpt>
      <trkpt lat="42.722264" lon="-2.738691">
        <ele>603.720</ele>
        <time>2022-07-08T17:51:56Z</time>
      </trkpt>
      <trkpt lat="42.722210" lon="-2.738648">
        <ele>603.786</ele>
        <time>2022-07-08T17:51:57Z</time>
      </trkpt>
      <trkpt lat="42.722164" lon="-2.738607">
        <ele>603.226</ele>
        <time>2022-07-08T17:51:58Z</time>
      </trkpt>
      <trkpt lat="42.722091" lon="-2.738520">
        <ele>603.253</ele>
        <time>2022-07-08T17:52:00Z</time>
      </trkpt>
      <trkpt lat="42.722054" lon="-2.738482">
        <ele>603.245</ele>
        <time>2022-07-08T17:52:01Z</time>
      </trkpt>
      <trkpt lat="42.721989" lon="-2.738415">
        <ele>603.265</ele>
        <time>2022-07-08T17:52:03Z</time>
      </trkpt>
      <trkpt lat="42.721919" lon="-2.738379">
        <ele>603.468</ele>
        <time>2022-07-08T17:52:05Z</time>
      </trkpt>
      <trkpt lat="42.721838" lon="-2.738375">
        <ele>603.614</ele>
        <time>2022-07-08T17:52:07Z</time>
      </trkpt>
      <trkpt lat="42.721765" lon="-2.738384">
        <ele>603.809</ele>
        <time>2022-07-08T17:52:09Z</time>
      </trkpt>
      <trkpt lat="42.721679" lon="-2.738406">
        <ele>604.027</ele>
        <time>2022-07-08T17:52:11Z</time>
      </trkpt>
      <trkpt lat="42.721633" lon="-2.738413">
        <ele>604.186</ele>
        <time>2022-07-08T17:52:12Z</time>
      </trkpt>
      <trkpt lat="42.721572" lon="-2.738441">
        <ele>604.183</ele>
        <time>2022-07-08T17:52:14Z</time>
      </trkpt>
      <trkpt lat="42.721495" lon="-2.738472">
        <ele>604.099</ele>
        <time>2022-07-08T17:52:16Z</time>
      </trkpt>
      <trkpt lat="42.721432" lon="-2.738469">
        <ele>603.915</ele>
        <time>2022-07-08T17:52:17Z</time>
      </trkpt>
      <trkpt lat="42.721374" lon="-2.738458">
        <ele>603.971</ele>
        <time>2022-07-08T17:52:18Z</time>
      </trkpt>
      <trkpt lat="42.721298" lon="-2.738407">
        <ele>603.981</ele>
        <time>2022-07-08T17:52:20Z</time>
      </trkpt>
      <trkpt lat="42.721260" lon="-2.738362">
        <ele>604.058</ele>
        <time>2022-07-08T17:52:21Z</time>
      </trkpt>
      <trkpt lat="42.721167" lon="-2.738282">
        <ele>604.280</ele>
        <time>2022-07-08T17:52:23Z</time>
      </trkpt>
      <trkpt lat="42.721127" lon="-2.738242">
        <ele>604.221</ele>
        <time>2022-07-08T17:52:24Z</time>
      </trkpt>
      <trkpt lat="42.721066" lon="-2.738205">
        <ele>604.141</ele>
        <time>2022-07-08T17:52:25Z</time>
      </trkpt>
      <trkpt lat="42.721021" lon="-2.738157">
        <ele>604.005</ele>
        <time>2022-07-08T17:52:26Z</time>
      </trkpt>
      <trkpt lat="42.720985" lon="-2.738067">
        <ele>604.009</ele>
        <time>2022-07-08T17:52:28Z</time>
      </trkpt>
      <trkpt lat="42.720924" lon="-2.737998">
        <ele>604.073</ele>
        <time>2022-07-08T17:52:30Z</time>
      </trkpt>
      <trkpt lat="42.720872" lon="-2.737932">
        <ele>604.172</ele>
        <time>2022-07-08T17:52:32Z</time>
      </trkpt>
      <trkpt lat="42.720813" lon="-2.737885">
        <ele>604.219</ele>
        <time>2022-07-08T17:52:34Z</time>
      </trkpt>
      <trkpt lat="42.720750" lon="-2.737851">
        <ele>604.445</ele>
        <time>2022-07-08T17:52:36Z</time>
      </trkpt>
      <trkpt lat="42.720699" lon="-2.737847">
        <ele>604.531</ele>
        <time>2022-07-08T17:52:37Z</time>
      </trkpt>
      <trkpt lat="42.720654" lon="-2.737840">
        <ele>604.667</ele>
        <time>2022-07-08T17:52:38Z</time>
      </trkpt>
      <trkpt lat="42.720588" lon="-2.737837">
        <ele>604.667</ele>
        <time>2022-07-08T17:52:39Z</time>
      </trkpt>
      <trkpt lat="42.720520" lon="-2.737853">
        <ele>604.684</ele>
        <time>2022-07-08T17:52:40Z</time>
      </trkpt>
      <trkpt lat="42.720437" lon="-2.737844">
        <ele>604.426</ele>
        <time>2022-07-08T17:52:41Z</time>
      </trkpt>
      <trkpt lat="42.720377" lon="-2.737840">
        <ele>604.139</ele>
        <time>2022-07-08T17:52:42Z</time>
      </trkpt>
      <trkpt lat="42.720322" lon="-2.737842">
        <ele>603.801</ele>
        <time>2022-07-08T17:52:43Z</time>
      </trkpt>
      <trkpt lat="42.720244" lon="-2.737843">
        <ele>603.421</ele>
        <time>2022-07-08T17:52:44Z</time>
      </trkpt>
      <trkpt lat="42.720164" lon="-2.737809">
        <ele>603.309</ele>
        <time>2022-07-08T17:52:46Z</time>
      </trkpt>
      <trkpt lat="42.720106" lon="-2.737740">
        <ele>603.234</ele>
        <time>2022-07-08T17:52:47Z</time>
      </trkpt>
      <trkpt lat="42.720035" lon="-2.737663">
        <ele>603.233</ele>
        <time>2022-07-08T17:52:49Z</time>
      </trkpt>
      <trkpt lat="42.719988" lon="-2.737628">
        <ele>602.910</ele>
        <time>2022-07-08T17:52:50Z</time>
      </trkpt>
      <trkpt lat="42.719942" lon="-2.737575">
        <ele>602.596</ele>
        <time>2022-07-08T17:52:52Z</time>
      </trkpt>
      <trkpt lat="42.719897" lon="-2.737550">
        <ele>602.492</ele>
        <time>2022-07-08T17:52:54Z</time>
      </trkpt>
      <trkpt lat="42.719836" lon="-2.737512">
        <ele>601.628</ele>
        <time>2022-07-08T17:53:52Z</time>
      </trkpt>
      <trkpt lat="42.719764" lon="-2.737514">
        <ele>600.558</ele>
        <time>2022-07-08T17:53:54Z</time>
      </trkpt>
      <trkpt lat="42.719692" lon="-2.737538">
        <ele>599.385</ele>
        <time>2022-07-08T17:53:56Z</time>
      </trkpt>
      <trkpt lat="42.719616" lon="-2.737565">
        <ele>599.217</ele>
        <time>2022-07-08T17:53:58Z</time>
      </trkpt>
      <trkpt lat="42.719522" lon="-2.737587">
        <ele>599.134</ele>
        <time>2022-07-08T17:54:00Z</time>
      </trkpt>
      <trkpt lat="42.719471" lon="-2.737596">
        <ele>599.155</ele>
        <time>2022-07-08T17:54:01Z</time>
      </trkpt>
      <trkpt lat="42.719422" lon="-2.737601">
        <ele>599.110</ele>
        <time>2022-07-08T17:54:02Z</time>
      </trkpt>
      <trkpt lat="42.719371" lon="-2.737603">
        <ele>599.109</ele>
        <time>2022-07-08T17:54:03Z</time>
      </trkpt>
      <trkpt lat="42.719295" lon="-2.737579">
        <ele>599.264</ele>
        <time>2022-07-08T17:54:04Z</time>
      </trkpt>
      <trkpt lat="42.719208" lon="-2.737533">
        <ele>599.313</ele>
        <time>2022-07-08T17:54:06Z</time>
      </trkpt>
      <trkpt lat="42.719160" lon="-2.737509">
        <ele>599.510</ele>
        <time>2022-07-08T17:54:07Z</time>
      </trkpt>
      <trkpt lat="42.719114" lon="-2.737468">
        <ele>599.786</ele>
        <time>2022-07-08T17:54:08Z</time>
      </trkpt>
      <trkpt lat="42.719061" lon="-2.737410">
        <ele>599.812</ele>
        <time>2022-07-08T17:54:10Z</time>
      </trkpt>
      <trkpt lat="42.719013" lon="-2.737330">
        <ele>600.238</ele>
        <time>2022-07-08T17:54:12Z</time>
      </trkpt>
      <trkpt lat="42.718973" lon="-2.737299">
        <ele>600.528</ele>
        <time>2022-07-08T17:54:13Z</time>
      </trkpt>
      <trkpt lat="42.718910" lon="-2.737245">
        <ele>600.715</ele>
        <time>2022-07-08T17:54:15Z</time>
      </trkpt>
      <trkpt lat="42.718843" lon="-2.737188">
        <ele>600.927</ele>
        <time>2022-07-08T17:54:17Z</time>
      </trkpt>
      <trkpt lat="42.718765" lon="-2.737133">
        <ele>601.431</ele>
        <time>2022-07-08T17:54:19Z</time>
      </trkpt>
      <trkpt lat="42.718702" lon="-2.737091">
        <ele>601.961</ele>
        <time>2022-07-08T17:54:21Z</time>
      </trkpt>
      <trkpt lat="42.718630" lon="-2.737055">
        <ele>602.307</ele>
        <time>2022-07-08T17:54:23Z</time>
      </trkpt>
      <trkpt lat="42.718561" lon="-2.737017">
        <ele>602.709</ele>
        <time>2022-07-08T17:54:25Z</time>
      </trkpt>
      <trkpt lat="42.718486" lon="-2.736969">
        <ele>603.054</ele>
        <time>2022-07-08T17:54:27Z</time>
      </trkpt>
      <trkpt lat="42.718410" lon="-2.736928">
        <ele>603.323</ele>
        <time>2022-07-08T17:54:29Z</time>
      </trkpt>
      <trkpt lat="42.718337" lon="-2.736903">
        <ele>603.750</ele>
        <time>2022-07-08T17:54:31Z</time>
      </trkpt>
      <trkpt lat="42.718261" lon="-2.736879">
        <ele>604.096</ele>
        <time>2022-07-08T17:54:33Z</time>
      </trkpt>
      <trkpt lat="42.718181" lon="-2.736865">
        <ele>604.392</ele>
        <time>2022-07-08T17:54:35Z</time>
      </trkpt>
      <trkpt lat="42.718133" lon="-2.736872">
        <ele>604.548</ele>
        <time>2022-07-08T17:54:36Z</time>
      </trkpt>
      <trkpt lat="42.718048" lon="-2.736880">
        <ele>604.518</ele>
        <time>2022-07-08T17:54:38Z</time>
      </trkpt>
      <trkpt lat="42.717988" lon="-2.736894">
        <ele>604.515</ele>
        <time>2022-07-08T17:54:39Z</time>
      </trkpt>
      <trkpt lat="42.717930" lon="-2.736918">
        <ele>604.537</ele>
        <time>2022-07-08T17:54:40Z</time>
      </trkpt>
      <trkpt lat="42.717872" lon="-2.736943">
        <ele>604.529</ele>
        <time>2022-07-08T17:54:41Z</time>
      </trkpt>
      <trkpt lat="42.717823" lon="-2.736990">
        <ele>604.200</ele>
        <time>2022-07-08T17:54:42Z</time>
      </trkpt>
      <trkpt lat="42.717777" lon="-2.737040">
        <ele>604.020</ele>
        <time>2022-07-08T17:54:43Z</time>
      </trkpt>
      <trkpt lat="42.717716" lon="-2.737078">
        <ele>603.709</ele>
        <time>2022-07-08T17:54:44Z</time>
      </trkpt>
      <trkpt lat="42.717653" lon="-2.737138">
        <ele>603.523</ele>
        <time>2022-07-08T17:54:45Z</time>
      </trkpt>
      <trkpt lat="42.717601" lon="-2.737200">
        <ele>603.112</ele>
        <time>2022-07-08T17:54:46Z</time>
      </trkpt>
      <trkpt lat="42.717544" lon="-2.737274">
        <ele>602.989</ele>
        <time>2022-07-08T17:54:47Z</time>
      </trkpt>
      <trkpt lat="42.717468" lon="-2.737323">
        <ele>602.735</ele>
        <time>2022-07-08T17:54:48Z</time>
      </trkpt>
      <trkpt lat="42.717403" lon="-2.737385">
        <ele>602.481</ele>
        <time>2022-07-08T17:54:49Z</time>
      </trkpt>
      <trkpt lat="42.717340" lon="-2.737447">
        <ele>602.037</ele>
        <time>2022-07-08T17:54:50Z</time>
      </trkpt>
      <trkpt lat="42.717301" lon="-2.737510">
        <ele>601.697</ele>
        <time>2022-07-08T17:54:51Z</time>
      </trkpt>
      <trkpt lat="42.717265" lon="-2.737579">
        <ele>601.394</ele>
        <time>2022-07-08T17:54:52Z</time>
      </trkpt>
      <trkpt lat="42.717246" lon="-2.737635">
        <ele>601.236</ele>
        <time>2022-07-08T17:54:53Z</time>
      </trkpt>
      <trkpt lat="42.717219" lon="-2.737689">
        <ele>601.183</ele>
        <time>2022-07-08T17:54:54Z</time>
      </trkpt>
      <trkpt lat="42.717186" lon="-2.737736">
        <ele>601.125</ele>
        <time>2022-07-08T17:54:55Z</time>
      </trkpt>
      <trkpt lat="42.717133" lon="-2.737816">
        <ele>601.117</ele>
        <time>2022-07-08T17:54:57Z</time>
      </trkpt>
      <trkpt lat="42.717103" lon="-2.737865">
        <ele>601.109</ele>
        <time>2022-07-08T17:54:58Z</time>
      </trkpt>
      <trkpt lat="42.717047" lon="-2.737948">
        <ele>601.699</ele>
        <time>2022-07-08T17:55:00Z</time>
      </trkpt>
      <trkpt lat="42.716990" lon="-2.738010">
        <ele>602.218</ele>
        <time>2022-07-08T17:55:02Z</time>
      </trkpt>
      <trkpt lat="42.716933" lon="-2.738064">
        <ele>602.585</ele>
        <time>2022-07-08T17:55:04Z</time>
      </trkpt>
      <trkpt lat="42.716864" lon="-2.738107">
        <ele>602.811</ele>
        <time>2022-07-08T17:55:06Z</time>
      </trkpt>
      <trkpt lat="42.716800" lon="-2.738151">
        <ele>603.327</ele>
        <time>2022-07-08T17:55:08Z</time>
      </trkpt>
      <trkpt lat="42.716745" lon="-2.738199">
        <ele>603.973</ele>
        <time>2022-07-08T17:55:10Z</time>
      </trkpt>
      <trkpt lat="42.716703" lon="-2.738249">
        <ele>604.213</ele>
        <time>2022-07-08T17:55:12Z</time>
      </trkpt>
      <trkpt lat="42.716665" lon="-2.738295">
        <ele>604.920</ele>
        <time>2022-07-08T17:55:14Z</time>
      </trkpt>
      <trkpt lat="42.716623" lon="-2.738333">
        <ele>605.162</ele>
        <time>2022-07-08T17:55:16Z</time>
      </trkpt>
      <trkpt lat="42.716574" lon="-2.738382">
        <ele>605.586</ele>
        <time>2022-07-08T17:55:18Z</time>
      </trkpt>
      <trkpt lat="42.716533" lon="-2.738434">
        <ele>606.260</ele>
        <time>2022-07-08T17:55:20Z</time>
      </trkpt>
      <trkpt lat="42.716488" lon="-2.738490">
        <ele>606.626</ele>
        <time>2022-07-08T17:55:22Z</time>
      </trkpt>
      <trkpt lat="42.716433" lon="-2.738540">
        <ele>607.109</ele>
        <time>2022-07-08T17:55:24Z</time>
      </trkpt>
      <trkpt lat="42.716367" lon="-2.738565">
        <ele>607.419</ele>
        <time>2022-07-08T17:55:26Z</time>
      </trkpt>
      <trkpt lat="42.716308" lon="-2.738571">
        <ele>608.028</ele>
        <time>2022-07-08T17:55:28Z</time>
      </trkpt>
      <trkpt lat="42.716250" lon="-2.738568">
        <ele>608.775</ele>
        <time>2022-07-08T17:55:30Z</time>
      </trkpt>
      <trkpt lat="42.716178" lon="-2.738560">
        <ele>609.051</ele>
        <time>2022-07-08T17:55:32Z</time>
      </trkpt>
      <trkpt lat="42.716100" lon="-2.738555">
        <ele>609.177</ele>
        <time>2022-07-08T17:55:34Z</time>
      </trkpt>
      <trkpt lat="42.716025" lon="-2.738551">
        <ele>609.323</ele>
        <time>2022-07-08T17:55:36Z</time>
      </trkpt>
      <trkpt lat="42.715963" lon="-2.738539">
        <ele>609.663</ele>
        <time>2022-07-08T17:55:38Z</time>
      </trkpt>
      <trkpt lat="42.715913" lon="-2.738509">
        <ele>610.030</ele>
        <time>2022-07-08T17:55:40Z</time>
      </trkpt>
      <trkpt lat="42.715869" lon="-2.738456">
        <ele>610.222</ele>
        <time>2022-07-08T17:55:42Z</time>
      </trkpt>
      <trkpt lat="42.715827" lon="-2.738389">
        <ele>610.513</ele>
        <time>2022-07-08T17:55:44Z</time>
      </trkpt>
      <trkpt lat="42.715812" lon="-2.738311">
        <ele>610.743</ele>
        <time>2022-07-08T17:55:46Z</time>
      </trkpt>
      <trkpt lat="42.715818" lon="-2.738232">
        <ele>611.007</ele>
        <time>2022-07-08T17:55:48Z</time>
      </trkpt>
      <trkpt lat="42.715824" lon="-2.738162">
        <ele>611.609</ele>
        <time>2022-07-08T17:55:50Z</time>
      </trkpt>
      <trkpt lat="42.715832" lon="-2.738075">
        <ele>612.172</ele>
        <time>2022-07-08T17:55:53Z</time>
      </trkpt>
      <trkpt lat="42.715836" lon="-2.737987">
        <ele>612.461</ele>
        <time>2022-07-08T17:55:56Z</time>
      </trkpt>
      <trkpt lat="42.715843" lon="-2.737897">
        <ele>613.178</ele>
        <time>2022-07-08T17:55:59Z</time>
      </trkpt>
      <trkpt lat="42.715853" lon="-2.737810">
        <ele>613.524</ele>
        <time>2022-07-08T17:56:02Z</time>
      </trkpt>
      <trkpt lat="42.715854" lon="-2.737740">
        <ele>614.050</ele>
        <time>2022-07-08T17:56:05Z</time>
      </trkpt>
      <trkpt lat="42.715854" lon="-2.737669">
        <ele>615.086</ele>
        <time>2022-07-08T17:56:08Z</time>
      </trkpt>
      <trkpt lat="42.715872" lon="-2.737583">
        <ele>615.426</ele>
        <time>2022-07-08T17:56:11Z</time>
      </trkpt>
      <trkpt lat="42.715881" lon="-2.737510">
        <ele>615.983</ele>
        <time>2022-07-08T17:56:14Z</time>
      </trkpt>
      <trkpt lat="42.715899" lon="-2.737444">
        <ele>616.295</ele>
        <time>2022-07-08T17:56:17Z</time>
      </trkpt>
      <trkpt lat="42.715917" lon="-2.737366">
        <ele>616.755</ele>
        <time>2022-07-08T17:56:20Z</time>
      </trkpt>
      <trkpt lat="42.715923" lon="-2.737289">
        <ele>617.507</ele>
        <time>2022-07-08T17:56:23Z</time>
      </trkpt>
      <trkpt lat="42.715921" lon="-2.737220">
        <ele>618.217</ele>
        <time>2022-07-08T17:56:26Z</time>
      </trkpt>
      <trkpt lat="42.715908" lon="-2.737142">
        <ele>618.909</ele>
        <time>2022-07-08T17:56:30Z</time>
      </trkpt>
      <trkpt lat="42.715895" lon="-2.737074">
        <ele>619.796</ele>
        <time>2022-07-08T17:56:34Z</time>
      </trkpt>
      <trkpt lat="42.715894" lon="-2.736999">
        <ele>620.445</ele>
        <time>2022-07-08T17:56:37Z</time>
      </trkpt>
      <trkpt lat="42.715885" lon="-2.736933">
        <ele>620.612</ele>
        <time>2022-07-08T17:56:39Z</time>
      </trkpt>
      <trkpt lat="42.715874" lon="-2.736871">
        <ele>620.968</ele>
        <time>2022-07-08T17:56:41Z</time>
      </trkpt>
      <trkpt lat="42.715857" lon="-2.736789">
        <ele>621.114</ele>
        <time>2022-07-08T17:56:44Z</time>
      </trkpt>
      <trkpt lat="42.715846" lon="-2.736706">
        <ele>621.590</ele>
        <time>2022-07-08T17:56:47Z</time>
      </trkpt>
      <trkpt lat="42.715855" lon="-2.736638">
        <ele>622.330</ele>
        <time>2022-07-08T17:56:49Z</time>
      </trkpt>
      <trkpt lat="42.715863" lon="-2.736578">
        <ele>622.887</ele>
        <time>2022-07-08T17:56:51Z</time>
      </trkpt>
      <trkpt lat="42.715857" lon="-2.736506">
        <ele>623.599</ele>
        <time>2022-07-08T17:56:53Z</time>
      </trkpt>
      <trkpt lat="42.715844" lon="-2.736427">
        <ele>623.925</ele>
        <time>2022-07-08T17:56:55Z</time>
      </trkpt>
      <trkpt lat="42.715827" lon="-2.736346">
        <ele>624.326</ele>
        <time>2022-07-08T17:56:57Z</time>
      </trkpt>
      <trkpt lat="42.715817" lon="-2.736248">
        <ele>624.508</ele>
        <time>2022-07-08T17:56:59Z</time>
      </trkpt>
      <trkpt lat="42.715801" lon="-2.736144">
        <ele>624.509</ele>
        <time>2022-07-08T17:57:01Z</time>
      </trkpt>
      <trkpt lat="42.715745" lon="-2.736085">
        <ele>624.513</ele>
        <time>2022-07-08T17:57:03Z</time>
      </trkpt>
      <trkpt lat="42.715678" lon="-2.736106">
        <ele>624.342</ele>
        <time>2022-07-08T17:57:05Z</time>
      </trkpt>
      <trkpt lat="42.715619" lon="-2.736152">
        <ele>623.819</ele>
        <time>2022-07-08T17:57:07Z</time>
      </trkpt>
      <trkpt lat="42.715560" lon="-2.736188">
        <ele>623.395</ele>
        <time>2022-07-08T17:57:09Z</time>
      </trkpt>
      <trkpt lat="42.715498" lon="-2.736206">
        <ele>623.471</ele>
        <time>2022-07-08T17:57:11Z</time>
      </trkpt>
      <trkpt lat="42.715426" lon="-2.736208">
        <ele>623.497</ele>
        <time>2022-07-08T17:57:13Z</time>
      </trkpt>
      <trkpt lat="42.715352" lon="-2.736214">
        <ele>623.497</ele>
        <time>2022-07-08T17:57:15Z</time>
      </trkpt>
      <trkpt lat="42.715295" lon="-2.736233">
        <ele>623.454</ele>
        <time>2022-07-08T17:57:18Z</time>
      </trkpt>
      <trkpt lat="42.715230" lon="-2.736252">
        <ele>624.186</ele>
        <time>2022-07-08T17:57:21Z</time>
      </trkpt>
      <trkpt lat="42.715165" lon="-2.736240">
        <ele>624.417</ele>
        <time>2022-07-08T17:57:23Z</time>
      </trkpt>
      <trkpt lat="42.715099" lon="-2.736222">
        <ele>624.887</ele>
        <time>2022-07-08T17:57:25Z</time>
      </trkpt>
      <trkpt lat="42.715035" lon="-2.736209">
        <ele>625.115</ele>
        <time>2022-07-08T17:57:27Z</time>
      </trkpt>
      <trkpt lat="42.714979" lon="-2.736201">
        <ele>625.109</ele>
        <time>2022-07-08T17:57:29Z</time>
      </trkpt>
      <trkpt lat="42.714914" lon="-2.736189">
        <ele>625.432</ele>
        <time>2022-07-08T17:57:31Z</time>
      </trkpt>
      <trkpt lat="42.714843" lon="-2.736176">
        <ele>625.531</ele>
        <time>2022-07-08T17:57:33Z</time>
      </trkpt>
      <trkpt lat="42.714773" lon="-2.736155">
        <ele>625.518</ele>
        <time>2022-07-08T17:57:35Z</time>
      </trkpt>
      <trkpt lat="42.714725" lon="-2.736138">
        <ele>625.624</ele>
        <time>2022-07-08T17:57:37Z</time>
      </trkpt>
      <trkpt lat="42.714672" lon="-2.736134">
        <ele>625.940</ele>
        <time>2022-07-08T17:57:39Z</time>
      </trkpt>
      <trkpt lat="42.714624" lon="-2.736139">
        <ele>626.326</ele>
        <time>2022-07-08T17:57:41Z</time>
      </trkpt>
      <trkpt lat="42.714575" lon="-2.736143">
        <ele>627.046</ele>
        <time>2022-07-08T17:57:43Z</time>
      </trkpt>
      <trkpt lat="42.714520" lon="-2.736165">
        <ele>627.483</ele>
        <time>2022-07-08T17:57:45Z</time>
      </trkpt>
      <trkpt lat="42.714464" lon="-2.736198">
        <ele>628.165</ele>
        <time>2022-07-08T17:57:47Z</time>
      </trkpt>
      <trkpt lat="42.714402" lon="-2.736231">
        <ele>628.926</ele>
        <time>2022-07-08T17:57:49Z</time>
      </trkpt>
      <trkpt lat="42.714347" lon="-2.736269">
        <ele>629.347</ele>
        <time>2022-07-08T17:57:51Z</time>
      </trkpt>
      <trkpt lat="42.714288" lon="-2.736304">
        <ele>630.011</ele>
        <time>2022-07-08T17:57:53Z</time>
      </trkpt>
      <trkpt lat="42.714233" lon="-2.736337">
        <ele>630.109</ele>
        <time>2022-07-08T17:57:55Z</time>
      </trkpt>
      <trkpt lat="42.714185" lon="-2.736367">
        <ele>630.683</ele>
        <time>2022-07-08T17:57:57Z</time>
      </trkpt>
      <trkpt lat="42.714140" lon="-2.736396">
        <ele>631.372</ele>
        <time>2022-07-08T17:57:59Z</time>
      </trkpt>
      <trkpt lat="42.714093" lon="-2.736429">
        <ele>631.989</ele>
        <time>2022-07-08T17:58:01Z</time>
      </trkpt>
      <trkpt lat="42.714045" lon="-2.736458">
        <ele>632.065</ele>
        <time>2022-07-08T17:58:03Z</time>
      </trkpt>
      <trkpt lat="42.713995" lon="-2.736487">
        <ele>632.431</ele>
        <time>2022-07-08T17:58:05Z</time>
      </trkpt>
      <trkpt lat="42.713948" lon="-2.736522">
        <ele>632.967</ele>
        <time>2022-07-08T17:58:07Z</time>
      </trkpt>
      <trkpt lat="42.713917" lon="-2.736571">
        <ele>633.427</ele>
        <time>2022-07-08T17:58:09Z</time>
      </trkpt>
      <trkpt lat="42.713886" lon="-2.736633">
        <ele>633.894</ele>
        <time>2022-07-08T17:58:11Z</time>
      </trkpt>
      <trkpt lat="42.713869" lon="-2.736697">
        <ele>634.336</ele>
        <time>2022-07-08T17:58:13Z</time>
      </trkpt>
      <trkpt lat="42.713856" lon="-2.736762">
        <ele>634.997</ele>
        <time>2022-07-08T17:58:15Z</time>
      </trkpt>
      <trkpt lat="42.713837" lon="-2.736829">
        <ele>635.423</ele>
        <time>2022-07-08T17:58:17Z</time>
      </trkpt>
      <trkpt lat="42.713813" lon="-2.736900">
        <ele>635.725</ele>
        <time>2022-07-08T17:58:19Z</time>
      </trkpt>
      <trkpt lat="42.713792" lon="-2.736969">
        <ele>636.109</ele>
        <time>2022-07-08T17:58:21Z</time>
      </trkpt>
      <trkpt lat="42.713769" lon="-2.737031">
        <ele>636.750</ele>
        <time>2022-07-08T17:58:23Z</time>
      </trkpt>
      <trkpt lat="42.713747" lon="-2.737085">
        <ele>637.339</ele>
        <time>2022-07-08T17:58:25Z</time>
      </trkpt>
      <trkpt lat="42.713724" lon="-2.737160">
        <ele>637.816</ele>
        <time>2022-07-08T17:58:27Z</time>
      </trkpt>
      <trkpt lat="42.713706" lon="-2.737221">
        <ele>638.272</ele>
        <time>2022-07-08T17:58:29Z</time>
      </trkpt>
      <trkpt lat="42.713681" lon="-2.737292">
        <ele>638.688</ele>
        <time>2022-07-08T17:58:32Z</time>
      </trkpt>
      <trkpt lat="42.713665" lon="-2.737356">
        <ele>639.024</ele>
        <time>2022-07-08T17:58:34Z</time>
      </trkpt>
      <trkpt lat="42.713643" lon="-2.737433">
        <ele>640.074</ele>
        <time>2022-07-08T17:58:36Z</time>
      </trkpt>
      <trkpt lat="42.713623" lon="-2.737514">
        <ele>640.571</ele>
        <time>2022-07-08T17:58:38Z</time>
      </trkpt>
      <trkpt lat="42.713597" lon="-2.737570">
        <ele>641.063</ele>
        <time>2022-07-08T17:58:40Z</time>
      </trkpt>
      <trkpt lat="42.713558" lon="-2.737611">
        <ele>641.241</ele>
        <time>2022-07-08T17:58:42Z</time>
      </trkpt>
      <trkpt lat="42.713514" lon="-2.737657">
        <ele>641.681</ele>
        <time>2022-07-08T17:58:44Z</time>
      </trkpt>
      <trkpt lat="42.713471" lon="-2.737707">
        <ele>641.909</ele>
        <time>2022-07-08T17:58:46Z</time>
      </trkpt>
      <trkpt lat="42.713432" lon="-2.737769">
        <ele>642.209</ele>
        <time>2022-07-08T17:58:48Z</time>
      </trkpt>
      <trkpt lat="42.713398" lon="-2.737827">
        <ele>642.525</ele>
        <time>2022-07-08T17:58:50Z</time>
      </trkpt>
      <trkpt lat="42.713360" lon="-2.737878">
        <ele>642.774</ele>
        <time>2022-07-08T17:58:52Z</time>
      </trkpt>
      <trkpt lat="42.713325" lon="-2.737925">
        <ele>643.131</ele>
        <time>2022-07-08T17:58:54Z</time>
      </trkpt>
      <trkpt lat="42.713285" lon="-2.737995">
        <ele>643.597</ele>
        <time>2022-07-08T17:58:57Z</time>
      </trkpt>
      <trkpt lat="42.713252" lon="-2.738057">
        <ele>643.823</ele>
        <time>2022-07-08T17:58:59Z</time>
      </trkpt>
      <trkpt lat="42.713215" lon="-2.738102">
        <ele>644.499</ele>
        <time>2022-07-08T17:59:01Z</time>
      </trkpt>
      <trkpt lat="42.713159" lon="-2.738151">
        <ele>644.939</ele>
        <time>2022-07-08T17:59:04Z</time>
      </trkpt>
      <trkpt lat="42.713117" lon="-2.738210">
        <ele>645.526</ele>
        <time>2022-07-08T17:59:07Z</time>
      </trkpt>
      <trkpt lat="42.713082" lon="-2.738249">
        <ele>645.968</ele>
        <time>2022-07-08T17:59:09Z</time>
      </trkpt>
      <trkpt lat="42.713041" lon="-2.738286">
        <ele>646.445</ele>
        <time>2022-07-08T17:59:11Z</time>
      </trkpt>
      <trkpt lat="42.713001" lon="-2.738329">
        <ele>646.847</ele>
        <time>2022-07-08T17:59:13Z</time>
      </trkpt>
      <trkpt lat="42.712962" lon="-2.738378">
        <ele>647.011</ele>
        <time>2022-07-08T17:59:15Z</time>
      </trkpt>
      <trkpt lat="42.712917" lon="-2.738448">
        <ele>647.309</ele>
        <time>2022-07-08T17:59:17Z</time>
      </trkpt>
      <trkpt lat="42.712877" lon="-2.738511">
        <ele>647.735</ele>
        <time>2022-07-08T17:59:19Z</time>
      </trkpt>
      <trkpt lat="42.712837" lon="-2.738565">
        <ele>648.154</ele>
        <time>2022-07-08T17:59:21Z</time>
      </trkpt>
      <trkpt lat="42.712799" lon="-2.738616">
        <ele>648.491</ele>
        <time>2022-07-08T17:59:23Z</time>
      </trkpt>
      <trkpt lat="42.712761" lon="-2.738660">
        <ele>648.557</ele>
        <time>2022-07-08T17:59:25Z</time>
      </trkpt>
      <trkpt lat="42.712725" lon="-2.738705">
        <ele>648.643</ele>
        <time>2022-07-08T17:59:27Z</time>
      </trkpt>
      <trkpt lat="42.712690" lon="-2.738744">
        <ele>648.929</ele>
        <time>2022-07-08T17:59:29Z</time>
      </trkpt>
      <trkpt lat="42.712646" lon="-2.738774">
        <ele>649.359</ele>
        <time>2022-07-08T17:59:31Z</time>
      </trkpt>
      <trkpt lat="42.712600" lon="-2.738812">
        <ele>649.626</ele>
        <time>2022-07-08T17:59:33Z</time>
      </trkpt>
      <trkpt lat="42.712554" lon="-2.738854">
        <ele>649.928</ele>
        <time>2022-07-08T17:59:35Z</time>
      </trkpt>
      <trkpt lat="42.712505" lon="-2.738902">
        <ele>650.274</ele>
        <time>2022-07-08T17:59:37Z</time>
      </trkpt>
      <trkpt lat="42.712459" lon="-2.738955">
        <ele>650.656</ele>
        <time>2022-07-08T17:59:39Z</time>
      </trkpt>
      <trkpt lat="42.712412" lon="-2.739010">
        <ele>650.621</ele>
        <time>2022-07-08T17:59:41Z</time>
      </trkpt>
      <trkpt lat="42.712362" lon="-2.739061">
        <ele>650.709</ele>
        <time>2022-07-08T17:59:43Z</time>
      </trkpt>
      <trkpt lat="42.712305" lon="-2.739110">
        <ele>650.978</ele>
        <time>2022-07-08T17:59:45Z</time>
      </trkpt>
      <trkpt lat="42.712246" lon="-2.739154">
        <ele>651.227</ele>
        <time>2022-07-08T17:59:47Z</time>
      </trkpt>
      <trkpt lat="42.712190" lon="-2.739188">
        <ele>651.594</ele>
        <time>2022-07-08T17:59:49Z</time>
      </trkpt>
      <trkpt lat="42.712129" lon="-2.739208">
        <ele>651.760</ele>
        <time>2022-07-08T17:59:51Z</time>
      </trkpt>
      <trkpt lat="42.712064" lon="-2.739222">
        <ele>652.016</ele>
        <time>2022-07-08T17:59:53Z</time>
      </trkpt>
      <trkpt lat="42.712003" lon="-2.739223">
        <ele>652.382</ele>
        <time>2022-07-08T17:59:55Z</time>
      </trkpt>
      <trkpt lat="42.711929" lon="-2.739227">
        <ele>652.542</ele>
        <time>2022-07-08T17:59:57Z</time>
      </trkpt>
      <trkpt lat="42.711864" lon="-2.739243">
        <ele>652.729</ele>
        <time>2022-07-08T17:59:59Z</time>
      </trkpt>
      <trkpt lat="42.711804" lon="-2.739268">
        <ele>652.891</ele>
        <time>2022-07-08T18:00:01Z</time>
      </trkpt>
      <trkpt lat="42.711742" lon="-2.739300">
        <ele>653.086</ele>
        <time>2022-07-08T18:00:03Z</time>
      </trkpt>
      <trkpt lat="42.711709" lon="-2.739345">
        <ele>653.260</ele>
        <time>2022-07-08T18:00:05Z</time>
      </trkpt>
      <trkpt lat="42.711675" lon="-2.739400">
        <ele>653.526</ele>
        <time>2022-07-08T18:00:07Z</time>
      </trkpt>
      <trkpt lat="42.711654" lon="-2.739454">
        <ele>653.909</ele>
        <time>2022-07-08T18:00:09Z</time>
      </trkpt>
      <trkpt lat="42.711618" lon="-2.739523">
        <ele>654.519</ele>
        <time>2022-07-08T18:00:12Z</time>
      </trkpt>
      <trkpt lat="42.711586" lon="-2.739586">
        <ele>654.698</ele>
        <time>2022-07-08T18:00:14Z</time>
      </trkpt>
      <trkpt lat="42.711555" lon="-2.739645">
        <ele>655.225</ele>
        <time>2022-07-08T18:00:16Z</time>
      </trkpt>
      <trkpt lat="42.711524" lon="-2.739696">
        <ele>655.451</ele>
        <time>2022-07-08T18:00:18Z</time>
      </trkpt>
      <trkpt lat="42.711482" lon="-2.739760">
        <ele>655.897</ele>
        <time>2022-07-08T18:00:20Z</time>
      </trkpt>
      <trkpt lat="42.711430" lon="-2.739813">
        <ele>656.083</ele>
        <time>2022-07-08T18:00:23Z</time>
      </trkpt>
      <trkpt lat="42.711390" lon="-2.739849">
        <ele>656.543</ele>
        <time>2022-07-08T18:00:25Z</time>
      </trkpt>
      <trkpt lat="42.711331" lon="-2.739891">
        <ele>657.070</ele>
        <time>2022-07-08T18:00:27Z</time>
      </trkpt>
      <trkpt lat="42.711264" lon="-2.739921">
        <ele>657.432</ele>
        <time>2022-07-08T18:00:29Z</time>
      </trkpt>
      <trkpt lat="42.711194" lon="-2.739930">
        <ele>657.997</ele>
        <time>2022-07-08T18:00:31Z</time>
      </trkpt>
      <trkpt lat="42.711123" lon="-2.739922">
        <ele>658.423</ele>
        <time>2022-07-08T18:00:33Z</time>
      </trkpt>
      <trkpt lat="42.711056" lon="-2.739898">
        <ele>658.625</ele>
        <time>2022-07-08T18:00:35Z</time>
      </trkpt>
      <trkpt lat="42.710993" lon="-2.739870">
        <ele>658.609</ele>
        <time>2022-07-08T18:00:37Z</time>
      </trkpt>
      <trkpt lat="42.710923" lon="-2.739848">
        <ele>658.670</ele>
        <time>2022-07-08T18:00:39Z</time>
      </trkpt>
      <trkpt lat="42.710852" lon="-2.739830">
        <ele>658.669</ele>
        <time>2022-07-08T18:00:41Z</time>
      </trkpt>
      <trkpt lat="42.710780" lon="-2.739823">
        <ele>658.686</ele>
        <time>2022-07-08T18:00:43Z</time>
      </trkpt>
      <trkpt lat="42.710703" lon="-2.739834">
        <ele>658.672</ele>
        <time>2022-07-08T18:00:45Z</time>
      </trkpt>
      <trkpt lat="42.710634" lon="-2.739849">
        <ele>658.778</ele>
        <time>2022-07-08T18:00:47Z</time>
      </trkpt>
      <trkpt lat="42.710571" lon="-2.739871">
        <ele>658.994</ele>
        <time>2022-07-08T18:00:49Z</time>
      </trkpt>
      <trkpt lat="42.710522" lon="-2.739913">
        <ele>659.244</ele>
        <time>2022-07-08T18:00:51Z</time>
      </trkpt>
      <trkpt lat="42.710485" lon="-2.739971">
        <ele>659.421</ele>
        <time>2022-07-08T18:00:53Z</time>
      </trkpt>
      <trkpt lat="42.710463" lon="-2.740025">
        <ele>659.733</ele>
        <time>2022-07-08T18:00:55Z</time>
      </trkpt>
      <trkpt lat="42.710436" lon="-2.740085">
        <ele>660.154</ele>
        <time>2022-07-08T18:00:57Z</time>
      </trkpt>
      <trkpt lat="42.710399" lon="-2.740166">
        <ele>660.356</ele>
        <time>2022-07-08T18:00:59Z</time>
      </trkpt>
      <trkpt lat="42.710363" lon="-2.740230">
        <ele>660.811</ele>
        <time>2022-07-08T18:01:01Z</time>
      </trkpt>
      <trkpt lat="42.710323" lon="-2.740289">
        <ele>661.109</ele>
        <time>2022-07-08T18:01:03Z</time>
      </trkpt>
      <trkpt lat="42.710283" lon="-2.740346">
        <ele>661.556</ele>
        <time>2022-07-08T18:01:05Z</time>
      </trkpt>
      <trkpt lat="42.710240" lon="-2.740408">
        <ele>662.295</ele>
        <time>2022-07-08T18:01:07Z</time>
      </trkpt>
      <trkpt lat="42.710196" lon="-2.740471">
        <ele>662.772</ele>
        <time>2022-07-08T18:01:09Z</time>
      </trkpt>
      <trkpt lat="42.710146" lon="-2.740529">
        <ele>663.128</ele>
        <time>2022-07-08T18:01:11Z</time>
      </trkpt>
      <trkpt lat="42.710092" lon="-2.740587">
        <ele>663.254</ele>
        <time>2022-07-08T18:01:13Z</time>
      </trkpt>
      <trkpt lat="42.710039" lon="-2.740643">
        <ele>663.530</ele>
        <time>2022-07-08T18:01:15Z</time>
      </trkpt>
      <trkpt lat="42.709978" lon="-2.740695">
        <ele>663.690</ele>
        <time>2022-07-08T18:01:17Z</time>
      </trkpt>
      <trkpt lat="42.709920" lon="-2.740748">
        <ele>663.787</ele>
        <time>2022-07-08T18:01:19Z</time>
      </trkpt>
      <trkpt lat="42.709864" lon="-2.740806">
        <ele>663.929</ele>
        <time>2022-07-08T18:01:21Z</time>
      </trkpt>
      <trkpt lat="42.709806" lon="-2.740872">
        <ele>664.281</ele>
        <time>2022-07-08T18:01:23Z</time>
      </trkpt>
      <trkpt lat="42.709743" lon="-2.740943">
        <ele>664.461</ele>
        <time>2022-07-08T18:01:25Z</time>
      </trkpt>
      <trkpt lat="42.709700" lon="-2.741023">
        <ele>664.417</ele>
        <time>2022-07-08T18:01:27Z</time>
      </trkpt>
      <trkpt lat="42.709667" lon="-2.741094">
        <ele>664.409</ele>
        <time>2022-07-08T18:01:29Z</time>
      </trkpt>
      <trkpt lat="42.709619" lon="-2.741157">
        <ele>664.369</ele>
        <time>2022-07-08T18:01:31Z</time>
      </trkpt>
      <trkpt lat="42.709552" lon="-2.741221">
        <ele>664.168</ele>
        <time>2022-07-08T18:01:33Z</time>
      </trkpt>
      <trkpt lat="42.709485" lon="-2.741284">
        <ele>663.925</ele>
        <time>2022-07-08T18:01:35Z</time>
      </trkpt>
      <trkpt lat="42.709434" lon="-2.741362">
        <ele>663.911</ele>
        <time>2022-07-08T18:01:37Z</time>
      </trkpt>
      <trkpt lat="42.709383" lon="-2.741438">
        <ele>663.997</ele>
        <time>2022-07-08T18:01:39Z</time>
      </trkpt>
      <trkpt lat="42.709335" lon="-2.741514">
        <ele>664.043</ele>
        <time>2022-07-08T18:01:41Z</time>
      </trkpt>
      <trkpt lat="42.709282" lon="-2.741595">
        <ele>664.163</ele>
        <time>2022-07-08T18:01:43Z</time>
      </trkpt>
      <trkpt lat="42.709232" lon="-2.741629">
        <ele>664.290</ele>
        <time>2022-07-08T18:01:44Z</time>
      </trkpt>
      <trkpt lat="42.709181" lon="-2.741733">
        <ele>664.352</ele>
        <time>2022-07-08T18:01:46Z</time>
      </trkpt>
      <trkpt lat="42.709156" lon="-2.741788">
        <ele>664.433</ele>
        <time>2022-07-08T18:01:47Z</time>
      </trkpt>
      <trkpt lat="42.709118" lon="-2.741822">
        <ele>664.423</ele>
        <time>2022-07-08T18:01:48Z</time>
      </trkpt>
      <trkpt lat="42.709051" lon="-2.741840">
        <ele>664.415</ele>
        <time>2022-07-08T18:01:50Z</time>
      </trkpt>
      <trkpt lat="42.708991" lon="-2.741881">
        <ele>664.409</ele>
        <time>2022-07-08T18:01:52Z</time>
      </trkpt>
      <trkpt lat="42.708931" lon="-2.741936">
        <ele>664.454</ele>
        <time>2022-07-08T18:01:54Z</time>
      </trkpt>
      <trkpt lat="42.708860" lon="-2.741945">
        <ele>664.423</ele>
        <time>2022-07-08T18:01:56Z</time>
      </trkpt>
      <trkpt lat="42.708804" lon="-2.741952">
        <ele>664.440</ele>
        <time>2022-07-08T18:01:58Z</time>
      </trkpt>
      <trkpt lat="42.708750" lon="-2.741965">
        <ele>664.986</ele>
        <time>2022-07-08T18:02:00Z</time>
      </trkpt>
      <trkpt lat="42.708697" lon="-2.741964">
        <ele>665.062</ele>
        <time>2022-07-08T18:02:02Z</time>
      </trkpt>
      <trkpt lat="42.708648" lon="-2.741969">
        <ele>665.478</ele>
        <time>2022-07-08T18:02:04Z</time>
      </trkpt>
      <trkpt lat="42.708599" lon="-2.741970">
        <ele>665.578</ele>
        <time>2022-07-08T18:02:06Z</time>
      </trkpt>
      <trkpt lat="42.708551" lon="-2.741960">
        <ele>665.985</ele>
        <time>2022-07-08T18:02:08Z</time>
      </trkpt>
      <trkpt lat="42.708500" lon="-2.741972">
        <ele>666.357</ele>
        <time>2022-07-08T18:02:11Z</time>
      </trkpt>
      <trkpt lat="42.708461" lon="-2.742027">
        <ele>666.711</ele>
        <time>2022-07-08T18:02:15Z</time>
      </trkpt>
      <trkpt lat="42.708411" lon="-2.742077">
        <ele>667.421</ele>
        <time>2022-07-08T18:02:19Z</time>
      </trkpt>
      <trkpt lat="42.708344" lon="-2.742076">
        <ele>669.103</ele>
        <time>2022-07-08T18:02:22Z</time>
      </trkpt>
      <trkpt lat="42.708299" lon="-2.742054">
        <ele>670.009</ele>
        <time>2022-07-08T18:02:24Z</time>
      </trkpt>
      <trkpt lat="42.708258" lon="-2.741993">
        <ele>670.472</ele>
        <time>2022-07-08T18:02:27Z</time>
      </trkpt>
      <trkpt lat="42.708246" lon="-2.741930">
        <ele>670.831</ele>
        <time>2022-07-08T18:02:30Z</time>
      </trkpt>
      <trkpt lat="42.708251" lon="-2.741856">
        <ele>671.798</ele>
        <time>2022-07-08T18:02:34Z</time>
      </trkpt>
      <trkpt lat="42.708274" lon="-2.741780">
        <ele>672.644</ele>
        <time>2022-07-08T18:02:38Z</time>
      </trkpt>
      <trkpt lat="42.708286" lon="-2.741711">
        <ele>674.030</ele>
        <time>2022-07-08T18:02:41Z</time>
      </trkpt>
      <trkpt lat="42.708297" lon="-2.741631">
        <ele>674.826</ele>
        <time>2022-07-08T18:02:45Z</time>
      </trkpt>
      <trkpt lat="42.708288" lon="-2.741563">
        <ele>675.536</ele>
        <time>2022-07-08T18:02:48Z</time>
      </trkpt>
      <trkpt lat="42.708283" lon="-2.741472">
        <ele>676.053</ele>
        <time>2022-07-08T18:02:51Z</time>
      </trkpt>
      <trkpt lat="42.708281" lon="-2.741396">
        <ele>676.415</ele>
        <time>2022-07-08T18:02:54Z</time>
      </trkpt>
      <trkpt lat="42.708278" lon="-2.741316">
        <ele>677.242</ele>
        <time>2022-07-08T18:02:57Z</time>
      </trkpt>
      <trkpt lat="42.708277" lon="-2.741245">
        <ele>678.122</ele>
        <time>2022-07-08T18:03:00Z</time>
      </trkpt>
      <trkpt lat="42.708278" lon="-2.741166">
        <ele>678.614</ele>
        <time>2022-07-08T18:03:03Z</time>
      </trkpt>
      <trkpt lat="42.708285" lon="-2.741089">
        <ele>679.109</ele>
        <time>2022-07-08T18:03:06Z</time>
      </trkpt>
      <trkpt lat="42.708292" lon="-2.741009">
        <ele>679.415</ele>
        <time>2022-07-08T18:03:09Z</time>
      </trkpt>
      <trkpt lat="42.708299" lon="-2.740925">
        <ele>679.814</ele>
        <time>2022-07-08T18:03:12Z</time>
      </trkpt>
      <trkpt lat="42.708284" lon="-2.740860">
        <ele>680.571</ele>
        <time>2022-07-08T18:03:15Z</time>
      </trkpt>
      <trkpt lat="42.708251" lon="-2.740806">
        <ele>680.687</ele>
        <time>2022-07-08T18:03:18Z</time>
      </trkpt>
      <trkpt lat="42.708214" lon="-2.740768">
        <ele>680.823</ele>
        <time>2022-07-08T18:03:21Z</time>
      </trkpt>
      <trkpt lat="42.708168" lon="-2.740751">
        <ele>681.559</ele>
        <time>2022-07-08T18:03:24Z</time>
      </trkpt>
      <trkpt lat="42.708119" lon="-2.740772">
        <ele>682.369</ele>
        <time>2022-07-08T18:03:28Z</time>
      </trkpt>
      <trkpt lat="42.708086" lon="-2.740822">
        <ele>683.146</ele>
        <time>2022-07-08T18:03:31Z</time>
      </trkpt>
      <trkpt lat="42.708038" lon="-2.740869">
        <ele>684.278</ele>
        <time>2022-07-08T18:03:36Z</time>
      </trkpt>
      <trkpt lat="42.708003" lon="-2.740944">
        <ele>685.656</ele>
        <time>2022-07-08T18:03:40Z</time>
      </trkpt>
      <trkpt lat="42.707965" lon="-2.741016">
        <ele>686.759</ele>
        <time>2022-07-08T18:03:43Z</time>
      </trkpt>
      <trkpt lat="42.707928" lon="-2.741073">
        <ele>687.414</ele>
        <time>2022-07-08T18:03:46Z</time>
      </trkpt>
      <trkpt lat="42.707893" lon="-2.741134">
        <ele>687.909</ele>
        <time>2022-07-08T18:03:49Z</time>
      </trkpt>
      <trkpt lat="42.707862" lon="-2.741194">
        <ele>688.686</ele>
        <time>2022-07-08T18:03:52Z</time>
      </trkpt>
      <trkpt lat="42.707828" lon="-2.741270">
        <ele>688.725</ele>
        <time>2022-07-08T18:03:55Z</time>
      </trkpt>
      <trkpt lat="42.707794" lon="-2.741326">
        <ele>688.982</ele>
        <time>2022-07-08T18:03:58Z</time>
      </trkpt>
      <trkpt lat="42.707759" lon="-2.741368">
        <ele>689.378</ele>
        <time>2022-07-08T18:04:01Z</time>
      </trkpt>
      <trkpt lat="42.707726" lon="-2.741423">
        <ele>689.854</ele>
        <time>2022-07-08T18:04:04Z</time>
      </trkpt>
      <trkpt lat="42.707682" lon="-2.741484">
        <ele>690.260</ele>
        <time>2022-07-08T18:04:07Z</time>
      </trkpt>
      <trkpt lat="42.707645" lon="-2.741537">
        <ele>690.520</ele>
        <time>2022-07-08T18:04:10Z</time>
      </trkpt>
      <trkpt lat="42.707607" lon="-2.741589">
        <ele>691.047</ele>
        <time>2022-07-08T18:04:13Z</time>
      </trkpt>
      <trkpt lat="42.707569" lon="-2.741638">
        <ele>691.859</ele>
        <time>2022-07-08T18:04:16Z</time>
      </trkpt>
      <trkpt lat="42.707537" lon="-2.741688">
        <ele>692.264</ele>
        <time>2022-07-08T18:04:18Z</time>
      </trkpt>
      <trkpt lat="42.707497" lon="-2.741750">
        <ele>692.506</ele>
        <time>2022-07-08T18:04:21Z</time>
      </trkpt>
      <trkpt lat="42.707458" lon="-2.741825">
        <ele>693.116</ele>
        <time>2022-07-08T18:04:24Z</time>
      </trkpt>
      <trkpt lat="42.707420" lon="-2.741890">
        <ele>693.609</ele>
        <time>2022-07-08T18:04:27Z</time>
      </trkpt>
      <trkpt lat="42.707378" lon="-2.741956">
        <ele>694.357</ele>
        <time>2022-07-08T18:04:30Z</time>
      </trkpt>
      <trkpt lat="42.707333" lon="-2.742009">
        <ele>694.656</ele>
        <time>2022-07-08T18:04:33Z</time>
      </trkpt>
      <trkpt lat="42.707288" lon="-2.742068">
        <ele>695.383</ele>
        <time>2022-07-08T18:04:36Z</time>
      </trkpt>
      <trkpt lat="42.707254" lon="-2.742109">
        <ele>695.939</ele>
        <time>2022-07-08T18:04:38Z</time>
      </trkpt>
      <trkpt lat="42.707223" lon="-2.742160">
        <ele>696.445</ele>
        <time>2022-07-08T18:04:40Z</time>
      </trkpt>
      <trkpt lat="42.707182" lon="-2.742237">
        <ele>696.751</ele>
        <time>2022-07-08T18:04:43Z</time>
      </trkpt>
      <trkpt lat="42.707156" lon="-2.742289">
        <ele>697.131</ele>
        <time>2022-07-08T18:04:45Z</time>
      </trkpt>
      <trkpt lat="42.707119" lon="-2.742365">
        <ele>697.768</ele>
        <time>2022-07-08T18:04:48Z</time>
      </trkpt>
      <trkpt lat="42.707087" lon="-2.742425">
        <ele>698.190</ele>
        <time>2022-07-08T18:04:51Z</time>
      </trkpt>
      <trkpt lat="42.707046" lon="-2.742479">
        <ele>699.018</ele>
        <time>2022-07-08T18:04:54Z</time>
      </trkpt>
      <trkpt lat="42.706999" lon="-2.742536">
        <ele>699.798</ele>
        <time>2022-07-08T18:04:57Z</time>
      </trkpt>
      <trkpt lat="42.706960" lon="-2.742576">
        <ele>700.017</ele>
        <time>2022-07-08T18:05:00Z</time>
      </trkpt>
      <trkpt lat="42.706929" lon="-2.742640">
        <ele>700.409</ele>
        <time>2022-07-08T18:05:03Z</time>
      </trkpt>
      <trkpt lat="42.706891" lon="-2.742712">
        <ele>701.042</ele>
        <time>2022-07-08T18:05:06Z</time>
      </trkpt>
      <trkpt lat="42.706851" lon="-2.742763">
        <ele>701.781</ele>
        <time>2022-07-08T18:05:09Z</time>
      </trkpt>
      <trkpt lat="42.706824" lon="-2.742814">
        <ele>702.218</ele>
        <time>2022-07-08T18:05:11Z</time>
      </trkpt>
      <trkpt lat="42.706792" lon="-2.742877">
        <ele>702.664</ele>
        <time>2022-07-08T18:05:14Z</time>
      </trkpt>
      <trkpt lat="42.706759" lon="-2.742947">
        <ele>702.860</ele>
        <time>2022-07-08T18:05:17Z</time>
      </trkpt>
      <trkpt lat="42.706723" lon="-2.743014">
        <ele>703.276</ele>
        <time>2022-07-08T18:05:20Z</time>
      </trkpt>
      <trkpt lat="42.706675" lon="-2.743084">
        <ele>703.486</ele>
        <time>2022-07-08T18:05:23Z</time>
      </trkpt>
      <trkpt lat="42.706645" lon="-2.743134">
        <ele>703.913</ele>
        <time>2022-07-08T18:05:25Z</time>
      </trkpt>
      <trkpt lat="42.706606" lon="-2.743203">
        <ele>704.435</ele>
        <time>2022-07-08T18:05:29Z</time>
      </trkpt>
      <trkpt lat="42.706577" lon="-2.743253">
        <ele>704.745</ele>
        <time>2022-07-08T18:05:31Z</time>
      </trkpt>
      <trkpt lat="42.706537" lon="-2.743316">
        <ele>705.647</ele>
        <time>2022-07-08T18:05:34Z</time>
      </trkpt>
      <trkpt lat="42.706501" lon="-2.743366">
        <ele>706.211</ele>
        <time>2022-07-08T18:05:37Z</time>
      </trkpt>
      <trkpt lat="42.706467" lon="-2.743418">
        <ele>706.809</ele>
        <time>2022-07-08T18:05:39Z</time>
      </trkpt>
      <trkpt lat="42.706438" lon="-2.743473">
        <ele>707.045</ele>
        <time>2022-07-08T18:05:41Z</time>
      </trkpt>
      <trkpt lat="42.706406" lon="-2.743530">
        <ele>707.374</ele>
        <time>2022-07-08T18:05:43Z</time>
      </trkpt>
      <trkpt lat="42.706374" lon="-2.743590">
        <ele>707.411</ele>
        <time>2022-07-08T18:05:45Z</time>
      </trkpt>
      <trkpt lat="42.706343" lon="-2.743644">
        <ele>707.627</ele>
        <time>2022-07-08T18:05:47Z</time>
      </trkpt>
      <trkpt lat="42.706300" lon="-2.743700">
        <ele>707.973</ele>
        <time>2022-07-08T18:05:50Z</time>
      </trkpt>
      <trkpt lat="42.706267" lon="-2.743749">
        <ele>708.339</ele>
        <time>2022-07-08T18:05:52Z</time>
      </trkpt>
      <trkpt lat="42.706225" lon="-2.743813">
        <ele>709.089</ele>
        <time>2022-07-08T18:05:55Z</time>
      </trkpt>
      <trkpt lat="42.706189" lon="-2.743851">
        <ele>709.236</ele>
        <time>2022-07-08T18:05:57Z</time>
      </trkpt>
      <trkpt lat="42.706128" lon="-2.743893">
        <ele>709.968</ele>
        <time>2022-07-08T18:06:00Z</time>
      </trkpt>
      <trkpt lat="42.706083" lon="-2.743916">
        <ele>710.231</ele>
        <time>2022-07-08T18:06:02Z</time>
      </trkpt>
      <trkpt lat="42.706039" lon="-2.743932">
        <ele>710.561</ele>
        <time>2022-07-08T18:06:04Z</time>
      </trkpt>
      <trkpt lat="42.705995" lon="-2.743949">
        <ele>710.507</ele>
        <time>2022-07-08T18:06:06Z</time>
      </trkpt>
      <trkpt lat="42.705935" lon="-2.743989">
        <ele>710.609</ele>
        <time>2022-07-08T18:06:09Z</time>
      </trkpt>
      <trkpt lat="42.705895" lon="-2.744062">
        <ele>710.714</ele>
        <time>2022-07-08T18:06:11Z</time>
      </trkpt>
      <trkpt lat="42.705871" lon="-2.744123">
        <ele>710.983</ele>
        <time>2022-07-08T18:06:13Z</time>
      </trkpt>
      <trkpt lat="42.705846" lon="-2.744175">
        <ele>711.280</ele>
        <time>2022-07-08T18:06:15Z</time>
      </trkpt>
      <trkpt lat="42.705819" lon="-2.744241">
        <ele>711.316</ele>
        <time>2022-07-08T18:06:18Z</time>
      </trkpt>
      <trkpt lat="42.705770" lon="-2.744263">
        <ele>711.392</ele>
        <time>2022-07-08T18:07:22Z</time>
      </trkpt>
      <trkpt lat="42.705705" lon="-2.744308">
        <ele>711.488</ele>
        <time>2022-07-08T18:07:25Z</time>
      </trkpt>
      <trkpt lat="42.705634" lon="-2.744353">
        <ele>711.548</ele>
        <time>2022-07-08T18:07:27Z</time>
      </trkpt>
      <trkpt lat="42.705547" lon="-2.744409">
        <ele>711.885</ele>
        <time>2022-07-08T18:07:29Z</time>
      </trkpt>
      <trkpt lat="42.705492" lon="-2.744450">
        <ele>711.177</ele>
        <time>2022-07-08T18:07:30Z</time>
      </trkpt>
      <trkpt lat="42.705436" lon="-2.744489">
        <ele>710.573</ele>
        <time>2022-07-08T18:07:31Z</time>
      </trkpt>
      <trkpt lat="42.705378" lon="-2.744526">
        <ele>710.285</ele>
        <time>2022-07-08T18:07:32Z</time>
      </trkpt>
      <trkpt lat="42.705320" lon="-2.744561">
        <ele>710.013</ele>
        <time>2022-07-08T18:07:33Z</time>
      </trkpt>
      <trkpt lat="42.705269" lon="-2.744592">
        <ele>709.609</ele>
        <time>2022-07-08T18:07:34Z</time>
      </trkpt>
      <trkpt lat="42.705220" lon="-2.744620">
        <ele>709.198</ele>
        <time>2022-07-08T18:07:35Z</time>
      </trkpt>
      <trkpt lat="42.705142" lon="-2.744636">
        <ele>708.967</ele>
        <time>2022-07-08T18:07:36Z</time>
      </trkpt>
      <trkpt lat="42.705080" lon="-2.744655">
        <ele>708.544</ele>
        <time>2022-07-08T18:07:37Z</time>
      </trkpt>
      <trkpt lat="42.705022" lon="-2.744675">
        <ele>708.060</ele>
        <time>2022-07-08T18:07:38Z</time>
      </trkpt>
      <trkpt lat="42.704950" lon="-2.744701">
        <ele>707.996</ele>
        <time>2022-07-08T18:07:39Z</time>
      </trkpt>
      <trkpt lat="42.704869" lon="-2.744723">
        <ele>707.812</ele>
        <time>2022-07-08T18:07:40Z</time>
      </trkpt>
      <trkpt lat="42.704802" lon="-2.744743">
        <ele>707.762</ele>
        <time>2022-07-08T18:07:41Z</time>
      </trkpt>
      <trkpt lat="42.704711" lon="-2.744781">
        <ele>707.559</ele>
        <time>2022-07-08T18:07:42Z</time>
      </trkpt>
      <trkpt lat="42.704625" lon="-2.744809">
        <ele>707.021</ele>
        <time>2022-07-08T18:07:43Z</time>
      </trkpt>
      <trkpt lat="42.704535" lon="-2.744831">
        <ele>706.139</ele>
        <time>2022-07-08T18:07:44Z</time>
      </trkpt>
      <trkpt lat="42.704457" lon="-2.744860">
        <ele>705.701</ele>
        <time>2022-07-08T18:07:45Z</time>
      </trkpt>
      <trkpt lat="42.704381" lon="-2.744900">
        <ele>704.921</ele>
        <time>2022-07-08T18:07:46Z</time>
      </trkpt>
      <trkpt lat="42.704303" lon="-2.744931">
        <ele>704.509</ele>
        <time>2022-07-08T18:07:47Z</time>
      </trkpt>
      <trkpt lat="42.704246" lon="-2.744985">
        <ele>703.994</ele>
        <time>2022-07-08T18:07:48Z</time>
      </trkpt>
      <trkpt lat="42.704191" lon="-2.745016">
        <ele>703.133</ele>
        <time>2022-07-08T18:07:49Z</time>
      </trkpt>
      <trkpt lat="42.704149" lon="-2.745049">
        <ele>702.910</ele>
        <time>2022-07-08T18:07:50Z</time>
      </trkpt>
      <trkpt lat="42.704080" lon="-2.745060">
        <ele>702.096</ele>
        <time>2022-07-08T18:07:52Z</time>
      </trkpt>
      <trkpt lat="42.704035" lon="-2.745071">
        <ele>701.412</ele>
        <time>2022-07-08T18:07:54Z</time>
      </trkpt>
      <trkpt lat="42.703989" lon="-2.745075">
        <ele>700.468</ele>
        <time>2022-07-08T18:07:57Z</time>
      </trkpt>
      <trkpt lat="42.703948" lon="-2.745117">
        <ele>698.368</ele>
        <time>2022-07-08T18:08:12Z</time>
      </trkpt>
      <trkpt lat="42.703897" lon="-2.745118">
        <ele>696.625</ele>
        <time>2022-07-08T18:08:16Z</time>
      </trkpt>
      <trkpt lat="42.703868" lon="-2.745170">
        <ele>695.527</ele>
        <time>2022-07-08T18:08:33Z</time>
      </trkpt>
      <trkpt lat="42.703804" lon="-2.745238">
        <ele>694.894</ele>
        <time>2022-07-08T18:09:17Z</time>
      </trkpt>
      <trkpt lat="42.703756" lon="-2.745265">
        <ele>694.757</ele>
        <time>2022-07-08T18:09:18Z</time>
      </trkpt>
      <trkpt lat="42.703703" lon="-2.745297">
        <ele>694.122</ele>
        <time>2022-07-08T18:09:19Z</time>
      </trkpt>
      <trkpt lat="42.703644" lon="-2.745333">
        <ele>693.909</ele>
        <time>2022-07-08T18:09:20Z</time>
      </trkpt>
      <trkpt lat="42.703576" lon="-2.745373">
        <ele>693.880</ele>
        <time>2022-07-08T18:09:21Z</time>
      </trkpt>
      <trkpt lat="42.703506" lon="-2.745414">
        <ele>693.499</ele>
        <time>2022-07-08T18:09:22Z</time>
      </trkpt>
      <trkpt lat="42.703437" lon="-2.745459">
        <ele>693.136</ele>
        <time>2022-07-08T18:09:23Z</time>
      </trkpt>
      <trkpt lat="42.703365" lon="-2.745508">
        <ele>692.972</ele>
        <time>2022-07-08T18:09:24Z</time>
      </trkpt>
      <trkpt lat="42.703293" lon="-2.745554">
        <ele>692.618</ele>
        <time>2022-07-08T18:09:25Z</time>
      </trkpt>
      <trkpt lat="42.703212" lon="-2.745587">
        <ele>692.224</ele>
        <time>2022-07-08T18:09:26Z</time>
      </trkpt>
      <trkpt lat="42.703121" lon="-2.745627">
        <ele>691.764</ele>
        <time>2022-07-08T18:09:27Z</time>
      </trkpt>
      <trkpt lat="42.703037" lon="-2.745660">
        <ele>691.351</ele>
        <time>2022-07-08T18:09:28Z</time>
      </trkpt>
      <trkpt lat="42.702939" lon="-2.745701">
        <ele>690.933</ele>
        <time>2022-07-08T18:09:29Z</time>
      </trkpt>
      <trkpt lat="42.702853" lon="-2.745715">
        <ele>690.171</ele>
        <time>2022-07-08T18:09:30Z</time>
      </trkpt>
      <trkpt lat="42.702744" lon="-2.745731">
        <ele>689.741</ele>
        <time>2022-07-08T18:09:31Z</time>
      </trkpt>
      <trkpt lat="42.702643" lon="-2.745747">
        <ele>689.015</ele>
        <time>2022-07-08T18:09:32Z</time>
      </trkpt>
      <trkpt lat="42.702532" lon="-2.745777">
        <ele>688.109</ele>
        <time>2022-07-08T18:09:33Z</time>
      </trkpt>
      <trkpt lat="42.702433" lon="-2.745811">
        <ele>687.698</ele>
        <time>2022-07-08T18:09:34Z</time>
      </trkpt>
      <trkpt lat="42.702337" lon="-2.745846">
        <ele>686.867</ele>
        <time>2022-07-08T18:09:35Z</time>
      </trkpt>
      <trkpt lat="42.702258" lon="-2.745916">
        <ele>685.794</ele>
        <time>2022-07-08T18:09:36Z</time>
      </trkpt>
      <trkpt lat="42.702182" lon="-2.745957">
        <ele>685.070</ele>
        <time>2022-07-08T18:09:37Z</time>
      </trkpt>
      <trkpt lat="42.702090" lon="-2.746013">
        <ele>684.096</ele>
        <time>2022-07-08T18:09:38Z</time>
      </trkpt>
      <trkpt lat="42.702008" lon="-2.746071">
        <ele>683.292</ele>
        <time>2022-07-08T18:09:39Z</time>
      </trkpt>
      <trkpt lat="42.701921" lon="-2.746120">
        <ele>682.892</ele>
        <time>2022-07-08T18:09:40Z</time>
      </trkpt>
      <trkpt lat="42.701834" lon="-2.746170">
        <ele>682.229</ele>
        <time>2022-07-08T18:09:41Z</time>
      </trkpt>
      <trkpt lat="42.701740" lon="-2.746221">
        <ele>681.381</ele>
        <time>2022-07-08T18:09:42Z</time>
      </trkpt>
      <trkpt lat="42.701645" lon="-2.746257">
        <ele>680.834</ele>
        <time>2022-07-08T18:09:43Z</time>
      </trkpt>
      <trkpt lat="42.701543" lon="-2.746297">
        <ele>679.955</ele>
        <time>2022-07-08T18:09:44Z</time>
      </trkpt>
      <trkpt lat="42.701440" lon="-2.746329">
        <ele>679.510</ele>
        <time>2022-07-08T18:09:45Z</time>
      </trkpt>
      <trkpt lat="42.701345" lon="-2.746353">
        <ele>678.309</ele>
        <time>2022-07-08T18:09:46Z</time>
      </trkpt>
      <trkpt lat="42.701248" lon="-2.746379">
        <ele>677.674</ele>
        <time>2022-07-08T18:09:47Z</time>
      </trkpt>
      <trkpt lat="42.701144" lon="-2.746407">
        <ele>676.523</ele>
        <time>2022-07-08T18:09:48Z</time>
      </trkpt>
      <trkpt lat="42.701054" lon="-2.746427">
        <ele>676.580</ele>
        <time>2022-07-08T18:09:49Z</time>
      </trkpt>
      <trkpt lat="42.700968" lon="-2.746442">
        <ele>675.886</ele>
        <time>2022-07-08T18:09:50Z</time>
      </trkpt>
      <trkpt lat="42.700878" lon="-2.746454">
        <ele>675.432</ele>
        <time>2022-07-08T18:09:51Z</time>
      </trkpt>
      <trkpt lat="42.700792" lon="-2.746445">
        <ele>674.738</ele>
        <time>2022-07-08T18:09:52Z</time>
      </trkpt>
      <trkpt lat="42.700693" lon="-2.746426">
        <ele>673.958</ele>
        <time>2022-07-08T18:09:53Z</time>
      </trkpt>
      <trkpt lat="42.700615" lon="-2.746369">
        <ele>673.835</ele>
        <time>2022-07-08T18:09:54Z</time>
      </trkpt>
      <trkpt lat="42.700542" lon="-2.746308">
        <ele>673.717</ele>
        <time>2022-07-08T18:09:55Z</time>
      </trkpt>
      <trkpt lat="42.700457" lon="-2.746259">
        <ele>673.426</ele>
        <time>2022-07-08T18:09:56Z</time>
      </trkpt>
      <trkpt lat="42.700370" lon="-2.746214">
        <ele>672.447</ele>
        <time>2022-07-08T18:09:57Z</time>
      </trkpt>
      <trkpt lat="42.700275" lon="-2.746190">
        <ele>671.911</ele>
        <time>2022-07-08T18:09:58Z</time>
      </trkpt>
      <trkpt lat="42.700190" lon="-2.746170">
        <ele>671.309</ele>
        <time>2022-07-08T18:09:59Z</time>
      </trkpt>
      <trkpt lat="42.700105" lon="-2.746164">
        <ele>671.063</ele>
        <time>2022-07-08T18:10:00Z</time>
      </trkpt>
      <trkpt lat="42.700008" lon="-2.746154">
        <ele>670.452</ele>
        <time>2022-07-08T18:10:01Z</time>
      </trkpt>
      <trkpt lat="42.699919" lon="-2.746167">
        <ele>669.749</ele>
        <time>2022-07-08T18:10:02Z</time>
      </trkpt>
      <trkpt lat="42.699833" lon="-2.746174">
        <ele>669.255</ele>
        <time>2022-07-08T18:10:03Z</time>
      </trkpt>
      <trkpt lat="42.699749" lon="-2.746179">
        <ele>668.941</ele>
        <time>2022-07-08T18:10:04Z</time>
      </trkpt>
      <trkpt lat="42.699660" lon="-2.746192">
        <ele>668.377</ele>
        <time>2022-07-08T18:10:05Z</time>
      </trkpt>
      <trkpt lat="42.699566" lon="-2.746208">
        <ele>667.637</ele>
        <time>2022-07-08T18:10:06Z</time>
      </trkpt>
      <trkpt lat="42.699474" lon="-2.746224">
        <ele>666.774</ele>
        <time>2022-07-08T18:10:07Z</time>
      </trkpt>
      <trkpt lat="42.699379" lon="-2.746243">
        <ele>666.126</ele>
        <time>2022-07-08T18:10:08Z</time>
      </trkpt>
      <trkpt lat="42.699289" lon="-2.746254">
        <ele>665.551</ele>
        <time>2022-07-08T18:10:09Z</time>
      </trkpt>
      <trkpt lat="42.699203" lon="-2.746263">
        <ele>665.101</ele>
        <time>2022-07-08T18:10:10Z</time>
      </trkpt>
      <trkpt lat="42.699132" lon="-2.746266">
        <ele>665.011</ele>
        <time>2022-07-08T18:10:11Z</time>
      </trkpt>
      <trkpt lat="42.699066" lon="-2.746257">
        <ele>664.609</ele>
        <time>2022-07-08T18:10:12Z</time>
      </trkpt>
      <trkpt lat="42.699003" lon="-2.746254">
        <ele>664.046</ele>
        <time>2022-07-08T18:10:13Z</time>
      </trkpt>
      <trkpt lat="42.698949" lon="-2.746242">
        <ele>663.735</ele>
        <time>2022-07-08T18:10:14Z</time>
      </trkpt>
      <trkpt lat="42.698895" lon="-2.746231">
        <ele>663.712</ele>
        <time>2022-07-08T18:10:15Z</time>
      </trkpt>
      <trkpt lat="42.698841" lon="-2.746210">
        <ele>663.368</ele>
        <time>2022-07-08T18:10:16Z</time>
      </trkpt>
      <trkpt lat="42.698782" lon="-2.746174">
        <ele>662.494</ele>
        <time>2022-07-08T18:10:17Z</time>
      </trkpt>
      <trkpt lat="42.698725" lon="-2.746127">
        <ele>661.130</ele>
        <time>2022-07-08T18:10:18Z</time>
      </trkpt>
      <trkpt lat="42.698666" lon="-2.746092">
        <ele>660.030</ele>
        <time>2022-07-08T18:10:19Z</time>
      </trkpt>
      <trkpt lat="42.698608" lon="-2.746069">
        <ele>659.947</ele>
        <time>2022-07-08T18:10:20Z</time>
      </trkpt>
      <trkpt lat="42.698552" lon="-2.746060">
        <ele>658.829</ele>
        <time>2022-07-08T18:10:21Z</time>
      </trkpt>
      <trkpt lat="42.698499" lon="-2.746066">
        <ele>658.466</ele>
        <time>2022-07-08T18:10:22Z</time>
      </trkpt>
      <trkpt lat="42.698438" lon="-2.746121">
        <ele>657.829</ele>
        <time>2022-07-08T18:10:24Z</time>
      </trkpt>
      <trkpt lat="42.698369" lon="-2.746172">
        <ele>657.621</ele>
        <time>2022-07-08T18:10:26Z</time>
      </trkpt>
      <trkpt lat="42.698327" lon="-2.746203">
        <ele>656.909</ele>
        <time>2022-07-08T18:10:27Z</time>
      </trkpt>
      <trkpt lat="42.698251" lon="-2.746264">
        <ele>656.797</ele>
        <time>2022-07-08T18:10:29Z</time>
      </trkpt>
      <trkpt lat="42.698190" lon="-2.746310">
        <ele>656.786</ele>
        <time>2022-07-08T18:10:30Z</time>
      </trkpt>
      <trkpt lat="42.698130" lon="-2.746356">
        <ele>657.063</ele>
        <time>2022-07-08T18:10:31Z</time>
      </trkpt>
      <trkpt lat="42.698068" lon="-2.746396">
        <ele>657.159</ele>
        <time>2022-07-08T18:10:32Z</time>
      </trkpt>
      <trkpt lat="42.698014" lon="-2.746437">
        <ele>657.155</ele>
        <time>2022-07-08T18:10:33Z</time>
      </trkpt>
      <trkpt lat="42.697953" lon="-2.746497">
        <ele>656.951</ele>
        <time>2022-07-08T18:10:34Z</time>
      </trkpt>
      <trkpt lat="42.697889" lon="-2.746546">
        <ele>656.511</ele>
        <time>2022-07-08T18:10:35Z</time>
      </trkpt>
      <trkpt lat="42.697845" lon="-2.746577">
        <ele>656.368</ele>
        <time>2022-07-08T18:10:36Z</time>
      </trkpt>
      <trkpt lat="42.697778" lon="-2.746626">
        <ele>655.390</ele>
        <time>2022-07-08T18:10:37Z</time>
      </trkpt>
      <trkpt lat="42.697735" lon="-2.746672">
        <ele>654.876</ele>
        <time>2022-07-08T18:10:38Z</time>
      </trkpt>
      <trkpt lat="42.697666" lon="-2.746728">
        <ele>654.690</ele>
        <time>2022-07-08T18:10:39Z</time>
      </trkpt>
      <trkpt lat="42.697597" lon="-2.746779">
        <ele>654.419</ele>
        <time>2022-07-08T18:10:40Z</time>
      </trkpt>
      <trkpt lat="42.697528" lon="-2.746838">
        <ele>654.109</ele>
        <time>2022-07-08T18:10:41Z</time>
      </trkpt>
      <trkpt lat="42.697458" lon="-2.746892">
        <ele>653.828</ele>
        <time>2022-07-08T18:10:42Z</time>
      </trkpt>
      <trkpt lat="42.697394" lon="-2.746948">
        <ele>653.477</ele>
        <time>2022-07-08T18:10:43Z</time>
      </trkpt>
      <trkpt lat="42.697322" lon="-2.747009">
        <ele>652.854</ele>
        <time>2022-07-08T18:10:44Z</time>
      </trkpt>
      <trkpt lat="42.697252" lon="-2.747061">
        <ele>652.140</ele>
        <time>2022-07-08T18:10:45Z</time>
      </trkpt>
      <trkpt lat="42.697182" lon="-2.747121">
        <ele>651.626</ele>
        <time>2022-07-08T18:10:46Z</time>
      </trkpt>
      <trkpt lat="42.697107" lon="-2.747185">
        <ele>651.092</ele>
        <time>2022-07-08T18:10:47Z</time>
      </trkpt>
      <trkpt lat="42.697031" lon="-2.747251">
        <ele>650.382</ele>
        <time>2022-07-08T18:10:48Z</time>
      </trkpt>
      <trkpt lat="42.696958" lon="-2.747309">
        <ele>649.729</ele>
        <time>2022-07-08T18:10:49Z</time>
      </trkpt>
      <trkpt lat="42.696883" lon="-2.747372">
        <ele>649.431</ele>
        <time>2022-07-08T18:10:50Z</time>
      </trkpt>
      <trkpt lat="42.696807" lon="-2.747442">
        <ele>649.184</ele>
        <time>2022-07-08T18:10:51Z</time>
      </trkpt>
      <trkpt lat="42.696731" lon="-2.747504">
        <ele>648.507</ele>
        <time>2022-07-08T18:10:52Z</time>
      </trkpt>
      <trkpt lat="42.696653" lon="-2.747554">
        <ele>647.817</ele>
        <time>2022-07-08T18:10:53Z</time>
      </trkpt>
      <trkpt lat="42.696566" lon="-2.747625">
        <ele>646.509</ele>
        <time>2022-07-08T18:10:54Z</time>
      </trkpt>
      <trkpt lat="42.696484" lon="-2.747662">
        <ele>645.559</ele>
        <time>2022-07-08T18:10:55Z</time>
      </trkpt>
      <trkpt lat="42.696408" lon="-2.747686">
        <ele>645.168</ele>
        <time>2022-07-08T18:10:56Z</time>
      </trkpt>
      <trkpt lat="42.696326" lon="-2.747710">
        <ele>644.345</ele>
        <time>2022-07-08T18:10:57Z</time>
      </trkpt>
      <trkpt lat="42.696251" lon="-2.747695">
        <ele>643.741</ele>
        <time>2022-07-08T18:10:58Z</time>
      </trkpt>
      <trkpt lat="42.696169" lon="-2.747674">
        <ele>643.247</ele>
        <time>2022-07-08T18:10:59Z</time>
      </trkpt>
      <trkpt lat="42.696085" lon="-2.747637">
        <ele>642.763</ele>
        <time>2022-07-08T18:11:00Z</time>
      </trkpt>
      <trkpt lat="42.695994" lon="-2.747614">
        <ele>642.273</ele>
        <time>2022-07-08T18:11:01Z</time>
      </trkpt>
      <trkpt lat="42.695903" lon="-2.747582">
        <ele>641.110</ele>
        <time>2022-07-08T18:11:02Z</time>
      </trkpt>
      <trkpt lat="42.695814" lon="-2.747557">
        <ele>641.152</ele>
        <time>2022-07-08T18:11:03Z</time>
      </trkpt>
      <trkpt lat="42.695718" lon="-2.747528">
        <ele>640.442</ele>
        <time>2022-07-08T18:11:04Z</time>
      </trkpt>
      <trkpt lat="42.695619" lon="-2.747501">
        <ele>639.622</ele>
        <time>2022-07-08T18:11:05Z</time>
      </trkpt>
      <trkpt lat="42.695537" lon="-2.747455">
        <ele>638.814</ele>
        <time>2022-07-08T18:11:06Z</time>
      </trkpt>
      <trkpt lat="42.695417" lon="-2.747420">
        <ele>638.209</ele>
        <time>2022-07-08T18:11:07Z</time>
      </trkpt>
      <trkpt lat="42.695321" lon="-2.747384">
        <ele>637.975</ele>
        <time>2022-07-08T18:11:08Z</time>
      </trkpt>
      <trkpt lat="42.695226" lon="-2.747353">
        <ele>637.534</ele>
        <time>2022-07-08T18:11:09Z</time>
      </trkpt>
      <trkpt lat="42.695130" lon="-2.747322">
        <ele>637.161</ele>
        <time>2022-07-08T18:11:10Z</time>
      </trkpt>
      <trkpt lat="42.695037" lon="-2.747291">
        <ele>636.747</ele>
        <time>2022-07-08T18:11:11Z</time>
      </trkpt>
      <trkpt lat="42.694942" lon="-2.747272">
        <ele>636.133</ele>
        <time>2022-07-08T18:11:12Z</time>
      </trkpt>
      <trkpt lat="42.694856" lon="-2.747242">
        <ele>635.339</ele>
        <time>2022-07-08T18:11:13Z</time>
      </trkpt>
      <trkpt lat="42.694772" lon="-2.747216">
        <ele>634.679</ele>
        <time>2022-07-08T18:11:14Z</time>
      </trkpt>
      <trkpt lat="42.694685" lon="-2.747199">
        <ele>634.246</ele>
        <time>2022-07-08T18:11:15Z</time>
      </trkpt>
      <trkpt lat="42.694606" lon="-2.747167">
        <ele>633.668</ele>
        <time>2022-07-08T18:11:16Z</time>
      </trkpt>
      <trkpt lat="42.694520" lon="-2.747132">
        <ele>633.166</ele>
        <time>2022-07-08T18:11:17Z</time>
      </trkpt>
      <trkpt lat="42.694444" lon="-2.747113">
        <ele>632.829</ele>
        <time>2022-07-08T18:11:18Z</time>
      </trkpt>
      <trkpt lat="42.694376" lon="-2.747095">
        <ele>632.421</ele>
        <time>2022-07-08T18:11:19Z</time>
      </trkpt>
      <trkpt lat="42.694324" lon="-2.747066">
        <ele>631.909</ele>
        <time>2022-07-08T18:11:20Z</time>
      </trkpt>
      <trkpt lat="42.694271" lon="-2.747053">
        <ele>631.837</ele>
        <time>2022-07-08T18:11:21Z</time>
      </trkpt>
      <trkpt lat="42.694220" lon="-2.747033">
        <ele>631.656</ele>
        <time>2022-07-08T18:11:22Z</time>
      </trkpt>
      <trkpt lat="42.694165" lon="-2.747007">
        <ele>630.813</ele>
        <time>2022-07-08T18:11:23Z</time>
      </trkpt>
      <trkpt lat="42.694091" lon="-2.746996">
        <ele>630.569</ele>
        <time>2022-07-08T18:11:25Z</time>
      </trkpt>
      <trkpt lat="42.694035" lon="-2.747035">
        <ele>629.885</ele>
        <time>2022-07-08T18:11:27Z</time>
      </trkpt>
      <trkpt lat="42.694015" lon="-2.747094">
        <ele>628.711</ele>
        <time>2022-07-08T18:11:28Z</time>
      </trkpt>
      <trkpt lat="42.693985" lon="-2.747143">
        <ele>627.491</ele>
        <time>2022-07-08T18:11:29Z</time>
      </trkpt>
      <trkpt lat="42.693952" lon="-2.747205">
        <ele>627.468</ele>
        <time>2022-07-08T18:11:30Z</time>
      </trkpt>
      <trkpt lat="42.693923" lon="-2.747260">
        <ele>627.340</ele>
        <time>2022-07-08T18:11:31Z</time>
      </trkpt>
      <trkpt lat="42.693873" lon="-2.747349">
        <ele>626.931</ele>
        <time>2022-07-08T18:11:33Z</time>
      </trkpt>
      <trkpt lat="42.693845" lon="-2.747411">
        <ele>626.661</ele>
        <time>2022-07-08T18:11:34Z</time>
      </trkpt>
      <trkpt lat="42.693810" lon="-2.747476">
        <ele>626.407</ele>
        <time>2022-07-08T18:11:35Z</time>
      </trkpt>
      <trkpt lat="42.693782" lon="-2.747538">
        <ele>626.309</ele>
        <time>2022-07-08T18:11:36Z</time>
      </trkpt>
      <trkpt lat="42.693752" lon="-2.747599">
        <ele>626.144</ele>
        <time>2022-07-08T18:11:37Z</time>
      </trkpt>
      <trkpt lat="42.693711" lon="-2.747653">
        <ele>625.953</ele>
        <time>2022-07-08T18:11:38Z</time>
      </trkpt>
      <trkpt lat="42.693677" lon="-2.747736">
        <ele>625.980</ele>
        <time>2022-07-08T18:11:39Z</time>
      </trkpt>
      <trkpt lat="42.693639" lon="-2.747792">
        <ele>625.876</ele>
        <time>2022-07-08T18:11:40Z</time>
      </trkpt>
      <trkpt lat="42.693605" lon="-2.747858">
        <ele>625.852</ele>
        <time>2022-07-08T18:11:41Z</time>
      </trkpt>
      <trkpt lat="42.693562" lon="-2.747920">
        <ele>625.868</ele>
        <time>2022-07-08T18:11:42Z</time>
      </trkpt>
      <trkpt lat="42.693521" lon="-2.747984">
        <ele>625.928</ele>
        <time>2022-07-08T18:11:43Z</time>
      </trkpt>
      <trkpt lat="42.693480" lon="-2.748060">
        <ele>625.975</ele>
        <time>2022-07-08T18:11:44Z</time>
      </trkpt>
      <trkpt lat="42.693434" lon="-2.748127">
        <ele>625.927</ele>
        <time>2022-07-08T18:11:45Z</time>
      </trkpt>
      <trkpt lat="42.693393" lon="-2.748198">
        <ele>625.812</ele>
        <time>2022-07-08T18:11:46Z</time>
      </trkpt>
      <trkpt lat="42.693357" lon="-2.748264">
        <ele>625.832</ele>
        <time>2022-07-08T18:11:47Z</time>
      </trkpt>
      <trkpt lat="42.693314" lon="-2.748336">
        <ele>625.705</ele>
        <time>2022-07-08T18:11:48Z</time>
      </trkpt>
      <trkpt lat="42.693291" lon="-2.748389">
        <ele>625.609</ele>
        <time>2022-07-08T18:11:49Z</time>
      </trkpt>
      <trkpt lat="42.693253" lon="-2.748451">
        <ele>625.452</ele>
        <time>2022-07-08T18:11:50Z</time>
      </trkpt>
      <trkpt lat="42.693198" lon="-2.748507">
        <ele>625.211</ele>
        <time>2022-07-08T18:11:51Z</time>
      </trkpt>
      <trkpt lat="42.693152" lon="-2.748576">
        <ele>625.158</ele>
        <time>2022-07-08T18:11:52Z</time>
      </trkpt>
      <trkpt lat="42.693121" lon="-2.748635">
        <ele>624.984</ele>
        <time>2022-07-08T18:11:53Z</time>
      </trkpt>
      <trkpt lat="42.693078" lon="-2.748720">
        <ele>624.810</ele>
        <time>2022-07-08T18:11:54Z</time>
      </trkpt>
      <trkpt lat="42.693035" lon="-2.748781">
        <ele>624.836</ele>
        <time>2022-07-08T18:11:55Z</time>
      </trkpt>
      <trkpt lat="42.692990" lon="-2.748848">
        <ele>624.876</ele>
        <time>2022-07-08T18:11:56Z</time>
      </trkpt>
      <trkpt lat="42.692946" lon="-2.748916">
        <ele>624.773</ele>
        <time>2022-07-08T18:11:57Z</time>
      </trkpt>
      <trkpt lat="42.692896" lon="-2.748986">
        <ele>624.685</ele>
        <time>2022-07-08T18:11:58Z</time>
      </trkpt>
      <trkpt lat="42.692850" lon="-2.749057">
        <ele>624.311</ele>
        <time>2022-07-08T18:11:59Z</time>
      </trkpt>
      <trkpt lat="42.692800" lon="-2.749127">
        <ele>624.121</ele>
        <time>2022-07-08T18:12:00Z</time>
      </trkpt>
      <trkpt lat="42.692751" lon="-2.749196">
        <ele>623.803</ele>
        <time>2022-07-08T18:12:01Z</time>
      </trkpt>
      <trkpt lat="42.692694" lon="-2.749270">
        <ele>623.509</ele>
        <time>2022-07-08T18:12:02Z</time>
      </trkpt>
      <trkpt lat="42.692652" lon="-2.749335">
        <ele>623.322</ele>
        <time>2022-07-08T18:12:03Z</time>
      </trkpt>
      <trkpt lat="42.692604" lon="-2.749428">
        <ele>623.191</ele>
        <time>2022-07-08T18:12:04Z</time>
      </trkpt>
      <trkpt lat="42.692562" lon="-2.749497">
        <ele>623.078</ele>
        <time>2022-07-08T18:12:05Z</time>
      </trkpt>
      <trkpt lat="42.692519" lon="-2.749575">
        <ele>622.984</ele>
        <time>2022-07-08T18:12:06Z</time>
      </trkpt>
      <trkpt lat="42.692479" lon="-2.749650">
        <ele>622.870</ele>
        <time>2022-07-08T18:12:07Z</time>
      </trkpt>
      <trkpt lat="42.692436" lon="-2.749706">
        <ele>622.786</ele>
        <time>2022-07-08T18:12:08Z</time>
      </trkpt>
      <trkpt lat="42.692392" lon="-2.749778">
        <ele>622.766</ele>
        <time>2022-07-08T18:12:09Z</time>
      </trkpt>
      <trkpt lat="42.692351" lon="-2.749834">
        <ele>622.613</ele>
        <time>2022-07-08T18:12:10Z</time>
      </trkpt>
      <trkpt lat="42.692314" lon="-2.749893">
        <ele>622.425</ele>
        <time>2022-07-08T18:12:11Z</time>
      </trkpt>
      <trkpt lat="42.692279" lon="-2.749946">
        <ele>622.387</ele>
        <time>2022-07-08T18:12:12Z</time>
      </trkpt>
      <trkpt lat="42.692241" lon="-2.750014">
        <ele>622.342</ele>
        <time>2022-07-08T18:12:13Z</time>
      </trkpt>
      <trkpt lat="42.692208" lon="-2.750063">
        <ele>622.326</ele>
        <time>2022-07-08T18:12:14Z</time>
      </trkpt>
      <trkpt lat="42.692165" lon="-2.750123">
        <ele>622.709</ele>
        <time>2022-07-08T18:12:15Z</time>
      </trkpt>
      <trkpt lat="42.692123" lon="-2.750181">
        <ele>622.929</ele>
        <time>2022-07-08T18:12:16Z</time>
      </trkpt>
      <trkpt lat="42.692087" lon="-2.750230">
        <ele>623.338</ele>
        <time>2022-07-08T18:12:17Z</time>
      </trkpt>
      <trkpt lat="42.692054" lon="-2.750285">
        <ele>623.575</ele>
        <time>2022-07-08T18:12:18Z</time>
      </trkpt>
      <trkpt lat="42.692021" lon="-2.750347">
        <ele>623.591</ele>
        <time>2022-07-08T18:12:19Z</time>
      </trkpt>
      <trkpt lat="42.691981" lon="-2.750395">
        <ele>623.937</ele>
        <time>2022-07-08T18:12:20Z</time>
      </trkpt>
      <trkpt lat="42.691957" lon="-2.750450">
        <ele>624.033</ele>
        <time>2022-07-08T18:12:21Z</time>
      </trkpt>
      <trkpt lat="42.691924" lon="-2.750503">
        <ele>624.183</ele>
        <time>2022-07-08T18:12:22Z</time>
      </trkpt>
      <trkpt lat="42.691897" lon="-2.750553">
        <ele>624.220</ele>
        <time>2022-07-08T18:12:23Z</time>
      </trkpt>
      <trkpt lat="42.691834" lon="-2.750645">
        <ele>624.582</ele>
        <time>2022-07-08T18:12:25Z</time>
      </trkpt>
      <trkpt lat="42.691802" lon="-2.750698">
        <ele>624.646</ele>
        <time>2022-07-08T18:12:26Z</time>
      </trkpt>
      <trkpt lat="42.691766" lon="-2.750745">
        <ele>624.988</ele>
        <time>2022-07-08T18:12:27Z</time>
      </trkpt>
      <trkpt lat="42.691730" lon="-2.750792">
        <ele>624.916</ele>
        <time>2022-07-08T18:12:28Z</time>
      </trkpt>
      <trkpt lat="42.691696" lon="-2.750855">
        <ele>624.909</ele>
        <time>2022-07-08T18:12:29Z</time>
      </trkpt>
      <trkpt lat="42.691668" lon="-2.750915">
        <ele>624.935</ele>
        <time>2022-07-08T18:12:30Z</time>
      </trkpt>
      <trkpt lat="42.691633" lon="-2.750972">
        <ele>624.984</ele>
        <time>2022-07-08T18:12:31Z</time>
      </trkpt>
      <trkpt lat="42.691592" lon="-2.751036">
        <ele>624.751</ele>
        <time>2022-07-08T18:12:32Z</time>
      </trkpt>
      <trkpt lat="42.691558" lon="-2.751096">
        <ele>624.737</ele>
        <time>2022-07-08T18:12:33Z</time>
      </trkpt>
      <trkpt lat="42.691508" lon="-2.751204">
        <ele>624.743</ele>
        <time>2022-07-08T18:12:35Z</time>
      </trkpt>
      <trkpt lat="42.691470" lon="-2.751245">
        <ele>624.829</ele>
        <time>2022-07-08T18:12:36Z</time>
      </trkpt>
      <trkpt lat="42.691428" lon="-2.751316">
        <ele>624.939</ele>
        <time>2022-07-08T18:12:37Z</time>
      </trkpt>
      <trkpt lat="42.691379" lon="-2.751384">
        <ele>625.046</ele>
        <time>2022-07-08T18:12:38Z</time>
      </trkpt>
      <trkpt lat="42.691305" lon="-2.751489">
        <ele>625.088</ele>
        <time>2022-07-08T18:12:40Z</time>
      </trkpt>
      <trkpt lat="42.691266" lon="-2.751551">
        <ele>624.919</ele>
        <time>2022-07-08T18:12:41Z</time>
      </trkpt>
      <trkpt lat="42.691236" lon="-2.751607">
        <ele>624.709</ele>
        <time>2022-07-08T18:12:42Z</time>
      </trkpt>
      <trkpt lat="42.691198" lon="-2.751661">
        <ele>624.619</ele>
        <time>2022-07-08T18:12:43Z</time>
      </trkpt>
      <trkpt lat="42.691154" lon="-2.751727">
        <ele>624.609</ele>
        <time>2022-07-08T18:12:44Z</time>
      </trkpt>
      <trkpt lat="42.691116" lon="-2.751792">
        <ele>624.652</ele>
        <time>2022-07-08T18:12:45Z</time>
      </trkpt>
      <trkpt lat="42.691067" lon="-2.751871">
        <ele>624.691</ele>
        <time>2022-07-08T18:12:46Z</time>
      </trkpt>
      <trkpt lat="42.691031" lon="-2.751942">
        <ele>624.488</ele>
        <time>2022-07-08T18:12:47Z</time>
      </trkpt>
      <trkpt lat="42.690999" lon="-2.752032">
        <ele>623.994</ele>
        <time>2022-07-08T18:12:48Z</time>
      </trkpt>
      <trkpt lat="42.690970" lon="-2.752141">
        <ele>623.590</ele>
        <time>2022-07-08T18:12:49Z</time>
      </trkpt>
      <trkpt lat="42.690938" lon="-2.752254">
        <ele>622.956</ele>
        <time>2022-07-08T18:12:50Z</time>
      </trkpt>
      <trkpt lat="42.690913" lon="-2.752370">
        <ele>622.416</ele>
        <time>2022-07-08T18:12:51Z</time>
      </trkpt>
      <trkpt lat="42.690889" lon="-2.752484">
        <ele>621.913</ele>
        <time>2022-07-08T18:12:52Z</time>
      </trkpt>
      <trkpt lat="42.690877" lon="-2.752592">
        <ele>621.395</ele>
        <time>2022-07-08T18:12:53Z</time>
      </trkpt>
      <trkpt lat="42.690859" lon="-2.752703">
        <ele>620.711</ele>
        <time>2022-07-08T18:12:54Z</time>
      </trkpt>
      <trkpt lat="42.690847" lon="-2.752818">
        <ele>620.221</ele>
        <time>2022-07-08T18:12:55Z</time>
      </trkpt>
      <trkpt lat="42.690835" lon="-2.752913">
        <ele>619.703</ele>
        <time>2022-07-08T18:12:56Z</time>
      </trkpt>
      <trkpt lat="42.690825" lon="-2.753016">
        <ele>619.209</ele>
        <time>2022-07-08T18:12:57Z</time>
      </trkpt>
      <trkpt lat="42.690810" lon="-2.753129">
        <ele>618.782</ele>
        <time>2022-07-08T18:12:58Z</time>
      </trkpt>
      <trkpt lat="42.690800" lon="-2.753242">
        <ele>618.391</ele>
        <time>2022-07-08T18:12:59Z</time>
      </trkpt>
      <trkpt lat="42.690787" lon="-2.753351">
        <ele>617.898</ele>
        <time>2022-07-08T18:13:00Z</time>
      </trkpt>
      <trkpt lat="42.690774" lon="-2.753459">
        <ele>617.334</ele>
        <time>2022-07-08T18:13:01Z</time>
      </trkpt>
      <trkpt lat="42.690756" lon="-2.753569">
        <ele>616.870</ele>
        <time>2022-07-08T18:13:02Z</time>
      </trkpt>
      <trkpt lat="42.690735" lon="-2.753688">
        <ele>616.456</ele>
        <time>2022-07-08T18:13:03Z</time>
      </trkpt>
      <trkpt lat="42.690723" lon="-2.753795">
        <ele>616.076</ele>
        <time>2022-07-08T18:13:04Z</time>
      </trkpt>
      <trkpt lat="42.690710" lon="-2.753914">
        <ele>615.613</ele>
        <time>2022-07-08T18:13:05Z</time>
      </trkpt>
      <trkpt lat="42.690706" lon="-2.754010">
        <ele>615.415</ele>
        <time>2022-07-08T18:13:06Z</time>
      </trkpt>
      <trkpt lat="42.690697" lon="-2.754132">
        <ele>615.227</ele>
        <time>2022-07-08T18:13:07Z</time>
      </trkpt>
      <trkpt lat="42.690674" lon="-2.754230">
        <ele>615.168</ele>
        <time>2022-07-08T18:13:08Z</time>
      </trkpt>
      <trkpt lat="42.690653" lon="-2.754326">
        <ele>614.914</ele>
        <time>2022-07-08T18:13:09Z</time>
      </trkpt>
      <trkpt lat="42.690639" lon="-2.754429">
        <ele>614.609</ele>
        <time>2022-07-08T18:13:10Z</time>
      </trkpt>
      <trkpt lat="42.690619" lon="-2.754532">
        <ele>614.383</ele>
        <time>2022-07-08T18:13:11Z</time>
      </trkpt>
      <trkpt lat="42.690596" lon="-2.754654">
        <ele>613.822</ele>
        <time>2022-07-08T18:13:12Z</time>
      </trkpt>
      <trkpt lat="42.690579" lon="-2.754754">
        <ele>613.249</ele>
        <time>2022-07-08T18:13:13Z</time>
      </trkpt>
      <trkpt lat="42.690565" lon="-2.754857">
        <ele>612.925</ele>
        <time>2022-07-08T18:13:14Z</time>
      </trkpt>
      <trkpt lat="42.690554" lon="-2.754966">
        <ele>612.551</ele>
        <time>2022-07-08T18:13:15Z</time>
      </trkpt>
      <trkpt lat="42.690545" lon="-2.755082">
        <ele>612.037</ele>
        <time>2022-07-08T18:13:16Z</time>
      </trkpt>
      <trkpt lat="42.690538" lon="-2.755194">
        <ele>611.667</ele>
        <time>2022-07-08T18:13:17Z</time>
      </trkpt>
      <trkpt lat="42.690529" lon="-2.755295">
        <ele>611.224</ele>
        <time>2022-07-08T18:13:18Z</time>
      </trkpt>
      <trkpt lat="42.690531" lon="-2.755410">
        <ele>610.756</ele>
        <time>2022-07-08T18:13:19Z</time>
      </trkpt>
      <trkpt lat="42.690543" lon="-2.755536">
        <ele>610.126</ele>
        <time>2022-07-08T18:13:20Z</time>
      </trkpt>
      <trkpt lat="42.690555" lon="-2.755668">
        <ele>609.447</ele>
        <time>2022-07-08T18:13:21Z</time>
      </trkpt>
      <trkpt lat="42.690577" lon="-2.755791">
        <ele>608.911</ele>
        <time>2022-07-08T18:13:22Z</time>
      </trkpt>
      <trkpt lat="42.690564" lon="-2.755870">
        <ele>608.709</ele>
        <time>2022-07-08T18:13:23Z</time>
      </trkpt>
      <trkpt lat="42.690578" lon="-2.755980">
        <ele>608.323</ele>
        <time>2022-07-08T18:13:24Z</time>
      </trkpt>
      <trkpt lat="42.690566" lon="-2.756047">
        <ele>607.922</ele>
        <time>2022-07-08T18:13:25Z</time>
      </trkpt>
      <trkpt lat="42.690583" lon="-2.756145">
        <ele>607.799</ele>
        <time>2022-07-08T18:13:26Z</time>
      </trkpt>
      <trkpt lat="42.690592" lon="-2.756209">
        <ele>607.065</ele>
        <time>2022-07-08T18:13:27Z</time>
      </trkpt>
      <trkpt lat="42.690600" lon="-2.756320">
        <ele>606.421</ele>
        <time>2022-07-08T18:13:29Z</time>
      </trkpt>
      <trkpt lat="42.690617" lon="-2.756390">
        <ele>606.427</ele>
        <time>2022-07-08T18:13:31Z</time>
      </trkpt>
      <trkpt lat="42.690622" lon="-2.756459">
        <ele>606.427</ele>
        <time>2022-07-08T18:13:33Z</time>
      </trkpt>
      <trkpt lat="42.690623" lon="-2.756547">
        <ele>607.244</ele>
        <time>2022-07-08T18:13:35Z</time>
      </trkpt>
      <trkpt lat="42.690663" lon="-2.756613">
        <ele>607.486</ele>
        <time>2022-07-08T18:13:37Z</time>
      </trkpt>
      <trkpt lat="42.690710" lon="-2.756607">
        <ele>607.786</ele>
        <time>2022-07-08T18:13:39Z</time>
      </trkpt>
      <trkpt lat="42.690759" lon="-2.756575">
        <ele>607.960</ele>
        <time>2022-07-08T18:13:41Z</time>
      </trkpt>
      <trkpt lat="42.690806" lon="-2.756538">
        <ele>608.226</ele>
        <time>2022-07-08T18:13:43Z</time>
      </trkpt>
      <trkpt lat="42.690859" lon="-2.756508">
        <ele>608.609</ele>
        <time>2022-07-08T18:13:45Z</time>
      </trkpt>
      <trkpt lat="42.690915" lon="-2.756490">
        <ele>609.339</ele>
        <time>2022-07-08T18:13:47Z</time>
      </trkpt>
      <trkpt lat="42.690970" lon="-2.756464">
        <ele>609.798</ele>
        <time>2022-07-08T18:13:49Z</time>
      </trkpt>
      <trkpt lat="42.691023" lon="-2.756435">
        <ele>609.865</ele>
        <time>2022-07-08T18:13:51Z</time>
      </trkpt>
      <trkpt lat="42.691069" lon="-2.756412">
        <ele>609.991</ele>
        <time>2022-07-08T18:13:53Z</time>
      </trkpt>
      <trkpt lat="42.691129" lon="-2.756382">
        <ele>610.437</ele>
        <time>2022-07-08T18:13:55Z</time>
      </trkpt>
      <trkpt lat="42.691183" lon="-2.756357">
        <ele>610.863</ele>
        <time>2022-07-08T18:13:57Z</time>
      </trkpt>
      <trkpt lat="42.691236" lon="-2.756339">
        <ele>611.023</ele>
        <time>2022-07-08T18:13:59Z</time>
      </trkpt>
      <trkpt lat="42.691291" lon="-2.756321">
        <ele>611.110</ele>
        <time>2022-07-08T18:14:01Z</time>
      </trkpt>
      <trkpt lat="42.691350" lon="-2.756297">
        <ele>611.642</ele>
        <time>2022-07-08T18:14:03Z</time>
      </trkpt>
      <trkpt lat="42.691408" lon="-2.756274">
        <ele>612.197</ele>
        <time>2022-07-08T18:14:05Z</time>
      </trkpt>
      <trkpt lat="42.691467" lon="-2.756251">
        <ele>612.423</ele>
        <time>2022-07-08T18:14:07Z</time>
      </trkpt>
      <trkpt lat="42.691529" lon="-2.756230">
        <ele>612.825</ele>
        <time>2022-07-08T18:14:09Z</time>
      </trkpt>
      <trkpt lat="42.691591" lon="-2.756200">
        <ele>613.409</ele>
        <time>2022-07-08T18:14:11Z</time>
      </trkpt>
      <trkpt lat="42.691651" lon="-2.756165">
        <ele>613.770</ele>
        <time>2022-07-08T18:14:13Z</time>
      </trkpt>
      <trkpt lat="42.691710" lon="-2.756137">
        <ele>613.879</ele>
        <time>2022-07-08T18:14:15Z</time>
      </trkpt>
      <trkpt lat="42.691768" lon="-2.756112">
        <ele>613.996</ele>
        <time>2022-07-08T18:14:17Z</time>
      </trkpt>
      <trkpt lat="42.691827" lon="-2.756086">
        <ele>614.212</ele>
        <time>2022-07-08T18:14:19Z</time>
      </trkpt>
      <trkpt lat="42.691884" lon="-2.756057">
        <ele>614.318</ele>
        <time>2022-07-08T18:14:21Z</time>
      </trkpt>
      <trkpt lat="42.691939" lon="-2.756028">
        <ele>614.384</ele>
        <time>2022-07-08T18:14:23Z</time>
      </trkpt>
      <trkpt lat="42.692001" lon="-2.756003">
        <ele>614.334</ele>
        <time>2022-07-08T18:14:25Z</time>
      </trkpt>
      <trkpt lat="42.692057" lon="-2.755982">
        <ele>614.551</ele>
        <time>2022-07-08T18:14:27Z</time>
      </trkpt>
      <trkpt lat="42.692104" lon="-2.755959">
        <ele>614.773</ele>
        <time>2022-07-08T18:14:29Z</time>
      </trkpt>
      <trkpt lat="42.692149" lon="-2.755940">
        <ele>615.169</ele>
        <time>2022-07-08T18:14:31Z</time>
      </trkpt>
      <trkpt lat="42.692209" lon="-2.755913">
        <ele>615.404</ele>
        <time>2022-07-08T18:14:34Z</time>
      </trkpt>
      <trkpt lat="42.692272" lon="-2.755893">
        <ele>615.624</ele>
        <time>2022-07-08T18:14:37Z</time>
      </trkpt>
      <trkpt lat="42.692316" lon="-2.755877">
        <ele>616.209</ele>
        <time>2022-07-08T18:14:39Z</time>
      </trkpt>
      <trkpt lat="42.692361" lon="-2.755859">
        <ele>616.457</ele>
        <time>2022-07-08T18:14:41Z</time>
      </trkpt>
      <trkpt lat="42.692417" lon="-2.755833">
        <ele>616.916</ele>
        <time>2022-07-08T18:14:44Z</time>
      </trkpt>
      <trkpt lat="42.692465" lon="-2.755809">
        <ele>617.183</ele>
        <time>2022-07-08T18:14:47Z</time>
      </trkpt>
      <trkpt lat="42.692520" lon="-2.755780">
        <ele>617.619</ele>
        <time>2022-07-08T18:14:51Z</time>
      </trkpt>
      <trkpt lat="42.692575" lon="-2.755746">
        <ele>618.265</ele>
        <time>2022-07-08T18:14:54Z</time>
      </trkpt>
      <trkpt lat="42.692625" lon="-2.755725">
        <ele>619.841</ele>
        <time>2022-07-08T18:14:57Z</time>
      </trkpt>
      <trkpt lat="42.692681" lon="-2.755713">
        <ele>620.551</ele>
        <time>2022-07-08T18:15:01Z</time>
      </trkpt>
      <trkpt lat="42.692725" lon="-2.755730">
        <ele>621.328</ele>
        <time>2022-07-08T18:15:04Z</time>
      </trkpt>
      <trkpt lat="42.692770" lon="-2.755756">
        <ele>621.840</ele>
        <time>2022-07-08T18:15:07Z</time>
      </trkpt>
      <trkpt lat="42.692815" lon="-2.755791">
        <ele>622.632</ele>
        <time>2022-07-08T18:15:10Z</time>
      </trkpt>
      <trkpt lat="42.692857" lon="-2.755844">
        <ele>623.392</ele>
        <time>2022-07-08T18:15:13Z</time>
      </trkpt>
      <trkpt lat="42.692897" lon="-2.755890">
        <ele>624.011</ele>
        <time>2022-07-08T18:15:16Z</time>
      </trkpt>
      <trkpt lat="42.692925" lon="-2.755957">
        <ele>624.609</ele>
        <time>2022-07-08T18:15:19Z</time>
      </trkpt>
      <trkpt lat="42.692949" lon="-2.756028">
        <ele>625.544</ele>
        <time>2022-07-08T18:15:22Z</time>
      </trkpt>
      <trkpt lat="42.692972" lon="-2.756109">
        <ele>625.963</ele>
        <time>2022-07-08T18:15:25Z</time>
      </trkpt>
      <trkpt lat="42.692992" lon="-2.756180">
        <ele>626.660</ele>
        <time>2022-07-08T18:15:28Z</time>
      </trkpt>
      <trkpt lat="42.693010" lon="-2.756247">
        <ele>627.436</ele>
        <time>2022-07-08T18:15:31Z</time>
      </trkpt>
      <trkpt lat="42.693022" lon="-2.756307">
        <ele>628.072</ele>
        <time>2022-07-08T18:15:34Z</time>
      </trkpt>
      <trkpt lat="42.693040" lon="-2.756380">
        <ele>628.578</ele>
        <time>2022-07-08T18:15:38Z</time>
      </trkpt>
      <trkpt lat="42.693070" lon="-2.756450">
        <ele>629.048</ele>
        <time>2022-07-08T18:15:41Z</time>
      </trkpt>
      <trkpt lat="42.693100" lon="-2.756517">
        <ele>629.395</ele>
        <time>2022-07-08T18:15:44Z</time>
      </trkpt>
      <trkpt lat="42.693139" lon="-2.756579">
        <ele>629.887</ele>
        <time>2022-07-08T18:15:47Z</time>
      </trkpt>
      <trkpt lat="42.693169" lon="-2.756631">
        <ele>630.517</ele>
        <time>2022-07-08T18:15:51Z</time>
      </trkpt>
      <trkpt lat="42.693195" lon="-2.756684">
        <ele>631.187</ele>
        <time>2022-07-08T18:15:55Z</time>
      </trkpt>
      <trkpt lat="42.693228" lon="-2.756744">
        <ele>631.515</ele>
        <time>2022-07-08T18:15:58Z</time>
      </trkpt>
      <trkpt lat="42.693260" lon="-2.756816">
        <ele>632.909</ele>
        <time>2022-07-08T18:16:02Z</time>
      </trkpt>
      <trkpt lat="42.693292" lon="-2.756882">
        <ele>633.472</ele>
        <time>2022-07-08T18:16:05Z</time>
      </trkpt>
      <trkpt lat="42.693326" lon="-2.756936">
        <ele>633.881</ele>
        <time>2022-07-08T18:16:08Z</time>
      </trkpt>
      <trkpt lat="42.693363" lon="-2.756995">
        <ele>634.918</ele>
        <time>2022-07-08T18:16:11Z</time>
      </trkpt>
      <trkpt lat="42.693388" lon="-2.757047">
        <ele>635.434</ele>
        <time>2022-07-08T18:16:14Z</time>
      </trkpt>
      <trkpt lat="42.693436" lon="-2.757095">
        <ele>635.920</ele>
        <time>2022-07-08T18:16:18Z</time>
      </trkpt>
      <trkpt lat="42.693484" lon="-2.757138">
        <ele>636.576</ele>
        <time>2022-07-08T18:16:21Z</time>
      </trkpt>
      <trkpt lat="42.693536" lon="-2.757164">
        <ele>637.646</ele>
        <time>2022-07-08T18:16:24Z</time>
      </trkpt>
      <trkpt lat="42.693585" lon="-2.757185">
        <ele>638.153</ele>
        <time>2022-07-08T18:16:27Z</time>
      </trkpt>
      <trkpt lat="42.693639" lon="-2.757193">
        <ele>638.565</ele>
        <time>2022-07-08T18:16:30Z</time>
      </trkpt>
      <trkpt lat="42.693691" lon="-2.757201">
        <ele>638.711</ele>
        <time>2022-07-08T18:16:33Z</time>
      </trkpt>
      <trkpt lat="42.693739" lon="-2.757203">
        <ele>638.921</ele>
        <time>2022-07-08T18:16:36Z</time>
      </trkpt>
      <trkpt lat="42.693790" lon="-2.757206">
        <ele>639.203</ele>
        <time>2022-07-08T18:16:39Z</time>
      </trkpt>
      <trkpt lat="42.693842" lon="-2.757195">
        <ele>639.709</ele>
        <time>2022-07-08T18:16:42Z</time>
      </trkpt>
      <trkpt lat="42.693887" lon="-2.757181">
        <ele>640.262</ele>
        <time>2022-07-08T18:16:45Z</time>
      </trkpt>
      <trkpt lat="42.693936" lon="-2.757171">
        <ele>640.581</ele>
        <time>2022-07-08T18:16:48Z</time>
      </trkpt>
      <trkpt lat="42.693985" lon="-2.757144">
        <ele>640.998</ele>
        <time>2022-07-08T18:16:51Z</time>
      </trkpt>
      <trkpt lat="42.694029" lon="-2.757118">
        <ele>641.464</ele>
        <time>2022-07-08T18:16:53Z</time>
      </trkpt>
      <trkpt lat="42.694083" lon="-2.757086">
        <ele>641.970</ele>
        <time>2022-07-08T18:16:56Z</time>
      </trkpt>
      <trkpt lat="42.694132" lon="-2.757055">
        <ele>642.356</ele>
        <time>2022-07-08T18:16:59Z</time>
      </trkpt>
      <trkpt lat="42.694185" lon="-2.757028">
        <ele>642.656</ele>
        <time>2022-07-08T18:17:02Z</time>
      </trkpt>
      <trkpt lat="42.694242" lon="-2.757001">
        <ele>642.713</ele>
        <time>2022-07-08T18:17:05Z</time>
      </trkpt>
      <trkpt lat="42.694296" lon="-2.756970">
        <ele>642.885</ele>
        <time>2022-07-08T18:17:08Z</time>
      </trkpt>
      <trkpt lat="42.694344" lon="-2.756952">
        <ele>643.068</ele>
        <time>2022-07-08T18:17:10Z</time>
      </trkpt>
      <trkpt lat="42.694392" lon="-2.756928">
        <ele>643.542</ele>
        <time>2022-07-08T18:17:13Z</time>
      </trkpt>
      <trkpt lat="42.694452" lon="-2.756899">
        <ele>643.826</ele>
        <time>2022-07-08T18:17:16Z</time>
      </trkpt>
      <trkpt lat="42.694500" lon="-2.756874">
        <ele>644.109</ele>
        <time>2022-07-08T18:17:19Z</time>
      </trkpt>
      <trkpt lat="42.694558" lon="-2.756846">
        <ele>644.147</ele>
        <time>2022-07-08T18:17:22Z</time>
      </trkpt>
      <trkpt lat="42.694616" lon="-2.756831">
        <ele>644.626</ele>
        <time>2022-07-08T18:17:25Z</time>
      </trkpt>
      <trkpt lat="42.694662" lon="-2.756820">
        <ele>645.063</ele>
        <time>2022-07-08T18:17:27Z</time>
      </trkpt>
      <trkpt lat="42.694722" lon="-2.756790">
        <ele>645.519</ele>
        <time>2022-07-08T18:17:30Z</time>
      </trkpt>
      <trkpt lat="42.694770" lon="-2.756767">
        <ele>645.885</ele>
        <time>2022-07-08T18:17:32Z</time>
      </trkpt>
      <trkpt lat="42.694816" lon="-2.756744">
        <ele>646.111</ele>
        <time>2022-07-08T18:17:34Z</time>
      </trkpt>
      <trkpt lat="42.694860" lon="-2.756726">
        <ele>646.411</ele>
        <time>2022-07-08T18:17:36Z</time>
      </trkpt>
      <trkpt lat="42.694924" lon="-2.756707">
        <ele>646.568</ele>
        <time>2022-07-08T18:17:39Z</time>
      </trkpt>
      <trkpt lat="42.694992" lon="-2.756696">
        <ele>646.840</ele>
        <time>2022-07-08T18:17:42Z</time>
      </trkpt>
      <trkpt lat="42.695036" lon="-2.756723">
        <ele>647.186</ele>
        <time>2022-07-08T18:17:44Z</time>
      </trkpt>
      <trkpt lat="42.695086" lon="-2.756789">
        <ele>647.160</ele>
        <time>2022-07-08T18:17:46Z</time>
      </trkpt>
      <trkpt lat="42.695117" lon="-2.756909">
        <ele>647.126</ele>
        <time>2022-07-08T18:17:48Z</time>
      </trkpt>
      <trkpt lat="42.695170" lon="-2.757020">
        <ele>647.009</ele>
        <time>2022-07-08T18:17:50Z</time>
      </trkpt>
      <trkpt lat="42.695201" lon="-2.757089">
        <ele>646.789</ele>
        <time>2022-07-08T18:17:51Z</time>
      </trkpt>
      <trkpt lat="42.695227" lon="-2.757160">
        <ele>646.428</ele>
        <time>2022-07-08T18:17:52Z</time>
      </trkpt>
      <trkpt lat="42.695256" lon="-2.757227">
        <ele>646.125</ele>
        <time>2022-07-08T18:17:53Z</time>
      </trkpt>
      <trkpt lat="42.695283" lon="-2.757302">
        <ele>645.951</ele>
        <time>2022-07-08T18:17:54Z</time>
      </trkpt>
      <trkpt lat="42.695303" lon="-2.757375">
        <ele>645.367</ele>
        <time>2022-07-08T18:17:55Z</time>
      </trkpt>
      <trkpt lat="42.695320" lon="-2.757433">
        <ele>645.143</ele>
        <time>2022-07-08T18:17:56Z</time>
      </trkpt>
      <trkpt lat="42.695350" lon="-2.757496">
        <ele>644.663</ele>
        <time>2022-07-08T18:17:57Z</time>
      </trkpt>
      <trkpt lat="42.695385" lon="-2.757610">
        <ele>644.410</ele>
        <time>2022-07-08T18:17:59Z</time>
      </trkpt>
      <trkpt lat="42.695421" lon="-2.757714">
        <ele>644.482</ele>
        <time>2022-07-08T18:18:01Z</time>
      </trkpt>
      <trkpt lat="42.695446" lon="-2.757771">
        <ele>644.414</ele>
        <time>2022-07-08T18:18:02Z</time>
      </trkpt>
      <trkpt lat="42.695461" lon="-2.757841">
        <ele>644.454</ele>
        <time>2022-07-08T18:18:03Z</time>
      </trkpt>
      <trkpt lat="42.695486" lon="-2.757939">
        <ele>644.409</ele>
        <time>2022-07-08T18:18:05Z</time>
      </trkpt>
      <trkpt lat="42.695530" lon="-2.758055">
        <ele>644.309</ele>
        <time>2022-07-08T18:18:07Z</time>
      </trkpt>
      <trkpt lat="42.695560" lon="-2.758122">
        <ele>644.242</ele>
        <time>2022-07-08T18:18:08Z</time>
      </trkpt>
      <trkpt lat="42.695583" lon="-2.758185">
        <ele>644.191</ele>
        <time>2022-07-08T18:18:09Z</time>
      </trkpt>
      <trkpt lat="42.695627" lon="-2.758298">
        <ele>644.038</ele>
        <time>2022-07-08T18:18:11Z</time>
      </trkpt>
      <trkpt lat="42.695652" lon="-2.758374">
        <ele>644.044</ele>
        <time>2022-07-08T18:18:12Z</time>
      </trkpt>
      <trkpt lat="42.695691" lon="-2.758471">
        <ele>643.830</ele>
        <time>2022-07-08T18:18:13Z</time>
      </trkpt>
      <trkpt lat="42.695711" lon="-2.758559">
        <ele>643.786</ele>
        <time>2022-07-08T18:18:14Z</time>
      </trkpt>
      <trkpt lat="42.695757" lon="-2.758690">
        <ele>643.536</ele>
        <time>2022-07-08T18:18:15Z</time>
      </trkpt>
      <trkpt lat="42.695785" lon="-2.758766">
        <ele>643.133</ele>
        <time>2022-07-08T18:18:16Z</time>
      </trkpt>
      <trkpt lat="42.695817" lon="-2.758855">
        <ele>642.835</ele>
        <time>2022-07-08T18:18:17Z</time>
      </trkpt>
      <trkpt lat="42.695859" lon="-2.758949">
        <ele>642.554</ele>
        <time>2022-07-08T18:18:18Z</time>
      </trkpt>
      <trkpt lat="42.695903" lon="-2.759042">
        <ele>642.156</ele>
        <time>2022-07-08T18:18:19Z</time>
      </trkpt>
      <trkpt lat="42.695921" lon="-2.759116">
        <ele>641.711</ele>
        <time>2022-07-08T18:18:20Z</time>
      </trkpt>
      <trkpt lat="42.695937" lon="-2.759185">
        <ele>641.309</ele>
        <time>2022-07-08T18:18:21Z</time>
      </trkpt>
      <trkpt lat="42.695959" lon="-2.759253">
        <ele>641.136</ele>
        <time>2022-07-08T18:18:22Z</time>
      </trkpt>
      <trkpt lat="42.695974" lon="-2.759324">
        <ele>640.875</ele>
        <time>2022-07-08T18:18:23Z</time>
      </trkpt>
      <trkpt lat="42.695984" lon="-2.759395">
        <ele>640.562</ele>
        <time>2022-07-08T18:18:24Z</time>
      </trkpt>
      <trkpt lat="42.695986" lon="-2.759504">
        <ele>640.418</ele>
        <time>2022-07-08T18:18:26Z</time>
      </trkpt>
      <trkpt lat="42.695983" lon="-2.759580">
        <ele>640.484</ele>
        <time>2022-07-08T18:18:27Z</time>
      </trkpt>
      <trkpt lat="42.695952" lon="-2.759683">
        <ele>640.390</ele>
        <time>2022-07-08T18:18:29Z</time>
      </trkpt>
      <trkpt lat="42.695921" lon="-2.759750">
        <ele>640.630</ele>
        <time>2022-07-08T18:18:31Z</time>
      </trkpt>
      <trkpt lat="42.695881" lon="-2.759819">
        <ele>640.897</ele>
        <time>2022-07-08T18:18:33Z</time>
      </trkpt>
      <trkpt lat="42.695845" lon="-2.759882">
        <ele>640.949</ele>
        <time>2022-07-08T18:18:35Z</time>
      </trkpt>
      <trkpt lat="42.695799" lon="-2.759966">
        <ele>641.384</ele>
        <time>2022-07-08T18:18:37Z</time>
      </trkpt>
      <trkpt lat="42.695761" lon="-2.760036">
        <ele>641.607</ele>
        <time>2022-07-08T18:18:39Z</time>
      </trkpt>
      <trkpt lat="42.695725" lon="-2.760106">
        <ele>642.017</ele>
        <time>2022-07-08T18:18:41Z</time>
      </trkpt>
      <trkpt lat="42.695683" lon="-2.760168">
        <ele>642.709</ele>
        <time>2022-07-08T18:18:43Z</time>
      </trkpt>
      <trkpt lat="42.695639" lon="-2.760233">
        <ele>643.239</ele>
        <time>2022-07-08T18:18:45Z</time>
      </trkpt>
      <trkpt lat="42.695584" lon="-2.760295">
        <ele>643.518</ele>
        <time>2022-07-08T18:18:47Z</time>
      </trkpt>
      <trkpt lat="42.695520" lon="-2.760344">
        <ele>643.845</ele>
        <time>2022-07-08T18:18:49Z</time>
      </trkpt>
      <trkpt lat="42.695465" lon="-2.760390">
        <ele>644.171</ele>
        <time>2022-07-08T18:18:51Z</time>
      </trkpt>
      <trkpt lat="42.695403" lon="-2.760452">
        <ele>644.297</ele>
        <time>2022-07-08T18:18:53Z</time>
      </trkpt>
      <trkpt lat="42.695355" lon="-2.760476">
        <ele>644.183</ele>
        <time>2022-07-08T18:18:54Z</time>
      </trkpt>
      <trkpt lat="42.695327" lon="-2.760529">
        <ele>644.153</ele>
        <time>2022-07-08T18:18:55Z</time>
      </trkpt>
      <trkpt lat="42.695299" lon="-2.760589">
        <ele>644.080</ele>
        <time>2022-07-08T18:18:56Z</time>
      </trkpt>
      <trkpt lat="42.695277" lon="-2.760644">
        <ele>644.072</ele>
        <time>2022-07-08T18:18:57Z</time>
      </trkpt>
      <trkpt lat="42.695254" lon="-2.760702">
        <ele>644.035</ele>
        <time>2022-07-08T18:18:58Z</time>
      </trkpt>
      <trkpt lat="42.695241" lon="-2.760785">
        <ele>644.086</ele>
        <time>2022-07-08T18:18:59Z</time>
      </trkpt>
      <trkpt lat="42.695229" lon="-2.760850">
        <ele>644.014</ele>
        <time>2022-07-08T18:19:00Z</time>
      </trkpt>
      <trkpt lat="42.695206" lon="-2.760961">
        <ele>644.009</ele>
        <time>2022-07-08T18:19:02Z</time>
      </trkpt>
      <trkpt lat="42.695186" lon="-2.761078">
        <ele>643.884</ele>
        <time>2022-07-08T18:19:04Z</time>
      </trkpt>
      <trkpt lat="42.695187" lon="-2.761191">
        <ele>643.613</ele>
        <time>2022-07-08T18:19:06Z</time>
      </trkpt>
      <trkpt lat="42.695197" lon="-2.761326">
        <ele>643.620</ele>
        <time>2022-07-08T18:19:08Z</time>
      </trkpt>
      <trkpt lat="42.695221" lon="-2.761453">
        <ele>643.956</ele>
        <time>2022-07-08T18:19:10Z</time>
      </trkpt>
      <trkpt lat="42.695211" lon="-2.761545">
        <ele>643.992</ele>
        <time>2022-07-08T18:19:11Z</time>
      </trkpt>
      <trkpt lat="42.695190" lon="-2.761620">
        <ele>643.938</ele>
        <time>2022-07-08T18:19:12Z</time>
      </trkpt>
      <trkpt lat="42.695150" lon="-2.761699">
        <ele>643.768</ele>
        <time>2022-07-08T18:19:13Z</time>
      </trkpt>
      <trkpt lat="42.695103" lon="-2.761769">
        <ele>643.565</ele>
        <time>2022-07-08T18:19:14Z</time>
      </trkpt>
      <trkpt lat="42.695056" lon="-2.761843">
        <ele>643.087</ele>
        <time>2022-07-08T18:19:15Z</time>
      </trkpt>
      <trkpt lat="42.695009" lon="-2.761925">
        <ele>642.531</ele>
        <time>2022-07-08T18:19:16Z</time>
      </trkpt>
      <trkpt lat="42.694964" lon="-2.762010">
        <ele>641.961</ele>
        <time>2022-07-08T18:19:17Z</time>
      </trkpt>
      <trkpt lat="42.694930" lon="-2.762096">
        <ele>641.207</ele>
        <time>2022-07-08T18:19:18Z</time>
      </trkpt>
      <trkpt lat="42.694918" lon="-2.762193">
        <ele>640.509</ele>
        <time>2022-07-08T18:19:19Z</time>
      </trkpt>
      <trkpt lat="42.694925" lon="-2.762331">
        <ele>639.814</ele>
        <time>2022-07-08T18:19:20Z</time>
      </trkpt>
      <trkpt lat="42.694951" lon="-2.762428">
        <ele>639.543</ele>
        <time>2022-07-08T18:19:21Z</time>
      </trkpt>
      <trkpt lat="42.694972" lon="-2.762527">
        <ele>639.250</ele>
        <time>2022-07-08T18:19:22Z</time>
      </trkpt>
      <trkpt lat="42.694980" lon="-2.762636">
        <ele>638.586</ele>
        <time>2022-07-08T18:19:23Z</time>
      </trkpt>
      <trkpt lat="42.694992" lon="-2.762730">
        <ele>637.872</ele>
        <time>2022-07-08T18:19:24Z</time>
      </trkpt>
      <trkpt lat="42.695013" lon="-2.762836">
        <ele>637.268</ele>
        <time>2022-07-08T18:19:25Z</time>
      </trkpt>
      <trkpt lat="42.695042" lon="-2.762935">
        <ele>636.548</ele>
        <time>2022-07-08T18:19:26Z</time>
      </trkpt>
      <trkpt lat="42.695078" lon="-2.763031">
        <ele>635.735</ele>
        <time>2022-07-08T18:19:27Z</time>
      </trkpt>
      <trkpt lat="42.695126" lon="-2.763128">
        <ele>635.067</ele>
        <time>2022-07-08T18:19:28Z</time>
      </trkpt>
      <trkpt lat="42.695183" lon="-2.763196">
        <ele>634.239</ele>
        <time>2022-07-08T18:19:29Z</time>
      </trkpt>
      <trkpt lat="42.695258" lon="-2.763265">
        <ele>633.301</ele>
        <time>2022-07-08T18:19:30Z</time>
      </trkpt>
      <trkpt lat="42.695335" lon="-2.763320">
        <ele>632.521</ele>
        <time>2022-07-08T18:19:31Z</time>
      </trkpt>
      <trkpt lat="42.695400" lon="-2.763352">
        <ele>631.709</ele>
        <time>2022-07-08T18:19:32Z</time>
      </trkpt>
      <trkpt lat="42.695474" lon="-2.763397">
        <ele>630.914</ele>
        <time>2022-07-08T18:19:33Z</time>
      </trkpt>
      <trkpt lat="42.695545" lon="-2.763436">
        <ele>630.343</ele>
        <time>2022-07-08T18:19:34Z</time>
      </trkpt>
      <trkpt lat="42.695626" lon="-2.763474">
        <ele>629.850</ele>
        <time>2022-07-08T18:19:35Z</time>
      </trkpt>
      <trkpt lat="42.695692" lon="-2.763507">
        <ele>629.336</ele>
        <time>2022-07-08T18:19:36Z</time>
      </trkpt>
      <trkpt lat="42.695750" lon="-2.763545">
        <ele>628.962</ele>
        <time>2022-07-08T18:19:37Z</time>
      </trkpt>
      <trkpt lat="42.695800" lon="-2.763577">
        <ele>628.658</ele>
        <time>2022-07-08T18:19:38Z</time>
      </trkpt>
      <trkpt lat="42.695843" lon="-2.763612">
        <ele>628.448</ele>
        <time>2022-07-08T18:19:39Z</time>
      </trkpt>
      <trkpt lat="42.695892" lon="-2.763640">
        <ele>628.075</ele>
        <time>2022-07-08T18:19:40Z</time>
      </trkpt>
      <trkpt lat="42.695932" lon="-2.763673">
        <ele>627.737</ele>
        <time>2022-07-08T18:19:41Z</time>
      </trkpt>
      <trkpt lat="42.696003" lon="-2.763733">
        <ele>627.727</ele>
        <time>2022-07-08T18:19:43Z</time>
      </trkpt>
      <trkpt lat="42.696067" lon="-2.763792">
        <ele>627.768</ele>
        <time>2022-07-08T18:19:45Z</time>
      </trkpt>
      <trkpt lat="42.696123" lon="-2.763845">
        <ele>628.014</ele>
        <time>2022-07-08T18:19:47Z</time>
      </trkpt>
      <trkpt lat="42.696175" lon="-2.763896">
        <ele>628.409</ele>
        <time>2022-07-08T18:19:49Z</time>
      </trkpt>
      <trkpt lat="42.696214" lon="-2.763931">
        <ele>628.663</ele>
        <time>2022-07-08T18:19:51Z</time>
      </trkpt>
      <trkpt lat="42.696266" lon="-2.763992">
        <ele>628.882</ele>
        <time>2022-07-08T18:19:54Z</time>
      </trkpt>
      <trkpt lat="42.696295" lon="-2.764041">
        <ele>629.439</ele>
        <time>2022-07-08T18:19:56Z</time>
      </trkpt>
      <trkpt lat="42.696323" lon="-2.764119">
        <ele>630.335</ele>
        <time>2022-07-08T18:19:59Z</time>
      </trkpt>
      <trkpt lat="42.696338" lon="-2.764206">
        <ele>630.751</ele>
        <time>2022-07-08T18:20:02Z</time>
      </trkpt>
      <trkpt lat="42.696340" lon="-2.764268">
        <ele>631.427</ele>
        <time>2022-07-08T18:20:04Z</time>
      </trkpt>
      <trkpt lat="42.696340" lon="-2.764332">
        <ele>631.727</ele>
        <time>2022-07-08T18:20:06Z</time>
      </trkpt>
      <trkpt lat="42.696338" lon="-2.764396">
        <ele>632.684</ele>
        <time>2022-07-08T18:20:08Z</time>
      </trkpt>
      <trkpt lat="42.696334" lon="-2.764459">
        <ele>633.086</ele>
        <time>2022-07-08T18:20:10Z</time>
      </trkpt>
      <trkpt lat="42.696328" lon="-2.764521">
        <ele>633.718</ele>
        <time>2022-07-08T18:20:12Z</time>
      </trkpt>
      <trkpt lat="42.696320" lon="-2.764583">
        <ele>634.198</ele>
        <time>2022-07-08T18:20:14Z</time>
      </trkpt>
      <trkpt lat="42.696316" lon="-2.764645">
        <ele>634.317</ele>
        <time>2022-07-08T18:20:16Z</time>
      </trkpt>
      <trkpt lat="42.696313" lon="-2.764710">
        <ele>634.609</ele>
        <time>2022-07-08T18:20:18Z</time>
      </trkpt>
      <trkpt lat="42.696312" lon="-2.764773">
        <ele>635.282</ele>
        <time>2022-07-08T18:20:20Z</time>
      </trkpt>
      <trkpt lat="42.696312" lon="-2.764835">
        <ele>635.751</ele>
        <time>2022-07-08T18:20:22Z</time>
      </trkpt>
      <trkpt lat="42.696312" lon="-2.764928">
        <ele>636.058</ele>
        <time>2022-07-08T18:20:25Z</time>
      </trkpt>
      <trkpt lat="42.696311" lon="-2.765000">
        <ele>636.334</ele>
        <time>2022-07-08T18:20:27Z</time>
      </trkpt>
      <trkpt lat="42.696309" lon="-2.765077">
        <ele>636.550</ele>
        <time>2022-07-08T18:20:29Z</time>
      </trkpt>
      <trkpt lat="42.696307" lon="-2.765151">
        <ele>636.736</ele>
        <time>2022-07-08T18:20:31Z</time>
      </trkpt>
      <trkpt lat="42.696305" lon="-2.765213">
        <ele>637.016</ele>
        <time>2022-07-08T18:20:33Z</time>
      </trkpt>
      <trkpt lat="42.696278" lon="-2.765291">
        <ele>637.173</ele>
        <time>2022-07-08T18:21:12Z</time>
      </trkpt>
      <trkpt lat="42.696236" lon="-2.765352">
        <ele>637.175</ele>
        <time>2022-07-08T18:21:14Z</time>
      </trkpt>
      <trkpt lat="42.696175" lon="-2.765389">
        <ele>637.126</ele>
        <time>2022-07-08T18:21:16Z</time>
      </trkpt>
      <trkpt lat="42.696109" lon="-2.765412">
        <ele>637.147</ele>
        <time>2022-07-08T18:21:18Z</time>
      </trkpt>
      <trkpt lat="42.696037" lon="-2.765435">
        <ele>637.111</ele>
        <time>2022-07-08T18:21:20Z</time>
      </trkpt>
      <trkpt lat="42.695971" lon="-2.765450">
        <ele>637.109</ele>
        <time>2022-07-08T18:21:22Z</time>
      </trkpt>
      <trkpt lat="42.695890" lon="-2.765448">
        <ele>637.053</ele>
        <time>2022-07-08T18:21:24Z</time>
      </trkpt>
      <trkpt lat="42.695813" lon="-2.765474">
        <ele>636.912</ele>
        <time>2022-07-08T18:21:26Z</time>
      </trkpt>
      <trkpt lat="42.695746" lon="-2.765499">
        <ele>636.949</ele>
        <time>2022-07-08T18:21:28Z</time>
      </trkpt>
      <trkpt lat="42.695677" lon="-2.765522">
        <ele>637.095</ele>
        <time>2022-07-08T18:21:30Z</time>
      </trkpt>
      <trkpt lat="42.695611" lon="-2.765539">
        <ele>637.051</ele>
        <time>2022-07-08T18:21:32Z</time>
      </trkpt>
      <trkpt lat="42.695544" lon="-2.765558">
        <ele>637.087</ele>
        <time>2022-07-08T18:21:34Z</time>
      </trkpt>
      <trkpt lat="42.695472" lon="-2.765592">
        <ele>637.017</ele>
        <time>2022-07-08T18:21:36Z</time>
      </trkpt>
      <trkpt lat="42.695423" lon="-2.765609">
        <ele>637.024</ele>
        <time>2022-07-08T18:21:37Z</time>
      </trkpt>
      <trkpt lat="42.695333" lon="-2.765651">
        <ele>637.026</ele>
        <time>2022-07-08T18:21:39Z</time>
      </trkpt>
      <trkpt lat="42.695271" lon="-2.765666">
        <ele>637.013</ele>
        <time>2022-07-08T18:21:40Z</time>
      </trkpt>
      <trkpt lat="42.695218" lon="-2.765681">
        <ele>637.043</ele>
        <time>2022-07-08T18:21:41Z</time>
      </trkpt>
      <trkpt lat="42.695158" lon="-2.765693">
        <ele>636.807</ele>
        <time>2022-07-08T18:21:42Z</time>
      </trkpt>
      <trkpt lat="42.695089" lon="-2.765715">
        <ele>636.709</ele>
        <time>2022-07-08T18:21:43Z</time>
      </trkpt>
      <trkpt lat="42.695023" lon="-2.765739">
        <ele>636.532</ele>
        <time>2022-07-08T18:21:44Z</time>
      </trkpt>
      <trkpt lat="42.694950" lon="-2.765759">
        <ele>636.161</ele>
        <time>2022-07-08T18:21:45Z</time>
      </trkpt>
      <trkpt lat="42.694876" lon="-2.765771">
        <ele>635.848</ele>
        <time>2022-07-08T18:21:46Z</time>
      </trkpt>
      <trkpt lat="42.694798" lon="-2.765795">
        <ele>635.594</ele>
        <time>2022-07-08T18:21:47Z</time>
      </trkpt>
      <trkpt lat="42.694718" lon="-2.765809">
        <ele>635.320</ele>
        <time>2022-07-08T18:21:48Z</time>
      </trkpt>
      <trkpt lat="42.694649" lon="-2.765837">
        <ele>635.066</ele>
        <time>2022-07-08T18:21:49Z</time>
      </trkpt>
      <trkpt lat="42.694594" lon="-2.765862">
        <ele>634.886</ele>
        <time>2022-07-08T18:21:50Z</time>
      </trkpt>
      <trkpt lat="42.694546" lon="-2.765900">
        <ele>634.823</ele>
        <time>2022-07-08T18:21:51Z</time>
      </trkpt>
      <trkpt lat="42.694508" lon="-2.765964">
        <ele>634.345</ele>
        <time>2022-07-08T18:21:52Z</time>
      </trkpt>
      <trkpt lat="42.694487" lon="-2.766021">
        <ele>633.998</ele>
        <time>2022-07-08T18:21:53Z</time>
      </trkpt>
      <trkpt lat="42.694489" lon="-2.766084">
        <ele>633.715</ele>
        <time>2022-07-08T18:21:54Z</time>
      </trkpt>
      <trkpt lat="42.694513" lon="-2.766153">
        <ele>633.326</ele>
        <time>2022-07-08T18:21:55Z</time>
      </trkpt>
      <trkpt lat="42.694551" lon="-2.766217">
        <ele>632.509</ele>
        <time>2022-07-08T18:21:56Z</time>
      </trkpt>
      <trkpt lat="42.694591" lon="-2.766295">
        <ele>632.190</ele>
        <time>2022-07-08T18:21:57Z</time>
      </trkpt>
      <trkpt lat="42.694629" lon="-2.766374">
        <ele>631.749</ele>
        <time>2022-07-08T18:21:58Z</time>
      </trkpt>
      <trkpt lat="42.694675" lon="-2.766455">
        <ele>631.066</ele>
        <time>2022-07-08T18:21:59Z</time>
      </trkpt>
      <trkpt lat="42.694709" lon="-2.766540">
        <ele>630.612</ele>
        <time>2022-07-08T18:22:00Z</time>
      </trkpt>
      <trkpt lat="42.694744" lon="-2.766632">
        <ele>630.378</ele>
        <time>2022-07-08T18:22:01Z</time>
      </trkpt>
      <trkpt lat="42.694772" lon="-2.766727">
        <ele>630.084</ele>
        <time>2022-07-08T18:22:02Z</time>
      </trkpt>
      <trkpt lat="42.694800" lon="-2.766826">
        <ele>629.624</ele>
        <time>2022-07-08T18:22:03Z</time>
      </trkpt>
      <trkpt lat="42.694783" lon="-2.766914">
        <ele>629.261</ele>
        <time>2022-07-08T18:22:04Z</time>
      </trkpt>
      <trkpt lat="42.694779" lon="-2.767014">
        <ele>628.953</ele>
        <time>2022-07-08T18:22:05Z</time>
      </trkpt>
      <trkpt lat="42.694773" lon="-2.767105">
        <ele>628.542</ele>
        <time>2022-07-08T18:22:06Z</time>
      </trkpt>
      <trkpt lat="42.694768" lon="-2.767218">
        <ele>628.022</ele>
        <time>2022-07-08T18:22:07Z</time>
      </trkpt>
      <trkpt lat="42.694757" lon="-2.767296">
        <ele>627.814</ele>
        <time>2022-07-08T18:22:08Z</time>
      </trkpt>
      <trkpt lat="42.694749" lon="-2.767374">
        <ele>627.709</ele>
        <time>2022-07-08T18:22:09Z</time>
      </trkpt>
      <trkpt lat="42.694740" lon="-2.767457">
        <ele>627.545</ele>
        <time>2022-07-08T18:22:10Z</time>
      </trkpt>
      <trkpt lat="42.694726" lon="-2.767529">
        <ele>627.444</ele>
        <time>2022-07-08T18:22:11Z</time>
      </trkpt>
      <trkpt lat="42.694715" lon="-2.767615">
        <ele>627.311</ele>
        <time>2022-07-08T18:22:12Z</time>
      </trkpt>
      <trkpt lat="42.694705" lon="-2.767700">
        <ele>627.237</ele>
        <time>2022-07-08T18:22:13Z</time>
      </trkpt>
      <trkpt lat="42.694698" lon="-2.767768">
        <ele>627.223</ele>
        <time>2022-07-08T18:22:14Z</time>
      </trkpt>
      <trkpt lat="42.694694" lon="-2.767849">
        <ele>627.299</ele>
        <time>2022-07-08T18:22:15Z</time>
      </trkpt>
      <trkpt lat="42.694687" lon="-2.767920">
        <ele>627.299</ele>
        <time>2022-07-08T18:22:16Z</time>
      </trkpt>
      <trkpt lat="42.694683" lon="-2.768006">
        <ele>627.256</ele>
        <time>2022-07-08T18:22:17Z</time>
      </trkpt>
      <trkpt lat="42.694677" lon="-2.768086">
        <ele>627.298</ele>
        <time>2022-07-08T18:22:18Z</time>
      </trkpt>
      <trkpt lat="42.694664" lon="-2.768177">
        <ele>627.123</ele>
        <time>2022-07-08T18:22:19Z</time>
      </trkpt>
      <trkpt lat="42.694650" lon="-2.768265">
        <ele>627.183</ele>
        <time>2022-07-08T18:22:20Z</time>
      </trkpt>
      <trkpt lat="42.694638" lon="-2.768362">
        <ele>627.011</ele>
        <time>2022-07-08T18:22:21Z</time>
      </trkpt>
      <trkpt lat="42.694622" lon="-2.768456">
        <ele>626.909</ele>
        <time>2022-07-08T18:22:22Z</time>
      </trkpt>
      <trkpt lat="42.694610" lon="-2.768551">
        <ele>626.843</ele>
        <time>2022-07-08T18:22:23Z</time>
      </trkpt>
      <trkpt lat="42.694598" lon="-2.768638">
        <ele>626.632</ele>
        <time>2022-07-08T18:22:24Z</time>
      </trkpt>
      <trkpt lat="42.694590" lon="-2.768731">
        <ele>626.439</ele>
        <time>2022-07-08T18:22:25Z</time>
      </trkpt>
      <trkpt lat="42.694577" lon="-2.768820">
        <ele>626.175</ele>
        <time>2022-07-08T18:22:26Z</time>
      </trkpt>
      <trkpt lat="42.694572" lon="-2.768929">
        <ele>625.761</ele>
        <time>2022-07-08T18:22:27Z</time>
      </trkpt>
      <trkpt lat="42.694566" lon="-2.769010">
        <ele>625.557</ele>
        <time>2022-07-08T18:22:28Z</time>
      </trkpt>
      <trkpt lat="42.694553" lon="-2.769115">
        <ele>625.467</ele>
        <time>2022-07-08T18:22:29Z</time>
      </trkpt>
      <trkpt lat="42.694549" lon="-2.769187">
        <ele>625.464</ele>
        <time>2022-07-08T18:22:30Z</time>
      </trkpt>
      <trkpt lat="42.694537" lon="-2.769278">
        <ele>625.436</ele>
        <time>2022-07-08T18:22:31Z</time>
      </trkpt>
      <trkpt lat="42.694528" lon="-2.769351">
        <ele>625.479</ele>
        <time>2022-07-08T18:22:32Z</time>
      </trkpt>
      <trkpt lat="42.694517" lon="-2.769466">
        <ele>625.405</ele>
        <time>2022-07-08T18:22:34Z</time>
      </trkpt>
      <trkpt lat="42.694505" lon="-2.769533">
        <ele>625.425</ele>
        <time>2022-07-08T18:22:35Z</time>
      </trkpt>
      <trkpt lat="42.694498" lon="-2.769600">
        <ele>624.909</ele>
        <time>2022-07-08T18:22:36Z</time>
      </trkpt>
      <trkpt lat="42.694485" lon="-2.769666">
        <ele>624.798</ele>
        <time>2022-07-08T18:22:37Z</time>
      </trkpt>
      <trkpt lat="42.694479" lon="-2.769727">
        <ele>624.637</ele>
        <time>2022-07-08T18:22:38Z</time>
      </trkpt>
      <trkpt lat="42.694477" lon="-2.769808">
        <ele>624.484</ele>
        <time>2022-07-08T18:22:39Z</time>
      </trkpt>
      <trkpt lat="42.694468" lon="-2.769871">
        <ele>624.210</ele>
        <time>2022-07-08T18:22:40Z</time>
      </trkpt>
      <trkpt lat="42.694457" lon="-2.769987">
        <ele>623.986</ele>
        <time>2022-07-08T18:22:42Z</time>
      </trkpt>
      <trkpt lat="42.694450" lon="-2.770054">
        <ele>623.932</ele>
        <time>2022-07-08T18:22:43Z</time>
      </trkpt>
      <trkpt lat="42.694445" lon="-2.770116">
        <ele>623.932</ele>
        <time>2022-07-08T18:22:44Z</time>
      </trkpt>
      <trkpt lat="42.694440" lon="-2.770225">
        <ele>624.139</ele>
        <time>2022-07-08T18:22:46Z</time>
      </trkpt>
      <trkpt lat="42.694428" lon="-2.770325">
        <ele>624.271</ele>
        <time>2022-07-08T18:22:48Z</time>
      </trkpt>
      <trkpt lat="42.694415" lon="-2.770437">
        <ele>624.963</ele>
        <time>2022-07-08T18:22:50Z</time>
      </trkpt>
      <trkpt lat="42.694403" lon="-2.770533">
        <ele>625.244</ele>
        <time>2022-07-08T18:22:52Z</time>
      </trkpt>
      <trkpt lat="42.694393" lon="-2.770617">
        <ele>625.618</ele>
        <time>2022-07-08T18:22:54Z</time>
      </trkpt>
      <trkpt lat="42.694385" lon="-2.770677">
        <ele>625.809</ele>
        <time>2022-07-08T18:22:55Z</time>
      </trkpt>
      <trkpt lat="42.694361" lon="-2.770757">
        <ele>626.337</ele>
        <time>2022-07-08T18:22:57Z</time>
      </trkpt>
      <trkpt lat="42.694320" lon="-2.770803">
        <ele>626.556</ele>
        <time>2022-07-08T18:22:59Z</time>
      </trkpt>
      <trkpt lat="42.694261" lon="-2.770824">
        <ele>627.223</ele>
        <time>2022-07-08T18:23:01Z</time>
      </trkpt>
      <trkpt lat="42.694202" lon="-2.770821">
        <ele>627.859</ele>
        <time>2022-07-08T18:23:03Z</time>
      </trkpt>
      <trkpt lat="42.694154" lon="-2.770814">
        <ele>628.535</ele>
        <time>2022-07-08T18:23:05Z</time>
      </trkpt>
      <trkpt lat="42.694105" lon="-2.770801">
        <ele>628.861</ele>
        <time>2022-07-08T18:23:08Z</time>
      </trkpt>
      <trkpt lat="42.694046" lon="-2.770773">
        <ele>628.811</ele>
        <time>2022-07-08T18:24:18Z</time>
      </trkpt>
      <trkpt lat="42.693987" lon="-2.770753">
        <ele>628.868</ele>
        <time>2022-07-08T18:24:20Z</time>
      </trkpt>
      <trkpt lat="42.693913" lon="-2.770726">
        <ele>628.570</ele>
        <time>2022-07-08T18:24:22Z</time>
      </trkpt>
      <trkpt lat="42.693825" lon="-2.770699">
        <ele>628.565</ele>
        <time>2022-07-08T18:24:24Z</time>
      </trkpt>
      <trkpt lat="42.693779" lon="-2.770681">
        <ele>628.568</ele>
        <time>2022-07-08T18:24:25Z</time>
      </trkpt>
      <trkpt lat="42.693731" lon="-2.770659">
        <ele>628.514</ele>
        <time>2022-07-08T18:24:26Z</time>
      </trkpt>
      <trkpt lat="42.693681" lon="-2.770635">
        <ele>628.409</ele>
        <time>2022-07-08T18:24:27Z</time>
      </trkpt>
      <trkpt lat="42.693631" lon="-2.770614">
        <ele>628.257</ele>
        <time>2022-07-08T18:24:28Z</time>
      </trkpt>
      <trkpt lat="42.693581" lon="-2.770589">
        <ele>628.116</ele>
        <time>2022-07-08T18:24:29Z</time>
      </trkpt>
      <trkpt lat="42.693538" lon="-2.770551">
        <ele>627.943</ele>
        <time>2022-07-08T18:24:30Z</time>
      </trkpt>
      <trkpt lat="42.693489" lon="-2.770513">
        <ele>627.619</ele>
        <time>2022-07-08T18:24:31Z</time>
      </trkpt>
      <trkpt lat="42.693429" lon="-2.770476">
        <ele>627.155</ele>
        <time>2022-07-08T18:24:32Z</time>
      </trkpt>
      <trkpt lat="42.693372" lon="-2.770421">
        <ele>627.031</ele>
        <time>2022-07-08T18:24:33Z</time>
      </trkpt>
      <trkpt lat="42.693311" lon="-2.770368">
        <ele>626.741</ele>
        <time>2022-07-08T18:24:34Z</time>
      </trkpt>
      <trkpt lat="42.693259" lon="-2.770313">
        <ele>626.758</ele>
        <time>2022-07-08T18:24:35Z</time>
      </trkpt>
      <trkpt lat="42.693203" lon="-2.770260">
        <ele>626.690</ele>
        <time>2022-07-08T18:24:36Z</time>
      </trkpt>
      <trkpt lat="42.693147" lon="-2.770212">
        <ele>626.339</ele>
        <time>2022-07-08T18:24:37Z</time>
      </trkpt>
      <trkpt lat="42.693083" lon="-2.770165">
        <ele>625.901</ele>
        <time>2022-07-08T18:24:38Z</time>
      </trkpt>
      <trkpt lat="42.693020" lon="-2.770116">
        <ele>625.621</ele>
        <time>2022-07-08T18:24:39Z</time>
      </trkpt>
      <trkpt lat="42.692957" lon="-2.770074">
        <ele>625.309</ele>
        <time>2022-07-08T18:24:40Z</time>
      </trkpt>
      <trkpt lat="42.692889" lon="-2.770029">
        <ele>625.044</ele>
        <time>2022-07-08T18:24:41Z</time>
      </trkpt>
      <trkpt lat="42.692822" lon="-2.769989">
        <ele>624.733</ele>
        <time>2022-07-08T18:24:42Z</time>
      </trkpt>
      <trkpt lat="42.692758" lon="-2.769941">
        <ele>624.430</ele>
        <time>2022-07-08T18:24:43Z</time>
      </trkpt>
      <trkpt lat="42.692693" lon="-2.769906">
        <ele>624.086</ele>
        <time>2022-07-08T18:24:44Z</time>
      </trkpt>
      <trkpt lat="42.692636" lon="-2.769861">
        <ele>623.692</ele>
        <time>2022-07-08T18:24:45Z</time>
      </trkpt>
      <trkpt lat="42.692567" lon="-2.769818">
        <ele>623.358</ele>
        <time>2022-07-08T18:24:46Z</time>
      </trkpt>
      <trkpt lat="42.692501" lon="-2.769770">
        <ele>623.178</ele>
        <time>2022-07-08T18:24:47Z</time>
      </trkpt>
      <trkpt lat="42.692434" lon="-2.769730">
        <ele>622.955</ele>
        <time>2022-07-08T18:24:48Z</time>
      </trkpt>
      <trkpt lat="42.692366" lon="-2.769690">
        <ele>622.747</ele>
        <time>2022-07-08T18:24:49Z</time>
      </trkpt>
      <trkpt lat="42.692300" lon="-2.769654">
        <ele>622.568</ele>
        <time>2022-07-08T18:24:50Z</time>
      </trkpt>
      <trkpt lat="42.692234" lon="-2.769619">
        <ele>622.142</ele>
        <time>2022-07-08T18:24:51Z</time>
      </trkpt>
      <trkpt lat="42.692175" lon="-2.769573">
        <ele>621.726</ele>
        <time>2022-07-08T18:24:52Z</time>
      </trkpt>
      <trkpt lat="42.692107" lon="-2.769537">
        <ele>621.409</ele>
        <time>2022-07-08T18:24:53Z</time>
      </trkpt>
      <trkpt lat="42.692041" lon="-2.769500">
        <ele>621.027</ele>
        <time>2022-07-08T18:24:54Z</time>
      </trkpt>
      <trkpt lat="42.691970" lon="-2.769460">
        <ele>620.436</ele>
        <time>2022-07-08T18:24:55Z</time>
      </trkpt>
      <trkpt lat="42.691893" lon="-2.769422">
        <ele>619.873</ele>
        <time>2022-07-08T18:24:56Z</time>
      </trkpt>
      <trkpt lat="42.691814" lon="-2.769377">
        <ele>619.299</ele>
        <time>2022-07-08T18:24:57Z</time>
      </trkpt>
      <trkpt lat="42.691740" lon="-2.769335">
        <ele>618.945</ele>
        <time>2022-07-08T18:24:58Z</time>
      </trkpt>
      <trkpt lat="42.691664" lon="-2.769293">
        <ele>618.531</ele>
        <time>2022-07-08T18:24:59Z</time>
      </trkpt>
      <trkpt lat="42.691602" lon="-2.769260">
        <ele>617.821</ele>
        <time>2022-07-08T18:25:00Z</time>
      </trkpt>
      <trkpt lat="42.691537" lon="-2.769223">
        <ele>617.168</ele>
        <time>2022-07-08T18:25:01Z</time>
      </trkpt>
      <trkpt lat="42.691471" lon="-2.769180">
        <ele>616.320</ele>
        <time>2022-07-08T18:25:02Z</time>
      </trkpt>
      <trkpt lat="42.691404" lon="-2.769144">
        <ele>615.451</ele>
        <time>2022-07-08T18:25:03Z</time>
      </trkpt>
      <trkpt lat="42.691338" lon="-2.769110">
        <ele>614.401</ele>
        <time>2022-07-08T18:25:04Z</time>
      </trkpt>
      <trkpt lat="42.691269" lon="-2.769101">
        <ele>613.411</ele>
        <time>2022-07-08T18:25:05Z</time>
      </trkpt>
      <trkpt lat="42.691203" lon="-2.769092">
        <ele>612.409</ele>
        <time>2022-07-08T18:25:06Z</time>
      </trkpt>
      <trkpt lat="42.691134" lon="-2.769085">
        <ele>611.436</ele>
        <time>2022-07-08T18:25:07Z</time>
      </trkpt>
      <trkpt lat="42.691068" lon="-2.769082">
        <ele>610.565</ele>
        <time>2022-07-08T18:25:08Z</time>
      </trkpt>
      <trkpt lat="42.690996" lon="-2.769086">
        <ele>609.732</ele>
        <time>2022-07-08T18:25:09Z</time>
      </trkpt>
      <trkpt lat="42.690932" lon="-2.769087">
        <ele>608.818</ele>
        <time>2022-07-08T18:25:10Z</time>
      </trkpt>
      <trkpt lat="42.690858" lon="-2.769094">
        <ele>608.094</ele>
        <time>2022-07-08T18:25:11Z</time>
      </trkpt>
      <trkpt lat="42.690792" lon="-2.769079">
        <ele>607.410</ele>
        <time>2022-07-08T18:25:12Z</time>
      </trkpt>
      <trkpt lat="42.690726" lon="-2.769081">
        <ele>606.860</ele>
        <time>2022-07-08T18:25:13Z</time>
      </trkpt>
      <trkpt lat="42.690671" lon="-2.769080">
        <ele>606.477</ele>
        <time>2022-07-08T18:25:14Z</time>
      </trkpt>
      <trkpt lat="42.690597" lon="-2.769069">
        <ele>605.869</ele>
        <time>2022-07-08T18:25:16Z</time>
      </trkpt>
      <trkpt lat="42.690541" lon="-2.769095">
        <ele>605.272</ele>
        <time>2022-07-08T18:25:18Z</time>
      </trkpt>
      <trkpt lat="42.690522" lon="-2.769179">
        <ele>604.013</ele>
        <time>2022-07-08T18:25:20Z</time>
      </trkpt>
      <trkpt lat="42.690523" lon="-2.769311">
        <ele>602.114</ele>
        <time>2022-07-08T18:25:22Z</time>
      </trkpt>
      <trkpt lat="42.690520" lon="-2.769398">
        <ele>601.409</ele>
        <time>2022-07-08T18:25:23Z</time>
      </trkpt>
      <trkpt lat="42.690518" lon="-2.769491">
        <ele>600.998</ele>
        <time>2022-07-08T18:25:24Z</time>
      </trkpt>
      <trkpt lat="42.690523" lon="-2.769595">
        <ele>600.487</ele>
        <time>2022-07-08T18:25:25Z</time>
      </trkpt>
      <trkpt lat="42.690512" lon="-2.769692">
        <ele>599.924</ele>
        <time>2022-07-08T18:25:26Z</time>
      </trkpt>
      <trkpt lat="42.690508" lon="-2.769802">
        <ele>599.350</ele>
        <time>2022-07-08T18:25:27Z</time>
      </trkpt>
      <trkpt lat="42.690497" lon="-2.769911">
        <ele>598.796</ele>
        <time>2022-07-08T18:25:28Z</time>
      </trkpt>
      <trkpt lat="42.690485" lon="-2.770025">
        <ele>598.252</ele>
        <time>2022-07-08T18:25:29Z</time>
      </trkpt>
      <trkpt lat="42.690480" lon="-2.770145">
        <ele>597.842</ele>
        <time>2022-07-08T18:25:30Z</time>
      </trkpt>
      <trkpt lat="42.690456" lon="-2.770284">
        <ele>597.049</ele>
        <time>2022-07-08T18:25:31Z</time>
      </trkpt>
      <trkpt lat="42.690450" lon="-2.770410">
        <ele>596.741</ele>
        <time>2022-07-08T18:25:32Z</time>
      </trkpt>
      <trkpt lat="42.690439" lon="-2.770534">
        <ele>596.118</ele>
        <time>2022-07-08T18:25:33Z</time>
      </trkpt>
      <trkpt lat="42.690440" lon="-2.770658">
        <ele>595.898</ele>
        <time>2022-07-08T18:25:34Z</time>
      </trkpt>
      <trkpt lat="42.690433" lon="-2.770778">
        <ele>595.417</ele>
        <time>2022-07-08T18:25:35Z</time>
      </trkpt>
      <trkpt lat="42.690427" lon="-2.770896">
        <ele>595.109</ele>
        <time>2022-07-08T18:25:36Z</time>
      </trkpt>
      <trkpt lat="42.690427" lon="-2.771019">
        <ele>594.692</ele>
        <time>2022-07-08T18:25:37Z</time>
      </trkpt>
      <trkpt lat="42.690423" lon="-2.771132">
        <ele>594.221</ele>
        <time>2022-07-08T18:25:38Z</time>
      </trkpt>
      <trkpt lat="42.690425" lon="-2.771269">
        <ele>593.778</ele>
        <time>2022-07-08T18:25:39Z</time>
      </trkpt>
      <trkpt lat="42.690422" lon="-2.771390">
        <ele>593.194</ele>
        <time>2022-07-08T18:25:40Z</time>
      </trkpt>
      <trkpt lat="42.690428" lon="-2.771514">
        <ele>592.590</ele>
        <time>2022-07-08T18:25:41Z</time>
      </trkpt>
      <trkpt lat="42.690432" lon="-2.771628">
        <ele>592.356</ele>
        <time>2022-07-08T18:25:42Z</time>
      </trkpt>
      <trkpt lat="42.690439" lon="-2.771743">
        <ele>591.986</ele>
        <time>2022-07-08T18:25:43Z</time>
      </trkpt>
      <trkpt lat="42.690444" lon="-2.771842">
        <ele>591.563</ele>
        <time>2022-07-08T18:25:44Z</time>
      </trkpt>
      <trkpt lat="42.690442" lon="-2.771955">
        <ele>591.295</ele>
        <time>2022-07-08T18:25:45Z</time>
      </trkpt>
      <trkpt lat="42.690439" lon="-2.772057">
        <ele>591.064</ele>
        <time>2022-07-08T18:25:46Z</time>
      </trkpt>
      <trkpt lat="42.690434" lon="-2.772163">
        <ele>590.806</ele>
        <time>2022-07-08T18:25:47Z</time>
      </trkpt>
      <trkpt lat="42.690421" lon="-2.772263">
        <ele>590.616</ele>
        <time>2022-07-08T18:25:48Z</time>
      </trkpt>
      <trkpt lat="42.690399" lon="-2.772340">
        <ele>590.509</ele>
        <time>2022-07-08T18:25:49Z</time>
      </trkpt>
      <trkpt lat="42.690365" lon="-2.772414">
        <ele>590.377</ele>
        <time>2022-07-08T18:25:50Z</time>
      </trkpt>
      <trkpt lat="42.690327" lon="-2.772487">
        <ele>590.376</ele>
        <time>2022-07-08T18:25:51Z</time>
      </trkpt>
      <trkpt lat="42.690290" lon="-2.772553">
        <ele>590.093</ele>
        <time>2022-07-08T18:25:52Z</time>
      </trkpt>
      <trkpt lat="42.690249" lon="-2.772612">
        <ele>589.739</ele>
        <time>2022-07-08T18:25:53Z</time>
      </trkpt>
      <trkpt lat="42.690211" lon="-2.772672">
        <ele>589.615</ele>
        <time>2022-07-08T18:25:54Z</time>
      </trkpt>
      <trkpt lat="42.690182" lon="-2.772730">
        <ele>589.381</ele>
        <time>2022-07-08T18:25:55Z</time>
      </trkpt>
      <trkpt lat="42.690126" lon="-2.772806">
        <ele>589.191</ele>
        <time>2022-07-08T18:25:57Z</time>
      </trkpt>
      <trkpt lat="42.690082" lon="-2.772872">
        <ele>589.028</ele>
        <time>2022-07-08T18:25:59Z</time>
      </trkpt>
      <trkpt lat="42.690047" lon="-2.772928">
        <ele>589.060</ele>
        <time>2022-07-08T18:26:01Z</time>
      </trkpt>
      <trkpt lat="42.690013" lon="-2.772997">
        <ele>588.958</ele>
        <time>2022-07-08T18:26:03Z</time>
      </trkpt>
      <trkpt lat="42.689966" lon="-2.773066">
        <ele>588.852</ele>
        <time>2022-07-08T18:26:05Z</time>
      </trkpt>
      <trkpt lat="42.689918" lon="-2.773149">
        <ele>588.817</ele>
        <time>2022-07-08T18:26:07Z</time>
      </trkpt>
      <trkpt lat="42.689868" lon="-2.773234">
        <ele>588.809</ele>
        <time>2022-07-08T18:26:09Z</time>
      </trkpt>
      <trkpt lat="42.689819" lon="-2.773315">
        <ele>588.876</ele>
        <time>2022-07-08T18:26:11Z</time>
      </trkpt>
      <trkpt lat="42.689769" lon="-2.773393">
        <ele>589.055</ele>
        <time>2022-07-08T18:26:13Z</time>
      </trkpt>
      <trkpt lat="42.689718" lon="-2.773454">
        <ele>589.252</ele>
        <time>2022-07-08T18:26:15Z</time>
      </trkpt>
      <trkpt lat="42.689687" lon="-2.773502">
        <ele>589.398</ele>
        <time>2022-07-08T18:26:16Z</time>
      </trkpt>
      <trkpt lat="42.689646" lon="-2.773600">
        <ele>589.454</ele>
        <time>2022-07-08T18:26:18Z</time>
      </trkpt>
      <trkpt lat="42.689612" lon="-2.773705">
        <ele>589.530</ele>
        <time>2022-07-08T18:26:20Z</time>
      </trkpt>
      <trkpt lat="42.689598" lon="-2.773764">
        <ele>589.610</ele>
        <time>2022-07-08T18:26:21Z</time>
      </trkpt>
      <trkpt lat="42.689587" lon="-2.773888">
        <ele>590.057</ele>
        <time>2022-07-08T18:26:22Z</time>
      </trkpt>
      <trkpt lat="42.689564" lon="-2.773998">
        <ele>590.119</ele>
        <time>2022-07-08T18:26:24Z</time>
      </trkpt>
      <trkpt lat="42.689541" lon="-2.774092">
        <ele>590.245</ele>
        <time>2022-07-08T18:26:25Z</time>
      </trkpt>
      <trkpt lat="42.689522" lon="-2.774193">
        <ele>590.347</ele>
        <time>2022-07-08T18:26:27Z</time>
      </trkpt>
      <trkpt lat="42.689489" lon="-2.774307">
        <ele>590.311</ele>
        <time>2022-07-08T18:26:29Z</time>
      </trkpt>
      <trkpt lat="42.689478" lon="-2.774373">
        <ele>590.209</ele>
        <time>2022-07-08T18:26:30Z</time>
      </trkpt>
      <trkpt lat="42.689438" lon="-2.774471">
        <ele>590.195</ele>
        <time>2022-07-08T18:26:32Z</time>
      </trkpt>
      <trkpt lat="42.689386" lon="-2.774538">
        <ele>590.144</ele>
        <time>2022-07-08T18:26:35Z</time>
      </trkpt>
      <trkpt lat="42.689319" lon="-2.774636">
        <ele>590.281</ele>
        <time>2022-07-08T18:26:38Z</time>
      </trkpt>
      <trkpt lat="42.689293" lon="-2.774686">
        <ele>590.417</ele>
        <time>2022-07-08T18:26:39Z</time>
      </trkpt>
      <trkpt lat="42.689270" lon="-2.774740">
        <ele>590.533</ele>
        <time>2022-07-08T18:26:40Z</time>
      </trkpt>
      <trkpt lat="42.689242" lon="-2.774804">
        <ele>590.779</ele>
        <time>2022-07-08T18:26:41Z</time>
      </trkpt>
      <trkpt lat="42.689209" lon="-2.774858">
        <ele>590.969</ele>
        <time>2022-07-08T18:26:42Z</time>
      </trkpt>
      <trkpt lat="42.689150" lon="-2.774950">
        <ele>590.976</ele>
        <time>2022-07-08T18:26:44Z</time>
      </trkpt>
      <trkpt lat="42.689092" lon="-2.775070">
        <ele>591.238</ele>
        <time>2022-07-08T18:26:46Z</time>
      </trkpt>
      <trkpt lat="42.689033" lon="-2.775151">
        <ele>591.587</ele>
        <time>2022-07-08T18:26:48Z</time>
      </trkpt>
      <trkpt lat="42.688985" lon="-2.775231">
        <ele>591.542</ele>
        <time>2022-07-08T18:26:50Z</time>
      </trkpt>
      <trkpt lat="42.688931" lon="-2.775306">
        <ele>591.526</ele>
        <time>2022-07-08T18:26:52Z</time>
      </trkpt>
      <trkpt lat="42.688883" lon="-2.775384">
        <ele>591.609</ele>
        <time>2022-07-08T18:26:54Z</time>
      </trkpt>
      <trkpt lat="42.688838" lon="-2.775459">
        <ele>591.919</ele>
        <time>2022-07-08T18:26:56Z</time>
      </trkpt>
      <trkpt lat="42.688793" lon="-2.775543">
        <ele>592.358</ele>
        <time>2022-07-08T18:26:58Z</time>
      </trkpt>
      <trkpt lat="42.688753" lon="-2.775630">
        <ele>592.715</ele>
        <time>2022-07-08T18:27:00Z</time>
      </trkpt>
      <trkpt lat="42.688711" lon="-2.775716">
        <ele>593.161</ele>
        <time>2022-07-08T18:27:02Z</time>
      </trkpt>
      <trkpt lat="42.688667" lon="-2.775806">
        <ele>593.577</ele>
        <time>2022-07-08T18:27:04Z</time>
      </trkpt>
      <trkpt lat="42.688626" lon="-2.775888">
        <ele>593.973</ele>
        <time>2022-07-08T18:27:06Z</time>
      </trkpt>
      <trkpt lat="42.688586" lon="-2.775975">
        <ele>594.363</ele>
        <time>2022-07-08T18:27:08Z</time>
      </trkpt>
      <trkpt lat="42.688550" lon="-2.776067">
        <ele>594.780</ele>
        <time>2022-07-08T18:27:10Z</time>
      </trkpt>
      <trkpt lat="42.688519" lon="-2.776156">
        <ele>595.032</ele>
        <time>2022-07-08T18:27:12Z</time>
      </trkpt>
      <trkpt lat="42.688493" lon="-2.776248">
        <ele>595.325</ele>
        <time>2022-07-08T18:27:14Z</time>
      </trkpt>
      <trkpt lat="42.688474" lon="-2.776347">
        <ele>595.626</ele>
        <time>2022-07-08T18:27:16Z</time>
      </trkpt>
      <trkpt lat="42.688455" lon="-2.776443">
        <ele>595.808</ele>
        <time>2022-07-08T18:27:18Z</time>
      </trkpt>
      <trkpt lat="42.688437" lon="-2.776549">
        <ele>595.809</ele>
        <time>2022-07-08T18:27:20Z</time>
      </trkpt>
      <trkpt lat="42.688420" lon="-2.776662">
        <ele>595.833</ele>
        <time>2022-07-08T18:27:22Z</time>
      </trkpt>
      <trkpt lat="42.688413" lon="-2.776730">
        <ele>595.642</ele>
        <time>2022-07-08T18:27:23Z</time>
      </trkpt>
      <trkpt lat="42.688399" lon="-2.776798">
        <ele>595.729</ele>
        <time>2022-07-08T18:27:24Z</time>
      </trkpt>
      <trkpt lat="42.688389" lon="-2.776865">
        <ele>595.795</ele>
        <time>2022-07-08T18:27:25Z</time>
      </trkpt>
      <trkpt lat="42.688373" lon="-2.776943">
        <ele>595.881</ele>
        <time>2022-07-08T18:27:26Z</time>
      </trkpt>
      <trkpt lat="42.688360" lon="-2.777046">
        <ele>595.997</ele>
        <time>2022-07-08T18:27:27Z</time>
      </trkpt>
      <trkpt lat="42.688336" lon="-2.777147">
        <ele>595.917</ele>
        <time>2022-07-08T18:27:28Z</time>
      </trkpt>
      <trkpt lat="42.688320" lon="-2.777248">
        <ele>595.914</ele>
        <time>2022-07-08T18:27:29Z</time>
      </trkpt>
      <trkpt lat="42.688305" lon="-2.777354">
        <ele>595.856</ele>
        <time>2022-07-08T18:27:30Z</time>
      </trkpt>
      <trkpt lat="42.688287" lon="-2.777466">
        <ele>595.529</ele>
        <time>2022-07-08T18:27:31Z</time>
      </trkpt>
      <trkpt lat="42.688270" lon="-2.777569">
        <ele>595.100</ele>
        <time>2022-07-08T18:27:32Z</time>
      </trkpt>
      <trkpt lat="42.688255" lon="-2.777670">
        <ele>594.820</ele>
        <time>2022-07-08T18:27:33Z</time>
      </trkpt>
      <trkpt lat="42.688241" lon="-2.777769">
        <ele>594.609</ele>
        <time>2022-07-08T18:27:34Z</time>
      </trkpt>
      <trkpt lat="42.688227" lon="-2.777869">
        <ele>594.313</ele>
        <time>2022-07-08T18:27:35Z</time>
      </trkpt>
      <trkpt lat="42.688214" lon="-2.777968">
        <ele>593.932</ele>
        <time>2022-07-08T18:27:36Z</time>
      </trkpt>
      <trkpt lat="42.688205" lon="-2.778064">
        <ele>593.639</ele>
        <time>2022-07-08T18:27:37Z</time>
      </trkpt>
      <trkpt lat="42.688186" lon="-2.778158">
        <ele>593.445</ele>
        <time>2022-07-08T18:27:38Z</time>
      </trkpt>
      <trkpt lat="42.688169" lon="-2.778251">
        <ele>593.091</ele>
        <time>2022-07-08T18:27:39Z</time>
      </trkpt>
      <trkpt lat="42.688160" lon="-2.778341">
        <ele>592.727</ele>
        <time>2022-07-08T18:27:40Z</time>
      </trkpt>
      <trkpt lat="42.688144" lon="-2.778418">
        <ele>592.687</ele>
        <time>2022-07-08T18:27:41Z</time>
      </trkpt>
      <trkpt lat="42.688129" lon="-2.778497">
        <ele>592.434</ele>
        <time>2022-07-08T18:27:42Z</time>
      </trkpt>
      <trkpt lat="42.688118" lon="-2.778579">
        <ele>592.266</ele>
        <time>2022-07-08T18:27:43Z</time>
      </trkpt>
      <trkpt lat="42.688105" lon="-2.778661">
        <ele>591.539</ele>
        <time>2022-07-08T18:27:44Z</time>
      </trkpt>
      <trkpt lat="42.688098" lon="-2.778737">
        <ele>591.501</ele>
        <time>2022-07-08T18:27:45Z</time>
      </trkpt>
      <trkpt lat="42.688085" lon="-2.778816">
        <ele>591.221</ele>
        <time>2022-07-08T18:27:46Z</time>
      </trkpt>
      <trkpt lat="42.688076" lon="-2.778892">
        <ele>591.209</ele>
        <time>2022-07-08T18:27:47Z</time>
      </trkpt>
      <trkpt lat="42.688064" lon="-2.778957">
        <ele>591.244</ele>
        <time>2022-07-08T18:27:48Z</time>
      </trkpt>
      <trkpt lat="42.688052" lon="-2.779024">
        <ele>591.323</ele>
        <time>2022-07-08T18:27:49Z</time>
      </trkpt>
      <trkpt lat="42.688038" lon="-2.779086">
        <ele>591.390</ele>
        <time>2022-07-08T18:27:50Z</time>
      </trkpt>
      <trkpt lat="42.688010" lon="-2.779205">
        <ele>591.586</ele>
        <time>2022-07-08T18:27:52Z</time>
      </trkpt>
      <trkpt lat="42.688001" lon="-2.779275">
        <ele>591.562</ele>
        <time>2022-07-08T18:27:53Z</time>
      </trkpt>
      <trkpt lat="42.687986" lon="-2.779391">
        <ele>591.728</ele>
        <time>2022-07-08T18:27:55Z</time>
      </trkpt>
      <trkpt lat="42.687955" lon="-2.779520">
        <ele>591.718</ele>
        <time>2022-07-08T18:27:57Z</time>
      </trkpt>
      <trkpt lat="42.687941" lon="-2.779588">
        <ele>591.745</ele>
        <time>2022-07-08T18:27:58Z</time>
      </trkpt>
      <trkpt lat="42.687929" lon="-2.779650">
        <ele>591.757</ele>
        <time>2022-07-08T18:27:59Z</time>
      </trkpt>
      <trkpt lat="42.687912" lon="-2.779718">
        <ele>591.723</ele>
        <time>2022-07-08T18:28:00Z</time>
      </trkpt>
      <trkpt lat="42.687890" lon="-2.779785">
        <ele>591.783</ele>
        <time>2022-07-08T18:28:01Z</time>
      </trkpt>
      <trkpt lat="42.687877" lon="-2.779851">
        <ele>591.711</ele>
        <time>2022-07-08T18:28:02Z</time>
      </trkpt>
      <trkpt lat="42.687842" lon="-2.779989">
        <ele>591.709</ele>
        <time>2022-07-08T18:28:04Z</time>
      </trkpt>
      <trkpt lat="42.687827" lon="-2.780061">
        <ele>591.713</ele>
        <time>2022-07-08T18:28:05Z</time>
      </trkpt>
      <trkpt lat="42.687821" lon="-2.780140">
        <ele>591.782</ele>
        <time>2022-07-08T18:28:06Z</time>
      </trkpt>
      <trkpt lat="42.687805" lon="-2.780222">
        <ele>591.719</ele>
        <time>2022-07-08T18:28:07Z</time>
      </trkpt>
      <trkpt lat="42.687792" lon="-2.780306">
        <ele>591.725</ele>
        <time>2022-07-08T18:28:08Z</time>
      </trkpt>
      <trkpt lat="42.687773" lon="-2.780364">
        <ele>591.671</ele>
        <time>2022-07-08T18:28:09Z</time>
      </trkpt>
      <trkpt lat="42.687755" lon="-2.780447">
        <ele>591.587</ele>
        <time>2022-07-08T18:28:10Z</time>
      </trkpt>
      <trkpt lat="42.687737" lon="-2.780535">
        <ele>591.547</ele>
        <time>2022-07-08T18:28:11Z</time>
      </trkpt>
      <trkpt lat="42.687721" lon="-2.780611">
        <ele>591.374</ele>
        <time>2022-07-08T18:28:12Z</time>
      </trkpt>
      <trkpt lat="42.687702" lon="-2.780721">
        <ele>591.366</ele>
        <time>2022-07-08T18:28:13Z</time>
      </trkpt>
      <trkpt lat="42.687684" lon="-2.780796">
        <ele>591.355</ele>
        <time>2022-07-08T18:28:14Z</time>
      </trkpt>
      <trkpt lat="42.687668" lon="-2.780883">
        <ele>591.307</ele>
        <time>2022-07-08T18:28:15Z</time>
      </trkpt>
      <trkpt lat="42.687648" lon="-2.780966">
        <ele>591.417</ele>
        <time>2022-07-08T18:28:16Z</time>
      </trkpt>
      <trkpt lat="42.687623" lon="-2.781076">
        <ele>591.409</ele>
        <time>2022-07-08T18:28:17Z</time>
      </trkpt>
      <trkpt lat="42.687590" lon="-2.781181">
        <ele>591.456</ele>
        <time>2022-07-08T18:28:19Z</time>
      </trkpt>
      <trkpt lat="42.687569" lon="-2.781259">
        <ele>591.455</ele>
        <time>2022-07-08T18:28:20Z</time>
      </trkpt>
      <trkpt lat="42.687553" lon="-2.781347">
        <ele>591.352</ele>
        <time>2022-07-08T18:28:21Z</time>
      </trkpt>
      <trkpt lat="42.687532" lon="-2.781420">
        <ele>591.368</ele>
        <time>2022-07-08T18:28:22Z</time>
      </trkpt>
      <trkpt lat="42.687505" lon="-2.781503">
        <ele>591.274</ele>
        <time>2022-07-08T18:28:23Z</time>
      </trkpt>
      <trkpt lat="42.687490" lon="-2.781601">
        <ele>590.990</ele>
        <time>2022-07-08T18:28:24Z</time>
      </trkpt>
      <trkpt lat="42.687471" lon="-2.781691">
        <ele>590.890</ele>
        <time>2022-07-08T18:28:25Z</time>
      </trkpt>
      <trkpt lat="42.687456" lon="-2.781757">
        <ele>590.647</ele>
        <time>2022-07-08T18:28:26Z</time>
      </trkpt>
      <trkpt lat="42.687441" lon="-2.781858">
        <ele>590.629</ele>
        <time>2022-07-08T18:28:27Z</time>
      </trkpt>
      <trkpt lat="42.687418" lon="-2.781934">
        <ele>590.643</ele>
        <time>2022-07-08T18:28:28Z</time>
      </trkpt>
      <trkpt lat="42.687397" lon="-2.782015">
        <ele>590.664</ele>
        <time>2022-07-08T18:28:29Z</time>
      </trkpt>
      <trkpt lat="42.687376" lon="-2.782095">
        <ele>590.610</ele>
        <time>2022-07-08T18:28:30Z</time>
      </trkpt>
      <trkpt lat="42.687354" lon="-2.782197">
        <ele>590.609</ele>
        <time>2022-07-08T18:28:31Z</time>
      </trkpt>
      <trkpt lat="42.687339" lon="-2.782277">
        <ele>590.525</ele>
        <time>2022-07-08T18:28:32Z</time>
      </trkpt>
      <trkpt lat="42.687322" lon="-2.782403">
        <ele>590.514</ele>
        <time>2022-07-08T18:28:33Z</time>
      </trkpt>
      <trkpt lat="42.687299" lon="-2.782470">
        <ele>590.491</ele>
        <time>2022-07-08T18:28:34Z</time>
      </trkpt>
      <trkpt lat="42.687279" lon="-2.782569">
        <ele>590.357</ele>
        <time>2022-07-08T18:28:35Z</time>
      </trkpt>
      <trkpt lat="42.687257" lon="-2.782654">
        <ele>590.223</ele>
        <time>2022-07-08T18:28:36Z</time>
      </trkpt>
      <trkpt lat="42.687230" lon="-2.782732">
        <ele>590.279</ele>
        <time>2022-07-08T18:28:37Z</time>
      </trkpt>
      <trkpt lat="42.687209" lon="-2.782803">
        <ele>590.279</ele>
        <time>2022-07-08T18:28:38Z</time>
      </trkpt>
      <trkpt lat="42.687187" lon="-2.782886">
        <ele>590.256</ele>
        <time>2022-07-08T18:28:39Z</time>
      </trkpt>
      <trkpt lat="42.687178" lon="-2.782972">
        <ele>590.238</ele>
        <time>2022-07-08T18:28:40Z</time>
      </trkpt>
      <trkpt lat="42.687154" lon="-2.783058">
        <ele>590.231</ele>
        <time>2022-07-08T18:28:41Z</time>
      </trkpt>
      <trkpt lat="42.687136" lon="-2.783122">
        <ele>590.261</ele>
        <time>2022-07-08T18:28:42Z</time>
      </trkpt>
      <trkpt lat="42.687113" lon="-2.783265">
        <ele>590.207</ele>
        <time>2022-07-08T18:28:43Z</time>
      </trkpt>
      <trkpt lat="42.687084" lon="-2.783390">
        <ele>590.209</ele>
        <time>2022-07-08T18:28:44Z</time>
      </trkpt>
      <trkpt lat="42.687069" lon="-2.783476">
        <ele>590.084</ele>
        <time>2022-07-08T18:28:45Z</time>
      </trkpt>
      <trkpt lat="42.687045" lon="-2.783593">
        <ele>589.623</ele>
        <time>2022-07-08T18:28:46Z</time>
      </trkpt>
      <trkpt lat="42.687019" lon="-2.783706">
        <ele>589.270</ele>
        <time>2022-07-08T18:28:47Z</time>
      </trkpt>
      <trkpt lat="42.686991" lon="-2.783843">
        <ele>588.566</ele>
        <time>2022-07-08T18:28:48Z</time>
      </trkpt>
      <trkpt lat="42.686967" lon="-2.783963">
        <ele>587.782</ele>
        <time>2022-07-08T18:28:49Z</time>
      </trkpt>
      <trkpt lat="42.686938" lon="-2.784086">
        <ele>587.248</ele>
        <time>2022-07-08T18:28:50Z</time>
      </trkpt>
      <trkpt lat="42.686898" lon="-2.784219">
        <ele>586.598</ele>
        <time>2022-07-08T18:28:51Z</time>
      </trkpt>
      <trkpt lat="42.686860" lon="-2.784360">
        <ele>585.815</ele>
        <time>2022-07-08T18:28:52Z</time>
      </trkpt>
      <trkpt lat="42.686833" lon="-2.784513">
        <ele>585.247</ele>
        <time>2022-07-08T18:28:53Z</time>
      </trkpt>
      <trkpt lat="42.686800" lon="-2.784655">
        <ele>584.544</ele>
        <time>2022-07-08T18:28:54Z</time>
      </trkpt>
      <trkpt lat="42.686776" lon="-2.784804">
        <ele>583.505</ele>
        <time>2022-07-08T18:28:55Z</time>
      </trkpt>
      <trkpt lat="42.686753" lon="-2.784944">
        <ele>582.815</ele>
        <time>2022-07-08T18:28:56Z</time>
      </trkpt>
      <trkpt lat="42.686721" lon="-2.785090">
        <ele>582.009</ele>
        <time>2022-07-08T18:28:57Z</time>
      </trkpt>
      <trkpt lat="42.686694" lon="-2.785245">
        <ele>581.285</ele>
        <time>2022-07-08T18:28:58Z</time>
      </trkpt>
      <trkpt lat="42.686674" lon="-2.785370">
        <ele>580.394</ele>
        <time>2022-07-08T18:28:59Z</time>
      </trkpt>
      <trkpt lat="42.686650" lon="-2.785484">
        <ele>579.411</ele>
        <time>2022-07-08T18:29:00Z</time>
      </trkpt>
      <trkpt lat="42.686629" lon="-2.785585">
        <ele>579.067</ele>
        <time>2022-07-08T18:29:01Z</time>
      </trkpt>
      <trkpt lat="42.686603" lon="-2.785688">
        <ele>578.123</ele>
        <time>2022-07-08T18:29:02Z</time>
      </trkpt>
      <trkpt lat="42.686591" lon="-2.785776">
        <ele>577.199</ele>
        <time>2022-07-08T18:29:03Z</time>
      </trkpt>
      <trkpt lat="42.686572" lon="-2.785850">
        <ele>576.149</ele>
        <time>2022-07-08T18:29:04Z</time>
      </trkpt>
      <trkpt lat="42.686550" lon="-2.785927">
        <ele>575.626</ele>
        <time>2022-07-08T18:29:05Z</time>
      </trkpt>
      <trkpt lat="42.686533" lon="-2.785994">
        <ele>574.538</ele>
        <time>2022-07-08T18:29:06Z</time>
      </trkpt>
      <trkpt lat="42.686523" lon="-2.786077">
        <ele>573.484</ele>
        <time>2022-07-08T18:29:07Z</time>
      </trkpt>
      <trkpt lat="42.686506" lon="-2.786163">
        <ele>573.407</ele>
        <time>2022-07-08T18:29:08Z</time>
      </trkpt>
      <trkpt lat="42.686495" lon="-2.786261">
        <ele>572.617</ele>
        <time>2022-07-08T18:29:09Z</time>
      </trkpt>
      <trkpt lat="42.686477" lon="-2.786355">
        <ele>571.209</ele>
        <time>2022-07-08T18:29:10Z</time>
      </trkpt>
      <trkpt lat="42.686458" lon="-2.786444">
        <ele>570.429</ele>
        <time>2022-07-08T18:29:11Z</time>
      </trkpt>
      <trkpt lat="42.686439" lon="-2.786535">
        <ele>569.598</ele>
        <time>2022-07-08T18:29:12Z</time>
      </trkpt>
      <trkpt lat="42.686418" lon="-2.786633">
        <ele>568.495</ele>
        <time>2022-07-08T18:29:13Z</time>
      </trkpt>
      <trkpt lat="42.686395" lon="-2.786760">
        <ele>567.361</ele>
        <time>2022-07-08T18:29:14Z</time>
      </trkpt>
      <trkpt lat="42.686374" lon="-2.786871">
        <ele>566.497</ele>
        <time>2022-07-08T18:29:15Z</time>
      </trkpt>
      <trkpt lat="42.686344" lon="-2.786998">
        <ele>565.013</ele>
        <time>2022-07-08T18:29:16Z</time>
      </trkpt>
      <trkpt lat="42.686316" lon="-2.787126">
        <ele>564.323</ele>
        <time>2022-07-08T18:29:17Z</time>
      </trkpt>
      <trkpt lat="42.686286" lon="-2.787257">
        <ele>563.520</ele>
        <time>2022-07-08T18:29:18Z</time>
      </trkpt>
      <trkpt lat="42.686258" lon="-2.787392">
        <ele>562.892</ele>
        <time>2022-07-08T18:29:19Z</time>
      </trkpt>
      <trkpt lat="42.686233" lon="-2.787522">
        <ele>562.155</ele>
        <time>2022-07-08T18:29:20Z</time>
      </trkpt>
      <trkpt lat="42.686203" lon="-2.787651">
        <ele>561.407</ele>
        <time>2022-07-08T18:29:21Z</time>
      </trkpt>
      <trkpt lat="42.686175" lon="-2.787781">
        <ele>560.617</ele>
        <time>2022-07-08T18:29:22Z</time>
      </trkpt>
      <trkpt lat="42.686144" lon="-2.787916">
        <ele>560.109</ele>
        <time>2022-07-08T18:29:23Z</time>
      </trkpt>
      <trkpt lat="42.686117" lon="-2.788049">
        <ele>559.716</ele>
        <time>2022-07-08T18:29:24Z</time>
      </trkpt>
      <trkpt lat="42.686088" lon="-2.788175">
        <ele>559.395</ele>
        <time>2022-07-08T18:29:25Z</time>
      </trkpt>
      <trkpt lat="42.686064" lon="-2.788298">
        <ele>558.852</ele>
        <time>2022-07-08T18:29:26Z</time>
      </trkpt>
      <trkpt lat="42.686038" lon="-2.788427">
        <ele>558.398</ele>
        <time>2022-07-08T18:29:27Z</time>
      </trkpt>
      <trkpt lat="42.686013" lon="-2.788550">
        <ele>557.954</ele>
        <time>2022-07-08T18:29:28Z</time>
      </trkpt>
      <trkpt lat="42.685988" lon="-2.788661">
        <ele>557.590</ele>
        <time>2022-07-08T18:29:29Z</time>
      </trkpt>
      <trkpt lat="42.685962" lon="-2.788770">
        <ele>557.340</ele>
        <time>2022-07-08T18:29:30Z</time>
      </trkpt>
      <trkpt lat="42.685938" lon="-2.788882">
        <ele>557.087</ele>
        <time>2022-07-08T18:29:31Z</time>
      </trkpt>
      <trkpt lat="42.685907" lon="-2.789005">
        <ele>556.959</ele>
        <time>2022-07-08T18:29:32Z</time>
      </trkpt>
      <trkpt lat="42.685875" lon="-2.789127">
        <ele>556.527</ele>
        <time>2022-07-08T18:29:33Z</time>
      </trkpt>
      <trkpt lat="42.685846" lon="-2.789230">
        <ele>555.968</ele>
        <time>2022-07-08T18:29:34Z</time>
      </trkpt>
      <trkpt lat="42.685808" lon="-2.789316">
        <ele>555.714</ele>
        <time>2022-07-08T18:29:35Z</time>
      </trkpt>
      <trkpt lat="42.685761" lon="-2.789395">
        <ele>555.309</ele>
        <time>2022-07-08T18:29:36Z</time>
      </trkpt>
      <trkpt lat="42.685698" lon="-2.789473">
        <ele>554.943</ele>
        <time>2022-07-08T18:29:37Z</time>
      </trkpt>
      <trkpt lat="42.685630" lon="-2.789508">
        <ele>554.552</ele>
        <time>2022-07-08T18:29:38Z</time>
      </trkpt>
      <trkpt lat="42.685555" lon="-2.789536">
        <ele>554.249</ele>
        <time>2022-07-08T18:29:39Z</time>
      </trkpt>
      <trkpt lat="42.685478" lon="-2.789548">
        <ele>554.165</ele>
        <time>2022-07-08T18:29:40Z</time>
      </trkpt>
      <trkpt lat="42.685403" lon="-2.789558">
        <ele>554.031</ele>
        <time>2022-07-08T18:29:41Z</time>
      </trkpt>
      <trkpt lat="42.685322" lon="-2.789575">
        <ele>553.927</ele>
        <time>2022-07-08T18:29:42Z</time>
      </trkpt>
      <trkpt lat="42.685254" lon="-2.789595">
        <ele>553.817</ele>
        <time>2022-07-08T18:29:43Z</time>
      </trkpt>
      <trkpt lat="42.685185" lon="-2.789616">
        <ele>553.594</ele>
        <time>2022-07-08T18:29:44Z</time>
      </trkpt>
      <trkpt lat="42.685105" lon="-2.789619">
        <ele>553.046</ele>
        <time>2022-07-08T18:29:45Z</time>
      </trkpt>
      <trkpt lat="42.685030" lon="-2.789628">
        <ele>552.581</ele>
        <time>2022-07-08T18:29:46Z</time>
      </trkpt>
      <trkpt lat="42.684945" lon="-2.789639">
        <ele>551.961</ele>
        <time>2022-07-08T18:29:47Z</time>
      </trkpt>
      <trkpt lat="42.684868" lon="-2.789653">
        <ele>551.317</ele>
        <time>2022-07-08T18:29:48Z</time>
      </trkpt>
      <trkpt lat="42.684790" lon="-2.789672">
        <ele>550.609</ele>
        <time>2022-07-08T18:29:49Z</time>
      </trkpt>
      <trkpt lat="42.684713" lon="-2.789680">
        <ele>549.969</ele>
        <time>2022-07-08T18:29:50Z</time>
      </trkpt>
      <trkpt lat="42.684636" lon="-2.789690">
        <ele>549.388</ele>
        <time>2022-07-08T18:29:51Z</time>
      </trkpt>
      <trkpt lat="42.684559" lon="-2.789702">
        <ele>548.975</ele>
        <time>2022-07-08T18:29:52Z</time>
      </trkpt>
      <trkpt lat="42.684476" lon="-2.789718">
        <ele>548.461</ele>
        <time>2022-07-08T18:29:53Z</time>
      </trkpt>
      <trkpt lat="42.684397" lon="-2.789729">
        <ele>547.867</ele>
        <time>2022-07-08T18:29:54Z</time>
      </trkpt>
      <trkpt lat="42.684304" lon="-2.789745">
        <ele>547.323</ele>
        <time>2022-07-08T18:29:55Z</time>
      </trkpt>
      <trkpt lat="42.684217" lon="-2.789763">
        <ele>547.053</ele>
        <time>2022-07-08T18:29:56Z</time>
      </trkpt>
      <trkpt lat="42.684136" lon="-2.789779">
        <ele>546.760</ele>
        <time>2022-07-08T18:29:57Z</time>
      </trkpt>
      <trkpt lat="42.684049" lon="-2.789786">
        <ele>546.212</ele>
        <time>2022-07-08T18:29:58Z</time>
      </trkpt>
      <trkpt lat="42.683964" lon="-2.789798">
        <ele>545.721</ele>
        <time>2022-07-08T18:29:59Z</time>
      </trkpt>
      <trkpt lat="42.683882" lon="-2.789813">
        <ele>545.241</ele>
        <time>2022-07-08T18:30:00Z</time>
      </trkpt>
      <trkpt lat="42.683804" lon="-2.789824">
        <ele>544.705</ele>
        <time>2022-07-08T18:30:01Z</time>
      </trkpt>
      <trkpt lat="42.683731" lon="-2.789839">
        <ele>544.209</ele>
        <time>2022-07-08T18:30:02Z</time>
      </trkpt>
      <trkpt lat="42.683652" lon="-2.789850">
        <ele>543.713</ele>
        <time>2022-07-08T18:30:03Z</time>
      </trkpt>
      <trkpt lat="42.683574" lon="-2.789860">
        <ele>543.242</ele>
        <time>2022-07-08T18:30:04Z</time>
      </trkpt>
      <trkpt lat="42.683494" lon="-2.789884">
        <ele>542.969</ele>
        <time>2022-07-08T18:30:05Z</time>
      </trkpt>
      <trkpt lat="42.683424" lon="-2.789893">
        <ele>542.795</ele>
        <time>2022-07-08T18:30:06Z</time>
      </trkpt>
      <trkpt lat="42.683357" lon="-2.789900">
        <ele>542.691</ele>
        <time>2022-07-08T18:30:07Z</time>
      </trkpt>
      <trkpt lat="42.683298" lon="-2.789916">
        <ele>542.427</ele>
        <time>2022-07-08T18:30:08Z</time>
      </trkpt>
      <trkpt lat="42.683234" lon="-2.789942">
        <ele>542.337</ele>
        <time>2022-07-08T18:30:09Z</time>
      </trkpt>
      <trkpt lat="42.683166" lon="-2.789944">
        <ele>542.144</ele>
        <time>2022-07-08T18:30:10Z</time>
      </trkpt>
      <trkpt lat="42.683116" lon="-2.789951">
        <ele>542.146</ele>
        <time>2022-07-08T18:30:11Z</time>
      </trkpt>
      <trkpt lat="42.683060" lon="-2.789965">
        <ele>542.172</ele>
        <time>2022-07-08T18:30:12Z</time>
      </trkpt>
      <trkpt lat="42.683008" lon="-2.789969">
        <ele>542.213</ele>
        <time>2022-07-08T18:30:13Z</time>
      </trkpt>
      <trkpt lat="42.682910" lon="-2.789979">
        <ele>542.314</ele>
        <time>2022-07-08T18:30:15Z</time>
      </trkpt>
      <trkpt lat="42.682857" lon="-2.789980">
        <ele>542.509</ele>
        <time>2022-07-08T18:30:16Z</time>
      </trkpt>
      <trkpt lat="42.682812" lon="-2.789990">
        <ele>543.068</ele>
        <time>2022-07-08T18:30:17Z</time>
      </trkpt>
      <trkpt lat="42.682737" lon="-2.789999">
        <ele>543.347</ele>
        <time>2022-07-08T18:30:19Z</time>
      </trkpt>
      <trkpt lat="42.682669" lon="-2.790009">
        <ele>543.424</ele>
        <time>2022-07-08T18:30:21Z</time>
      </trkpt>
      <trkpt lat="42.682591" lon="-2.790011">
        <ele>543.930</ele>
        <time>2022-07-08T18:30:23Z</time>
      </trkpt>
      <trkpt lat="42.682532" lon="-2.790028">
        <ele>544.496</ele>
        <time>2022-07-08T18:30:25Z</time>
      </trkpt>
      <trkpt lat="42.682469" lon="-2.790038">
        <ele>545.112</ele>
        <time>2022-07-08T18:30:27Z</time>
      </trkpt>
      <trkpt lat="42.682418" lon="-2.790080">
        <ele>545.592</ele>
        <time>2022-07-08T18:30:29Z</time>
      </trkpt>
      <trkpt lat="42.682399" lon="-2.790167">
        <ele>546.499</ele>
        <time>2022-07-08T18:30:31Z</time>
      </trkpt>
      <trkpt lat="42.682397" lon="-2.790278">
        <ele>547.321</ele>
        <time>2022-07-08T18:30:33Z</time>
      </trkpt>
      <trkpt lat="42.682392" lon="-2.790343">
        <ele>547.558</ele>
        <time>2022-07-08T18:30:34Z</time>
      </trkpt>
      <trkpt lat="42.682393" lon="-2.790444">
        <ele>548.152</ele>
        <time>2022-07-08T18:30:36Z</time>
      </trkpt>
      <trkpt lat="42.682390" lon="-2.790519">
        <ele>548.217</ele>
        <time>2022-07-08T18:30:38Z</time>
      </trkpt>
      <trkpt lat="42.682394" lon="-2.790581">
        <ele>548.509</ele>
        <time>2022-07-08T18:30:39Z</time>
      </trkpt>
      <trkpt lat="42.682405" lon="-2.790663">
        <ele>548.696</ele>
        <time>2022-07-08T18:30:41Z</time>
      </trkpt>
      <trkpt lat="42.682422" lon="-2.790764">
        <ele>548.655</ele>
        <time>2022-07-08T18:30:44Z</time>
      </trkpt>
      <trkpt lat="42.682424" lon="-2.790857">
        <ele>548.912</ele>
        <time>2022-07-08T18:30:46Z</time>
      </trkpt>
      <trkpt lat="42.682426" lon="-2.790921">
        <ele>549.718</ele>
        <time>2022-07-08T18:30:47Z</time>
      </trkpt>
      <trkpt lat="42.682429" lon="-2.791027">
        <ele>550.224</ele>
        <time>2022-07-08T18:30:49Z</time>
      </trkpt>
      <trkpt lat="42.682426" lon="-2.791119">
        <ele>550.440</ele>
        <time>2022-07-08T18:30:51Z</time>
      </trkpt>
      <trkpt lat="42.682428" lon="-2.791203">
        <ele>551.140</ele>
        <time>2022-07-08T18:30:53Z</time>
      </trkpt>
      <trkpt lat="42.682434" lon="-2.791274">
        <ele>551.727</ele>
        <time>2022-07-08T18:30:55Z</time>
      </trkpt>
      <trkpt lat="42.682437" lon="-2.791357">
        <ele>552.359</ele>
        <time>2022-07-08T18:30:57Z</time>
      </trkpt>
      <trkpt lat="42.682435" lon="-2.791437">
        <ele>552.648</ele>
        <time>2022-07-08T18:30:59Z</time>
      </trkpt>
      <trkpt lat="42.682430" lon="-2.791507">
        <ele>553.161</ele>
        <time>2022-07-08T18:31:01Z</time>
      </trkpt>
      <trkpt lat="42.682427" lon="-2.791591">
        <ele>553.517</ele>
        <time>2022-07-08T18:31:03Z</time>
      </trkpt>
      <trkpt lat="42.682421" lon="-2.791662">
        <ele>553.709</ele>
        <time>2022-07-08T18:31:05Z</time>
      </trkpt>
      <trkpt lat="42.682413" lon="-2.791768">
        <ele>553.915</ele>
        <time>2022-07-08T18:31:07Z</time>
      </trkpt>
      <trkpt lat="42.682406" lon="-2.791842">
        <ele>554.284</ele>
        <time>2022-07-08T18:31:08Z</time>
      </trkpt>
      <trkpt lat="42.682396" lon="-2.791920">
        <ele>554.471</ele>
        <time>2022-07-08T18:31:09Z</time>
      </trkpt>
      <trkpt lat="42.682384" lon="-2.791983">
        <ele>554.537</ele>
        <time>2022-07-08T18:31:10Z</time>
      </trkpt>
      <trkpt lat="42.682366" lon="-2.792090">
        <ele>554.543</ele>
        <time>2022-07-08T18:31:12Z</time>
      </trkpt>
      <trkpt lat="42.682354" lon="-2.792199">
        <ele>554.729</ele>
        <time>2022-07-08T18:31:14Z</time>
      </trkpt>
      <trkpt lat="42.682335" lon="-2.792310">
        <ele>554.959</ele>
        <time>2022-07-08T18:31:16Z</time>
      </trkpt>
      <trkpt lat="42.682317" lon="-2.792412">
        <ele>555.156</ele>
        <time>2022-07-08T18:31:18Z</time>
      </trkpt>
      <trkpt lat="42.682301" lon="-2.792523">
        <ele>555.118</ele>
        <time>2022-07-08T18:31:20Z</time>
      </trkpt>
      <trkpt lat="42.682283" lon="-2.792633">
        <ele>555.115</ele>
        <time>2022-07-08T18:31:22Z</time>
      </trkpt>
      <trkpt lat="42.682279" lon="-2.792715">
        <ele>555.265</ele>
        <time>2022-07-08T18:31:23Z</time>
      </trkpt>
      <trkpt lat="42.682265" lon="-2.792807">
        <ele>555.411</ele>
        <time>2022-07-08T18:31:24Z</time>
      </trkpt>
      <trkpt lat="42.682251" lon="-2.792899">
        <ele>555.409</ele>
        <time>2022-07-08T18:31:25Z</time>
      </trkpt>
      <trkpt lat="42.682237" lon="-2.792965">
        <ele>555.422</ele>
        <time>2022-07-08T18:31:26Z</time>
      </trkpt>
      <trkpt lat="42.682210" lon="-2.793115">
        <ele>555.361</ele>
        <time>2022-07-08T18:31:28Z</time>
      </trkpt>
      <trkpt lat="42.682199" lon="-2.793202">
        <ele>555.088</ele>
        <time>2022-07-08T18:31:30Z</time>
      </trkpt>
      <trkpt lat="42.682195" lon="-2.793291">
        <ele>554.714</ele>
        <time>2022-07-08T18:31:31Z</time>
      </trkpt>
      <trkpt lat="42.682186" lon="-2.793351">
        <ele>554.680</ele>
        <time>2022-07-08T18:31:32Z</time>
      </trkpt>
      <trkpt lat="42.682180" lon="-2.793424">
        <ele>554.666</ele>
        <time>2022-07-08T18:31:33Z</time>
      </trkpt>
      <trkpt lat="42.682170" lon="-2.793486">
        <ele>554.616</ele>
        <time>2022-07-08T18:31:34Z</time>
      </trkpt>
      <trkpt lat="42.682158" lon="-2.793602">
        <ele>554.873</ele>
        <time>2022-07-08T18:31:37Z</time>
      </trkpt>
      <trkpt lat="42.682138" lon="-2.793697">
        <ele>554.875</ele>
        <time>2022-07-08T18:31:39Z</time>
      </trkpt>
      <trkpt lat="42.682128" lon="-2.793770">
        <ele>555.136</ele>
        <time>2022-07-08T18:31:40Z</time>
      </trkpt>
      <trkpt lat="42.682090" lon="-2.793824">
        <ele>555.117</ele>
        <time>2022-07-08T18:31:42Z</time>
      </trkpt>
      <trkpt lat="42.682030" lon="-2.793786">
        <ele>555.118</ele>
        <time>2022-07-08T18:31:44Z</time>
      </trkpt>
      <trkpt lat="42.681961" lon="-2.793749">
        <ele>555.009</ele>
        <time>2022-07-08T18:31:46Z</time>
      </trkpt>
      <trkpt lat="42.681899" lon="-2.793700">
        <ele>554.814</ele>
        <time>2022-07-08T18:31:48Z</time>
      </trkpt>
      <trkpt lat="42.681847" lon="-2.793636">
        <ele>554.723</ele>
        <time>2022-07-08T18:31:50Z</time>
      </trkpt>
      <trkpt lat="42.681795" lon="-2.793571">
        <ele>554.930</ele>
        <time>2022-07-08T18:31:52Z</time>
      </trkpt>
      <trkpt lat="42.681740" lon="-2.793529">
        <ele>555.426</ele>
        <time>2022-07-08T18:31:54Z</time>
      </trkpt>
      <trkpt lat="42.681684" lon="-2.793482">
        <ele>555.722</ele>
        <time>2022-07-08T18:31:56Z</time>
      </trkpt>
      <trkpt lat="42.681623" lon="-2.793430">
        <ele>556.678</ele>
        <time>2022-07-08T18:31:58Z</time>
      </trkpt>
      <trkpt lat="42.681569" lon="-2.793395">
        <ele>556.998</ele>
        <time>2022-07-08T18:32:00Z</time>
      </trkpt>
      <trkpt lat="42.681518" lon="-2.793354">
        <ele>557.555</ele>
        <time>2022-07-08T18:32:02Z</time>
      </trkpt>
      <trkpt lat="42.681467" lon="-2.793317">
        <ele>557.787</ele>
        <time>2022-07-08T18:32:04Z</time>
      </trkpt>
      <trkpt lat="42.681405" lon="-2.793271">
        <ele>558.093</ele>
        <time>2022-07-08T18:32:06Z</time>
      </trkpt>
      <trkpt lat="42.681341" lon="-2.793217">
        <ele>558.465</ele>
        <time>2022-07-08T18:32:08Z</time>
      </trkpt>
      <trkpt lat="42.681280" lon="-2.793158">
        <ele>558.821</ele>
        <time>2022-07-08T18:32:10Z</time>
      </trkpt>
      <trkpt lat="42.681221" lon="-2.793105">
        <ele>559.109</ele>
        <time>2022-07-08T18:32:12Z</time>
      </trkpt>
      <trkpt lat="42.681168" lon="-2.793054">
        <ele>559.580</ele>
        <time>2022-07-08T18:32:14Z</time>
      </trkpt>
      <trkpt lat="42.681113" lon="-2.793004">
        <ele>560.039</ele>
        <time>2022-07-08T18:32:16Z</time>
      </trkpt>
      <trkpt lat="42.681059" lon="-2.792957">
        <ele>560.266</ele>
        <time>2022-07-08T18:32:18Z</time>
      </trkpt>
      <trkpt lat="42.681004" lon="-2.792904">
        <ele>560.622</ele>
        <time>2022-07-08T18:32:20Z</time>
      </trkpt>
      <trkpt lat="42.680948" lon="-2.792847">
        <ele>561.158</ele>
        <time>2022-07-08T18:32:22Z</time>
      </trkpt>
      <trkpt lat="42.680892" lon="-2.792796">
        <ele>561.444</ele>
        <time>2022-07-08T18:32:24Z</time>
      </trkpt>
      <trkpt lat="42.680838" lon="-2.792760">
        <ele>561.714</ele>
        <time>2022-07-08T18:32:26Z</time>
      </trkpt>
      <trkpt lat="42.680779" lon="-2.792722">
        <ele>562.261</ele>
        <time>2022-07-08T18:32:28Z</time>
      </trkpt>
      <trkpt lat="42.680726" lon="-2.792675">
        <ele>562.443</ele>
        <time>2022-07-08T18:32:30Z</time>
      </trkpt>
      <trkpt lat="42.680673" lon="-2.792645">
        <ele>562.888</ele>
        <time>2022-07-08T18:32:32Z</time>
      </trkpt>
      <trkpt lat="42.680618" lon="-2.792620">
        <ele>563.024</ele>
        <time>2022-07-08T18:32:34Z</time>
      </trkpt>
      <trkpt lat="42.680560" lon="-2.792594">
        <ele>563.326</ele>
        <time>2022-07-08T18:32:36Z</time>
      </trkpt>
      <trkpt lat="42.680507" lon="-2.792568">
        <ele>564.009</ele>
        <time>2022-07-08T18:32:38Z</time>
      </trkpt>
      <trkpt lat="42.680459" lon="-2.792537">
        <ele>564.419</ele>
        <time>2022-07-08T18:32:40Z</time>
      </trkpt>
      <trkpt lat="42.680412" lon="-2.792500">
        <ele>564.828</ele>
        <time>2022-07-08T18:32:42Z</time>
      </trkpt>
      <trkpt lat="42.680355" lon="-2.792456">
        <ele>565.045</ele>
        <time>2022-07-08T18:32:44Z</time>
      </trkpt>
      <trkpt lat="42.680301" lon="-2.792429">
        <ele>565.521</ele>
        <time>2022-07-08T18:32:46Z</time>
      </trkpt>
      <trkpt lat="42.680251" lon="-2.792400">
        <ele>566.047</ele>
        <time>2022-07-08T18:32:48Z</time>
      </trkpt>
      <trkpt lat="42.680199" lon="-2.792361">
        <ele>566.433</ele>
        <time>2022-07-08T18:32:50Z</time>
      </trkpt>
      <trkpt lat="42.680144" lon="-2.792326">
        <ele>566.833</ele>
        <time>2022-07-08T18:32:52Z</time>
      </trkpt>
      <trkpt lat="42.680092" lon="-2.792291">
        <ele>567.090</ele>
        <time>2022-07-08T18:32:54Z</time>
      </trkpt>
      <trkpt lat="42.680037" lon="-2.792257">
        <ele>567.632</ele>
        <time>2022-07-08T18:32:56Z</time>
      </trkpt>
      <trkpt lat="42.679989" lon="-2.792210">
        <ele>568.094</ele>
        <time>2022-07-08T18:32:58Z</time>
      </trkpt>
      <trkpt lat="42.679944" lon="-2.792170">
        <ele>568.357</ele>
        <time>2022-07-08T18:33:00Z</time>
      </trkpt>
      <trkpt lat="42.679892" lon="-2.792128">
        <ele>568.622</ele>
        <time>2022-07-08T18:33:02Z</time>
      </trkpt>
      <trkpt lat="42.679836" lon="-2.792083">
        <ele>568.909</ele>
        <time>2022-07-08T18:33:04Z</time>
      </trkpt>
      <trkpt lat="42.679774" lon="-2.792049">
        <ele>569.520</ele>
        <time>2022-07-08T18:33:06Z</time>
      </trkpt>
      <trkpt lat="42.679713" lon="-2.792017">
        <ele>569.969</ele>
        <time>2022-07-08T18:33:08Z</time>
      </trkpt>
      <trkpt lat="42.679654" lon="-2.791973">
        <ele>570.196</ele>
        <time>2022-07-08T18:33:10Z</time>
      </trkpt>
      <trkpt lat="42.679602" lon="-2.791928">
        <ele>570.272</ele>
        <time>2022-07-08T18:33:12Z</time>
      </trkpt>
      <trkpt lat="42.679556" lon="-2.791886">
        <ele>570.588</ele>
        <time>2022-07-08T18:33:14Z</time>
      </trkpt>
      <trkpt lat="42.679514" lon="-2.791845">
        <ele>570.944</ele>
        <time>2022-07-08T18:33:16Z</time>
      </trkpt>
      <trkpt lat="42.679469" lon="-2.791805">
        <ele>571.224</ele>
        <time>2022-07-08T18:33:18Z</time>
      </trkpt>
      <trkpt lat="42.679423" lon="-2.791758">
        <ele>571.611</ele>
        <time>2022-07-08T18:33:20Z</time>
      </trkpt>
      <trkpt lat="42.679371" lon="-2.791716">
        <ele>571.973</ele>
        <time>2022-07-08T18:33:22Z</time>
      </trkpt>
      <trkpt lat="42.679315" lon="-2.791676">
        <ele>572.477</ele>
        <time>2022-07-08T18:33:24Z</time>
      </trkpt>
      <trkpt lat="42.679262" lon="-2.791631">
        <ele>572.761</ele>
        <time>2022-07-08T18:33:26Z</time>
      </trkpt>
      <trkpt lat="42.679205" lon="-2.791599">
        <ele>573.027</ele>
        <time>2022-07-08T18:33:28Z</time>
      </trkpt>
      <trkpt lat="42.679146" lon="-2.791573">
        <ele>573.209</ele>
        <time>2022-07-08T18:33:30Z</time>
      </trkpt>
      <trkpt lat="42.679099" lon="-2.791526">
        <ele>573.538</ele>
        <time>2022-07-08T18:33:32Z</time>
      </trkpt>
      <trkpt lat="42.679051" lon="-2.791478">
        <ele>573.897</ele>
        <time>2022-07-08T18:33:34Z</time>
      </trkpt>
      <trkpt lat="42.678999" lon="-2.791450">
        <ele>574.234</ele>
        <time>2022-07-08T18:33:36Z</time>
      </trkpt>
      <trkpt lat="42.678951" lon="-2.791412">
        <ele>574.650</ele>
        <time>2022-07-08T18:33:38Z</time>
      </trkpt>
      <trkpt lat="42.678905" lon="-2.791371">
        <ele>575.056</ele>
        <time>2022-07-08T18:33:40Z</time>
      </trkpt>
      <trkpt lat="42.678856" lon="-2.791340">
        <ele>575.392</ele>
        <time>2022-07-08T18:33:42Z</time>
      </trkpt>
      <trkpt lat="42.678811" lon="-2.791314">
        <ele>575.442</ele>
        <time>2022-07-08T18:33:44Z</time>
      </trkpt>
      <trkpt lat="42.678762" lon="-2.791296">
        <ele>575.829</ele>
        <time>2022-07-08T18:33:46Z</time>
      </trkpt>
      <trkpt lat="42.678706" lon="-2.791265">
        <ele>576.231</ele>
        <time>2022-07-08T18:33:48Z</time>
      </trkpt>
      <trkpt lat="42.678656" lon="-2.791224">
        <ele>576.886</ele>
        <time>2022-07-08T18:33:50Z</time>
      </trkpt>
      <trkpt lat="42.678603" lon="-2.791201">
        <ele>577.360</ele>
        <time>2022-07-08T18:33:52Z</time>
      </trkpt>
      <trkpt lat="42.678548" lon="-2.791187">
        <ele>577.926</ele>
        <time>2022-07-08T18:33:54Z</time>
      </trkpt>
      <trkpt lat="42.678491" lon="-2.791173">
        <ele>578.409</ele>
        <time>2022-07-08T18:33:56Z</time>
      </trkpt>
      <trkpt lat="42.678429" lon="-2.791161">
        <ele>578.729</ele>
        <time>2022-07-08T18:33:58Z</time>
      </trkpt>
      <trkpt lat="42.678368" lon="-2.791145">
        <ele>579.178</ele>
        <time>2022-07-08T18:34:00Z</time>
      </trkpt>
      <trkpt lat="42.678311" lon="-2.791141">
        <ele>579.425</ele>
        <time>2022-07-08T18:34:02Z</time>
      </trkpt>
      <trkpt lat="42.678256" lon="-2.791138">
        <ele>580.131</ele>
        <time>2022-07-08T18:34:04Z</time>
      </trkpt>
      <trkpt lat="42.678198" lon="-2.791124">
        <ele>580.657</ele>
        <time>2022-07-08T18:34:06Z</time>
      </trkpt>
      <trkpt lat="42.678136" lon="-2.791112">
        <ele>580.893</ele>
        <time>2022-07-08T18:34:08Z</time>
      </trkpt>
      <trkpt lat="42.678081" lon="-2.791109">
        <ele>581.413</ele>
        <time>2022-07-08T18:34:10Z</time>
      </trkpt>
      <trkpt lat="42.678023" lon="-2.791104">
        <ele>581.880</ele>
        <time>2022-07-08T18:34:12Z</time>
      </trkpt>
      <trkpt lat="42.677966" lon="-2.791099">
        <ele>582.332</ele>
        <time>2022-07-08T18:34:14Z</time>
      </trkpt>
      <trkpt lat="42.677908" lon="-2.791095">
        <ele>582.631</ele>
        <time>2022-07-08T18:34:16Z</time>
      </trkpt>
      <trkpt lat="42.677849" lon="-2.791078">
        <ele>583.061</ele>
        <time>2022-07-08T18:34:18Z</time>
      </trkpt>
      <trkpt lat="42.677789" lon="-2.791065">
        <ele>583.407</ele>
        <time>2022-07-08T18:34:20Z</time>
      </trkpt>
      <trkpt lat="42.677736" lon="-2.791062">
        <ele>583.709</ele>
        <time>2022-07-08T18:34:22Z</time>
      </trkpt>
      <trkpt lat="42.677680" lon="-2.791047">
        <ele>584.114</ele>
        <time>2022-07-08T18:34:24Z</time>
      </trkpt>
      <trkpt lat="42.677616" lon="-2.791022">
        <ele>584.693</ele>
        <time>2022-07-08T18:34:26Z</time>
      </trkpt>
      <trkpt lat="42.677560" lon="-2.791008">
        <ele>585.170</ele>
        <time>2022-07-08T18:34:28Z</time>
      </trkpt>
      <trkpt lat="42.677504" lon="-2.790993">
        <ele>585.686</ele>
        <time>2022-07-08T18:34:30Z</time>
      </trkpt>
      <trkpt lat="42.677453" lon="-2.790980">
        <ele>585.822</ele>
        <time>2022-07-08T18:34:32Z</time>
      </trkpt>
      <trkpt lat="42.677402" lon="-2.790972">
        <ele>586.378</ele>
        <time>2022-07-08T18:34:34Z</time>
      </trkpt>
      <trkpt lat="42.677353" lon="-2.790963">
        <ele>586.668</ele>
        <time>2022-07-08T18:34:36Z</time>
      </trkpt>
      <trkpt lat="42.677291" lon="-2.790935">
        <ele>587.475</ele>
        <time>2022-07-08T18:34:38Z</time>
      </trkpt>
      <trkpt lat="42.677241" lon="-2.790914">
        <ele>587.857</ele>
        <time>2022-07-08T18:34:40Z</time>
      </trkpt>
      <trkpt lat="42.677186" lon="-2.790906">
        <ele>588.393</ele>
        <time>2022-07-08T18:34:42Z</time>
      </trkpt>
      <trkpt lat="42.677122" lon="-2.790908">
        <ele>588.865</ele>
        <time>2022-07-08T18:34:44Z</time>
      </trkpt>
      <trkpt lat="42.677059" lon="-2.790900">
        <ele>589.321</ele>
        <time>2022-07-08T18:34:46Z</time>
      </trkpt>
      <trkpt lat="42.677001" lon="-2.790890">
        <ele>589.809</ele>
        <time>2022-07-08T18:34:48Z</time>
      </trkpt>
      <trkpt lat="42.676944" lon="-2.790886">
        <ele>590.370</ele>
        <time>2022-07-08T18:34:50Z</time>
      </trkpt>
      <trkpt lat="42.676895" lon="-2.790890">
        <ele>590.789</ele>
        <time>2022-07-08T18:34:52Z</time>
      </trkpt>
      <trkpt lat="42.676828" lon="-2.790896">
        <ele>591.186</ele>
        <time>2022-07-08T18:34:55Z</time>
      </trkpt>
      <trkpt lat="42.676767" lon="-2.790878">
        <ele>591.542</ele>
        <time>2022-07-08T18:34:58Z</time>
      </trkpt>
      <trkpt lat="42.676707" lon="-2.790850">
        <ele>592.088</ele>
        <time>2022-07-08T18:35:01Z</time>
      </trkpt>
      <trkpt lat="42.676647" lon="-2.790843">
        <ele>592.764</ele>
        <time>2022-07-08T18:35:04Z</time>
      </trkpt>
      <trkpt lat="42.676607" lon="-2.790814">
        <ele>593.634</ele>
        <time>2022-07-08T18:35:06Z</time>
      </trkpt>
      <trkpt lat="42.676563" lon="-2.790768">
        <ele>594.581</ele>
        <time>2022-07-08T18:35:08Z</time>
      </trkpt>
      <trkpt lat="42.676527" lon="-2.790729">
        <ele>595.173</ele>
        <time>2022-07-08T18:35:10Z</time>
      </trkpt>
      <trkpt lat="42.676483" lon="-2.790655">
        <ele>595.842</ele>
        <time>2022-07-08T18:35:13Z</time>
      </trkpt>
      <trkpt lat="42.676464" lon="-2.790581">
        <ele>596.422</ele>
        <time>2022-07-08T18:35:15Z</time>
      </trkpt>
      <trkpt lat="42.676443" lon="-2.790515">
        <ele>597.414</ele>
        <time>2022-07-08T18:35:17Z</time>
      </trkpt>
      <trkpt lat="42.676428" lon="-2.790446">
        <ele>597.909</ele>
        <time>2022-07-08T18:35:19Z</time>
      </trkpt>
      <trkpt lat="42.676414" lon="-2.790377">
        <ele>598.325</ele>
        <time>2022-07-08T18:35:21Z</time>
      </trkpt>
      <trkpt lat="42.676396" lon="-2.790307">
        <ele>598.644</ele>
        <time>2022-07-08T18:35:23Z</time>
      </trkpt>
      <trkpt lat="42.676380" lon="-2.790234">
        <ele>599.031</ele>
        <time>2022-07-08T18:35:25Z</time>
      </trkpt>
      <trkpt lat="42.676368" lon="-2.790161">
        <ele>599.527</ele>
        <time>2022-07-08T18:35:27Z</time>
      </trkpt>
      <trkpt lat="42.676355" lon="-2.790079">
        <ele>600.013</ele>
        <time>2022-07-08T18:35:29Z</time>
      </trkpt>
      <trkpt lat="42.676343" lon="-2.790008">
        <ele>600.369</ele>
        <time>2022-07-08T18:35:31Z</time>
      </trkpt>
      <trkpt lat="42.676330" lon="-2.789935">
        <ele>600.779</ele>
        <time>2022-07-08T18:35:33Z</time>
      </trkpt>
      <trkpt lat="42.676315" lon="-2.789868">
        <ele>601.036</ele>
        <time>2022-07-08T18:35:35Z</time>
      </trkpt>
      <trkpt lat="42.676298" lon="-2.789804">
        <ele>601.458</ele>
        <time>2022-07-08T18:35:37Z</time>
      </trkpt>
      <trkpt lat="42.676280" lon="-2.789734">
        <ele>601.555</ele>
        <time>2022-07-08T18:35:39Z</time>
      </trkpt>
      <trkpt lat="42.676260" lon="-2.789663">
        <ele>601.607</ele>
        <time>2022-07-08T18:35:41Z</time>
      </trkpt>
      <trkpt lat="42.676247" lon="-2.789594">
        <ele>601.717</ele>
        <time>2022-07-08T18:35:43Z</time>
      </trkpt>
      <trkpt lat="42.676235" lon="-2.789525">
        <ele>601.809</ele>
        <time>2022-07-08T18:35:45Z</time>
      </trkpt>
      <trkpt lat="42.676220" lon="-2.789453">
        <ele>601.916</ele>
        <time>2022-07-08T18:35:47Z</time>
      </trkpt>
      <trkpt lat="42.676203" lon="-2.789383">
        <ele>602.245</ele>
        <time>2022-07-08T18:35:49Z</time>
      </trkpt>
      <trkpt lat="42.676193" lon="-2.789318">
        <ele>602.452</ele>
        <time>2022-07-08T18:35:51Z</time>
      </trkpt>
      <trkpt lat="42.676185" lon="-2.789236">
        <ele>603.078</ele>
        <time>2022-07-08T18:35:53Z</time>
      </trkpt>
      <trkpt lat="42.676168" lon="-2.789153">
        <ele>603.374</ele>
        <time>2022-07-08T18:35:55Z</time>
      </trkpt>
      <trkpt lat="42.676145" lon="-2.789076">
        <ele>603.790</ele>
        <time>2022-07-08T18:35:57Z</time>
      </trkpt>
      <trkpt lat="42.676127" lon="-2.788987">
        <ele>604.140</ele>
        <time>2022-07-08T18:35:59Z</time>
      </trkpt>
      <trkpt lat="42.676114" lon="-2.788901">
        <ele>604.567</ele>
        <time>2022-07-08T18:36:01Z</time>
      </trkpt>
      <trkpt lat="42.676103" lon="-2.788824">
        <ele>604.719</ele>
        <time>2022-07-08T18:36:03Z</time>
      </trkpt>
      <trkpt lat="42.676087" lon="-2.788763">
        <ele>605.089</ele>
        <time>2022-07-08T18:36:05Z</time>
      </trkpt>
      <trkpt lat="42.676072" lon="-2.788697">
        <ele>605.406</ele>
        <time>2022-07-08T18:36:07Z</time>
      </trkpt>
      <trkpt lat="42.676059" lon="-2.788625">
        <ele>605.726</ele>
        <time>2022-07-08T18:36:09Z</time>
      </trkpt>
      <trkpt lat="42.676042" lon="-2.788565">
        <ele>605.909</ele>
        <time>2022-07-08T18:36:11Z</time>
      </trkpt>
      <trkpt lat="42.676036" lon="-2.788500">
        <ele>606.249</ele>
        <time>2022-07-08T18:36:13Z</time>
      </trkpt>
      <trkpt lat="42.676038" lon="-2.788433">
        <ele>606.538</ele>
        <time>2022-07-08T18:36:15Z</time>
      </trkpt>
      <trkpt lat="42.676026" lon="-2.788368">
        <ele>606.985</ele>
        <time>2022-07-08T18:36:17Z</time>
      </trkpt>
      <trkpt lat="42.676012" lon="-2.788303">
        <ele>607.311</ele>
        <time>2022-07-08T18:36:19Z</time>
      </trkpt>
      <trkpt lat="42.676011" lon="-2.788229">
        <ele>607.847</ele>
        <time>2022-07-08T18:36:21Z</time>
      </trkpt>
      <trkpt lat="42.676005" lon="-2.788155">
        <ele>608.333</ele>
        <time>2022-07-08T18:36:23Z</time>
      </trkpt>
      <trkpt lat="42.675997" lon="-2.788082">
        <ele>608.723</ele>
        <time>2022-07-08T18:36:25Z</time>
      </trkpt>
      <trkpt lat="42.675990" lon="-2.788002">
        <ele>609.540</ele>
        <time>2022-07-08T18:36:27Z</time>
      </trkpt>
      <trkpt lat="42.675988" lon="-2.787922">
        <ele>609.922</ele>
        <time>2022-07-08T18:36:29Z</time>
      </trkpt>
      <trkpt lat="42.676000" lon="-2.787835">
        <ele>610.324</ele>
        <time>2022-07-08T18:36:31Z</time>
      </trkpt>
      <trkpt lat="42.676016" lon="-2.787763">
        <ele>610.704</ele>
        <time>2022-07-08T18:36:33Z</time>
      </trkpt>
      <trkpt lat="42.676032" lon="-2.787700">
        <ele>611.114</ele>
        <time>2022-07-08T18:36:35Z</time>
      </trkpt>
      <trkpt lat="42.676052" lon="-2.787632">
        <ele>611.309</ele>
        <time>2022-07-08T18:36:37Z</time>
      </trkpt>
      <trkpt lat="42.676076" lon="-2.787562">
        <ele>611.783</ele>
        <time>2022-07-08T18:36:39Z</time>
      </trkpt>
      <trkpt lat="42.676107" lon="-2.787499">
        <ele>612.332</ele>
        <time>2022-07-08T18:36:41Z</time>
      </trkpt>
      <trkpt lat="42.676143" lon="-2.787438">
        <ele>612.959</ele>
        <time>2022-07-08T18:36:43Z</time>
      </trkpt>
      <trkpt lat="42.676173" lon="-2.787375">
        <ele>613.365</ele>
        <time>2022-07-08T18:36:45Z</time>
      </trkpt>
      <trkpt lat="42.676199" lon="-2.787311">
        <ele>613.631</ele>
        <time>2022-07-08T18:36:47Z</time>
      </trkpt>
      <trkpt lat="42.676229" lon="-2.787236">
        <ele>613.917</ele>
        <time>2022-07-08T18:36:49Z</time>
      </trkpt>
      <trkpt lat="42.676252" lon="-2.787154">
        <ele>614.237</ele>
        <time>2022-07-08T18:36:52Z</time>
      </trkpt>
      <trkpt lat="42.676252" lon="-2.787093">
        <ele>614.684</ele>
        <time>2022-07-08T18:36:54Z</time>
      </trkpt>
      <trkpt lat="42.676253" lon="-2.787015">
        <ele>615.156</ele>
        <time>2022-07-08T18:36:56Z</time>
      </trkpt>
      <trkpt lat="42.676253" lon="-2.786952">
        <ele>615.424</ele>
        <time>2022-07-08T18:36:58Z</time>
      </trkpt>
      <trkpt lat="42.676250" lon="-2.786888">
        <ele>615.604</ele>
        <time>2022-07-08T18:37:00Z</time>
      </trkpt>
      <trkpt lat="42.676240" lon="-2.786811">
        <ele>615.914</ele>
        <time>2022-07-08T18:37:02Z</time>
      </trkpt>
      <trkpt lat="42.676226" lon="-2.786740">
        <ele>616.109</ele>
        <time>2022-07-08T18:37:04Z</time>
      </trkpt>
      <trkpt lat="42.676205" lon="-2.786675">
        <ele>616.363</ele>
        <time>2022-07-08T18:37:06Z</time>
      </trkpt>
      <trkpt lat="42.676177" lon="-2.786610">
        <ele>616.512</ele>
        <time>2022-07-08T18:37:08Z</time>
      </trkpt>
      <trkpt lat="42.676147" lon="-2.786539">
        <ele>616.969</ele>
        <time>2022-07-08T18:37:10Z</time>
      </trkpt>
      <trkpt lat="42.676115" lon="-2.786480">
        <ele>617.045</ele>
        <time>2022-07-08T18:37:12Z</time>
      </trkpt>
      <trkpt lat="42.676081" lon="-2.786430">
        <ele>617.291</ele>
        <time>2022-07-08T18:37:14Z</time>
      </trkpt>
      <trkpt lat="42.676049" lon="-2.786381">
        <ele>617.337</ele>
        <time>2022-07-08T18:37:16Z</time>
      </trkpt>
      <trkpt lat="42.676031" lon="-2.786321">
        <ele>617.487</ele>
        <time>2022-07-08T18:37:18Z</time>
      </trkpt>
      <trkpt lat="42.676023" lon="-2.786257">
        <ele>617.684</ele>
        <time>2022-07-08T18:37:20Z</time>
      </trkpt>
      <trkpt lat="42.675993" lon="-2.786180">
        <ele>617.936</ele>
        <time>2022-07-08T18:37:23Z</time>
      </trkpt>
      <trkpt lat="42.675966" lon="-2.786117">
        <ele>618.495</ele>
        <time>2022-07-08T18:37:25Z</time>
      </trkpt>
      <trkpt lat="42.675963" lon="-2.786043">
        <ele>618.949</ele>
        <time>2022-07-08T18:37:28Z</time>
      </trkpt>
      <trkpt lat="42.675980" lon="-2.785971">
        <ele>619.623</ele>
        <time>2022-07-08T18:37:31Z</time>
      </trkpt>
      <trkpt lat="42.675977" lon="-2.785896">
        <ele>620.509</ele>
        <time>2022-07-08T18:37:34Z</time>
      </trkpt>
      <trkpt lat="42.675990" lon="-2.785811">
        <ele>621.380</ele>
        <time>2022-07-08T18:37:37Z</time>
      </trkpt>
      <trkpt lat="42.675992" lon="-2.785742">
        <ele>621.989</ele>
        <time>2022-07-08T18:37:40Z</time>
      </trkpt>
      <trkpt lat="42.675974" lon="-2.785674">
        <ele>622.466</ele>
        <time>2022-07-08T18:37:43Z</time>
      </trkpt>
      <trkpt lat="42.675949" lon="-2.785618">
        <ele>623.152</ele>
        <time>2022-07-08T18:37:46Z</time>
      </trkpt>
      <trkpt lat="42.675945" lon="-2.785537">
        <ele>623.918</ele>
        <time>2022-07-08T18:37:49Z</time>
      </trkpt>
      <trkpt lat="42.675930" lon="-2.785475">
        <ele>624.374</ele>
        <time>2022-07-08T18:37:52Z</time>
      </trkpt>
      <trkpt lat="42.675913" lon="-2.785413">
        <ele>625.054</ele>
        <time>2022-07-08T18:37:56Z</time>
      </trkpt>
      <trkpt lat="42.675906" lon="-2.785346">
        <ele>625.751</ele>
        <time>2022-07-08T18:37:59Z</time>
      </trkpt>
      <trkpt lat="42.675907" lon="-2.785266">
        <ele>626.593</ele>
        <time>2022-07-08T18:38:03Z</time>
      </trkpt>
      <trkpt lat="42.675918" lon="-2.785207">
        <ele>627.386</ele>
        <time>2022-07-08T18:38:07Z</time>
      </trkpt>
      <trkpt lat="42.675965" lon="-2.785218">
        <ele>628.160</ele>
        <time>2022-07-08T18:38:16Z</time>
      </trkpt>
      <trkpt lat="42.676003" lon="-2.785165">
        <ele>628.726</ele>
        <time>2022-07-08T18:38:19Z</time>
      </trkpt>
      <trkpt lat="42.676029" lon="-2.785093">
        <ele>628.909</ele>
        <time>2022-07-08T18:38:21Z</time>
      </trkpt>
      <trkpt lat="42.676054" lon="-2.785013">
        <ele>629.269</ele>
        <time>2022-07-08T18:38:23Z</time>
      </trkpt>
      <trkpt lat="42.676087" lon="-2.784928">
        <ele>629.648</ele>
        <time>2022-07-08T18:38:25Z</time>
      </trkpt>
      <trkpt lat="42.676138" lon="-2.784845">
        <ele>629.775</ele>
        <time>2022-07-08T18:38:27Z</time>
      </trkpt>
      <trkpt lat="42.676168" lon="-2.784799">
        <ele>629.621</ele>
        <time>2022-07-08T18:38:28Z</time>
      </trkpt>
      <trkpt lat="42.676198" lon="-2.784718">
        <ele>629.437</ele>
        <time>2022-07-08T18:38:29Z</time>
      </trkpt>
      <trkpt lat="42.676222" lon="-2.784653">
        <ele>629.413</ele>
        <time>2022-07-08T18:38:30Z</time>
      </trkpt>
      <trkpt lat="42.676251" lon="-2.784603">
        <ele>629.373</ele>
        <time>2022-07-08T18:38:31Z</time>
      </trkpt>
      <trkpt lat="42.676283" lon="-2.784529">
        <ele>629.210</ele>
        <time>2022-07-08T18:38:32Z</time>
      </trkpt>
      <trkpt lat="42.676321" lon="-2.784467">
        <ele>629.232</ele>
        <time>2022-07-08T18:38:33Z</time>
      </trkpt>
      <trkpt lat="42.676370" lon="-2.784393">
        <ele>629.097</ele>
        <time>2022-07-08T18:38:34Z</time>
      </trkpt>
      <trkpt lat="42.676412" lon="-2.784329">
        <ele>628.823</ele>
        <time>2022-07-08T18:38:35Z</time>
      </trkpt>
      <trkpt lat="42.676454" lon="-2.784258">
        <ele>628.325</ele>
        <time>2022-07-08T18:38:36Z</time>
      </trkpt>
      <trkpt lat="42.676505" lon="-2.784185">
        <ele>627.109</ele>
        <time>2022-07-08T18:38:37Z</time>
      </trkpt>
      <trkpt lat="42.676549" lon="-2.784102">
        <ele>626.720</ele>
        <time>2022-07-08T18:38:38Z</time>
      </trkpt>
      <trkpt lat="42.676602" lon="-2.784025">
        <ele>626.499</ele>
        <time>2022-07-08T18:38:39Z</time>
      </trkpt>
      <trkpt lat="42.676654" lon="-2.783949">
        <ele>625.716</ele>
        <time>2022-07-08T18:38:40Z</time>
      </trkpt>
      <trkpt lat="42.676700" lon="-2.783860">
        <ele>625.192</ele>
        <time>2022-07-08T18:38:41Z</time>
      </trkpt>
      <trkpt lat="42.676745" lon="-2.783783">
        <ele>624.618</ele>
        <time>2022-07-08T18:38:42Z</time>
      </trkpt>
      <trkpt lat="42.676802" lon="-2.783691">
        <ele>624.154</ele>
        <time>2022-07-08T18:38:43Z</time>
      </trkpt>
      <trkpt lat="42.676850" lon="-2.783601">
        <ele>623.774</ele>
        <time>2022-07-08T18:38:44Z</time>
      </trkpt>
      <trkpt lat="42.676902" lon="-2.783517">
        <ele>623.261</ele>
        <time>2022-07-08T18:38:45Z</time>
      </trkpt>
      <trkpt lat="42.676944" lon="-2.783429">
        <ele>622.793</ele>
        <time>2022-07-08T18:38:46Z</time>
      </trkpt>
      <trkpt lat="42.676992" lon="-2.783353">
        <ele>622.218</ele>
        <time>2022-07-08T18:38:47Z</time>
      </trkpt>
      <trkpt lat="42.677033" lon="-2.783283">
        <ele>621.898</ele>
        <time>2022-07-08T18:38:48Z</time>
      </trkpt>
      <trkpt lat="42.677069" lon="-2.783208">
        <ele>621.517</ele>
        <time>2022-07-08T18:38:49Z</time>
      </trkpt>
      <trkpt lat="42.677112" lon="-2.783089">
        <ele>621.309</ele>
        <time>2022-07-08T18:38:50Z</time>
      </trkpt>
      <trkpt lat="42.677164" lon="-2.782999">
        <ele>621.122</ele>
        <time>2022-07-08T18:38:51Z</time>
      </trkpt>
      <trkpt lat="42.677204" lon="-2.782937">
        <ele>620.961</ele>
        <time>2022-07-08T18:38:52Z</time>
      </trkpt>
      <trkpt lat="42.677245" lon="-2.782868">
        <ele>620.748</ele>
        <time>2022-07-08T18:38:53Z</time>
      </trkpt>
      <trkpt lat="42.677280" lon="-2.782784">
        <ele>620.454</ele>
        <time>2022-07-08T18:38:54Z</time>
      </trkpt>
      <trkpt lat="42.677312" lon="-2.782716">
        <ele>620.260</ele>
        <time>2022-07-08T18:38:55Z</time>
      </trkpt>
      <trkpt lat="42.677368" lon="-2.782623">
        <ele>620.056</ele>
        <time>2022-07-08T18:38:57Z</time>
      </trkpt>
      <trkpt lat="42.677429" lon="-2.782520">
        <ele>619.856</ele>
        <time>2022-07-08T18:38:59Z</time>
      </trkpt>
      <trkpt lat="42.677450" lon="-2.782449">
        <ele>619.683</ele>
        <time>2022-07-08T18:39:00Z</time>
      </trkpt>
      <trkpt lat="42.677477" lon="-2.782392">
        <ele>619.455</ele>
        <time>2022-07-08T18:39:01Z</time>
      </trkpt>
      <trkpt lat="42.677537" lon="-2.782304">
        <ele>619.275</ele>
        <time>2022-07-08T18:39:03Z</time>
      </trkpt>
      <trkpt lat="42.677607" lon="-2.782187">
        <ele>619.128</ele>
        <time>2022-07-08T18:39:05Z</time>
      </trkpt>
      <trkpt lat="42.677632" lon="-2.782129">
        <ele>619.020</ele>
        <time>2022-07-08T18:39:06Z</time>
      </trkpt>
      <trkpt lat="42.677658" lon="-2.782079">
        <ele>618.909</ele>
        <time>2022-07-08T18:39:07Z</time>
      </trkpt>
      <trkpt lat="42.677684" lon="-2.782027">
        <ele>618.958</ele>
        <time>2022-07-08T18:39:08Z</time>
      </trkpt>
      <trkpt lat="42.677708" lon="-2.781951">
        <ele>618.987</ele>
        <time>2022-07-08T18:39:09Z</time>
      </trkpt>
      <trkpt lat="42.677739" lon="-2.781887">
        <ele>618.934</ele>
        <time>2022-07-08T18:39:10Z</time>
      </trkpt>
      <trkpt lat="42.677781" lon="-2.781826">
        <ele>618.910</ele>
        <time>2022-07-08T18:39:11Z</time>
      </trkpt>
      <trkpt lat="42.677813" lon="-2.781773">
        <ele>618.986</ele>
        <time>2022-07-08T18:39:12Z</time>
      </trkpt>
      <trkpt lat="42.677849" lon="-2.781719">
        <ele>618.692</ele>
        <time>2022-07-08T18:39:13Z</time>
      </trkpt>
      <trkpt lat="42.677880" lon="-2.781671">
        <ele>618.692</ele>
        <time>2022-07-08T18:39:14Z</time>
      </trkpt>
      <trkpt lat="42.677916" lon="-2.781617">
        <ele>618.629</ele>
        <time>2022-07-08T18:39:15Z</time>
      </trkpt>
      <trkpt lat="42.677962" lon="-2.781547">
        <ele>618.661</ele>
        <time>2022-07-08T18:39:16Z</time>
      </trkpt>
      <trkpt lat="42.677999" lon="-2.781485">
        <ele>618.633</ele>
        <time>2022-07-08T18:39:17Z</time>
      </trkpt>
      <trkpt lat="42.678036" lon="-2.781428">
        <ele>618.623</ele>
        <time>2022-07-08T18:39:18Z</time>
      </trkpt>
      <trkpt lat="42.678067" lon="-2.781375">
        <ele>618.515</ele>
        <time>2022-07-08T18:39:19Z</time>
      </trkpt>
      <trkpt lat="42.678101" lon="-2.781315">
        <ele>618.409</ele>
        <time>2022-07-08T18:39:20Z</time>
      </trkpt>
      <trkpt lat="42.678144" lon="-2.781254">
        <ele>618.284</ele>
        <time>2022-07-08T18:39:21Z</time>
      </trkpt>
      <trkpt lat="42.678181" lon="-2.781175">
        <ele>618.013</ele>
        <time>2022-07-08T18:39:22Z</time>
      </trkpt>
      <trkpt lat="42.678222" lon="-2.781116">
        <ele>617.870</ele>
        <time>2022-07-08T18:39:23Z</time>
      </trkpt>
      <trkpt lat="42.678255" lon="-2.781068">
        <ele>617.786</ele>
        <time>2022-07-08T18:39:24Z</time>
      </trkpt>
      <trkpt lat="42.678296" lon="-2.781003">
        <ele>617.422</ele>
        <time>2022-07-08T18:39:25Z</time>
      </trkpt>
      <trkpt lat="42.678331" lon="-2.780937">
        <ele>617.258</ele>
        <time>2022-07-08T18:39:26Z</time>
      </trkpt>
      <trkpt lat="42.678367" lon="-2.780859">
        <ele>617.018</ele>
        <time>2022-07-08T18:39:27Z</time>
      </trkpt>
      <trkpt lat="42.678421" lon="-2.780767">
        <ele>616.995</ele>
        <time>2022-07-08T18:39:28Z</time>
      </trkpt>
      <trkpt lat="42.678459" lon="-2.780719">
        <ele>616.947</ele>
        <time>2022-07-08T18:39:29Z</time>
      </trkpt>
      <trkpt lat="42.678511" lon="-2.780617">
        <ele>616.673</ele>
        <time>2022-07-08T18:39:30Z</time>
      </trkpt>
      <trkpt lat="42.678550" lon="-2.780556">
        <ele>616.485</ele>
        <time>2022-07-08T18:39:31Z</time>
      </trkpt>
      <trkpt lat="42.678588" lon="-2.780493">
        <ele>616.313</ele>
        <time>2022-07-08T18:39:32Z</time>
      </trkpt>
      <trkpt lat="42.678622" lon="-2.780434">
        <ele>616.209</ele>
        <time>2022-07-08T18:39:33Z</time>
      </trkpt>
      <trkpt lat="42.678661" lon="-2.780376">
        <ele>616.238</ele>
        <time>2022-07-08T18:39:34Z</time>
      </trkpt>
      <trkpt lat="42.678693" lon="-2.780326">
        <ele>616.277</ele>
        <time>2022-07-08T18:39:35Z</time>
      </trkpt>
      <trkpt lat="42.678723" lon="-2.780260">
        <ele>616.254</ele>
        <time>2022-07-08T18:39:36Z</time>
      </trkpt>
      <trkpt lat="42.678758" lon="-2.780203">
        <ele>616.190</ele>
        <time>2022-07-08T18:39:37Z</time>
      </trkpt>
      <trkpt lat="42.678791" lon="-2.780154">
        <ele>616.026</ele>
        <time>2022-07-08T18:39:38Z</time>
      </trkpt>
      <trkpt lat="42.678825" lon="-2.780101">
        <ele>615.732</ele>
        <time>2022-07-08T18:39:39Z</time>
      </trkpt>
      <trkpt lat="42.678846" lon="-2.780037">
        <ele>615.332</ele>
        <time>2022-07-08T18:39:40Z</time>
      </trkpt>
      <trkpt lat="42.678873" lon="-2.779973">
        <ele>614.939</ele>
        <time>2022-07-08T18:39:41Z</time>
      </trkpt>
      <trkpt lat="42.678902" lon="-2.779926">
        <ele>614.761</ele>
        <time>2022-07-08T18:39:42Z</time>
      </trkpt>
      <trkpt lat="42.678933" lon="-2.779872">
        <ele>614.695</ele>
        <time>2022-07-08T18:39:43Z</time>
      </trkpt>
      <trkpt lat="42.678962" lon="-2.779822">
        <ele>614.449</ele>
        <time>2022-07-08T18:39:44Z</time>
      </trkpt>
      <trkpt lat="42.678992" lon="-2.779753">
        <ele>614.323</ele>
        <time>2022-07-08T18:39:45Z</time>
      </trkpt>
      <trkpt lat="42.679032" lon="-2.779700">
        <ele>614.209</ele>
        <time>2022-07-08T18:39:46Z</time>
      </trkpt>
      <trkpt lat="42.679067" lon="-2.779649">
        <ele>614.180</ele>
        <time>2022-07-08T18:39:47Z</time>
      </trkpt>
      <trkpt lat="42.679102" lon="-2.779598">
        <ele>614.069</ele>
        <time>2022-07-08T18:39:48Z</time>
      </trkpt>
      <trkpt lat="42.679133" lon="-2.779534">
        <ele>613.996</ele>
        <time>2022-07-08T18:39:49Z</time>
      </trkpt>
      <trkpt lat="42.679166" lon="-2.779480">
        <ele>613.922</ele>
        <time>2022-07-08T18:39:50Z</time>
      </trkpt>
      <trkpt lat="42.679201" lon="-2.779415">
        <ele>613.898</ele>
        <time>2022-07-08T18:39:51Z</time>
      </trkpt>
      <trkpt lat="42.679233" lon="-2.779352">
        <ele>613.754</ele>
        <time>2022-07-08T18:39:52Z</time>
      </trkpt>
      <trkpt lat="42.679266" lon="-2.779276">
        <ele>613.634</ele>
        <time>2022-07-08T18:39:53Z</time>
      </trkpt>
      <trkpt lat="42.679306" lon="-2.779214">
        <ele>613.611</ele>
        <time>2022-07-08T18:39:54Z</time>
      </trkpt>
      <trkpt lat="42.679342" lon="-2.779136">
        <ele>613.453</ele>
        <time>2022-07-08T18:39:55Z</time>
      </trkpt>
      <trkpt lat="42.679377" lon="-2.779074">
        <ele>613.337</ele>
        <time>2022-07-08T18:39:56Z</time>
      </trkpt>
      <trkpt lat="42.679416" lon="-2.779018">
        <ele>613.349</ele>
        <time>2022-07-08T18:39:57Z</time>
      </trkpt>
      <trkpt lat="42.679454" lon="-2.778958">
        <ele>613.113</ele>
        <time>2022-07-08T18:39:58Z</time>
      </trkpt>
      <trkpt lat="42.679489" lon="-2.778901">
        <ele>612.709</ele>
        <time>2022-07-08T18:39:59Z</time>
      </trkpt>
      <trkpt lat="42.679518" lon="-2.778835">
        <ele>612.754</ele>
        <time>2022-07-08T18:40:00Z</time>
      </trkpt>
      <trkpt lat="42.679554" lon="-2.778779">
        <ele>612.423</ele>
        <time>2022-07-08T18:40:01Z</time>
      </trkpt>
      <trkpt lat="42.679586" lon="-2.778728">
        <ele>612.140</ele>
        <time>2022-07-08T18:40:02Z</time>
      </trkpt>
      <trkpt lat="42.679619" lon="-2.778675">
        <ele>611.916</ele>
        <time>2022-07-08T18:40:03Z</time>
      </trkpt>
      <trkpt lat="42.679656" lon="-2.778613">
        <ele>611.792</ele>
        <time>2022-07-08T18:40:04Z</time>
      </trkpt>
      <trkpt lat="42.679689" lon="-2.778569">
        <ele>611.558</ele>
        <time>2022-07-08T18:40:05Z</time>
      </trkpt>
      <trkpt lat="42.679728" lon="-2.778440">
        <ele>610.988</ele>
        <time>2022-07-08T18:40:07Z</time>
      </trkpt>
      <trkpt lat="42.679757" lon="-2.778383">
        <ele>610.865</ele>
        <time>2022-07-08T18:40:08Z</time>
      </trkpt>
      <trkpt lat="42.679817" lon="-2.778287">
        <ele>610.657</ele>
        <time>2022-07-08T18:40:10Z</time>
      </trkpt>
      <trkpt lat="42.679845" lon="-2.778238">
        <ele>610.511</ele>
        <time>2022-07-08T18:40:11Z</time>
      </trkpt>
      <trkpt lat="42.679872" lon="-2.778179">
        <ele>610.421</ele>
        <time>2022-07-08T18:40:12Z</time>
      </trkpt>
      <trkpt lat="42.679904" lon="-2.778128">
        <ele>610.303</ele>
        <time>2022-07-08T18:40:13Z</time>
      </trkpt>
      <trkpt lat="42.679929" lon="-2.778074">
        <ele>610.109</ele>
        <time>2022-07-08T18:40:14Z</time>
      </trkpt>
      <trkpt lat="42.679963" lon="-2.778026">
        <ele>610.022</ele>
        <time>2022-07-08T18:40:15Z</time>
      </trkpt>
      <trkpt lat="42.679993" lon="-2.777979">
        <ele>609.811</ele>
        <time>2022-07-08T18:40:16Z</time>
      </trkpt>
      <trkpt lat="42.680024" lon="-2.777930">
        <ele>609.878</ele>
        <time>2022-07-08T18:40:17Z</time>
      </trkpt>
      <trkpt lat="42.680064" lon="-2.777877">
        <ele>609.824</ele>
        <time>2022-07-08T18:40:18Z</time>
      </trkpt>
      <trkpt lat="42.680117" lon="-2.777834">
        <ele>609.840</ele>
        <time>2022-07-08T18:40:19Z</time>
      </trkpt>
      <trkpt lat="42.680169" lon="-2.777790">
        <ele>609.866</ele>
        <time>2022-07-08T18:40:20Z</time>
      </trkpt>
      <trkpt lat="42.680209" lon="-2.777725">
        <ele>609.896</ele>
        <time>2022-07-08T18:40:21Z</time>
      </trkpt>
      <trkpt lat="42.680252" lon="-2.777660">
        <ele>609.443</ele>
        <time>2022-07-08T18:40:22Z</time>
      </trkpt>
      <trkpt lat="42.680298" lon="-2.777590">
        <ele>609.185</ele>
        <time>2022-07-08T18:40:23Z</time>
      </trkpt>
      <trkpt lat="42.680345" lon="-2.777516">
        <ele>608.922</ele>
        <time>2022-07-08T18:40:24Z</time>
      </trkpt>
      <trkpt lat="42.680384" lon="-2.777438">
        <ele>608.462</ele>
        <time>2022-07-08T18:40:25Z</time>
      </trkpt>
      <trkpt lat="42.680427" lon="-2.777361">
        <ele>608.008</ele>
        <time>2022-07-08T18:40:26Z</time>
      </trkpt>
      <trkpt lat="42.680469" lon="-2.777290">
        <ele>607.409</ele>
        <time>2022-07-08T18:40:27Z</time>
      </trkpt>
      <trkpt lat="42.680515" lon="-2.777205">
        <ele>606.533</ele>
        <time>2022-07-08T18:40:28Z</time>
      </trkpt>
      <trkpt lat="42.680558" lon="-2.777133">
        <ele>605.992</ele>
        <time>2022-07-08T18:40:29Z</time>
      </trkpt>
      <trkpt lat="42.680606" lon="-2.777069">
        <ele>605.449</ele>
        <time>2022-07-08T18:40:30Z</time>
      </trkpt>
      <trkpt lat="42.680661" lon="-2.777018">
        <ele>604.915</ele>
        <time>2022-07-08T18:40:31Z</time>
      </trkpt>
      <trkpt lat="42.680705" lon="-2.776976">
        <ele>604.851</ele>
        <time>2022-07-08T18:40:32Z</time>
      </trkpt>
      <trkpt lat="42.680747" lon="-2.776919">
        <ele>604.397</ele>
        <time>2022-07-08T18:40:33Z</time>
      </trkpt>
      <trkpt lat="42.680782" lon="-2.776856">
        <ele>604.167</ele>
        <time>2022-07-08T18:40:34Z</time>
      </trkpt>
      <trkpt lat="42.680822" lon="-2.776800">
        <ele>603.834</ele>
        <time>2022-07-08T18:40:35Z</time>
      </trkpt>
      <trkpt lat="42.680864" lon="-2.776735">
        <ele>603.446</ele>
        <time>2022-07-08T18:40:36Z</time>
      </trkpt>
      <trkpt lat="42.680902" lon="-2.776673">
        <ele>603.089</ele>
        <time>2022-07-08T18:40:37Z</time>
      </trkpt>
      <trkpt lat="42.680938" lon="-2.776601">
        <ele>602.606</ele>
        <time>2022-07-08T18:40:38Z</time>
      </trkpt>
      <trkpt lat="42.680977" lon="-2.776538">
        <ele>602.326</ele>
        <time>2022-07-08T18:40:39Z</time>
      </trkpt>
      <trkpt lat="42.681025" lon="-2.776466">
        <ele>601.609</ele>
        <time>2022-07-08T18:40:40Z</time>
      </trkpt>
      <trkpt lat="42.681064" lon="-2.776389">
        <ele>601.239</ele>
        <time>2022-07-08T18:40:41Z</time>
      </trkpt>
      <trkpt lat="42.681101" lon="-2.776321">
        <ele>600.898</ele>
        <time>2022-07-08T18:40:42Z</time>
      </trkpt>
      <trkpt lat="42.681136" lon="-2.776249">
        <ele>600.855</ele>
        <time>2022-07-08T18:40:43Z</time>
      </trkpt>
      <trkpt lat="42.681170" lon="-2.776174">
        <ele>600.551</ele>
        <time>2022-07-08T18:40:44Z</time>
      </trkpt>
      <trkpt lat="42.681209" lon="-2.776110">
        <ele>600.477</ele>
        <time>2022-07-08T18:40:45Z</time>
      </trkpt>
      <trkpt lat="42.681249" lon="-2.776036">
        <ele>600.063</ele>
        <time>2022-07-08T18:40:46Z</time>
      </trkpt>
      <trkpt lat="42.681283" lon="-2.775963">
        <ele>599.693</ele>
        <time>2022-07-08T18:40:47Z</time>
      </trkpt>
      <trkpt lat="42.681333" lon="-2.775885">
        <ele>599.330</ele>
        <time>2022-07-08T18:40:48Z</time>
      </trkpt>
      <trkpt lat="42.681367" lon="-2.775818">
        <ele>599.012</ele>
        <time>2022-07-08T18:40:49Z</time>
      </trkpt>
      <trkpt lat="42.681407" lon="-2.775739">
        <ele>598.535</ele>
        <time>2022-07-08T18:40:50Z</time>
      </trkpt>
      <trkpt lat="42.681460" lon="-2.775639">
        <ele>598.586</ele>
        <time>2022-07-08T18:40:52Z</time>
      </trkpt>
      <trkpt lat="42.681488" lon="-2.775571">
        <ele>598.514</ele>
        <time>2022-07-08T18:40:54Z</time>
      </trkpt>
      <trkpt lat="42.681522" lon="-2.775513">
        <ele>598.709</ele>
        <time>2022-07-08T18:40:56Z</time>
      </trkpt>
      <trkpt lat="42.681559" lon="-2.775429">
        <ele>599.114</ele>
        <time>2022-07-08T18:40:58Z</time>
      </trkpt>
      <trkpt lat="42.681611" lon="-2.775354">
        <ele>599.323</ele>
        <time>2022-07-08T18:41:00Z</time>
      </trkpt>
      <trkpt lat="42.681651" lon="-2.775272">
        <ele>599.750</ele>
        <time>2022-07-08T18:41:02Z</time>
      </trkpt>
      <trkpt lat="42.681695" lon="-2.775185">
        <ele>599.936</ele>
        <time>2022-07-08T18:41:04Z</time>
      </trkpt>
      <trkpt lat="42.681737" lon="-2.775097">
        <ele>600.152</ele>
        <time>2022-07-08T18:41:06Z</time>
      </trkpt>
      <trkpt lat="42.681792" lon="-2.775015">
        <ele>600.328</ele>
        <time>2022-07-08T18:41:08Z</time>
      </trkpt>
      <trkpt lat="42.681835" lon="-2.774917">
        <ele>600.488</ele>
        <time>2022-07-08T18:41:10Z</time>
      </trkpt>
      <trkpt lat="42.681889" lon="-2.774840">
        <ele>600.625</ele>
        <time>2022-07-08T18:41:12Z</time>
      </trkpt>
      <trkpt lat="42.681956" lon="-2.774753">
        <ele>600.997</ele>
        <time>2022-07-08T18:41:14Z</time>
      </trkpt>
      <trkpt lat="42.682013" lon="-2.774687">
        <ele>601.112</ele>
        <time>2022-07-08T18:41:16Z</time>
      </trkpt>
      <trkpt lat="42.682053" lon="-2.774595">
        <ele>601.132</ele>
        <time>2022-07-08T18:41:18Z</time>
      </trkpt>
      <trkpt lat="42.682079" lon="-2.774539">
        <ele>601.005</ele>
        <time>2022-07-08T18:41:19Z</time>
      </trkpt>
      <trkpt lat="42.682117" lon="-2.774436">
        <ele>600.709</ele>
        <time>2022-07-08T18:41:21Z</time>
      </trkpt>
      <trkpt lat="42.682170" lon="-2.774347">
        <ele>600.412</ele>
        <time>2022-07-08T18:41:23Z</time>
      </trkpt>
      <trkpt lat="42.682230" lon="-2.774266">
        <ele>599.721</ele>
        <time>2022-07-08T18:41:25Z</time>
      </trkpt>
      <trkpt lat="42.682302" lon="-2.774207">
        <ele>598.638</ele>
        <time>2022-07-08T18:41:27Z</time>
      </trkpt>
      <trkpt lat="42.682354" lon="-2.774205">
        <ele>597.134</ele>
        <time>2022-07-08T18:41:28Z</time>
      </trkpt>
      <trkpt lat="42.682405" lon="-2.774200">
        <ele>596.080</ele>
        <time>2022-07-08T18:41:29Z</time>
      </trkpt>
      <trkpt lat="42.682452" lon="-2.774190">
        <ele>595.866</ele>
        <time>2022-07-08T18:41:30Z</time>
      </trkpt>
      <trkpt lat="42.682497" lon="-2.774201">
        <ele>595.316</ele>
        <time>2022-07-08T18:41:31Z</time>
      </trkpt>
      <trkpt lat="42.682589" lon="-2.774169">
        <ele>594.373</ele>
        <time>2022-07-08T18:41:33Z</time>
      </trkpt>
      <trkpt lat="42.682620" lon="-2.774116">
        <ele>594.355</ele>
        <time>2022-07-08T18:41:34Z</time>
      </trkpt>
      <trkpt lat="42.682657" lon="-2.774007">
        <ele>592.298</ele>
        <time>2022-07-08T18:41:36Z</time>
      </trkpt>
      <trkpt lat="42.682681" lon="-2.773951">
        <ele>591.315</ele>
        <time>2022-07-08T18:41:37Z</time>
      </trkpt>
      <trkpt lat="42.682700" lon="-2.773886">
        <ele>590.726</ele>
        <time>2022-07-08T18:41:38Z</time>
      </trkpt>
      <trkpt lat="42.682724" lon="-2.773777">
        <ele>590.109</ele>
        <time>2022-07-08T18:41:40Z</time>
      </trkpt>
      <trkpt lat="42.682726" lon="-2.773709">
        <ele>589.920</ele>
        <time>2022-07-08T18:41:43Z</time>
      </trkpt>
      <trkpt lat="42.682744" lon="-2.773649">
        <ele>588.839</ele>
        <time>2022-07-08T18:41:50Z</time>
      </trkpt>
      <trkpt lat="42.682756" lon="-2.773588">
        <ele>587.736</ele>
        <time>2022-07-08T18:41:56Z</time>
      </trkpt>
      <trkpt lat="42.682783" lon="-2.773525">
        <ele>586.772</ele>
        <time>2022-07-08T18:42:14Z</time>
      </trkpt>
      <trkpt lat="42.682803" lon="-2.773458">
        <ele>586.658</ele>
        <time>2022-07-08T18:42:17Z</time>
      </trkpt>
      <trkpt lat="42.682861" lon="-2.773424">
        <ele>586.624</ele>
        <time>2022-07-08T18:42:20Z</time>
      </trkpt>
      <trkpt lat="42.682924" lon="-2.773476">
        <ele>586.584</ele>
        <time>2022-07-08T18:42:22Z</time>
      </trkpt>
      <trkpt lat="42.682955" lon="-2.773527">
        <ele>586.721</ele>
        <time>2022-07-08T18:42:23Z</time>
      </trkpt>
      <trkpt lat="42.682975" lon="-2.773666">
        <ele>586.733</ele>
        <time>2022-07-08T18:42:24Z</time>
      </trkpt>
      <trkpt lat="42.683005" lon="-2.773718">
        <ele>586.776</ele>
        <time>2022-07-08T18:42:25Z</time>
      </trkpt>
      <trkpt lat="42.683035" lon="-2.773778">
        <ele>586.790</ele>
        <time>2022-07-08T18:42:26Z</time>
      </trkpt>
      <trkpt lat="42.683066" lon="-2.773845">
        <ele>586.619</ele>
        <time>2022-07-08T18:42:27Z</time>
      </trkpt>
      <trkpt lat="42.683105" lon="-2.773902">
        <ele>586.409</ele>
        <time>2022-07-08T18:42:28Z</time>
      </trkpt>
      <trkpt lat="42.683148" lon="-2.773963">
        <ele>586.128</ele>
        <time>2022-07-08T18:42:29Z</time>
      </trkpt>
      <trkpt lat="42.683187" lon="-2.774036">
        <ele>585.727</ele>
        <time>2022-07-08T18:42:30Z</time>
      </trkpt>
      <trkpt lat="42.683224" lon="-2.774097">
        <ele>585.664</ele>
        <time>2022-07-08T18:42:31Z</time>
      </trkpt>
      <trkpt lat="42.683258" lon="-2.774172">
        <ele>585.690</ele>
        <time>2022-07-08T18:42:32Z</time>
      </trkpt>
      <trkpt lat="42.683292" lon="-2.774238">
        <ele>585.456</ele>
        <time>2022-07-08T18:42:33Z</time>
      </trkpt>
      <trkpt lat="42.683325" lon="-2.774292">
        <ele>584.922</ele>
        <time>2022-07-08T18:42:34Z</time>
      </trkpt>
      <trkpt lat="42.683382" lon="-2.774369">
        <ele>584.412</ele>
        <time>2022-07-08T18:42:35Z</time>
      </trkpt>
      <trkpt lat="42.683434" lon="-2.774429">
        <ele>584.449</ele>
        <time>2022-07-08T18:42:36Z</time>
      </trkpt>
      <trkpt lat="42.683474" lon="-2.774506">
        <ele>583.811</ele>
        <time>2022-07-08T18:42:37Z</time>
      </trkpt>
      <trkpt lat="42.683514" lon="-2.774585">
        <ele>583.594</ele>
        <time>2022-07-08T18:42:38Z</time>
      </trkpt>
      <trkpt lat="42.683551" lon="-2.774637">
        <ele>583.557</ele>
        <time>2022-07-08T18:42:39Z</time>
      </trkpt>
      <trkpt lat="42.683592" lon="-2.774699">
        <ele>583.522</ele>
        <time>2022-07-08T18:42:40Z</time>
      </trkpt>
      <trkpt lat="42.683635" lon="-2.774765">
        <ele>582.909</ele>
        <time>2022-07-08T18:42:41Z</time>
      </trkpt>
      <trkpt lat="42.683681" lon="-2.774841">
        <ele>582.750</ele>
        <time>2022-07-08T18:42:42Z</time>
      </trkpt>
      <trkpt lat="42.683723" lon="-2.774913">
        <ele>582.139</ele>
        <time>2022-07-08T18:42:43Z</time>
      </trkpt>
      <trkpt lat="42.683765" lon="-2.774978">
        <ele>581.666</ele>
        <time>2022-07-08T18:42:44Z</time>
      </trkpt>
      <trkpt lat="42.683807" lon="-2.775048">
        <ele>581.242</ele>
        <time>2022-07-08T18:42:45Z</time>
      </trkpt>
      <trkpt lat="42.683859" lon="-2.775125">
        <ele>580.878</ele>
        <time>2022-07-08T18:42:46Z</time>
      </trkpt>
      <trkpt lat="42.683901" lon="-2.775191">
        <ele>580.584</ele>
        <time>2022-07-08T18:42:47Z</time>
      </trkpt>
      <trkpt lat="42.683944" lon="-2.775254">
        <ele>580.334</ele>
        <time>2022-07-08T18:42:48Z</time>
      </trkpt>
      <trkpt lat="42.683998" lon="-2.775314">
        <ele>580.171</ele>
        <time>2022-07-08T18:42:49Z</time>
      </trkpt>
      <trkpt lat="42.684049" lon="-2.775367">
        <ele>580.173</ele>
        <time>2022-07-08T18:42:50Z</time>
      </trkpt>
      <trkpt lat="42.684104" lon="-2.775419">
        <ele>579.393</ele>
        <time>2022-07-08T18:42:51Z</time>
      </trkpt>
      <trkpt lat="42.684171" lon="-2.775464">
        <ele>578.565</ele>
        <time>2022-07-08T18:42:52Z</time>
      </trkpt>
      <trkpt lat="42.684250" lon="-2.775502">
        <ele>578.221</ele>
        <time>2022-07-08T18:42:53Z</time>
      </trkpt>
      <trkpt lat="42.684320" lon="-2.775521">
        <ele>577.709</ele>
        <time>2022-07-08T18:42:54Z</time>
      </trkpt>
      <trkpt lat="42.684401" lon="-2.775541">
        <ele>577.390</ele>
        <time>2022-07-08T18:42:55Z</time>
      </trkpt>
      <trkpt lat="42.684488" lon="-2.775559">
        <ele>577.149</ele>
        <time>2022-07-08T18:42:56Z</time>
      </trkpt>
      <trkpt lat="42.684566" lon="-2.775565">
        <ele>576.996</ele>
        <time>2022-07-08T18:42:57Z</time>
      </trkpt>
      <trkpt lat="42.684654" lon="-2.775578">
        <ele>576.562</ele>
        <time>2022-07-08T18:42:58Z</time>
      </trkpt>
      <trkpt lat="42.684735" lon="-2.775593">
        <ele>575.878</ele>
        <time>2022-07-08T18:42:59Z</time>
      </trkpt>
      <trkpt lat="42.684827" lon="-2.775610">
        <ele>575.054</ele>
        <time>2022-07-08T18:43:00Z</time>
      </trkpt>
      <trkpt lat="42.684906" lon="-2.775631">
        <ele>574.054</ele>
        <time>2022-07-08T18:43:01Z</time>
      </trkpt>
      <trkpt lat="42.684987" lon="-2.775648">
        <ele>572.951</ele>
        <time>2022-07-08T18:43:02Z</time>
      </trkpt>
      <trkpt lat="42.685067" lon="-2.775660">
        <ele>571.933</ele>
        <time>2022-07-08T18:43:03Z</time>
      </trkpt>
      <trkpt lat="42.685151" lon="-2.775671">
        <ele>570.962</ele>
        <time>2022-07-08T18:43:04Z</time>
      </trkpt>
      <trkpt lat="42.685222" lon="-2.775679">
        <ele>570.083</ele>
        <time>2022-07-08T18:43:05Z</time>
      </trkpt>
      <trkpt lat="42.685296" lon="-2.775692">
        <ele>569.311</ele>
        <time>2022-07-08T18:43:06Z</time>
      </trkpt>
      <trkpt lat="42.685366" lon="-2.775682">
        <ele>568.609</ele>
        <time>2022-07-08T18:43:07Z</time>
      </trkpt>
      <trkpt lat="42.685428" lon="-2.775665">
        <ele>567.917</ele>
        <time>2022-07-08T18:43:08Z</time>
      </trkpt>
      <trkpt lat="42.685476" lon="-2.775637">
        <ele>567.626</ele>
        <time>2022-07-08T18:43:09Z</time>
      </trkpt>
      <trkpt lat="42.685526" lon="-2.775596">
        <ele>567.283</ele>
        <time>2022-07-08T18:43:10Z</time>
      </trkpt>
      <trkpt lat="42.685584" lon="-2.775556">
        <ele>566.659</ele>
        <time>2022-07-08T18:43:11Z</time>
      </trkpt>
      <trkpt lat="42.685627" lon="-2.775513">
        <ele>566.325</ele>
        <time>2022-07-08T18:43:12Z</time>
      </trkpt>
      <trkpt lat="42.685679" lon="-2.775467">
        <ele>566.361</ele>
        <time>2022-07-08T18:43:13Z</time>
      </trkpt>
      <trkpt lat="42.685731" lon="-2.775427">
        <ele>566.181</ele>
        <time>2022-07-08T18:43:14Z</time>
      </trkpt>
      <trkpt lat="42.685786" lon="-2.775397">
        <ele>565.628</ele>
        <time>2022-07-08T18:43:15Z</time>
      </trkpt>
      <trkpt lat="42.685840" lon="-2.775373">
        <ele>565.370</ele>
        <time>2022-07-08T18:43:16Z</time>
      </trkpt>
      <trkpt lat="42.685888" lon="-2.775352">
        <ele>564.912</ele>
        <time>2022-07-08T18:43:17Z</time>
      </trkpt>
      <trkpt lat="42.685933" lon="-2.775340">
        <ele>564.132</ele>
        <time>2022-07-08T18:43:18Z</time>
      </trkpt>
      <trkpt lat="42.685990" lon="-2.775340">
        <ele>563.805</ele>
        <time>2022-07-08T18:43:19Z</time>
      </trkpt>
      <trkpt lat="42.686040" lon="-2.775349">
        <ele>563.409</ele>
        <time>2022-07-08T18:43:20Z</time>
      </trkpt>
      <trkpt lat="42.686118" lon="-2.775369">
        <ele>562.832</ele>
        <time>2022-07-08T18:43:22Z</time>
      </trkpt>
      <trkpt lat="42.686169" lon="-2.775392">
        <ele>562.811</ele>
        <time>2022-07-08T18:43:23Z</time>
      </trkpt>
      <trkpt lat="42.686262" lon="-2.775413">
        <ele>562.458</ele>
        <time>2022-07-08T18:43:25Z</time>
      </trkpt>
      <trkpt lat="42.686319" lon="-2.775414">
        <ele>562.254</ele>
        <time>2022-07-08T18:43:26Z</time>
      </trkpt>
      <trkpt lat="42.686393" lon="-2.775388">
        <ele>562.220</ele>
        <time>2022-07-08T18:43:28Z</time>
      </trkpt>
      <trkpt lat="42.686400" lon="-2.775291">
        <ele>562.216</ele>
        <time>2022-07-08T18:43:30Z</time>
      </trkpt>
      <trkpt lat="42.686405" lon="-2.775179">
        <ele>562.446</ele>
        <time>2022-07-08T18:43:32Z</time>
      </trkpt>
      <trkpt lat="42.686407" lon="-2.775066">
        <ele>562.513</ele>
        <time>2022-07-08T18:43:34Z</time>
      </trkpt>
      <trkpt lat="42.686415" lon="-2.774951">
        <ele>562.785</ele>
        <time>2022-07-08T18:43:36Z</time>
      </trkpt>
      <trkpt lat="42.686431" lon="-2.774838">
        <ele>562.913</ele>
        <time>2022-07-08T18:43:38Z</time>
      </trkpt>
      <trkpt lat="42.686449" lon="-2.774724">
        <ele>563.143</ele>
        <time>2022-07-08T18:43:40Z</time>
      </trkpt>
      <trkpt lat="42.686466" lon="-2.774655">
        <ele>563.407</ele>
        <time>2022-07-08T18:43:41Z</time>
      </trkpt>
      <trkpt lat="42.686487" lon="-2.774536">
        <ele>563.609</ele>
        <time>2022-07-08T18:43:43Z</time>
      </trkpt>
      <trkpt lat="42.686497" lon="-2.774476">
        <ele>563.782</ele>
        <time>2022-07-08T18:43:44Z</time>
      </trkpt>
      <trkpt lat="42.686512" lon="-2.774414">
        <ele>563.751</ele>
        <time>2022-07-08T18:43:45Z</time>
      </trkpt>
      <trkpt lat="42.686523" lon="-2.774284">
        <ele>563.718</ele>
        <time>2022-07-08T18:43:47Z</time>
      </trkpt>
      <trkpt lat="42.686528" lon="-2.774209">
        <ele>563.794</ele>
        <time>2022-07-08T18:43:48Z</time>
      </trkpt>
      <trkpt lat="42.686555" lon="-2.774133">
        <ele>563.760</ele>
        <time>2022-07-08T18:43:50Z</time>
      </trkpt>
      <trkpt lat="42.686574" lon="-2.774031">
        <ele>563.756</ele>
        <time>2022-07-08T18:43:52Z</time>
      </trkpt>
      <trkpt lat="42.686599" lon="-2.773940">
        <ele>563.766</ele>
        <time>2022-07-08T18:43:54Z</time>
      </trkpt>
      <trkpt lat="42.686623" lon="-2.773815">
        <ele>563.953</ele>
        <time>2022-07-08T18:43:56Z</time>
      </trkpt>
      <trkpt lat="42.686634" lon="-2.773753">
        <ele>564.085</ele>
        <time>2022-07-08T18:43:57Z</time>
      </trkpt>
      <trkpt lat="42.686651" lon="-2.773650">
        <ele>564.183</ele>
        <time>2022-07-08T18:43:59Z</time>
      </trkpt>
      <trkpt lat="42.686670" lon="-2.773516">
        <ele>564.225</ele>
        <time>2022-07-08T18:44:01Z</time>
      </trkpt>
      <trkpt lat="42.686680" lon="-2.773446">
        <ele>564.217</ele>
        <time>2022-07-08T18:44:02Z</time>
      </trkpt>
      <trkpt lat="42.686695" lon="-2.773387">
        <ele>564.209</ele>
        <time>2022-07-08T18:44:03Z</time>
      </trkpt>
      <trkpt lat="42.686714" lon="-2.773285">
        <ele>564.249</ele>
        <time>2022-07-08T18:44:05Z</time>
      </trkpt>
      <trkpt lat="42.686724" lon="-2.773178">
        <ele>564.268</ele>
        <time>2022-07-08T18:44:07Z</time>
      </trkpt>
      <trkpt lat="42.686742" lon="-2.773086">
        <ele>564.375</ele>
        <time>2022-07-08T18:44:09Z</time>
      </trkpt>
      <trkpt lat="42.686763" lon="-2.772969">
        <ele>564.491</ele>
        <time>2022-07-08T18:44:11Z</time>
      </trkpt>
      <trkpt lat="42.686778" lon="-2.772908">
        <ele>564.497</ele>
        <time>2022-07-08T18:44:12Z</time>
      </trkpt>
      <trkpt lat="42.686800" lon="-2.772801">
        <ele>564.433</ele>
        <time>2022-07-08T18:44:14Z</time>
      </trkpt>
      <trkpt lat="42.686824" lon="-2.772701">
        <ele>564.553</ele>
        <time>2022-07-08T18:44:16Z</time>
      </trkpt>
      <trkpt lat="42.686841" lon="-2.772593">
        <ele>564.850</ele>
        <time>2022-07-08T18:44:18Z</time>
      </trkpt>
      <trkpt lat="42.686857" lon="-2.772474">
        <ele>565.382</ele>
        <time>2022-07-08T18:44:20Z</time>
      </trkpt>
      <trkpt lat="42.686868" lon="-2.772371">
        <ele>565.769</ele>
        <time>2022-07-08T18:44:22Z</time>
      </trkpt>
      <trkpt lat="42.686873" lon="-2.772252">
        <ele>566.004</ele>
        <time>2022-07-08T18:44:24Z</time>
      </trkpt>
      <trkpt lat="42.686877" lon="-2.772183">
        <ele>566.224</ele>
        <time>2022-07-08T18:44:25Z</time>
      </trkpt>
      <trkpt lat="42.686880" lon="-2.772116">
        <ele>566.309</ele>
        <time>2022-07-08T18:44:26Z</time>
      </trkpt>
      <trkpt lat="42.686881" lon="-2.772051">
        <ele>566.397</ele>
        <time>2022-07-08T18:44:27Z</time>
      </trkpt>
      <trkpt lat="42.686879" lon="-2.771987">
        <ele>566.546</ele>
        <time>2022-07-08T18:44:28Z</time>
      </trkpt>
      <trkpt lat="42.686876" lon="-2.771920">
        <ele>566.683</ele>
        <time>2022-07-08T18:44:29Z</time>
      </trkpt>
      <trkpt lat="42.686875" lon="-2.771858">
        <ele>566.739</ele>
        <time>2022-07-08T18:44:30Z</time>
      </trkpt>
      <trkpt lat="42.686874" lon="-2.771746">
        <ele>567.085</ele>
        <time>2022-07-08T18:44:32Z</time>
      </trkpt>
      <trkpt lat="42.686870" lon="-2.771637">
        <ele>567.231</ele>
        <time>2022-07-08T18:44:34Z</time>
      </trkpt>
      <trkpt lat="42.686861" lon="-2.771567">
        <ele>567.841</ele>
        <time>2022-07-08T18:44:35Z</time>
      </trkpt>
      <trkpt lat="42.686855" lon="-2.771499">
        <ele>568.288</ele>
        <time>2022-07-08T18:44:36Z</time>
      </trkpt>
      <trkpt lat="42.686840" lon="-2.771378">
        <ele>568.590</ele>
        <time>2022-07-08T18:44:38Z</time>
      </trkpt>
      <trkpt lat="42.686830" lon="-2.771317">
        <ele>568.685</ele>
        <time>2022-07-08T18:44:39Z</time>
      </trkpt>
      <trkpt lat="42.686815" lon="-2.771221">
        <ele>568.989</ele>
        <time>2022-07-08T18:44:41Z</time>
      </trkpt>
      <trkpt lat="42.686800" lon="-2.771106">
        <ele>569.317</ele>
        <time>2022-07-08T18:44:43Z</time>
      </trkpt>
      <trkpt lat="42.686776" lon="-2.771002">
        <ele>569.609</ele>
        <time>2022-07-08T18:44:45Z</time>
      </trkpt>
      <trkpt lat="42.686760" lon="-2.770893">
        <ele>569.829</ele>
        <time>2022-07-08T18:44:47Z</time>
      </trkpt>
      <trkpt lat="42.686743" lon="-2.770785">
        <ele>570.038</ele>
        <time>2022-07-08T18:44:49Z</time>
      </trkpt>
      <trkpt lat="42.686727" lon="-2.770667">
        <ele>570.335</ele>
        <time>2022-07-08T18:44:51Z</time>
      </trkpt>
      <trkpt lat="42.686714" lon="-2.770557">
        <ele>570.591</ele>
        <time>2022-07-08T18:44:53Z</time>
      </trkpt>
      <trkpt lat="42.686693" lon="-2.770435">
        <ele>570.797</ele>
        <time>2022-07-08T18:44:55Z</time>
      </trkpt>
      <trkpt lat="42.686692" lon="-2.770369">
        <ele>570.913</ele>
        <time>2022-07-08T18:44:56Z</time>
      </trkpt>
      <trkpt lat="42.686680" lon="-2.770260">
        <ele>571.163</ele>
        <time>2022-07-08T18:44:58Z</time>
      </trkpt>
      <trkpt lat="42.686677" lon="-2.770144">
        <ele>571.380</ele>
        <time>2022-07-08T18:45:00Z</time>
      </trkpt>
      <trkpt lat="42.686679" lon="-2.770029">
        <ele>571.692</ele>
        <time>2022-07-08T18:45:02Z</time>
      </trkpt>
      <trkpt lat="42.686672" lon="-2.769933">
        <ele>571.772</ele>
        <time>2022-07-08T18:45:04Z</time>
      </trkpt>
      <trkpt lat="42.686672" lon="-2.769854">
        <ele>571.813</ele>
        <time>2022-07-08T18:45:05Z</time>
      </trkpt>
      <trkpt lat="42.686672" lon="-2.769785">
        <ele>571.914</ele>
        <time>2022-07-08T18:45:06Z</time>
      </trkpt>
      <trkpt lat="42.686676" lon="-2.769663">
        <ele>572.009</ele>
        <time>2022-07-08T18:45:08Z</time>
      </trkpt>
      <trkpt lat="42.686681" lon="-2.769575">
        <ele>572.188</ele>
        <time>2022-07-08T18:45:10Z</time>
      </trkpt>
      <trkpt lat="42.686683" lon="-2.769461">
        <ele>572.247</ele>
        <time>2022-07-08T18:45:12Z</time>
      </trkpt>
      <trkpt lat="42.686692" lon="-2.769358">
        <ele>572.334</ele>
        <time>2022-07-08T18:45:14Z</time>
      </trkpt>
      <trkpt lat="42.686694" lon="-2.769290">
        <ele>572.340</ele>
        <time>2022-07-08T18:45:16Z</time>
      </trkpt>
      <trkpt lat="42.686705" lon="-2.769188">
        <ele>572.316</ele>
        <time>2022-07-08T18:45:18Z</time>
      </trkpt>
      <trkpt lat="42.686717" lon="-2.769100">
        <ele>572.342</ele>
        <time>2022-07-08T18:45:20Z</time>
      </trkpt>
      <trkpt lat="42.686737" lon="-2.769014">
        <ele>572.482</ele>
        <time>2022-07-08T18:45:22Z</time>
      </trkpt>
      <trkpt lat="42.686757" lon="-2.768933">
        <ele>572.799</ele>
        <time>2022-07-08T18:45:24Z</time>
      </trkpt>
      <trkpt lat="42.686773" lon="-2.768850">
        <ele>572.841</ele>
        <time>2022-07-08T18:45:26Z</time>
      </trkpt>
      <trkpt lat="42.686788" lon="-2.768761">
        <ele>573.184</ele>
        <time>2022-07-08T18:45:28Z</time>
      </trkpt>
      <trkpt lat="42.686804" lon="-2.768671">
        <ele>573.407</ele>
        <time>2022-07-08T18:45:30Z</time>
      </trkpt>
      <trkpt lat="42.686815" lon="-2.768584">
        <ele>573.717</ele>
        <time>2022-07-08T18:45:32Z</time>
      </trkpt>
      <trkpt lat="42.686828" lon="-2.768502">
        <ele>574.209</ele>
        <time>2022-07-08T18:45:34Z</time>
      </trkpt>
      <trkpt lat="42.686844" lon="-2.768421">
        <ele>574.789</ele>
        <time>2022-07-08T18:45:36Z</time>
      </trkpt>
      <trkpt lat="42.686857" lon="-2.768353">
        <ele>575.198</ele>
        <time>2022-07-08T18:45:38Z</time>
      </trkpt>
      <trkpt lat="42.686874" lon="-2.768290">
        <ele>575.575</ele>
        <time>2022-07-08T18:45:40Z</time>
      </trkpt>
      <trkpt lat="42.686894" lon="-2.768225">
        <ele>575.931</ele>
        <time>2022-07-08T18:45:42Z</time>
      </trkpt>
      <trkpt lat="42.686917" lon="-2.768151">
        <ele>576.297</ele>
        <time>2022-07-08T18:45:44Z</time>
      </trkpt>
      <trkpt lat="42.686935" lon="-2.768072">
        <ele>576.883</ele>
        <time>2022-07-08T18:45:46Z</time>
      </trkpt>
      <trkpt lat="42.686960" lon="-2.767991">
        <ele>577.333</ele>
        <time>2022-07-08T18:45:48Z</time>
      </trkpt>
      <trkpt lat="42.686990" lon="-2.767912">
        <ele>577.550</ele>
        <time>2022-07-08T18:45:50Z</time>
      </trkpt>
      <trkpt lat="42.687019" lon="-2.767834">
        <ele>577.812</ele>
        <time>2022-07-08T18:45:52Z</time>
      </trkpt>
      <trkpt lat="42.687055" lon="-2.767753">
        <ele>578.027</ele>
        <time>2022-07-08T18:45:54Z</time>
      </trkpt>
      <trkpt lat="42.687085" lon="-2.767672">
        <ele>578.168</ele>
        <time>2022-07-08T18:45:56Z</time>
      </trkpt>
      <trkpt lat="42.687115" lon="-2.767600">
        <ele>578.114</ele>
        <time>2022-07-08T18:45:58Z</time>
      </trkpt>
      <trkpt lat="42.687150" lon="-2.767526">
        <ele>578.209</ele>
        <time>2022-07-08T18:46:00Z</time>
      </trkpt>
      <trkpt lat="42.687181" lon="-2.767451">
        <ele>578.483</ele>
        <time>2022-07-08T18:46:02Z</time>
      </trkpt>
      <trkpt lat="42.687216" lon="-2.767370">
        <ele>578.812</ele>
        <time>2022-07-08T18:46:04Z</time>
      </trkpt>
      <trkpt lat="42.687252" lon="-2.767283">
        <ele>579.169</ele>
        <time>2022-07-08T18:46:06Z</time>
      </trkpt>
      <trkpt lat="42.687291" lon="-2.767195">
        <ele>579.295</ele>
        <time>2022-07-08T18:46:08Z</time>
      </trkpt>
      <trkpt lat="42.687320" lon="-2.767068">
        <ele>579.271</ele>
        <time>2022-07-08T18:46:10Z</time>
      </trkpt>
      <trkpt lat="42.687330" lon="-2.767007">
        <ele>579.267</ele>
        <time>2022-07-08T18:46:11Z</time>
      </trkpt>
      <trkpt lat="42.687326" lon="-2.766875">
        <ele>579.117</ele>
        <time>2022-07-08T18:46:13Z</time>
      </trkpt>
      <trkpt lat="42.687324" lon="-2.766809">
        <ele>578.974</ele>
        <time>2022-07-08T18:46:14Z</time>
      </trkpt>
      <trkpt lat="42.687315" lon="-2.766744">
        <ele>578.776</ele>
        <time>2022-07-08T18:46:15Z</time>
      </trkpt>
      <trkpt lat="42.687295" lon="-2.766641">
        <ele>578.345</ele>
        <time>2022-07-08T18:46:17Z</time>
      </trkpt>
      <trkpt lat="42.687267" lon="-2.766536">
        <ele>578.247</ele>
        <time>2022-07-08T18:46:19Z</time>
      </trkpt>
      <trkpt lat="42.687252" lon="-2.766452">
        <ele>578.111</ele>
        <time>2022-07-08T18:46:21Z</time>
      </trkpt>
      <trkpt lat="42.687228" lon="-2.766378">
        <ele>578.109</ele>
        <time>2022-07-08T18:46:23Z</time>
      </trkpt>
      <trkpt lat="42.687205" lon="-2.766313">
        <ele>578.265</ele>
        <time>2022-07-08T18:46:24Z</time>
      </trkpt>
      <trkpt lat="42.687180" lon="-2.766218">
        <ele>578.474</ele>
        <time>2022-07-08T18:46:26Z</time>
      </trkpt>
      <trkpt lat="42.687156" lon="-2.766137">
        <ele>578.661</ele>
        <time>2022-07-08T18:46:28Z</time>
      </trkpt>
      <trkpt lat="42.687139" lon="-2.766058">
        <ele>579.117</ele>
        <time>2022-07-08T18:46:30Z</time>
      </trkpt>
      <trkpt lat="42.687109" lon="-2.766008">
        <ele>579.523</ele>
        <time>2022-07-08T18:46:32Z</time>
      </trkpt>
      <trkpt lat="42.687046" lon="-2.766029">
        <ele>579.799</ele>
        <time>2022-07-08T18:46:34Z</time>
      </trkpt>
      <trkpt lat="42.686977" lon="-2.766095">
        <ele>579.959</ele>
        <time>2022-07-08T18:46:36Z</time>
      </trkpt>
      <trkpt lat="42.686905" lon="-2.766161">
        <ele>580.886</ele>
        <time>2022-07-08T18:46:38Z</time>
      </trkpt>
      <trkpt lat="42.686864" lon="-2.766189">
        <ele>581.178</ele>
        <time>2022-07-08T18:46:39Z</time>
      </trkpt>
      <trkpt lat="42.686808" lon="-2.766244">
        <ele>581.162</ele>
        <time>2022-07-08T18:46:40Z</time>
      </trkpt>
      <trkpt lat="42.686721" lon="-2.766276">
        <ele>581.183</ele>
        <time>2022-07-08T18:46:42Z</time>
      </trkpt>
      <trkpt lat="42.686662" lon="-2.766308">
        <ele>581.111</ele>
        <time>2022-07-08T18:46:43Z</time>
      </trkpt>
      <trkpt lat="42.686585" lon="-2.766345">
        <ele>580.909</ele>
        <time>2022-07-08T18:46:45Z</time>
      </trkpt>
      <trkpt lat="42.686514" lon="-2.766325">
        <ele>580.827</ele>
        <time>2022-07-08T18:46:48Z</time>
      </trkpt>
      <trkpt lat="42.686454" lon="-2.766295">
        <ele>580.816</ele>
        <time>2022-07-08T18:46:50Z</time>
      </trkpt>
      <trkpt lat="42.686408" lon="-2.766208">
        <ele>580.853</ele>
        <time>2022-07-08T18:46:52Z</time>
      </trkpt>
      <trkpt lat="42.686394" lon="-2.766099">
        <ele>580.919</ele>
        <time>2022-07-08T18:46:54Z</time>
      </trkpt>
      <trkpt lat="42.686406" lon="-2.765990">
        <ele>581.065</ele>
        <time>2022-07-08T18:46:56Z</time>
      </trkpt>
      <trkpt lat="42.686434" lon="-2.765889">
        <ele>581.251</ele>
        <time>2022-07-08T18:46:58Z</time>
      </trkpt>
      <trkpt lat="42.686453" lon="-2.765821">
        <ele>581.241</ele>
        <time>2022-07-08T18:46:59Z</time>
      </trkpt>
      <trkpt lat="42.686468" lon="-2.765752">
        <ele>581.158</ele>
        <time>2022-07-08T18:47:00Z</time>
      </trkpt>
      <trkpt lat="42.686485" lon="-2.765688">
        <ele>581.170</ele>
        <time>2022-07-08T18:47:01Z</time>
      </trkpt>
      <trkpt lat="42.686513" lon="-2.765580">
        <ele>581.042</ele>
        <time>2022-07-08T18:47:03Z</time>
      </trkpt>
      <trkpt lat="42.686495" lon="-2.765483">
        <ele>580.322</ele>
        <time>2022-07-08T18:47:05Z</time>
      </trkpt>
      <trkpt lat="42.686435" lon="-2.765396">
        <ele>578.814</ele>
        <time>2022-07-08T18:47:07Z</time>
      </trkpt>
      <trkpt lat="42.686405" lon="-2.765346">
        <ele>577.809</ele>
        <time>2022-07-08T18:47:08Z</time>
      </trkpt>
      <trkpt lat="42.686365" lon="-2.765310">
        <ele>577.475</ele>
        <time>2022-07-08T18:47:09Z</time>
      </trkpt>
      <trkpt lat="42.686296" lon="-2.765221">
        <ele>576.474</ele>
        <time>2022-07-08T18:47:11Z</time>
      </trkpt>
      <trkpt lat="42.686297" lon="-2.765152">
        <ele>576.271</ele>
        <time>2022-07-08T18:47:12Z</time>
      </trkpt>
      <trkpt lat="42.686249" lon="-2.765117">
        <ele>575.677</ele>
        <time>2022-07-08T18:47:14Z</time>
      </trkpt>
      <trkpt lat="42.686210" lon="-2.765062">
        <ele>575.643</ele>
        <time>2022-07-08T18:47:16Z</time>
      </trkpt>
      <trkpt lat="42.686139" lon="-2.765020">
        <ele>575.419</ele>
        <time>2022-07-08T18:47:18Z</time>
      </trkpt>
      <trkpt lat="42.686102" lon="-2.764970">
        <ele>575.469</ele>
        <time>2022-07-08T18:47:20Z</time>
      </trkpt>
      <trkpt lat="42.686109" lon="-2.765033">
        <ele>575.016</ele>
        <time>2022-07-08T18:48:22Z</time>
      </trkpt>
      <trkpt lat="42.686117" lon="-2.764970">
        <ele>575.078</ele>
        <time>2022-07-08T18:49:14Z</time>
      </trkpt>
      <trkpt lat="42.686074" lon="-2.764928">
        <ele>573.812</ele>
        <time>2022-07-08T18:49:45Z</time>
      </trkpt>
      <trkpt lat="42.686070" lon="-2.764855">
        <ele>573.832</ele>
        <time>2022-07-08T18:51:49Z</time>
      </trkpt>
      <trkpt lat="42.686082" lon="-2.764795">
        <ele>573.505</ele>
        <time>2022-07-08T18:51:52Z</time>
      </trkpt>
      <trkpt lat="42.686077" lon="-2.764728">
        <ele>573.309</ele>
        <time>2022-07-08T18:51:55Z</time>
      </trkpt>
      <trkpt lat="42.686064" lon="-2.764655">
        <ele>573.342</ele>
        <time>2022-07-08T18:51:58Z</time>
      </trkpt>
      <trkpt lat="42.686051" lon="-2.764583">
        <ele>573.381</ele>
        <time>2022-07-08T18:52:01Z</time>
      </trkpt>
      <trkpt lat="42.686039" lon="-2.764516">
        <ele>573.558</ele>
        <time>2022-07-08T18:52:04Z</time>
      </trkpt>
      <trkpt lat="42.686029" lon="-2.764444">
        <ele>574.064</ele>
        <time>2022-07-08T18:52:07Z</time>
      </trkpt>
      <trkpt lat="42.686021" lon="-2.764370">
        <ele>574.920</ele>
        <time>2022-07-08T18:52:10Z</time>
      </trkpt>
      <trkpt lat="42.686011" lon="-2.764294">
        <ele>575.746</ele>
        <time>2022-07-08T18:52:13Z</time>
      </trkpt>
      <trkpt lat="42.686004" lon="-2.764212">
        <ele>576.496</ele>
        <time>2022-07-08T18:52:16Z</time>
      </trkpt>
      <trkpt lat="42.686001" lon="-2.764129">
        <ele>577.123</ele>
        <time>2022-07-08T18:52:19Z</time>
      </trkpt>
      <trkpt lat="42.685996" lon="-2.764044">
        <ele>577.695</ele>
        <time>2022-07-08T18:52:22Z</time>
      </trkpt>
      <trkpt lat="42.685996" lon="-2.763957">
        <ele>577.979</ele>
        <time>2022-07-08T18:52:25Z</time>
      </trkpt>
      <trkpt lat="42.685993" lon="-2.763878">
        <ele>578.005</ele>
        <time>2022-07-08T18:52:28Z</time>
      </trkpt>
      <trkpt lat="42.685987" lon="-2.763816">
        <ele>578.325</ele>
        <time>2022-07-08T18:52:31Z</time>
      </trkpt>
      <trkpt lat="42.685978" lon="-2.763733">
        <ele>578.609</ele>
        <time>2022-07-08T18:52:34Z</time>
      </trkpt>
      <trkpt lat="42.685969" lon="-2.763649">
        <ele>578.978</ele>
        <time>2022-07-08T18:52:37Z</time>
      </trkpt>
      <trkpt lat="42.685964" lon="-2.763569">
        <ele>579.587</ele>
        <time>2022-07-08T18:52:40Z</time>
      </trkpt>
      <trkpt lat="42.685963" lon="-2.763487">
        <ele>580.174</ele>
        <time>2022-07-08T18:52:43Z</time>
      </trkpt>
      <trkpt lat="42.685968" lon="-2.763407">
        <ele>580.650</ele>
        <time>2022-07-08T18:52:46Z</time>
      </trkpt>
      <trkpt lat="42.685974" lon="-2.763329">
        <ele>580.876</ele>
        <time>2022-07-08T18:52:49Z</time>
      </trkpt>
      <trkpt lat="42.685973" lon="-2.763254">
        <ele>581.412</ele>
        <time>2022-07-08T18:52:52Z</time>
      </trkpt>
      <trkpt lat="42.685977" lon="-2.763174">
        <ele>581.952</ele>
        <time>2022-07-08T18:52:55Z</time>
      </trkpt>
      <trkpt lat="42.685978" lon="-2.763086">
        <ele>582.389</ele>
        <time>2022-07-08T18:52:58Z</time>
      </trkpt>
      <trkpt lat="42.685979" lon="-2.762997">
        <ele>582.941</ele>
        <time>2022-07-08T18:53:01Z</time>
      </trkpt>
      <trkpt lat="42.685982" lon="-2.762907">
        <ele>583.075</ele>
        <time>2022-07-08T18:53:04Z</time>
      </trkpt>
      <trkpt lat="42.685983" lon="-2.762819">
        <ele>583.428</ele>
        <time>2022-07-08T18:53:07Z</time>
      </trkpt>
      <trkpt lat="42.685988" lon="-2.762729">
        <ele>583.720</ele>
        <time>2022-07-08T18:53:10Z</time>
      </trkpt>
      <trkpt lat="42.685997" lon="-2.762643">
        <ele>583.809</ele>
        <time>2022-07-08T18:53:13Z</time>
      </trkpt>
      <trkpt lat="42.686007" lon="-2.762560">
        <ele>584.278</ele>
        <time>2022-07-08T18:53:16Z</time>
      </trkpt>
      <trkpt lat="42.686008" lon="-2.762499">
        <ele>584.577</ele>
        <time>2022-07-08T18:53:18Z</time>
      </trkpt>
      <trkpt lat="42.686011" lon="-2.762406">
        <ele>584.834</ele>
        <time>2022-07-08T18:53:21Z</time>
      </trkpt>
      <trkpt lat="42.686010" lon="-2.762340">
        <ele>584.910</ele>
        <time>2022-07-08T18:53:23Z</time>
      </trkpt>
      <trkpt lat="42.686007" lon="-2.762276">
        <ele>584.916</ele>
        <time>2022-07-08T18:53:25Z</time>
      </trkpt>
      <trkpt lat="42.686000" lon="-2.762187">
        <ele>584.932</ele>
        <time>2022-07-08T18:53:28Z</time>
      </trkpt>
      <trkpt lat="42.685999" lon="-2.762116">
        <ele>584.952</ele>
        <time>2022-07-08T18:53:30Z</time>
      </trkpt>
      <trkpt lat="42.685994" lon="-2.762034">
        <ele>585.179</ele>
        <time>2022-07-08T18:53:33Z</time>
      </trkpt>
      <trkpt lat="42.685997" lon="-2.761969">
        <ele>585.621</ele>
        <time>2022-07-08T18:53:37Z</time>
      </trkpt>
      <trkpt lat="42.685998" lon="-2.761898">
        <ele>586.584</ele>
        <time>2022-07-08T18:53:41Z</time>
      </trkpt>
      <trkpt lat="42.685978" lon="-2.761839">
        <ele>587.007</ele>
        <time>2022-07-08T18:53:44Z</time>
      </trkpt>
      <trkpt lat="42.685953" lon="-2.761776">
        <ele>588.017</ele>
        <time>2022-07-08T18:53:47Z</time>
      </trkpt>
      <trkpt lat="42.685924" lon="-2.761720">
        <ele>588.809</ele>
        <time>2022-07-08T18:53:50Z</time>
      </trkpt>
      <trkpt lat="42.685892" lon="-2.761659">
        <ele>589.499</ele>
        <time>2022-07-08T18:53:53Z</time>
      </trkpt>
      <trkpt lat="42.685864" lon="-2.761590">
        <ele>590.078</ele>
        <time>2022-07-08T18:53:56Z</time>
      </trkpt>
      <trkpt lat="42.685841" lon="-2.761521">
        <ele>590.955</ele>
        <time>2022-07-08T18:53:59Z</time>
      </trkpt>
      <trkpt lat="42.685821" lon="-2.761452">
        <ele>591.411</ele>
        <time>2022-07-08T18:54:02Z</time>
      </trkpt>
      <trkpt lat="42.685808" lon="-2.761377">
        <ele>591.887</ele>
        <time>2022-07-08T18:54:05Z</time>
      </trkpt>
      <trkpt lat="42.685799" lon="-2.761317">
        <ele>592.023</ele>
        <time>2022-07-08T18:54:07Z</time>
      </trkpt>
      <trkpt lat="42.685787" lon="-2.761230">
        <ele>592.183</ele>
        <time>2022-07-08T18:54:10Z</time>
      </trkpt>
      <trkpt lat="42.685777" lon="-2.761169">
        <ele>592.220</ele>
        <time>2022-07-08T18:54:13Z</time>
      </trkpt>
      <trkpt lat="42.685772" lon="-2.761099">
        <ele>592.312</ele>
        <time>2022-07-08T18:54:15Z</time>
      </trkpt>
      <trkpt lat="42.685772" lon="-2.761028">
        <ele>592.532</ele>
        <time>2022-07-08T18:54:17Z</time>
      </trkpt>
      <trkpt lat="42.685767" lon="-2.760953">
        <ele>592.792</ele>
        <time>2022-07-08T18:54:20Z</time>
      </trkpt>
      <trkpt lat="42.685765" lon="-2.760872">
        <ele>592.911</ele>
        <time>2022-07-08T18:54:23Z</time>
      </trkpt>
      <trkpt lat="42.685777" lon="-2.760802">
        <ele>593.709</ele>
        <time>2022-07-08T18:54:26Z</time>
      </trkpt>
      <trkpt lat="42.685791" lon="-2.760730">
        <ele>594.574</ele>
        <time>2022-07-08T18:54:29Z</time>
      </trkpt>
      <trkpt lat="42.685808" lon="-2.760651">
        <ele>595.193</ele>
        <time>2022-07-08T18:54:32Z</time>
      </trkpt>
      <trkpt lat="42.685817" lon="-2.760576">
        <ele>596.090</ele>
        <time>2022-07-08T18:54:35Z</time>
      </trkpt>
      <trkpt lat="42.685831" lon="-2.760505">
        <ele>596.716</ele>
        <time>2022-07-08T18:54:38Z</time>
      </trkpt>
      <trkpt lat="42.685831" lon="-2.760431">
        <ele>597.782</ele>
        <time>2022-07-08T18:54:41Z</time>
      </trkpt>
      <trkpt lat="42.685832" lon="-2.760349">
        <ele>598.758</ele>
        <time>2022-07-08T18:54:44Z</time>
      </trkpt>
      <trkpt lat="42.685830" lon="-2.760269">
        <ele>599.438</ele>
        <time>2022-07-08T18:54:47Z</time>
      </trkpt>
      <trkpt lat="42.685824" lon="-2.760184">
        <ele>600.145</ele>
        <time>2022-07-08T18:54:50Z</time>
      </trkpt>
      <trkpt lat="42.685810" lon="-2.760098">
        <ele>600.537</ele>
        <time>2022-07-08T18:54:53Z</time>
      </trkpt>
      <trkpt lat="42.685794" lon="-2.760018">
        <ele>600.791</ele>
        <time>2022-07-08T18:54:56Z</time>
      </trkpt>
      <trkpt lat="42.685772" lon="-2.759944">
        <ele>600.981</ele>
        <time>2022-07-08T18:54:59Z</time>
      </trkpt>
      <trkpt lat="42.685752" lon="-2.759887">
        <ele>601.019</ele>
        <time>2022-07-08T18:55:01Z</time>
      </trkpt>
      <trkpt lat="42.685733" lon="-2.759829">
        <ele>601.109</ele>
        <time>2022-07-08T18:55:03Z</time>
      </trkpt>
      <trkpt lat="42.685708" lon="-2.759747">
        <ele>601.260</ele>
        <time>2022-07-08T18:55:06Z</time>
      </trkpt>
      <trkpt lat="42.685681" lon="-2.759689">
        <ele>601.289</ele>
        <time>2022-07-08T18:55:08Z</time>
      </trkpt>
      <trkpt lat="42.685654" lon="-2.759640">
        <ele>601.386</ele>
        <time>2022-07-08T18:55:10Z</time>
      </trkpt>
      <trkpt lat="42.685612" lon="-2.759569">
        <ele>601.532</ele>
        <time>2022-07-08T18:55:13Z</time>
      </trkpt>
      <trkpt lat="42.685587" lon="-2.759513">
        <ele>601.698</ele>
        <time>2022-07-08T18:55:15Z</time>
      </trkpt>
      <trkpt lat="42.685567" lon="-2.759454">
        <ele>601.854</ele>
        <time>2022-07-08T18:55:17Z</time>
      </trkpt>
      <trkpt lat="42.685548" lon="-2.759387">
        <ele>602.024</ele>
        <time>2022-07-08T18:55:19Z</time>
      </trkpt>
      <trkpt lat="42.685535" lon="-2.759327">
        <ele>602.221</ele>
        <time>2022-07-08T18:55:21Z</time>
      </trkpt>
      <trkpt lat="42.685523" lon="-2.759261">
        <ele>602.473</ele>
        <time>2022-07-08T18:55:23Z</time>
      </trkpt>
      <trkpt lat="42.685505" lon="-2.759183">
        <ele>602.659</ele>
        <time>2022-07-08T18:55:26Z</time>
      </trkpt>
      <trkpt lat="42.685491" lon="-2.759117">
        <ele>602.803</ele>
        <time>2022-07-08T18:55:28Z</time>
      </trkpt>
      <trkpt lat="42.685477" lon="-2.759049">
        <ele>603.023</ele>
        <time>2022-07-08T18:55:30Z</time>
      </trkpt>
      <trkpt lat="42.685467" lon="-2.758981">
        <ele>603.209</ele>
        <time>2022-07-08T18:55:32Z</time>
      </trkpt>
      <trkpt lat="42.685461" lon="-2.758909">
        <ele>603.416</ele>
        <time>2022-07-08T18:55:34Z</time>
      </trkpt>
      <trkpt lat="42.685448" lon="-2.758848">
        <ele>603.755</ele>
        <time>2022-07-08T18:55:36Z</time>
      </trkpt>
      <trkpt lat="42.685431" lon="-2.758786">
        <ele>604.072</ele>
        <time>2022-07-08T18:55:38Z</time>
      </trkpt>
      <trkpt lat="42.685415" lon="-2.758727">
        <ele>604.438</ele>
        <time>2022-07-08T18:55:40Z</time>
      </trkpt>
      <trkpt lat="42.685397" lon="-2.758663">
        <ele>604.864</ele>
        <time>2022-07-08T18:55:42Z</time>
      </trkpt>
      <trkpt lat="42.685379" lon="-2.758607">
        <ele>605.150</ele>
        <time>2022-07-08T18:55:44Z</time>
      </trkpt>
      <trkpt lat="42.685355" lon="-2.758525">
        <ele>605.530</ele>
        <time>2022-07-08T18:55:47Z</time>
      </trkpt>
      <trkpt lat="42.685332" lon="-2.758443">
        <ele>606.267</ele>
        <time>2022-07-08T18:55:50Z</time>
      </trkpt>
      <trkpt lat="42.685316" lon="-2.758355">
        <ele>606.879</ele>
        <time>2022-07-08T18:55:53Z</time>
      </trkpt>
      <trkpt lat="42.685300" lon="-2.758274">
        <ele>607.896</ele>
        <time>2022-07-08T18:55:56Z</time>
      </trkpt>
      <trkpt lat="42.685283" lon="-2.758187">
        <ele>608.631</ele>
        <time>2022-07-08T18:55:59Z</time>
      </trkpt>
      <trkpt lat="42.685268" lon="-2.758109">
        <ele>609.324</ele>
        <time>2022-07-08T18:56:02Z</time>
      </trkpt>
      <trkpt lat="42.685246" lon="-2.758029">
        <ele>610.109</ele>
        <time>2022-07-08T18:56:05Z</time>
      </trkpt>
      <trkpt lat="42.685221" lon="-2.757950">
        <ele>611.020</ele>
        <time>2022-07-08T18:56:08Z</time>
      </trkpt>
      <trkpt lat="42.685192" lon="-2.757875">
        <ele>611.829</ele>
        <time>2022-07-08T18:56:11Z</time>
      </trkpt>
      <trkpt lat="42.685158" lon="-2.757796">
        <ele>612.356</ele>
        <time>2022-07-08T18:56:14Z</time>
      </trkpt>
      <trkpt lat="42.685138" lon="-2.757738">
        <ele>613.032</ele>
        <time>2022-07-08T18:56:16Z</time>
      </trkpt>
      <trkpt lat="42.685120" lon="-2.757678">
        <ele>613.458</ele>
        <time>2022-07-08T18:56:18Z</time>
      </trkpt>
      <trkpt lat="42.685089" lon="-2.757601">
        <ele>613.514</ele>
        <time>2022-07-08T18:56:21Z</time>
      </trkpt>
      <trkpt lat="42.685059" lon="-2.757526">
        <ele>613.744</ele>
        <time>2022-07-08T18:56:24Z</time>
      </trkpt>
      <trkpt lat="42.685029" lon="-2.757458">
        <ele>614.141</ele>
        <time>2022-07-08T18:56:27Z</time>
      </trkpt>
      <trkpt lat="42.684994" lon="-2.757379">
        <ele>615.183</ele>
        <time>2022-07-08T18:56:30Z</time>
      </trkpt>
      <trkpt lat="42.684961" lon="-2.757313">
        <ele>616.216</ele>
        <time>2022-07-08T18:56:33Z</time>
      </trkpt>
      <trkpt lat="42.684929" lon="-2.757243">
        <ele>616.676</ele>
        <time>2022-07-08T18:56:36Z</time>
      </trkpt>
      <trkpt lat="42.684899" lon="-2.757176">
        <ele>617.213</ele>
        <time>2022-07-08T18:56:39Z</time>
      </trkpt>
      <trkpt lat="42.684872" lon="-2.757107">
        <ele>617.909</ele>
        <time>2022-07-08T18:56:42Z</time>
      </trkpt>
      <trkpt lat="42.684841" lon="-2.757035">
        <ele>618.612</ele>
        <time>2022-07-08T18:56:45Z</time>
      </trkpt>
      <trkpt lat="42.684809" lon="-2.756961">
        <ele>619.281</ele>
        <time>2022-07-08T18:56:48Z</time>
      </trkpt>
      <trkpt lat="42.684777" lon="-2.756903">
        <ele>619.538</ele>
        <time>2022-07-08T18:56:51Z</time>
      </trkpt>
      <trkpt lat="42.684750" lon="-2.756854">
        <ele>619.774</ele>
        <time>2022-07-08T18:56:54Z</time>
      </trkpt>
      <trkpt lat="42.684697" lon="-2.756786">
        <ele>620.240</ele>
        <time>2022-07-08T18:56:57Z</time>
      </trkpt>
      <trkpt lat="42.684631" lon="-2.756731">
        <ele>620.526</ele>
        <time>2022-07-08T18:56:59Z</time>
      </trkpt>
      <trkpt lat="42.684552" lon="-2.756675">
        <ele>620.626</ele>
        <time>2022-07-08T18:57:01Z</time>
      </trkpt>
      <trkpt lat="42.684509" lon="-2.756648">
        <ele>620.673</ele>
        <time>2022-07-08T18:57:02Z</time>
      </trkpt>
      <trkpt lat="42.684465" lon="-2.756621">
        <ele>620.575</ele>
        <time>2022-07-08T18:57:03Z</time>
      </trkpt>
      <trkpt lat="42.684420" lon="-2.756591">
        <ele>620.331</ele>
        <time>2022-07-08T18:57:04Z</time>
      </trkpt>
      <trkpt lat="42.684374" lon="-2.756559">
        <ele>620.161</ele>
        <time>2022-07-08T18:57:05Z</time>
      </trkpt>
      <trkpt lat="42.684328" lon="-2.756526">
        <ele>619.907</ele>
        <time>2022-07-08T18:57:06Z</time>
      </trkpt>
      <trkpt lat="42.684284" lon="-2.756491">
        <ele>619.609</ele>
        <time>2022-07-08T18:57:07Z</time>
      </trkpt>
      <trkpt lat="42.684241" lon="-2.756454">
        <ele>619.324</ele>
        <time>2022-07-08T18:57:08Z</time>
      </trkpt>
      <trkpt lat="42.684200" lon="-2.756416">
        <ele>618.963</ele>
        <time>2022-07-08T18:57:09Z</time>
      </trkpt>
      <trkpt lat="42.684160" lon="-2.756379">
        <ele>618.640</ele>
        <time>2022-07-08T18:57:10Z</time>
      </trkpt>
      <trkpt lat="42.684123" lon="-2.756340">
        <ele>618.466</ele>
        <time>2022-07-08T18:57:11Z</time>
      </trkpt>
      <trkpt lat="42.684089" lon="-2.756298">
        <ele>618.332</ele>
        <time>2022-07-08T18:57:12Z</time>
      </trkpt>
      <trkpt lat="42.684031" lon="-2.756207">
        <ele>618.218</ele>
        <time>2022-07-08T18:57:14Z</time>
      </trkpt>
      <trkpt lat="42.683996" lon="-2.756107">
        <ele>618.218</ele>
        <time>2022-07-08T18:57:16Z</time>
      </trkpt>
      <trkpt lat="42.683997" lon="-2.756009">
        <ele>618.245</ele>
        <time>2022-07-08T18:57:18Z</time>
      </trkpt>
      <trkpt lat="42.684027" lon="-2.755930">
        <ele>618.137</ele>
        <time>2022-07-08T18:57:20Z</time>
      </trkpt>
      <trkpt lat="42.684060" lon="-2.755864">
        <ele>618.173</ele>
        <time>2022-07-08T18:57:22Z</time>
      </trkpt>
      <trkpt lat="42.684091" lon="-2.755805">
        <ele>618.185</ele>
        <time>2022-07-08T18:57:24Z</time>
      </trkpt>
      <trkpt lat="42.684119" lon="-2.755744">
        <ele>618.113</ele>
        <time>2022-07-08T18:57:26Z</time>
      </trkpt>
      <trkpt lat="42.684146" lon="-2.755663">
        <ele>618.209</ele>
        <time>2022-07-08T18:57:29Z</time>
      </trkpt>
      <trkpt lat="42.684155" lon="-2.755603">
        <ele>618.378</ele>
        <time>2022-07-08T18:57:31Z</time>
      </trkpt>
      <trkpt lat="42.684158" lon="-2.755521">
        <ele>618.677</ele>
        <time>2022-07-08T18:57:34Z</time>
      </trkpt>
      <trkpt lat="42.684154" lon="-2.755435">
        <ele>618.954</ele>
        <time>2022-07-08T18:57:37Z</time>
      </trkpt>
      <trkpt lat="42.684136" lon="-2.755361">
        <ele>619.550</ele>
        <time>2022-07-08T18:57:40Z</time>
      </trkpt>
      <trkpt lat="42.684112" lon="-2.755287">
        <ele>620.336</ele>
        <time>2022-07-08T18:57:43Z</time>
      </trkpt>
      <trkpt lat="42.684083" lon="-2.755230">
        <ele>620.992</ele>
        <time>2022-07-08T18:57:46Z</time>
      </trkpt>
      <trkpt lat="42.684061" lon="-2.755162">
        <ele>621.332</ele>
        <time>2022-07-08T18:57:49Z</time>
      </trkpt>
      <trkpt lat="42.684032" lon="-2.755087">
        <ele>622.389</ele>
        <time>2022-07-08T18:57:52Z</time>
      </trkpt>
      <trkpt lat="42.684002" lon="-2.755001">
        <ele>623.481</ele>
        <time>2022-07-08T18:57:55Z</time>
      </trkpt>
      <trkpt lat="42.683986" lon="-2.754928">
        <ele>624.422</ele>
        <time>2022-07-08T18:57:57Z</time>
      </trkpt>
      <trkpt lat="42.683968" lon="-2.754868">
        <ele>625.362</ele>
        <time>2022-07-08T18:57:59Z</time>
      </trkpt>
      <trkpt lat="42.683934" lon="-2.754802">
        <ele>625.808</ele>
        <time>2022-07-08T18:58:02Z</time>
      </trkpt>
      <trkpt lat="42.683902" lon="-2.754744">
        <ele>626.309</ele>
        <time>2022-07-08T18:58:05Z</time>
      </trkpt>
      <trkpt lat="42.683876" lon="-2.754688">
        <ele>626.663</ele>
        <time>2022-07-08T18:58:08Z</time>
      </trkpt>
      <trkpt lat="42.683841" lon="-2.754617">
        <ele>627.332</ele>
        <time>2022-07-08T18:58:11Z</time>
      </trkpt>
      <trkpt lat="42.683816" lon="-2.754562">
        <ele>627.729</ele>
        <time>2022-07-08T18:58:14Z</time>
      </trkpt>
      <trkpt lat="42.683781" lon="-2.754502">
        <ele>628.115</ele>
        <time>2022-07-08T18:58:17Z</time>
      </trkpt>
      <trkpt lat="42.683733" lon="-2.754447">
        <ele>629.331</ele>
        <time>2022-07-08T18:58:20Z</time>
      </trkpt>
      <trkpt lat="42.683682" lon="-2.754411">
        <ele>630.297</ele>
        <time>2022-07-08T18:58:23Z</time>
      </trkpt>
      <trkpt lat="42.683641" lon="-2.754358">
        <ele>630.887</ele>
        <time>2022-07-08T18:58:26Z</time>
      </trkpt>
      <trkpt lat="42.683599" lon="-2.754308">
        <ele>631.324</ele>
        <time>2022-07-08T18:58:29Z</time>
      </trkpt>
      <trkpt lat="42.683555" lon="-2.754278">
        <ele>631.836</ele>
        <time>2022-07-08T18:58:32Z</time>
      </trkpt>
      <trkpt lat="42.683507" lon="-2.754279">
        <ele>632.216</ele>
        <time>2022-07-08T18:58:35Z</time>
      </trkpt>
      <trkpt lat="42.683459" lon="-2.754273">
        <ele>632.876</ele>
        <time>2022-07-08T18:58:38Z</time>
      </trkpt>
      <trkpt lat="42.683399" lon="-2.754259">
        <ele>633.013</ele>
        <time>2022-07-08T18:58:41Z</time>
      </trkpt>
      <trkpt lat="42.683350" lon="-2.754250">
        <ele>633.309</ele>
        <time>2022-07-08T18:58:44Z</time>
      </trkpt>
      <trkpt lat="42.683298" lon="-2.754217">
        <ele>633.642</ele>
        <time>2022-07-08T18:58:47Z</time>
      </trkpt>
      <trkpt lat="42.683245" lon="-2.754156">
        <ele>634.081</ele>
        <time>2022-07-08T18:58:50Z</time>
      </trkpt>
      <trkpt lat="42.683221" lon="-2.754090">
        <ele>634.248</ele>
        <time>2022-07-08T18:58:52Z</time>
      </trkpt>
      <trkpt lat="42.683200" lon="-2.754022">
        <ele>634.274</ele>
        <time>2022-07-08T18:58:54Z</time>
      </trkpt>
      <trkpt lat="42.683189" lon="-2.753939">
        <ele>634.270</ele>
        <time>2022-07-08T18:58:56Z</time>
      </trkpt>
      <trkpt lat="42.683176" lon="-2.753859">
        <ele>634.256</ele>
        <time>2022-07-08T18:58:58Z</time>
      </trkpt>
      <trkpt lat="42.683152" lon="-2.753771">
        <ele>634.276</ele>
        <time>2022-07-08T18:59:00Z</time>
      </trkpt>
      <trkpt lat="42.683137" lon="-2.753672">
        <ele>634.263</ele>
        <time>2022-07-08T18:59:02Z</time>
      </trkpt>
      <trkpt lat="42.683125" lon="-2.753582">
        <ele>634.325</ele>
        <time>2022-07-08T18:59:04Z</time>
      </trkpt>
      <trkpt lat="42.683116" lon="-2.753489">
        <ele>634.385</ele>
        <time>2022-07-08T18:59:06Z</time>
      </trkpt>
      <trkpt lat="42.683102" lon="-2.753410">
        <ele>634.489</ele>
        <time>2022-07-08T18:59:08Z</time>
      </trkpt>
      <trkpt lat="42.683088" lon="-2.753334">
        <ele>634.417</ele>
        <time>2022-07-08T18:59:10Z</time>
      </trkpt>
      <trkpt lat="42.683071" lon="-2.753257">
        <ele>634.509</ele>
        <time>2022-07-08T18:59:13Z</time>
      </trkpt>
      <trkpt lat="42.683052" lon="-2.753187">
        <ele>634.539</ele>
        <time>2022-07-08T18:59:16Z</time>
      </trkpt>
      <trkpt lat="42.683033" lon="-2.753098">
        <ele>634.648</ele>
        <time>2022-07-08T18:59:19Z</time>
      </trkpt>
      <trkpt lat="42.683019" lon="-2.753014">
        <ele>635.035</ele>
        <time>2022-07-08T18:59:22Z</time>
      </trkpt>
      <trkpt lat="42.683004" lon="-2.752929">
        <ele>635.491</ele>
        <time>2022-07-08T18:59:25Z</time>
      </trkpt>
      <trkpt lat="42.682991" lon="-2.752867">
        <ele>635.777</ele>
        <time>2022-07-08T18:59:27Z</time>
      </trkpt>
      <trkpt lat="42.682959" lon="-2.752782">
        <ele>636.053</ele>
        <time>2022-07-08T18:59:30Z</time>
      </trkpt>
      <trkpt lat="42.682935" lon="-2.752727">
        <ele>636.293</ele>
        <time>2022-07-08T18:59:32Z</time>
      </trkpt>
      <trkpt lat="42.682916" lon="-2.752650">
        <ele>636.340</ele>
        <time>2022-07-08T18:59:34Z</time>
      </trkpt>
      <trkpt lat="42.682909" lon="-2.752579">
        <ele>636.322</ele>
        <time>2022-07-08T18:59:36Z</time>
      </trkpt>
      <trkpt lat="42.682953" lon="-2.752517">
        <ele>636.419</ele>
        <time>2022-07-08T18:59:39Z</time>
      </trkpt>
      <trkpt lat="42.683021" lon="-2.752492">
        <ele>636.609</ele>
        <time>2022-07-08T18:59:41Z</time>
      </trkpt>
      <trkpt lat="42.683130" lon="-2.752535">
        <ele>636.719</ele>
        <time>2022-07-08T18:59:43Z</time>
      </trkpt>
      <trkpt lat="42.683188" lon="-2.752528">
        <ele>636.609</ele>
        <time>2022-07-08T18:59:44Z</time>
      </trkpt>
      <trkpt lat="42.683241" lon="-2.752510">
        <ele>636.282</ele>
        <time>2022-07-08T18:59:45Z</time>
      </trkpt>
      <trkpt lat="42.683283" lon="-2.752483">
        <ele>635.911</ele>
        <time>2022-07-08T18:59:46Z</time>
      </trkpt>
      <trkpt lat="42.683332" lon="-2.752470">
        <ele>635.898</ele>
        <time>2022-07-08T18:59:47Z</time>
      </trkpt>
      <trkpt lat="42.683374" lon="-2.752449">
        <ele>635.654</ele>
        <time>2022-07-08T18:59:48Z</time>
      </trkpt>
      <trkpt lat="42.683439" lon="-2.752422">
        <ele>635.280</ele>
        <time>2022-07-08T18:59:50Z</time>
      </trkpt>
      <trkpt lat="42.683525" lon="-2.752408">
        <ele>635.046</ele>
        <time>2022-07-08T18:59:52Z</time>
      </trkpt>
      <trkpt lat="42.683605" lon="-2.752413">
        <ele>634.026</ele>
        <time>2022-07-08T18:59:54Z</time>
      </trkpt>
      <trkpt lat="42.683650" lon="-2.752425">
        <ele>633.413</ele>
        <time>2022-07-08T18:59:55Z</time>
      </trkpt>
      <trkpt lat="42.683701" lon="-2.752439">
        <ele>633.295</ele>
        <time>2022-07-08T18:59:56Z</time>
      </trkpt>
      <trkpt lat="42.683751" lon="-2.752458">
        <ele>632.984</ele>
        <time>2022-07-08T18:59:57Z</time>
      </trkpt>
      <trkpt lat="42.683805" lon="-2.752469">
        <ele>632.607</ele>
        <time>2022-07-08T18:59:58Z</time>
      </trkpt>
      <trkpt lat="42.683857" lon="-2.752481">
        <ele>632.317</ele>
        <time>2022-07-08T18:59:59Z</time>
      </trkpt>
      <trkpt lat="42.683905" lon="-2.752482">
        <ele>631.909</ele>
        <time>2022-07-08T19:00:00Z</time>
      </trkpt>
      <trkpt lat="42.683980" lon="-2.752477">
        <ele>631.499</ele>
        <time>2022-07-08T19:00:02Z</time>
      </trkpt>
      <trkpt lat="42.684034" lon="-2.752483">
        <ele>631.298</ele>
        <time>2022-07-08T19:00:05Z</time>
      </trkpt>
      <trkpt lat="42.684035" lon="-2.752548">
        <ele>630.595</ele>
        <time>2022-07-08T19:01:14Z</time>
      </trkpt>
      <trkpt lat="42.684051" lon="-2.752611">
        <ele>629.821</ele>
        <time>2022-07-08T19:01:17Z</time>
      </trkpt>
      <trkpt lat="42.684080" lon="-2.752669">
        <ele>629.447</ele>
        <time>2022-07-08T19:01:19Z</time>
      </trkpt>
      <trkpt lat="42.684118" lon="-2.752741">
        <ele>629.473</ele>
        <time>2022-07-08T19:01:21Z</time>
      </trkpt>
      <trkpt lat="42.684170" lon="-2.752798">
        <ele>629.243</ele>
        <time>2022-07-08T19:01:23Z</time>
      </trkpt>
      <trkpt lat="42.684243" lon="-2.752816">
        <ele>629.140</ele>
        <time>2022-07-08T19:01:25Z</time>
      </trkpt>
      <trkpt lat="42.684320" lon="-2.752802">
        <ele>628.952</ele>
        <time>2022-07-08T19:01:27Z</time>
      </trkpt>
      <trkpt lat="42.684392" lon="-2.752781">
        <ele>628.845</ele>
        <time>2022-07-08T19:01:29Z</time>
      </trkpt>
      <trkpt lat="42.684449" lon="-2.752766">
        <ele>628.647</ele>
        <time>2022-07-08T19:01:31Z</time>
      </trkpt>
      <trkpt lat="42.684496" lon="-2.752744">
        <ele>628.511</ele>
        <time>2022-07-08T19:01:33Z</time>
      </trkpt>
      <trkpt lat="42.684551" lon="-2.752713">
        <ele>628.509</ele>
        <time>2022-07-08T19:01:36Z</time>
      </trkpt>
      <trkpt lat="42.684596" lon="-2.752716">
        <ele>628.585</ele>
        <time>2022-07-08T19:01:38Z</time>
      </trkpt>
      <trkpt lat="42.684650" lon="-2.752717">
        <ele>628.514</ele>
        <time>2022-07-08T19:01:40Z</time>
      </trkpt>
      <trkpt lat="42.684711" lon="-2.752703">
        <ele>628.531</ele>
        <time>2022-07-08T19:01:42Z</time>
      </trkpt>
      <trkpt lat="42.684771" lon="-2.752689">
        <ele>628.537</ele>
        <time>2022-07-08T19:01:44Z</time>
      </trkpt>
      <trkpt lat="42.684824" lon="-2.752673">
        <ele>628.573</ele>
        <time>2022-07-08T19:01:46Z</time>
      </trkpt>
      <trkpt lat="42.684873" lon="-2.752648">
        <ele>628.539</ele>
        <time>2022-07-08T19:01:48Z</time>
      </trkpt>
      <trkpt lat="42.684929" lon="-2.752639">
        <ele>628.529</ele>
        <time>2022-07-08T19:01:50Z</time>
      </trkpt>
      <trkpt lat="42.684984" lon="-2.752638">
        <ele>628.496</ele>
        <time>2022-07-08T19:01:52Z</time>
      </trkpt>
      <trkpt lat="42.685034" lon="-2.752624">
        <ele>628.478</ele>
        <time>2022-07-08T19:01:54Z</time>
      </trkpt>
      <trkpt lat="42.685084" lon="-2.752618">
        <ele>628.482</ele>
        <time>2022-07-08T19:01:56Z</time>
      </trkpt>
      <trkpt lat="42.685135" lon="-2.752611">
        <ele>628.443</ele>
        <time>2022-07-08T19:01:58Z</time>
      </trkpt>
      <trkpt lat="42.685186" lon="-2.752598">
        <ele>628.417</ele>
        <time>2022-07-08T19:02:00Z</time>
      </trkpt>
      <trkpt lat="42.685234" lon="-2.752588">
        <ele>628.409</ele>
        <time>2022-07-08T19:02:02Z</time>
      </trkpt>
      <trkpt lat="42.685279" lon="-2.752581">
        <ele>628.429</ele>
        <time>2022-07-08T19:02:04Z</time>
      </trkpt>
      <trkpt lat="42.685337" lon="-2.752567">
        <ele>628.488</ele>
        <time>2022-07-08T19:02:07Z</time>
      </trkpt>
      <trkpt lat="42.685383" lon="-2.752541">
        <ele>628.385</ele>
        <time>2022-07-08T19:02:15Z</time>
      </trkpt>
      <trkpt lat="42.685425" lon="-2.752509">
        <ele>628.211</ele>
        <time>2022-07-08T19:03:30Z</time>
      </trkpt>
      <trkpt lat="42.685398" lon="-2.752564">
        <ele>628.217</ele>
        <time>2022-07-08T19:04:10Z</time>
      </trkpt>
      <trkpt lat="42.685444" lon="-2.752569">
        <ele>628.213</ele>
        <time>2022-07-08T19:04:16Z</time>
      </trkpt>
      <trkpt lat="42.685491" lon="-2.752534">
        <ele>628.293</ele>
        <time>2022-07-08T19:04:22Z</time>
      </trkpt>
      <trkpt lat="42.685557" lon="-2.752518">
        <ele>628.280</ele>
        <time>2022-07-08T19:04:25Z</time>
      </trkpt>
      <trkpt lat="42.685611" lon="-2.752498">
        <ele>628.392</ele>
        <time>2022-07-08T19:04:27Z</time>
      </trkpt>
      <trkpt lat="42.685666" lon="-2.752481">
        <ele>628.332</ele>
        <time>2022-07-08T19:04:29Z</time>
      </trkpt>
      <trkpt lat="42.685725" lon="-2.752467">
        <ele>628.392</ele>
        <time>2022-07-08T19:04:31Z</time>
      </trkpt>
      <trkpt lat="42.685793" lon="-2.752454">
        <ele>628.311</ele>
        <time>2022-07-08T19:04:33Z</time>
      </trkpt>
      <trkpt lat="42.685862" lon="-2.752441">
        <ele>628.309</ele>
        <time>2022-07-08T19:04:35Z</time>
      </trkpt>
      <trkpt lat="42.685928" lon="-2.752416">
        <ele>628.544</ele>
        <time>2022-07-08T19:04:37Z</time>
      </trkpt>
      <trkpt lat="42.685995" lon="-2.752382">
        <ele>628.673</ele>
        <time>2022-07-08T19:04:39Z</time>
      </trkpt>
      <trkpt lat="42.686057" lon="-2.752352">
        <ele>628.670</ele>
        <time>2022-07-08T19:04:41Z</time>
      </trkpt>
      <trkpt lat="42.686120" lon="-2.752319">
        <ele>628.716</ele>
        <time>2022-07-08T19:04:43Z</time>
      </trkpt>
      <trkpt lat="42.686170" lon="-2.752285">
        <ele>628.762</ele>
        <time>2022-07-08T19:04:45Z</time>
      </trkpt>
      <trkpt lat="42.686211" lon="-2.752247">
        <ele>628.728</ele>
        <time>2022-07-08T19:04:47Z</time>
      </trkpt>
      <trkpt lat="42.686254" lon="-2.752214">
        <ele>628.798</ele>
        <time>2022-07-08T19:04:49Z</time>
      </trkpt>
      <trkpt lat="42.686305" lon="-2.752184">
        <ele>628.465</ele>
        <time>2022-07-08T19:04:51Z</time>
      </trkpt>
      <trkpt lat="42.686363" lon="-2.752144">
        <ele>628.267</ele>
        <time>2022-07-08T19:04:53Z</time>
      </trkpt>
      <trkpt lat="42.686425" lon="-2.752104">
        <ele>628.122</ele>
        <time>2022-07-08T19:04:55Z</time>
      </trkpt>
      <trkpt lat="42.686493" lon="-2.752066">
        <ele>628.062</ele>
        <time>2022-07-08T19:04:57Z</time>
      </trkpt>
      <trkpt lat="42.686564" lon="-2.752028">
        <ele>628.008</ele>
        <time>2022-07-08T19:04:59Z</time>
      </trkpt>
      <trkpt lat="42.686632" lon="-2.751981">
        <ele>628.009</ele>
        <time>2022-07-08T19:05:01Z</time>
      </trkpt>
      <trkpt lat="42.686695" lon="-2.751940">
        <ele>628.283</ele>
        <time>2022-07-08T19:05:03Z</time>
      </trkpt>
      <trkpt lat="42.686759" lon="-2.751898">
        <ele>628.462</ele>
        <time>2022-07-08T19:05:05Z</time>
      </trkpt>
      <trkpt lat="42.686825" lon="-2.751853">
        <ele>628.529</ele>
        <time>2022-07-08T19:05:07Z</time>
      </trkpt>
      <trkpt lat="42.686888" lon="-2.751808">
        <ele>628.655</ele>
        <time>2022-07-08T19:05:09Z</time>
      </trkpt>
      <trkpt lat="42.686941" lon="-2.751772">
        <ele>628.781</ele>
        <time>2022-07-08T19:05:11Z</time>
      </trkpt>
      <trkpt lat="42.686993" lon="-2.751732">
        <ele>628.767</ele>
        <time>2022-07-08T19:05:13Z</time>
      </trkpt>
      <trkpt lat="42.687053" lon="-2.751689">
        <ele>629.057</ele>
        <time>2022-07-08T19:05:15Z</time>
      </trkpt>
      <trkpt lat="42.687115" lon="-2.751648">
        <ele>629.034</ele>
        <time>2022-07-08T19:05:17Z</time>
      </trkpt>
      <trkpt lat="42.687182" lon="-2.751600">
        <ele>629.176</ele>
        <time>2022-07-08T19:05:19Z</time>
      </trkpt>
      <trkpt lat="42.687251" lon="-2.751553">
        <ele>629.052</ele>
        <time>2022-07-08T19:05:21Z</time>
      </trkpt>
      <trkpt lat="42.687318" lon="-2.751506">
        <ele>629.053</ele>
        <time>2022-07-08T19:05:23Z</time>
      </trkpt>
      <trkpt lat="42.687378" lon="-2.751466">
        <ele>629.108</ele>
        <time>2022-07-08T19:05:25Z</time>
      </trkpt>
      <trkpt lat="42.687429" lon="-2.751430">
        <ele>629.109</ele>
        <time>2022-07-08T19:05:27Z</time>
      </trkpt>
      <trkpt lat="42.687486" lon="-2.751403">
        <ele>629.036</ele>
        <time>2022-07-08T19:05:30Z</time>
      </trkpt>
      <trkpt lat="42.687525" lon="-2.751435">
        <ele>629.085</ele>
        <time>2022-07-08T19:05:32Z</time>
      </trkpt>
      <trkpt lat="42.687566" lon="-2.751502">
        <ele>628.952</ele>
        <time>2022-07-08T19:05:34Z</time>
      </trkpt>
      <trkpt lat="42.687605" lon="-2.751578">
        <ele>628.988</ele>
        <time>2022-07-08T19:05:36Z</time>
      </trkpt>
      <trkpt lat="42.687633" lon="-2.751637">
        <ele>628.794</ele>
        <time>2022-07-08T19:05:38Z</time>
      </trkpt>
      <trkpt lat="42.687661" lon="-2.751691">
        <ele>628.310</ele>
        <time>2022-07-08T19:05:41Z</time>
      </trkpt>
      <trkpt lat="42.687700" lon="-2.751728">
        <ele>627.790</ele>
        <time>2022-07-08T19:05:49Z</time>
      </trkpt>
      <trkpt lat="42.687742" lon="-2.751758">
        <ele>627.117</ele>
        <time>2022-07-08T19:05:54Z</time>
      </trkpt>
      <trkpt lat="42.687794" lon="-2.751775">
        <ele>625.839</ele>
        <time>2022-07-08T19:05:59Z</time>
      </trkpt>
      <trkpt lat="42.687847" lon="-2.751767">
        <ele>624.484</ele>
        <time>2022-07-08T19:06:04Z</time>
      </trkpt>
      <trkpt lat="42.687860" lon="-2.751702">
        <ele>622.707</ele>
        <time>2022-07-08T19:06:23Z</time>
      </trkpt>
      <trkpt lat="42.687893" lon="-2.751657">
        <ele>620.817</ele>
        <time>2022-07-08T19:06:25Z</time>
      </trkpt>
      <trkpt lat="42.687934" lon="-2.751585">
        <ele>619.009</ele>
        <time>2022-07-08T19:06:27Z</time>
      </trkpt>
      <trkpt lat="42.687958" lon="-2.751523">
        <ele>618.279</ele>
        <time>2022-07-08T19:06:28Z</time>
      </trkpt>
      <trkpt lat="42.687981" lon="-2.751462">
        <ele>618.028</ele>
        <time>2022-07-08T19:06:29Z</time>
      </trkpt>
      <trkpt lat="42.688001" lon="-2.751401">
        <ele>617.855</ele>
        <time>2022-07-08T19:06:30Z</time>
      </trkpt>
      <trkpt lat="42.688018" lon="-2.751339">
        <ele>617.521</ele>
        <time>2022-07-08T19:06:31Z</time>
      </trkpt>
      <trkpt lat="42.688031" lon="-2.751279">
        <ele>617.187</ele>
        <time>2022-07-08T19:06:32Z</time>
      </trkpt>
      <trkpt lat="42.688041" lon="-2.751147">
        <ele>616.993</ele>
        <time>2022-07-08T19:06:33Z</time>
      </trkpt>
      <trkpt lat="42.688069" lon="-2.751081">
        <ele>616.593</ele>
        <time>2022-07-08T19:06:35Z</time>
      </trkpt>
      <trkpt lat="42.688083" lon="-2.751016">
        <ele>616.060</ele>
        <time>2022-07-08T19:06:36Z</time>
      </trkpt>
      <trkpt lat="42.688100" lon="-2.750948">
        <ele>615.282</ele>
        <time>2022-07-08T19:06:37Z</time>
      </trkpt>
      <trkpt lat="42.688113" lon="-2.750791">
        <ele>614.794</ele>
        <time>2022-07-08T19:06:38Z</time>
      </trkpt>
      <trkpt lat="42.688108" lon="-2.750720">
        <ele>614.357</ele>
        <time>2022-07-08T19:06:39Z</time>
      </trkpt>
      <trkpt lat="42.688119" lon="-2.750651">
        <ele>613.922</ele>
        <time>2022-07-08T19:06:40Z</time>
      </trkpt>
      <trkpt lat="42.688144" lon="-2.750592">
        <ele>613.409</ele>
        <time>2022-07-08T19:06:41Z</time>
      </trkpt>
      <trkpt lat="42.688160" lon="-2.750533">
        <ele>613.170</ele>
        <time>2022-07-08T19:06:42Z</time>
      </trkpt>
      <trkpt lat="42.688156" lon="-2.750435">
        <ele>612.449</ele>
        <time>2022-07-08T19:06:44Z</time>
      </trkpt>
      <trkpt lat="42.688159" lon="-2.750336">
        <ele>612.126</ele>
        <time>2022-07-08T19:06:45Z</time>
      </trkpt>
      <trkpt lat="42.688188" lon="-2.750247">
        <ele>611.052</ele>
        <time>2022-07-08T19:06:47Z</time>
      </trkpt>
      <trkpt lat="42.688227" lon="-2.750138">
        <ele>610.218</ele>
        <time>2022-07-08T19:06:49Z</time>
      </trkpt>
      <trkpt lat="42.688247" lon="-2.750051">
        <ele>609.114</ele>
        <time>2022-07-08T19:06:51Z</time>
      </trkpt>
      <trkpt lat="42.688259" lon="-2.749934">
        <ele>608.264</ele>
        <time>2022-07-08T19:06:53Z</time>
      </trkpt>
      <trkpt lat="42.688262" lon="-2.749873">
        <ele>607.841</ele>
        <time>2022-07-08T19:06:54Z</time>
      </trkpt>
      <trkpt lat="42.688265" lon="-2.749799">
        <ele>607.733</ele>
        <time>2022-07-08T19:06:55Z</time>
      </trkpt>
      <trkpt lat="42.688266" lon="-2.749738">
        <ele>607.623</ele>
        <time>2022-07-08T19:06:56Z</time>
      </trkpt>
      <trkpt lat="42.688297" lon="-2.749654">
        <ele>607.683</ele>
        <time>2022-07-08T19:06:58Z</time>
      </trkpt>
      <trkpt lat="42.688317" lon="-2.749594">
        <ele>607.611</ele>
        <time>2022-07-08T19:06:59Z</time>
      </trkpt>
      <trkpt lat="42.688338" lon="-2.749499">
        <ele>607.609</ele>
        <time>2022-07-08T19:07:01Z</time>
      </trkpt>
      <trkpt lat="42.688366" lon="-2.749406">
        <ele>607.633</ele>
        <time>2022-07-08T19:07:03Z</time>
      </trkpt>
      <trkpt lat="42.688401" lon="-2.749297">
        <ele>608.052</ele>
        <time>2022-07-08T19:07:05Z</time>
      </trkpt>
      <trkpt lat="42.688427" lon="-2.749228">
        <ele>608.279</ele>
        <time>2022-07-08T19:07:07Z</time>
      </trkpt>
      <trkpt lat="42.688461" lon="-2.749137">
        <ele>608.425</ele>
        <time>2022-07-08T19:07:09Z</time>
      </trkpt>
      <trkpt lat="42.688494" lon="-2.749024">
        <ele>608.741</ele>
        <time>2022-07-08T19:07:11Z</time>
      </trkpt>
      <trkpt lat="42.688513" lon="-2.748947">
        <ele>609.087</ele>
        <time>2022-07-08T19:07:12Z</time>
      </trkpt>
      <trkpt lat="42.688539" lon="-2.748862">
        <ele>609.297</ele>
        <time>2022-07-08T19:07:14Z</time>
      </trkpt>
      <trkpt lat="42.688551" lon="-2.748767">
        <ele>609.364</ele>
        <time>2022-07-08T19:07:16Z</time>
      </trkpt>
      <trkpt lat="42.688553" lon="-2.748649">
        <ele>609.476</ele>
        <time>2022-07-08T19:07:18Z</time>
      </trkpt>
      <trkpt lat="42.688560" lon="-2.748585">
        <ele>609.431</ele>
        <time>2022-07-08T19:07:19Z</time>
      </trkpt>
      <trkpt lat="42.688569" lon="-2.748489">
        <ele>609.461</ele>
        <time>2022-07-08T19:07:21Z</time>
      </trkpt>
      <trkpt lat="42.688585" lon="-2.748391">
        <ele>609.507</ele>
        <time>2022-07-08T19:07:23Z</time>
      </trkpt>
      <trkpt lat="42.688580" lon="-2.748318">
        <ele>609.509</ele>
        <time>2022-07-08T19:07:24Z</time>
      </trkpt>
      <trkpt lat="42.688576" lon="-2.748219">
        <ele>609.884</ele>
        <time>2022-07-08T19:07:26Z</time>
      </trkpt>
      <trkpt lat="42.688581" lon="-2.748134">
        <ele>609.993</ele>
        <time>2022-07-08T19:07:28Z</time>
      </trkpt>
      <trkpt lat="42.688597" lon="-2.748056">
        <ele>610.290</ele>
        <time>2022-07-08T19:07:30Z</time>
      </trkpt>
      <trkpt lat="42.688604" lon="-2.747981">
        <ele>610.626</ele>
        <time>2022-07-08T19:07:32Z</time>
      </trkpt>
      <trkpt lat="42.688605" lon="-2.747904">
        <ele>611.122</ele>
        <time>2022-07-08T19:07:34Z</time>
      </trkpt>
      <trkpt lat="42.688608" lon="-2.747826">
        <ele>611.798</ele>
        <time>2022-07-08T19:07:36Z</time>
      </trkpt>
      <trkpt lat="42.688607" lon="-2.747753">
        <ele>612.248</ele>
        <time>2022-07-08T19:07:38Z</time>
      </trkpt>
      <trkpt lat="42.688606" lon="-2.747689">
        <ele>612.635</ele>
        <time>2022-07-08T19:07:40Z</time>
      </trkpt>
      <trkpt lat="42.688610" lon="-2.747610">
        <ele>613.117</ele>
        <time>2022-07-08T19:07:43Z</time>
      </trkpt>
      <trkpt lat="42.688619" lon="-2.747550">
        <ele>613.486</ele>
        <time>2022-07-08T19:07:46Z</time>
      </trkpt>
      <trkpt lat="42.688611" lon="-2.747468">
        <ele>614.260</ele>
        <time>2022-07-08T19:07:50Z</time>
      </trkpt>
      <trkpt lat="42.688601" lon="-2.747404">
        <ele>614.926</ele>
        <time>2022-07-08T19:07:53Z</time>
      </trkpt>
      <trkpt lat="42.688590" lon="-2.747343">
        <ele>615.509</ele>
        <time>2022-07-08T19:07:56Z</time>
      </trkpt>
      <trkpt lat="42.688592" lon="-2.747268">
        <ele>616.149</ele>
        <time>2022-07-08T19:07:59Z</time>
      </trkpt>
      <trkpt lat="42.688591" lon="-2.747180">
        <ele>616.668</ele>
        <time>2022-07-08T19:08:02Z</time>
      </trkpt>
      <trkpt lat="42.688586" lon="-2.747098">
        <ele>617.125</ele>
        <time>2022-07-08T19:08:05Z</time>
      </trkpt>
      <trkpt lat="42.688585" lon="-2.747014">
        <ele>617.611</ele>
        <time>2022-07-08T19:08:08Z</time>
      </trkpt>
      <trkpt lat="42.688598" lon="-2.746924">
        <ele>618.377</ele>
        <time>2022-07-08T19:08:11Z</time>
      </trkpt>
      <trkpt lat="42.688610" lon="-2.746835">
        <ele>619.133</ele>
        <time>2022-07-08T19:08:14Z</time>
      </trkpt>
      <trkpt lat="42.688616" lon="-2.746751">
        <ele>619.683</ele>
        <time>2022-07-08T19:08:17Z</time>
      </trkpt>
      <trkpt lat="42.688629" lon="-2.746677">
        <ele>620.250</ele>
        <time>2022-07-08T19:08:20Z</time>
      </trkpt>
      <trkpt lat="42.688644" lon="-2.746604">
        <ele>620.982</ele>
        <time>2022-07-08T19:08:23Z</time>
      </trkpt>
      <trkpt lat="42.688647" lon="-2.746519">
        <ele>621.739</ele>
        <time>2022-07-08T19:08:26Z</time>
      </trkpt>
      <trkpt lat="42.688666" lon="-2.746435">
        <ele>622.101</ele>
        <time>2022-07-08T19:08:29Z</time>
      </trkpt>
      <trkpt lat="42.688677" lon="-2.746357">
        <ele>622.621</ele>
        <time>2022-07-08T19:08:32Z</time>
      </trkpt>
      <trkpt lat="42.688678" lon="-2.746273">
        <ele>623.109</ele>
        <time>2022-07-08T19:08:35Z</time>
      </trkpt>
      <trkpt lat="42.688687" lon="-2.746213">
        <ele>623.684</ele>
        <time>2022-07-08T19:08:37Z</time>
      </trkpt>
      <trkpt lat="42.688697" lon="-2.746152">
        <ele>623.973</ele>
        <time>2022-07-08T19:08:39Z</time>
      </trkpt>
      <trkpt lat="42.688698" lon="-2.746089">
        <ele>624.180</ele>
        <time>2022-07-08T19:08:41Z</time>
      </trkpt>
      <trkpt lat="42.688698" lon="-2.746024">
        <ele>624.576</ele>
        <time>2022-07-08T19:08:43Z</time>
      </trkpt>
      <trkpt lat="42.688701" lon="-2.745961">
        <ele>624.922</ele>
        <time>2022-07-08T19:08:45Z</time>
      </trkpt>
      <trkpt lat="42.688704" lon="-2.745872">
        <ele>625.348</ele>
        <time>2022-07-08T19:08:48Z</time>
      </trkpt>
      <trkpt lat="42.688709" lon="-2.745787">
        <ele>625.788</ele>
        <time>2022-07-08T19:08:51Z</time>
      </trkpt>
      <trkpt lat="42.688714" lon="-2.745706">
        <ele>626.335</ele>
        <time>2022-07-08T19:08:54Z</time>
      </trkpt>
      <trkpt lat="42.688715" lon="-2.745621">
        <ele>626.847</ele>
        <time>2022-07-08T19:08:57Z</time>
      </trkpt>
      <trkpt lat="42.688700" lon="-2.745533">
        <ele>627.231</ele>
        <time>2022-07-08T19:09:00Z</time>
      </trkpt>
      <trkpt lat="42.688695" lon="-2.745450">
        <ele>627.761</ele>
        <time>2022-07-08T19:09:03Z</time>
      </trkpt>
      <trkpt lat="42.688692" lon="-2.745363">
        <ele>627.807</ele>
        <time>2022-07-08T19:09:06Z</time>
      </trkpt>
      <trkpt lat="42.688685" lon="-2.745278">
        <ele>628.109</ele>
        <time>2022-07-08T19:09:09Z</time>
      </trkpt>
      <trkpt lat="42.688674" lon="-2.745196">
        <ele>628.544</ele>
        <time>2022-07-08T19:09:12Z</time>
      </trkpt>
      <trkpt lat="42.688674" lon="-2.745109">
        <ele>628.923</ele>
        <time>2022-07-08T19:09:15Z</time>
      </trkpt>
      <trkpt lat="42.688671" lon="-2.745046">
        <ele>629.410</ele>
        <time>2022-07-08T19:09:17Z</time>
      </trkpt>
      <trkpt lat="42.688664" lon="-2.744962">
        <ele>629.956</ele>
        <time>2022-07-08T19:09:20Z</time>
      </trkpt>
      <trkpt lat="42.688656" lon="-2.744889">
        <ele>630.222</ele>
        <time>2022-07-08T19:09:23Z</time>
      </trkpt>
      <trkpt lat="42.688661" lon="-2.744801">
        <ele>630.748</ele>
        <time>2022-07-08T19:09:26Z</time>
      </trkpt>
      <trkpt lat="42.688657" lon="-2.744737">
        <ele>631.218</ele>
        <time>2022-07-08T19:09:28Z</time>
      </trkpt>
      <trkpt lat="42.688654" lon="-2.744675">
        <ele>631.635</ele>
        <time>2022-07-08T19:09:30Z</time>
      </trkpt>
      <trkpt lat="42.688652" lon="-2.744590">
        <ele>631.947</ele>
        <time>2022-07-08T19:09:33Z</time>
      </trkpt>
      <trkpt lat="42.688649" lon="-2.744513">
        <ele>632.362</ele>
        <time>2022-07-08T19:09:36Z</time>
      </trkpt>
      <trkpt lat="42.688645" lon="-2.744425">
        <ele>632.983</ele>
        <time>2022-07-08T19:09:39Z</time>
      </trkpt>
      <trkpt lat="42.688656" lon="-2.744345">
        <ele>633.211</ele>
        <time>2022-07-08T19:09:42Z</time>
      </trkpt>
      <trkpt lat="42.688661" lon="-2.744264">
        <ele>633.609</ele>
        <time>2022-07-08T19:09:45Z</time>
      </trkpt>
      <trkpt lat="42.688655" lon="-2.744180">
        <ele>634.397</ele>
        <time>2022-07-08T19:09:48Z</time>
      </trkpt>
      <trkpt lat="42.688657" lon="-2.744099">
        <ele>634.976</ele>
        <time>2022-07-08T19:09:51Z</time>
      </trkpt>
      <trkpt lat="42.688648" lon="-2.744017">
        <ele>635.573</ele>
        <time>2022-07-08T19:09:54Z</time>
      </trkpt>
      <trkpt lat="42.688652" lon="-2.743934">
        <ele>635.999</ele>
        <time>2022-07-08T19:09:57Z</time>
      </trkpt>
      <trkpt lat="42.688650" lon="-2.743855">
        <ele>636.495</ele>
        <time>2022-07-08T19:10:00Z</time>
      </trkpt>
      <trkpt lat="42.688667" lon="-2.743771">
        <ele>637.011</ele>
        <time>2022-07-08T19:10:03Z</time>
      </trkpt>
      <trkpt lat="42.688673" lon="-2.743688">
        <ele>637.561</ele>
        <time>2022-07-08T19:10:06Z</time>
      </trkpt>
      <trkpt lat="42.688689" lon="-2.743607">
        <ele>638.078</ele>
        <time>2022-07-08T19:10:09Z</time>
      </trkpt>
      <trkpt lat="42.688699" lon="-2.743531">
        <ele>638.520</ele>
        <time>2022-07-08T19:10:12Z</time>
      </trkpt>
      <trkpt lat="42.688718" lon="-2.743460">
        <ele>639.127</ele>
        <time>2022-07-08T19:10:15Z</time>
      </trkpt>
      <trkpt lat="42.688721" lon="-2.743376">
        <ele>639.868</ele>
        <time>2022-07-08T19:10:18Z</time>
      </trkpt>
      <trkpt lat="42.688746" lon="-2.743311">
        <ele>640.214</ele>
        <time>2022-07-08T19:10:21Z</time>
      </trkpt>
      <trkpt lat="42.688768" lon="-2.743255">
        <ele>640.909</ele>
        <time>2022-07-08T19:10:24Z</time>
      </trkpt>
      <trkpt lat="42.688797" lon="-2.743190">
        <ele>641.583</ele>
        <time>2022-07-08T19:10:28Z</time>
      </trkpt>
      <trkpt lat="42.688836" lon="-2.743151">
        <ele>641.842</ele>
        <time>2022-07-08T19:10:31Z</time>
      </trkpt>
      <trkpt lat="42.688871" lon="-2.743087">
        <ele>642.699</ele>
        <time>2022-07-08T19:10:34Z</time>
      </trkpt>
      <trkpt lat="42.688907" lon="-2.743028">
        <ele>643.385</ele>
        <time>2022-07-08T19:10:37Z</time>
      </trkpt>
      <trkpt lat="42.688931" lon="-2.742976">
        <ele>643.681</ele>
        <time>2022-07-08T19:10:40Z</time>
      </trkpt>
      <trkpt lat="42.688946" lon="-2.742909">
        <ele>643.737</ele>
        <time>2022-07-08T19:12:23Z</time>
      </trkpt>
      <trkpt lat="42.688948" lon="-2.742841">
        <ele>643.887</ele>
        <time>2022-07-08T19:12:26Z</time>
      </trkpt>
      <trkpt lat="42.688961" lon="-2.742778">
        <ele>643.884</ele>
        <time>2022-07-08T19:12:28Z</time>
      </trkpt>
      <trkpt lat="42.688974" lon="-2.742700">
        <ele>643.826</ele>
        <time>2022-07-08T19:12:30Z</time>
      </trkpt>
      <trkpt lat="42.688988" lon="-2.742603">
        <ele>643.866</ele>
        <time>2022-07-08T19:12:32Z</time>
      </trkpt>
      <trkpt lat="42.688995" lon="-2.742536">
        <ele>643.829</ele>
        <time>2022-07-08T19:12:33Z</time>
      </trkpt>
      <trkpt lat="42.688999" lon="-2.742471">
        <ele>643.821</ele>
        <time>2022-07-08T19:12:34Z</time>
      </trkpt>
      <trkpt lat="42.689002" lon="-2.742409">
        <ele>643.709</ele>
        <time>2022-07-08T19:12:35Z</time>
      </trkpt>
      <trkpt lat="42.689005" lon="-2.742347">
        <ele>643.747</ele>
        <time>2022-07-08T19:12:36Z</time>
      </trkpt>
      <trkpt lat="42.689015" lon="-2.742220">
        <ele>643.676</ele>
        <time>2022-07-08T19:12:38Z</time>
      </trkpt>
      <trkpt lat="42.689018" lon="-2.742156">
        <ele>643.593</ele>
        <time>2022-07-08T19:12:39Z</time>
      </trkpt>
      <trkpt lat="42.689018" lon="-2.742090">
        <ele>643.299</ele>
        <time>2022-07-08T19:12:40Z</time>
      </trkpt>
      <trkpt lat="42.689018" lon="-2.742017">
        <ele>643.275</ele>
        <time>2022-07-08T19:12:41Z</time>
      </trkpt>
      <trkpt lat="42.688989" lon="-2.741904">
        <ele>643.231</ele>
        <time>2022-07-08T19:12:43Z</time>
      </trkpt>
      <trkpt lat="42.688985" lon="-2.741830">
        <ele>643.161</ele>
        <time>2022-07-08T19:12:44Z</time>
      </trkpt>
      <trkpt lat="42.689006" lon="-2.741766">
        <ele>643.048</ele>
        <time>2022-07-08T19:12:45Z</time>
      </trkpt>
      <trkpt lat="42.689014" lon="-2.741701">
        <ele>643.050</ele>
        <time>2022-07-08T19:12:46Z</time>
      </trkpt>
      <trkpt lat="42.689005" lon="-2.741622">
        <ele>643.053</ele>
        <time>2022-07-08T19:12:47Z</time>
      </trkpt>
      <trkpt lat="42.689008" lon="-2.741529">
        <ele>643.004</ele>
        <time>2022-07-08T19:12:49Z</time>
      </trkpt>
      <trkpt lat="42.689014" lon="-2.741459">
        <ele>643.014</ele>
        <time>2022-07-08T19:12:50Z</time>
      </trkpt>
      <trkpt lat="42.688994" lon="-2.741394">
        <ele>643.009</ele>
        <time>2022-07-08T19:12:52Z</time>
      </trkpt>
      <trkpt lat="42.689026" lon="-2.741312">
        <ele>643.056</ele>
        <time>2022-07-08T19:12:54Z</time>
      </trkpt>
      <trkpt lat="42.689059" lon="-2.741222">
        <ele>643.365</ele>
        <time>2022-07-08T19:12:56Z</time>
      </trkpt>
      <trkpt lat="42.689101" lon="-2.741130">
        <ele>643.662</ele>
        <time>2022-07-08T19:12:57Z</time>
      </trkpt>
      <trkpt lat="42.689148" lon="-2.741050">
        <ele>643.628</ele>
        <time>2022-07-08T19:12:58Z</time>
      </trkpt>
      <trkpt lat="42.689207" lon="-2.740944">
        <ele>643.674</ele>
        <time>2022-07-08T19:13:00Z</time>
      </trkpt>
      <trkpt lat="42.689254" lon="-2.740867">
        <ele>643.460</ele>
        <time>2022-07-08T19:13:01Z</time>
      </trkpt>
      <trkpt lat="42.689298" lon="-2.740781">
        <ele>643.150</ele>
        <time>2022-07-08T19:13:02Z</time>
      </trkpt>
      <trkpt lat="42.689329" lon="-2.740702">
        <ele>642.877</ele>
        <time>2022-07-08T19:13:03Z</time>
      </trkpt>
      <trkpt lat="42.689373" lon="-2.740601">
        <ele>642.559</ele>
        <time>2022-07-08T19:13:04Z</time>
      </trkpt>
      <trkpt lat="42.689418" lon="-2.740507">
        <ele>642.229</ele>
        <time>2022-07-08T19:13:05Z</time>
      </trkpt>
      <trkpt lat="42.689472" lon="-2.740405">
        <ele>641.800</ele>
        <time>2022-07-08T19:13:06Z</time>
      </trkpt>
      <trkpt lat="42.689511" lon="-2.740311">
        <ele>641.320</ele>
        <time>2022-07-08T19:13:07Z</time>
      </trkpt>
      <trkpt lat="42.689556" lon="-2.740210">
        <ele>640.709</ele>
        <time>2022-07-08T19:13:08Z</time>
      </trkpt>
      <trkpt lat="42.689593" lon="-2.740113">
        <ele>640.113</ele>
        <time>2022-07-08T19:13:09Z</time>
      </trkpt>
      <trkpt lat="42.689632" lon="-2.740031">
        <ele>639.432</ele>
        <time>2022-07-08T19:13:10Z</time>
      </trkpt>
      <trkpt lat="42.689673" lon="-2.739934">
        <ele>638.899</ele>
        <time>2022-07-08T19:13:11Z</time>
      </trkpt>
      <trkpt lat="42.689703" lon="-2.739847">
        <ele>638.465</ele>
        <time>2022-07-08T19:13:12Z</time>
      </trkpt>
      <trkpt lat="42.689732" lon="-2.739774">
        <ele>638.161</ele>
        <time>2022-07-08T19:13:13Z</time>
      </trkpt>
      <trkpt lat="42.689761" lon="-2.739694">
        <ele>637.977</ele>
        <time>2022-07-08T19:13:14Z</time>
      </trkpt>
      <trkpt lat="42.689820" lon="-2.739581">
        <ele>637.847</ele>
        <time>2022-07-08T19:13:16Z</time>
      </trkpt>
      <trkpt lat="42.689853" lon="-2.739508">
        <ele>637.634</ele>
        <time>2022-07-08T19:13:17Z</time>
      </trkpt>
      <trkpt lat="42.689879" lon="-2.739434">
        <ele>637.466</ele>
        <time>2022-07-08T19:13:18Z</time>
      </trkpt>
      <trkpt lat="42.689915" lon="-2.739346">
        <ele>637.236</ele>
        <time>2022-07-08T19:13:19Z</time>
      </trkpt>
      <trkpt lat="42.689936" lon="-2.739285">
        <ele>637.117</ele>
        <time>2022-07-08T19:13:20Z</time>
      </trkpt>
      <trkpt lat="42.689961" lon="-2.739223">
        <ele>637.018</ele>
        <time>2022-07-08T19:13:21Z</time>
      </trkpt>
      <trkpt lat="42.689987" lon="-2.739155">
        <ele>636.909</ele>
        <time>2022-07-08T19:13:22Z</time>
      </trkpt>
      <trkpt lat="42.690021" lon="-2.739084">
        <ele>636.964</ele>
        <time>2022-07-08T19:13:24Z</time>
      </trkpt>
      <trkpt lat="42.690062" lon="-2.739003">
        <ele>636.983</ele>
        <time>2022-07-08T19:13:26Z</time>
      </trkpt>
      <trkpt lat="42.690100" lon="-2.738909">
        <ele>637.050</ele>
        <time>2022-07-08T19:13:28Z</time>
      </trkpt>
      <trkpt lat="42.690122" lon="-2.738856">
        <ele>637.286</ele>
        <time>2022-07-08T19:13:30Z</time>
      </trkpt>
      <trkpt lat="42.690144" lon="-2.738792">
        <ele>638.022</ele>
        <time>2022-07-08T19:13:32Z</time>
      </trkpt>
      <trkpt lat="42.690174" lon="-2.738732">
        <ele>638.768</ele>
        <time>2022-07-08T19:13:34Z</time>
      </trkpt>
      <trkpt lat="42.690205" lon="-2.738669">
        <ele>639.438</ele>
        <time>2022-07-08T19:13:36Z</time>
      </trkpt>
      <trkpt lat="42.690241" lon="-2.738617">
        <ele>639.885</ele>
        <time>2022-07-08T19:13:38Z</time>
      </trkpt>
      <trkpt lat="42.690270" lon="-2.738565">
        <ele>640.577</ele>
        <time>2022-07-08T19:13:40Z</time>
      </trkpt>
      <trkpt lat="42.690300" lon="-2.738487">
        <ele>641.472</ele>
        <time>2022-07-08T19:13:43Z</time>
      </trkpt>
      <trkpt lat="42.690338" lon="-2.738453">
        <ele>641.713</ele>
        <time>2022-07-08T19:13:45Z</time>
      </trkpt>
      <trkpt lat="42.690370" lon="-2.738395">
        <ele>642.514</ele>
        <time>2022-07-08T19:13:47Z</time>
      </trkpt>
      <trkpt lat="42.690392" lon="-2.738337">
        <ele>643.509</ele>
        <time>2022-07-08T19:13:49Z</time>
      </trkpt>
      <trkpt lat="42.690412" lon="-2.738270">
        <ele>644.048</ele>
        <time>2022-07-08T19:13:51Z</time>
      </trkpt>
      <trkpt lat="42.690437" lon="-2.738205">
        <ele>644.377</ele>
        <time>2022-07-08T19:13:53Z</time>
      </trkpt>
      <trkpt lat="42.690473" lon="-2.738162">
        <ele>644.844</ele>
        <time>2022-07-08T19:13:55Z</time>
      </trkpt>
      <trkpt lat="42.690501" lon="-2.738113">
        <ele>645.340</ele>
        <time>2022-07-08T19:13:57Z</time>
      </trkpt>
      <trkpt lat="42.690526" lon="-2.738053">
        <ele>645.866</ele>
        <time>2022-07-08T19:13:59Z</time>
      </trkpt>
      <trkpt lat="42.690562" lon="-2.738006">
        <ele>646.322</ele>
        <time>2022-07-08T19:14:01Z</time>
      </trkpt>
      <trkpt lat="42.690587" lon="-2.737954">
        <ele>646.752</ele>
        <time>2022-07-08T19:14:03Z</time>
      </trkpt>
      <trkpt lat="42.690611" lon="-2.737902">
        <ele>647.119</ele>
        <time>2022-07-08T19:14:05Z</time>
      </trkpt>
      <trkpt lat="42.690643" lon="-2.737853">
        <ele>647.541</ele>
        <time>2022-07-08T19:14:07Z</time>
      </trkpt>
      <trkpt lat="42.690675" lon="-2.737787">
        <ele>647.989</ele>
        <time>2022-07-08T19:14:09Z</time>
      </trkpt>
      <trkpt lat="42.690707" lon="-2.737722">
        <ele>648.306</ele>
        <time>2022-07-08T19:14:11Z</time>
      </trkpt>
      <trkpt lat="42.690739" lon="-2.737673">
        <ele>648.726</ele>
        <time>2022-07-08T19:14:13Z</time>
      </trkpt>
      <trkpt lat="42.690761" lon="-2.737616">
        <ele>649.009</ele>
        <time>2022-07-08T19:14:15Z</time>
      </trkpt>
      <trkpt lat="42.690799" lon="-2.737541">
        <ele>649.339</ele>
        <time>2022-07-08T19:14:18Z</time>
      </trkpt>
      <trkpt lat="42.690835" lon="-2.737489">
        <ele>649.748</ele>
        <time>2022-07-08T19:14:20Z</time>
      </trkpt>
      <trkpt lat="42.690868" lon="-2.737433">
        <ele>650.125</ele>
        <time>2022-07-08T19:14:22Z</time>
      </trkpt>
      <trkpt lat="42.690899" lon="-2.737374">
        <ele>650.961</ele>
        <time>2022-07-08T19:14:24Z</time>
      </trkpt>
      <trkpt lat="42.690934" lon="-2.737309">
        <ele>651.237</ele>
        <time>2022-07-08T19:14:26Z</time>
      </trkpt>
      <trkpt lat="42.690968" lon="-2.737236">
        <ele>651.413</ele>
        <time>2022-07-08T19:14:28Z</time>
      </trkpt>
      <trkpt lat="42.691003" lon="-2.737154">
        <ele>651.613</ele>
        <time>2022-07-08T19:14:30Z</time>
      </trkpt>
      <trkpt lat="42.691042" lon="-2.737067">
        <ele>651.680</ele>
        <time>2022-07-08T19:14:32Z</time>
      </trkpt>
      <trkpt lat="42.691087" lon="-2.736981">
        <ele>651.682</ele>
        <time>2022-07-08T19:14:34Z</time>
      </trkpt>
      <trkpt lat="42.691134" lon="-2.736897">
        <ele>651.467</ele>
        <time>2022-07-08T19:14:36Z</time>
      </trkpt>
      <trkpt lat="42.691180" lon="-2.736813">
        <ele>651.281</ele>
        <time>2022-07-08T19:14:38Z</time>
      </trkpt>
      <trkpt lat="42.691226" lon="-2.736731">
        <ele>651.019</ele>
        <time>2022-07-08T19:14:40Z</time>
      </trkpt>
      <trkpt lat="42.691268" lon="-2.736642">
        <ele>650.709</ele>
        <time>2022-07-08T19:14:42Z</time>
      </trkpt>
      <trkpt lat="42.691307" lon="-2.736547">
        <ele>650.587</ele>
        <time>2022-07-08T19:14:44Z</time>
      </trkpt>
      <trkpt lat="42.691351" lon="-2.736458">
        <ele>650.446</ele>
        <time>2022-07-08T19:14:46Z</time>
      </trkpt>
      <trkpt lat="42.691396" lon="-2.736375">
        <ele>650.453</ele>
        <time>2022-07-08T19:14:48Z</time>
      </trkpt>
      <trkpt lat="42.691439" lon="-2.736291">
        <ele>650.489</ele>
        <time>2022-07-08T19:14:50Z</time>
      </trkpt>
      <trkpt lat="42.691486" lon="-2.736213">
        <ele>650.575</ele>
        <time>2022-07-08T19:14:52Z</time>
      </trkpt>
      <trkpt lat="42.691526" lon="-2.736138">
        <ele>650.511</ele>
        <time>2022-07-08T19:14:54Z</time>
      </trkpt>
      <trkpt lat="42.691555" lon="-2.736071">
        <ele>650.671</ele>
        <time>2022-07-08T19:14:56Z</time>
      </trkpt>
      <trkpt lat="42.691544" lon="-2.735987">
        <ele>650.618</ele>
        <time>2022-07-08T19:14:59Z</time>
      </trkpt>
      <trkpt lat="42.691489" lon="-2.735974">
        <ele>650.850</ele>
        <time>2022-07-08T19:15:01Z</time>
      </trkpt>
      <trkpt lat="42.691436" lon="-2.735966">
        <ele>650.915</ele>
        <time>2022-07-08T19:15:03Z</time>
      </trkpt>
      <trkpt lat="42.691382" lon="-2.735937">
        <ele>651.065</ele>
        <time>2022-07-08T19:15:06Z</time>
      </trkpt>
      <trkpt lat="42.691340" lon="-2.735899">
        <ele>651.111</ele>
        <time>2022-07-08T19:15:09Z</time>
      </trkpt>
      <trkpt lat="42.691296" lon="-2.735862">
        <ele>651.209</ele>
        <time>2022-07-08T19:15:12Z</time>
      </trkpt>
      <trkpt lat="42.691251" lon="-2.735831">
        <ele>651.422</ele>
        <time>2022-07-08T19:15:15Z</time>
      </trkpt>
      <trkpt lat="42.691214" lon="-2.735795">
        <ele>651.751</ele>
        <time>2022-07-08T19:15:18Z</time>
      </trkpt>
      <trkpt lat="42.691167" lon="-2.735768">
        <ele>652.088</ele>
        <time>2022-07-08T19:15:21Z</time>
      </trkpt>
      <trkpt lat="42.691150" lon="-2.735710">
        <ele>652.324</ele>
        <time>2022-07-08T19:15:26Z</time>
      </trkpt>
      <trkpt lat="42.691218" lon="-2.735743">
        <ele>652.750</ele>
        <time>2022-07-08T19:15:29Z</time>
      </trkpt>
      <trkpt lat="42.691259" lon="-2.735783">
        <ele>653.226</ele>
        <time>2022-07-08T19:15:30Z</time>
      </trkpt>
      <trkpt lat="42.691323" lon="-2.735864">
        <ele>653.766</ele>
        <time>2022-07-08T19:15:31Z</time>
      </trkpt>
      <trkpt lat="42.691362" lon="-2.735897">
        <ele>653.743</ele>
        <time>2022-07-08T19:15:32Z</time>
      </trkpt>
      <trkpt lat="42.691430" lon="-2.735950">
        <ele>653.715</ele>
        <time>2022-07-08T19:15:34Z</time>
      </trkpt>
      <trkpt lat="42.691498" lon="-2.735965">
        <ele>653.373</ele>
        <time>2022-07-08T19:15:36Z</time>
      </trkpt>
      <trkpt lat="42.691594" lon="-2.735952">
        <ele>652.985</ele>
        <time>2022-07-08T19:15:38Z</time>
      </trkpt>
      <trkpt lat="42.691672" lon="-2.735910">
        <ele>652.713</ele>
        <time>2022-07-08T19:15:40Z</time>
      </trkpt>
      <trkpt lat="42.691724" lon="-2.735883">
        <ele>652.509</ele>
        <time>2022-07-08T19:15:41Z</time>
      </trkpt>
      <trkpt lat="42.691784" lon="-2.735804">
        <ele>652.198</ele>
        <time>2022-07-08T19:15:43Z</time>
      </trkpt>
      <trkpt lat="42.691810" lon="-2.735751">
        <ele>651.617</ele>
        <time>2022-07-08T19:15:44Z</time>
      </trkpt>
      <trkpt lat="42.691834" lon="-2.735634">
        <ele>651.234</ele>
        <time>2022-07-08T19:15:46Z</time>
      </trkpt>
      <trkpt lat="42.691844" lon="-2.735552">
        <ele>651.090</ele>
        <time>2022-07-08T19:15:48Z</time>
      </trkpt>
      <trkpt lat="42.691870" lon="-2.735602">
        <ele>650.946</ele>
        <time>2022-07-08T19:16:03Z</time>
      </trkpt>
      <trkpt lat="42.691919" lon="-2.735615">
        <ele>650.642</ele>
        <time>2022-07-08T19:16:57Z</time>
      </trkpt>
      <trkpt lat="42.691980" lon="-2.735605">
        <ele>648.532</ele>
        <time>2022-07-08T19:16:59Z</time>
      </trkpt>
      <trkpt lat="42.692048" lon="-2.735577">
        <ele>648.429</ele>
        <time>2022-07-08T19:17:01Z</time>
      </trkpt>
      <trkpt lat="42.692122" lon="-2.735553">
        <ele>648.341</ele>
        <time>2022-07-08T19:17:03Z</time>
      </trkpt>
      <trkpt lat="42.692211" lon="-2.735538">
        <ele>647.857</ele>
        <time>2022-07-08T19:17:05Z</time>
      </trkpt>
      <trkpt lat="42.692263" lon="-2.735534">
        <ele>647.200</ele>
        <time>2022-07-08T19:17:06Z</time>
      </trkpt>
      <trkpt lat="42.692317" lon="-2.735529">
        <ele>646.720</ele>
        <time>2022-07-08T19:17:07Z</time>
      </trkpt>
      <trkpt lat="42.692375" lon="-2.735520">
        <ele>646.609</ele>
        <time>2022-07-08T19:17:08Z</time>
      </trkpt>
      <trkpt lat="42.692441" lon="-2.735523">
        <ele>646.686</ele>
        <time>2022-07-08T19:17:09Z</time>
      </trkpt>
      <trkpt lat="42.692509" lon="-2.735520">
        <ele>646.285</ele>
        <time>2022-07-08T19:17:10Z</time>
      </trkpt>
      <trkpt lat="42.692573" lon="-2.735509">
        <ele>645.772</ele>
        <time>2022-07-08T19:17:11Z</time>
      </trkpt>
      <trkpt lat="42.692631" lon="-2.735499">
        <ele>645.638</ele>
        <time>2022-07-08T19:17:12Z</time>
      </trkpt>
      <trkpt lat="42.692682" lon="-2.735486">
        <ele>645.484</ele>
        <time>2022-07-08T19:17:13Z</time>
      </trkpt>
      <trkpt lat="42.692757" lon="-2.735467">
        <ele>645.270</ele>
        <time>2022-07-08T19:17:14Z</time>
      </trkpt>
      <trkpt lat="42.692826" lon="-2.735465">
        <ele>644.610</ele>
        <time>2022-07-08T19:17:15Z</time>
      </trkpt>
      <trkpt lat="42.692889" lon="-2.735469">
        <ele>643.637</ele>
        <time>2022-07-08T19:17:16Z</time>
      </trkpt>
      <trkpt lat="42.692954" lon="-2.735477">
        <ele>642.379</ele>
        <time>2022-07-08T19:17:17Z</time>
      </trkpt>
      <trkpt lat="42.693020" lon="-2.735494">
        <ele>641.967</ele>
        <time>2022-07-08T19:17:18Z</time>
      </trkpt>
      <trkpt lat="42.693086" lon="-2.735524">
        <ele>640.581</ele>
        <time>2022-07-08T19:17:19Z</time>
      </trkpt>
      <trkpt lat="42.693159" lon="-2.735562">
        <ele>639.819</ele>
        <time>2022-07-08T19:17:20Z</time>
      </trkpt>
      <trkpt lat="42.693230" lon="-2.735605">
        <ele>639.409</ele>
        <time>2022-07-08T19:17:21Z</time>
      </trkpt>
      <trkpt lat="42.693302" lon="-2.735672">
        <ele>638.647</ele>
        <time>2022-07-08T19:17:22Z</time>
      </trkpt>
      <trkpt lat="42.693376" lon="-2.735739">
        <ele>637.986</ele>
        <time>2022-07-08T19:17:23Z</time>
      </trkpt>
      <trkpt lat="42.693452" lon="-2.735812">
        <ele>637.123</ele>
        <time>2022-07-08T19:17:24Z</time>
      </trkpt>
      <trkpt lat="42.693532" lon="-2.735894">
        <ele>636.239</ele>
        <time>2022-07-08T19:17:25Z</time>
      </trkpt>
      <trkpt lat="42.693622" lon="-2.735990">
        <ele>635.915</ele>
        <time>2022-07-08T19:17:26Z</time>
      </trkpt>
      <trkpt lat="42.693690" lon="-2.736060">
        <ele>635.411</ele>
        <time>2022-07-08T19:17:27Z</time>
      </trkpt>
      <trkpt lat="42.693756" lon="-2.736128">
        <ele>634.691</ele>
        <time>2022-07-08T19:17:28Z</time>
      </trkpt>
      <trkpt lat="42.693818" lon="-2.736196">
        <ele>634.458</ele>
        <time>2022-07-08T19:17:29Z</time>
      </trkpt>
      <trkpt lat="42.693887" lon="-2.736274">
        <ele>633.790</ele>
        <time>2022-07-08T19:17:30Z</time>
      </trkpt>
      <trkpt lat="42.693958" lon="-2.736336">
        <ele>632.863</ele>
        <time>2022-07-08T19:17:31Z</time>
      </trkpt>
      <trkpt lat="42.694022" lon="-2.736402">
        <ele>632.344</ele>
        <time>2022-07-08T19:17:32Z</time>
      </trkpt>
      <trkpt lat="42.694079" lon="-2.736467">
        <ele>632.318</ele>
        <time>2022-07-08T19:17:33Z</time>
      </trkpt>
      <trkpt lat="42.694134" lon="-2.736527">
        <ele>632.109</ele>
        <time>2022-07-08T19:17:34Z</time>
      </trkpt>
      <trkpt lat="42.694182" lon="-2.736583">
        <ele>631.967</ele>
        <time>2022-07-08T19:17:35Z</time>
      </trkpt>
      <trkpt lat="42.694228" lon="-2.736635">
        <ele>631.916</ele>
        <time>2022-07-08T19:17:36Z</time>
      </trkpt>
      <trkpt lat="42.694271" lon="-2.736688">
        <ele>631.993</ele>
        <time>2022-07-08T19:17:37Z</time>
      </trkpt>
      <trkpt lat="42.694312" lon="-2.736732">
        <ele>631.969</ele>
        <time>2022-07-08T19:17:38Z</time>
      </trkpt>
      <trkpt lat="42.694380" lon="-2.736803">
        <ele>631.975</ele>
        <time>2022-07-08T19:17:40Z</time>
      </trkpt>
      <trkpt lat="42.694433" lon="-2.736872">
        <ele>632.041</ele>
        <time>2022-07-08T19:17:42Z</time>
      </trkpt>
      <trkpt lat="42.694484" lon="-2.736944">
        <ele>632.121</ele>
        <time>2022-07-08T19:17:44Z</time>
      </trkpt>
      <trkpt lat="42.694538" lon="-2.737003">
        <ele>632.288</ele>
        <time>2022-07-08T19:17:46Z</time>
      </trkpt>
      <trkpt lat="42.694587" lon="-2.737048">
        <ele>632.630</ele>
        <time>2022-07-08T19:17:48Z</time>
      </trkpt>
      <trkpt lat="42.694636" lon="-2.737100">
        <ele>632.973</ele>
        <time>2022-07-08T19:17:50Z</time>
      </trkpt>
      <trkpt lat="42.694678" lon="-2.737147">
        <ele>633.685</ele>
        <time>2022-07-08T19:17:52Z</time>
      </trkpt>
      <trkpt lat="42.694720" lon="-2.737188">
        <ele>633.813</ele>
        <time>2022-07-08T19:17:54Z</time>
      </trkpt>
      <trkpt lat="42.694763" lon="-2.737229">
        <ele>634.009</ele>
        <time>2022-07-08T19:17:56Z</time>
      </trkpt>
      <trkpt lat="42.694810" lon="-2.737277">
        <ele>634.538</ele>
        <time>2022-07-08T19:17:58Z</time>
      </trkpt>
      <trkpt lat="42.694862" lon="-2.737323">
        <ele>634.917</ele>
        <time>2022-07-08T19:18:00Z</time>
      </trkpt>
      <trkpt lat="42.694914" lon="-2.737362">
        <ele>635.364</ele>
        <time>2022-07-08T19:18:02Z</time>
      </trkpt>
      <trkpt lat="42.694962" lon="-2.737401">
        <ele>635.690</ele>
        <time>2022-07-08T19:18:04Z</time>
      </trkpt>
      <trkpt lat="42.695004" lon="-2.737442">
        <ele>636.096</ele>
        <time>2022-07-08T19:18:06Z</time>
      </trkpt>
      <trkpt lat="42.695040" lon="-2.737481">
        <ele>636.642</ele>
        <time>2022-07-08T19:18:08Z</time>
      </trkpt>
      <trkpt lat="42.695076" lon="-2.737529">
        <ele>636.952</ele>
        <time>2022-07-08T19:18:10Z</time>
      </trkpt>
      <trkpt lat="42.695117" lon="-2.737581">
        <ele>637.359</ele>
        <time>2022-07-08T19:18:12Z</time>
      </trkpt>
      <trkpt lat="42.695158" lon="-2.737629">
        <ele>637.561</ele>
        <time>2022-07-08T19:18:14Z</time>
      </trkpt>
      <trkpt lat="42.695199" lon="-2.737680">
        <ele>637.716</ele>
        <time>2022-07-08T19:18:16Z</time>
      </trkpt>
      <trkpt lat="42.695238" lon="-2.737728">
        <ele>638.176</ele>
        <time>2022-07-08T19:18:18Z</time>
      </trkpt>
      <trkpt lat="42.695273" lon="-2.737776">
        <ele>638.313</ele>
        <time>2022-07-08T19:18:20Z</time>
      </trkpt>
      <trkpt lat="42.695306" lon="-2.737822">
        <ele>638.709</ele>
        <time>2022-07-08T19:18:22Z</time>
      </trkpt>
      <trkpt lat="42.695341" lon="-2.737869">
        <ele>639.242</ele>
        <time>2022-07-08T19:18:24Z</time>
      </trkpt>
      <trkpt lat="42.695375" lon="-2.737916">
        <ele>639.631</ele>
        <time>2022-07-08T19:18:26Z</time>
      </trkpt>
      <trkpt lat="42.695409" lon="-2.737964">
        <ele>639.858</ele>
        <time>2022-07-08T19:18:28Z</time>
      </trkpt>
      <trkpt lat="42.695437" lon="-2.738012">
        <ele>640.064</ele>
        <time>2022-07-08T19:18:30Z</time>
      </trkpt>
      <trkpt lat="42.695476" lon="-2.738059">
        <ele>640.220</ele>
        <time>2022-07-08T19:18:32Z</time>
      </trkpt>
      <trkpt lat="42.695527" lon="-2.738108">
        <ele>640.696</ele>
        <time>2022-07-08T19:18:35Z</time>
      </trkpt>
      <trkpt lat="42.695577" lon="-2.738147">
        <ele>641.226</ele>
        <time>2022-07-08T19:18:38Z</time>
      </trkpt>
      <trkpt lat="42.695633" lon="-2.738185">
        <ele>642.393</ele>
        <time>2022-07-08T19:18:41Z</time>
      </trkpt>
      <trkpt lat="42.695701" lon="-2.738208">
        <ele>642.985</ele>
        <time>2022-07-08T19:18:44Z</time>
      </trkpt>
      <trkpt lat="42.695752" lon="-2.738218">
        <ele>643.427</ele>
        <time>2022-07-08T19:18:46Z</time>
      </trkpt>
      <trkpt lat="42.695805" lon="-2.738223">
        <ele>644.068</ele>
        <time>2022-07-08T19:18:48Z</time>
      </trkpt>
      <trkpt lat="42.695861" lon="-2.738237">
        <ele>644.214</ele>
        <time>2022-07-08T19:18:50Z</time>
      </trkpt>
      <trkpt lat="42.695918" lon="-2.738267">
        <ele>644.309</ele>
        <time>2022-07-08T19:18:52Z</time>
      </trkpt>
      <trkpt lat="42.695969" lon="-2.738304">
        <ele>644.583</ele>
        <time>2022-07-08T19:18:54Z</time>
      </trkpt>
      <trkpt lat="42.696019" lon="-2.738347">
        <ele>644.512</ele>
        <time>2022-07-08T19:18:56Z</time>
      </trkpt>
      <trkpt lat="42.696067" lon="-2.738391">
        <ele>644.549</ele>
        <time>2022-07-08T19:18:58Z</time>
      </trkpt>
      <trkpt lat="42.696115" lon="-2.738436">
        <ele>644.615</ele>
        <time>2022-07-08T19:19:00Z</time>
      </trkpt>
      <trkpt lat="42.696159" lon="-2.738490">
        <ele>644.861</ele>
        <time>2022-07-08T19:19:02Z</time>
      </trkpt>
      <trkpt lat="42.696200" lon="-2.738550">
        <ele>645.017</ele>
        <time>2022-07-08T19:19:04Z</time>
      </trkpt>
      <trkpt lat="42.696238" lon="-2.738604">
        <ele>645.367</ele>
        <time>2022-07-08T19:19:06Z</time>
      </trkpt>
      <trkpt lat="42.696270" lon="-2.738650">
        <ele>645.944</ele>
        <time>2022-07-08T19:19:08Z</time>
      </trkpt>
      <trkpt lat="42.696307" lon="-2.738712">
        <ele>646.396</ele>
        <time>2022-07-08T19:19:11Z</time>
      </trkpt>
      <trkpt lat="42.696351" lon="-2.738777">
        <ele>646.748</ele>
        <time>2022-07-08T19:19:14Z</time>
      </trkpt>
      <trkpt lat="42.696387" lon="-2.738843">
        <ele>647.261</ele>
        <time>2022-07-08T19:19:17Z</time>
      </trkpt>
      <trkpt lat="42.696422" lon="-2.738905">
        <ele>647.517</ele>
        <time>2022-07-08T19:19:20Z</time>
      </trkpt>
      <trkpt lat="42.696447" lon="-2.738964">
        <ele>647.609</ele>
        <time>2022-07-08T19:19:23Z</time>
      </trkpt>
      <trkpt lat="42.696474" lon="-2.739025">
        <ele>648.335</ele>
        <time>2022-07-08T19:19:26Z</time>
      </trkpt>
      <trkpt lat="42.696503" lon="-2.739093">
        <ele>648.614</ele>
        <time>2022-07-08T19:19:29Z</time>
      </trkpt>
      <trkpt lat="42.696532" lon="-2.739171">
        <ele>649.221</ele>
        <time>2022-07-08T19:19:32Z</time>
      </trkpt>
      <trkpt lat="42.696552" lon="-2.739229">
        <ele>649.717</ele>
        <time>2022-07-08T19:19:34Z</time>
      </trkpt>
      <trkpt lat="42.696589" lon="-2.739306">
        <ele>650.583</ele>
        <time>2022-07-08T19:19:37Z</time>
      </trkpt>
      <trkpt lat="42.696610" lon="-2.739362">
        <ele>650.999</ele>
        <time>2022-07-08T19:19:39Z</time>
      </trkpt>
      <trkpt lat="42.696630" lon="-2.739418">
        <ele>651.279</ele>
        <time>2022-07-08T19:19:41Z</time>
      </trkpt>
      <trkpt lat="42.696651" lon="-2.739478">
        <ele>651.346</ele>
        <time>2022-07-08T19:19:43Z</time>
      </trkpt>
      <trkpt lat="42.696670" lon="-2.739542">
        <ele>651.418</ele>
        <time>2022-07-08T19:19:45Z</time>
      </trkpt>
      <trkpt lat="42.696690" lon="-2.739612">
        <ele>651.411</ele>
        <time>2022-07-08T19:19:47Z</time>
      </trkpt>
      <trkpt lat="42.696703" lon="-2.739695">
        <ele>651.521</ele>
        <time>2022-07-08T19:19:49Z</time>
      </trkpt>
      <trkpt lat="42.696727" lon="-2.739799">
        <ele>651.803</ele>
        <time>2022-07-08T19:19:51Z</time>
      </trkpt>
      <trkpt lat="42.696748" lon="-2.739890">
        <ele>651.809</ele>
        <time>2022-07-08T19:19:53Z</time>
      </trkpt>
      <trkpt lat="42.696766" lon="-2.739973">
        <ele>651.822</ele>
        <time>2022-07-08T19:19:55Z</time>
      </trkpt>
      <trkpt lat="42.696790" lon="-2.740057">
        <ele>651.861</ele>
        <time>2022-07-08T19:19:57Z</time>
      </trkpt>
      <trkpt lat="42.696828" lon="-2.740132">
        <ele>651.878</ele>
        <time>2022-07-08T19:19:59Z</time>
      </trkpt>
      <trkpt lat="42.696866" lon="-2.740184">
        <ele>651.944</ele>
        <time>2022-07-08T19:20:01Z</time>
      </trkpt>
      <trkpt lat="42.696903" lon="-2.740236">
        <ele>652.160</ele>
        <time>2022-07-08T19:20:03Z</time>
      </trkpt>
      <trkpt lat="42.696940" lon="-2.740288">
        <ele>652.256</ele>
        <time>2022-07-08T19:20:05Z</time>
      </trkpt>
      <trkpt lat="42.696983" lon="-2.740327">
        <ele>652.626</ele>
        <time>2022-07-08T19:20:07Z</time>
      </trkpt>
      <trkpt lat="42.697031" lon="-2.740361">
        <ele>652.883</ele>
        <time>2022-07-08T19:20:09Z</time>
      </trkpt>
      <trkpt lat="42.697074" lon="-2.740385">
        <ele>653.385</ele>
        <time>2022-07-08T19:20:11Z</time>
      </trkpt>
      <trkpt lat="42.697124" lon="-2.740403">
        <ele>653.566</ele>
        <time>2022-07-08T19:20:14Z</time>
      </trkpt>
      <trkpt lat="42.697166" lon="-2.740456">
        <ele>653.529</ele>
        <time>2022-07-08T19:21:05Z</time>
      </trkpt>
      <trkpt lat="42.697220" lon="-2.740509">
        <ele>653.521</ele>
        <time>2022-07-08T19:21:07Z</time>
      </trkpt>
      <trkpt lat="42.697289" lon="-2.740571">
        <ele>653.409</ele>
        <time>2022-07-08T19:21:09Z</time>
      </trkpt>
      <trkpt lat="42.697330" lon="-2.740614">
        <ele>653.387</ele>
        <time>2022-07-08T19:21:10Z</time>
      </trkpt>
      <trkpt lat="42.697376" lon="-2.740647">
        <ele>653.286</ele>
        <time>2022-07-08T19:21:11Z</time>
      </trkpt>
      <trkpt lat="42.697420" lon="-2.740682">
        <ele>653.143</ele>
        <time>2022-07-08T19:21:12Z</time>
      </trkpt>
      <trkpt lat="42.697461" lon="-2.740730">
        <ele>652.899</ele>
        <time>2022-07-08T19:21:13Z</time>
      </trkpt>
      <trkpt lat="42.697506" lon="-2.740780">
        <ele>652.795</ele>
        <time>2022-07-08T19:21:14Z</time>
      </trkpt>
      <trkpt lat="42.697550" lon="-2.740830">
        <ele>652.451</ele>
        <time>2022-07-08T19:21:15Z</time>
      </trkpt>
      <trkpt lat="42.697602" lon="-2.740883">
        <ele>652.261</ele>
        <time>2022-07-08T19:21:16Z</time>
      </trkpt>
      <trkpt lat="42.697655" lon="-2.740938">
        <ele>651.868</ele>
        <time>2022-07-08T19:21:17Z</time>
      </trkpt>
      <trkpt lat="42.697714" lon="-2.740994">
        <ele>651.610</ele>
        <time>2022-07-08T19:21:18Z</time>
      </trkpt>
      <trkpt lat="42.697772" lon="-2.741043">
        <ele>651.013</ele>
        <time>2022-07-08T19:21:19Z</time>
      </trkpt>
      <trkpt lat="42.697835" lon="-2.741101">
        <ele>650.743</ele>
        <time>2022-07-08T19:21:20Z</time>
      </trkpt>
      <trkpt lat="42.697898" lon="-2.741144">
        <ele>650.507</ele>
        <time>2022-07-08T19:21:21Z</time>
      </trkpt>
      <trkpt lat="42.697962" lon="-2.741194">
        <ele>650.109</ele>
        <time>2022-07-08T19:21:22Z</time>
      </trkpt>
      <trkpt lat="42.698028" lon="-2.741235">
        <ele>649.612</ele>
        <time>2022-07-08T19:21:23Z</time>
      </trkpt>
      <trkpt lat="42.698097" lon="-2.741265">
        <ele>649.171</ele>
        <time>2022-07-08T19:21:24Z</time>
      </trkpt>
      <trkpt lat="42.698166" lon="-2.741299">
        <ele>648.628</ele>
        <time>2022-07-08T19:21:25Z</time>
      </trkpt>
      <trkpt lat="42.698232" lon="-2.741326">
        <ele>647.934</ele>
        <time>2022-07-08T19:21:26Z</time>
      </trkpt>
      <trkpt lat="42.698297" lon="-2.741330">
        <ele>647.430</ele>
        <time>2022-07-08T19:21:27Z</time>
      </trkpt>
      <trkpt lat="42.698367" lon="-2.741331">
        <ele>647.036</ele>
        <time>2022-07-08T19:21:28Z</time>
      </trkpt>
      <trkpt lat="42.698433" lon="-2.741307">
        <ele>646.646</ele>
        <time>2022-07-08T19:21:29Z</time>
      </trkpt>
      <trkpt lat="42.698501" lon="-2.741277">
        <ele>646.353</ele>
        <time>2022-07-08T19:21:30Z</time>
      </trkpt>
      <trkpt lat="42.698566" lon="-2.741232">
        <ele>646.015</ele>
        <time>2022-07-08T19:21:31Z</time>
      </trkpt>
      <trkpt lat="42.698624" lon="-2.741181">
        <ele>645.618</ele>
        <time>2022-07-08T19:21:32Z</time>
      </trkpt>
      <trkpt lat="42.698686" lon="-2.741135">
        <ele>645.398</ele>
        <time>2022-07-08T19:21:33Z</time>
      </trkpt>
      <trkpt lat="42.698749" lon="-2.741098">
        <ele>644.917</ele>
        <time>2022-07-08T19:21:34Z</time>
      </trkpt>
      <trkpt lat="42.698805" lon="-2.741056">
        <ele>644.709</ele>
        <time>2022-07-08T19:21:35Z</time>
      </trkpt>
      <trkpt lat="42.698861" lon="-2.741012">
        <ele>644.742</ele>
        <time>2022-07-08T19:21:36Z</time>
      </trkpt>
      <trkpt lat="42.698924" lon="-2.740985">
        <ele>644.311</ele>
        <time>2022-07-08T19:21:37Z</time>
      </trkpt>
      <trkpt lat="42.698984" lon="-2.740945">
        <ele>644.138</ele>
        <time>2022-07-08T19:21:38Z</time>
      </trkpt>
      <trkpt lat="42.699044" lon="-2.740913">
        <ele>643.794</ele>
        <time>2022-07-08T19:21:39Z</time>
      </trkpt>
      <trkpt lat="42.699102" lon="-2.740894">
        <ele>643.260</ele>
        <time>2022-07-08T19:21:40Z</time>
      </trkpt>
      <trkpt lat="42.699171" lon="-2.740916">
        <ele>642.946</ele>
        <time>2022-07-08T19:21:41Z</time>
      </trkpt>
      <trkpt lat="42.699235" lon="-2.740932">
        <ele>642.686</ele>
        <time>2022-07-08T19:21:42Z</time>
      </trkpt>
      <trkpt lat="42.699288" lon="-2.740961">
        <ele>642.173</ele>
        <time>2022-07-08T19:21:43Z</time>
      </trkpt>
      <trkpt lat="42.699365" lon="-2.741008">
        <ele>641.755</ele>
        <time>2022-07-08T19:21:44Z</time>
      </trkpt>
      <trkpt lat="42.699442" lon="-2.741065">
        <ele>641.389</ele>
        <time>2022-07-08T19:21:45Z</time>
      </trkpt>
      <trkpt lat="42.699511" lon="-2.741112">
        <ele>640.606</ele>
        <time>2022-07-08T19:21:46Z</time>
      </trkpt>
      <trkpt lat="42.699584" lon="-2.741164">
        <ele>640.026</ele>
        <time>2022-07-08T19:21:47Z</time>
      </trkpt>
      <trkpt lat="42.699655" lon="-2.741215">
        <ele>639.509</ele>
        <time>2022-07-08T19:21:48Z</time>
      </trkpt>
      <trkpt lat="42.699724" lon="-2.741265">
        <ele>638.889</ele>
        <time>2022-07-08T19:21:49Z</time>
      </trkpt>
      <trkpt lat="42.699801" lon="-2.741320">
        <ele>638.288</ele>
        <time>2022-07-08T19:21:50Z</time>
      </trkpt>
      <trkpt lat="42.699870" lon="-2.741374">
        <ele>637.665</ele>
        <time>2022-07-08T19:21:51Z</time>
      </trkpt>
      <trkpt lat="42.699936" lon="-2.741422">
        <ele>637.111</ele>
        <time>2022-07-08T19:21:52Z</time>
      </trkpt>
      <trkpt lat="42.700005" lon="-2.741470">
        <ele>636.767</ele>
        <time>2022-07-08T19:21:53Z</time>
      </trkpt>
      <trkpt lat="42.700073" lon="-2.741523">
        <ele>636.343</ele>
        <time>2022-07-08T19:21:54Z</time>
      </trkpt>
      <trkpt lat="42.700136" lon="-2.741574">
        <ele>635.933</ele>
        <time>2022-07-08T19:21:55Z</time>
      </trkpt>
      <trkpt lat="42.700195" lon="-2.741616">
        <ele>635.580</ele>
        <time>2022-07-08T19:21:56Z</time>
      </trkpt>
      <trkpt lat="42.700250" lon="-2.741666">
        <ele>635.122</ele>
        <time>2022-07-08T19:21:57Z</time>
      </trkpt>
      <trkpt lat="42.700297" lon="-2.741699">
        <ele>634.957</ele>
        <time>2022-07-08T19:21:58Z</time>
      </trkpt>
      <trkpt lat="42.700377" lon="-2.741715">
        <ele>634.200</ele>
        <time>2022-07-08T19:22:00Z</time>
      </trkpt>
      <trkpt lat="42.700444" lon="-2.741661">
        <ele>633.720</ele>
        <time>2022-07-08T19:22:02Z</time>
      </trkpt>
      <trkpt lat="42.700462" lon="-2.741547">
        <ele>632.909</ele>
        <time>2022-07-08T19:22:04Z</time>
      </trkpt>
      <trkpt lat="42.700466" lon="-2.741424">
        <ele>632.666</ele>
        <time>2022-07-08T19:22:06Z</time>
      </trkpt>
      <trkpt lat="42.700500" lon="-2.741319">
        <ele>632.575</ele>
        <time>2022-07-08T19:22:08Z</time>
      </trkpt>
      <trkpt lat="42.700518" lon="-2.741205">
        <ele>632.262</ele>
        <time>2022-07-08T19:22:10Z</time>
      </trkpt>
      <trkpt lat="42.700541" lon="-2.741095">
        <ele>632.038</ele>
        <time>2022-07-08T19:22:12Z</time>
      </trkpt>
      <trkpt lat="42.700566" lon="-2.740989">
        <ele>632.034</ele>
        <time>2022-07-08T19:22:14Z</time>
      </trkpt>
      <trkpt lat="42.700604" lon="-2.740881">
        <ele>632.020</ele>
        <time>2022-07-08T19:22:16Z</time>
      </trkpt>
      <trkpt lat="42.700624" lon="-2.740819">
        <ele>632.030</ele>
        <time>2022-07-08T19:22:17Z</time>
      </trkpt>
      <trkpt lat="42.700643" lon="-2.740763">
        <ele>632.017</ele>
        <time>2022-07-08T19:22:18Z</time>
      </trkpt>
      <trkpt lat="42.700679" lon="-2.740700">
        <ele>631.849</ele>
        <time>2022-07-08T19:22:19Z</time>
      </trkpt>
      <trkpt lat="42.700709" lon="-2.740637">
        <ele>631.513</ele>
        <time>2022-07-08T19:22:20Z</time>
      </trkpt>
      <trkpt lat="42.700745" lon="-2.740580">
        <ele>631.443</ele>
        <time>2022-07-08T19:22:21Z</time>
      </trkpt>
      <trkpt lat="42.700769" lon="-2.740515">
        <ele>631.207</ele>
        <time>2022-07-08T19:22:22Z</time>
      </trkpt>
      <trkpt lat="42.700801" lon="-2.740459">
        <ele>631.009</ele>
        <time>2022-07-08T19:22:23Z</time>
      </trkpt>
      <trkpt lat="42.700827" lon="-2.740396">
        <ele>631.042</ele>
        <time>2022-07-08T19:22:24Z</time>
      </trkpt>
      <trkpt lat="42.700859" lon="-2.740329">
        <ele>630.891</ele>
        <time>2022-07-08T19:22:25Z</time>
      </trkpt>
      <trkpt lat="42.700886" lon="-2.740256">
        <ele>630.628</ele>
        <time>2022-07-08T19:22:26Z</time>
      </trkpt>
      <trkpt lat="42.700916" lon="-2.740177">
        <ele>630.414</ele>
        <time>2022-07-08T19:22:27Z</time>
      </trkpt>
      <trkpt lat="42.700941" lon="-2.740108">
        <ele>630.240</ele>
        <time>2022-07-08T19:22:28Z</time>
      </trkpt>
      <trkpt lat="42.700967" lon="-2.740028">
        <ele>630.016</ele>
        <time>2022-07-08T19:22:29Z</time>
      </trkpt>
      <trkpt lat="42.700992" lon="-2.739951">
        <ele>629.746</ele>
        <time>2022-07-08T19:22:30Z</time>
      </trkpt>
      <trkpt lat="42.701017" lon="-2.739898">
        <ele>629.673</ele>
        <time>2022-07-08T19:22:31Z</time>
      </trkpt>
      <trkpt lat="42.701028" lon="-2.739816">
        <ele>629.425</ele>
        <time>2022-07-08T19:22:32Z</time>
      </trkpt>
      <trkpt lat="42.701039" lon="-2.739751">
        <ele>629.348</ele>
        <time>2022-07-08T19:22:33Z</time>
      </trkpt>
      <trkpt lat="42.701059" lon="-2.739682">
        <ele>629.161</ele>
        <time>2022-07-08T19:22:34Z</time>
      </trkpt>
      <trkpt lat="42.701075" lon="-2.739613">
        <ele>629.117</ele>
        <time>2022-07-08T19:22:35Z</time>
      </trkpt>
      <trkpt lat="42.701091" lon="-2.739542">
        <ele>628.909</ele>
        <time>2022-07-08T19:22:36Z</time>
      </trkpt>
      <trkpt lat="42.701103" lon="-2.739459">
        <ele>628.865</ele>
        <time>2022-07-08T19:22:37Z</time>
      </trkpt>
      <trkpt lat="42.701112" lon="-2.739388">
        <ele>628.594</ele>
        <time>2022-07-08T19:22:38Z</time>
      </trkpt>
      <trkpt lat="42.701123" lon="-2.739306">
        <ele>628.391</ele>
        <time>2022-07-08T19:22:39Z</time>
      </trkpt>
      <trkpt lat="42.701138" lon="-2.739237">
        <ele>627.917</ele>
        <time>2022-07-08T19:22:40Z</time>
      </trkpt>
      <trkpt lat="42.701158" lon="-2.739124">
        <ele>627.623</ele>
        <time>2022-07-08T19:22:42Z</time>
      </trkpt>
      <trkpt lat="42.701169" lon="-2.739044">
        <ele>627.239</ele>
        <time>2022-07-08T19:22:43Z</time>
      </trkpt>
      <trkpt lat="42.701181" lon="-2.738964">
        <ele>626.719</ele>
        <time>2022-07-08T19:22:44Z</time>
      </trkpt>
      <trkpt lat="42.701192" lon="-2.738886">
        <ele>626.736</ele>
        <time>2022-07-08T19:22:45Z</time>
      </trkpt>
      <trkpt lat="42.701207" lon="-2.738813">
        <ele>626.518</ele>
        <time>2022-07-08T19:22:46Z</time>
      </trkpt>
      <trkpt lat="42.701215" lon="-2.738735">
        <ele>626.477</ele>
        <time>2022-07-08T19:22:47Z</time>
      </trkpt>
      <trkpt lat="42.701219" lon="-2.738662">
        <ele>626.361</ele>
        <time>2022-07-08T19:22:48Z</time>
      </trkpt>
      <trkpt lat="42.701231" lon="-2.738573">
        <ele>626.027</ele>
        <time>2022-07-08T19:22:49Z</time>
      </trkpt>
      <trkpt lat="42.701242" lon="-2.738500">
        <ele>626.009</ele>
        <time>2022-07-08T19:22:50Z</time>
      </trkpt>
      <trkpt lat="42.701253" lon="-2.738428">
        <ele>625.678</ele>
        <time>2022-07-08T19:22:51Z</time>
      </trkpt>
      <trkpt lat="42.701257" lon="-2.738363">
        <ele>625.497</ele>
        <time>2022-07-08T19:22:52Z</time>
      </trkpt>
      <trkpt lat="42.701263" lon="-2.738276">
        <ele>625.254</ele>
        <time>2022-07-08T19:22:53Z</time>
      </trkpt>
      <trkpt lat="42.701260" lon="-2.738196">
        <ele>625.170</ele>
        <time>2022-07-08T19:22:54Z</time>
      </trkpt>
      <trkpt lat="42.701265" lon="-2.738070">
        <ele>625.166</ele>
        <time>2022-07-08T19:22:56Z</time>
      </trkpt>
      <trkpt lat="42.701266" lon="-2.737987">
        <ele>625.192</ele>
        <time>2022-07-08T19:22:57Z</time>
      </trkpt>
      <trkpt lat="42.701276" lon="-2.737916">
        <ele>625.122</ele>
        <time>2022-07-08T19:22:58Z</time>
      </trkpt>
      <trkpt lat="42.701284" lon="-2.737842">
        <ele>625.179</ele>
        <time>2022-07-08T19:22:59Z</time>
      </trkpt>
      <trkpt lat="42.701291" lon="-2.737761">
        <ele>625.191</ele>
        <time>2022-07-08T19:23:00Z</time>
      </trkpt>
      <trkpt lat="42.701296" lon="-2.737691">
        <ele>625.133</ele>
        <time>2022-07-08T19:23:01Z</time>
      </trkpt>
      <trkpt lat="42.701323" lon="-2.737581">
        <ele>625.123</ele>
        <time>2022-07-08T19:23:03Z</time>
      </trkpt>
      <trkpt lat="42.701353" lon="-2.737462">
        <ele>625.015</ele>
        <time>2022-07-08T19:23:05Z</time>
      </trkpt>
      <trkpt lat="42.701372" lon="-2.737395">
        <ele>624.809</ele>
        <time>2022-07-08T19:23:06Z</time>
      </trkpt>
      <trkpt lat="42.701395" lon="-2.737323">
        <ele>624.794</ele>
        <time>2022-07-08T19:23:07Z</time>
      </trkpt>
      <trkpt lat="42.701423" lon="-2.737248">
        <ele>624.743</ele>
        <time>2022-07-08T19:23:08Z</time>
      </trkpt>
      <trkpt lat="42.701442" lon="-2.737189">
        <ele>624.430</ele>
        <time>2022-07-08T19:23:09Z</time>
      </trkpt>
      <trkpt lat="42.701466" lon="-2.737120">
        <ele>624.296</ele>
        <time>2022-07-08T19:23:10Z</time>
      </trkpt>
      <trkpt lat="42.701485" lon="-2.737052">
        <ele>624.052</ele>
        <time>2022-07-08T19:23:11Z</time>
      </trkpt>
      <trkpt lat="42.701496" lon="-2.736981">
        <ele>623.958</ele>
        <time>2022-07-08T19:23:12Z</time>
      </trkpt>
      <trkpt lat="42.701515" lon="-2.736914">
        <ele>623.768</ele>
        <time>2022-07-08T19:23:13Z</time>
      </trkpt>
      <trkpt lat="42.701528" lon="-2.736846">
        <ele>623.575</ele>
        <time>2022-07-08T19:23:14Z</time>
      </trkpt>
      <trkpt lat="42.701544" lon="-2.736785">
        <ele>623.597</ele>
        <time>2022-07-08T19:23:15Z</time>
      </trkpt>
      <trkpt lat="42.701561" lon="-2.736721">
        <ele>623.431</ele>
        <time>2022-07-08T19:23:16Z</time>
      </trkpt>
      <trkpt lat="42.701596" lon="-2.736608">
        <ele>623.061</ele>
        <time>2022-07-08T19:23:18Z</time>
      </trkpt>
      <trkpt lat="42.701618" lon="-2.736544">
        <ele>622.907</ele>
        <time>2022-07-08T19:23:19Z</time>
      </trkpt>
      <trkpt lat="42.701631" lon="-2.736478">
        <ele>622.609</ele>
        <time>2022-07-08T19:23:20Z</time>
      </trkpt>
      <trkpt lat="42.701639" lon="-2.736407">
        <ele>622.574</ele>
        <time>2022-07-08T19:23:21Z</time>
      </trkpt>
      <trkpt lat="42.701659" lon="-2.736349">
        <ele>622.363</ele>
        <time>2022-07-08T19:23:22Z</time>
      </trkpt>
      <trkpt lat="42.701679" lon="-2.736289">
        <ele>622.280</ele>
        <time>2022-07-08T19:23:23Z</time>
      </trkpt>
      <trkpt lat="42.701698" lon="-2.736227">
        <ele>622.026</ele>
        <time>2022-07-08T19:23:24Z</time>
      </trkpt>
      <trkpt lat="42.701711" lon="-2.736163">
        <ele>621.932</ele>
        <time>2022-07-08T19:23:25Z</time>
      </trkpt>
      <trkpt lat="42.701727" lon="-2.736095">
        <ele>621.788</ele>
        <time>2022-07-08T19:23:26Z</time>
      </trkpt>
      <trkpt lat="42.701752" lon="-2.736022">
        <ele>621.628</ele>
        <time>2022-07-08T19:23:27Z</time>
      </trkpt>
      <trkpt lat="42.701767" lon="-2.735951">
        <ele>621.625</ele>
        <time>2022-07-08T19:23:28Z</time>
      </trkpt>
      <trkpt lat="42.701789" lon="-2.735895">
        <ele>621.517</ele>
        <time>2022-07-08T19:23:29Z</time>
      </trkpt>
      <trkpt lat="42.701809" lon="-2.735839">
        <ele>621.311</ele>
        <time>2022-07-08T19:23:30Z</time>
      </trkpt>
      <trkpt lat="42.701835" lon="-2.735783">
        <ele>621.221</ele>
        <time>2022-07-08T19:23:31Z</time>
      </trkpt>
      <trkpt lat="42.701863" lon="-2.735725">
        <ele>621.103</ele>
        <time>2022-07-08T19:23:32Z</time>
      </trkpt>
      <trkpt lat="42.701898" lon="-2.735668">
        <ele>621.109</ele>
        <time>2022-07-08T19:23:33Z</time>
      </trkpt>
      <trkpt lat="42.701931" lon="-2.735611">
        <ele>621.122</ele>
        <time>2022-07-08T19:23:34Z</time>
      </trkpt>
      <trkpt lat="42.701971" lon="-2.735561">
        <ele>621.141</ele>
        <time>2022-07-08T19:23:35Z</time>
      </trkpt>
      <trkpt lat="42.702011" lon="-2.735510">
        <ele>621.118</ele>
        <time>2022-07-08T19:23:36Z</time>
      </trkpt>
      <trkpt lat="42.702049" lon="-2.735461">
        <ele>621.014</ele>
        <time>2022-07-08T19:23:37Z</time>
      </trkpt>
      <trkpt lat="42.702091" lon="-2.735413">
        <ele>620.740</ele>
        <time>2022-07-08T19:23:38Z</time>
      </trkpt>
      <trkpt lat="42.702132" lon="-2.735357">
        <ele>620.526</ele>
        <time>2022-07-08T19:23:39Z</time>
      </trkpt>
      <trkpt lat="42.702174" lon="-2.735301">
        <ele>620.566</ele>
        <time>2022-07-08T19:23:40Z</time>
      </trkpt>
      <trkpt lat="42.702215" lon="-2.735247">
        <ele>620.413</ele>
        <time>2022-07-08T19:23:41Z</time>
      </trkpt>
      <trkpt lat="42.702261" lon="-2.735193">
        <ele>620.025</ele>
        <time>2022-07-08T19:23:42Z</time>
      </trkpt>
      <trkpt lat="42.702303" lon="-2.735144">
        <ele>619.957</ele>
        <time>2022-07-08T19:23:43Z</time>
      </trkpt>
      <trkpt lat="42.702340" lon="-2.735101">
        <ele>619.800</ele>
        <time>2022-07-08T19:23:44Z</time>
      </trkpt>
      <trkpt lat="42.702378" lon="-2.735059">
        <ele>619.720</ele>
        <time>2022-07-08T19:23:45Z</time>
      </trkpt>
      <trkpt lat="42.702414" lon="-2.735017">
        <ele>619.709</ele>
        <time>2022-07-08T19:23:46Z</time>
      </trkpt>
      <trkpt lat="42.702454" lon="-2.734970">
        <ele>619.746</ele>
        <time>2022-07-08T19:23:47Z</time>
      </trkpt>
      <trkpt lat="42.702493" lon="-2.734924">
        <ele>619.735</ele>
        <time>2022-07-08T19:23:48Z</time>
      </trkpt>
      <trkpt lat="42.702527" lon="-2.734880">
        <ele>619.722</ele>
        <time>2022-07-08T19:23:49Z</time>
      </trkpt>
      <trkpt lat="42.702568" lon="-2.734830">
        <ele>619.778</ele>
        <time>2022-07-08T19:23:50Z</time>
      </trkpt>
      <trkpt lat="42.702637" lon="-2.734750">
        <ele>619.754</ele>
        <time>2022-07-08T19:23:52Z</time>
      </trkpt>
      <trkpt lat="42.702678" lon="-2.734707">
        <ele>619.640</ele>
        <time>2022-07-08T19:23:53Z</time>
      </trkpt>
      <trkpt lat="42.702713" lon="-2.734658">
        <ele>619.630</ele>
        <time>2022-07-08T19:23:54Z</time>
      </trkpt>
      <trkpt lat="42.702753" lon="-2.734613">
        <ele>619.637</ele>
        <time>2022-07-08T19:23:55Z</time>
      </trkpt>
      <trkpt lat="42.702794" lon="-2.734569">
        <ele>619.619</ele>
        <time>2022-07-08T19:23:56Z</time>
      </trkpt>
      <trkpt lat="42.702835" lon="-2.734522">
        <ele>619.647</ele>
        <time>2022-07-08T19:23:57Z</time>
      </trkpt>
      <trkpt lat="42.702873" lon="-2.734477">
        <ele>619.529</ele>
        <time>2022-07-08T19:23:58Z</time>
      </trkpt>
      <trkpt lat="42.702913" lon="-2.734437">
        <ele>619.421</ele>
        <time>2022-07-08T19:23:59Z</time>
      </trkpt>
      <trkpt lat="42.702947" lon="-2.734396">
        <ele>619.309</ele>
        <time>2022-07-08T19:24:00Z</time>
      </trkpt>
      <trkpt lat="42.702986" lon="-2.734349">
        <ele>619.265</ele>
        <time>2022-07-08T19:24:01Z</time>
      </trkpt>
      <trkpt lat="42.703021" lon="-2.734302">
        <ele>619.074</ele>
        <time>2022-07-08T19:24:02Z</time>
      </trkpt>
      <trkpt lat="42.703060" lon="-2.734256">
        <ele>618.831</ele>
        <time>2022-07-08T19:24:03Z</time>
      </trkpt>
      <trkpt lat="42.703100" lon="-2.734215">
        <ele>618.737</ele>
        <time>2022-07-08T19:24:04Z</time>
      </trkpt>
      <trkpt lat="42.703136" lon="-2.734167">
        <ele>618.653</ele>
        <time>2022-07-08T19:24:05Z</time>
      </trkpt>
      <trkpt lat="42.703176" lon="-2.734126">
        <ele>618.549</ele>
        <time>2022-07-08T19:24:06Z</time>
      </trkpt>
      <trkpt lat="42.703216" lon="-2.734086">
        <ele>618.539</ele>
        <time>2022-07-08T19:24:07Z</time>
      </trkpt>
      <trkpt lat="42.703283" lon="-2.734000">
        <ele>618.516</ele>
        <time>2022-07-08T19:24:09Z</time>
      </trkpt>
      <trkpt lat="42.703336" lon="-2.733890">
        <ele>618.598</ele>
        <time>2022-07-08T19:24:11Z</time>
      </trkpt>
      <trkpt lat="42.703367" lon="-2.733771">
        <ele>618.485</ele>
        <time>2022-07-08T19:24:13Z</time>
      </trkpt>
      <trkpt lat="42.703378" lon="-2.733652">
        <ele>618.189</ele>
        <time>2022-07-08T19:24:15Z</time>
      </trkpt>
      <trkpt lat="42.703373" lon="-2.733583">
        <ele>617.917</ele>
        <time>2022-07-08T19:24:16Z</time>
      </trkpt>
      <trkpt lat="42.703372" lon="-2.733508">
        <ele>617.709</ele>
        <time>2022-07-08T19:24:17Z</time>
      </trkpt>
      <trkpt lat="42.703369" lon="-2.733430">
        <ele>617.759</ele>
        <time>2022-07-08T19:24:18Z</time>
      </trkpt>
      <trkpt lat="42.703360" lon="-2.733366">
        <ele>617.718</ele>
        <time>2022-07-08T19:24:19Z</time>
      </trkpt>
      <trkpt lat="42.703353" lon="-2.733251">
        <ele>617.785</ele>
        <time>2022-07-08T19:24:21Z</time>
      </trkpt>
      <trkpt lat="42.703343" lon="-2.733139">
        <ele>618.011</ele>
        <time>2022-07-08T19:24:23Z</time>
      </trkpt>
      <trkpt lat="42.703332" lon="-2.733023">
        <ele>618.087</ele>
        <time>2022-07-08T19:24:25Z</time>
      </trkpt>
      <trkpt lat="42.703324" lon="-2.732895">
        <ele>617.963</ele>
        <time>2022-07-08T19:24:27Z</time>
      </trkpt>
      <trkpt lat="42.703314" lon="-2.732821">
        <ele>617.783</ele>
        <time>2022-07-08T19:24:28Z</time>
      </trkpt>
      <trkpt lat="42.703309" lon="-2.732752">
        <ele>617.680</ele>
        <time>2022-07-08T19:24:29Z</time>
      </trkpt>
      <trkpt lat="42.703304" lon="-2.732630">
        <ele>617.662</ele>
        <time>2022-07-08T19:24:31Z</time>
      </trkpt>
      <trkpt lat="42.703296" lon="-2.732567">
        <ele>617.651</ele>
        <time>2022-07-08T19:24:32Z</time>
      </trkpt>
      <trkpt lat="42.703284" lon="-2.732447">
        <ele>617.701</ele>
        <time>2022-07-08T19:24:34Z</time>
      </trkpt>
      <trkpt lat="42.703273" lon="-2.732336">
        <ele>617.811</ele>
        <time>2022-07-08T19:24:36Z</time>
      </trkpt>
      <trkpt lat="42.703250" lon="-2.732233">
        <ele>617.909</ele>
        <time>2022-07-08T19:24:37Z</time>
      </trkpt>
      <trkpt lat="42.703245" lon="-2.732119">
        <ele>617.976</ele>
        <time>2022-07-08T19:24:39Z</time>
      </trkpt>
      <trkpt lat="42.703237" lon="-2.732017">
        <ele>617.915</ele>
        <time>2022-07-08T19:24:41Z</time>
      </trkpt>
      <trkpt lat="42.703227" lon="-2.731926">
        <ele>617.962</ele>
        <time>2022-07-08T19:24:42Z</time>
      </trkpt>
      <trkpt lat="42.703224" lon="-2.731864">
        <ele>618.018</ele>
        <time>2022-07-08T19:24:43Z</time>
      </trkpt>
      <trkpt lat="42.703221" lon="-2.731800">
        <ele>618.144</ele>
        <time>2022-07-08T19:24:44Z</time>
      </trkpt>
      <trkpt lat="42.703216" lon="-2.731696">
        <ele>618.210</ele>
        <time>2022-07-08T19:24:46Z</time>
      </trkpt>
      <trkpt lat="42.703213" lon="-2.731596">
        <ele>618.320</ele>
        <time>2022-07-08T19:24:48Z</time>
      </trkpt>
      <trkpt lat="42.703203" lon="-2.731491">
        <ele>618.487</ele>
        <time>2022-07-08T19:24:50Z</time>
      </trkpt>
      <trkpt lat="42.703202" lon="-2.731416">
        <ele>618.429</ele>
        <time>2022-07-08T19:24:51Z</time>
      </trkpt>
      <trkpt lat="42.703209" lon="-2.731343">
        <ele>618.451</ele>
        <time>2022-07-08T19:24:52Z</time>
      </trkpt>
      <trkpt lat="42.703215" lon="-2.731249">
        <ele>618.501</ele>
        <time>2022-07-08T19:24:54Z</time>
      </trkpt>
      <trkpt lat="42.703219" lon="-2.731185">
        <ele>618.611</ele>
        <time>2022-07-08T19:24:55Z</time>
      </trkpt>
      <trkpt lat="42.703232" lon="-2.731072">
        <ele>618.709</ele>
        <time>2022-07-08T19:24:57Z</time>
      </trkpt>
      <trkpt lat="42.703258" lon="-2.730970">
        <ele>618.996</ele>
        <time>2022-07-08T19:24:59Z</time>
      </trkpt>
      <trkpt lat="42.703301" lon="-2.730895">
        <ele>619.195</ele>
        <time>2022-07-08T19:25:01Z</time>
      </trkpt>
      <trkpt lat="42.703358" lon="-2.730844">
        <ele>619.442</ele>
        <time>2022-07-08T19:25:03Z</time>
      </trkpt>
      <trkpt lat="42.703428" lon="-2.730805">
        <ele>619.738</ele>
        <time>2022-07-08T19:25:05Z</time>
      </trkpt>
      <trkpt lat="42.703508" lon="-2.730782">
        <ele>619.874</ele>
        <time>2022-07-08T19:25:07Z</time>
      </trkpt>
      <trkpt lat="42.703593" lon="-2.730798">
        <ele>619.880</ele>
        <time>2022-07-08T19:25:09Z</time>
      </trkpt>
      <trkpt lat="42.703635" lon="-2.730778">
        <ele>619.720</ele>
        <time>2022-07-08T19:25:10Z</time>
      </trkpt>
      <trkpt lat="42.703679" lon="-2.730760">
        <ele>619.667</ele>
        <time>2022-07-08T19:25:11Z</time>
      </trkpt>
      <trkpt lat="42.703724" lon="-2.730740">
        <ele>619.659</ele>
        <time>2022-07-08T19:25:12Z</time>
      </trkpt>
      <trkpt lat="42.703768" lon="-2.730723">
        <ele>619.625</ele>
        <time>2022-07-08T19:25:13Z</time>
      </trkpt>
      <trkpt lat="42.703814" lon="-2.730700">
        <ele>619.426</ele>
        <time>2022-07-08T19:25:14Z</time>
      </trkpt>
      <trkpt lat="42.703868" lon="-2.730686">
        <ele>619.208</ele>
        <time>2022-07-08T19:25:15Z</time>
      </trkpt>
      <trkpt lat="42.703920" lon="-2.730658">
        <ele>619.109</ele>
        <time>2022-07-08T19:25:16Z</time>
      </trkpt>
      <trkpt lat="42.703971" lon="-2.730638">
        <ele>619.183</ele>
        <time>2022-07-08T19:25:17Z</time>
      </trkpt>
      <trkpt lat="42.704021" lon="-2.730617">
        <ele>619.152</ele>
        <time>2022-07-08T19:25:18Z</time>
      </trkpt>
      <trkpt lat="42.704073" lon="-2.730593">
        <ele>619.119</ele>
        <time>2022-07-08T19:25:19Z</time>
      </trkpt>
      <trkpt lat="42.704128" lon="-2.730576">
        <ele>619.115</ele>
        <time>2022-07-08T19:25:20Z</time>
      </trkpt>
      <trkpt lat="42.704187" lon="-2.730553">
        <ele>619.071</ele>
        <time>2022-07-08T19:25:21Z</time>
      </trkpt>
      <trkpt lat="42.704240" lon="-2.730534">
        <ele>619.027</ele>
        <time>2022-07-08T19:25:22Z</time>
      </trkpt>
      <trkpt lat="42.704285" lon="-2.730512">
        <ele>618.897</ele>
        <time>2022-07-08T19:25:23Z</time>
      </trkpt>
      <trkpt lat="42.704330" lon="-2.730489">
        <ele>618.734</ele>
        <time>2022-07-08T19:25:24Z</time>
      </trkpt>
      <trkpt lat="42.704419" lon="-2.730442">
        <ele>618.526</ele>
        <time>2022-07-08T19:25:26Z</time>
      </trkpt>
      <trkpt lat="42.704470" lon="-2.730410">
        <ele>618.414</ele>
        <time>2022-07-08T19:25:27Z</time>
      </trkpt>
      <trkpt lat="42.704519" lon="-2.730393">
        <ele>618.254</ele>
        <time>2022-07-08T19:25:28Z</time>
      </trkpt>
      <trkpt lat="42.704606" lon="-2.730349">
        <ele>617.909</ele>
        <time>2022-07-08T19:25:30Z</time>
      </trkpt>
      <trkpt lat="42.704668" lon="-2.730313">
        <ele>617.809</ele>
        <time>2022-07-08T19:25:31Z</time>
      </trkpt>
      <trkpt lat="42.704727" lon="-2.730282">
        <ele>617.252</ele>
        <time>2022-07-08T19:25:32Z</time>
      </trkpt>
      <trkpt lat="42.704822" lon="-2.730257">
        <ele>617.111</ele>
        <time>2022-07-08T19:25:34Z</time>
      </trkpt>
      <trkpt lat="42.704874" lon="-2.730241">
        <ele>617.148</ele>
        <time>2022-07-08T19:25:35Z</time>
      </trkpt>
      <trkpt lat="42.704920" lon="-2.730218">
        <ele>617.134</ele>
        <time>2022-07-08T19:25:36Z</time>
      </trkpt>
      <trkpt lat="42.704983" lon="-2.730184">
        <ele>616.940</ele>
        <time>2022-07-08T19:25:37Z</time>
      </trkpt>
      <trkpt lat="42.705035" lon="-2.730168">
        <ele>616.796</ele>
        <time>2022-07-08T19:25:38Z</time>
      </trkpt>
      <trkpt lat="42.705105" lon="-2.730135">
        <ele>616.546</ele>
        <time>2022-07-08T19:25:39Z</time>
      </trkpt>
      <trkpt lat="42.705161" lon="-2.730115">
        <ele>616.363</ele>
        <time>2022-07-08T19:25:40Z</time>
      </trkpt>
      <trkpt lat="42.705207" lon="-2.730094">
        <ele>616.265</ele>
        <time>2022-07-08T19:25:41Z</time>
      </trkpt>
      <trkpt lat="42.705252" lon="-2.730067">
        <ele>616.183</ele>
        <time>2022-07-08T19:25:42Z</time>
      </trkpt>
      <trkpt lat="42.705304" lon="-2.730045">
        <ele>615.825</ele>
        <time>2022-07-08T19:25:43Z</time>
      </trkpt>
      <trkpt lat="42.705346" lon="-2.730023">
        <ele>615.817</ele>
        <time>2022-07-08T19:25:44Z</time>
      </trkpt>
      <trkpt lat="42.705392" lon="-2.730005">
        <ele>615.809</ele>
        <time>2022-07-08T19:25:45Z</time>
      </trkpt>
      <trkpt lat="42.705444" lon="-2.729982">
        <ele>615.729</ele>
        <time>2022-07-08T19:25:46Z</time>
      </trkpt>
      <trkpt lat="42.705495" lon="-2.729958">
        <ele>615.528</ele>
        <time>2022-07-08T19:25:47Z</time>
      </trkpt>
      <trkpt lat="42.705541" lon="-2.729933">
        <ele>615.365</ele>
        <time>2022-07-08T19:25:48Z</time>
      </trkpt>
      <trkpt lat="42.705593" lon="-2.729906">
        <ele>615.261</ele>
        <time>2022-07-08T19:25:49Z</time>
      </trkpt>
      <trkpt lat="42.705641" lon="-2.729877">
        <ele>615.177</ele>
        <time>2022-07-08T19:25:50Z</time>
      </trkpt>
      <trkpt lat="42.705724" lon="-2.729803">
        <ele>614.983</ele>
        <time>2022-07-08T19:25:52Z</time>
      </trkpt>
      <trkpt lat="42.705769" lon="-2.729765">
        <ele>614.983</ele>
        <time>2022-07-08T19:25:53Z</time>
      </trkpt>
      <trkpt lat="42.705813" lon="-2.729720">
        <ele>614.480</ele>
        <time>2022-07-08T19:25:54Z</time>
      </trkpt>
      <trkpt lat="42.705853" lon="-2.729681">
        <ele>614.422</ele>
        <time>2022-07-08T19:25:55Z</time>
      </trkpt>
      <trkpt lat="42.705896" lon="-2.729635">
        <ele>614.454</ele>
        <time>2022-07-08T19:25:56Z</time>
      </trkpt>
      <trkpt lat="42.705939" lon="-2.729589">
        <ele>614.356</ele>
        <time>2022-07-08T19:25:57Z</time>
      </trkpt>
      <trkpt lat="42.705976" lon="-2.729543">
        <ele>614.211</ele>
        <time>2022-07-08T19:25:58Z</time>
      </trkpt>
      <trkpt lat="42.706011" lon="-2.729495">
        <ele>614.109</ele>
        <time>2022-07-08T19:25:59Z</time>
      </trkpt>
      <trkpt lat="42.706048" lon="-2.729444">
        <ele>613.836</ele>
        <time>2022-07-08T19:26:00Z</time>
      </trkpt>
      <trkpt lat="42.706084" lon="-2.729397">
        <ele>613.555</ele>
        <time>2022-07-08T19:26:01Z</time>
      </trkpt>
      <trkpt lat="42.706124" lon="-2.729355">
        <ele>613.312</ele>
        <time>2022-07-08T19:26:02Z</time>
      </trkpt>
      <trkpt lat="42.706167" lon="-2.729311">
        <ele>613.178</ele>
        <time>2022-07-08T19:26:03Z</time>
      </trkpt>
      <trkpt lat="42.706207" lon="-2.729262">
        <ele>612.934</ele>
        <time>2022-07-08T19:26:04Z</time>
      </trkpt>
      <trkpt lat="42.706246" lon="-2.729220">
        <ele>612.890</ele>
        <time>2022-07-08T19:26:05Z</time>
      </trkpt>
      <trkpt lat="42.706276" lon="-2.729173">
        <ele>612.660</ele>
        <time>2022-07-08T19:26:06Z</time>
      </trkpt>
      <trkpt lat="42.706318" lon="-2.729133">
        <ele>612.447</ele>
        <time>2022-07-08T19:26:07Z</time>
      </trkpt>
      <trkpt lat="42.706357" lon="-2.729093">
        <ele>612.249</ele>
        <time>2022-07-08T19:26:08Z</time>
      </trkpt>
      <trkpt lat="42.706401" lon="-2.729051">
        <ele>612.095</ele>
        <time>2022-07-08T19:26:09Z</time>
      </trkpt>
      <trkpt lat="42.706447" lon="-2.729006">
        <ele>611.849</ele>
        <time>2022-07-08T19:26:10Z</time>
      </trkpt>
      <trkpt lat="42.706495" lon="-2.728957">
        <ele>611.823</ele>
        <time>2022-07-08T19:26:11Z</time>
      </trkpt>
      <trkpt lat="42.706538" lon="-2.728906">
        <ele>611.509</ele>
        <time>2022-07-08T19:26:12Z</time>
      </trkpt>
      <trkpt lat="42.706587" lon="-2.728851">
        <ele>611.390</ele>
        <time>2022-07-08T19:26:13Z</time>
      </trkpt>
      <trkpt lat="42.706627" lon="-2.728805">
        <ele>611.129</ele>
        <time>2022-07-08T19:26:14Z</time>
      </trkpt>
      <trkpt lat="42.706671" lon="-2.728751">
        <ele>611.096</ele>
        <time>2022-07-08T19:26:15Z</time>
      </trkpt>
      <trkpt lat="42.706720" lon="-2.728708">
        <ele>611.032</ele>
        <time>2022-07-08T19:26:16Z</time>
      </trkpt>
      <trkpt lat="42.706767" lon="-2.728658">
        <ele>611.068</ele>
        <time>2022-07-08T19:26:17Z</time>
      </trkpt>
      <trkpt lat="42.706812" lon="-2.728607">
        <ele>611.044</ele>
        <time>2022-07-08T19:26:18Z</time>
      </trkpt>
      <trkpt lat="42.706853" lon="-2.728554">
        <ele>611.024</ele>
        <time>2022-07-08T19:26:19Z</time>
      </trkpt>
      <trkpt lat="42.706893" lon="-2.728496">
        <ele>610.921</ele>
        <time>2022-07-08T19:26:20Z</time>
      </trkpt>
      <trkpt lat="42.706930" lon="-2.728443">
        <ele>610.713</ele>
        <time>2022-07-08T19:26:21Z</time>
      </trkpt>
      <trkpt lat="42.706978" lon="-2.728392">
        <ele>610.543</ele>
        <time>2022-07-08T19:26:22Z</time>
      </trkpt>
      <trkpt lat="42.707024" lon="-2.728343">
        <ele>610.064</ele>
        <time>2022-07-08T19:26:23Z</time>
      </trkpt>
      <trkpt lat="42.707065" lon="-2.728290">
        <ele>609.710</ele>
        <time>2022-07-08T19:26:24Z</time>
      </trkpt>
      <trkpt lat="42.707111" lon="-2.728231">
        <ele>609.509</ele>
        <time>2022-07-08T19:26:25Z</time>
      </trkpt>
      <trkpt lat="42.707151" lon="-2.728176">
        <ele>609.255</ele>
        <time>2022-07-08T19:26:26Z</time>
      </trkpt>
      <trkpt lat="42.707181" lon="-2.728127">
        <ele>608.944</ele>
        <time>2022-07-08T19:26:27Z</time>
      </trkpt>
      <trkpt lat="42.707220" lon="-2.728070">
        <ele>608.621</ele>
        <time>2022-07-08T19:26:28Z</time>
      </trkpt>
      <trkpt lat="42.707265" lon="-2.728016">
        <ele>608.517</ele>
        <time>2022-07-08T19:26:29Z</time>
      </trkpt>
      <trkpt lat="42.707318" lon="-2.727971">
        <ele>608.253</ele>
        <time>2022-07-08T19:26:30Z</time>
      </trkpt>
      <trkpt lat="42.707374" lon="-2.727922">
        <ele>607.919</ele>
        <time>2022-07-08T19:26:31Z</time>
      </trkpt>
      <trkpt lat="42.707423" lon="-2.727868">
        <ele>607.629</ele>
        <time>2022-07-08T19:26:32Z</time>
      </trkpt>
      <trkpt lat="42.707467" lon="-2.727815">
        <ele>607.496</ele>
        <time>2022-07-08T19:26:33Z</time>
      </trkpt>
      <trkpt lat="42.707511" lon="-2.727764">
        <ele>607.428</ele>
        <time>2022-07-08T19:26:34Z</time>
      </trkpt>
      <trkpt lat="42.707562" lon="-2.727718">
        <ele>607.012</ele>
        <time>2022-07-08T19:26:35Z</time>
      </trkpt>
      <trkpt lat="42.707614" lon="-2.727675">
        <ele>606.632</ele>
        <time>2022-07-08T19:26:36Z</time>
      </trkpt>
      <trkpt lat="42.707665" lon="-2.727646">
        <ele>606.405</ele>
        <time>2022-07-08T19:26:37Z</time>
      </trkpt>
      <trkpt lat="42.707727" lon="-2.727608">
        <ele>606.209</ele>
        <time>2022-07-08T19:26:38Z</time>
      </trkpt>
      <trkpt lat="42.707784" lon="-2.727590">
        <ele>605.942</ele>
        <time>2022-07-08T19:26:39Z</time>
      </trkpt>
      <trkpt lat="42.707832" lon="-2.727581">
        <ele>605.811</ele>
        <time>2022-07-08T19:26:40Z</time>
      </trkpt>
      <trkpt lat="42.707894" lon="-2.727570">
        <ele>605.888</ele>
        <time>2022-07-08T19:26:41Z</time>
      </trkpt>
      <trkpt lat="42.707949" lon="-2.727571">
        <ele>605.894</ele>
        <time>2022-07-08T19:26:42Z</time>
      </trkpt>
      <trkpt lat="42.708013" lon="-2.727558">
        <ele>605.840</ele>
        <time>2022-07-08T19:26:43Z</time>
      </trkpt>
      <trkpt lat="42.708073" lon="-2.727556">
        <ele>605.776</ele>
        <time>2022-07-08T19:26:44Z</time>
      </trkpt>
      <trkpt lat="42.708122" lon="-2.727547">
        <ele>605.656</ele>
        <time>2022-07-08T19:26:45Z</time>
      </trkpt>
      <trkpt lat="42.708172" lon="-2.727546">
        <ele>605.583</ele>
        <time>2022-07-08T19:26:46Z</time>
      </trkpt>
      <trkpt lat="42.708229" lon="-2.727537">
        <ele>605.275</ele>
        <time>2022-07-08T19:26:47Z</time>
      </trkpt>
      <trkpt lat="42.708288" lon="-2.727527">
        <ele>605.137</ele>
        <time>2022-07-08T19:26:48Z</time>
      </trkpt>
      <trkpt lat="42.708347" lon="-2.727510">
        <ele>604.649</ele>
        <time>2022-07-08T19:26:49Z</time>
      </trkpt>
      <trkpt lat="42.708410" lon="-2.727514">
        <ele>604.513</ele>
        <time>2022-07-08T19:26:50Z</time>
      </trkpt>
      <trkpt lat="42.708465" lon="-2.727502">
        <ele>604.309</ele>
        <time>2022-07-08T19:26:51Z</time>
      </trkpt>
      <trkpt lat="42.708519" lon="-2.727483">
        <ele>604.294</ele>
        <time>2022-07-08T19:26:52Z</time>
      </trkpt>
      <trkpt lat="42.708574" lon="-2.727476">
        <ele>603.883</ele>
        <time>2022-07-08T19:26:53Z</time>
      </trkpt>
      <trkpt lat="42.708634" lon="-2.727469">
        <ele>603.680</ele>
        <time>2022-07-08T19:26:54Z</time>
      </trkpt>
      <trkpt lat="42.708690" lon="-2.727461">
        <ele>603.426</ele>
        <time>2022-07-08T19:26:55Z</time>
      </trkpt>
      <trkpt lat="42.708744" lon="-2.727452">
        <ele>603.292</ele>
        <time>2022-07-08T19:26:56Z</time>
      </trkpt>
      <trkpt lat="42.708816" lon="-2.727433">
        <ele>603.048</ele>
        <time>2022-07-08T19:26:57Z</time>
      </trkpt>
      <trkpt lat="42.708868" lon="-2.727415">
        <ele>602.898</ele>
        <time>2022-07-08T19:26:58Z</time>
      </trkpt>
      <trkpt lat="42.708923" lon="-2.727385">
        <ele>602.835</ele>
        <time>2022-07-08T19:26:59Z</time>
      </trkpt>
      <trkpt lat="42.708982" lon="-2.727356">
        <ele>602.837</ele>
        <time>2022-07-08T19:27:00Z</time>
      </trkpt>
      <trkpt lat="42.709041" lon="-2.727331">
        <ele>602.547</ele>
        <time>2022-07-08T19:27:01Z</time>
      </trkpt>
      <trkpt lat="42.709094" lon="-2.727295">
        <ele>602.229</ele>
        <time>2022-07-08T19:27:02Z</time>
      </trkpt>
      <trkpt lat="42.709152" lon="-2.727255">
        <ele>602.021</ele>
        <time>2022-07-08T19:27:03Z</time>
      </trkpt>
      <trkpt lat="42.709203" lon="-2.727224">
        <ele>601.809</ele>
        <time>2022-07-08T19:27:04Z</time>
      </trkpt>
      <trkpt lat="42.709251" lon="-2.727177">
        <ele>601.575</ele>
        <time>2022-07-08T19:27:05Z</time>
      </trkpt>
      <trkpt lat="42.709309" lon="-2.727132">
        <ele>601.384</ele>
        <time>2022-07-08T19:27:06Z</time>
      </trkpt>
      <trkpt lat="42.709356" lon="-2.727086">
        <ele>601.071</ele>
        <time>2022-07-08T19:27:07Z</time>
      </trkpt>
      <trkpt lat="42.709402" lon="-2.727028">
        <ele>600.857</ele>
        <time>2022-07-08T19:27:08Z</time>
      </trkpt>
      <trkpt lat="42.709460" lon="-2.726970">
        <ele>600.753</ele>
        <time>2022-07-08T19:27:09Z</time>
      </trkpt>
      <trkpt lat="42.709493" lon="-2.726910">
        <ele>600.769</ele>
        <time>2022-07-08T19:27:10Z</time>
      </trkpt>
      <trkpt lat="42.709532" lon="-2.726851">
        <ele>600.639</ele>
        <time>2022-07-08T19:27:11Z</time>
      </trkpt>
      <trkpt lat="42.709579" lon="-2.726779">
        <ele>600.486</ele>
        <time>2022-07-08T19:27:12Z</time>
      </trkpt>
      <trkpt lat="42.709620" lon="-2.726723">
        <ele>600.288</ele>
        <time>2022-07-08T19:27:13Z</time>
      </trkpt>
      <trkpt lat="42.709656" lon="-2.726672">
        <ele>600.023</ele>
        <time>2022-07-08T19:27:14Z</time>
      </trkpt>
      <trkpt lat="42.709685" lon="-2.726620">
        <ele>599.783</ele>
        <time>2022-07-08T19:27:15Z</time>
      </trkpt>
      <trkpt lat="42.709720" lon="-2.726549">
        <ele>599.511</ele>
        <time>2022-07-08T19:27:16Z</time>
      </trkpt>
      <trkpt lat="42.709823" lon="-2.726461">
        <ele>599.409</ele>
        <time>2022-07-08T19:27:17Z</time>
      </trkpt>
      <trkpt lat="42.709850" lon="-2.726397">
        <ele>599.163</ele>
        <time>2022-07-08T19:27:18Z</time>
      </trkpt>
      <trkpt lat="42.709875" lon="-2.726332">
        <ele>598.882</ele>
        <time>2022-07-08T19:27:19Z</time>
      </trkpt>
      <trkpt lat="42.709904" lon="-2.726256">
        <ele>598.789</ele>
        <time>2022-07-08T19:27:20Z</time>
      </trkpt>
      <trkpt lat="42.709937" lon="-2.726176">
        <ele>598.615</ele>
        <time>2022-07-08T19:27:21Z</time>
      </trkpt>
      <trkpt lat="42.709972" lon="-2.726117">
        <ele>598.441</ele>
        <time>2022-07-08T19:27:22Z</time>
      </trkpt>
      <trkpt lat="42.710002" lon="-2.726060">
        <ele>598.487</ele>
        <time>2022-07-08T19:27:23Z</time>
      </trkpt>
      <trkpt lat="42.710048" lon="-2.725998">
        <ele>598.467</ele>
        <time>2022-07-08T19:27:24Z</time>
      </trkpt>
      <trkpt lat="42.710091" lon="-2.725947">
        <ele>598.414</ele>
        <time>2022-07-08T19:27:25Z</time>
      </trkpt>
      <trkpt lat="42.710138" lon="-2.725908">
        <ele>598.496</ele>
        <time>2022-07-08T19:27:26Z</time>
      </trkpt>
      <trkpt lat="42.710180" lon="-2.725858">
        <ele>598.325</ele>
        <time>2022-07-08T19:27:27Z</time>
      </trkpt>
      <trkpt lat="42.710220" lon="-2.725804">
        <ele>598.326</ele>
        <time>2022-07-08T19:27:28Z</time>
      </trkpt>
      <trkpt lat="42.710273" lon="-2.725691">
        <ele>598.308</ele>
        <time>2022-07-08T19:27:30Z</time>
      </trkpt>
      <trkpt lat="42.710314" lon="-2.725584">
        <ele>598.309</ele>
        <time>2022-07-08T19:27:32Z</time>
      </trkpt>
      <trkpt lat="42.710333" lon="-2.725527">
        <ele>598.343</ele>
        <time>2022-07-08T19:27:33Z</time>
      </trkpt>
      <trkpt lat="42.710354" lon="-2.725469">
        <ele>598.322</ele>
        <time>2022-07-08T19:27:34Z</time>
      </trkpt>
      <trkpt lat="42.710381" lon="-2.725418">
        <ele>598.349</ele>
        <time>2022-07-08T19:27:35Z</time>
      </trkpt>
      <trkpt lat="42.710423" lon="-2.725367">
        <ele>598.215</ele>
        <time>2022-07-08T19:27:36Z</time>
      </trkpt>
      <trkpt lat="42.710460" lon="-2.725320">
        <ele>598.231</ele>
        <time>2022-07-08T19:27:37Z</time>
      </trkpt>
      <trkpt lat="42.710499" lon="-2.725278">
        <ele>598.257</ele>
        <time>2022-07-08T19:27:38Z</time>
      </trkpt>
      <trkpt lat="42.710571" lon="-2.725202">
        <ele>598.137</ele>
        <time>2022-07-08T19:27:40Z</time>
      </trkpt>
      <trkpt lat="42.710609" lon="-2.725160">
        <ele>598.174</ele>
        <time>2022-07-08T19:27:41Z</time>
      </trkpt>
      <trkpt lat="42.710650" lon="-2.725121">
        <ele>598.156</ele>
        <time>2022-07-08T19:27:42Z</time>
      </trkpt>
      <trkpt lat="42.710717" lon="-2.725042">
        <ele>598.263</ele>
        <time>2022-07-08T19:27:44Z</time>
      </trkpt>
      <trkpt lat="42.710759" lon="-2.725004">
        <ele>598.244</ele>
        <time>2022-07-08T19:27:45Z</time>
      </trkpt>
      <trkpt lat="42.710798" lon="-2.724967">
        <ele>598.518</ele>
        <time>2022-07-08T19:27:46Z</time>
      </trkpt>
      <trkpt lat="42.710841" lon="-2.724934">
        <ele>598.609</ele>
        <time>2022-07-08T19:27:47Z</time>
      </trkpt>
      <trkpt lat="42.710878" lon="-2.724891">
        <ele>598.627</ele>
        <time>2022-07-08T19:27:48Z</time>
      </trkpt>
      <trkpt lat="42.710920" lon="-2.724853">
        <ele>598.696</ele>
        <time>2022-07-08T19:27:49Z</time>
      </trkpt>
      <trkpt lat="42.710989" lon="-2.724782">
        <ele>598.673</ele>
        <time>2022-07-08T19:27:51Z</time>
      </trkpt>
      <trkpt lat="42.711023" lon="-2.724741">
        <ele>598.449</ele>
        <time>2022-07-08T19:27:52Z</time>
      </trkpt>
      <trkpt lat="42.711061" lon="-2.724691">
        <ele>598.025</ele>
        <time>2022-07-08T19:27:53Z</time>
      </trkpt>
      <trkpt lat="42.711126" lon="-2.724626">
        <ele>597.961</ele>
        <time>2022-07-08T19:27:55Z</time>
      </trkpt>
      <trkpt lat="42.711191" lon="-2.724563">
        <ele>597.721</ele>
        <time>2022-07-08T19:27:57Z</time>
      </trkpt>
      <trkpt lat="42.711254" lon="-2.724575">
        <ele>597.238</ele>
        <time>2022-07-08T19:27:59Z</time>
      </trkpt>
      <trkpt lat="42.711299" lon="-2.724630">
        <ele>597.030</ele>
        <time>2022-07-08T19:28:01Z</time>
      </trkpt>
      <trkpt lat="42.711353" lon="-2.724694">
        <ele>596.829</ele>
        <time>2022-07-08T19:28:03Z</time>
      </trkpt>
      <trkpt lat="42.711418" lon="-2.724766">
        <ele>596.600</ele>
        <time>2022-07-08T19:28:05Z</time>
      </trkpt>
      <trkpt lat="42.711484" lon="-2.724834">
        <ele>596.520</ele>
        <time>2022-07-08T19:28:07Z</time>
      </trkpt>
      <trkpt lat="42.711547" lon="-2.724918">
        <ele>596.409</ele>
        <time>2022-07-08T19:28:09Z</time>
      </trkpt>
      <trkpt lat="42.711592" lon="-2.724959">
        <ele>596.343</ele>
        <time>2022-07-08T19:28:10Z</time>
      </trkpt>
      <trkpt lat="42.711632" lon="-2.724999">
        <ele>596.232</ele>
        <time>2022-07-08T19:28:11Z</time>
      </trkpt>
      <trkpt lat="42.711679" lon="-2.725037">
        <ele>596.289</ele>
        <time>2022-07-08T19:28:12Z</time>
      </trkpt>
      <trkpt lat="42.711732" lon="-2.725063">
        <ele>596.135</ele>
        <time>2022-07-08T19:28:13Z</time>
      </trkpt>
      <trkpt lat="42.711787" lon="-2.725074">
        <ele>596.181</ele>
        <time>2022-07-08T19:28:14Z</time>
      </trkpt>
      <trkpt lat="42.711846" lon="-2.725095">
        <ele>596.157</ele>
        <time>2022-07-08T19:28:15Z</time>
      </trkpt>
      <trkpt lat="42.711896" lon="-2.725088">
        <ele>596.187</ele>
        <time>2022-07-08T19:28:16Z</time>
      </trkpt>
      <trkpt lat="42.711950" lon="-2.725090">
        <ele>596.174</ele>
        <time>2022-07-08T19:28:17Z</time>
      </trkpt>
      <trkpt lat="42.712007" lon="-2.725086">
        <ele>596.046</ele>
        <time>2022-07-08T19:28:18Z</time>
      </trkpt>
      <trkpt lat="42.712069" lon="-2.725090">
        <ele>595.874</ele>
        <time>2022-07-08T19:28:19Z</time>
      </trkpt>
      <trkpt lat="42.712129" lon="-2.725086">
        <ele>595.756</ele>
        <time>2022-07-08T19:28:20Z</time>
      </trkpt>
      <trkpt lat="42.712186" lon="-2.725069">
        <ele>595.221</ele>
        <time>2022-07-08T19:28:21Z</time>
      </trkpt>
      <trkpt lat="42.712243" lon="-2.725055">
        <ele>594.909</ele>
        <time>2022-07-08T19:28:22Z</time>
      </trkpt>
      <trkpt lat="42.712311" lon="-2.725059">
        <ele>594.748</ele>
        <time>2022-07-08T19:28:23Z</time>
      </trkpt>
      <trkpt lat="42.712367" lon="-2.725037">
        <ele>594.537</ele>
        <time>2022-07-08T19:28:24Z</time>
      </trkpt>
      <trkpt lat="42.712423" lon="-2.725015">
        <ele>594.214</ele>
        <time>2022-07-08T19:28:25Z</time>
      </trkpt>
      <trkpt lat="42.712484" lon="-2.724992">
        <ele>594.220</ele>
        <time>2022-07-08T19:28:26Z</time>
      </trkpt>
      <trkpt lat="42.712550" lon="-2.724969">
        <ele>594.096</ele>
        <time>2022-07-08T19:28:27Z</time>
      </trkpt>
      <trkpt lat="42.712620" lon="-2.724947">
        <ele>594.032</ele>
        <time>2022-07-08T19:28:28Z</time>
      </trkpt>
      <trkpt lat="42.712686" lon="-2.724913">
        <ele>593.972</ele>
        <time>2022-07-08T19:28:29Z</time>
      </trkpt>
      <trkpt lat="42.712743" lon="-2.724871">
        <ele>593.869</ele>
        <time>2022-07-08T19:28:30Z</time>
      </trkpt>
      <trkpt lat="42.712805" lon="-2.724834">
        <ele>593.641</ele>
        <time>2022-07-08T19:28:31Z</time>
      </trkpt>
      <trkpt lat="42.712875" lon="-2.724803">
        <ele>593.471</ele>
        <time>2022-07-08T19:28:32Z</time>
      </trkpt>
      <trkpt lat="42.712935" lon="-2.724752">
        <ele>593.141</ele>
        <time>2022-07-08T19:28:33Z</time>
      </trkpt>
      <trkpt lat="42.712994" lon="-2.724691">
        <ele>592.815</ele>
        <time>2022-07-08T19:28:34Z</time>
      </trkpt>
      <trkpt lat="42.713050" lon="-2.724625">
        <ele>592.509</ele>
        <time>2022-07-08T19:28:35Z</time>
      </trkpt>
      <trkpt lat="42.713115" lon="-2.724565">
        <ele>592.348</ele>
        <time>2022-07-08T19:28:36Z</time>
      </trkpt>
      <trkpt lat="42.713183" lon="-2.724530">
        <ele>592.157</ele>
        <time>2022-07-08T19:28:37Z</time>
      </trkpt>
      <trkpt lat="42.713244" lon="-2.724478">
        <ele>592.024</ele>
        <time>2022-07-08T19:28:38Z</time>
      </trkpt>
      <trkpt lat="42.713299" lon="-2.724423">
        <ele>591.910</ele>
        <time>2022-07-08T19:28:39Z</time>
      </trkpt>
      <trkpt lat="42.713340" lon="-2.724375">
        <ele>591.866</ele>
        <time>2022-07-08T19:28:40Z</time>
      </trkpt>
      <trkpt lat="42.713386" lon="-2.724324">
        <ele>591.712</ele>
        <time>2022-07-08T19:28:41Z</time>
      </trkpt>
      <trkpt lat="42.713428" lon="-2.724277">
        <ele>591.672</ele>
        <time>2022-07-08T19:28:42Z</time>
      </trkpt>
      <trkpt lat="42.713502" lon="-2.724197">
        <ele>591.699</ele>
        <time>2022-07-08T19:28:44Z</time>
      </trkpt>
      <trkpt lat="42.713550" lon="-2.724164">
        <ele>591.571</ele>
        <time>2022-07-08T19:28:45Z</time>
      </trkpt>
      <trkpt lat="42.713591" lon="-2.724117">
        <ele>591.536</ele>
        <time>2022-07-08T19:28:46Z</time>
      </trkpt>
      <trkpt lat="42.713631" lon="-2.724079">
        <ele>591.517</ele>
        <time>2022-07-08T19:28:47Z</time>
      </trkpt>
      <trkpt lat="42.713681" lon="-2.724045">
        <ele>591.518</ele>
        <time>2022-07-08T19:28:48Z</time>
      </trkpt>
      <trkpt lat="42.713752" lon="-2.723987">
        <ele>591.509</ele>
        <time>2022-07-08T19:28:50Z</time>
      </trkpt>
      <trkpt lat="42.713851" lon="-2.723956">
        <ele>591.794</ele>
        <time>2022-07-08T19:28:52Z</time>
      </trkpt>
      <trkpt lat="42.713930" lon="-2.723915">
        <ele>592.283</ele>
        <time>2022-07-08T19:28:53Z</time>
      </trkpt>
      <trkpt lat="42.713992" lon="-2.723921">
        <ele>592.780</ele>
        <time>2022-07-08T19:28:56Z</time>
      </trkpt>
      <trkpt lat="42.714060" lon="-2.723919">
        <ele>593.256</ele>
        <time>2022-07-08T19:28:58Z</time>
      </trkpt>
      <trkpt lat="42.714122" lon="-2.723938">
        <ele>593.792</ele>
        <time>2022-07-08T19:29:00Z</time>
      </trkpt>
      <trkpt lat="42.714186" lon="-2.723965">
        <ele>593.838</ele>
        <time>2022-07-08T19:29:02Z</time>
      </trkpt>
      <trkpt lat="42.714248" lon="-2.723994">
        <ele>594.298</ele>
        <time>2022-07-08T19:29:04Z</time>
      </trkpt>
      <trkpt lat="42.714307" lon="-2.724021">
        <ele>594.555</ele>
        <time>2022-07-08T19:29:06Z</time>
      </trkpt>
      <trkpt lat="42.714372" lon="-2.724051">
        <ele>594.867</ele>
        <time>2022-07-08T19:29:08Z</time>
      </trkpt>
      <trkpt lat="42.714432" lon="-2.724074">
        <ele>595.119</ele>
        <time>2022-07-08T19:29:10Z</time>
      </trkpt>
      <trkpt lat="42.714494" lon="-2.724095">
        <ele>595.509</ele>
        <time>2022-07-08T19:29:12Z</time>
      </trkpt>
      <trkpt lat="42.714559" lon="-2.724115">
        <ele>595.919</ele>
        <time>2022-07-08T19:29:14Z</time>
      </trkpt>
      <trkpt lat="42.714616" lon="-2.724140">
        <ele>596.209</ele>
        <time>2022-07-08T19:29:16Z</time>
      </trkpt>
      <trkpt lat="42.714670" lon="-2.724166">
        <ele>596.652</ele>
        <time>2022-07-08T19:29:18Z</time>
      </trkpt>
      <trkpt lat="42.714728" lon="-2.724195">
        <ele>597.041</ele>
        <time>2022-07-08T19:29:20Z</time>
      </trkpt>
      <trkpt lat="42.714785" lon="-2.724236">
        <ele>597.478</ele>
        <time>2022-07-08T19:29:22Z</time>
      </trkpt>
      <trkpt lat="42.714848" lon="-2.724289">
        <ele>597.724</ele>
        <time>2022-07-08T19:29:24Z</time>
      </trkpt>
      <trkpt lat="42.714914" lon="-2.724346">
        <ele>598.280</ele>
        <time>2022-07-08T19:29:26Z</time>
      </trkpt>
      <trkpt lat="42.714976" lon="-2.724413">
        <ele>598.526</ele>
        <time>2022-07-08T19:29:28Z</time>
      </trkpt>
      <trkpt lat="42.715031" lon="-2.724481">
        <ele>598.746</ele>
        <time>2022-07-08T19:29:30Z</time>
      </trkpt>
      <trkpt lat="42.715087" lon="-2.724556">
        <ele>599.083</ele>
        <time>2022-07-08T19:29:32Z</time>
      </trkpt>
      <trkpt lat="42.715141" lon="-2.724626">
        <ele>599.235</ele>
        <time>2022-07-08T19:29:34Z</time>
      </trkpt>
      <trkpt lat="42.715202" lon="-2.724690">
        <ele>599.289</ele>
        <time>2022-07-08T19:29:36Z</time>
      </trkpt>
      <trkpt lat="42.715263" lon="-2.724752">
        <ele>599.206</ele>
        <time>2022-07-08T19:29:38Z</time>
      </trkpt>
      <trkpt lat="42.715322" lon="-2.724816">
        <ele>599.126</ele>
        <time>2022-07-08T19:29:40Z</time>
      </trkpt>
      <trkpt lat="42.715378" lon="-2.724870">
        <ele>599.109</ele>
        <time>2022-07-08T19:29:42Z</time>
      </trkpt>
      <trkpt lat="42.715430" lon="-2.724918">
        <ele>599.259</ele>
        <time>2022-07-08T19:29:44Z</time>
      </trkpt>
      <trkpt lat="42.715484" lon="-2.724960">
        <ele>599.368</ele>
        <time>2022-07-08T19:29:46Z</time>
      </trkpt>
      <trkpt lat="42.715546" lon="-2.725019">
        <ele>599.395</ele>
        <time>2022-07-08T19:29:48Z</time>
      </trkpt>
      <trkpt lat="42.715618" lon="-2.725091">
        <ele>599.151</ele>
        <time>2022-07-08T19:29:50Z</time>
      </trkpt>
      <trkpt lat="42.715649" lon="-2.725147">
        <ele>598.757</ele>
        <time>2022-07-08T19:29:51Z</time>
      </trkpt>
      <trkpt lat="42.715682" lon="-2.725190">
        <ele>598.553</ele>
        <time>2022-07-08T19:29:52Z</time>
      </trkpt>
      <trkpt lat="42.715750" lon="-2.725269">
        <ele>598.413</ele>
        <time>2022-07-08T19:29:54Z</time>
      </trkpt>
      <trkpt lat="42.715829" lon="-2.725345">
        <ele>598.460</ele>
        <time>2022-07-08T19:29:56Z</time>
      </trkpt>
      <trkpt lat="42.715866" lon="-2.725386">
        <ele>598.442</ele>
        <time>2022-07-08T19:29:57Z</time>
      </trkpt>
      <trkpt lat="42.715957" lon="-2.725446">
        <ele>598.452</ele>
        <time>2022-07-08T19:29:59Z</time>
      </trkpt>
      <trkpt lat="42.716020" lon="-2.725515">
        <ele>598.453</ele>
        <time>2022-07-08T19:30:01Z</time>
      </trkpt>
      <trkpt lat="42.716063" lon="-2.725542">
        <ele>598.208</ele>
        <time>2022-07-08T19:30:02Z</time>
      </trkpt>
      <trkpt lat="42.716148" lon="-2.725583">
        <ele>597.909</ele>
        <time>2022-07-08T19:30:04Z</time>
      </trkpt>
      <trkpt lat="42.716215" lon="-2.725634">
        <ele>597.546</ele>
        <time>2022-07-08T19:30:06Z</time>
      </trkpt>
      <trkpt lat="42.716284" lon="-2.725680">
        <ele>597.265</ele>
        <time>2022-07-08T19:30:08Z</time>
      </trkpt>
      <trkpt lat="42.716327" lon="-2.725718">
        <ele>597.272</ele>
        <time>2022-07-08T19:30:09Z</time>
      </trkpt>
      <trkpt lat="42.716369" lon="-2.725756">
        <ele>597.288</ele>
        <time>2022-07-08T19:30:10Z</time>
      </trkpt>
      <trkpt lat="42.716426" lon="-2.725815">
        <ele>597.224</ele>
        <time>2022-07-08T19:30:11Z</time>
      </trkpt>
      <trkpt lat="42.716476" lon="-2.725892">
        <ele>597.250</ele>
        <time>2022-07-08T19:30:12Z</time>
      </trkpt>
      <trkpt lat="42.716511" lon="-2.725945">
        <ele>597.210</ele>
        <time>2022-07-08T19:30:13Z</time>
      </trkpt>
      <trkpt lat="42.716551" lon="-2.725996">
        <ele>597.047</ele>
        <time>2022-07-08T19:30:14Z</time>
      </trkpt>
      <trkpt lat="42.716606" lon="-2.726060">
        <ele>596.759</ele>
        <time>2022-07-08T19:30:15Z</time>
      </trkpt>
      <trkpt lat="42.716654" lon="-2.726125">
        <ele>596.316</ele>
        <time>2022-07-08T19:30:16Z</time>
      </trkpt>
      <trkpt lat="42.716698" lon="-2.726187">
        <ele>595.976</ele>
        <time>2022-07-08T19:30:17Z</time>
      </trkpt>
      <trkpt lat="42.716739" lon="-2.726256">
        <ele>595.913</ele>
        <time>2022-07-08T19:30:18Z</time>
      </trkpt>
      <trkpt lat="42.716770" lon="-2.726319">
        <ele>595.709</ele>
        <time>2022-07-08T19:30:19Z</time>
      </trkpt>
      <trkpt lat="42.716815" lon="-2.726400">
        <ele>595.592</ele>
        <time>2022-07-08T19:30:20Z</time>
      </trkpt>
      <trkpt lat="42.716852" lon="-2.726484">
        <ele>595.291</ele>
        <time>2022-07-08T19:30:21Z</time>
      </trkpt>
      <trkpt lat="42.716894" lon="-2.726575">
        <ele>594.628</ele>
        <time>2022-07-08T19:30:22Z</time>
      </trkpt>
      <trkpt lat="42.716945" lon="-2.726656">
        <ele>594.294</ele>
        <time>2022-07-08T19:30:23Z</time>
      </trkpt>
      <trkpt lat="42.716989" lon="-2.726731">
        <ele>593.760</ele>
        <time>2022-07-08T19:30:24Z</time>
      </trkpt>
      <trkpt lat="42.717045" lon="-2.726812">
        <ele>593.256</ele>
        <time>2022-07-08T19:30:25Z</time>
      </trkpt>
      <trkpt lat="42.717105" lon="-2.726900">
        <ele>592.796</ele>
        <time>2022-07-08T19:30:26Z</time>
      </trkpt>
      <trkpt lat="42.717176" lon="-2.726993">
        <ele>592.333</ele>
        <time>2022-07-08T19:30:27Z</time>
      </trkpt>
      <trkpt lat="42.717236" lon="-2.727077">
        <ele>591.715</ele>
        <time>2022-07-08T19:30:28Z</time>
      </trkpt>
      <trkpt lat="42.717294" lon="-2.727167">
        <ele>591.251</ele>
        <time>2022-07-08T19:30:29Z</time>
      </trkpt>
      <trkpt lat="42.717346" lon="-2.727246">
        <ele>590.901</ele>
        <time>2022-07-08T19:30:30Z</time>
      </trkpt>
      <trkpt lat="42.717413" lon="-2.727341">
        <ele>590.311</ele>
        <time>2022-07-08T19:30:31Z</time>
      </trkpt>
      <trkpt lat="42.717477" lon="-2.727436">
        <ele>589.709</ele>
        <time>2022-07-08T19:30:32Z</time>
      </trkpt>
      <trkpt lat="42.717536" lon="-2.727524">
        <ele>588.996</ele>
        <time>2022-07-08T19:30:33Z</time>
      </trkpt>
      <trkpt lat="42.717600" lon="-2.727604">
        <ele>588.665</ele>
        <time>2022-07-08T19:30:34Z</time>
      </trkpt>
      <trkpt lat="42.717667" lon="-2.727699">
        <ele>587.782</ele>
        <time>2022-07-08T19:30:35Z</time>
      </trkpt>
      <trkpt lat="42.717738" lon="-2.727788">
        <ele>587.238</ele>
        <time>2022-07-08T19:30:36Z</time>
      </trkpt>
      <trkpt lat="42.717804" lon="-2.727869">
        <ele>586.574</ele>
        <time>2022-07-08T19:30:37Z</time>
      </trkpt>
      <trkpt lat="42.717872" lon="-2.727952">
        <ele>585.860</ele>
        <time>2022-07-08T19:30:38Z</time>
      </trkpt>
      <trkpt lat="42.717942" lon="-2.728051">
        <ele>585.260</ele>
        <time>2022-07-08T19:30:39Z</time>
      </trkpt>
      <trkpt lat="42.718009" lon="-2.728140">
        <ele>584.567</ele>
        <time>2022-07-08T19:30:40Z</time>
      </trkpt>
      <trkpt lat="42.718075" lon="-2.728232">
        <ele>584.589</ele>
        <time>2022-07-08T19:30:41Z</time>
      </trkpt>
      <trkpt lat="42.718140" lon="-2.728325">
        <ele>583.932</ele>
        <time>2022-07-08T19:30:42Z</time>
      </trkpt>
      <trkpt lat="42.718204" lon="-2.728413">
        <ele>583.492</ele>
        <time>2022-07-08T19:30:43Z</time>
      </trkpt>
      <trkpt lat="42.718271" lon="-2.728495">
        <ele>582.911</ele>
        <time>2022-07-08T19:30:44Z</time>
      </trkpt>
      <trkpt lat="42.718347" lon="-2.728575">
        <ele>582.709</ele>
        <time>2022-07-08T19:30:45Z</time>
      </trkpt>
      <trkpt lat="42.718423" lon="-2.728669">
        <ele>582.434</ele>
        <time>2022-07-08T19:30:46Z</time>
      </trkpt>
      <trkpt lat="42.718496" lon="-2.728748">
        <ele>582.373</ele>
        <time>2022-07-08T19:30:47Z</time>
      </trkpt>
      <trkpt lat="42.718573" lon="-2.728837">
        <ele>582.060</ele>
        <time>2022-07-08T19:30:48Z</time>
      </trkpt>
      <trkpt lat="42.718649" lon="-2.728918">
        <ele>581.636</ele>
        <time>2022-07-08T19:30:49Z</time>
      </trkpt>
      <trkpt lat="42.718729" lon="-2.728990">
        <ele>581.092</ele>
        <time>2022-07-08T19:30:50Z</time>
      </trkpt>
      <trkpt lat="42.718800" lon="-2.729067">
        <ele>580.338</ele>
        <time>2022-07-08T19:30:51Z</time>
      </trkpt>
      <trkpt lat="42.718874" lon="-2.729133">
        <ele>579.588</ele>
        <time>2022-07-08T19:30:52Z</time>
      </trkpt>
      <trkpt lat="42.718943" lon="-2.729196">
        <ele>579.265</ele>
        <time>2022-07-08T19:30:53Z</time>
      </trkpt>
      <trkpt lat="42.719006" lon="-2.729269">
        <ele>578.787</ele>
        <time>2022-07-08T19:30:54Z</time>
      </trkpt>
      <trkpt lat="42.719067" lon="-2.729341">
        <ele>578.247</ele>
        <time>2022-07-08T19:30:55Z</time>
      </trkpt>
      <trkpt lat="42.719124" lon="-2.729420">
        <ele>577.929</ele>
        <time>2022-07-08T19:30:56Z</time>
      </trkpt>
      <trkpt lat="42.719183" lon="-2.729497">
        <ele>577.821</ele>
        <time>2022-07-08T19:30:57Z</time>
      </trkpt>
      <trkpt lat="42.719235" lon="-2.729569">
        <ele>577.609</ele>
        <time>2022-07-08T19:30:58Z</time>
      </trkpt>
      <trkpt lat="42.719282" lon="-2.729650">
        <ele>577.435</ele>
        <time>2022-07-08T19:30:59Z</time>
      </trkpt>
      <trkpt lat="42.719328" lon="-2.729727">
        <ele>577.344</ele>
        <time>2022-07-08T19:31:00Z</time>
      </trkpt>
      <trkpt lat="42.719374" lon="-2.729808">
        <ele>577.181</ele>
        <time>2022-07-08T19:31:01Z</time>
      </trkpt>
      <trkpt lat="42.719412" lon="-2.729885">
        <ele>576.897</ele>
        <time>2022-07-08T19:31:02Z</time>
      </trkpt>
      <trkpt lat="42.719454" lon="-2.729958">
        <ele>576.593</ele>
        <time>2022-07-08T19:31:03Z</time>
      </trkpt>
      <trkpt lat="42.719491" lon="-2.730036">
        <ele>576.269</ele>
        <time>2022-07-08T19:31:04Z</time>
      </trkpt>
      <trkpt lat="42.719533" lon="-2.730120">
        <ele>575.949</ele>
        <time>2022-07-08T19:31:05Z</time>
      </trkpt>
      <trkpt lat="42.719581" lon="-2.730194">
        <ele>575.876</ele>
        <time>2022-07-08T19:31:06Z</time>
      </trkpt>
      <trkpt lat="42.719619" lon="-2.730270">
        <ele>575.738</ele>
        <time>2022-07-08T19:31:07Z</time>
      </trkpt>
      <trkpt lat="42.719660" lon="-2.730345">
        <ele>575.691</ele>
        <time>2022-07-08T19:31:08Z</time>
      </trkpt>
      <trkpt lat="42.719699" lon="-2.730425">
        <ele>575.681</ele>
        <time>2022-07-08T19:31:09Z</time>
      </trkpt>
      <trkpt lat="42.719739" lon="-2.730503">
        <ele>575.519</ele>
        <time>2022-07-08T19:31:10Z</time>
      </trkpt>
      <trkpt lat="42.719778" lon="-2.730587">
        <ele>575.509</ele>
        <time>2022-07-08T19:31:11Z</time>
      </trkpt>
      <trkpt lat="42.719818" lon="-2.730661">
        <ele>575.410</ele>
        <time>2022-07-08T19:31:12Z</time>
      </trkpt>
      <trkpt lat="42.719858" lon="-2.730728">
        <ele>575.239</ele>
        <time>2022-07-08T19:31:13Z</time>
      </trkpt>
      <trkpt lat="42.719898" lon="-2.730804">
        <ele>575.096</ele>
        <time>2022-07-08T19:31:14Z</time>
      </trkpt>
      <trkpt lat="42.719932" lon="-2.730880">
        <ele>575.072</ele>
        <time>2022-07-08T19:31:15Z</time>
      </trkpt>
      <trkpt lat="42.719966" lon="-2.730954">
        <ele>575.078</ele>
        <time>2022-07-08T19:31:16Z</time>
      </trkpt>
      <trkpt lat="42.720008" lon="-2.731023">
        <ele>574.964</ele>
        <time>2022-07-08T19:31:17Z</time>
      </trkpt>
      <trkpt lat="42.720052" lon="-2.731094">
        <ele>574.954</ele>
        <time>2022-07-08T19:31:18Z</time>
      </trkpt>
      <trkpt lat="42.720084" lon="-2.731176">
        <ele>574.841</ele>
        <time>2022-07-08T19:31:19Z</time>
      </trkpt>
      <trkpt lat="42.720126" lon="-2.731247">
        <ele>574.543</ele>
        <time>2022-07-08T19:31:20Z</time>
      </trkpt>
      <trkpt lat="42.720163" lon="-2.731326">
        <ele>574.326</ele>
        <time>2022-07-08T19:31:21Z</time>
      </trkpt>
      <trkpt lat="42.720194" lon="-2.731398">
        <ele>574.247</ele>
        <time>2022-07-08T19:31:22Z</time>
      </trkpt>
      <trkpt lat="42.720225" lon="-2.731459">
        <ele>574.211</ele>
        <time>2022-07-08T19:31:23Z</time>
      </trkpt>
      <trkpt lat="42.720251" lon="-2.731525">
        <ele>574.209</ele>
        <time>2022-07-08T19:31:24Z</time>
      </trkpt>
      <trkpt lat="42.720277" lon="-2.731584">
        <ele>574.263</ele>
        <time>2022-07-08T19:31:25Z</time>
      </trkpt>
      <trkpt lat="42.720307" lon="-2.731639">
        <ele>574.212</ele>
        <time>2022-07-08T19:31:26Z</time>
      </trkpt>
      <trkpt lat="42.720376" lon="-2.731662">
        <ele>574.219</ele>
        <time>2022-07-08T19:31:28Z</time>
      </trkpt>
      <trkpt lat="42.720457" lon="-2.731639">
        <ele>574.185</ele>
        <time>2022-07-08T19:31:30Z</time>
      </trkpt>
      <trkpt lat="42.720500" lon="-2.731599">
        <ele>573.851</ele>
        <time>2022-07-08T19:31:31Z</time>
      </trkpt>
      <trkpt lat="42.720549" lon="-2.731549">
        <ele>573.747</ele>
        <time>2022-07-08T19:31:32Z</time>
      </trkpt>
      <trkpt lat="42.720603" lon="-2.731528">
        <ele>573.767</ele>
        <time>2022-07-08T19:31:33Z</time>
      </trkpt>
      <trkpt lat="42.720656" lon="-2.731502">
        <ele>573.754</ele>
        <time>2022-07-08T19:31:34Z</time>
      </trkpt>
      <trkpt lat="42.720720" lon="-2.731486">
        <ele>573.796</ele>
        <time>2022-07-08T19:31:35Z</time>
      </trkpt>
      <trkpt lat="42.720776" lon="-2.731452">
        <ele>573.635</ele>
        <time>2022-07-08T19:31:36Z</time>
      </trkpt>
      <trkpt lat="42.720830" lon="-2.731420">
        <ele>573.686</ele>
        <time>2022-07-08T19:31:37Z</time>
      </trkpt>
      <trkpt lat="42.720892" lon="-2.731390">
        <ele>573.414</ele>
        <time>2022-07-08T19:31:38Z</time>
      </trkpt>
      <trkpt lat="42.720953" lon="-2.731357">
        <ele>573.209</ele>
        <time>2022-07-08T19:31:39Z</time>
      </trkpt>
      <trkpt lat="42.721016" lon="-2.731343">
        <ele>573.014</ele>
        <time>2022-07-08T19:31:40Z</time>
      </trkpt>
      <trkpt lat="42.721074" lon="-2.731306">
        <ele>572.833</ele>
        <time>2022-07-08T19:31:41Z</time>
      </trkpt>
      <trkpt lat="42.721143" lon="-2.731276">
        <ele>572.690</ele>
        <time>2022-07-08T19:31:42Z</time>
      </trkpt>
      <trkpt lat="42.721208" lon="-2.731232">
        <ele>572.586</ele>
        <time>2022-07-08T19:31:43Z</time>
      </trkpt>
      <trkpt lat="42.721266" lon="-2.731202">
        <ele>572.422</ele>
        <time>2022-07-08T19:31:44Z</time>
      </trkpt>
      <trkpt lat="42.721327" lon="-2.731171">
        <ele>572.328</ele>
        <time>2022-07-08T19:31:45Z</time>
      </trkpt>
      <trkpt lat="42.721388" lon="-2.731128">
        <ele>572.378</ele>
        <time>2022-07-08T19:31:46Z</time>
      </trkpt>
      <trkpt lat="42.721454" lon="-2.731104">
        <ele>572.285</ele>
        <time>2022-07-08T19:31:47Z</time>
      </trkpt>
      <trkpt lat="42.721513" lon="-2.731073">
        <ele>572.187</ele>
        <time>2022-07-08T19:31:48Z</time>
      </trkpt>
      <trkpt lat="42.721570" lon="-2.731029">
        <ele>572.073</ele>
        <time>2022-07-08T19:31:49Z</time>
      </trkpt>
      <trkpt lat="42.721628" lon="-2.730998">
        <ele>571.985</ele>
        <time>2022-07-08T19:31:50Z</time>
      </trkpt>
      <trkpt lat="42.721677" lon="-2.730973">
        <ele>571.913</ele>
        <time>2022-07-08T19:31:51Z</time>
      </trkpt>
      <trkpt lat="42.721732" lon="-2.730944">
        <ele>571.809</ele>
        <time>2022-07-08T19:31:52Z</time>
      </trkpt>
      <trkpt lat="42.721788" lon="-2.730913">
        <ele>571.788</ele>
        <time>2022-07-08T19:31:53Z</time>
      </trkpt>
      <trkpt lat="42.721850" lon="-2.730886">
        <ele>571.557</ele>
        <time>2022-07-08T19:31:54Z</time>
      </trkpt>
      <trkpt lat="42.721903" lon="-2.730859">
        <ele>571.224</ele>
        <time>2022-07-08T19:31:55Z</time>
      </trkpt>
      <trkpt lat="42.721959" lon="-2.730829">
        <ele>570.990</ele>
        <time>2022-07-08T19:31:56Z</time>
      </trkpt>
      <trkpt lat="42.722014" lon="-2.730802">
        <ele>570.926</ele>
        <time>2022-07-08T19:31:57Z</time>
      </trkpt>
      <trkpt lat="42.722074" lon="-2.730773">
        <ele>570.572</ele>
        <time>2022-07-08T19:31:58Z</time>
      </trkpt>
      <trkpt lat="42.722122" lon="-2.730750">
        <ele>570.252</ele>
        <time>2022-07-08T19:31:59Z</time>
      </trkpt>
      <trkpt lat="42.722184" lon="-2.730727">
        <ele>570.129</ele>
        <time>2022-07-08T19:32:00Z</time>
      </trkpt>
      <trkpt lat="42.722238" lon="-2.730694">
        <ele>570.081</ele>
        <time>2022-07-08T19:32:01Z</time>
      </trkpt>
      <trkpt lat="42.722296" lon="-2.730664">
        <ele>569.923</ele>
        <time>2022-07-08T19:32:02Z</time>
      </trkpt>
      <trkpt lat="42.722364" lon="-2.730638">
        <ele>569.883</ele>
        <time>2022-07-08T19:32:03Z</time>
      </trkpt>
      <trkpt lat="42.722424" lon="-2.730608">
        <ele>569.711</ele>
        <time>2022-07-08T19:32:04Z</time>
      </trkpt>
      <trkpt lat="42.722474" lon="-2.730583">
        <ele>569.609</ele>
        <time>2022-07-08T19:32:05Z</time>
      </trkpt>
      <trkpt lat="42.722531" lon="-2.730557">
        <ele>569.673</ele>
        <time>2022-07-08T19:32:06Z</time>
      </trkpt>
      <trkpt lat="42.722582" lon="-2.730535">
        <ele>569.592</ele>
        <time>2022-07-08T19:32:07Z</time>
      </trkpt>
      <trkpt lat="42.722640" lon="-2.730506">
        <ele>569.589</ele>
        <time>2022-07-08T19:32:08Z</time>
      </trkpt>
      <trkpt lat="42.722690" lon="-2.730483">
        <ele>569.485</ele>
        <time>2022-07-08T19:32:09Z</time>
      </trkpt>
      <trkpt lat="42.722750" lon="-2.730461">
        <ele>569.251</ele>
        <time>2022-07-08T19:32:10Z</time>
      </trkpt>
      <trkpt lat="42.722805" lon="-2.730440">
        <ele>569.057</ele>
        <time>2022-07-08T19:32:11Z</time>
      </trkpt>
      <trkpt lat="42.722859" lon="-2.730416">
        <ele>568.837</ele>
        <time>2022-07-08T19:32:12Z</time>
      </trkpt>
      <trkpt lat="42.722913" lon="-2.730395">
        <ele>568.654</ele>
        <time>2022-07-08T19:32:13Z</time>
      </trkpt>
      <trkpt lat="42.722965" lon="-2.730376">
        <ele>568.536</ele>
        <time>2022-07-08T19:32:14Z</time>
      </trkpt>
      <trkpt lat="42.723017" lon="-2.730352">
        <ele>568.479</ele>
        <time>2022-07-08T19:32:15Z</time>
      </trkpt>
      <trkpt lat="42.723078" lon="-2.730330">
        <ele>568.205</ele>
        <time>2022-07-08T19:32:16Z</time>
      </trkpt>
      <trkpt lat="42.723148" lon="-2.730311">
        <ele>568.025</ele>
        <time>2022-07-08T19:32:17Z</time>
      </trkpt>
      <trkpt lat="42.723199" lon="-2.730290">
        <ele>567.909</ele>
        <time>2022-07-08T19:32:18Z</time>
      </trkpt>
      <trkpt lat="42.723260" lon="-2.730268">
        <ele>567.758</ele>
        <time>2022-07-08T19:32:19Z</time>
      </trkpt>
      <trkpt lat="42.723316" lon="-2.730250">
        <ele>567.667</ele>
        <time>2022-07-08T19:32:20Z</time>
      </trkpt>
      <trkpt lat="42.723375" lon="-2.730229">
        <ele>567.684</ele>
        <time>2022-07-08T19:32:21Z</time>
      </trkpt>
      <trkpt lat="42.723438" lon="-2.730200">
        <ele>567.520</ele>
        <time>2022-07-08T19:32:22Z</time>
      </trkpt>
      <trkpt lat="42.723501" lon="-2.730174">
        <ele>567.516</ele>
        <time>2022-07-08T19:32:23Z</time>
      </trkpt>
      <trkpt lat="42.723584" lon="-2.730163">
        <ele>567.472</ele>
        <time>2022-07-08T19:32:24Z</time>
      </trkpt>
      <trkpt lat="42.723638" lon="-2.730144">
        <ele>567.482</ele>
        <time>2022-07-08T19:32:25Z</time>
      </trkpt>
      <trkpt lat="42.723693" lon="-2.730123">
        <ele>567.439</ele>
        <time>2022-07-08T19:32:26Z</time>
      </trkpt>
      <trkpt lat="42.723746" lon="-2.730102">
        <ele>567.451</ele>
        <time>2022-07-08T19:32:27Z</time>
      </trkpt>
      <trkpt lat="42.723794" lon="-2.730087">
        <ele>567.411</ele>
        <time>2022-07-08T19:32:28Z</time>
      </trkpt>
      <trkpt lat="42.723843" lon="-2.730065">
        <ele>567.421</ele>
        <time>2022-07-08T19:32:29Z</time>
      </trkpt>
      <trkpt lat="42.723929" lon="-2.730032">
        <ele>567.403</ele>
        <time>2022-07-08T19:32:31Z</time>
      </trkpt>
      <trkpt lat="42.723975" lon="-2.730011">
        <ele>567.409</ele>
        <time>2022-07-08T19:32:32Z</time>
      </trkpt>
      <trkpt lat="42.724031" lon="-2.729991">
        <ele>567.072</ele>
        <time>2022-07-08T19:32:33Z</time>
      </trkpt>
      <trkpt lat="42.724088" lon="-2.729974">
        <ele>566.991</ele>
        <time>2022-07-08T19:32:34Z</time>
      </trkpt>
      <trkpt lat="42.724147" lon="-2.729957">
        <ele>566.858</ele>
        <time>2022-07-08T19:32:35Z</time>
      </trkpt>
      <trkpt lat="42.724233" lon="-2.729951">
        <ele>566.764</ele>
        <time>2022-07-08T19:32:37Z</time>
      </trkpt>
      <trkpt lat="42.724286" lon="-2.729933">
        <ele>566.790</ele>
        <time>2022-07-08T19:32:38Z</time>
      </trkpt>
      <trkpt lat="42.724333" lon="-2.729914">
        <ele>566.746</ele>
        <time>2022-07-08T19:32:39Z</time>
      </trkpt>
      <trkpt lat="42.724377" lon="-2.729887">
        <ele>566.746</ele>
        <time>2022-07-08T19:32:40Z</time>
      </trkpt>
      <trkpt lat="42.724426" lon="-2.729869">
        <ele>566.783</ele>
        <time>2022-07-08T19:32:41Z</time>
      </trkpt>
      <trkpt lat="42.724478" lon="-2.729851">
        <ele>566.765</ele>
        <time>2022-07-08T19:32:42Z</time>
      </trkpt>
      <trkpt lat="42.724538" lon="-2.729829">
        <ele>566.766</ele>
        <time>2022-07-08T19:32:43Z</time>
      </trkpt>
      <trkpt lat="42.724587" lon="-2.729818">
        <ele>566.729</ele>
        <time>2022-07-08T19:32:44Z</time>
      </trkpt>
      <trkpt lat="42.724636" lon="-2.729808">
        <ele>566.721</ele>
        <time>2022-07-08T19:32:45Z</time>
      </trkpt>
      <trkpt lat="42.724686" lon="-2.729794">
        <ele>566.709</ele>
        <time>2022-07-08T19:32:46Z</time>
      </trkpt>
      <trkpt lat="42.724732" lon="-2.729784">
        <ele>566.787</ele>
        <time>2022-07-08T19:32:47Z</time>
      </trkpt>
      <trkpt lat="42.724777" lon="-2.729771">
        <ele>566.716</ele>
        <time>2022-07-08T19:32:48Z</time>
      </trkpt>
      <trkpt lat="42.724855" lon="-2.729751">
        <ele>566.653</ele>
        <time>2022-07-08T19:32:50Z</time>
      </trkpt>
      <trkpt lat="42.724929" lon="-2.729721">
        <ele>566.469</ele>
        <time>2022-07-08T19:32:51Z</time>
      </trkpt>
      <trkpt lat="42.724981" lon="-2.729696">
        <ele>566.435</ele>
        <time>2022-07-08T19:32:52Z</time>
      </trkpt>
      <trkpt lat="42.725038" lon="-2.729682">
        <ele>566.311</ele>
        <time>2022-07-08T19:32:53Z</time>
      </trkpt>
      <trkpt lat="42.725115" lon="-2.729667">
        <ele>566.251</ele>
        <time>2022-07-08T19:32:54Z</time>
      </trkpt>
      <trkpt lat="42.725193" lon="-2.729634">
        <ele>566.168</ele>
        <time>2022-07-08T19:32:56Z</time>
      </trkpt>
      <trkpt lat="42.725264" lon="-2.729596">
        <ele>566.170</ele>
        <time>2022-07-08T19:32:58Z</time>
      </trkpt>
      <trkpt lat="42.725317" lon="-2.729567">
        <ele>566.149</ele>
        <time>2022-07-08T19:32:59Z</time>
      </trkpt>
      <trkpt lat="42.725382" lon="-2.729549">
        <ele>566.102</ele>
        <time>2022-07-08T19:33:00Z</time>
      </trkpt>
      <trkpt lat="42.725445" lon="-2.729527">
        <ele>566.122</ele>
        <time>2022-07-08T19:33:01Z</time>
      </trkpt>
      <trkpt lat="42.725502" lon="-2.729511">
        <ele>566.109</ele>
        <time>2022-07-08T19:33:02Z</time>
      </trkpt>
      <trkpt lat="42.725555" lon="-2.729495">
        <ele>565.925</ele>
        <time>2022-07-08T19:33:03Z</time>
      </trkpt>
      <trkpt lat="42.725611" lon="-2.729482">
        <ele>565.724</ele>
        <time>2022-07-08T19:33:04Z</time>
      </trkpt>
      <trkpt lat="42.725658" lon="-2.729484">
        <ele>565.431</ele>
        <time>2022-07-08T19:33:05Z</time>
      </trkpt>
      <trkpt lat="42.725717" lon="-2.729475">
        <ele>565.147</ele>
        <time>2022-07-08T19:33:06Z</time>
      </trkpt>
      <trkpt lat="42.725780" lon="-2.729454">
        <ele>565.093</ele>
        <time>2022-07-08T19:33:07Z</time>
      </trkpt>
      <trkpt lat="42.725833" lon="-2.729449">
        <ele>564.769</ele>
        <time>2022-07-08T19:33:08Z</time>
      </trkpt>
      <trkpt lat="42.725911" lon="-2.729439">
        <ele>564.789</ele>
        <time>2022-07-08T19:33:09Z</time>
      </trkpt>
      <trkpt lat="42.725972" lon="-2.729412">
        <ele>564.786</ele>
        <time>2022-07-08T19:33:10Z</time>
      </trkpt>
      <trkpt lat="42.726020" lon="-2.729393">
        <ele>564.748</ele>
        <time>2022-07-08T19:33:11Z</time>
      </trkpt>
      <trkpt lat="42.726099" lon="-2.729386">
        <ele>564.662</ele>
        <time>2022-07-08T19:33:12Z</time>
      </trkpt>
      <trkpt lat="42.726161" lon="-2.729365">
        <ele>564.583</ele>
        <time>2022-07-08T19:33:13Z</time>
      </trkpt>
      <trkpt lat="42.726215" lon="-2.729352">
        <ele>564.311</ele>
        <time>2022-07-08T19:33:14Z</time>
      </trkpt>
      <trkpt lat="42.726280" lon="-2.729339">
        <ele>564.009</ele>
        <time>2022-07-08T19:33:15Z</time>
      </trkpt>
      <trkpt lat="42.726333" lon="-2.729326">
        <ele>563.857</ele>
        <time>2022-07-08T19:33:16Z</time>
      </trkpt>
      <trkpt lat="42.726398" lon="-2.729315">
        <ele>563.496</ele>
        <time>2022-07-08T19:33:17Z</time>
      </trkpt>
      <trkpt lat="42.726457" lon="-2.729308">
        <ele>563.163</ele>
        <time>2022-07-08T19:33:18Z</time>
      </trkpt>
      <trkpt lat="42.726521" lon="-2.729295">
        <ele>562.969</ele>
        <time>2022-07-08T19:33:19Z</time>
      </trkpt>
      <trkpt lat="42.726576" lon="-2.729282">
        <ele>562.715</ele>
        <time>2022-07-08T19:33:20Z</time>
      </trkpt>
      <trkpt lat="42.726633" lon="-2.729262">
        <ele>562.431</ele>
        <time>2022-07-08T19:33:21Z</time>
      </trkpt>
      <trkpt lat="42.726697" lon="-2.729258">
        <ele>562.191</ele>
        <time>2022-07-08T19:33:22Z</time>
      </trkpt>
      <trkpt lat="42.726755" lon="-2.729245">
        <ele>561.948</ele>
        <time>2022-07-08T19:33:23Z</time>
      </trkpt>
      <trkpt lat="42.726827" lon="-2.729237">
        <ele>561.740</ele>
        <time>2022-07-08T19:33:24Z</time>
      </trkpt>
      <trkpt lat="42.726884" lon="-2.729220">
        <ele>561.581</ele>
        <time>2022-07-08T19:33:25Z</time>
      </trkpt>
      <trkpt lat="42.726944" lon="-2.729205">
        <ele>561.361</ele>
        <time>2022-07-08T19:33:26Z</time>
      </trkpt>
      <trkpt lat="42.727000" lon="-2.729188">
        <ele>561.217</ele>
        <time>2022-07-08T19:33:27Z</time>
      </trkpt>
      <trkpt lat="42.727054" lon="-2.729166">
        <ele>561.009</ele>
        <time>2022-07-08T19:33:28Z</time>
      </trkpt>
      <trkpt lat="42.727146" lon="-2.729142">
        <ele>560.919</ele>
        <time>2022-07-08T19:33:30Z</time>
      </trkpt>
      <trkpt lat="42.727234" lon="-2.729109">
        <ele>560.538</ele>
        <time>2022-07-08T19:33:32Z</time>
      </trkpt>
      <trkpt lat="42.727282" lon="-2.729093">
        <ele>560.465</ele>
        <time>2022-07-08T19:33:33Z</time>
      </trkpt>
      <trkpt lat="42.727336" lon="-2.729082">
        <ele>560.421</ele>
        <time>2022-07-08T19:33:34Z</time>
      </trkpt>
      <trkpt lat="42.727384" lon="-2.729067">
        <ele>560.487</ele>
        <time>2022-07-08T19:33:35Z</time>
      </trkpt>
      <trkpt lat="42.727439" lon="-2.729057">
        <ele>560.493</ele>
        <time>2022-07-08T19:33:36Z</time>
      </trkpt>
      <trkpt lat="42.727495" lon="-2.729045">
        <ele>560.493</ele>
        <time>2022-07-08T19:33:37Z</time>
      </trkpt>
      <trkpt lat="42.727541" lon="-2.729031">
        <ele>560.390</ele>
        <time>2022-07-08T19:33:38Z</time>
      </trkpt>
      <trkpt lat="42.727585" lon="-2.729011">
        <ele>560.282</ele>
        <time>2022-07-08T19:33:39Z</time>
      </trkpt>
      <trkpt lat="42.727653" lon="-2.728986">
        <ele>560.056</ele>
        <time>2022-07-08T19:33:40Z</time>
      </trkpt>
      <trkpt lat="42.727709" lon="-2.728961">
        <ele>560.059</ele>
        <time>2022-07-08T19:33:41Z</time>
      </trkpt>
      <trkpt lat="42.727765" lon="-2.728932">
        <ele>560.014</ele>
        <time>2022-07-08T19:33:42Z</time>
      </trkpt>
      <trkpt lat="42.727845" lon="-2.728854">
        <ele>559.809</ele>
        <time>2022-07-08T19:33:44Z</time>
      </trkpt>
      <trkpt lat="42.727886" lon="-2.728812">
        <ele>559.896</ele>
        <time>2022-07-08T19:33:45Z</time>
      </trkpt>
      <trkpt lat="42.727952" lon="-2.728769">
        <ele>559.865</ele>
        <time>2022-07-08T19:33:46Z</time>
      </trkpt>
      <trkpt lat="42.728010" lon="-2.728715">
        <ele>559.892</ele>
        <time>2022-07-08T19:33:47Z</time>
      </trkpt>
      <trkpt lat="42.728066" lon="-2.728666">
        <ele>559.888</ele>
        <time>2022-07-08T19:33:48Z</time>
      </trkpt>
      <trkpt lat="42.728130" lon="-2.728614">
        <ele>559.834</ele>
        <time>2022-07-08T19:33:49Z</time>
      </trkpt>
      <trkpt lat="42.728172" lon="-2.728562">
        <ele>559.830</ele>
        <time>2022-07-08T19:33:50Z</time>
      </trkpt>
      <trkpt lat="42.728216" lon="-2.728507">
        <ele>559.850</ele>
        <time>2022-07-08T19:33:51Z</time>
      </trkpt>
      <trkpt lat="42.728251" lon="-2.728451">
        <ele>559.697</ele>
        <time>2022-07-08T19:33:52Z</time>
      </trkpt>
      <trkpt lat="42.728292" lon="-2.728391">
        <ele>559.499</ele>
        <time>2022-07-08T19:33:53Z</time>
      </trkpt>
      <trkpt lat="42.728336" lon="-2.728323">
        <ele>559.174</ele>
        <time>2022-07-08T19:33:54Z</time>
      </trkpt>
      <trkpt lat="42.728379" lon="-2.728259">
        <ele>558.956</ele>
        <time>2022-07-08T19:33:55Z</time>
      </trkpt>
      <trkpt lat="42.728420" lon="-2.728191">
        <ele>558.621</ele>
        <time>2022-07-08T19:33:56Z</time>
      </trkpt>
      <trkpt lat="42.728454" lon="-2.728120">
        <ele>558.309</ele>
        <time>2022-07-08T19:33:57Z</time>
      </trkpt>
      <trkpt lat="42.728480" lon="-2.728043">
        <ele>558.158</ele>
        <time>2022-07-08T19:33:58Z</time>
      </trkpt>
      <trkpt lat="42.728510" lon="-2.727968">
        <ele>558.037</ele>
        <time>2022-07-08T19:33:59Z</time>
      </trkpt>
      <trkpt lat="42.728539" lon="-2.727889">
        <ele>558.084</ele>
        <time>2022-07-08T19:34:00Z</time>
      </trkpt>
      <trkpt lat="42.728586" lon="-2.727811">
        <ele>558.090</ele>
        <time>2022-07-08T19:34:01Z</time>
      </trkpt>
      <trkpt lat="42.728609" lon="-2.727738">
        <ele>557.946</ele>
        <time>2022-07-08T19:34:02Z</time>
      </trkpt>
      <trkpt lat="42.728636" lon="-2.727667">
        <ele>557.762</ele>
        <time>2022-07-08T19:34:03Z</time>
      </trkpt>
      <trkpt lat="42.728670" lon="-2.727594">
        <ele>557.562</ele>
        <time>2022-07-08T19:34:04Z</time>
      </trkpt>
      <trkpt lat="42.728762" lon="-2.727499">
        <ele>557.279</ele>
        <time>2022-07-08T19:34:05Z</time>
      </trkpt>
      <trkpt lat="42.728776" lon="-2.727437">
        <ele>557.011</ele>
        <time>2022-07-08T19:34:06Z</time>
      </trkpt>
      <trkpt lat="42.728811" lon="-2.727367">
        <ele>556.823</ele>
        <time>2022-07-08T19:34:07Z</time>
      </trkpt>
      <trkpt lat="42.728857" lon="-2.727292">
        <ele>556.783</ele>
        <time>2022-07-08T19:34:08Z</time>
      </trkpt>
      <trkpt lat="42.728882" lon="-2.727230">
        <ele>556.711</ele>
        <time>2022-07-08T19:34:09Z</time>
      </trkpt>
      <trkpt lat="42.728910" lon="-2.727163">
        <ele>556.609</ele>
        <time>2022-07-08T19:34:10Z</time>
      </trkpt>
      <trkpt lat="42.728934" lon="-2.727089">
        <ele>556.653</ele>
        <time>2022-07-08T19:34:11Z</time>
      </trkpt>
      <trkpt lat="42.728954" lon="-2.727032">
        <ele>556.442</ele>
        <time>2022-07-08T19:34:12Z</time>
      </trkpt>
      <trkpt lat="42.728977" lon="-2.726967">
        <ele>556.359</ele>
        <time>2022-07-08T19:34:13Z</time>
      </trkpt>
      <trkpt lat="42.729002" lon="-2.726901">
        <ele>556.055</ele>
        <time>2022-07-08T19:34:14Z</time>
      </trkpt>
      <trkpt lat="42.729030" lon="-2.726838">
        <ele>555.861</ele>
        <time>2022-07-08T19:34:15Z</time>
      </trkpt>
      <trkpt lat="42.729058" lon="-2.726771">
        <ele>555.497</ele>
        <time>2022-07-08T19:34:16Z</time>
      </trkpt>
      <trkpt lat="42.729086" lon="-2.726694">
        <ele>554.827</ele>
        <time>2022-07-08T19:34:17Z</time>
      </trkpt>
      <trkpt lat="42.729114" lon="-2.726618">
        <ele>554.674</ele>
        <time>2022-07-08T19:34:18Z</time>
      </trkpt>
      <trkpt lat="42.729137" lon="-2.726551">
        <ele>554.456</ele>
        <time>2022-07-08T19:34:19Z</time>
      </trkpt>
      <trkpt lat="42.729163" lon="-2.726473">
        <ele>554.212</ele>
        <time>2022-07-08T19:34:20Z</time>
      </trkpt>
      <trkpt lat="42.729192" lon="-2.726402">
        <ele>554.132</ele>
        <time>2022-07-08T19:34:21Z</time>
      </trkpt>
      <trkpt lat="42.729224" lon="-2.726334">
        <ele>554.005</ele>
        <time>2022-07-08T19:34:22Z</time>
      </trkpt>
      <trkpt lat="42.729254" lon="-2.726270">
        <ele>553.909</ele>
        <time>2022-07-08T19:34:23Z</time>
      </trkpt>
      <trkpt lat="42.729292" lon="-2.726214">
        <ele>553.842</ele>
        <time>2022-07-08T19:34:24Z</time>
      </trkpt>
      <trkpt lat="42.729321" lon="-2.726142">
        <ele>553.821</ele>
        <time>2022-07-08T19:34:25Z</time>
      </trkpt>
      <trkpt lat="42.729352" lon="-2.726068">
        <ele>553.758</ele>
        <time>2022-07-08T19:34:26Z</time>
      </trkpt>
      <trkpt lat="42.729369" lon="-2.726008">
        <ele>553.784</ele>
        <time>2022-07-08T19:34:27Z</time>
      </trkpt>
      <trkpt lat="42.729404" lon="-2.725944">
        <ele>553.640</ele>
        <time>2022-07-08T19:34:28Z</time>
      </trkpt>
      <trkpt lat="42.729448" lon="-2.725867">
        <ele>553.556</ele>
        <time>2022-07-08T19:34:29Z</time>
      </trkpt>
      <trkpt lat="42.729490" lon="-2.725785">
        <ele>553.556</ele>
        <time>2022-07-08T19:34:30Z</time>
      </trkpt>
      <trkpt lat="42.729531" lon="-2.725711">
        <ele>553.353</ele>
        <time>2022-07-08T19:34:31Z</time>
      </trkpt>
      <trkpt lat="42.729566" lon="-2.725624">
        <ele>553.185</ele>
        <time>2022-07-08T19:34:32Z</time>
      </trkpt>
      <trkpt lat="42.729605" lon="-2.725536">
        <ele>552.972</ele>
        <time>2022-07-08T19:34:33Z</time>
      </trkpt>
      <trkpt lat="42.729649" lon="-2.725466">
        <ele>552.613</ele>
        <time>2022-07-08T19:34:34Z</time>
      </trkpt>
      <trkpt lat="42.729688" lon="-2.725379">
        <ele>552.114</ele>
        <time>2022-07-08T19:34:35Z</time>
      </trkpt>
      <trkpt lat="42.729728" lon="-2.725288">
        <ele>551.709</ele>
        <time>2022-07-08T19:34:36Z</time>
      </trkpt>
      <trkpt lat="42.729776" lon="-2.725196">
        <ele>551.338</ele>
        <time>2022-07-08T19:34:37Z</time>
      </trkpt>
      <trkpt lat="42.729818" lon="-2.725104">
        <ele>550.967</ele>
        <time>2022-07-08T19:34:38Z</time>
      </trkpt>
      <trkpt lat="42.729852" lon="-2.725007">
        <ele>550.694</ele>
        <time>2022-07-08T19:34:39Z</time>
      </trkpt>
      <trkpt lat="42.729881" lon="-2.724902">
        <ele>550.390</ele>
        <time>2022-07-08T19:34:40Z</time>
      </trkpt>
      <trkpt lat="42.729907" lon="-2.724758">
        <ele>549.746</ele>
        <time>2022-07-08T19:34:41Z</time>
      </trkpt>
      <trkpt lat="42.729940" lon="-2.724641">
        <ele>549.242</ele>
        <time>2022-07-08T19:34:42Z</time>
      </trkpt>
      <trkpt lat="42.729964" lon="-2.724529">
        <ele>548.692</ele>
        <time>2022-07-08T19:34:43Z</time>
      </trkpt>
      <trkpt lat="42.729980" lon="-2.724442">
        <ele>548.399</ele>
        <time>2022-07-08T19:34:44Z</time>
      </trkpt>
      <trkpt lat="42.729997" lon="-2.724328">
        <ele>547.791</ele>
        <time>2022-07-08T19:34:45Z</time>
      </trkpt>
      <trkpt lat="42.730017" lon="-2.724198">
        <ele>547.218</ele>
        <time>2022-07-08T19:34:46Z</time>
      </trkpt>
      <trkpt lat="42.730041" lon="-2.724094">
        <ele>546.798</ele>
        <time>2022-07-08T19:34:47Z</time>
      </trkpt>
      <trkpt lat="42.730073" lon="-2.723983">
        <ele>546.317</ele>
        <time>2022-07-08T19:34:48Z</time>
      </trkpt>
      <trkpt lat="42.730119" lon="-2.723864">
        <ele>546.109</ele>
        <time>2022-07-08T19:34:49Z</time>
      </trkpt>
      <trkpt lat="42.730177" lon="-2.723743">
        <ele>545.862</ele>
        <time>2022-07-08T19:34:50Z</time>
      </trkpt>
      <trkpt lat="42.730232" lon="-2.723650">
        <ele>545.551</ele>
        <time>2022-07-08T19:34:51Z</time>
      </trkpt>
      <trkpt lat="42.730281" lon="-2.723576">
        <ele>545.328</ele>
        <time>2022-07-08T19:34:52Z</time>
      </trkpt>
      <trkpt lat="42.730333" lon="-2.723522">
        <ele>544.934</ele>
        <time>2022-07-08T19:34:53Z</time>
      </trkpt>
      <trkpt lat="42.730386" lon="-2.723478">
        <ele>544.650</ele>
        <time>2022-07-08T19:34:54Z</time>
      </trkpt>
      <trkpt lat="42.730438" lon="-2.723431">
        <ele>544.566</ele>
        <time>2022-07-08T19:34:55Z</time>
      </trkpt>
      <trkpt lat="42.730474" lon="-2.723390">
        <ele>544.116</ele>
        <time>2022-07-08T19:34:56Z</time>
      </trkpt>
      <trkpt lat="42.730515" lon="-2.723341">
        <ele>544.033</ele>
        <time>2022-07-08T19:34:58Z</time>
      </trkpt>
      <trkpt lat="42.730566" lon="-2.723332">
        <ele>543.735</ele>
        <time>2022-07-08T19:35:01Z</time>
      </trkpt>
      <trkpt lat="42.730619" lon="-2.723355">
        <ele>543.347</ele>
        <time>2022-07-08T19:35:03Z</time>
      </trkpt>
      <trkpt lat="42.730682" lon="-2.723421">
        <ele>541.629</ele>
        <time>2022-07-08T19:35:05Z</time>
      </trkpt>
      <trkpt lat="42.730745" lon="-2.723507">
        <ele>540.721</ele>
        <time>2022-07-08T19:35:07Z</time>
      </trkpt>
      <trkpt lat="42.730793" lon="-2.723556">
        <ele>540.409</ele>
        <time>2022-07-08T19:35:08Z</time>
      </trkpt>
      <trkpt lat="42.730839" lon="-2.723602">
        <ele>540.315</ele>
        <time>2022-07-08T19:35:09Z</time>
      </trkpt>
      <trkpt lat="42.730888" lon="-2.723652">
        <ele>540.384</ele>
        <time>2022-07-08T19:35:10Z</time>
      </trkpt>
      <trkpt lat="42.730928" lon="-2.723694">
        <ele>540.361</ele>
        <time>2022-07-08T19:35:11Z</time>
      </trkpt>
      <trkpt lat="42.730997" lon="-2.723790">
        <ele>540.387</ele>
        <time>2022-07-08T19:35:13Z</time>
      </trkpt>
      <trkpt lat="42.731046" lon="-2.723831">
        <ele>540.393</ele>
        <time>2022-07-08T19:35:14Z</time>
      </trkpt>
      <trkpt lat="42.731088" lon="-2.723875">
        <ele>540.379</ele>
        <time>2022-07-08T19:35:15Z</time>
      </trkpt>
      <trkpt lat="42.731128" lon="-2.723919">
        <ele>540.399</ele>
        <time>2022-07-08T19:35:16Z</time>
      </trkpt>
      <trkpt lat="42.731162" lon="-2.723978">
        <ele>540.316</ele>
        <time>2022-07-08T19:35:17Z</time>
      </trkpt>
      <trkpt lat="42.731204" lon="-2.724017">
        <ele>540.378</ele>
        <time>2022-07-08T19:35:18Z</time>
      </trkpt>
      <trkpt lat="42.731242" lon="-2.724058">
        <ele>540.464</ele>
        <time>2022-07-08T19:35:19Z</time>
      </trkpt>
      <trkpt lat="42.731293" lon="-2.724102">
        <ele>540.506</ele>
        <time>2022-07-08T19:35:20Z</time>
      </trkpt>
      <trkpt lat="42.731330" lon="-2.724158">
        <ele>540.616</ele>
        <time>2022-07-08T19:35:21Z</time>
      </trkpt>
      <trkpt lat="42.731377" lon="-2.724193">
        <ele>540.609</ele>
        <time>2022-07-08T19:35:22Z</time>
      </trkpt>
      <trkpt lat="42.731466" lon="-2.724255">
        <ele>540.677</ele>
        <time>2022-07-08T19:35:24Z</time>
      </trkpt>
      <trkpt lat="42.731519" lon="-2.724297">
        <ele>540.696</ele>
        <time>2022-07-08T19:35:25Z</time>
      </trkpt>
      <trkpt lat="42.731568" lon="-2.724349">
        <ele>540.593</ele>
        <time>2022-07-08T19:35:26Z</time>
      </trkpt>
      <trkpt lat="42.731619" lon="-2.724378">
        <ele>540.579</ele>
        <time>2022-07-08T19:35:27Z</time>
      </trkpt>
      <trkpt lat="42.731669" lon="-2.724409">
        <ele>540.575</ele>
        <time>2022-07-08T19:35:28Z</time>
      </trkpt>
      <trkpt lat="42.731722" lon="-2.724437">
        <ele>540.561</ele>
        <time>2022-07-08T19:35:29Z</time>
      </trkpt>
      <trkpt lat="42.731772" lon="-2.724467">
        <ele>540.521</ele>
        <time>2022-07-08T19:35:30Z</time>
      </trkpt>
      <trkpt lat="42.731822" lon="-2.724496">
        <ele>540.518</ele>
        <time>2022-07-08T19:35:31Z</time>
      </trkpt>
      <trkpt lat="42.731887" lon="-2.724554">
        <ele>540.510</ele>
        <time>2022-07-08T19:35:32Z</time>
      </trkpt>
      <trkpt lat="42.731938" lon="-2.724588">
        <ele>540.661</ele>
        <time>2022-07-08T19:35:33Z</time>
      </trkpt>
      <trkpt lat="42.731988" lon="-2.724611">
        <ele>540.721</ele>
        <time>2022-07-08T19:35:34Z</time>
      </trkpt>
      <trkpt lat="42.732042" lon="-2.724635">
        <ele>540.713</ele>
        <time>2022-07-08T19:35:35Z</time>
      </trkpt>
      <trkpt lat="42.732092" lon="-2.724643">
        <ele>540.809</ele>
        <time>2022-07-08T19:35:36Z</time>
      </trkpt>
      <trkpt lat="42.732141" lon="-2.724660">
        <ele>540.877</ele>
        <time>2022-07-08T19:35:37Z</time>
      </trkpt>
      <trkpt lat="42.732195" lon="-2.724692">
        <ele>540.846</ele>
        <time>2022-07-08T19:35:38Z</time>
      </trkpt>
      <trkpt lat="42.732239" lon="-2.724722">
        <ele>540.883</ele>
        <time>2022-07-08T19:35:39Z</time>
      </trkpt>
      <trkpt lat="42.732284" lon="-2.724755">
        <ele>540.889</ele>
        <time>2022-07-08T19:35:40Z</time>
      </trkpt>
      <trkpt lat="42.732334" lon="-2.724778">
        <ele>540.845</ele>
        <time>2022-07-08T19:35:41Z</time>
      </trkpt>
      <trkpt lat="42.732376" lon="-2.724807">
        <ele>540.761</ele>
        <time>2022-07-08T19:35:42Z</time>
      </trkpt>
      <trkpt lat="42.732418" lon="-2.724837">
        <ele>540.761</ele>
        <time>2022-07-08T19:35:43Z</time>
      </trkpt>
      <trkpt lat="42.732457" lon="-2.724867">
        <ele>540.728</ele>
        <time>2022-07-08T19:35:44Z</time>
      </trkpt>
      <trkpt lat="42.732494" lon="-2.724902">
        <ele>540.780</ele>
        <time>2022-07-08T19:35:45Z</time>
      </trkpt>
      <trkpt lat="42.732543" lon="-2.724958">
        <ele>540.734</ele>
        <time>2022-07-08T19:35:46Z</time>
      </trkpt>
      <trkpt lat="42.732580" lon="-2.725006">
        <ele>540.755</ele>
        <time>2022-07-08T19:35:47Z</time>
      </trkpt>
      <trkpt lat="42.732609" lon="-2.725053">
        <ele>540.710</ele>
        <time>2022-07-08T19:35:48Z</time>
      </trkpt>
      <trkpt lat="42.732634" lon="-2.725112">
        <ele>540.709</ele>
        <time>2022-07-08T19:35:49Z</time>
      </trkpt>
      <trkpt lat="42.732651" lon="-2.725181">
        <ele>540.774</ele>
        <time>2022-07-08T19:35:50Z</time>
      </trkpt>
      <trkpt lat="42.732676" lon="-2.725250">
        <ele>540.683</ele>
        <time>2022-07-08T19:35:51Z</time>
      </trkpt>
      <trkpt lat="42.732705" lon="-2.725332">
        <ele>540.570</ele>
        <time>2022-07-08T19:35:52Z</time>
      </trkpt>
      <trkpt lat="42.732729" lon="-2.725400">
        <ele>540.366</ele>
        <time>2022-07-08T19:35:53Z</time>
      </trkpt>
      <trkpt lat="42.732741" lon="-2.725464">
        <ele>540.272</ele>
        <time>2022-07-08T19:35:54Z</time>
      </trkpt>
      <trkpt lat="42.732756" lon="-2.725537">
        <ele>540.138</ele>
        <time>2022-07-08T19:35:55Z</time>
      </trkpt>
      <trkpt lat="42.732774" lon="-2.725626">
        <ele>539.958</ele>
        <time>2022-07-08T19:35:56Z</time>
      </trkpt>
      <trkpt lat="42.732797" lon="-2.725700">
        <ele>539.755</ele>
        <time>2022-07-08T19:35:57Z</time>
      </trkpt>
      <trkpt lat="42.732813" lon="-2.725777">
        <ele>539.597</ele>
        <time>2022-07-08T19:35:58Z</time>
      </trkpt>
      <trkpt lat="42.732822" lon="-2.725891">
        <ele>539.374</ele>
        <time>2022-07-08T19:35:59Z</time>
      </trkpt>
      <trkpt lat="42.732832" lon="-2.725956">
        <ele>539.256</ele>
        <time>2022-07-08T19:36:00Z</time>
      </trkpt>
      <trkpt lat="42.732857" lon="-2.726027">
        <ele>539.221</ele>
        <time>2022-07-08T19:36:01Z</time>
      </trkpt>
      <trkpt lat="42.732873" lon="-2.726094">
        <ele>539.209</ele>
        <time>2022-07-08T19:36:02Z</time>
      </trkpt>
      <trkpt lat="42.732883" lon="-2.726192">
        <ele>539.298</ele>
        <time>2022-07-08T19:36:03Z</time>
      </trkpt>
      <trkpt lat="42.732905" lon="-2.726282">
        <ele>539.267</ele>
        <time>2022-07-08T19:36:04Z</time>
      </trkpt>
      <trkpt lat="42.732940" lon="-2.726383">
        <ele>539.264</ele>
        <time>2022-07-08T19:36:05Z</time>
      </trkpt>
      <trkpt lat="42.732961" lon="-2.726462">
        <ele>539.250</ele>
        <time>2022-07-08T19:36:06Z</time>
      </trkpt>
      <trkpt lat="42.732969" lon="-2.726525">
        <ele>539.246</ele>
        <time>2022-07-08T19:36:07Z</time>
      </trkpt>
      <trkpt lat="42.732986" lon="-2.726599">
        <ele>539.222</ele>
        <time>2022-07-08T19:36:08Z</time>
      </trkpt>
      <trkpt lat="42.733011" lon="-2.726694">
        <ele>539.282</ele>
        <time>2022-07-08T19:36:09Z</time>
      </trkpt>
      <trkpt lat="42.733033" lon="-2.726760">
        <ele>539.279</ele>
        <time>2022-07-08T19:36:10Z</time>
      </trkpt>
      <trkpt lat="42.733056" lon="-2.726835">
        <ele>539.351</ele>
        <time>2022-07-08T19:36:11Z</time>
      </trkpt>
      <trkpt lat="42.733071" lon="-2.726894">
        <ele>539.354</ele>
        <time>2022-07-08T19:36:12Z</time>
      </trkpt>
      <trkpt lat="42.733089" lon="-2.726963">
        <ele>539.356</ele>
        <time>2022-07-08T19:36:13Z</time>
      </trkpt>
      <trkpt lat="42.733115" lon="-2.727054">
        <ele>539.311</ele>
        <time>2022-07-08T19:36:14Z</time>
      </trkpt>
      <trkpt lat="42.733147" lon="-2.727128">
        <ele>539.309</ele>
        <time>2022-07-08T19:36:15Z</time>
      </trkpt>
      <trkpt lat="42.733177" lon="-2.727191">
        <ele>539.466</ele>
        <time>2022-07-08T19:36:16Z</time>
      </trkpt>
      <trkpt lat="42.733207" lon="-2.727250">
        <ele>539.465</ele>
        <time>2022-07-08T19:36:17Z</time>
      </trkpt>
      <trkpt lat="42.733236" lon="-2.727307">
        <ele>539.512</ele>
        <time>2022-07-08T19:36:18Z</time>
      </trkpt>
      <trkpt lat="42.733276" lon="-2.727353">
        <ele>539.558</ele>
        <time>2022-07-08T19:36:19Z</time>
      </trkpt>
      <trkpt lat="42.733316" lon="-2.727396">
        <ele>539.574</ele>
        <time>2022-07-08T19:36:20Z</time>
      </trkpt>
      <trkpt lat="42.733350" lon="-2.727462">
        <ele>539.550</ele>
        <time>2022-07-08T19:36:21Z</time>
      </trkpt>
      <trkpt lat="42.733423" lon="-2.727528">
        <ele>539.550</ele>
        <time>2022-07-08T19:36:23Z</time>
      </trkpt>
      <trkpt lat="42.733492" lon="-2.727602">
        <ele>539.667</ele>
        <time>2022-07-08T19:36:25Z</time>
      </trkpt>
      <trkpt lat="42.733529" lon="-2.727652">
        <ele>539.819</ele>
        <time>2022-07-08T19:36:26Z</time>
      </trkpt>
      <trkpt lat="42.733567" lon="-2.727691">
        <ele>540.048</ele>
        <time>2022-07-08T19:36:27Z</time>
      </trkpt>
      <trkpt lat="42.733602" lon="-2.727734">
        <ele>540.161</ele>
        <time>2022-07-08T19:36:28Z</time>
      </trkpt>
      <trkpt lat="42.733639" lon="-2.727783">
        <ele>540.117</ele>
        <time>2022-07-08T19:36:29Z</time>
      </trkpt>
      <trkpt lat="42.733704" lon="-2.727867">
        <ele>540.209</ele>
        <time>2022-07-08T19:36:31Z</time>
      </trkpt>
      <trkpt lat="42.733767" lon="-2.727927">
        <ele>540.285</ele>
        <time>2022-07-08T19:36:33Z</time>
      </trkpt>
      <trkpt lat="42.733800" lon="-2.727974">
        <ele>540.414</ele>
        <time>2022-07-08T19:36:34Z</time>
      </trkpt>
      <trkpt lat="42.733855" lon="-2.728082">
        <ele>540.531</ele>
        <time>2022-07-08T19:36:36Z</time>
      </trkpt>
      <trkpt lat="42.733887" lon="-2.728144">
        <ele>540.647</ele>
        <time>2022-07-08T19:36:37Z</time>
      </trkpt>
      <trkpt lat="42.733918" lon="-2.728207">
        <ele>540.743</ele>
        <time>2022-07-08T19:36:38Z</time>
      </trkpt>
      <trkpt lat="42.733941" lon="-2.728263">
        <ele>540.819</ele>
        <time>2022-07-08T19:36:39Z</time>
      </trkpt>
      <trkpt lat="42.733966" lon="-2.728328">
        <ele>540.939</ele>
        <time>2022-07-08T19:36:40Z</time>
      </trkpt>
      <trkpt lat="42.733991" lon="-2.728400">
        <ele>541.066</ele>
        <time>2022-07-08T19:36:41Z</time>
      </trkpt>
      <trkpt lat="42.734008" lon="-2.728463">
        <ele>541.088</ele>
        <time>2022-07-08T19:36:42Z</time>
      </trkpt>
      <trkpt lat="42.734024" lon="-2.728526">
        <ele>541.152</ele>
        <time>2022-07-08T19:36:43Z</time>
      </trkpt>
      <trkpt lat="42.734044" lon="-2.728589">
        <ele>541.253</ele>
        <time>2022-07-08T19:36:44Z</time>
      </trkpt>
      <trkpt lat="42.734068" lon="-2.728643">
        <ele>541.308</ele>
        <time>2022-07-08T19:36:45Z</time>
      </trkpt>
      <trkpt lat="42.734082" lon="-2.728720">
        <ele>541.409</ele>
        <time>2022-07-08T19:36:46Z</time>
      </trkpt>
      <trkpt lat="42.734095" lon="-2.728794">
        <ele>541.516</ele>
        <time>2022-07-08T19:36:47Z</time>
      </trkpt>
      <trkpt lat="42.734119" lon="-2.728866">
        <ele>541.565</ele>
        <time>2022-07-08T19:36:48Z</time>
      </trkpt>
      <trkpt lat="42.734140" lon="-2.728941">
        <ele>541.512</ele>
        <time>2022-07-08T19:36:49Z</time>
      </trkpt>
      <trkpt lat="42.734164" lon="-2.729060">
        <ele>541.668</ele>
        <time>2022-07-08T19:36:51Z</time>
      </trkpt>
      <trkpt lat="42.734177" lon="-2.729124">
        <ele>541.694</ele>
        <time>2022-07-08T19:36:52Z</time>
      </trkpt>
      <trkpt lat="42.734183" lon="-2.729195">
        <ele>541.890</ele>
        <time>2022-07-08T19:36:53Z</time>
      </trkpt>
      <trkpt lat="42.734202" lon="-2.729318">
        <ele>541.970</ele>
        <time>2022-07-08T19:36:55Z</time>
      </trkpt>
      <trkpt lat="42.734214" lon="-2.729390">
        <ele>542.057</ele>
        <time>2022-07-08T19:36:56Z</time>
      </trkpt>
      <trkpt lat="42.734226" lon="-2.729459">
        <ele>542.239</ele>
        <time>2022-07-08T19:36:57Z</time>
      </trkpt>
      <trkpt lat="42.734244" lon="-2.729573">
        <ele>542.334</ele>
        <time>2022-07-08T19:36:59Z</time>
      </trkpt>
      <trkpt lat="42.734243" lon="-2.729654">
        <ele>542.355</ele>
        <time>2022-07-08T19:37:00Z</time>
      </trkpt>
      <trkpt lat="42.734243" lon="-2.729770">
        <ele>542.610</ele>
        <time>2022-07-08T19:37:02Z</time>
      </trkpt>
      <trkpt lat="42.734252" lon="-2.729849">
        <ele>542.709</ele>
        <time>2022-07-08T19:37:03Z</time>
      </trkpt>
      <trkpt lat="42.734258" lon="-2.729934">
        <ele>542.764</ele>
        <time>2022-07-08T19:37:04Z</time>
      </trkpt>
      <trkpt lat="42.734274" lon="-2.730017">
        <ele>542.783</ele>
        <time>2022-07-08T19:37:05Z</time>
      </trkpt>
      <trkpt lat="42.734289" lon="-2.730101">
        <ele>542.740</ele>
        <time>2022-07-08T19:37:06Z</time>
      </trkpt>
      <trkpt lat="42.734305" lon="-2.730182">
        <ele>542.716</ele>
        <time>2022-07-08T19:37:07Z</time>
      </trkpt>
      <trkpt lat="42.734315" lon="-2.730278">
        <ele>542.772</ele>
        <time>2022-07-08T19:37:08Z</time>
      </trkpt>
      <trkpt lat="42.734325" lon="-2.730356">
        <ele>542.728</ele>
        <time>2022-07-08T19:37:09Z</time>
      </trkpt>
      <trkpt lat="42.734318" lon="-2.730431">
        <ele>542.848</ele>
        <time>2022-07-08T19:37:10Z</time>
      </trkpt>
      <trkpt lat="42.734316" lon="-2.730498">
        <ele>542.965</ele>
        <time>2022-07-08T19:37:11Z</time>
      </trkpt>
      <trkpt lat="42.734325" lon="-2.730570">
        <ele>542.997</ele>
        <time>2022-07-08T19:37:12Z</time>
      </trkpt>
      <trkpt lat="42.734323" lon="-2.730644">
        <ele>543.054</ele>
        <time>2022-07-08T19:37:13Z</time>
      </trkpt>
      <trkpt lat="42.734323" lon="-2.730722">
        <ele>543.256</ele>
        <time>2022-07-08T19:37:14Z</time>
      </trkpt>
      <trkpt lat="42.734329" lon="-2.730806">
        <ele>543.311</ele>
        <time>2022-07-08T19:37:15Z</time>
      </trkpt>
      <trkpt lat="42.734327" lon="-2.730930">
        <ele>543.409</ele>
        <time>2022-07-08T19:37:17Z</time>
      </trkpt>
      <trkpt lat="42.734327" lon="-2.730992">
        <ele>543.476</ele>
        <time>2022-07-08T19:37:18Z</time>
      </trkpt>
      <trkpt lat="42.734339" lon="-2.731122">
        <ele>543.565</ele>
        <time>2022-07-08T19:37:20Z</time>
      </trkpt>
      <trkpt lat="42.734339" lon="-2.731192">
        <ele>543.642</ele>
        <time>2022-07-08T19:37:21Z</time>
      </trkpt>
      <trkpt lat="42.734342" lon="-2.731274">
        <ele>543.628</ele>
        <time>2022-07-08T19:37:22Z</time>
      </trkpt>
      <trkpt lat="42.734351" lon="-2.731347">
        <ele>543.644</ele>
        <time>2022-07-08T19:37:23Z</time>
      </trkpt>
      <trkpt lat="42.734356" lon="-2.731412">
        <ele>543.610</ele>
        <time>2022-07-08T19:37:24Z</time>
      </trkpt>
      <trkpt lat="42.734371" lon="-2.731494">
        <ele>543.610</ele>
        <time>2022-07-08T19:37:25Z</time>
      </trkpt>
      <trkpt lat="42.734373" lon="-2.731579">
        <ele>543.677</ele>
        <time>2022-07-08T19:37:26Z</time>
      </trkpt>
      <trkpt lat="42.734372" lon="-2.731656">
        <ele>543.669</ele>
        <time>2022-07-08T19:37:27Z</time>
      </trkpt>
      <trkpt lat="42.734386" lon="-2.731725">
        <ele>543.741</ele>
        <time>2022-07-08T19:37:28Z</time>
      </trkpt>
      <trkpt lat="42.734386" lon="-2.731800">
        <ele>543.881</ele>
        <time>2022-07-08T19:37:29Z</time>
      </trkpt>
      <trkpt lat="42.734384" lon="-2.731867">
        <ele>543.809</ele>
        <time>2022-07-08T19:37:30Z</time>
      </trkpt>
      <trkpt lat="42.734381" lon="-2.731943">
        <ele>543.809</ele>
        <time>2022-07-08T19:37:31Z</time>
      </trkpt>
      <trkpt lat="42.734383" lon="-2.732018">
        <ele>543.885</ele>
        <time>2022-07-08T19:37:32Z</time>
      </trkpt>
      <trkpt lat="42.734395" lon="-2.732105">
        <ele>544.034</ele>
        <time>2022-07-08T19:37:33Z</time>
      </trkpt>
      <trkpt lat="42.734412" lon="-2.732193">
        <ele>544.191</ele>
        <time>2022-07-08T19:37:34Z</time>
      </trkpt>
      <trkpt lat="42.734416" lon="-2.732268">
        <ele>544.197</ele>
        <time>2022-07-08T19:37:35Z</time>
      </trkpt>
      <trkpt lat="42.734417" lon="-2.732394">
        <ele>544.133</ele>
        <time>2022-07-08T19:37:37Z</time>
      </trkpt>
      <trkpt lat="42.734415" lon="-2.732459">
        <ele>544.139</ele>
        <time>2022-07-08T19:37:38Z</time>
      </trkpt>
      <trkpt lat="42.734412" lon="-2.732561">
        <ele>544.149</ele>
        <time>2022-07-08T19:37:40Z</time>
      </trkpt>
      <trkpt lat="42.734415" lon="-2.732657">
        <ele>544.276</ele>
        <time>2022-07-08T19:37:42Z</time>
      </trkpt>
      <trkpt lat="42.734431" lon="-2.732782">
        <ele>544.318</ele>
        <time>2022-07-08T19:37:44Z</time>
      </trkpt>
      <trkpt lat="42.734460" lon="-2.732923">
        <ele>544.517</ele>
        <time>2022-07-08T19:37:46Z</time>
      </trkpt>
      <trkpt lat="42.734467" lon="-2.733005">
        <ele>544.687</ele>
        <time>2022-07-08T19:37:47Z</time>
      </trkpt>
      <trkpt lat="42.734479" lon="-2.733150">
        <ele>544.815</ele>
        <time>2022-07-08T19:37:49Z</time>
      </trkpt>
      <trkpt lat="42.734489" lon="-2.733226">
        <ele>544.909</ele>
        <time>2022-07-08T19:37:50Z</time>
      </trkpt>
      <trkpt lat="42.734480" lon="-2.733315">
        <ele>545.062</ele>
        <time>2022-07-08T19:37:52Z</time>
      </trkpt>
      <trkpt lat="42.734485" lon="-2.733390">
        <ele>545.271</ele>
        <time>2022-07-08T19:37:53Z</time>
      </trkpt>
      <trkpt lat="42.734485" lon="-2.733464">
        <ele>545.378</ele>
        <time>2022-07-08T19:37:54Z</time>
      </trkpt>
      <trkpt lat="42.734495" lon="-2.733529">
        <ele>545.484</ele>
        <time>2022-07-08T19:37:55Z</time>
      </trkpt>
      <trkpt lat="42.734503" lon="-2.733591">
        <ele>545.680</ele>
        <time>2022-07-08T19:37:56Z</time>
      </trkpt>
      <trkpt lat="42.734519" lon="-2.733693">
        <ele>545.816</ele>
        <time>2022-07-08T19:37:57Z</time>
      </trkpt>
      <trkpt lat="42.734531" lon="-2.733811">
        <ele>546.086</ele>
        <time>2022-07-08T19:37:59Z</time>
      </trkpt>
      <trkpt lat="42.734535" lon="-2.733923">
        <ele>546.283</ele>
        <time>2022-07-08T19:38:01Z</time>
      </trkpt>
      <trkpt lat="42.734540" lon="-2.733986">
        <ele>546.275</ele>
        <time>2022-07-08T19:38:02Z</time>
      </trkpt>
      <trkpt lat="42.734540" lon="-2.734078">
        <ele>546.261</ele>
        <time>2022-07-08T19:38:04Z</time>
      </trkpt>
      <trkpt lat="42.734545" lon="-2.734199">
        <ele>546.221</ele>
        <time>2022-07-08T19:38:06Z</time>
      </trkpt>
      <trkpt lat="42.734547" lon="-2.734318">
        <ele>546.313</ele>
        <time>2022-07-08T19:38:08Z</time>
      </trkpt>
      <trkpt lat="42.734556" lon="-2.734393">
        <ele>546.409</ele>
        <time>2022-07-08T19:38:09Z</time>
      </trkpt>
      <trkpt lat="42.734556" lon="-2.734465">
        <ele>546.487</ele>
        <time>2022-07-08T19:38:10Z</time>
      </trkpt>
      <trkpt lat="42.734558" lon="-2.734534">
        <ele>546.486</ele>
        <time>2022-07-08T19:38:11Z</time>
      </trkpt>
      <trkpt lat="42.734552" lon="-2.734662">
        <ele>546.433</ele>
        <time>2022-07-08T19:38:13Z</time>
      </trkpt>
      <trkpt lat="42.734554" lon="-2.734728">
        <ele>546.469</ele>
        <time>2022-07-08T19:38:14Z</time>
      </trkpt>
      <trkpt lat="42.734566" lon="-2.734809">
        <ele>546.425</ele>
        <time>2022-07-08T19:38:15Z</time>
      </trkpt>
      <trkpt lat="42.734566" lon="-2.734871">
        <ele>546.491</ele>
        <time>2022-07-08T19:38:16Z</time>
      </trkpt>
      <trkpt lat="42.734568" lon="-2.734940">
        <ele>546.371</ele>
        <time>2022-07-08T19:38:17Z</time>
      </trkpt>
      <trkpt lat="42.734556" lon="-2.735068">
        <ele>546.368</ele>
        <time>2022-07-08T19:38:19Z</time>
      </trkpt>
      <trkpt lat="42.734553" lon="-2.735137">
        <ele>546.310</ele>
        <time>2022-07-08T19:38:20Z</time>
      </trkpt>
      <trkpt lat="42.734558" lon="-2.735222">
        <ele>546.497</ele>
        <time>2022-07-08T19:38:21Z</time>
      </trkpt>
      <trkpt lat="42.734559" lon="-2.735293">
        <ele>546.423</ele>
        <time>2022-07-08T19:38:22Z</time>
      </trkpt>
      <trkpt lat="42.734561" lon="-2.735363">
        <ele>546.525</ele>
        <time>2022-07-08T19:38:23Z</time>
      </trkpt>
      <trkpt lat="42.734557" lon="-2.735434">
        <ele>546.509</ele>
        <time>2022-07-08T19:38:24Z</time>
      </trkpt>
      <trkpt lat="42.734568" lon="-2.735497">
        <ele>546.570</ele>
        <time>2022-07-08T19:38:25Z</time>
      </trkpt>
      <trkpt lat="42.734565" lon="-2.735559">
        <ele>546.529</ele>
        <time>2022-07-08T19:38:26Z</time>
      </trkpt>
      <trkpt lat="42.734563" lon="-2.735680">
        <ele>546.436</ele>
        <time>2022-07-08T19:38:28Z</time>
      </trkpt>
      <trkpt lat="42.734561" lon="-2.735755">
        <ele>546.492</ele>
        <time>2022-07-08T19:38:29Z</time>
      </trkpt>
      <trkpt lat="42.734549" lon="-2.735889">
        <ele>546.318</ele>
        <time>2022-07-08T19:38:31Z</time>
      </trkpt>
      <trkpt lat="42.734546" lon="-2.735970">
        <ele>546.224</ele>
        <time>2022-07-08T19:38:32Z</time>
      </trkpt>
      <trkpt lat="42.734545" lon="-2.736062">
        <ele>546.124</ele>
        <time>2022-07-08T19:38:33Z</time>
      </trkpt>
      <trkpt lat="42.734543" lon="-2.736135">
        <ele>546.081</ele>
        <time>2022-07-08T19:38:34Z</time>
      </trkpt>
      <trkpt lat="42.734547" lon="-2.736204">
        <ele>545.963</ele>
        <time>2022-07-08T19:38:35Z</time>
      </trkpt>
      <trkpt lat="42.734553" lon="-2.736273">
        <ele>545.869</ele>
        <time>2022-07-08T19:38:36Z</time>
      </trkpt>
      <trkpt lat="42.734557" lon="-2.736354">
        <ele>545.804</ele>
        <time>2022-07-08T19:38:37Z</time>
      </trkpt>
      <trkpt lat="42.734556" lon="-2.736433">
        <ele>545.824</ele>
        <time>2022-07-08T19:38:38Z</time>
      </trkpt>
      <trkpt lat="42.734556" lon="-2.736506">
        <ele>545.809</ele>
        <time>2022-07-08T19:38:39Z</time>
      </trkpt>
      <trkpt lat="42.734574" lon="-2.736603">
        <ele>545.897</ele>
        <time>2022-07-08T19:38:40Z</time>
      </trkpt>
      <trkpt lat="42.734589" lon="-2.736694">
        <ele>545.716</ele>
        <time>2022-07-08T19:38:41Z</time>
      </trkpt>
      <trkpt lat="42.734591" lon="-2.736762">
        <ele>545.453</ele>
        <time>2022-07-08T19:38:42Z</time>
      </trkpt>
      <trkpt lat="42.734592" lon="-2.736860">
        <ele>545.299</ele>
        <time>2022-07-08T19:38:43Z</time>
      </trkpt>
      <trkpt lat="42.734595" lon="-2.736935">
        <ele>545.075</ele>
        <time>2022-07-08T19:38:44Z</time>
      </trkpt>
      <trkpt lat="42.734599" lon="-2.737021">
        <ele>544.781</ele>
        <time>2022-07-08T19:38:45Z</time>
      </trkpt>
      <trkpt lat="42.734597" lon="-2.737111">
        <ele>544.591</ele>
        <time>2022-07-08T19:38:46Z</time>
      </trkpt>
      <trkpt lat="42.734601" lon="-2.737196">
        <ele>544.448</ele>
        <time>2022-07-08T19:38:47Z</time>
      </trkpt>
      <trkpt lat="42.734603" lon="-2.737274">
        <ele>544.380</ele>
        <time>2022-07-08T19:38:48Z</time>
      </trkpt>
      <trkpt lat="42.734607" lon="-2.737371">
        <ele>544.281</ele>
        <time>2022-07-08T19:38:49Z</time>
      </trkpt>
      <trkpt lat="42.734612" lon="-2.737475">
        <ele>544.161</ele>
        <time>2022-07-08T19:38:50Z</time>
      </trkpt>
      <trkpt lat="42.734614" lon="-2.737558">
        <ele>544.017</ele>
        <time>2022-07-08T19:38:51Z</time>
      </trkpt>
      <trkpt lat="42.734642" lon="-2.737683">
        <ele>543.809</ele>
        <time>2022-07-08T19:38:52Z</time>
      </trkpt>
      <trkpt lat="42.734640" lon="-2.737771">
        <ele>543.729</ele>
        <time>2022-07-08T19:38:53Z</time>
      </trkpt>
      <trkpt lat="42.734636" lon="-2.737855">
        <ele>543.698</ele>
        <time>2022-07-08T19:38:54Z</time>
      </trkpt>
      <trkpt lat="42.734639" lon="-2.737954">
        <ele>543.565</ele>
        <time>2022-07-08T19:38:55Z</time>
      </trkpt>
      <trkpt lat="42.734651" lon="-2.738021">
        <ele>543.551</ele>
        <time>2022-07-08T19:38:56Z</time>
      </trkpt>
      <trkpt lat="42.734650" lon="-2.738099">
        <ele>543.487</ele>
        <time>2022-07-08T19:38:57Z</time>
      </trkpt>
      <trkpt lat="42.734645" lon="-2.738178">
        <ele>543.323</ele>
        <time>2022-07-08T19:38:58Z</time>
      </trkpt>
      <trkpt lat="42.734640" lon="-2.738251">
        <ele>543.363</ele>
        <time>2022-07-08T19:38:59Z</time>
      </trkpt>
      <trkpt lat="42.734634" lon="-2.738343">
        <ele>543.170</ele>
        <time>2022-07-08T19:39:00Z</time>
      </trkpt>
      <trkpt lat="42.734631" lon="-2.738412">
        <ele>543.012</ele>
        <time>2022-07-08T19:39:01Z</time>
      </trkpt>
      <trkpt lat="42.734619" lon="-2.738505">
        <ele>542.885</ele>
        <time>2022-07-08T19:39:02Z</time>
      </trkpt>
      <trkpt lat="42.734614" lon="-2.738595">
        <ele>542.689</ele>
        <time>2022-07-08T19:39:03Z</time>
      </trkpt>
      <trkpt lat="42.734614" lon="-2.738687">
        <ele>542.517</ele>
        <time>2022-07-08T19:39:04Z</time>
      </trkpt>
      <trkpt lat="42.734603" lon="-2.738768">
        <ele>542.409</ele>
        <time>2022-07-08T19:39:05Z</time>
      </trkpt>
      <trkpt lat="42.734594" lon="-2.738848">
        <ele>542.319</ele>
        <time>2022-07-08T19:39:06Z</time>
      </trkpt>
      <trkpt lat="42.734585" lon="-2.738933">
        <ele>542.168</ele>
        <time>2022-07-08T19:39:07Z</time>
      </trkpt>
      <trkpt lat="42.734573" lon="-2.739030">
        <ele>541.855</ele>
        <time>2022-07-08T19:39:08Z</time>
      </trkpt>
      <trkpt lat="42.734563" lon="-2.739117">
        <ele>541.411</ele>
        <time>2022-07-08T19:39:09Z</time>
      </trkpt>
      <trkpt lat="42.734551" lon="-2.739207">
        <ele>541.087</ele>
        <time>2022-07-08T19:39:10Z</time>
      </trkpt>
      <trkpt lat="42.734552" lon="-2.739370">
        <ele>540.623</ele>
        <time>2022-07-08T19:39:11Z</time>
      </trkpt>
      <trkpt lat="42.734537" lon="-2.739478">
        <ele>540.553</ele>
        <time>2022-07-08T19:39:12Z</time>
      </trkpt>
      <trkpt lat="42.734523" lon="-2.739577">
        <ele>540.330</ele>
        <time>2022-07-08T19:39:13Z</time>
      </trkpt>
      <trkpt lat="42.734512" lon="-2.739672">
        <ele>540.312</ele>
        <time>2022-07-08T19:39:14Z</time>
      </trkpt>
      <trkpt lat="42.734501" lon="-2.739760">
        <ele>540.271</ele>
        <time>2022-07-08T19:39:15Z</time>
      </trkpt>
      <trkpt lat="42.734493" lon="-2.739871">
        <ele>540.041</ele>
        <time>2022-07-08T19:39:16Z</time>
      </trkpt>
      <trkpt lat="42.734485" lon="-2.739965">
        <ele>539.815</ele>
        <time>2022-07-08T19:39:17Z</time>
      </trkpt>
      <trkpt lat="42.734476" lon="-2.740051">
        <ele>539.609</ele>
        <time>2022-07-08T19:39:18Z</time>
      </trkpt>
      <trkpt lat="42.734461" lon="-2.740141">
        <ele>539.438</ele>
        <time>2022-07-08T19:39:19Z</time>
      </trkpt>
      <trkpt lat="42.734464" lon="-2.740226">
        <ele>539.357</ele>
        <time>2022-07-08T19:39:20Z</time>
      </trkpt>
      <trkpt lat="42.734466" lon="-2.740307">
        <ele>539.054</ele>
        <time>2022-07-08T19:39:21Z</time>
      </trkpt>
      <trkpt lat="42.734467" lon="-2.740386">
        <ele>538.880</ele>
        <time>2022-07-08T19:39:22Z</time>
      </trkpt>
      <trkpt lat="42.734480" lon="-2.740470">
        <ele>538.686</ele>
        <time>2022-07-08T19:39:23Z</time>
      </trkpt>
      <trkpt lat="42.734484" lon="-2.740550">
        <ele>538.632</ele>
        <time>2022-07-08T19:39:24Z</time>
      </trkpt>
      <trkpt lat="42.734483" lon="-2.740628">
        <ele>538.622</ele>
        <time>2022-07-08T19:39:25Z</time>
      </trkpt>
      <trkpt lat="42.734477" lon="-2.740707">
        <ele>538.679</ele>
        <time>2022-07-08T19:39:26Z</time>
      </trkpt>
      <trkpt lat="42.734474" lon="-2.740778">
        <ele>538.611</ele>
        <time>2022-07-08T19:39:27Z</time>
      </trkpt>
      <trkpt lat="42.734480" lon="-2.740895">
        <ele>538.799</ele>
        <time>2022-07-08T19:39:29Z</time>
      </trkpt>
      <trkpt lat="42.734487" lon="-2.740976">
        <ele>538.907</ele>
        <time>2022-07-08T19:39:31Z</time>
      </trkpt>
      <trkpt lat="42.734519" lon="-2.741044">
        <ele>539.327</ele>
        <time>2022-07-08T19:39:32Z</time>
      </trkpt>
      <trkpt lat="42.734518" lon="-2.741125">
        <ele>539.709</ele>
        <time>2022-07-08T19:39:34Z</time>
      </trkpt>
      <trkpt lat="42.734550" lon="-2.741225">
        <ele>539.890</ele>
        <time>2022-07-08T19:39:36Z</time>
      </trkpt>
      <trkpt lat="42.734551" lon="-2.741303">
        <ele>539.889</ele>
        <time>2022-07-08T19:39:38Z</time>
      </trkpt>
      <trkpt lat="42.734561" lon="-2.741384">
        <ele>539.986</ele>
        <time>2022-07-08T19:39:40Z</time>
      </trkpt>
      <trkpt lat="42.734569" lon="-2.741474">
        <ele>539.912</ele>
        <time>2022-07-08T19:39:42Z</time>
      </trkpt>
      <trkpt lat="42.734568" lon="-2.741574">
        <ele>540.138</ele>
        <time>2022-07-08T19:39:44Z</time>
      </trkpt>
      <trkpt lat="42.734562" lon="-2.741702">
        <ele>540.754</ele>
        <time>2022-07-08T19:39:46Z</time>
      </trkpt>
      <trkpt lat="42.734559" lon="-2.741769">
        <ele>540.864</ele>
        <time>2022-07-08T19:39:47Z</time>
      </trkpt>
      <trkpt lat="42.734569" lon="-2.741862">
        <ele>540.931</ele>
        <time>2022-07-08T19:39:49Z</time>
      </trkpt>
      <trkpt lat="42.734523" lon="-2.741952">
        <ele>541.123</ele>
        <time>2022-07-08T19:39:51Z</time>
      </trkpt>
      <trkpt lat="42.734491" lon="-2.741999">
        <ele>541.341</ele>
        <time>2022-07-08T19:39:53Z</time>
      </trkpt>
      <trkpt lat="42.734470" lon="-2.742064">
        <ele>542.181</ele>
        <time>2022-07-08T19:39:54Z</time>
      </trkpt>
      <trkpt lat="42.734452" lon="-2.742161">
        <ele>542.509</ele>
        <time>2022-07-08T19:39:56Z</time>
      </trkpt>
      <trkpt lat="42.734476" lon="-2.742231">
        <ele>542.609</ele>
        <time>2022-07-08T19:39:59Z</time>
      </trkpt>
      <trkpt lat="42.734465" lon="-2.742299">
        <ele>542.915</ele>
        <time>2022-07-08T19:40:01Z</time>
      </trkpt>
      <trkpt lat="42.734454" lon="-2.742363">
        <ele>543.654</ele>
        <time>2022-07-08T19:40:03Z</time>
      </trkpt>
      <trkpt lat="42.734445" lon="-2.742454">
        <ele>544.171</ele>
        <time>2022-07-08T19:40:06Z</time>
      </trkpt>
      <trkpt lat="42.734446" lon="-2.742541">
        <ele>544.587</ele>
        <time>2022-07-08T19:40:09Z</time>
      </trkpt>
      <trkpt lat="42.734451" lon="-2.742619">
        <ele>545.383</ele>
        <time>2022-07-08T19:40:12Z</time>
      </trkpt>
      <trkpt lat="42.734440" lon="-2.742698">
        <ele>546.169</ele>
        <time>2022-07-08T19:40:15Z</time>
      </trkpt>
      <trkpt lat="42.734432" lon="-2.742770">
        <ele>546.629</ele>
        <time>2022-07-08T19:40:18Z</time>
      </trkpt>
      <trkpt lat="42.734434" lon="-2.742852">
        <ele>547.116</ele>
        <time>2022-07-08T19:40:21Z</time>
      </trkpt>
      <trkpt lat="42.734445" lon="-2.742925">
        <ele>547.818</ele>
        <time>2022-07-08T19:40:24Z</time>
      </trkpt>
      <trkpt lat="42.734448" lon="-2.742987">
        <ele>548.512</ele>
        <time>2022-07-08T19:40:27Z</time>
      </trkpt>
      <trkpt lat="42.734458" lon="-2.743059">
        <ele>548.832</ele>
        <time>2022-07-08T19:40:31Z</time>
      </trkpt>
      <trkpt lat="42.734463" lon="-2.743154">
        <ele>549.605</ele>
        <time>2022-07-08T19:40:34Z</time>
      </trkpt>
      <trkpt lat="42.734521" lon="-2.743160">
        <ele>550.409</ele>
        <time>2022-07-08T19:40:44Z</time>
      </trkpt>
      <trkpt lat="42.734573" lon="-2.743142">
        <ele>551.232</ele>
        <time>2022-07-08T19:40:47Z</time>
      </trkpt>
      <trkpt lat="42.734632" lon="-2.743122">
        <ele>553.651</ele>
        <time>2022-07-08T19:40:50Z</time>
      </trkpt>
      <trkpt lat="42.734688" lon="-2.743108">
        <ele>554.678</ele>
        <time>2022-07-08T19:40:53Z</time>
      </trkpt>
      <trkpt lat="42.734733" lon="-2.743117">
        <ele>555.494</ele>
        <time>2022-07-08T19:40:55Z</time>
      </trkpt>
      <trkpt lat="42.734799" lon="-2.743131">
        <ele>556.170</ele>
        <time>2022-07-08T19:40:58Z</time>
      </trkpt>
      <trkpt lat="42.734850" lon="-2.743121">
        <ele>556.516</ele>
        <time>2022-07-08T19:41:00Z</time>
      </trkpt>
      <trkpt lat="42.734914" lon="-2.743109">
        <ele>557.126</ele>
        <time>2022-07-08T19:41:03Z</time>
      </trkpt>
      <trkpt lat="42.734963" lon="-2.743090">
        <ele>557.373</ele>
        <time>2022-07-08T19:41:06Z</time>
      </trkpt>
      <trkpt lat="42.735004" lon="-2.743124">
        <ele>558.175</ele>
        <time>2022-07-08T19:41:09Z</time>
      </trkpt>
      <trkpt lat="42.735058" lon="-2.743144">
        <ele>558.833</ele>
        <time>2022-07-08T19:41:14Z</time>
      </trkpt>
      <trkpt lat="42.735078" lon="-2.743209">
        <ele>559.523</ele>
        <time>2022-07-08T19:41:17Z</time>
      </trkpt>
      <trkpt lat="42.735085" lon="-2.743271">
        <ele>560.115</ele>
        <time>2022-07-08T19:41:19Z</time>
      </trkpt>
      <trkpt lat="42.735087" lon="-2.743334">
        <ele>561.009</ele>
        <time>2022-07-08T19:41:21Z</time>
      </trkpt>
      <trkpt lat="42.735079" lon="-2.743422">
        <ele>561.594</ele>
        <time>2022-07-08T19:41:24Z</time>
      </trkpt>
      <trkpt lat="42.735048" lon="-2.743496">
        <ele>562.283</ele>
        <time>2022-07-08T19:41:27Z</time>
      </trkpt>
      <trkpt lat="42.735028" lon="-2.743559">
        <ele>563.060</ele>
        <time>2022-07-08T19:41:29Z</time>
      </trkpt>
      <trkpt lat="42.735025" lon="-2.743626">
        <ele>563.346</ele>
        <time>2022-07-08T19:41:31Z</time>
      </trkpt>
      <trkpt lat="42.735031" lon="-2.743691">
        <ele>563.772</ele>
        <time>2022-07-08T19:41:34Z</time>
      </trkpt>
      <trkpt lat="42.735043" lon="-2.743758">
        <ele>564.098</ele>
        <time>2022-07-08T19:41:37Z</time>
      </trkpt>
      <trkpt lat="42.735072" lon="-2.743823">
        <ele>564.418</ele>
        <time>2022-07-08T19:41:40Z</time>
      </trkpt>
      <trkpt lat="42.735072" lon="-2.743890">
        <ele>564.895</ele>
        <time>2022-07-08T19:41:43Z</time>
      </trkpt>
      <trkpt lat="42.735079" lon="-2.743957">
        <ele>565.457</ele>
        <time>2022-07-08T19:41:46Z</time>
      </trkpt>
      <trkpt lat="42.735087" lon="-2.744036">
        <ele>566.176</ele>
        <time>2022-07-08T19:41:49Z</time>
      </trkpt>
      <trkpt lat="42.735083" lon="-2.744121">
        <ele>567.190</ele>
        <time>2022-07-08T19:41:52Z</time>
      </trkpt>
      <trkpt lat="42.735089" lon="-2.744205">
        <ele>567.619</ele>
        <time>2022-07-08T19:41:55Z</time>
      </trkpt>
      <trkpt lat="42.735087" lon="-2.744277">
        <ele>567.809</ele>
        <time>2022-07-08T19:41:58Z</time>
      </trkpt>
      <trkpt lat="42.735086" lon="-2.744343">
        <ele>568.268</ele>
        <time>2022-07-08T19:42:01Z</time>
      </trkpt>
      <trkpt lat="42.735075" lon="-2.744411">
        <ele>568.747</ele>
        <time>2022-07-08T19:42:05Z</time>
      </trkpt>
      <trkpt lat="42.735065" lon="-2.744487">
        <ele>569.354</ele>
        <time>2022-07-08T19:42:08Z</time>
      </trkpt>
      <trkpt lat="42.735057" lon="-2.744573">
        <ele>569.940</ele>
        <time>2022-07-08T19:42:11Z</time>
      </trkpt>
      <trkpt lat="42.735055" lon="-2.744658">
        <ele>570.176</ele>
        <time>2022-07-08T19:42:14Z</time>
      </trkpt>
      <trkpt lat="42.735043" lon="-2.744743">
        <ele>570.462</ele>
        <time>2022-07-08T19:42:17Z</time>
      </trkpt>
      <trkpt lat="42.735002" lon="-2.744812">
        <ele>570.552</ele>
        <time>2022-07-08T19:42:19Z</time>
      </trkpt>
      <trkpt lat="42.734970" lon="-2.744877">
        <ele>570.599</ele>
        <time>2022-07-08T19:42:21Z</time>
      </trkpt>
      <trkpt lat="42.734963" lon="-2.744967">
        <ele>570.541</ele>
        <time>2022-07-08T19:42:23Z</time>
      </trkpt>
      <trkpt lat="42.734940" lon="-2.745054">
        <ele>570.121</ele>
        <time>2022-07-08T19:42:25Z</time>
      </trkpt>
      <trkpt lat="42.734923" lon="-2.745126">
        <ele>569.741</ele>
        <time>2022-07-08T19:42:27Z</time>
      </trkpt>
      <trkpt lat="42.734921" lon="-2.745210">
        <ele>569.505</ele>
        <time>2022-07-08T19:42:29Z</time>
      </trkpt>
      <trkpt lat="42.734916" lon="-2.745298">
        <ele>569.409</ele>
        <time>2022-07-08T19:42:31Z</time>
      </trkpt>
      <trkpt lat="42.734901" lon="-2.745362">
        <ele>569.123</ele>
        <time>2022-07-08T19:42:33Z</time>
      </trkpt>
      <trkpt lat="42.734881" lon="-2.745439">
        <ele>568.732</ele>
        <time>2022-07-08T19:42:35Z</time>
      </trkpt>
      <trkpt lat="42.734861" lon="-2.745562">
        <ele>568.219</ele>
        <time>2022-07-08T19:42:37Z</time>
      </trkpt>
      <trkpt lat="42.734850" lon="-2.745629">
        <ele>567.765</ele>
        <time>2022-07-08T19:42:38Z</time>
      </trkpt>
      <trkpt lat="42.734845" lon="-2.745745">
        <ele>566.861</ele>
        <time>2022-07-08T19:42:39Z</time>
      </trkpt>
      <trkpt lat="42.734828" lon="-2.745806">
        <ele>566.357</ele>
        <time>2022-07-08T19:42:40Z</time>
      </trkpt>
      <trkpt lat="42.734812" lon="-2.745864">
        <ele>566.027</ele>
        <time>2022-07-08T19:42:41Z</time>
      </trkpt>
      <trkpt lat="42.734769" lon="-2.745962">
        <ele>566.084</ele>
        <time>2022-07-08T19:42:43Z</time>
      </trkpt>
      <trkpt lat="42.734746" lon="-2.746016">
        <ele>565.516</ele>
        <time>2022-07-08T19:42:44Z</time>
      </trkpt>
      <trkpt lat="42.734654" lon="-2.746100">
        <ele>564.349</ele>
        <time>2022-07-08T19:42:46Z</time>
      </trkpt>
      <trkpt lat="42.734680" lon="-2.746168">
        <ele>563.502</ele>
        <time>2022-07-08T19:42:47Z</time>
      </trkpt>
      <trkpt lat="42.734689" lon="-2.746240">
        <ele>563.022</ele>
        <time>2022-07-08T19:42:48Z</time>
      </trkpt>
      <trkpt lat="42.734708" lon="-2.746305">
        <ele>562.209</ele>
        <time>2022-07-08T19:42:49Z</time>
      </trkpt>
      <trkpt lat="42.734715" lon="-2.746417">
        <ele>561.975</ele>
        <time>2022-07-08T19:42:51Z</time>
      </trkpt>
      <trkpt lat="42.734692" lon="-2.746473">
        <ele>561.534</ele>
        <time>2022-07-08T19:42:52Z</time>
      </trkpt>
      <trkpt lat="42.734678" lon="-2.746559">
        <ele>560.931</ele>
        <time>2022-07-08T19:42:55Z</time>
      </trkpt>
      <trkpt lat="42.734691" lon="-2.746632">
        <ele>560.877</ele>
        <time>2022-07-08T19:42:57Z</time>
      </trkpt>
      <trkpt lat="42.734702" lon="-2.746731">
        <ele>560.763</ele>
        <time>2022-07-08T19:42:59Z</time>
      </trkpt>
      <trkpt lat="42.734696" lon="-2.746822">
        <ele>560.779</ele>
        <time>2022-07-08T19:43:01Z</time>
      </trkpt>
      <trkpt lat="42.734660" lon="-2.746918">
        <ele>560.529</ele>
        <time>2022-07-08T19:43:03Z</time>
      </trkpt>
      <trkpt lat="42.734634" lon="-2.747032">
        <ele>560.156</ele>
        <time>2022-07-08T19:43:05Z</time>
      </trkpt>
      <trkpt lat="42.734616" lon="-2.747136">
        <ele>559.888</ele>
        <time>2022-07-08T19:43:07Z</time>
      </trkpt>
      <trkpt lat="42.734592" lon="-2.747211">
        <ele>559.617</ele>
        <time>2022-07-08T19:43:09Z</time>
      </trkpt>
      <trkpt lat="42.734574" lon="-2.747272">
        <ele>559.387</ele>
        <time>2022-07-08T19:43:11Z</time>
      </trkpt>
      <trkpt lat="42.734572" lon="-2.747359">
        <ele>559.215</ele>
        <time>2022-07-08T19:43:13Z</time>
      </trkpt>
      <trkpt lat="42.734581" lon="-2.747425">
        <ele>558.909</ele>
        <time>2022-07-08T19:43:14Z</time>
      </trkpt>
      <trkpt lat="42.734589" lon="-2.747487">
        <ele>558.852</ele>
        <time>2022-07-08T19:43:15Z</time>
      </trkpt>
      <trkpt lat="42.734599" lon="-2.747588">
        <ele>558.361</ele>
        <time>2022-07-08T19:43:17Z</time>
      </trkpt>
      <trkpt lat="42.734582" lon="-2.747646">
        <ele>557.888</ele>
        <time>2022-07-08T19:43:20Z</time>
      </trkpt>
      <trkpt lat="42.734537" lon="-2.747715">
        <ele>556.724</ele>
        <time>2022-07-08T19:43:22Z</time>
      </trkpt>
      <trkpt lat="42.734485" lon="-2.747815">
        <ele>554.540</ele>
        <time>2022-07-08T19:43:24Z</time>
      </trkpt>
      <trkpt lat="42.734447" lon="-2.747913">
        <ele>553.686</ele>
        <time>2022-07-08T19:43:25Z</time>
      </trkpt>
      <trkpt lat="42.734440" lon="-2.748005">
        <ele>552.966</ele>
        <time>2022-07-08T19:43:26Z</time>
      </trkpt>
      <trkpt lat="42.734425" lon="-2.748067">
        <ele>552.343</ele>
        <time>2022-07-08T19:43:27Z</time>
      </trkpt>
      <trkpt lat="42.734404" lon="-2.748134">
        <ele>552.095</ele>
        <time>2022-07-08T19:43:28Z</time>
      </trkpt>
      <trkpt lat="42.734374" lon="-2.748195">
        <ele>551.534</ele>
        <time>2022-07-08T19:43:29Z</time>
      </trkpt>
      <trkpt lat="42.734362" lon="-2.748257">
        <ele>551.155</ele>
        <time>2022-07-08T19:43:30Z</time>
      </trkpt>
      <trkpt lat="42.734348" lon="-2.748321">
        <ele>550.810</ele>
        <time>2022-07-08T19:43:31Z</time>
      </trkpt>
      <trkpt lat="42.734334" lon="-2.748391">
        <ele>550.509</ele>
        <time>2022-07-08T19:43:32Z</time>
      </trkpt>
      <trkpt lat="42.734316" lon="-2.748472">
        <ele>550.324</ele>
        <time>2022-07-08T19:43:33Z</time>
      </trkpt>
      <trkpt lat="42.734300" lon="-2.748534">
        <ele>549.953</ele>
        <time>2022-07-08T19:43:34Z</time>
      </trkpt>
      <trkpt lat="42.734289" lon="-2.748628">
        <ele>549.250</ele>
        <time>2022-07-08T19:43:36Z</time>
      </trkpt>
      <trkpt lat="42.734251" lon="-2.748682">
        <ele>548.826</ele>
        <time>2022-07-08T19:43:38Z</time>
      </trkpt>
      <trkpt lat="42.734188" lon="-2.748730">
        <ele>547.962</ele>
        <time>2022-07-08T19:43:41Z</time>
      </trkpt>
      <trkpt lat="42.734141" lon="-2.748756">
        <ele>546.848</ele>
        <time>2022-07-08T19:43:43Z</time>
      </trkpt>
      <trkpt lat="42.734106" lon="-2.748843">
        <ele>545.388</ele>
        <time>2022-07-08T19:43:45Z</time>
      </trkpt>
      <trkpt lat="42.734092" lon="-2.748904">
        <ele>544.475</ele>
        <time>2022-07-08T19:43:46Z</time>
      </trkpt>
      <trkpt lat="42.734053" lon="-2.749032">
        <ele>543.377</ele>
        <time>2022-07-08T19:43:48Z</time>
      </trkpt>
      <trkpt lat="42.734020" lon="-2.749096">
        <ele>542.742</ele>
        <time>2022-07-08T19:43:49Z</time>
      </trkpt>
      <trkpt lat="42.734002" lon="-2.749206">
        <ele>542.222</ele>
        <time>2022-07-08T19:43:50Z</time>
      </trkpt>
      <trkpt lat="42.733973" lon="-2.749271">
        <ele>541.914</ele>
        <time>2022-07-08T19:43:51Z</time>
      </trkpt>
      <trkpt lat="42.733927" lon="-2.749347">
        <ele>541.709</ele>
        <time>2022-07-08T19:43:52Z</time>
      </trkpt>
      <trkpt lat="42.733892" lon="-2.749418">
        <ele>541.315</ele>
        <time>2022-07-08T19:43:53Z</time>
      </trkpt>
      <trkpt lat="42.733859" lon="-2.749486">
        <ele>541.134</ele>
        <time>2022-07-08T19:43:54Z</time>
      </trkpt>
      <trkpt lat="42.733805" lon="-2.749594">
        <ele>541.091</ele>
        <time>2022-07-08T19:43:55Z</time>
      </trkpt>
      <trkpt lat="42.733756" lon="-2.749673">
        <ele>540.957</ele>
        <time>2022-07-08T19:43:56Z</time>
      </trkpt>
      <trkpt lat="42.733700" lon="-2.749774">
        <ele>540.783</ele>
        <time>2022-07-08T19:43:57Z</time>
      </trkpt>
      <trkpt lat="42.733634" lon="-2.749861">
        <ele>540.479</ele>
        <time>2022-07-08T19:43:58Z</time>
      </trkpt>
      <trkpt lat="42.733566" lon="-2.749947">
        <ele>539.949</ele>
        <time>2022-07-08T19:43:59Z</time>
      </trkpt>
      <trkpt lat="42.733502" lon="-2.750032">
        <ele>539.566</ele>
        <time>2022-07-08T19:44:00Z</time>
      </trkpt>
      <trkpt lat="42.733439" lon="-2.750128">
        <ele>539.168</ele>
        <time>2022-07-08T19:44:01Z</time>
      </trkpt>
      <trkpt lat="42.733374" lon="-2.750208">
        <ele>538.833</ele>
        <time>2022-07-08T19:44:02Z</time>
      </trkpt>
      <trkpt lat="42.733320" lon="-2.750286">
        <ele>538.623</ele>
        <time>2022-07-08T19:44:03Z</time>
      </trkpt>
      <trkpt lat="42.733269" lon="-2.750365">
        <ele>538.215</ele>
        <time>2022-07-08T19:44:04Z</time>
      </trkpt>
      <trkpt lat="42.733203" lon="-2.750451">
        <ele>537.809</ele>
        <time>2022-07-08T19:44:05Z</time>
      </trkpt>
      <trkpt lat="42.733156" lon="-2.750537">
        <ele>537.374</ele>
        <time>2022-07-08T19:44:06Z</time>
      </trkpt>
      <trkpt lat="42.733093" lon="-2.750623">
        <ele>536.933</ele>
        <time>2022-07-08T19:44:07Z</time>
      </trkpt>
      <trkpt lat="42.733036" lon="-2.750704">
        <ele>536.630</ele>
        <time>2022-07-08T19:44:08Z</time>
      </trkpt>
      <trkpt lat="42.732988" lon="-2.750802">
        <ele>536.386</ele>
        <time>2022-07-08T19:44:09Z</time>
      </trkpt>
      <trkpt lat="42.732932" lon="-2.750881">
        <ele>536.112</ele>
        <time>2022-07-08T19:44:10Z</time>
      </trkpt>
      <trkpt lat="42.732869" lon="-2.750949">
        <ele>535.978</ele>
        <time>2022-07-08T19:44:11Z</time>
      </trkpt>
      <trkpt lat="42.732817" lon="-2.751024">
        <ele>535.638</ele>
        <time>2022-07-08T19:44:12Z</time>
      </trkpt>
      <trkpt lat="42.732766" lon="-2.751116">
        <ele>535.355</ele>
        <time>2022-07-08T19:44:13Z</time>
      </trkpt>
      <trkpt lat="42.732714" lon="-2.751198">
        <ele>535.017</ele>
        <time>2022-07-08T19:44:14Z</time>
      </trkpt>
      <trkpt lat="42.732668" lon="-2.751268">
        <ele>534.729</ele>
        <time>2022-07-08T19:44:15Z</time>
      </trkpt>
      <trkpt lat="42.732619" lon="-2.751340">
        <ele>534.400</ele>
        <time>2022-07-08T19:44:16Z</time>
      </trkpt>
      <trkpt lat="42.732595" lon="-2.751422">
        <ele>534.320</ele>
        <time>2022-07-08T19:44:17Z</time>
      </trkpt>
      <trkpt lat="42.732548" lon="-2.751490">
        <ele>534.209</ele>
        <time>2022-07-08T19:44:18Z</time>
      </trkpt>
      <trkpt lat="42.732503" lon="-2.751558">
        <ele>534.113</ele>
        <time>2022-07-08T19:44:19Z</time>
      </trkpt>
      <trkpt lat="42.732453" lon="-2.751633">
        <ele>534.072</ele>
        <time>2022-07-08T19:44:20Z</time>
      </trkpt>
      <trkpt lat="42.732423" lon="-2.751679">
        <ele>534.039</ele>
        <time>2022-07-08T19:44:21Z</time>
      </trkpt>
      <trkpt lat="42.732373" lon="-2.751746">
        <ele>534.025</ele>
        <time>2022-07-08T19:44:22Z</time>
      </trkpt>
      <trkpt lat="42.732333" lon="-2.751820">
        <ele>534.051</ele>
        <time>2022-07-08T19:44:23Z</time>
      </trkpt>
      <trkpt lat="42.732296" lon="-2.751875">
        <ele>534.247</ele>
        <time>2022-07-08T19:44:24Z</time>
      </trkpt>
      <trkpt lat="42.732236" lon="-2.751935">
        <ele>534.477</ele>
        <time>2022-07-08T19:44:25Z</time>
      </trkpt>
      <trkpt lat="42.732192" lon="-2.751987">
        <ele>534.644</ele>
        <time>2022-07-08T19:44:26Z</time>
      </trkpt>
      <trkpt lat="42.732152" lon="-2.752056">
        <ele>534.736</ele>
        <time>2022-07-08T19:44:27Z</time>
      </trkpt>
      <trkpt lat="42.732106" lon="-2.752128">
        <ele>534.872</ele>
        <time>2022-07-08T19:44:28Z</time>
      </trkpt>
      <trkpt lat="42.732024" lon="-2.752204">
        <ele>534.813</ele>
        <time>2022-07-08T19:44:29Z</time>
      </trkpt>
      <trkpt lat="42.731980" lon="-2.752252">
        <ele>534.814</ele>
        <time>2022-07-08T19:44:30Z</time>
      </trkpt>
      <trkpt lat="42.731943" lon="-2.752319">
        <ele>534.809</ele>
        <time>2022-07-08T19:44:31Z</time>
      </trkpt>
      <trkpt lat="42.731912" lon="-2.752369">
        <ele>534.838</ele>
        <time>2022-07-08T19:44:32Z</time>
      </trkpt>
      <trkpt lat="42.731853" lon="-2.752470">
        <ele>534.887</ele>
        <time>2022-07-08T19:44:34Z</time>
      </trkpt>
      <trkpt lat="42.731823" lon="-2.752523">
        <ele>535.094</ele>
        <time>2022-07-08T19:44:35Z</time>
      </trkpt>
      <trkpt lat="42.731792" lon="-2.752580">
        <ele>535.250</ele>
        <time>2022-07-08T19:44:36Z</time>
      </trkpt>
      <trkpt lat="42.731764" lon="-2.752633">
        <ele>535.356</ele>
        <time>2022-07-08T19:44:37Z</time>
      </trkpt>
      <trkpt lat="42.731733" lon="-2.752690">
        <ele>535.332</ele>
        <time>2022-07-08T19:44:38Z</time>
      </trkpt>
      <trkpt lat="42.731709" lon="-2.752742">
        <ele>535.352</ele>
        <time>2022-07-08T19:44:39Z</time>
      </trkpt>
      <trkpt lat="42.731671" lon="-2.752841">
        <ele>535.329</ele>
        <time>2022-07-08T19:44:41Z</time>
      </trkpt>
      <trkpt lat="42.731651" lon="-2.752907">
        <ele>535.161</ele>
        <time>2022-07-08T19:44:42Z</time>
      </trkpt>
      <trkpt lat="42.731622" lon="-2.753026">
        <ele>534.638</ele>
        <time>2022-07-08T19:44:44Z</time>
      </trkpt>
      <trkpt lat="42.731526" lon="-2.753060">
        <ele>534.370</ele>
        <time>2022-07-08T19:44:45Z</time>
      </trkpt>
      <trkpt lat="42.731509" lon="-2.753168">
        <ele>533.817</ele>
        <time>2022-07-08T19:44:47Z</time>
      </trkpt>
      <trkpt lat="42.731513" lon="-2.753265">
        <ele>533.509</ele>
        <time>2022-07-08T19:44:49Z</time>
      </trkpt>
      <trkpt lat="42.731501" lon="-2.753335">
        <ele>533.034</ele>
        <time>2022-07-08T19:44:51Z</time>
      </trkpt>
      <trkpt lat="42.731468" lon="-2.753380">
        <ele>532.873</ele>
        <time>2022-07-08T19:45:05Z</time>
      </trkpt>
      <trkpt lat="42.731425" lon="-2.753417">
        <ele>532.790</ele>
        <time>2022-07-08T19:45:43Z</time>
      </trkpt>
    </trkseg>
  </trk>
</gpx>
